<?xml version="1.0" encoding="UTF-8" standalone="no" ?>
<gpx xmlns="http://www.topografix.com/GPX/1/1" xmlns:xsi="http://www.w3.org/2001/XMLSchema-instance" xsi:schemaLocation="http://www.topografix.com/GPX/1/1 http://www.topografix.com/GPX/1/1/gpx.xsd" version="1.1" creator="VisuGPX - https://www.visugpx.com">
  <metadata>
    <name>GTHL 2021 - etape 1</name>
  </metadata>
  <trk>
    <name><![CDATA[GTHL 2021]]></name>
    <extensions>
      <line xmlns="http://www.topografix.com/GPX/gpx_style/0/2">
        <color>FF0000</color>
        <width>4</width>
      </line>
    </extensions>
    <trkseg>
      <trkpt lat="45.3201" lon="3.69819">
        <ele>1075</ele>
        <time>2021-04-14T15:40:50Z</time>
      </trkpt>
      <trkpt lat="45.3201" lon="3.69825">
        <ele>1075</ele>
        <time>2021-04-14T15:40:51Z</time>
      </trkpt>
      <trkpt lat="45.3201" lon="3.69831">
        <ele>1076</ele>
        <time>2021-04-14T15:40:52Z</time>
      </trkpt>
      <trkpt lat="45.32008" lon="3.69843">
        <ele>1076</ele>
        <time>2021-04-14T15:40:53Z</time>
      </trkpt>
      <trkpt lat="45.32007" lon="3.69849">
        <ele>1076</ele>
        <time>2021-04-14T15:40:55Z</time>
      </trkpt>
      <trkpt lat="45.32006" lon="3.69856">
        <ele>1075</ele>
        <time>2021-04-14T15:40:56Z</time>
      </trkpt>
      <trkpt lat="45.32005" lon="3.69862">
        <ele>1075</ele>
        <time>2021-04-14T15:40:57Z</time>
      </trkpt>
      <trkpt lat="45.32003" lon="3.69876">
        <ele>1075</ele>
        <time>2021-04-14T15:40:58Z</time>
      </trkpt>
      <trkpt lat="45.32002" lon="3.69882">
        <ele>1075</ele>
        <time>2021-04-14T15:41:00Z</time>
      </trkpt>
      <trkpt lat="45.32001" lon="3.69889">
        <ele>1075</ele>
        <time>2021-04-14T15:41:01Z</time>
      </trkpt>
      <trkpt lat="45.32" lon="3.69895">
        <ele>1075</ele>
        <time>2021-04-14T15:41:02Z</time>
      </trkpt>
      <trkpt lat="45.32" lon="3.69901">
        <ele>1075</ele>
        <time>2021-04-14T15:41:03Z</time>
      </trkpt>
      <trkpt lat="45.31999" lon="3.69908">
        <ele>1075</ele>
        <time>2021-04-14T15:41:04Z</time>
      </trkpt>
      <trkpt lat="45.31998" lon="3.69914">
        <ele>1075</ele>
        <time>2021-04-14T15:41:05Z</time>
      </trkpt>
      <trkpt lat="45.31997" lon="3.6992">
        <ele>1075</ele>
        <time>2021-04-14T15:41:06Z</time>
      </trkpt>
      <trkpt lat="45.31995" lon="3.69927">
        <ele>1075</ele>
        <time>2021-04-14T15:41:07Z</time>
      </trkpt>
      <trkpt lat="45.31993" lon="3.69934">
        <ele>1075</ele>
        <time>2021-04-14T15:41:08Z</time>
      </trkpt>
      <trkpt lat="45.31991" lon="3.6994">
        <ele>1075</ele>
        <time>2021-04-14T15:41:09Z</time>
      </trkpt>
      <trkpt lat="45.3199" lon="3.69948">
        <ele>1075</ele>
        <time>2021-04-14T15:41:10Z</time>
      </trkpt>
      <trkpt lat="45.31987" lon="3.69954">
        <ele>1075</ele>
        <time>2021-04-14T15:41:11Z</time>
      </trkpt>
      <trkpt lat="45.31983" lon="3.6996">
        <ele>1075</ele>
        <time>2021-04-14T15:41:12Z</time>
      </trkpt>
      <trkpt lat="45.31978" lon="3.69963">
        <ele>1075</ele>
        <time>2021-04-14T15:41:13Z</time>
      </trkpt>
      <trkpt lat="45.31972" lon="3.69965">
        <ele>1075</ele>
        <time>2021-04-14T15:41:14Z</time>
      </trkpt>
      <trkpt lat="45.31967" lon="3.69967">
        <ele>1075</ele>
        <time>2021-04-14T15:41:15Z</time>
      </trkpt>
      <trkpt lat="45.31963" lon="3.69969">
        <ele>1075</ele>
        <time>2021-04-14T15:41:16Z</time>
      </trkpt>
      <trkpt lat="45.31958" lon="3.6997">
        <ele>1075</ele>
        <time>2021-04-14T15:41:17Z</time>
      </trkpt>
      <trkpt lat="45.31953" lon="3.6997">
        <ele>1075</ele>
        <time>2021-04-14T15:41:18Z</time>
      </trkpt>
      <trkpt lat="45.31948" lon="3.69969">
        <ele>1075</ele>
        <time>2021-04-14T15:41:19Z</time>
      </trkpt>
      <trkpt lat="45.31944" lon="3.69968">
        <ele>1075</ele>
        <time>2021-04-14T15:41:20Z</time>
      </trkpt>
      <trkpt lat="45.31939" lon="3.69968">
        <ele>1075</ele>
        <time>2021-04-14T15:41:21Z</time>
      </trkpt>
      <trkpt lat="45.31934" lon="3.69967">
        <ele>1075</ele>
        <time>2021-04-14T15:41:22Z</time>
      </trkpt>
      <trkpt lat="45.3193" lon="3.69967">
        <ele>1075</ele>
        <time>2021-04-14T15:41:23Z</time>
      </trkpt>
      <trkpt lat="45.31925" lon="3.69967">
        <ele>1075</ele>
        <time>2021-04-14T15:41:24Z</time>
      </trkpt>
      <trkpt lat="45.31921" lon="3.69966">
        <ele>1075</ele>
        <time>2021-04-14T15:41:25Z</time>
      </trkpt>
      <trkpt lat="45.31917" lon="3.69966">
        <ele>1075</ele>
        <time>2021-04-14T15:41:26Z</time>
      </trkpt>
      <trkpt lat="45.31914" lon="3.69966">
        <ele>1075</ele>
        <time>2021-04-14T15:41:27Z</time>
      </trkpt>
      <trkpt lat="45.3191" lon="3.69965">
        <ele>1075</ele>
        <time>2021-04-14T15:41:28Z</time>
      </trkpt>
      <trkpt lat="45.31907" lon="3.69965">
        <ele>1075</ele>
        <time>2021-04-14T15:41:29Z</time>
      </trkpt>
      <trkpt lat="45.31903" lon="3.69965">
        <ele>1075</ele>
        <time>2021-04-14T15:41:30Z</time>
      </trkpt>
      <trkpt lat="45.319" lon="3.69965">
        <ele>1075</ele>
        <time>2021-04-14T15:41:31Z</time>
      </trkpt>
      <trkpt lat="45.31897" lon="3.69965">
        <ele>1075</ele>
        <time>2021-04-14T15:41:32Z</time>
      </trkpt>
      <trkpt lat="45.31893" lon="3.69965">
        <ele>1075</ele>
        <time>2021-04-14T15:41:33Z</time>
      </trkpt>
      <trkpt lat="45.3189" lon="3.69965">
        <ele>1075</ele>
        <time>2021-04-14T15:41:34Z</time>
      </trkpt>
      <trkpt lat="45.31886" lon="3.69965">
        <ele>1075</ele>
        <time>2021-04-14T15:41:35Z</time>
      </trkpt>
      <trkpt lat="45.31883" lon="3.69964">
        <ele>1075</ele>
        <time>2021-04-14T15:41:36Z</time>
      </trkpt>
      <trkpt lat="45.3188" lon="3.69963">
        <ele>1075</ele>
        <time>2021-04-14T15:41:37Z</time>
      </trkpt>
      <trkpt lat="45.31876" lon="3.69963">
        <ele>1076</ele>
        <time>2021-04-14T15:41:38Z</time>
      </trkpt>
      <trkpt lat="45.31873" lon="3.69963">
        <ele>1076</ele>
        <time>2021-04-14T15:41:39Z</time>
      </trkpt>
      <trkpt lat="45.3187" lon="3.69964">
        <ele>1075</ele>
        <time>2021-04-14T15:41:40Z</time>
      </trkpt>
      <trkpt lat="45.31867" lon="3.69967">
        <ele>1075</ele>
        <time>2021-04-14T15:41:41Z</time>
      </trkpt>
      <trkpt lat="45.31864" lon="3.6997">
        <ele>1076</ele>
        <time>2021-04-14T15:41:42Z</time>
      </trkpt>
      <trkpt lat="45.31862" lon="3.69972">
        <ele>1076</ele>
        <time>2021-04-14T15:41:43Z</time>
      </trkpt>
      <trkpt lat="45.3186" lon="3.69976">
        <ele>1076</ele>
        <time>2021-04-14T15:41:44Z</time>
      </trkpt>
      <trkpt lat="45.31858" lon="3.6998">
        <ele>1076</ele>
        <time>2021-04-14T15:41:45Z</time>
      </trkpt>
      <trkpt lat="45.31856" lon="3.69985">
        <ele>1076</ele>
        <time>2021-04-14T15:41:46Z</time>
      </trkpt>
      <trkpt lat="45.31854" lon="3.69989">
        <ele>1076</ele>
        <time>2021-04-14T15:41:47Z</time>
      </trkpt>
      <trkpt lat="45.31852" lon="3.69994">
        <ele>1076</ele>
        <time>2021-04-14T15:41:48Z</time>
      </trkpt>
      <trkpt lat="45.3185" lon="3.69998">
        <ele>1076</ele>
        <time>2021-04-14T15:41:49Z</time>
      </trkpt>
      <trkpt lat="45.31848" lon="3.70002">
        <ele>1077</ele>
        <time>2021-04-14T15:41:50Z</time>
      </trkpt>
      <trkpt lat="45.31846" lon="3.70006">
        <ele>1077</ele>
        <time>2021-04-14T15:41:51Z</time>
      </trkpt>
      <trkpt lat="45.31844" lon="3.7001">
        <ele>1077</ele>
        <time>2021-04-14T15:41:52Z</time>
      </trkpt>
      <trkpt lat="45.31841" lon="3.70014">
        <ele>1078</ele>
        <time>2021-04-14T15:41:53Z</time>
      </trkpt>
      <trkpt lat="45.31839" lon="3.70018">
        <ele>1078</ele>
        <time>2021-04-14T15:41:54Z</time>
      </trkpt>
      <trkpt lat="45.31837" lon="3.70022">
        <ele>1078</ele>
        <time>2021-04-14T15:41:55Z</time>
      </trkpt>
      <trkpt lat="45.31835" lon="3.70026">
        <ele>1078</ele>
        <time>2021-04-14T15:41:56Z</time>
      </trkpt>
      <trkpt lat="45.31833" lon="3.7003">
        <ele>1078</ele>
        <time>2021-04-14T15:41:57Z</time>
      </trkpt>
      <trkpt lat="45.31831" lon="3.70035">
        <ele>1078</ele>
        <time>2021-04-14T15:41:58Z</time>
      </trkpt>
      <trkpt lat="45.31829" lon="3.70038">
        <ele>1079</ele>
        <time>2021-04-14T15:41:59Z</time>
      </trkpt>
      <trkpt lat="45.31826" lon="3.70042">
        <ele>1079</ele>
        <time>2021-04-14T15:42:00Z</time>
      </trkpt>
      <trkpt lat="45.31824" lon="3.70046">
        <ele>1079</ele>
        <time>2021-04-14T15:42:01Z</time>
      </trkpt>
      <trkpt lat="45.31822" lon="3.7005">
        <ele>1079</ele>
        <time>2021-04-14T15:42:02Z</time>
      </trkpt>
      <trkpt lat="45.3182" lon="3.70054">
        <ele>1079</ele>
        <time>2021-04-14T15:42:03Z</time>
      </trkpt>
      <trkpt lat="45.31818" lon="3.70058">
        <ele>1079</ele>
        <time>2021-04-14T15:42:04Z</time>
      </trkpt>
      <trkpt lat="45.31816" lon="3.70061">
        <ele>1079</ele>
        <time>2021-04-14T15:42:05Z</time>
      </trkpt>
      <trkpt lat="45.31814" lon="3.70065">
        <ele>1079</ele>
        <time>2021-04-14T15:42:06Z</time>
      </trkpt>
      <trkpt lat="45.31811" lon="3.70068">
        <ele>1079</ele>
        <time>2021-04-14T15:42:07Z</time>
      </trkpt>
      <trkpt lat="45.3181" lon="3.70071">
        <ele>1079</ele>
        <time>2021-04-14T15:42:08Z</time>
      </trkpt>
      <trkpt lat="45.31808" lon="3.70075">
        <ele>1080</ele>
        <time>2021-04-14T15:42:09Z</time>
      </trkpt>
      <trkpt lat="45.31806" lon="3.70078">
        <ele>1080</ele>
        <time>2021-04-14T15:42:10Z</time>
      </trkpt>
      <trkpt lat="45.31804" lon="3.70081">
        <ele>1080</ele>
        <time>2021-04-14T15:42:11Z</time>
      </trkpt>
      <trkpt lat="45.31803" lon="3.70084">
        <ele>1080</ele>
        <time>2021-04-14T15:42:12Z</time>
      </trkpt>
      <trkpt lat="45.31801" lon="3.70087">
        <ele>1081</ele>
        <time>2021-04-14T15:42:13Z</time>
      </trkpt>
      <trkpt lat="45.31799" lon="3.70091">
        <ele>1081</ele>
        <time>2021-04-14T15:42:14Z</time>
      </trkpt>
      <trkpt lat="45.31796" lon="3.70095">
        <ele>1081</ele>
        <time>2021-04-14T15:42:15Z</time>
      </trkpt>
      <trkpt lat="45.31794" lon="3.70099">
        <ele>1081</ele>
        <time>2021-04-14T15:42:16Z</time>
      </trkpt>
      <trkpt lat="45.31791" lon="3.70103">
        <ele>1081</ele>
        <time>2021-04-14T15:42:17Z</time>
      </trkpt>
      <trkpt lat="45.31788" lon="3.70107">
        <ele>1082</ele>
        <time>2021-04-14T15:42:18Z</time>
      </trkpt>
      <trkpt lat="45.31786" lon="3.70111">
        <ele>1082</ele>
        <time>2021-04-14T15:42:19Z</time>
      </trkpt>
      <trkpt lat="45.31784" lon="3.70115">
        <ele>1082</ele>
        <time>2021-04-14T15:42:20Z</time>
      </trkpt>
      <trkpt lat="45.31783" lon="3.70119">
        <ele>1082</ele>
        <time>2021-04-14T15:42:21Z</time>
      </trkpt>
      <trkpt lat="45.31781" lon="3.70123">
        <ele>1083</ele>
        <time>2021-04-14T15:42:22Z</time>
      </trkpt>
      <trkpt lat="45.31779" lon="3.70127">
        <ele>1083</ele>
        <time>2021-04-14T15:42:23Z</time>
      </trkpt>
      <trkpt lat="45.31778" lon="3.70131">
        <ele>1083</ele>
        <time>2021-04-14T15:42:24Z</time>
      </trkpt>
      <trkpt lat="45.31776" lon="3.70135">
        <ele>1083</ele>
        <time>2021-04-14T15:42:25Z</time>
      </trkpt>
      <trkpt lat="45.31774" lon="3.7014">
        <ele>1084</ele>
        <time>2021-04-14T15:42:26Z</time>
      </trkpt>
      <trkpt lat="45.31773" lon="3.70145">
        <ele>1084</ele>
        <time>2021-04-14T15:42:27Z</time>
      </trkpt>
      <trkpt lat="45.31771" lon="3.70149">
        <ele>1085</ele>
        <time>2021-04-14T15:42:28Z</time>
      </trkpt>
      <trkpt lat="45.31769" lon="3.70154">
        <ele>1085</ele>
        <time>2021-04-14T15:42:29Z</time>
      </trkpt>
      <trkpt lat="45.31768" lon="3.70158">
        <ele>1085</ele>
        <time>2021-04-14T15:42:30Z</time>
      </trkpt>
      <trkpt lat="45.31766" lon="3.70163">
        <ele>1086</ele>
        <time>2021-04-14T15:42:31Z</time>
      </trkpt>
      <trkpt lat="45.31764" lon="3.70168">
        <ele>1086</ele>
        <time>2021-04-14T15:42:32Z</time>
      </trkpt>
      <trkpt lat="45.31763" lon="3.70172">
        <ele>1086</ele>
        <time>2021-04-14T15:42:33Z</time>
      </trkpt>
      <trkpt lat="45.31761" lon="3.70177">
        <ele>1086</ele>
        <time>2021-04-14T15:42:34Z</time>
      </trkpt>
      <trkpt lat="45.31759" lon="3.70182">
        <ele>1086</ele>
        <time>2021-04-14T15:42:35Z</time>
      </trkpt>
      <trkpt lat="45.31758" lon="3.70187">
        <ele>1087</ele>
        <time>2021-04-14T15:42:36Z</time>
      </trkpt>
      <trkpt lat="45.31756" lon="3.70191">
        <ele>1087</ele>
        <time>2021-04-14T15:42:37Z</time>
      </trkpt>
      <trkpt lat="45.31754" lon="3.70196">
        <ele>1087</ele>
        <time>2021-04-14T15:42:38Z</time>
      </trkpt>
      <trkpt lat="45.31752" lon="3.70201">
        <ele>1087</ele>
        <time>2021-04-14T15:42:39Z</time>
      </trkpt>
      <trkpt lat="45.3175" lon="3.70206">
        <ele>1088</ele>
        <time>2021-04-14T15:42:40Z</time>
      </trkpt>
      <trkpt lat="45.31748" lon="3.7021">
        <ele>1088</ele>
        <time>2021-04-14T15:42:41Z</time>
      </trkpt>
      <trkpt lat="45.31746" lon="3.70215">
        <ele>1088</ele>
        <time>2021-04-14T15:42:42Z</time>
      </trkpt>
      <trkpt lat="45.31744" lon="3.7022">
        <ele>1088</ele>
        <time>2021-04-14T15:42:43Z</time>
      </trkpt>
      <trkpt lat="45.31742" lon="3.70224">
        <ele>1088</ele>
        <time>2021-04-14T15:42:44Z</time>
      </trkpt>
      <trkpt lat="45.31739" lon="3.70229">
        <ele>1088</ele>
        <time>2021-04-14T15:42:45Z</time>
      </trkpt>
      <trkpt lat="45.31737" lon="3.70233">
        <ele>1089</ele>
        <time>2021-04-14T15:42:46Z</time>
      </trkpt>
      <trkpt lat="45.31734" lon="3.70237">
        <ele>1089</ele>
        <time>2021-04-14T15:42:47Z</time>
      </trkpt>
      <trkpt lat="45.31732" lon="3.70241">
        <ele>1089</ele>
        <time>2021-04-14T15:42:48Z</time>
      </trkpt>
      <trkpt lat="45.3173" lon="3.70246">
        <ele>1089</ele>
        <time>2021-04-14T15:42:49Z</time>
      </trkpt>
      <trkpt lat="45.31727" lon="3.7025">
        <ele>1089</ele>
        <time>2021-04-14T15:42:50Z</time>
      </trkpt>
      <trkpt lat="45.31725" lon="3.70254">
        <ele>1089</ele>
        <time>2021-04-14T15:42:51Z</time>
      </trkpt>
      <trkpt lat="45.31722" lon="3.70258">
        <ele>1090</ele>
        <time>2021-04-14T15:42:52Z</time>
      </trkpt>
      <trkpt lat="45.3172" lon="3.70262">
        <ele>1090</ele>
        <time>2021-04-14T15:42:53Z</time>
      </trkpt>
      <trkpt lat="45.31717" lon="3.70266">
        <ele>1090</ele>
        <time>2021-04-14T15:42:54Z</time>
      </trkpt>
      <trkpt lat="45.31715" lon="3.7027">
        <ele>1090</ele>
        <time>2021-04-14T15:42:55Z</time>
      </trkpt>
      <trkpt lat="45.31712" lon="3.70273">
        <ele>1090</ele>
        <time>2021-04-14T15:42:56Z</time>
      </trkpt>
      <trkpt lat="45.31709" lon="3.70277">
        <ele>1090</ele>
        <time>2021-04-14T15:42:57Z</time>
      </trkpt>
      <trkpt lat="45.31704" lon="3.70285">
        <ele>1090</ele>
        <time>2021-04-14T15:42:58Z</time>
      </trkpt>
      <trkpt lat="45.31701" lon="3.70288">
        <ele>1091</ele>
        <time>2021-04-14T15:43:00Z</time>
      </trkpt>
      <trkpt lat="45.31699" lon="3.70292">
        <ele>1091</ele>
        <time>2021-04-14T15:43:01Z</time>
      </trkpt>
      <trkpt lat="45.31696" lon="3.70295">
        <ele>1091</ele>
        <time>2021-04-14T15:43:02Z</time>
      </trkpt>
      <trkpt lat="45.31693" lon="3.70298">
        <ele>1091</ele>
        <time>2021-04-14T15:43:03Z</time>
      </trkpt>
      <trkpt lat="45.3169" lon="3.70302">
        <ele>1092</ele>
        <time>2021-04-14T15:43:04Z</time>
      </trkpt>
      <trkpt lat="45.31687" lon="3.70306">
        <ele>1092</ele>
        <time>2021-04-14T15:43:05Z</time>
      </trkpt>
      <trkpt lat="45.31684" lon="3.70309">
        <ele>1092</ele>
        <time>2021-04-14T15:43:06Z</time>
      </trkpt>
      <trkpt lat="45.31681" lon="3.70313">
        <ele>1092</ele>
        <time>2021-04-14T15:43:07Z</time>
      </trkpt>
      <trkpt lat="45.31677" lon="3.70317">
        <ele>1092</ele>
        <time>2021-04-14T15:43:08Z</time>
      </trkpt>
      <trkpt lat="45.31674" lon="3.7032">
        <ele>1092</ele>
        <time>2021-04-14T15:43:09Z</time>
      </trkpt>
      <trkpt lat="45.3167" lon="3.70323">
        <ele>1093</ele>
        <time>2021-04-14T15:43:10Z</time>
      </trkpt>
      <trkpt lat="45.31666" lon="3.70327">
        <ele>1093</ele>
        <time>2021-04-14T15:43:11Z</time>
      </trkpt>
      <trkpt lat="45.31662" lon="3.7033">
        <ele>1093</ele>
        <time>2021-04-14T15:43:12Z</time>
      </trkpt>
      <trkpt lat="45.31659" lon="3.70332">
        <ele>1093</ele>
        <time>2021-04-14T15:43:13Z</time>
      </trkpt>
      <trkpt lat="45.31655" lon="3.70335">
        <ele>1093</ele>
        <time>2021-04-14T15:43:14Z</time>
      </trkpt>
      <trkpt lat="45.31651" lon="3.70338">
        <ele>1093</ele>
        <time>2021-04-14T15:43:15Z</time>
      </trkpt>
      <trkpt lat="45.31646" lon="3.7034">
        <ele>1093</ele>
        <time>2021-04-14T15:43:16Z</time>
      </trkpt>
      <trkpt lat="45.31642" lon="3.70342">
        <ele>1093</ele>
        <time>2021-04-14T15:43:17Z</time>
      </trkpt>
      <trkpt lat="45.31638" lon="3.70344">
        <ele>1093</ele>
        <time>2021-04-14T15:43:18Z</time>
      </trkpt>
      <trkpt lat="45.31634" lon="3.70347">
        <ele>1093</ele>
        <time>2021-04-14T15:43:19Z</time>
      </trkpt>
      <trkpt lat="45.31629" lon="3.70349">
        <ele>1093</ele>
        <time>2021-04-14T15:43:20Z</time>
      </trkpt>
      <trkpt lat="45.31625" lon="3.70352">
        <ele>1093</ele>
        <time>2021-04-14T15:43:21Z</time>
      </trkpt>
      <trkpt lat="45.3162" lon="3.70354">
        <ele>1093</ele>
        <time>2021-04-14T15:43:22Z</time>
      </trkpt>
      <trkpt lat="45.31614" lon="3.70357">
        <ele>1092</ele>
        <time>2021-04-14T15:43:23Z</time>
      </trkpt>
      <trkpt lat="45.31609" lon="3.7036">
        <ele>1092</ele>
        <time>2021-04-14T15:43:24Z</time>
      </trkpt>
      <trkpt lat="45.31604" lon="3.70362">
        <ele>1092</ele>
        <time>2021-04-14T15:43:25Z</time>
      </trkpt>
      <trkpt lat="45.31599" lon="3.70365">
        <ele>1092</ele>
        <time>2021-04-14T15:43:26Z</time>
      </trkpt>
      <trkpt lat="45.31595" lon="3.70368">
        <ele>1092</ele>
        <time>2021-04-14T15:43:27Z</time>
      </trkpt>
      <trkpt lat="45.31591" lon="3.70371">
        <ele>1091</ele>
        <time>2021-04-14T15:43:28Z</time>
      </trkpt>
      <trkpt lat="45.31588" lon="3.70375">
        <ele>1091</ele>
        <time>2021-04-14T15:43:29Z</time>
      </trkpt>
      <trkpt lat="45.31584" lon="3.70378">
        <ele>1091</ele>
        <time>2021-04-14T15:43:30Z</time>
      </trkpt>
      <trkpt lat="45.31581" lon="3.70381">
        <ele>1091</ele>
        <time>2021-04-14T15:43:31Z</time>
      </trkpt>
      <trkpt lat="45.31578" lon="3.70384">
        <ele>1091</ele>
        <time>2021-04-14T15:43:32Z</time>
      </trkpt>
      <trkpt lat="45.31575" lon="3.70387">
        <ele>1090</ele>
        <time>2021-04-14T15:43:33Z</time>
      </trkpt>
      <trkpt lat="45.31573" lon="3.7039">
        <ele>1090</ele>
        <time>2021-04-14T15:43:34Z</time>
      </trkpt>
      <trkpt lat="45.31571" lon="3.70392">
        <ele>1090</ele>
        <time>2021-04-14T15:43:35Z</time>
      </trkpt>
      <trkpt lat="45.31569" lon="3.70393">
        <ele>1090</ele>
        <time>2021-04-14T15:43:36Z</time>
      </trkpt>
      <trkpt lat="45.31567" lon="3.70395">
        <ele>1090</ele>
        <time>2021-04-14T15:43:37Z</time>
      </trkpt>
      <trkpt lat="45.31565" lon="3.70396">
        <ele>1090</ele>
        <time>2021-04-14T15:43:38Z</time>
      </trkpt>
      <trkpt lat="45.31562" lon="3.70398">
        <ele>1090</ele>
        <time>2021-04-14T15:43:39Z</time>
      </trkpt>
      <trkpt lat="45.31558" lon="3.704">
        <ele>1090</ele>
        <time>2021-04-14T15:43:40Z</time>
      </trkpt>
      <trkpt lat="45.31555" lon="3.70402">
        <ele>1090</ele>
        <time>2021-04-14T15:43:41Z</time>
      </trkpt>
      <trkpt lat="45.31551" lon="3.70404">
        <ele>1090</ele>
        <time>2021-04-14T15:43:42Z</time>
      </trkpt>
      <trkpt lat="45.31548" lon="3.70406">
        <ele>1090</ele>
        <time>2021-04-14T15:43:43Z</time>
      </trkpt>
      <trkpt lat="45.31545" lon="3.70409">
        <ele>1090</ele>
        <time>2021-04-14T15:43:44Z</time>
      </trkpt>
      <trkpt lat="45.31541" lon="3.70412">
        <ele>1090</ele>
        <time>2021-04-14T15:43:45Z</time>
      </trkpt>
      <trkpt lat="45.31539" lon="3.70416">
        <ele>1090</ele>
        <time>2021-04-14T15:43:46Z</time>
      </trkpt>
      <trkpt lat="45.31536" lon="3.70419">
        <ele>1090</ele>
        <time>2021-04-14T15:43:47Z</time>
      </trkpt>
      <trkpt lat="45.31529" lon="3.70433">
        <ele>1090</ele>
        <time>2021-04-14T15:43:50Z</time>
      </trkpt>
      <trkpt lat="45.31524" lon="3.70449">
        <ele>1090</ele>
        <time>2021-04-14T15:43:52Z</time>
      </trkpt>
      <trkpt lat="45.31521" lon="3.70467">
        <ele>1090</ele>
        <time>2021-04-14T15:43:54Z</time>
      </trkpt>
      <trkpt lat="45.3152" lon="3.70482">
        <ele>1089</ele>
        <time>2021-04-14T15:43:56Z</time>
      </trkpt>
      <trkpt lat="45.31518" lon="3.705">
        <ele>1089</ele>
        <time>2021-04-14T15:43:58Z</time>
      </trkpt>
      <trkpt lat="45.31515" lon="3.70521">
        <ele>1089</ele>
        <time>2021-04-14T15:44:00Z</time>
      </trkpt>
      <trkpt lat="45.31508" lon="3.7054">
        <ele>1088</ele>
        <time>2021-04-14T15:44:02Z</time>
      </trkpt>
      <trkpt lat="45.31501" lon="3.70557">
        <ele>1088</ele>
        <time>2021-04-14T15:44:04Z</time>
      </trkpt>
      <trkpt lat="45.31496" lon="3.70565">
        <ele>1087</ele>
        <time>2021-04-14T15:44:05Z</time>
      </trkpt>
      <trkpt lat="45.3149" lon="3.70571">
        <ele>1087</ele>
        <time>2021-04-14T15:44:06Z</time>
      </trkpt>
      <trkpt lat="45.31484" lon="3.70577">
        <ele>1087</ele>
        <time>2021-04-14T15:44:07Z</time>
      </trkpt>
      <trkpt lat="45.31477" lon="3.70583">
        <ele>1087</ele>
        <time>2021-04-14T15:44:08Z</time>
      </trkpt>
      <trkpt lat="45.31471" lon="3.70589">
        <ele>1086</ele>
        <time>2021-04-14T15:44:09Z</time>
      </trkpt>
      <trkpt lat="45.31464" lon="3.70596">
        <ele>1086</ele>
        <time>2021-04-14T15:44:10Z</time>
      </trkpt>
      <trkpt lat="45.31458" lon="3.70603">
        <ele>1085</ele>
        <time>2021-04-14T15:44:11Z</time>
      </trkpt>
      <trkpt lat="45.31452" lon="3.70609">
        <ele>1085</ele>
        <time>2021-04-14T15:44:12Z</time>
      </trkpt>
      <trkpt lat="45.31447" lon="3.70615">
        <ele>1085</ele>
        <time>2021-04-14T15:44:13Z</time>
      </trkpt>
      <trkpt lat="45.31442" lon="3.7062">
        <ele>1084</ele>
        <time>2021-04-14T15:44:14Z</time>
      </trkpt>
      <trkpt lat="45.31437" lon="3.70625">
        <ele>1083</ele>
        <time>2021-04-14T15:44:15Z</time>
      </trkpt>
      <trkpt lat="45.31432" lon="3.7063">
        <ele>1082</ele>
        <time>2021-04-14T15:44:16Z</time>
      </trkpt>
      <trkpt lat="45.31427" lon="3.70636">
        <ele>1082</ele>
        <time>2021-04-14T15:44:17Z</time>
      </trkpt>
      <trkpt lat="45.31423" lon="3.7064">
        <ele>1081</ele>
        <time>2021-04-14T15:44:18Z</time>
      </trkpt>
      <trkpt lat="45.31418" lon="3.70645">
        <ele>1081</ele>
        <time>2021-04-14T15:44:19Z</time>
      </trkpt>
      <trkpt lat="45.31414" lon="3.70649">
        <ele>1080</ele>
        <time>2021-04-14T15:44:20Z</time>
      </trkpt>
      <trkpt lat="45.31409" lon="3.70654">
        <ele>1080</ele>
        <time>2021-04-14T15:44:21Z</time>
      </trkpt>
      <trkpt lat="45.31404" lon="3.70659">
        <ele>1080</ele>
        <time>2021-04-14T15:44:22Z</time>
      </trkpt>
      <trkpt lat="45.314" lon="3.70664">
        <ele>1078</ele>
        <time>2021-04-14T15:44:23Z</time>
      </trkpt>
      <trkpt lat="45.31395" lon="3.70669">
        <ele>1078</ele>
        <time>2021-04-14T15:44:24Z</time>
      </trkpt>
      <trkpt lat="45.31391" lon="3.70674">
        <ele>1077</ele>
        <time>2021-04-14T15:44:25Z</time>
      </trkpt>
      <trkpt lat="45.31386" lon="3.70679">
        <ele>1077</ele>
        <time>2021-04-14T15:44:26Z</time>
      </trkpt>
      <trkpt lat="45.31381" lon="3.70683">
        <ele>1076</ele>
        <time>2021-04-14T15:44:27Z</time>
      </trkpt>
      <trkpt lat="45.31377" lon="3.70687">
        <ele>1075</ele>
        <time>2021-04-14T15:44:28Z</time>
      </trkpt>
      <trkpt lat="45.31372" lon="3.70692">
        <ele>1075</ele>
        <time>2021-04-14T15:44:29Z</time>
      </trkpt>
      <trkpt lat="45.31367" lon="3.70696">
        <ele>1074</ele>
        <time>2021-04-14T15:44:30Z</time>
      </trkpt>
      <trkpt lat="45.31362" lon="3.707">
        <ele>1074</ele>
        <time>2021-04-14T15:44:31Z</time>
      </trkpt>
      <trkpt lat="45.31357" lon="3.70704">
        <ele>1073</ele>
        <time>2021-04-14T15:44:32Z</time>
      </trkpt>
      <trkpt lat="45.31352" lon="3.70707">
        <ele>1073</ele>
        <time>2021-04-14T15:44:33Z</time>
      </trkpt>
      <trkpt lat="45.31347" lon="3.7071">
        <ele>1072</ele>
        <time>2021-04-14T15:44:34Z</time>
      </trkpt>
      <trkpt lat="45.31342" lon="3.70714">
        <ele>1072</ele>
        <time>2021-04-14T15:44:35Z</time>
      </trkpt>
      <trkpt lat="45.31331" lon="3.70721">
        <ele>1072</ele>
        <time>2021-04-14T15:44:37Z</time>
      </trkpt>
      <trkpt lat="45.31326" lon="3.70725">
        <ele>1071</ele>
        <time>2021-04-14T15:44:38Z</time>
      </trkpt>
      <trkpt lat="45.3132" lon="3.70729">
        <ele>1071</ele>
        <time>2021-04-14T15:44:39Z</time>
      </trkpt>
      <trkpt lat="45.31314" lon="3.70733">
        <ele>1071</ele>
        <time>2021-04-14T15:44:40Z</time>
      </trkpt>
      <trkpt lat="45.31307" lon="3.70738">
        <ele>1069</ele>
        <time>2021-04-14T15:44:41Z</time>
      </trkpt>
      <trkpt lat="45.31301" lon="3.70742">
        <ele>1069</ele>
        <time>2021-04-14T15:44:42Z</time>
      </trkpt>
      <trkpt lat="45.31295" lon="3.70746">
        <ele>1069</ele>
        <time>2021-04-14T15:44:43Z</time>
      </trkpt>
      <trkpt lat="45.31289" lon="3.70751">
        <ele>1068</ele>
        <time>2021-04-14T15:44:44Z</time>
      </trkpt>
      <trkpt lat="45.31282" lon="3.70755">
        <ele>1068</ele>
        <time>2021-04-14T15:44:45Z</time>
      </trkpt>
      <trkpt lat="45.31276" lon="3.70759">
        <ele>1067</ele>
        <time>2021-04-14T15:44:46Z</time>
      </trkpt>
      <trkpt lat="45.3127" lon="3.70764">
        <ele>1067</ele>
        <time>2021-04-14T15:44:47Z</time>
      </trkpt>
      <trkpt lat="45.31264" lon="3.70768">
        <ele>1066</ele>
        <time>2021-04-14T15:44:48Z</time>
      </trkpt>
      <trkpt lat="45.31258" lon="3.70772">
        <ele>1066</ele>
        <time>2021-04-14T15:44:49Z</time>
      </trkpt>
      <trkpt lat="45.31251" lon="3.70775">
        <ele>1065</ele>
        <time>2021-04-14T15:44:50Z</time>
      </trkpt>
      <trkpt lat="45.31246" lon="3.70779">
        <ele>1065</ele>
        <time>2021-04-14T15:44:51Z</time>
      </trkpt>
      <trkpt lat="45.3124" lon="3.70784">
        <ele>1065</ele>
        <time>2021-04-14T15:44:52Z</time>
      </trkpt>
      <trkpt lat="45.31233" lon="3.70789">
        <ele>1065</ele>
        <time>2021-04-14T15:44:53Z</time>
      </trkpt>
      <trkpt lat="45.31226" lon="3.70793">
        <ele>1065</ele>
        <time>2021-04-14T15:44:54Z</time>
      </trkpt>
      <trkpt lat="45.31219" lon="3.70799">
        <ele>1064</ele>
        <time>2021-04-14T15:44:55Z</time>
      </trkpt>
      <trkpt lat="45.31212" lon="3.70805">
        <ele>1063</ele>
        <time>2021-04-14T15:44:56Z</time>
      </trkpt>
      <trkpt lat="45.31204" lon="3.70811">
        <ele>1062</ele>
        <time>2021-04-14T15:44:57Z</time>
      </trkpt>
      <trkpt lat="45.3119" lon="3.70823">
        <ele>1062</ele>
        <time>2021-04-14T15:44:58Z</time>
      </trkpt>
      <trkpt lat="45.31183" lon="3.70829">
        <ele>1062</ele>
        <time>2021-04-14T15:45:00Z</time>
      </trkpt>
      <trkpt lat="45.31177" lon="3.70835">
        <ele>1059</ele>
        <time>2021-04-14T15:45:01Z</time>
      </trkpt>
      <trkpt lat="45.31171" lon="3.7084">
        <ele>1058</ele>
        <time>2021-04-14T15:45:02Z</time>
      </trkpt>
      <trkpt lat="45.31165" lon="3.70845">
        <ele>1058</ele>
        <time>2021-04-14T15:45:03Z</time>
      </trkpt>
      <trkpt lat="45.31159" lon="3.7085">
        <ele>1057</ele>
        <time>2021-04-14T15:45:04Z</time>
      </trkpt>
      <trkpt lat="45.31153" lon="3.70854">
        <ele>1057</ele>
        <time>2021-04-14T15:45:05Z</time>
      </trkpt>
      <trkpt lat="45.31148" lon="3.70859">
        <ele>1057</ele>
        <time>2021-04-14T15:45:06Z</time>
      </trkpt>
      <trkpt lat="45.31143" lon="3.70863">
        <ele>1057</ele>
        <time>2021-04-14T15:45:07Z</time>
      </trkpt>
      <trkpt lat="45.31137" lon="3.70867">
        <ele>1056</ele>
        <time>2021-04-14T15:45:08Z</time>
      </trkpt>
      <trkpt lat="45.31132" lon="3.70871">
        <ele>1056</ele>
        <time>2021-04-14T15:45:09Z</time>
      </trkpt>
      <trkpt lat="45.31127" lon="3.70875">
        <ele>1056</ele>
        <time>2021-04-14T15:45:10Z</time>
      </trkpt>
      <trkpt lat="45.31121" lon="3.70879">
        <ele>1055</ele>
        <time>2021-04-14T15:45:11Z</time>
      </trkpt>
      <trkpt lat="45.31116" lon="3.70883">
        <ele>1055</ele>
        <time>2021-04-14T15:45:12Z</time>
      </trkpt>
      <trkpt lat="45.3111" lon="3.70887">
        <ele>1055</ele>
        <time>2021-04-14T15:45:13Z</time>
      </trkpt>
      <trkpt lat="45.31105" lon="3.7089">
        <ele>1054</ele>
        <time>2021-04-14T15:45:14Z</time>
      </trkpt>
      <trkpt lat="45.31099" lon="3.70894">
        <ele>1053</ele>
        <time>2021-04-14T15:45:15Z</time>
      </trkpt>
      <trkpt lat="45.31094" lon="3.70898">
        <ele>1053</ele>
        <time>2021-04-14T15:45:16Z</time>
      </trkpt>
      <trkpt lat="45.31089" lon="3.70903">
        <ele>1053</ele>
        <time>2021-04-14T15:45:17Z</time>
      </trkpt>
      <trkpt lat="45.31084" lon="3.70907">
        <ele>1052</ele>
        <time>2021-04-14T15:45:18Z</time>
      </trkpt>
      <trkpt lat="45.31078" lon="3.7091">
        <ele>1052</ele>
        <time>2021-04-14T15:45:19Z</time>
      </trkpt>
      <trkpt lat="45.31073" lon="3.70914">
        <ele>1052</ele>
        <time>2021-04-14T15:45:20Z</time>
      </trkpt>
      <trkpt lat="45.31068" lon="3.70917">
        <ele>1052</ele>
        <time>2021-04-14T15:45:21Z</time>
      </trkpt>
      <trkpt lat="45.31063" lon="3.70921">
        <ele>1051</ele>
        <time>2021-04-14T15:45:22Z</time>
      </trkpt>
      <trkpt lat="45.31058" lon="3.70924">
        <ele>1051</ele>
        <time>2021-04-14T15:45:23Z</time>
      </trkpt>
      <trkpt lat="45.31054" lon="3.70927">
        <ele>1051</ele>
        <time>2021-04-14T15:45:24Z</time>
      </trkpt>
      <trkpt lat="45.31049" lon="3.7093">
        <ele>1051</ele>
        <time>2021-04-14T15:45:25Z</time>
      </trkpt>
      <trkpt lat="45.31045" lon="3.70933">
        <ele>1050</ele>
        <time>2021-04-14T15:45:26Z</time>
      </trkpt>
      <trkpt lat="45.3104" lon="3.70936">
        <ele>1050</ele>
        <time>2021-04-14T15:45:27Z</time>
      </trkpt>
      <trkpt lat="45.31036" lon="3.70938">
        <ele>1050</ele>
        <time>2021-04-14T15:45:28Z</time>
      </trkpt>
      <trkpt lat="45.31032" lon="3.70942">
        <ele>1050</ele>
        <time>2021-04-14T15:45:29Z</time>
      </trkpt>
      <trkpt lat="45.31026" lon="3.70945">
        <ele>1049</ele>
        <time>2021-04-14T15:45:30Z</time>
      </trkpt>
      <trkpt lat="45.31022" lon="3.70948">
        <ele>1049</ele>
        <time>2021-04-14T15:45:31Z</time>
      </trkpt>
      <trkpt lat="45.31018" lon="3.70951">
        <ele>1049</ele>
        <time>2021-04-14T15:45:32Z</time>
      </trkpt>
      <trkpt lat="45.31013" lon="3.70955">
        <ele>1049</ele>
        <time>2021-04-14T15:45:33Z</time>
      </trkpt>
      <trkpt lat="45.31009" lon="3.70959">
        <ele>1049</ele>
        <time>2021-04-14T15:45:34Z</time>
      </trkpt>
      <trkpt lat="45.31004" lon="3.70962">
        <ele>1048</ele>
        <time>2021-04-14T15:45:35Z</time>
      </trkpt>
      <trkpt lat="45.31" lon="3.70965">
        <ele>1048</ele>
        <time>2021-04-14T15:45:36Z</time>
      </trkpt>
      <trkpt lat="45.30995" lon="3.70967">
        <ele>1048</ele>
        <time>2021-04-14T15:45:37Z</time>
      </trkpt>
      <trkpt lat="45.30991" lon="3.7097">
        <ele>1048</ele>
        <time>2021-04-14T15:45:38Z</time>
      </trkpt>
      <trkpt lat="45.30987" lon="3.70972">
        <ele>1048</ele>
        <time>2021-04-14T15:45:39Z</time>
      </trkpt>
      <trkpt lat="45.30983" lon="3.70974">
        <ele>1048</ele>
        <time>2021-04-14T15:45:40Z</time>
      </trkpt>
      <trkpt lat="45.30979" lon="3.70978">
        <ele>1048</ele>
        <time>2021-04-14T15:45:41Z</time>
      </trkpt>
      <trkpt lat="45.30974" lon="3.70982">
        <ele>1048</ele>
        <time>2021-04-14T15:45:42Z</time>
      </trkpt>
      <trkpt lat="45.30969" lon="3.70987">
        <ele>1048</ele>
        <time>2021-04-14T15:45:43Z</time>
      </trkpt>
      <trkpt lat="45.30965" lon="3.70992">
        <ele>1048</ele>
        <time>2021-04-14T15:45:44Z</time>
      </trkpt>
      <trkpt lat="45.30961" lon="3.70996">
        <ele>1047</ele>
        <time>2021-04-14T15:45:45Z</time>
      </trkpt>
      <trkpt lat="45.30957" lon="3.71002">
        <ele>1047</ele>
        <time>2021-04-14T15:45:46Z</time>
      </trkpt>
      <trkpt lat="45.30953" lon="3.71008">
        <ele>1047</ele>
        <time>2021-04-14T15:45:47Z</time>
      </trkpt>
      <trkpt lat="45.30944" lon="3.71019">
        <ele>1047</ele>
        <time>2021-04-14T15:45:49Z</time>
      </trkpt>
      <trkpt lat="45.3094" lon="3.71025">
        <ele>1047</ele>
        <time>2021-04-14T15:45:50Z</time>
      </trkpt>
      <trkpt lat="45.30935" lon="3.71032">
        <ele>1047</ele>
        <time>2021-04-14T15:45:51Z</time>
      </trkpt>
      <trkpt lat="45.30931" lon="3.71037">
        <ele>1047</ele>
        <time>2021-04-14T15:45:52Z</time>
      </trkpt>
      <trkpt lat="45.30927" lon="3.71042">
        <ele>1047</ele>
        <time>2021-04-14T15:45:53Z</time>
      </trkpt>
      <trkpt lat="45.30923" lon="3.71048">
        <ele>1047</ele>
        <time>2021-04-14T15:45:54Z</time>
      </trkpt>
      <trkpt lat="45.30918" lon="3.71053">
        <ele>1047</ele>
        <time>2021-04-14T15:45:55Z</time>
      </trkpt>
      <trkpt lat="45.30913" lon="3.71059">
        <ele>1047</ele>
        <time>2021-04-14T15:45:56Z</time>
      </trkpt>
      <trkpt lat="45.30909" lon="3.71066">
        <ele>1047</ele>
        <time>2021-04-14T15:45:57Z</time>
      </trkpt>
      <trkpt lat="45.30905" lon="3.71072">
        <ele>1047</ele>
        <time>2021-04-14T15:45:58Z</time>
      </trkpt>
      <trkpt lat="45.309" lon="3.71077">
        <ele>1047</ele>
        <time>2021-04-14T15:45:59Z</time>
      </trkpt>
      <trkpt lat="45.30896" lon="3.71083">
        <ele>1047</ele>
        <time>2021-04-14T15:46:00Z</time>
      </trkpt>
      <trkpt lat="45.30891" lon="3.7109">
        <ele>1047</ele>
        <time>2021-04-14T15:46:01Z</time>
      </trkpt>
      <trkpt lat="45.30887" lon="3.71097">
        <ele>1046</ele>
        <time>2021-04-14T15:46:02Z</time>
      </trkpt>
      <trkpt lat="45.30883" lon="3.71103">
        <ele>1046</ele>
        <time>2021-04-14T15:46:03Z</time>
      </trkpt>
      <trkpt lat="45.30879" lon="3.71109">
        <ele>1046</ele>
        <time>2021-04-14T15:46:04Z</time>
      </trkpt>
      <trkpt lat="45.30874" lon="3.71116">
        <ele>1046</ele>
        <time>2021-04-14T15:46:05Z</time>
      </trkpt>
      <trkpt lat="45.3087" lon="3.71121">
        <ele>1045</ele>
        <time>2021-04-14T15:46:06Z</time>
      </trkpt>
      <trkpt lat="45.30865" lon="3.71126">
        <ele>1045</ele>
        <time>2021-04-14T15:46:07Z</time>
      </trkpt>
      <trkpt lat="45.30861" lon="3.71131">
        <ele>1045</ele>
        <time>2021-04-14T15:46:08Z</time>
      </trkpt>
      <trkpt lat="45.30856" lon="3.71137">
        <ele>1045</ele>
        <time>2021-04-14T15:46:09Z</time>
      </trkpt>
      <trkpt lat="45.30852" lon="3.71141">
        <ele>1045</ele>
        <time>2021-04-14T15:46:10Z</time>
      </trkpt>
      <trkpt lat="45.30847" lon="3.71146">
        <ele>1045</ele>
        <time>2021-04-14T15:46:11Z</time>
      </trkpt>
      <trkpt lat="45.30843" lon="3.71149">
        <ele>1044</ele>
        <time>2021-04-14T15:46:12Z</time>
      </trkpt>
      <trkpt lat="45.30838" lon="3.71152">
        <ele>1044</ele>
        <time>2021-04-14T15:46:13Z</time>
      </trkpt>
      <trkpt lat="45.30835" lon="3.71155">
        <ele>1044</ele>
        <time>2021-04-14T15:46:14Z</time>
      </trkpt>
      <trkpt lat="45.30832" lon="3.71157">
        <ele>1044</ele>
        <time>2021-04-14T15:46:15Z</time>
      </trkpt>
      <trkpt lat="45.30829" lon="3.71159">
        <ele>1044</ele>
        <time>2021-04-14T15:46:16Z</time>
      </trkpt>
      <trkpt lat="45.30826" lon="3.71162">
        <ele>1044</ele>
        <time>2021-04-14T15:46:17Z</time>
      </trkpt>
      <trkpt lat="45.30824" lon="3.71165">
        <ele>1044</ele>
        <time>2021-04-14T15:46:18Z</time>
      </trkpt>
      <trkpt lat="45.30822" lon="3.71168">
        <ele>1044</ele>
        <time>2021-04-14T15:46:19Z</time>
      </trkpt>
      <trkpt lat="45.3082" lon="3.71171">
        <ele>1044</ele>
        <time>2021-04-14T15:46:20Z</time>
      </trkpt>
      <trkpt lat="45.30818" lon="3.71175">
        <ele>1044</ele>
        <time>2021-04-14T15:46:21Z</time>
      </trkpt>
      <trkpt lat="45.30816" lon="3.71179">
        <ele>1044</ele>
        <time>2021-04-14T15:46:22Z</time>
      </trkpt>
      <trkpt lat="45.30813" lon="3.71183">
        <ele>1044</ele>
        <time>2021-04-14T15:46:23Z</time>
      </trkpt>
      <trkpt lat="45.30811" lon="3.71187">
        <ele>1044</ele>
        <time>2021-04-14T15:46:24Z</time>
      </trkpt>
      <trkpt lat="45.30808" lon="3.71192">
        <ele>1044</ele>
        <time>2021-04-14T15:46:25Z</time>
      </trkpt>
      <trkpt lat="45.30805" lon="3.71197">
        <ele>1044</ele>
        <time>2021-04-14T15:46:26Z</time>
      </trkpt>
      <trkpt lat="45.30802" lon="3.71202">
        <ele>1044</ele>
        <time>2021-04-14T15:46:27Z</time>
      </trkpt>
      <trkpt lat="45.308" lon="3.71207">
        <ele>1044</ele>
        <time>2021-04-14T15:46:28Z</time>
      </trkpt>
      <trkpt lat="45.30797" lon="3.71212">
        <ele>1044</ele>
        <time>2021-04-14T15:46:29Z</time>
      </trkpt>
      <trkpt lat="45.30795" lon="3.71217">
        <ele>1044</ele>
        <time>2021-04-14T15:46:30Z</time>
      </trkpt>
      <trkpt lat="45.30792" lon="3.71221">
        <ele>1044</ele>
        <time>2021-04-14T15:46:31Z</time>
      </trkpt>
      <trkpt lat="45.3079" lon="3.71226">
        <ele>1044</ele>
        <time>2021-04-14T15:46:32Z</time>
      </trkpt>
      <trkpt lat="45.30788" lon="3.7123">
        <ele>1044</ele>
        <time>2021-04-14T15:46:33Z</time>
      </trkpt>
      <trkpt lat="45.30786" lon="3.71235">
        <ele>1044</ele>
        <time>2021-04-14T15:46:34Z</time>
      </trkpt>
      <trkpt lat="45.30784" lon="3.71239">
        <ele>1045</ele>
        <time>2021-04-14T15:46:35Z</time>
      </trkpt>
      <trkpt lat="45.30783" lon="3.71243">
        <ele>1045</ele>
        <time>2021-04-14T15:46:36Z</time>
      </trkpt>
      <trkpt lat="45.30781" lon="3.71247">
        <ele>1045</ele>
        <time>2021-04-14T15:46:37Z</time>
      </trkpt>
      <trkpt lat="45.30778" lon="3.71252">
        <ele>1045</ele>
        <time>2021-04-14T15:46:38Z</time>
      </trkpt>
      <trkpt lat="45.30775" lon="3.71257">
        <ele>1045</ele>
        <time>2021-04-14T15:46:39Z</time>
      </trkpt>
      <trkpt lat="45.30772" lon="3.71263">
        <ele>1045</ele>
        <time>2021-04-14T15:46:40Z</time>
      </trkpt>
      <trkpt lat="45.30769" lon="3.71268">
        <ele>1046</ele>
        <time>2021-04-14T15:46:41Z</time>
      </trkpt>
      <trkpt lat="45.30767" lon="3.71272">
        <ele>1046</ele>
        <time>2021-04-14T15:46:42Z</time>
      </trkpt>
      <trkpt lat="45.30764" lon="3.71277">
        <ele>1046</ele>
        <time>2021-04-14T15:46:43Z</time>
      </trkpt>
      <trkpt lat="45.30761" lon="3.71282">
        <ele>1046</ele>
        <time>2021-04-14T15:46:44Z</time>
      </trkpt>
      <trkpt lat="45.30758" lon="3.71286">
        <ele>1046</ele>
        <time>2021-04-14T15:46:45Z</time>
      </trkpt>
      <trkpt lat="45.30756" lon="3.71291">
        <ele>1046</ele>
        <time>2021-04-14T15:46:46Z</time>
      </trkpt>
      <trkpt lat="45.30753" lon="3.71296">
        <ele>1047</ele>
        <time>2021-04-14T15:46:47Z</time>
      </trkpt>
      <trkpt lat="45.3075" lon="3.713">
        <ele>1047</ele>
        <time>2021-04-14T15:46:48Z</time>
      </trkpt>
      <trkpt lat="45.30748" lon="3.71305">
        <ele>1047</ele>
        <time>2021-04-14T15:46:49Z</time>
      </trkpt>
      <trkpt lat="45.30745" lon="3.71309">
        <ele>1047</ele>
        <time>2021-04-14T15:46:50Z</time>
      </trkpt>
      <trkpt lat="45.30743" lon="3.71314">
        <ele>1047</ele>
        <time>2021-04-14T15:46:51Z</time>
      </trkpt>
      <trkpt lat="45.3074" lon="3.71318">
        <ele>1048</ele>
        <time>2021-04-14T15:46:52Z</time>
      </trkpt>
      <trkpt lat="45.30738" lon="3.71323">
        <ele>1048</ele>
        <time>2021-04-14T15:46:53Z</time>
      </trkpt>
      <trkpt lat="45.30736" lon="3.71327">
        <ele>1048</ele>
        <time>2021-04-14T15:46:54Z</time>
      </trkpt>
      <trkpt lat="45.30733" lon="3.71332">
        <ele>1048</ele>
        <time>2021-04-14T15:46:55Z</time>
      </trkpt>
      <trkpt lat="45.30731" lon="3.71336">
        <ele>1048</ele>
        <time>2021-04-14T15:46:56Z</time>
      </trkpt>
      <trkpt lat="45.30729" lon="3.71341">
        <ele>1049</ele>
        <time>2021-04-14T15:46:57Z</time>
      </trkpt>
      <trkpt lat="45.30726" lon="3.71345">
        <ele>1049</ele>
        <time>2021-04-14T15:46:58Z</time>
      </trkpt>
      <trkpt lat="45.30724" lon="3.7135">
        <ele>1049</ele>
        <time>2021-04-14T15:46:59Z</time>
      </trkpt>
      <trkpt lat="45.30721" lon="3.71354">
        <ele>1050</ele>
        <time>2021-04-14T15:47:00Z</time>
      </trkpt>
      <trkpt lat="45.30719" lon="3.71358">
        <ele>1050</ele>
        <time>2021-04-14T15:47:01Z</time>
      </trkpt>
      <trkpt lat="45.30716" lon="3.71363">
        <ele>1051</ele>
        <time>2021-04-14T15:47:02Z</time>
      </trkpt>
      <trkpt lat="45.30714" lon="3.71367">
        <ele>1051</ele>
        <time>2021-04-14T15:47:03Z</time>
      </trkpt>
      <trkpt lat="45.30711" lon="3.71371">
        <ele>1051</ele>
        <time>2021-04-14T15:47:04Z</time>
      </trkpt>
      <trkpt lat="45.30709" lon="3.71375">
        <ele>1052</ele>
        <time>2021-04-14T15:47:05Z</time>
      </trkpt>
      <trkpt lat="45.30706" lon="3.7138">
        <ele>1053</ele>
        <time>2021-04-14T15:47:06Z</time>
      </trkpt>
      <trkpt lat="45.30703" lon="3.71384">
        <ele>1054</ele>
        <time>2021-04-14T15:47:07Z</time>
      </trkpt>
      <trkpt lat="45.30701" lon="3.71389">
        <ele>1054</ele>
        <time>2021-04-14T15:47:08Z</time>
      </trkpt>
      <trkpt lat="45.30698" lon="3.71394">
        <ele>1054</ele>
        <time>2021-04-14T15:47:09Z</time>
      </trkpt>
      <trkpt lat="45.30696" lon="3.71399">
        <ele>1055</ele>
        <time>2021-04-14T15:47:10Z</time>
      </trkpt>
      <trkpt lat="45.30693" lon="3.71403">
        <ele>1055</ele>
        <time>2021-04-14T15:47:11Z</time>
      </trkpt>
      <trkpt lat="45.30691" lon="3.71408">
        <ele>1056</ele>
        <time>2021-04-14T15:47:12Z</time>
      </trkpt>
      <trkpt lat="45.30688" lon="3.71413">
        <ele>1056</ele>
        <time>2021-04-14T15:47:13Z</time>
      </trkpt>
      <trkpt lat="45.30685" lon="3.71418">
        <ele>1056</ele>
        <time>2021-04-14T15:47:14Z</time>
      </trkpt>
      <trkpt lat="45.30683" lon="3.71423">
        <ele>1057</ele>
        <time>2021-04-14T15:47:15Z</time>
      </trkpt>
      <trkpt lat="45.3068" lon="3.71429">
        <ele>1057</ele>
        <time>2021-04-14T15:47:16Z</time>
      </trkpt>
      <trkpt lat="45.30678" lon="3.71434">
        <ele>1057</ele>
        <time>2021-04-14T15:47:17Z</time>
      </trkpt>
      <trkpt lat="45.30676" lon="3.7144">
        <ele>1057</ele>
        <time>2021-04-14T15:47:18Z</time>
      </trkpt>
      <trkpt lat="45.30674" lon="3.71444">
        <ele>1057</ele>
        <time>2021-04-14T15:47:19Z</time>
      </trkpt>
      <trkpt lat="45.30671" lon="3.71449">
        <ele>1057</ele>
        <time>2021-04-14T15:47:20Z</time>
      </trkpt>
      <trkpt lat="45.30669" lon="3.71454">
        <ele>1058</ele>
        <time>2021-04-14T15:47:21Z</time>
      </trkpt>
      <trkpt lat="45.30667" lon="3.71459">
        <ele>1058</ele>
        <time>2021-04-14T15:47:22Z</time>
      </trkpt>
      <trkpt lat="45.30665" lon="3.71463">
        <ele>1058</ele>
        <time>2021-04-14T15:47:23Z</time>
      </trkpt>
      <trkpt lat="45.30662" lon="3.71468">
        <ele>1058</ele>
        <time>2021-04-14T15:47:24Z</time>
      </trkpt>
      <trkpt lat="45.3066" lon="3.71473">
        <ele>1058</ele>
        <time>2021-04-14T15:47:25Z</time>
      </trkpt>
      <trkpt lat="45.30658" lon="3.71477">
        <ele>1059</ele>
        <time>2021-04-14T15:47:26Z</time>
      </trkpt>
      <trkpt lat="45.30656" lon="3.71481">
        <ele>1059</ele>
        <time>2021-04-14T15:47:27Z</time>
      </trkpt>
      <trkpt lat="45.30653" lon="3.71486">
        <ele>1060</ele>
        <time>2021-04-14T15:47:28Z</time>
      </trkpt>
      <trkpt lat="45.30651" lon="3.7149">
        <ele>1060</ele>
        <time>2021-04-14T15:47:29Z</time>
      </trkpt>
      <trkpt lat="45.30649" lon="3.71494">
        <ele>1060</ele>
        <time>2021-04-14T15:47:30Z</time>
      </trkpt>
      <trkpt lat="45.30647" lon="3.71499">
        <ele>1060</ele>
        <time>2021-04-14T15:47:31Z</time>
      </trkpt>
      <trkpt lat="45.30645" lon="3.71503">
        <ele>1061</ele>
        <time>2021-04-14T15:47:32Z</time>
      </trkpt>
      <trkpt lat="45.30644" lon="3.71507">
        <ele>1061</ele>
        <time>2021-04-14T15:47:33Z</time>
      </trkpt>
      <trkpt lat="45.30642" lon="3.71511">
        <ele>1061</ele>
        <time>2021-04-14T15:47:34Z</time>
      </trkpt>
      <trkpt lat="45.30641" lon="3.71514">
        <ele>1061</ele>
        <time>2021-04-14T15:47:35Z</time>
      </trkpt>
      <trkpt lat="45.30639" lon="3.71517">
        <ele>1061</ele>
        <time>2021-04-14T15:47:36Z</time>
      </trkpt>
      <trkpt lat="45.30637" lon="3.7152">
        <ele>1061</ele>
        <time>2021-04-14T15:47:37Z</time>
      </trkpt>
      <trkpt lat="45.30636" lon="3.71523">
        <ele>1062</ele>
        <time>2021-04-14T15:47:38Z</time>
      </trkpt>
      <trkpt lat="45.30635" lon="3.71526">
        <ele>1062</ele>
        <time>2021-04-14T15:47:39Z</time>
      </trkpt>
      <trkpt lat="45.30634" lon="3.71528">
        <ele>1062</ele>
        <time>2021-04-14T15:47:40Z</time>
      </trkpt>
      <trkpt lat="45.30633" lon="3.71533">
        <ele>1062</ele>
        <time>2021-04-14T15:47:42Z</time>
      </trkpt>
      <trkpt lat="45.30632" lon="3.71537">
        <ele>1063</ele>
        <time>2021-04-14T15:47:44Z</time>
      </trkpt>
      <trkpt lat="45.3063" lon="3.7154">
        <ele>1063</ele>
        <time>2021-04-14T15:47:46Z</time>
      </trkpt>
      <trkpt lat="45.30629" lon="3.71543">
        <ele>1064</ele>
        <time>2021-04-14T15:47:48Z</time>
      </trkpt>
      <trkpt lat="45.30628" lon="3.71546">
        <ele>1064</ele>
        <time>2021-04-14T15:47:50Z</time>
      </trkpt>
      <trkpt lat="45.30627" lon="3.71548">
        <ele>1064</ele>
        <time>2021-04-14T15:47:51Z</time>
      </trkpt>
      <trkpt lat="45.30625" lon="3.71551">
        <ele>1064</ele>
        <time>2021-04-14T15:47:52Z</time>
      </trkpt>
      <trkpt lat="45.30623" lon="3.71554">
        <ele>1065</ele>
        <time>2021-04-14T15:47:53Z</time>
      </trkpt>
      <trkpt lat="45.30621" lon="3.71557">
        <ele>1065</ele>
        <time>2021-04-14T15:47:54Z</time>
      </trkpt>
      <trkpt lat="45.30619" lon="3.7156">
        <ele>1065</ele>
        <time>2021-04-14T15:47:55Z</time>
      </trkpt>
      <trkpt lat="45.30617" lon="3.71564">
        <ele>1065</ele>
        <time>2021-04-14T15:47:56Z</time>
      </trkpt>
      <trkpt lat="45.30615" lon="3.71568">
        <ele>1065</ele>
        <time>2021-04-14T15:47:57Z</time>
      </trkpt>
      <trkpt lat="45.30613" lon="3.71573">
        <ele>1065</ele>
        <time>2021-04-14T15:47:58Z</time>
      </trkpt>
      <trkpt lat="45.30611" lon="3.71577">
        <ele>1065</ele>
        <time>2021-04-14T15:47:59Z</time>
      </trkpt>
      <trkpt lat="45.30609" lon="3.71582">
        <ele>1065</ele>
        <time>2021-04-14T15:48:00Z</time>
      </trkpt>
      <trkpt lat="45.30607" lon="3.71586">
        <ele>1065</ele>
        <time>2021-04-14T15:48:01Z</time>
      </trkpt>
      <trkpt lat="45.30604" lon="3.71591">
        <ele>1065</ele>
        <time>2021-04-14T15:48:02Z</time>
      </trkpt>
      <trkpt lat="45.30601" lon="3.71594">
        <ele>1065</ele>
        <time>2021-04-14T15:48:03Z</time>
      </trkpt>
      <trkpt lat="45.30598" lon="3.71598">
        <ele>1065</ele>
        <time>2021-04-14T15:48:04Z</time>
      </trkpt>
      <trkpt lat="45.30595" lon="3.71602">
        <ele>1065</ele>
        <time>2021-04-14T15:48:05Z</time>
      </trkpt>
      <trkpt lat="45.30591" lon="3.71607">
        <ele>1065</ele>
        <time>2021-04-14T15:48:06Z</time>
      </trkpt>
      <trkpt lat="45.30587" lon="3.7161">
        <ele>1065</ele>
        <time>2021-04-14T15:48:07Z</time>
      </trkpt>
      <trkpt lat="45.30583" lon="3.71613">
        <ele>1065</ele>
        <time>2021-04-14T15:48:08Z</time>
      </trkpt>
      <trkpt lat="45.30578" lon="3.71615">
        <ele>1065</ele>
        <time>2021-04-14T15:48:09Z</time>
      </trkpt>
      <trkpt lat="45.30573" lon="3.71617">
        <ele>1065</ele>
        <time>2021-04-14T15:48:10Z</time>
      </trkpt>
      <trkpt lat="45.30569" lon="3.71622">
        <ele>1065</ele>
        <time>2021-04-14T15:48:11Z</time>
      </trkpt>
      <trkpt lat="45.30566" lon="3.71628">
        <ele>1065</ele>
        <time>2021-04-14T15:48:12Z</time>
      </trkpt>
      <trkpt lat="45.30566" lon="3.71636">
        <ele>1065</ele>
        <time>2021-04-14T15:48:13Z</time>
      </trkpt>
      <trkpt lat="45.30567" lon="3.71644">
        <ele>1065</ele>
        <time>2021-04-14T15:48:14Z</time>
      </trkpt>
      <trkpt lat="45.30568" lon="3.71652">
        <ele>1065</ele>
        <time>2021-04-14T15:48:15Z</time>
      </trkpt>
      <trkpt lat="45.30568" lon="3.71661">
        <ele>1065</ele>
        <time>2021-04-14T15:48:16Z</time>
      </trkpt>
      <trkpt lat="45.30569" lon="3.7167">
        <ele>1064</ele>
        <time>2021-04-14T15:48:17Z</time>
      </trkpt>
      <trkpt lat="45.3057" lon="3.71681">
        <ele>1064</ele>
        <time>2021-04-14T15:48:18Z</time>
      </trkpt>
      <trkpt lat="45.30571" lon="3.71692">
        <ele>1064</ele>
        <time>2021-04-14T15:48:19Z</time>
      </trkpt>
      <trkpt lat="45.30573" lon="3.71704">
        <ele>1064</ele>
        <time>2021-04-14T15:48:20Z</time>
      </trkpt>
      <trkpt lat="45.30576" lon="3.71716">
        <ele>1062</ele>
        <time>2021-04-14T15:48:21Z</time>
      </trkpt>
      <trkpt lat="45.30579" lon="3.71727">
        <ele>1062</ele>
        <time>2021-04-14T15:48:22Z</time>
      </trkpt>
      <trkpt lat="45.30584" lon="3.71738">
        <ele>1061</ele>
        <time>2021-04-14T15:48:23Z</time>
      </trkpt>
      <trkpt lat="45.30588" lon="3.71748">
        <ele>1061</ele>
        <time>2021-04-14T15:48:24Z</time>
      </trkpt>
      <trkpt lat="45.30592" lon="3.71759">
        <ele>1061</ele>
        <time>2021-04-14T15:48:25Z</time>
      </trkpt>
      <trkpt lat="45.30596" lon="3.71769">
        <ele>1060</ele>
        <time>2021-04-14T15:48:26Z</time>
      </trkpt>
      <trkpt lat="45.30602" lon="3.71778">
        <ele>1059</ele>
        <time>2021-04-14T15:48:27Z</time>
      </trkpt>
      <trkpt lat="45.30608" lon="3.71786">
        <ele>1059</ele>
        <time>2021-04-14T15:48:28Z</time>
      </trkpt>
      <trkpt lat="45.30614" lon="3.71793">
        <ele>1058</ele>
        <time>2021-04-14T15:48:29Z</time>
      </trkpt>
      <trkpt lat="45.30621" lon="3.718">
        <ele>1058</ele>
        <time>2021-04-14T15:48:30Z</time>
      </trkpt>
      <trkpt lat="45.30628" lon="3.71807">
        <ele>1058</ele>
        <time>2021-04-14T15:48:31Z</time>
      </trkpt>
      <trkpt lat="45.30635" lon="3.71814">
        <ele>1058</ele>
        <time>2021-04-14T15:48:32Z</time>
      </trkpt>
      <trkpt lat="45.30642" lon="3.71821">
        <ele>1057</ele>
        <time>2021-04-14T15:48:33Z</time>
      </trkpt>
      <trkpt lat="45.30649" lon="3.71829">
        <ele>1056</ele>
        <time>2021-04-14T15:48:34Z</time>
      </trkpt>
      <trkpt lat="45.30654" lon="3.71838">
        <ele>1056</ele>
        <time>2021-04-14T15:48:35Z</time>
      </trkpt>
      <trkpt lat="45.30658" lon="3.71848">
        <ele>1056</ele>
        <time>2021-04-14T15:48:36Z</time>
      </trkpt>
      <trkpt lat="45.3066" lon="3.71857">
        <ele>1056</ele>
        <time>2021-04-14T15:48:37Z</time>
      </trkpt>
      <trkpt lat="45.30662" lon="3.71867">
        <ele>1055</ele>
        <time>2021-04-14T15:48:38Z</time>
      </trkpt>
      <trkpt lat="45.30662" lon="3.71876">
        <ele>1055</ele>
        <time>2021-04-14T15:48:39Z</time>
      </trkpt>
      <trkpt lat="45.30662" lon="3.71885">
        <ele>1054</ele>
        <time>2021-04-14T15:48:40Z</time>
      </trkpt>
      <trkpt lat="45.30661" lon="3.71893">
        <ele>1052</ele>
        <time>2021-04-14T15:48:41Z</time>
      </trkpt>
      <trkpt lat="45.30661" lon="3.71901">
        <ele>1051</ele>
        <time>2021-04-14T15:48:42Z</time>
      </trkpt>
      <trkpt lat="45.3066" lon="3.7191">
        <ele>1050</ele>
        <time>2021-04-14T15:48:43Z</time>
      </trkpt>
      <trkpt lat="45.30659" lon="3.71918">
        <ele>1049</ele>
        <time>2021-04-14T15:48:44Z</time>
      </trkpt>
      <trkpt lat="45.30658" lon="3.71927">
        <ele>1049</ele>
        <time>2021-04-14T15:48:45Z</time>
      </trkpt>
      <trkpt lat="45.30657" lon="3.71936">
        <ele>1048</ele>
        <time>2021-04-14T15:48:46Z</time>
      </trkpt>
      <trkpt lat="45.30656" lon="3.71946">
        <ele>1048</ele>
        <time>2021-04-14T15:48:47Z</time>
      </trkpt>
      <trkpt lat="45.30654" lon="3.71956">
        <ele>1047</ele>
        <time>2021-04-14T15:48:48Z</time>
      </trkpt>
      <trkpt lat="45.30653" lon="3.71966">
        <ele>1047</ele>
        <time>2021-04-14T15:48:49Z</time>
      </trkpt>
      <trkpt lat="45.30652" lon="3.71977">
        <ele>1046</ele>
        <time>2021-04-14T15:48:50Z</time>
      </trkpt>
      <trkpt lat="45.30652" lon="3.71987">
        <ele>1046</ele>
        <time>2021-04-14T15:48:51Z</time>
      </trkpt>
      <trkpt lat="45.30651" lon="3.71998">
        <ele>1046</ele>
        <time>2021-04-14T15:48:52Z</time>
      </trkpt>
      <trkpt lat="45.30649" lon="3.72007">
        <ele>1045</ele>
        <time>2021-04-14T15:48:53Z</time>
      </trkpt>
      <trkpt lat="45.30648" lon="3.72017">
        <ele>1045</ele>
        <time>2021-04-14T15:48:54Z</time>
      </trkpt>
      <trkpt lat="45.30646" lon="3.72025">
        <ele>1045</ele>
        <time>2021-04-14T15:48:55Z</time>
      </trkpt>
      <trkpt lat="45.30644" lon="3.72041">
        <ele>1045</ele>
        <time>2021-04-14T15:48:56Z</time>
      </trkpt>
      <trkpt lat="45.30643" lon="3.72048">
        <ele>1045</ele>
        <time>2021-04-14T15:48:58Z</time>
      </trkpt>
      <trkpt lat="45.30642" lon="3.72055">
        <ele>1045</ele>
        <time>2021-04-14T15:48:59Z</time>
      </trkpt>
      <trkpt lat="45.30641" lon="3.72062">
        <ele>1045</ele>
        <time>2021-04-14T15:49:00Z</time>
      </trkpt>
      <trkpt lat="45.3064" lon="3.72069">
        <ele>1044</ele>
        <time>2021-04-14T15:49:01Z</time>
      </trkpt>
      <trkpt lat="45.30639" lon="3.72077">
        <ele>1044</ele>
        <time>2021-04-14T15:49:02Z</time>
      </trkpt>
      <trkpt lat="45.30638" lon="3.72084">
        <ele>1044</ele>
        <time>2021-04-14T15:49:03Z</time>
      </trkpt>
      <trkpt lat="45.30637" lon="3.72092">
        <ele>1043</ele>
        <time>2021-04-14T15:49:04Z</time>
      </trkpt>
      <trkpt lat="45.30637" lon="3.721">
        <ele>1043</ele>
        <time>2021-04-14T15:49:05Z</time>
      </trkpt>
      <trkpt lat="45.30636" lon="3.72108">
        <ele>1043</ele>
        <time>2021-04-14T15:49:06Z</time>
      </trkpt>
      <trkpt lat="45.30635" lon="3.72117">
        <ele>1043</ele>
        <time>2021-04-14T15:49:07Z</time>
      </trkpt>
      <trkpt lat="45.30634" lon="3.72126">
        <ele>1043</ele>
        <time>2021-04-14T15:49:08Z</time>
      </trkpt>
      <trkpt lat="45.30633" lon="3.72136">
        <ele>1043</ele>
        <time>2021-04-14T15:49:09Z</time>
      </trkpt>
      <trkpt lat="45.30632" lon="3.72145">
        <ele>1043</ele>
        <time>2021-04-14T15:49:10Z</time>
      </trkpt>
      <trkpt lat="45.3063" lon="3.72155">
        <ele>1042</ele>
        <time>2021-04-14T15:49:11Z</time>
      </trkpt>
      <trkpt lat="45.30629" lon="3.72165">
        <ele>1042</ele>
        <time>2021-04-14T15:49:12Z</time>
      </trkpt>
      <trkpt lat="45.30628" lon="3.72174">
        <ele>1042</ele>
        <time>2021-04-14T15:49:13Z</time>
      </trkpt>
      <trkpt lat="45.30626" lon="3.72183">
        <ele>1041</ele>
        <time>2021-04-14T15:49:14Z</time>
      </trkpt>
      <trkpt lat="45.30625" lon="3.72191">
        <ele>1041</ele>
        <time>2021-04-14T15:49:15Z</time>
      </trkpt>
      <trkpt lat="45.30624" lon="3.72199">
        <ele>1041</ele>
        <time>2021-04-14T15:49:16Z</time>
      </trkpt>
      <trkpt lat="45.30623" lon="3.72207">
        <ele>1041</ele>
        <time>2021-04-14T15:49:17Z</time>
      </trkpt>
      <trkpt lat="45.30622" lon="3.72215">
        <ele>1041</ele>
        <time>2021-04-14T15:49:18Z</time>
      </trkpt>
      <trkpt lat="45.30621" lon="3.72223">
        <ele>1041</ele>
        <time>2021-04-14T15:49:19Z</time>
      </trkpt>
      <trkpt lat="45.30619" lon="3.72231">
        <ele>1040</ele>
        <time>2021-04-14T15:49:20Z</time>
      </trkpt>
      <trkpt lat="45.30618" lon="3.72239">
        <ele>1040</ele>
        <time>2021-04-14T15:49:21Z</time>
      </trkpt>
      <trkpt lat="45.30616" lon="3.72246">
        <ele>1040</ele>
        <time>2021-04-14T15:49:22Z</time>
      </trkpt>
      <trkpt lat="45.30614" lon="3.72255">
        <ele>1040</ele>
        <time>2021-04-14T15:49:23Z</time>
      </trkpt>
      <trkpt lat="45.30612" lon="3.72265">
        <ele>1039</ele>
        <time>2021-04-14T15:49:24Z</time>
      </trkpt>
      <trkpt lat="45.30611" lon="3.72274">
        <ele>1039</ele>
        <time>2021-04-14T15:49:25Z</time>
      </trkpt>
      <trkpt lat="45.30612" lon="3.72291">
        <ele>1039</ele>
        <time>2021-04-14T15:49:27Z</time>
      </trkpt>
      <trkpt lat="45.30613" lon="3.723">
        <ele>1038</ele>
        <time>2021-04-14T15:49:28Z</time>
      </trkpt>
      <trkpt lat="45.30615" lon="3.72308">
        <ele>1038</ele>
        <time>2021-04-14T15:49:29Z</time>
      </trkpt>
      <trkpt lat="45.3062" lon="3.72326">
        <ele>1038</ele>
        <time>2021-04-14T15:49:31Z</time>
      </trkpt>
      <trkpt lat="45.30621" lon="3.72341">
        <ele>1038</ele>
        <time>2021-04-14T15:49:33Z</time>
      </trkpt>
      <trkpt lat="45.30616" lon="3.72353">
        <ele>1037</ele>
        <time>2021-04-14T15:49:35Z</time>
      </trkpt>
      <trkpt lat="45.30607" lon="3.72362">
        <ele>1037</ele>
        <time>2021-04-14T15:49:37Z</time>
      </trkpt>
      <trkpt lat="45.30601" lon="3.72374">
        <ele>1036</ele>
        <time>2021-04-14T15:49:39Z</time>
      </trkpt>
      <trkpt lat="45.30599" lon="3.72394">
        <ele>1036</ele>
        <time>2021-04-14T15:49:41Z</time>
      </trkpt>
      <trkpt lat="45.30603" lon="3.7241">
        <ele>1036</ele>
        <time>2021-04-14T15:49:43Z</time>
      </trkpt>
      <trkpt lat="45.30605" lon="3.72414">
        <ele>1034</ele>
        <time>2021-04-14T15:49:44Z</time>
      </trkpt>
      <trkpt lat="45.30604" lon="3.72418">
        <ele>1033</ele>
        <time>2021-04-14T15:49:46Z</time>
      </trkpt>
      <trkpt lat="45.30605" lon="3.72421">
        <ele>1032</ele>
        <time>2021-04-14T15:49:49Z</time>
      </trkpt>
      <trkpt lat="45.30608" lon="3.72424">
        <ele>1032</ele>
        <time>2021-04-14T15:49:50Z</time>
      </trkpt>
      <trkpt lat="45.30611" lon="3.72427">
        <ele>1031</ele>
        <time>2021-04-14T15:49:51Z</time>
      </trkpt>
      <trkpt lat="45.30616" lon="3.72431">
        <ele>1031</ele>
        <time>2021-04-14T15:49:52Z</time>
      </trkpt>
      <trkpt lat="45.30624" lon="3.72445">
        <ele>1031</ele>
        <time>2021-04-14T15:49:54Z</time>
      </trkpt>
      <trkpt lat="45.30632" lon="3.72463">
        <ele>1030</ele>
        <time>2021-04-14T15:49:56Z</time>
      </trkpt>
      <trkpt lat="45.30636" lon="3.72473">
        <ele>1030</ele>
        <time>2021-04-14T15:49:57Z</time>
      </trkpt>
      <trkpt lat="45.30638" lon="3.72482">
        <ele>1029</ele>
        <time>2021-04-14T15:49:58Z</time>
      </trkpt>
      <trkpt lat="45.3064" lon="3.72491">
        <ele>1029</ele>
        <time>2021-04-14T15:49:59Z</time>
      </trkpt>
      <trkpt lat="45.30641" lon="3.725">
        <ele>1029</ele>
        <time>2021-04-14T15:50:00Z</time>
      </trkpt>
      <trkpt lat="45.30641" lon="3.72508">
        <ele>1029</ele>
        <time>2021-04-14T15:50:01Z</time>
      </trkpt>
      <trkpt lat="45.30643" lon="3.72519">
        <ele>1029</ele>
        <time>2021-04-14T15:50:03Z</time>
      </trkpt>
      <trkpt lat="45.30643" lon="3.72524">
        <ele>1029</ele>
        <time>2021-04-14T15:50:04Z</time>
      </trkpt>
      <trkpt lat="45.30646" lon="3.72537">
        <ele>1029</ele>
        <time>2021-04-14T15:50:06Z</time>
      </trkpt>
      <trkpt lat="45.30646" lon="3.72544">
        <ele>1029</ele>
        <time>2021-04-14T15:50:07Z</time>
      </trkpt>
      <trkpt lat="45.30648" lon="3.72551">
        <ele>1029</ele>
        <time>2021-04-14T15:50:08Z</time>
      </trkpt>
      <trkpt lat="45.3065" lon="3.72557">
        <ele>1029</ele>
        <time>2021-04-14T15:50:09Z</time>
      </trkpt>
      <trkpt lat="45.30653" lon="3.72564">
        <ele>1029</ele>
        <time>2021-04-14T15:50:10Z</time>
      </trkpt>
      <trkpt lat="45.30656" lon="3.72571">
        <ele>1029</ele>
        <time>2021-04-14T15:50:11Z</time>
      </trkpt>
      <trkpt lat="45.30659" lon="3.72577">
        <ele>1029</ele>
        <time>2021-04-14T15:50:12Z</time>
      </trkpt>
      <trkpt lat="45.30662" lon="3.72583">
        <ele>1029</ele>
        <time>2021-04-14T15:50:13Z</time>
      </trkpt>
      <trkpt lat="45.30667" lon="3.72589">
        <ele>1028</ele>
        <time>2021-04-14T15:50:14Z</time>
      </trkpt>
      <trkpt lat="45.30671" lon="3.72596">
        <ele>1028</ele>
        <time>2021-04-14T15:50:15Z</time>
      </trkpt>
      <trkpt lat="45.30674" lon="3.72603">
        <ele>1028</ele>
        <time>2021-04-14T15:50:16Z</time>
      </trkpt>
      <trkpt lat="45.30682" lon="3.72617">
        <ele>1028</ele>
        <time>2021-04-14T15:50:18Z</time>
      </trkpt>
      <trkpt lat="45.30692" lon="3.72632">
        <ele>1028</ele>
        <time>2021-04-14T15:50:20Z</time>
      </trkpt>
      <trkpt lat="45.30702" lon="3.7265">
        <ele>1028</ele>
        <time>2021-04-14T15:50:22Z</time>
      </trkpt>
      <trkpt lat="45.30709" lon="3.72666">
        <ele>1027</ele>
        <time>2021-04-14T15:50:24Z</time>
      </trkpt>
      <trkpt lat="45.30719" lon="3.72681">
        <ele>1026</ele>
        <time>2021-04-14T15:50:26Z</time>
      </trkpt>
      <trkpt lat="45.30727" lon="3.72699">
        <ele>1026</ele>
        <time>2021-04-14T15:50:28Z</time>
      </trkpt>
      <trkpt lat="45.30737" lon="3.72719">
        <ele>1026</ele>
        <time>2021-04-14T15:50:30Z</time>
      </trkpt>
      <trkpt lat="45.3075" lon="3.72733">
        <ele>1025</ele>
        <time>2021-04-14T15:50:32Z</time>
      </trkpt>
      <trkpt lat="45.30763" lon="3.72746">
        <ele>1024</ele>
        <time>2021-04-14T15:50:34Z</time>
      </trkpt>
      <trkpt lat="45.30778" lon="3.72759">
        <ele>1023</ele>
        <time>2021-04-14T15:50:36Z</time>
      </trkpt>
      <trkpt lat="45.30793" lon="3.72775">
        <ele>1022</ele>
        <time>2021-04-14T15:50:38Z</time>
      </trkpt>
      <trkpt lat="45.30808" lon="3.7279">
        <ele>1022</ele>
        <time>2021-04-14T15:50:40Z</time>
      </trkpt>
      <trkpt lat="45.30816" lon="3.72798">
        <ele>1021</ele>
        <time>2021-04-14T15:50:41Z</time>
      </trkpt>
      <trkpt lat="45.30829" lon="3.72812">
        <ele>1020</ele>
        <time>2021-04-14T15:50:43Z</time>
      </trkpt>
      <trkpt lat="45.30836" lon="3.72821">
        <ele>1019</ele>
        <time>2021-04-14T15:50:44Z</time>
      </trkpt>
      <trkpt lat="45.30848" lon="3.72836">
        <ele>1019</ele>
        <time>2021-04-14T15:50:46Z</time>
      </trkpt>
      <trkpt lat="45.3086" lon="3.72844">
        <ele>1015</ele>
        <time>2021-04-14T15:50:48Z</time>
      </trkpt>
      <trkpt lat="45.30868" lon="3.7285">
        <ele>1014</ele>
        <time>2021-04-14T15:50:50Z</time>
      </trkpt>
      <trkpt lat="45.30879" lon="3.72859">
        <ele>1011</ele>
        <time>2021-04-14T15:50:53Z</time>
      </trkpt>
      <trkpt lat="45.30888" lon="3.72867">
        <ele>1011</ele>
        <time>2021-04-14T15:50:56Z</time>
      </trkpt>
      <trkpt lat="45.30897" lon="3.72876">
        <ele>1006</ele>
        <time>2021-04-14T15:51:00Z</time>
      </trkpt>
      <trkpt lat="45.30902" lon="3.72884">
        <ele>1004</ele>
        <time>2021-04-14T15:51:04Z</time>
      </trkpt>
      <trkpt lat="45.30912" lon="3.7289">
        <ele>1002</ele>
        <time>2021-04-14T15:51:08Z</time>
      </trkpt>
      <trkpt lat="45.3092" lon="3.72891">
        <ele>1002</ele>
        <time>2021-04-14T15:51:11Z</time>
      </trkpt>
      <trkpt lat="45.30924" lon="3.72892">
        <ele>999</ele>
        <time>2021-04-14T15:51:13Z</time>
      </trkpt>
      <trkpt lat="45.30925" lon="3.72894">
        <ele>999</ele>
        <time>2021-04-14T15:51:14Z</time>
      </trkpt>
      <trkpt lat="45.30927" lon="3.72895">
        <ele>999</ele>
        <time>2021-04-14T15:51:15Z</time>
      </trkpt>
      <trkpt lat="45.30934" lon="3.72899">
        <ele>998</ele>
        <time>2021-04-14T15:51:19Z</time>
      </trkpt>
      <trkpt lat="45.30942" lon="3.72904">
        <ele>997</ele>
        <time>2021-04-14T15:51:23Z</time>
      </trkpt>
      <trkpt lat="45.30954" lon="3.72908">
        <ele>997</ele>
        <time>2021-04-14T15:51:26Z</time>
      </trkpt>
      <trkpt lat="45.30967" lon="3.72911">
        <ele>996</ele>
        <time>2021-04-14T15:51:29Z</time>
      </trkpt>
      <trkpt lat="45.30975" lon="3.72917">
        <ele>996</ele>
        <time>2021-04-14T15:51:31Z</time>
      </trkpt>
      <trkpt lat="45.30983" lon="3.72925">
        <ele>995</ele>
        <time>2021-04-14T15:51:33Z</time>
      </trkpt>
      <trkpt lat="45.30991" lon="3.72934">
        <ele>995</ele>
        <time>2021-04-14T15:51:35Z</time>
      </trkpt>
      <trkpt lat="45.30999" lon="3.72942">
        <ele>995</ele>
        <time>2021-04-14T15:51:37Z</time>
      </trkpt>
      <trkpt lat="45.31005" lon="3.72954">
        <ele>994</ele>
        <time>2021-04-14T15:51:39Z</time>
      </trkpt>
      <trkpt lat="45.3101" lon="3.72965">
        <ele>994</ele>
        <time>2021-04-14T15:51:41Z</time>
      </trkpt>
      <trkpt lat="45.31014" lon="3.72977">
        <ele>994</ele>
        <time>2021-04-14T15:51:43Z</time>
      </trkpt>
      <trkpt lat="45.31016" lon="3.72995">
        <ele>993</ele>
        <time>2021-04-14T15:51:45Z</time>
      </trkpt>
      <trkpt lat="45.31017" lon="3.73006">
        <ele>993</ele>
        <time>2021-04-14T15:51:46Z</time>
      </trkpt>
      <trkpt lat="45.31017" lon="3.73018">
        <ele>993</ele>
        <time>2021-04-14T15:51:47Z</time>
      </trkpt>
      <trkpt lat="45.31017" lon="3.7303">
        <ele>992</ele>
        <time>2021-04-14T15:51:48Z</time>
      </trkpt>
      <trkpt lat="45.31016" lon="3.73043">
        <ele>992</ele>
        <time>2021-04-14T15:51:49Z</time>
      </trkpt>
      <trkpt lat="45.31015" lon="3.73056">
        <ele>992</ele>
        <time>2021-04-14T15:51:50Z</time>
      </trkpt>
      <trkpt lat="45.31014" lon="3.73067">
        <ele>991</ele>
        <time>2021-04-14T15:51:51Z</time>
      </trkpt>
      <trkpt lat="45.31015" lon="3.73076">
        <ele>991</ele>
        <time>2021-04-14T15:51:52Z</time>
      </trkpt>
      <trkpt lat="45.31025" lon="3.73092">
        <ele>991</ele>
        <time>2021-04-14T15:51:54Z</time>
      </trkpt>
      <trkpt lat="45.31031" lon="3.731">
        <ele>991</ele>
        <time>2021-04-14T15:51:55Z</time>
      </trkpt>
      <trkpt lat="45.31036" lon="3.73108">
        <ele>991</ele>
        <time>2021-04-14T15:51:56Z</time>
      </trkpt>
      <trkpt lat="45.31042" lon="3.73117">
        <ele>990</ele>
        <time>2021-04-14T15:51:57Z</time>
      </trkpt>
      <trkpt lat="45.31048" lon="3.73126">
        <ele>990</ele>
        <time>2021-04-14T15:51:58Z</time>
      </trkpt>
      <trkpt lat="45.31054" lon="3.73136">
        <ele>990</ele>
        <time>2021-04-14T15:51:59Z</time>
      </trkpt>
      <trkpt lat="45.31059" lon="3.73146">
        <ele>990</ele>
        <time>2021-04-14T15:52:00Z</time>
      </trkpt>
      <trkpt lat="45.31064" lon="3.73157">
        <ele>990</ele>
        <time>2021-04-14T15:52:01Z</time>
      </trkpt>
      <trkpt lat="45.31068" lon="3.73169">
        <ele>989</ele>
        <time>2021-04-14T15:52:02Z</time>
      </trkpt>
      <trkpt lat="45.31072" lon="3.7318">
        <ele>989</ele>
        <time>2021-04-14T15:52:03Z</time>
      </trkpt>
      <trkpt lat="45.31076" lon="3.73191">
        <ele>988</ele>
        <time>2021-04-14T15:52:04Z</time>
      </trkpt>
      <trkpt lat="45.31081" lon="3.73201">
        <ele>987</ele>
        <time>2021-04-14T15:52:05Z</time>
      </trkpt>
      <trkpt lat="45.31087" lon="3.73209">
        <ele>986</ele>
        <time>2021-04-14T15:52:06Z</time>
      </trkpt>
      <trkpt lat="45.31094" lon="3.73213">
        <ele>986</ele>
        <time>2021-04-14T15:52:07Z</time>
      </trkpt>
      <trkpt lat="45.31102" lon="3.73214">
        <ele>985</ele>
        <time>2021-04-14T15:52:08Z</time>
      </trkpt>
      <trkpt lat="45.3111" lon="3.73214">
        <ele>983</ele>
        <time>2021-04-14T15:52:09Z</time>
      </trkpt>
      <trkpt lat="45.31119" lon="3.73217">
        <ele>982</ele>
        <time>2021-04-14T15:52:10Z</time>
      </trkpt>
      <trkpt lat="45.31126" lon="3.73223">
        <ele>981</ele>
        <time>2021-04-14T15:52:11Z</time>
      </trkpt>
      <trkpt lat="45.31133" lon="3.7323">
        <ele>981</ele>
        <time>2021-04-14T15:52:12Z</time>
      </trkpt>
      <trkpt lat="45.31139" lon="3.73238">
        <ele>981</ele>
        <time>2021-04-14T15:52:13Z</time>
      </trkpt>
      <trkpt lat="45.31144" lon="3.73246">
        <ele>979</ele>
        <time>2021-04-14T15:52:14Z</time>
      </trkpt>
      <trkpt lat="45.31146" lon="3.73256">
        <ele>978</ele>
        <time>2021-04-14T15:52:15Z</time>
      </trkpt>
      <trkpt lat="45.31146" lon="3.73265">
        <ele>977</ele>
        <time>2021-04-14T15:52:16Z</time>
      </trkpt>
      <trkpt lat="45.31143" lon="3.73275">
        <ele>976</ele>
        <time>2021-04-14T15:52:17Z</time>
      </trkpt>
      <trkpt lat="45.31138" lon="3.73284">
        <ele>975</ele>
        <time>2021-04-14T15:52:18Z</time>
      </trkpt>
      <trkpt lat="45.31134" lon="3.73293">
        <ele>975</ele>
        <time>2021-04-14T15:52:19Z</time>
      </trkpt>
      <trkpt lat="45.3113" lon="3.73301">
        <ele>973</ele>
        <time>2021-04-14T15:52:20Z</time>
      </trkpt>
      <trkpt lat="45.31126" lon="3.73309">
        <ele>973</ele>
        <time>2021-04-14T15:52:21Z</time>
      </trkpt>
      <trkpt lat="45.31122" lon="3.73317">
        <ele>972</ele>
        <time>2021-04-14T15:52:22Z</time>
      </trkpt>
      <trkpt lat="45.31118" lon="3.73325">
        <ele>972</ele>
        <time>2021-04-14T15:52:23Z</time>
      </trkpt>
      <trkpt lat="45.31115" lon="3.73334">
        <ele>971</ele>
        <time>2021-04-14T15:52:24Z</time>
      </trkpt>
      <trkpt lat="45.31113" lon="3.73343">
        <ele>971</ele>
        <time>2021-04-14T15:52:25Z</time>
      </trkpt>
      <trkpt lat="45.31112" lon="3.73363">
        <ele>971</ele>
        <time>2021-04-14T15:52:27Z</time>
      </trkpt>
      <trkpt lat="45.31111" lon="3.73383">
        <ele>969</ele>
        <time>2021-04-14T15:52:29Z</time>
      </trkpt>
      <trkpt lat="45.3111" lon="3.73403">
        <ele>968</ele>
        <time>2021-04-14T15:52:31Z</time>
      </trkpt>
      <trkpt lat="45.31109" lon="3.73421">
        <ele>967</ele>
        <time>2021-04-14T15:52:33Z</time>
      </trkpt>
      <trkpt lat="45.31111" lon="3.73436">
        <ele>967</ele>
        <time>2021-04-14T15:52:35Z</time>
      </trkpt>
      <trkpt lat="45.31115" lon="3.73443">
        <ele>965</ele>
        <time>2021-04-14T15:52:36Z</time>
      </trkpt>
      <trkpt lat="45.31118" lon="3.73449">
        <ele>964</ele>
        <time>2021-04-14T15:52:37Z</time>
      </trkpt>
      <trkpt lat="45.31128" lon="3.73464">
        <ele>963</ele>
        <time>2021-04-14T15:52:39Z</time>
      </trkpt>
      <trkpt lat="45.31132" lon="3.73472">
        <ele>962</ele>
        <time>2021-04-14T15:52:40Z</time>
      </trkpt>
      <trkpt lat="45.31136" lon="3.73482">
        <ele>962</ele>
        <time>2021-04-14T15:52:41Z</time>
      </trkpt>
      <trkpt lat="45.31138" lon="3.73506">
        <ele>960</ele>
        <time>2021-04-14T15:52:43Z</time>
      </trkpt>
      <trkpt lat="45.31138" lon="3.73519">
        <ele>959</ele>
        <time>2021-04-14T15:52:44Z</time>
      </trkpt>
      <trkpt lat="45.31139" lon="3.73533">
        <ele>958</ele>
        <time>2021-04-14T15:52:45Z</time>
      </trkpt>
      <trkpt lat="45.3114" lon="3.73546">
        <ele>958</ele>
        <time>2021-04-14T15:52:46Z</time>
      </trkpt>
      <trkpt lat="45.31142" lon="3.7356">
        <ele>957</ele>
        <time>2021-04-14T15:52:47Z</time>
      </trkpt>
      <trkpt lat="45.31144" lon="3.73574">
        <ele>955</ele>
        <time>2021-04-14T15:52:48Z</time>
      </trkpt>
      <trkpt lat="45.31145" lon="3.73587">
        <ele>954</ele>
        <time>2021-04-14T15:52:49Z</time>
      </trkpt>
      <trkpt lat="45.31147" lon="3.73602">
        <ele>954</ele>
        <time>2021-04-14T15:52:50Z</time>
      </trkpt>
      <trkpt lat="45.31148" lon="3.73619">
        <ele>953</ele>
        <time>2021-04-14T15:52:51Z</time>
      </trkpt>
      <trkpt lat="45.31149" lon="3.73634">
        <ele>953</ele>
        <time>2021-04-14T15:52:52Z</time>
      </trkpt>
      <trkpt lat="45.31149" lon="3.73649">
        <ele>951</ele>
        <time>2021-04-14T15:52:53Z</time>
      </trkpt>
      <trkpt lat="45.31151" lon="3.73663">
        <ele>950</ele>
        <time>2021-04-14T15:52:54Z</time>
      </trkpt>
      <trkpt lat="45.31152" lon="3.73677">
        <ele>949</ele>
        <time>2021-04-14T15:52:55Z</time>
      </trkpt>
      <trkpt lat="45.31155" lon="3.73691">
        <ele>948</ele>
        <time>2021-04-14T15:52:56Z</time>
      </trkpt>
      <trkpt lat="45.31159" lon="3.73703">
        <ele>948</ele>
        <time>2021-04-14T15:52:57Z</time>
      </trkpt>
      <trkpt lat="45.31174" lon="3.7372">
        <ele>945</ele>
        <time>2021-04-14T15:52:58Z</time>
      </trkpt>
      <trkpt lat="45.31183" lon="3.73727">
        <ele>942</ele>
        <time>2021-04-14T15:53:00Z</time>
      </trkpt>
      <trkpt lat="45.31192" lon="3.73735">
        <ele>941</ele>
        <time>2021-04-14T15:53:01Z</time>
      </trkpt>
      <trkpt lat="45.312" lon="3.73743">
        <ele>941</ele>
        <time>2021-04-14T15:53:02Z</time>
      </trkpt>
      <trkpt lat="45.31209" lon="3.73751">
        <ele>939</ele>
        <time>2021-04-14T15:53:03Z</time>
      </trkpt>
      <trkpt lat="45.31216" lon="3.73757">
        <ele>937</ele>
        <time>2021-04-14T15:53:04Z</time>
      </trkpt>
      <trkpt lat="45.31223" lon="3.73759">
        <ele>937</ele>
        <time>2021-04-14T15:53:05Z</time>
      </trkpt>
      <trkpt lat="45.31231" lon="3.73758">
        <ele>933</ele>
        <time>2021-04-14T15:53:06Z</time>
      </trkpt>
      <trkpt lat="45.31239" lon="3.73755">
        <ele>933</ele>
        <time>2021-04-14T15:53:07Z</time>
      </trkpt>
      <trkpt lat="45.31247" lon="3.73753">
        <ele>931</ele>
        <time>2021-04-14T15:53:08Z</time>
      </trkpt>
      <trkpt lat="45.31253" lon="3.73754">
        <ele>930</ele>
        <time>2021-04-14T15:53:09Z</time>
      </trkpt>
      <trkpt lat="45.31256" lon="3.73759">
        <ele>929</ele>
        <time>2021-04-14T15:53:10Z</time>
      </trkpt>
      <trkpt lat="45.31257" lon="3.73767">
        <ele>928</ele>
        <time>2021-04-14T15:53:11Z</time>
      </trkpt>
      <trkpt lat="45.31256" lon="3.73775">
        <ele>927</ele>
        <time>2021-04-14T15:53:12Z</time>
      </trkpt>
      <trkpt lat="45.31254" lon="3.73782">
        <ele>927</ele>
        <time>2021-04-14T15:53:13Z</time>
      </trkpt>
      <trkpt lat="45.31245" lon="3.73795">
        <ele>925</ele>
        <time>2021-04-14T15:53:15Z</time>
      </trkpt>
      <trkpt lat="45.31235" lon="3.73808">
        <ele>925</ele>
        <time>2021-04-14T15:53:17Z</time>
      </trkpt>
      <trkpt lat="45.31223" lon="3.73817">
        <ele>923</ele>
        <time>2021-04-14T15:53:19Z</time>
      </trkpt>
      <trkpt lat="45.31214" lon="3.73825">
        <ele>922</ele>
        <time>2021-04-14T15:53:21Z</time>
      </trkpt>
      <trkpt lat="45.31204" lon="3.73833">
        <ele>920</ele>
        <time>2021-04-14T15:53:23Z</time>
      </trkpt>
      <trkpt lat="45.31197" lon="3.73846">
        <ele>920</ele>
        <time>2021-04-14T15:53:25Z</time>
      </trkpt>
      <trkpt lat="45.31188" lon="3.73862">
        <ele>917</ele>
        <time>2021-04-14T15:53:27Z</time>
      </trkpt>
      <trkpt lat="45.3118" lon="3.73883">
        <ele>915</ele>
        <time>2021-04-14T15:53:29Z</time>
      </trkpt>
      <trkpt lat="45.31179" lon="3.73904">
        <ele>914</ele>
        <time>2021-04-14T15:53:30Z</time>
      </trkpt>
      <trkpt lat="45.3118" lon="3.73913">
        <ele>912</ele>
        <time>2021-04-14T15:53:32Z</time>
      </trkpt>
      <trkpt lat="45.31184" lon="3.73922">
        <ele>911</ele>
        <time>2021-04-14T15:53:33Z</time>
      </trkpt>
      <trkpt lat="45.31187" lon="3.73932">
        <ele>910</ele>
        <time>2021-04-14T15:53:34Z</time>
      </trkpt>
      <trkpt lat="45.31192" lon="3.73942">
        <ele>910</ele>
        <time>2021-04-14T15:53:35Z</time>
      </trkpt>
      <trkpt lat="45.31196" lon="3.73952">
        <ele>910</ele>
        <time>2021-04-14T15:53:36Z</time>
      </trkpt>
      <trkpt lat="45.31206" lon="3.73968">
        <ele>910</ele>
        <time>2021-04-14T15:53:38Z</time>
      </trkpt>
      <trkpt lat="45.31217" lon="3.73989">
        <ele>908</ele>
        <time>2021-04-14T15:53:40Z</time>
      </trkpt>
      <trkpt lat="45.3122" lon="3.74002">
        <ele>907</ele>
        <time>2021-04-14T15:53:41Z</time>
      </trkpt>
      <trkpt lat="45.31221" lon="3.74017">
        <ele>906</ele>
        <time>2021-04-14T15:53:42Z</time>
      </trkpt>
      <trkpt lat="45.31224" lon="3.7404">
        <ele>905</ele>
        <time>2021-04-14T15:53:44Z</time>
      </trkpt>
      <trkpt lat="45.31226" lon="3.74058">
        <ele>903</ele>
        <time>2021-04-14T15:53:46Z</time>
      </trkpt>
      <trkpt lat="45.31229" lon="3.74075">
        <ele>901</ele>
        <time>2021-04-14T15:53:48Z</time>
      </trkpt>
      <trkpt lat="45.31231" lon="3.74087">
        <ele>900</ele>
        <time>2021-04-14T15:53:50Z</time>
      </trkpt>
      <trkpt lat="45.31233" lon="3.74092">
        <ele>900</ele>
        <time>2021-04-14T15:53:51Z</time>
      </trkpt>
      <trkpt lat="45.31233" lon="3.74097">
        <ele>900</ele>
        <time>2021-04-14T15:53:52Z</time>
      </trkpt>
      <trkpt lat="45.31233" lon="3.74101">
        <ele>899</ele>
        <time>2021-04-14T15:53:53Z</time>
      </trkpt>
      <trkpt lat="45.31233" lon="3.74104">
        <ele>899</ele>
        <time>2021-04-14T15:53:54Z</time>
      </trkpt>
      <trkpt lat="45.31232" lon="3.74106">
        <ele>898</ele>
        <time>2021-04-14T15:53:59Z</time>
      </trkpt>
      <trkpt lat="45.31233" lon="3.74114">
        <ele>895</ele>
        <time>2021-04-14T15:54:14Z</time>
      </trkpt>
      <trkpt lat="45.31234" lon="3.74116">
        <ele>893</ele>
        <time>2021-04-14T15:54:15Z</time>
      </trkpt>
      <trkpt lat="45.31236" lon="3.74117">
        <ele>892</ele>
        <time>2021-04-14T15:54:16Z</time>
      </trkpt>
      <trkpt lat="45.31238" lon="3.74121">
        <ele>891</ele>
        <time>2021-04-14T15:54:18Z</time>
      </trkpt>
      <trkpt lat="45.31238" lon="3.74124">
        <ele>890</ele>
        <time>2021-04-14T15:54:20Z</time>
      </trkpt>
      <trkpt lat="45.31237" lon="3.74128">
        <ele>889</ele>
        <time>2021-04-14T15:54:22Z</time>
      </trkpt>
      <trkpt lat="45.31237" lon="3.7413">
        <ele>888</ele>
        <time>2021-04-14T15:54:23Z</time>
      </trkpt>
      <trkpt lat="45.31235" lon="3.74134">
        <ele>888</ele>
        <time>2021-04-14T15:54:24Z</time>
      </trkpt>
      <trkpt lat="45.31233" lon="3.74139">
        <ele>887</ele>
        <time>2021-04-14T15:54:25Z</time>
      </trkpt>
      <trkpt lat="45.31231" lon="3.74142">
        <ele>886</ele>
        <time>2021-04-14T15:54:26Z</time>
      </trkpt>
      <trkpt lat="45.31228" lon="3.74144">
        <ele>886</ele>
        <time>2021-04-14T15:54:27Z</time>
      </trkpt>
      <trkpt lat="45.31225" lon="3.74144">
        <ele>885</ele>
        <time>2021-04-14T15:54:28Z</time>
      </trkpt>
      <trkpt lat="45.31223" lon="3.74145">
        <ele>884</ele>
        <time>2021-04-14T15:54:29Z</time>
      </trkpt>
      <trkpt lat="45.31221" lon="3.74146">
        <ele>883</ele>
        <time>2021-04-14T15:54:31Z</time>
      </trkpt>
      <trkpt lat="45.31219" lon="3.74147">
        <ele>883</ele>
        <time>2021-04-14T15:54:33Z</time>
      </trkpt>
      <trkpt lat="45.3122" lon="3.74149">
        <ele>879</ele>
        <time>2021-04-14T15:54:35Z</time>
      </trkpt>
      <trkpt lat="45.31223" lon="3.74149">
        <ele>879</ele>
        <time>2021-04-14T15:54:37Z</time>
      </trkpt>
      <trkpt lat="45.31226" lon="3.74149">
        <ele>877</ele>
        <time>2021-04-14T15:54:38Z</time>
      </trkpt>
      <trkpt lat="45.31229" lon="3.74149">
        <ele>876</ele>
        <time>2021-04-14T15:54:39Z</time>
      </trkpt>
      <trkpt lat="45.31234" lon="3.7415">
        <ele>875</ele>
        <time>2021-04-14T15:54:40Z</time>
      </trkpt>
      <trkpt lat="45.3124" lon="3.74151">
        <ele>875</ele>
        <time>2021-04-14T15:54:41Z</time>
      </trkpt>
      <trkpt lat="45.31248" lon="3.74154">
        <ele>874</ele>
        <time>2021-04-14T15:54:42Z</time>
      </trkpt>
      <trkpt lat="45.31256" lon="3.74158">
        <ele>873</ele>
        <time>2021-04-14T15:54:43Z</time>
      </trkpt>
      <trkpt lat="45.31263" lon="3.74162">
        <ele>873</ele>
        <time>2021-04-14T15:54:44Z</time>
      </trkpt>
      <trkpt lat="45.31269" lon="3.74166">
        <ele>873</ele>
        <time>2021-04-14T15:54:45Z</time>
      </trkpt>
      <trkpt lat="45.31275" lon="3.74171">
        <ele>871</ele>
        <time>2021-04-14T15:54:46Z</time>
      </trkpt>
      <trkpt lat="45.31278" lon="3.74175">
        <ele>870</ele>
        <time>2021-04-14T15:54:47Z</time>
      </trkpt>
      <trkpt lat="45.31277" lon="3.74172">
        <ele>865</ele>
        <time>2021-04-14T15:54:56Z</time>
      </trkpt>
      <trkpt lat="45.31274" lon="3.74172">
        <ele>864</ele>
        <time>2021-04-14T15:54:58Z</time>
      </trkpt>
      <trkpt lat="45.3127" lon="3.74173">
        <ele>863</ele>
        <time>2021-04-14T15:55:00Z</time>
      </trkpt>
      <trkpt lat="45.31267" lon="3.74174">
        <ele>863</ele>
        <time>2021-04-14T15:55:01Z</time>
      </trkpt>
      <trkpt lat="45.31263" lon="3.74176">
        <ele>862</ele>
        <time>2021-04-14T15:55:02Z</time>
      </trkpt>
      <trkpt lat="45.31257" lon="3.74178">
        <ele>862</ele>
        <time>2021-04-14T15:55:03Z</time>
      </trkpt>
      <trkpt lat="45.31251" lon="3.74182">
        <ele>861</ele>
        <time>2021-04-14T15:55:04Z</time>
      </trkpt>
      <trkpt lat="45.31244" lon="3.74185">
        <ele>861</ele>
        <time>2021-04-14T15:55:05Z</time>
      </trkpt>
      <trkpt lat="45.31238" lon="3.74189">
        <ele>861</ele>
        <time>2021-04-14T15:55:06Z</time>
      </trkpt>
      <trkpt lat="45.3123" lon="3.74193">
        <ele>860</ele>
        <time>2021-04-14T15:55:07Z</time>
      </trkpt>
      <trkpt lat="45.31222" lon="3.74198">
        <ele>859</ele>
        <time>2021-04-14T15:55:08Z</time>
      </trkpt>
      <trkpt lat="45.31215" lon="3.74203">
        <ele>858</ele>
        <time>2021-04-14T15:55:09Z</time>
      </trkpt>
      <trkpt lat="45.31207" lon="3.74208">
        <ele>858</ele>
        <time>2021-04-14T15:55:10Z</time>
      </trkpt>
      <trkpt lat="45.31198" lon="3.74213">
        <ele>858</ele>
        <time>2021-04-14T15:55:11Z</time>
      </trkpt>
      <trkpt lat="45.31189" lon="3.74218">
        <ele>858</ele>
        <time>2021-04-14T15:55:12Z</time>
      </trkpt>
      <trkpt lat="45.3118" lon="3.74222">
        <ele>856</ele>
        <time>2021-04-14T15:55:13Z</time>
      </trkpt>
      <trkpt lat="45.31172" lon="3.74225">
        <ele>855</ele>
        <time>2021-04-14T15:55:14Z</time>
      </trkpt>
      <trkpt lat="45.31164" lon="3.74228">
        <ele>854</ele>
        <time>2021-04-14T15:55:15Z</time>
      </trkpt>
      <trkpt lat="45.31158" lon="3.74232">
        <ele>854</ele>
        <time>2021-04-14T15:55:16Z</time>
      </trkpt>
      <trkpt lat="45.31154" lon="3.74239">
        <ele>853</ele>
        <time>2021-04-14T15:55:17Z</time>
      </trkpt>
      <trkpt lat="45.31153" lon="3.74248">
        <ele>853</ele>
        <time>2021-04-14T15:55:18Z</time>
      </trkpt>
      <trkpt lat="45.31155" lon="3.74256">
        <ele>852</ele>
        <time>2021-04-14T15:55:19Z</time>
      </trkpt>
      <trkpt lat="45.31156" lon="3.74262">
        <ele>851</ele>
        <time>2021-04-14T15:55:20Z</time>
      </trkpt>
      <trkpt lat="45.31158" lon="3.74268">
        <ele>851</ele>
        <time>2021-04-14T15:55:21Z</time>
      </trkpt>
      <trkpt lat="45.3116" lon="3.74274">
        <ele>850</ele>
        <time>2021-04-14T15:55:22Z</time>
      </trkpt>
      <trkpt lat="45.31162" lon="3.74279">
        <ele>850</ele>
        <time>2021-04-14T15:55:23Z</time>
      </trkpt>
      <trkpt lat="45.31163" lon="3.74284">
        <ele>849</ele>
        <time>2021-04-14T15:55:24Z</time>
      </trkpt>
      <trkpt lat="45.31166" lon="3.74289">
        <ele>848</ele>
        <time>2021-04-14T15:55:25Z</time>
      </trkpt>
      <trkpt lat="45.31169" lon="3.74294">
        <ele>847</ele>
        <time>2021-04-14T15:55:26Z</time>
      </trkpt>
      <trkpt lat="45.31172" lon="3.74299">
        <ele>847</ele>
        <time>2021-04-14T15:55:27Z</time>
      </trkpt>
      <trkpt lat="45.31176" lon="3.74303">
        <ele>847</ele>
        <time>2021-04-14T15:55:28Z</time>
      </trkpt>
      <trkpt lat="45.3118" lon="3.74308">
        <ele>847</ele>
        <time>2021-04-14T15:55:29Z</time>
      </trkpt>
      <trkpt lat="45.31183" lon="3.74314">
        <ele>846</ele>
        <time>2021-04-14T15:55:30Z</time>
      </trkpt>
      <trkpt lat="45.31184" lon="3.7432">
        <ele>845</ele>
        <time>2021-04-14T15:55:31Z</time>
      </trkpt>
      <trkpt lat="45.31185" lon="3.74327">
        <ele>844</ele>
        <time>2021-04-14T15:55:32Z</time>
      </trkpt>
      <trkpt lat="45.31184" lon="3.74334">
        <ele>844</ele>
        <time>2021-04-14T15:55:33Z</time>
      </trkpt>
      <trkpt lat="45.31182" lon="3.74339">
        <ele>843</ele>
        <time>2021-04-14T15:55:34Z</time>
      </trkpt>
      <trkpt lat="45.3118" lon="3.74344">
        <ele>842</ele>
        <time>2021-04-14T15:55:35Z</time>
      </trkpt>
      <trkpt lat="45.31177" lon="3.74349">
        <ele>841</ele>
        <time>2021-04-14T15:55:36Z</time>
      </trkpt>
      <trkpt lat="45.31175" lon="3.74353">
        <ele>840</ele>
        <time>2021-04-14T15:55:37Z</time>
      </trkpt>
      <trkpt lat="45.31172" lon="3.74356">
        <ele>838</ele>
        <time>2021-04-14T15:55:38Z</time>
      </trkpt>
      <trkpt lat="45.31169" lon="3.74359">
        <ele>836</ele>
        <time>2021-04-14T15:55:39Z</time>
      </trkpt>
      <trkpt lat="45.31166" lon="3.74363">
        <ele>836</ele>
        <time>2021-04-14T15:55:40Z</time>
      </trkpt>
      <trkpt lat="45.31162" lon="3.74367">
        <ele>835</ele>
        <time>2021-04-14T15:55:41Z</time>
      </trkpt>
      <trkpt lat="45.31159" lon="3.7437">
        <ele>835</ele>
        <time>2021-04-14T15:55:42Z</time>
      </trkpt>
      <trkpt lat="45.31156" lon="3.74374">
        <ele>834</ele>
        <time>2021-04-14T15:55:43Z</time>
      </trkpt>
      <trkpt lat="45.31153" lon="3.74378">
        <ele>834</ele>
        <time>2021-04-14T15:55:44Z</time>
      </trkpt>
      <trkpt lat="45.3115" lon="3.74382">
        <ele>834</ele>
        <time>2021-04-14T15:55:45Z</time>
      </trkpt>
      <trkpt lat="45.31147" lon="3.74386">
        <ele>834</ele>
        <time>2021-04-14T15:55:46Z</time>
      </trkpt>
      <trkpt lat="45.31144" lon="3.74389">
        <ele>834</ele>
        <time>2021-04-14T15:55:47Z</time>
      </trkpt>
      <trkpt lat="45.31141" lon="3.74393">
        <ele>834</ele>
        <time>2021-04-14T15:55:48Z</time>
      </trkpt>
      <trkpt lat="45.31138" lon="3.74396">
        <ele>834</ele>
        <time>2021-04-14T15:55:49Z</time>
      </trkpt>
      <trkpt lat="45.31132" lon="3.74403">
        <ele>833</ele>
        <time>2021-04-14T15:55:50Z</time>
      </trkpt>
      <trkpt lat="45.31129" lon="3.74407">
        <ele>832</ele>
        <time>2021-04-14T15:55:52Z</time>
      </trkpt>
      <trkpt lat="45.31127" lon="3.7441">
        <ele>832</ele>
        <time>2021-04-14T15:55:53Z</time>
      </trkpt>
      <trkpt lat="45.31124" lon="3.74414">
        <ele>831</ele>
        <time>2021-04-14T15:55:54Z</time>
      </trkpt>
      <trkpt lat="45.3112" lon="3.74417">
        <ele>831</ele>
        <time>2021-04-14T15:55:55Z</time>
      </trkpt>
      <trkpt lat="45.31117" lon="3.7442">
        <ele>831</ele>
        <time>2021-04-14T15:55:56Z</time>
      </trkpt>
      <trkpt lat="45.31113" lon="3.74423">
        <ele>831</ele>
        <time>2021-04-14T15:55:57Z</time>
      </trkpt>
      <trkpt lat="45.31109" lon="3.74427">
        <ele>831</ele>
        <time>2021-04-14T15:55:58Z</time>
      </trkpt>
      <trkpt lat="45.31106" lon="3.7443">
        <ele>831</ele>
        <time>2021-04-14T15:55:59Z</time>
      </trkpt>
      <trkpt lat="45.31102" lon="3.74433">
        <ele>831</ele>
        <time>2021-04-14T15:56:00Z</time>
      </trkpt>
      <trkpt lat="45.31098" lon="3.74436">
        <ele>831</ele>
        <time>2021-04-14T15:56:01Z</time>
      </trkpt>
      <trkpt lat="45.31095" lon="3.74439">
        <ele>831</ele>
        <time>2021-04-14T15:56:02Z</time>
      </trkpt>
      <trkpt lat="45.31091" lon="3.74442">
        <ele>831</ele>
        <time>2021-04-14T15:56:03Z</time>
      </trkpt>
      <trkpt lat="45.31087" lon="3.74444">
        <ele>831</ele>
        <time>2021-04-14T15:56:04Z</time>
      </trkpt>
      <trkpt lat="45.31083" lon="3.74446">
        <ele>831</ele>
        <time>2021-04-14T15:56:05Z</time>
      </trkpt>
      <trkpt lat="45.3108" lon="3.74447">
        <ele>830</ele>
        <time>2021-04-14T15:56:06Z</time>
      </trkpt>
      <trkpt lat="45.31076" lon="3.74449">
        <ele>830</ele>
        <time>2021-04-14T15:56:07Z</time>
      </trkpt>
      <trkpt lat="45.31072" lon="3.74451">
        <ele>830</ele>
        <time>2021-04-14T15:56:08Z</time>
      </trkpt>
      <trkpt lat="45.31068" lon="3.74453">
        <ele>830</ele>
        <time>2021-04-14T15:56:09Z</time>
      </trkpt>
      <trkpt lat="45.31064" lon="3.74454">
        <ele>830</ele>
        <time>2021-04-14T15:56:10Z</time>
      </trkpt>
      <trkpt lat="45.3106" lon="3.74455">
        <ele>830</ele>
        <time>2021-04-14T15:56:11Z</time>
      </trkpt>
      <trkpt lat="45.31056" lon="3.74456">
        <ele>830</ele>
        <time>2021-04-14T15:56:12Z</time>
      </trkpt>
      <trkpt lat="45.31052" lon="3.74458">
        <ele>830</ele>
        <time>2021-04-14T15:56:13Z</time>
      </trkpt>
      <trkpt lat="45.31048" lon="3.74459">
        <ele>830</ele>
        <time>2021-04-14T15:56:14Z</time>
      </trkpt>
      <trkpt lat="45.31045" lon="3.74461">
        <ele>830</ele>
        <time>2021-04-14T15:56:15Z</time>
      </trkpt>
      <trkpt lat="45.31041" lon="3.74464">
        <ele>830</ele>
        <time>2021-04-14T15:56:16Z</time>
      </trkpt>
      <trkpt lat="45.31038" lon="3.74465">
        <ele>830</ele>
        <time>2021-04-14T15:56:17Z</time>
      </trkpt>
      <trkpt lat="45.31034" lon="3.74467">
        <ele>830</ele>
        <time>2021-04-14T15:56:18Z</time>
      </trkpt>
      <trkpt lat="45.3103" lon="3.74469">
        <ele>830</ele>
        <time>2021-04-14T15:56:19Z</time>
      </trkpt>
      <trkpt lat="45.31026" lon="3.74471">
        <ele>830</ele>
        <time>2021-04-14T15:56:20Z</time>
      </trkpt>
      <trkpt lat="45.31022" lon="3.74473">
        <ele>829</ele>
        <time>2021-04-14T15:56:21Z</time>
      </trkpt>
      <trkpt lat="45.31018" lon="3.74474">
        <ele>829</ele>
        <time>2021-04-14T15:56:22Z</time>
      </trkpt>
      <trkpt lat="45.31014" lon="3.74476">
        <ele>829</ele>
        <time>2021-04-14T15:56:23Z</time>
      </trkpt>
      <trkpt lat="45.3101" lon="3.74477">
        <ele>829</ele>
        <time>2021-04-14T15:56:24Z</time>
      </trkpt>
      <trkpt lat="45.31005" lon="3.74478">
        <ele>829</ele>
        <time>2021-04-14T15:56:25Z</time>
      </trkpt>
      <trkpt lat="45.31001" lon="3.7448">
        <ele>829</ele>
        <time>2021-04-14T15:56:26Z</time>
      </trkpt>
      <trkpt lat="45.30998" lon="3.74481">
        <ele>829</ele>
        <time>2021-04-14T15:56:27Z</time>
      </trkpt>
      <trkpt lat="45.30985" lon="3.74485">
        <ele>829</ele>
        <time>2021-04-14T15:56:30Z</time>
      </trkpt>
      <trkpt lat="45.30974" lon="3.74492">
        <ele>830</ele>
        <time>2021-04-14T15:56:33Z</time>
      </trkpt>
      <trkpt lat="45.30963" lon="3.74498">
        <ele>830</ele>
        <time>2021-04-14T15:56:36Z</time>
      </trkpt>
      <trkpt lat="45.30954" lon="3.74507">
        <ele>830</ele>
        <time>2021-04-14T15:56:39Z</time>
      </trkpt>
      <trkpt lat="45.30945" lon="3.74516">
        <ele>830</ele>
        <time>2021-04-14T15:56:42Z</time>
      </trkpt>
      <trkpt lat="45.30934" lon="3.74521">
        <ele>830</ele>
        <time>2021-04-14T15:56:45Z</time>
      </trkpt>
      <trkpt lat="45.30928" lon="3.74523">
        <ele>830</ele>
        <time>2021-04-14T15:56:46Z</time>
      </trkpt>
      <trkpt lat="45.30924" lon="3.74527">
        <ele>830</ele>
        <time>2021-04-14T15:56:47Z</time>
      </trkpt>
      <trkpt lat="45.3092" lon="3.74529">
        <ele>830</ele>
        <time>2021-04-14T15:56:48Z</time>
      </trkpt>
      <trkpt lat="45.30916" lon="3.74532">
        <ele>829</ele>
        <time>2021-04-14T15:56:49Z</time>
      </trkpt>
      <trkpt lat="45.30912" lon="3.74535">
        <ele>829</ele>
        <time>2021-04-14T15:56:50Z</time>
      </trkpt>
      <trkpt lat="45.30908" lon="3.74538">
        <ele>829</ele>
        <time>2021-04-14T15:56:51Z</time>
      </trkpt>
      <trkpt lat="45.30904" lon="3.74541">
        <ele>830</ele>
        <time>2021-04-14T15:56:52Z</time>
      </trkpt>
      <trkpt lat="45.309" lon="3.74544">
        <ele>830</ele>
        <time>2021-04-14T15:56:53Z</time>
      </trkpt>
      <trkpt lat="45.30897" lon="3.74548">
        <ele>830</ele>
        <time>2021-04-14T15:56:54Z</time>
      </trkpt>
      <trkpt lat="45.30893" lon="3.74552">
        <ele>831</ele>
        <time>2021-04-14T15:56:55Z</time>
      </trkpt>
      <trkpt lat="45.3089" lon="3.74556">
        <ele>831</ele>
        <time>2021-04-14T15:56:56Z</time>
      </trkpt>
      <trkpt lat="45.30887" lon="3.7456">
        <ele>831</ele>
        <time>2021-04-14T15:56:57Z</time>
      </trkpt>
      <trkpt lat="45.30884" lon="3.74565">
        <ele>831</ele>
        <time>2021-04-14T15:56:58Z</time>
      </trkpt>
      <trkpt lat="45.30881" lon="3.74569">
        <ele>831</ele>
        <time>2021-04-14T15:56:59Z</time>
      </trkpt>
      <trkpt lat="45.30877" lon="3.74573">
        <ele>831</ele>
        <time>2021-04-14T15:57:00Z</time>
      </trkpt>
      <trkpt lat="45.30874" lon="3.74577">
        <ele>831</ele>
        <time>2021-04-14T15:57:01Z</time>
      </trkpt>
      <trkpt lat="45.30871" lon="3.74581">
        <ele>831</ele>
        <time>2021-04-14T15:57:02Z</time>
      </trkpt>
      <trkpt lat="45.30868" lon="3.74585">
        <ele>832</ele>
        <time>2021-04-14T15:57:03Z</time>
      </trkpt>
      <trkpt lat="45.30865" lon="3.7459">
        <ele>832</ele>
        <time>2021-04-14T15:57:04Z</time>
      </trkpt>
      <trkpt lat="45.30862" lon="3.74594">
        <ele>832</ele>
        <time>2021-04-14T15:57:05Z</time>
      </trkpt>
      <trkpt lat="45.3086" lon="3.746">
        <ele>832</ele>
        <time>2021-04-14T15:57:06Z</time>
      </trkpt>
      <trkpt lat="45.30857" lon="3.74604">
        <ele>832</ele>
        <time>2021-04-14T15:57:07Z</time>
      </trkpt>
      <trkpt lat="45.30854" lon="3.74609">
        <ele>832</ele>
        <time>2021-04-14T15:57:08Z</time>
      </trkpt>
      <trkpt lat="45.30851" lon="3.74614">
        <ele>833</ele>
        <time>2021-04-14T15:57:09Z</time>
      </trkpt>
      <trkpt lat="45.30849" lon="3.74619">
        <ele>833</ele>
        <time>2021-04-14T15:57:10Z</time>
      </trkpt>
      <trkpt lat="45.30846" lon="3.74624">
        <ele>833</ele>
        <time>2021-04-14T15:57:11Z</time>
      </trkpt>
      <trkpt lat="45.30844" lon="3.74628">
        <ele>833</ele>
        <time>2021-04-14T15:57:12Z</time>
      </trkpt>
      <trkpt lat="45.30841" lon="3.74632">
        <ele>833</ele>
        <time>2021-04-14T15:57:13Z</time>
      </trkpt>
      <trkpt lat="45.30838" lon="3.74636">
        <ele>833</ele>
        <time>2021-04-14T15:57:14Z</time>
      </trkpt>
      <trkpt lat="45.30836" lon="3.7464">
        <ele>833</ele>
        <time>2021-04-14T15:57:15Z</time>
      </trkpt>
      <trkpt lat="45.30833" lon="3.74644">
        <ele>834</ele>
        <time>2021-04-14T15:57:16Z</time>
      </trkpt>
      <trkpt lat="45.3083" lon="3.74648">
        <ele>834</ele>
        <time>2021-04-14T15:57:17Z</time>
      </trkpt>
      <trkpt lat="45.30827" lon="3.7465">
        <ele>834</ele>
        <time>2021-04-14T15:57:18Z</time>
      </trkpt>
      <trkpt lat="45.30823" lon="3.74653">
        <ele>834</ele>
        <time>2021-04-14T15:57:19Z</time>
      </trkpt>
      <trkpt lat="45.3082" lon="3.74657">
        <ele>834</ele>
        <time>2021-04-14T15:57:20Z</time>
      </trkpt>
      <trkpt lat="45.30817" lon="3.7466">
        <ele>834</ele>
        <time>2021-04-14T15:57:21Z</time>
      </trkpt>
      <trkpt lat="45.30814" lon="3.74663">
        <ele>834</ele>
        <time>2021-04-14T15:57:22Z</time>
      </trkpt>
      <trkpt lat="45.30811" lon="3.74667">
        <ele>834</ele>
        <time>2021-04-14T15:57:23Z</time>
      </trkpt>
      <trkpt lat="45.30808" lon="3.7467">
        <ele>834</ele>
        <time>2021-04-14T15:57:24Z</time>
      </trkpt>
      <trkpt lat="45.30805" lon="3.74673">
        <ele>834</ele>
        <time>2021-04-14T15:57:25Z</time>
      </trkpt>
      <trkpt lat="45.30802" lon="3.74676">
        <ele>834</ele>
        <time>2021-04-14T15:57:26Z</time>
      </trkpt>
      <trkpt lat="45.30798" lon="3.74679">
        <ele>834</ele>
        <time>2021-04-14T15:57:27Z</time>
      </trkpt>
      <trkpt lat="45.30795" lon="3.74683">
        <ele>835</ele>
        <time>2021-04-14T15:57:28Z</time>
      </trkpt>
      <trkpt lat="45.30792" lon="3.74686">
        <ele>835</ele>
        <time>2021-04-14T15:57:29Z</time>
      </trkpt>
      <trkpt lat="45.30788" lon="3.74689">
        <ele>835</ele>
        <time>2021-04-14T15:57:30Z</time>
      </trkpt>
      <trkpt lat="45.30785" lon="3.74693">
        <ele>836</ele>
        <time>2021-04-14T15:57:31Z</time>
      </trkpt>
      <trkpt lat="45.30781" lon="3.74697">
        <ele>836</ele>
        <time>2021-04-14T15:57:32Z</time>
      </trkpt>
      <trkpt lat="45.30778" lon="3.747">
        <ele>836</ele>
        <time>2021-04-14T15:57:33Z</time>
      </trkpt>
      <trkpt lat="45.30775" lon="3.74704">
        <ele>837</ele>
        <time>2021-04-14T15:57:34Z</time>
      </trkpt>
      <trkpt lat="45.30771" lon="3.74707">
        <ele>837</ele>
        <time>2021-04-14T15:57:35Z</time>
      </trkpt>
      <trkpt lat="45.30768" lon="3.7471">
        <ele>837</ele>
        <time>2021-04-14T15:57:36Z</time>
      </trkpt>
      <trkpt lat="45.30764" lon="3.74713">
        <ele>838</ele>
        <time>2021-04-14T15:57:37Z</time>
      </trkpt>
      <trkpt lat="45.30761" lon="3.74716">
        <ele>838</ele>
        <time>2021-04-14T15:57:38Z</time>
      </trkpt>
      <trkpt lat="45.30758" lon="3.74719">
        <ele>838</ele>
        <time>2021-04-14T15:57:39Z</time>
      </trkpt>
      <trkpt lat="45.30754" lon="3.74723">
        <ele>838</ele>
        <time>2021-04-14T15:57:40Z</time>
      </trkpt>
      <trkpt lat="45.30751" lon="3.74726">
        <ele>838</ele>
        <time>2021-04-14T15:57:41Z</time>
      </trkpt>
      <trkpt lat="45.30747" lon="3.74729">
        <ele>838</ele>
        <time>2021-04-14T15:57:42Z</time>
      </trkpt>
      <trkpt lat="45.30744" lon="3.74732">
        <ele>838</ele>
        <time>2021-04-14T15:57:43Z</time>
      </trkpt>
      <trkpt lat="45.3074" lon="3.74735">
        <ele>839</ele>
        <time>2021-04-14T15:57:44Z</time>
      </trkpt>
      <trkpt lat="45.30737" lon="3.74738">
        <ele>839</ele>
        <time>2021-04-14T15:57:45Z</time>
      </trkpt>
      <trkpt lat="45.30734" lon="3.74741">
        <ele>839</ele>
        <time>2021-04-14T15:57:46Z</time>
      </trkpt>
      <trkpt lat="45.3073" lon="3.74744">
        <ele>839</ele>
        <time>2021-04-14T15:57:47Z</time>
      </trkpt>
      <trkpt lat="45.30727" lon="3.74748">
        <ele>839</ele>
        <time>2021-04-14T15:57:48Z</time>
      </trkpt>
      <trkpt lat="45.30724" lon="3.74751">
        <ele>839</ele>
        <time>2021-04-14T15:57:49Z</time>
      </trkpt>
      <trkpt lat="45.3072" lon="3.74754">
        <ele>839</ele>
        <time>2021-04-14T15:57:50Z</time>
      </trkpt>
      <trkpt lat="45.30717" lon="3.74757">
        <ele>839</ele>
        <time>2021-04-14T15:57:51Z</time>
      </trkpt>
      <trkpt lat="45.30714" lon="3.7476">
        <ele>840</ele>
        <time>2021-04-14T15:57:52Z</time>
      </trkpt>
      <trkpt lat="45.30711" lon="3.74763">
        <ele>840</ele>
        <time>2021-04-14T15:57:53Z</time>
      </trkpt>
      <trkpt lat="45.30708" lon="3.74766">
        <ele>840</ele>
        <time>2021-04-14T15:57:54Z</time>
      </trkpt>
      <trkpt lat="45.30705" lon="3.74768">
        <ele>840</ele>
        <time>2021-04-14T15:57:55Z</time>
      </trkpt>
      <trkpt lat="45.30702" lon="3.7477">
        <ele>840</ele>
        <time>2021-04-14T15:57:56Z</time>
      </trkpt>
      <trkpt lat="45.307" lon="3.74772">
        <ele>840</ele>
        <time>2021-04-14T15:57:57Z</time>
      </trkpt>
      <trkpt lat="45.30698" lon="3.74774">
        <ele>840</ele>
        <time>2021-04-14T15:57:58Z</time>
      </trkpt>
      <trkpt lat="45.30699" lon="3.74779">
        <ele>841</ele>
        <time>2021-04-14T15:58:00Z</time>
      </trkpt>
      <trkpt lat="45.307" lon="3.74781">
        <ele>841</ele>
        <time>2021-04-14T15:58:01Z</time>
      </trkpt>
      <trkpt lat="45.30703" lon="3.74782">
        <ele>841</ele>
        <time>2021-04-14T15:58:02Z</time>
      </trkpt>
      <trkpt lat="45.30711" lon="3.74786">
        <ele>842</ele>
        <time>2021-04-14T15:58:06Z</time>
      </trkpt>
      <trkpt lat="45.30721" lon="3.74788">
        <ele>842</ele>
        <time>2021-04-14T15:58:10Z</time>
      </trkpt>
      <trkpt lat="45.30731" lon="3.74785">
        <ele>843</ele>
        <time>2021-04-14T15:58:14Z</time>
      </trkpt>
      <trkpt lat="45.3074" lon="3.74782">
        <ele>843</ele>
        <time>2021-04-14T15:58:17Z</time>
      </trkpt>
      <trkpt lat="45.30749" lon="3.74782">
        <ele>845</ele>
        <time>2021-04-14T15:58:20Z</time>
      </trkpt>
      <trkpt lat="45.30758" lon="3.74784">
        <ele>846</ele>
        <time>2021-04-14T15:58:23Z</time>
      </trkpt>
      <trkpt lat="45.30768" lon="3.74783">
        <ele>847</ele>
        <time>2021-04-14T15:58:26Z</time>
      </trkpt>
      <trkpt lat="45.30779" lon="3.74781">
        <ele>848</ele>
        <time>2021-04-14T15:58:29Z</time>
      </trkpt>
      <trkpt lat="45.30791" lon="3.74778">
        <ele>848</ele>
        <time>2021-04-14T15:58:33Z</time>
      </trkpt>
      <trkpt lat="45.308" lon="3.74778">
        <ele>853</ele>
        <time>2021-04-14T15:58:38Z</time>
      </trkpt>
      <trkpt lat="45.30796" lon="3.74793">
        <ele>856</ele>
        <time>2021-04-14T15:58:46Z</time>
      </trkpt>
      <trkpt lat="45.30789" lon="3.74801">
        <ele>857</ele>
        <time>2021-04-14T15:58:50Z</time>
      </trkpt>
      <trkpt lat="45.30784" lon="3.74814">
        <ele>859</ele>
        <time>2021-04-14T15:58:55Z</time>
      </trkpt>
      <trkpt lat="45.30777" lon="3.74825">
        <ele>860</ele>
        <time>2021-04-14T15:58:58Z</time>
      </trkpt>
      <trkpt lat="45.30767" lon="3.74832">
        <ele>861</ele>
        <time>2021-04-14T15:59:03Z</time>
      </trkpt>
      <trkpt lat="45.30758" lon="3.74835">
        <ele>862</ele>
        <time>2021-04-14T15:59:06Z</time>
      </trkpt>
      <trkpt lat="45.3075" lon="3.74838">
        <ele>863</ele>
        <time>2021-04-14T15:59:08Z</time>
      </trkpt>
      <trkpt lat="45.30748" lon="3.74839">
        <ele>864</ele>
        <time>2021-04-14T15:59:09Z</time>
      </trkpt>
      <trkpt lat="45.30739" lon="3.74845">
        <ele>865</ele>
        <time>2021-04-14T15:59:12Z</time>
      </trkpt>
      <trkpt lat="45.30731" lon="3.74851">
        <ele>865</ele>
        <time>2021-04-14T15:59:16Z</time>
      </trkpt>
      <trkpt lat="45.30723" lon="3.74859">
        <ele>868</ele>
        <time>2021-04-14T15:59:20Z</time>
      </trkpt>
      <trkpt lat="45.30721" lon="3.74862">
        <ele>871</ele>
        <time>2021-04-14T15:59:24Z</time>
      </trkpt>
      <trkpt lat="45.30729" lon="3.74868">
        <ele>873</ele>
        <time>2021-04-14T15:59:29Z</time>
      </trkpt>
      <trkpt lat="45.30736" lon="3.74868">
        <ele>874</ele>
        <time>2021-04-14T15:59:33Z</time>
      </trkpt>
      <trkpt lat="45.30738" lon="3.74869">
        <ele>874</ele>
        <time>2021-04-14T15:59:34Z</time>
      </trkpt>
      <trkpt lat="45.30742" lon="3.74871">
        <ele>874</ele>
        <time>2021-04-14T15:59:37Z</time>
      </trkpt>
      <trkpt lat="45.30743" lon="3.74872">
        <ele>878</ele>
        <time>2021-04-14T15:59:43Z</time>
      </trkpt>
      <trkpt lat="45.30743" lon="3.74872">
        <ele>878</ele>
        <time>2021-04-14T15:59:44Z</time>
      </trkpt>
      <trkpt lat="45.30747" lon="3.74874">
        <ele>879</ele>
        <time>2021-04-14T15:59:51Z</time>
      </trkpt>
      <trkpt lat="45.30747" lon="3.74874">
        <ele>879</ele>
        <time>2021-04-14T15:59:56Z</time>
      </trkpt>
      <trkpt lat="45.3075" lon="3.74876">
        <ele>884</ele>
        <time>2021-04-14T16:00:17Z</time>
      </trkpt>
      <trkpt lat="45.30755" lon="3.74877">
        <ele>884</ele>
        <time>2021-04-14T16:00:19Z</time>
      </trkpt>
      <trkpt lat="45.30766" lon="3.74877">
        <ele>884</ele>
        <time>2021-04-14T16:00:25Z</time>
      </trkpt>
      <trkpt lat="45.30778" lon="3.74876">
        <ele>888</ele>
        <time>2021-04-14T16:00:29Z</time>
      </trkpt>
      <trkpt lat="45.30789" lon="3.74879">
        <ele>890</ele>
        <time>2021-04-14T16:00:33Z</time>
      </trkpt>
      <trkpt lat="45.30799" lon="3.74877">
        <ele>890</ele>
        <time>2021-04-14T16:00:36Z</time>
      </trkpt>
      <trkpt lat="45.3081" lon="3.74876">
        <ele>890</ele>
        <time>2021-04-14T16:00:40Z</time>
      </trkpt>
      <trkpt lat="45.30821" lon="3.74875">
        <ele>894</ele>
        <time>2021-04-14T16:00:43Z</time>
      </trkpt>
      <trkpt lat="45.3083" lon="3.74874">
        <ele>895</ele>
        <time>2021-04-14T16:00:46Z</time>
      </trkpt>
      <trkpt lat="45.30841" lon="3.74872">
        <ele>896</ele>
        <time>2021-04-14T16:00:50Z</time>
      </trkpt>
      <trkpt lat="45.30851" lon="3.7487">
        <ele>897</ele>
        <time>2021-04-14T16:00:53Z</time>
      </trkpt>
      <trkpt lat="45.30856" lon="3.74868">
        <ele>897</ele>
        <time>2021-04-14T16:00:55Z</time>
      </trkpt>
      <trkpt lat="45.30866" lon="3.74866">
        <ele>898</ele>
        <time>2021-04-14T16:00:59Z</time>
      </trkpt>
      <trkpt lat="45.30875" lon="3.74864">
        <ele>898</ele>
        <time>2021-04-14T16:01:03Z</time>
      </trkpt>
      <trkpt lat="45.30886" lon="3.74862">
        <ele>900</ele>
        <time>2021-04-14T16:01:09Z</time>
      </trkpt>
      <trkpt lat="45.30889" lon="3.74863">
        <ele>900</ele>
        <time>2021-04-14T16:01:10Z</time>
      </trkpt>
      <trkpt lat="45.30892" lon="3.74864">
        <ele>900</ele>
        <time>2021-04-14T16:01:11Z</time>
      </trkpt>
      <trkpt lat="45.30895" lon="3.74866">
        <ele>900</ele>
        <time>2021-04-14T16:01:12Z</time>
      </trkpt>
      <trkpt lat="45.30904" lon="3.74873">
        <ele>900</ele>
        <time>2021-04-14T16:01:17Z</time>
      </trkpt>
      <trkpt lat="45.30911" lon="3.74883">
        <ele>902</ele>
        <time>2021-04-14T16:01:22Z</time>
      </trkpt>
      <trkpt lat="45.30916" lon="3.74895">
        <ele>903</ele>
        <time>2021-04-14T16:01:25Z</time>
      </trkpt>
      <trkpt lat="45.3091" lon="3.74906">
        <ele>904</ele>
        <time>2021-04-14T16:01:30Z</time>
      </trkpt>
      <trkpt lat="45.30908" lon="3.74912">
        <ele>904</ele>
        <time>2021-04-14T16:01:33Z</time>
      </trkpt>
      <trkpt lat="45.30906" lon="3.74913">
        <ele>905</ele>
        <time>2021-04-14T16:01:35Z</time>
      </trkpt>
      <trkpt lat="45.30904" lon="3.74915">
        <ele>906</ele>
        <time>2021-04-14T16:01:36Z</time>
      </trkpt>
      <trkpt lat="45.30903" lon="3.74919">
        <ele>906</ele>
        <time>2021-04-14T16:01:38Z</time>
      </trkpt>
      <trkpt lat="45.309" lon="3.74922">
        <ele>907</ele>
        <time>2021-04-14T16:01:40Z</time>
      </trkpt>
      <trkpt lat="45.30898" lon="3.74923">
        <ele>907</ele>
        <time>2021-04-14T16:01:41Z</time>
      </trkpt>
      <trkpt lat="45.30895" lon="3.74924">
        <ele>907</ele>
        <time>2021-04-14T16:01:42Z</time>
      </trkpt>
      <trkpt lat="45.30893" lon="3.74926">
        <ele>908</ele>
        <time>2021-04-14T16:01:43Z</time>
      </trkpt>
      <trkpt lat="45.30893" lon="3.74929">
        <ele>908</ele>
        <time>2021-04-14T16:01:44Z</time>
      </trkpt>
      <trkpt lat="45.30891" lon="3.7493">
        <ele>908</ele>
        <time>2021-04-14T16:01:45Z</time>
      </trkpt>
      <trkpt lat="45.30889" lon="3.74932">
        <ele>909</ele>
        <time>2021-04-14T16:01:46Z</time>
      </trkpt>
      <trkpt lat="45.30887" lon="3.74934">
        <ele>909</ele>
        <time>2021-04-14T16:01:47Z</time>
      </trkpt>
      <trkpt lat="45.30885" lon="3.74936">
        <ele>909</ele>
        <time>2021-04-14T16:01:48Z</time>
      </trkpt>
      <trkpt lat="45.30883" lon="3.74936">
        <ele>909</ele>
        <time>2021-04-14T16:01:49Z</time>
      </trkpt>
      <trkpt lat="45.30882" lon="3.74937">
        <ele>909</ele>
        <time>2021-04-14T16:01:50Z</time>
      </trkpt>
      <trkpt lat="45.30879" lon="3.74937">
        <ele>910</ele>
        <time>2021-04-14T16:01:51Z</time>
      </trkpt>
      <trkpt lat="45.30873" lon="3.74947">
        <ele>910</ele>
        <time>2021-04-14T16:01:56Z</time>
      </trkpt>
      <trkpt lat="45.30867" lon="3.7496">
        <ele>911</ele>
        <time>2021-04-14T16:02:01Z</time>
      </trkpt>
      <trkpt lat="45.30857" lon="3.74967">
        <ele>911</ele>
        <time>2021-04-14T16:02:07Z</time>
      </trkpt>
      <trkpt lat="45.30849" lon="3.74976">
        <ele>914</ele>
        <time>2021-04-14T16:02:12Z</time>
      </trkpt>
      <trkpt lat="45.30842" lon="3.74986">
        <ele>915</ele>
        <time>2021-04-14T16:02:16Z</time>
      </trkpt>
      <trkpt lat="45.30837" lon="3.74997">
        <ele>917</ele>
        <time>2021-04-14T16:02:21Z</time>
      </trkpt>
      <trkpt lat="45.30832" lon="3.75007">
        <ele>918</ele>
        <time>2021-04-14T16:02:24Z</time>
      </trkpt>
      <trkpt lat="45.30831" lon="3.7501">
        <ele>918</ele>
        <time>2021-04-14T16:02:25Z</time>
      </trkpt>
      <trkpt lat="45.30827" lon="3.75017">
        <ele>919</ele>
        <time>2021-04-14T16:02:28Z</time>
      </trkpt>
      <trkpt lat="45.30819" lon="3.75028">
        <ele>919</ele>
        <time>2021-04-14T16:02:34Z</time>
      </trkpt>
      <trkpt lat="45.30817" lon="3.75031">
        <ele>922</ele>
        <time>2021-04-14T16:02:36Z</time>
      </trkpt>
      <trkpt lat="45.30815" lon="3.75035">
        <ele>922</ele>
        <time>2021-04-14T16:02:38Z</time>
      </trkpt>
      <trkpt lat="45.30813" lon="3.75038">
        <ele>923</ele>
        <time>2021-04-14T16:02:40Z</time>
      </trkpt>
      <trkpt lat="45.30811" lon="3.75038">
        <ele>923</ele>
        <time>2021-04-14T16:02:42Z</time>
      </trkpt>
      <trkpt lat="45.3081" lon="3.75039">
        <ele>924</ele>
        <time>2021-04-14T16:02:46Z</time>
      </trkpt>
      <trkpt lat="45.30807" lon="3.75041">
        <ele>925</ele>
        <time>2021-04-14T16:02:48Z</time>
      </trkpt>
      <trkpt lat="45.30804" lon="3.75044">
        <ele>926</ele>
        <time>2021-04-14T16:02:50Z</time>
      </trkpt>
      <trkpt lat="45.30802" lon="3.75045">
        <ele>926</ele>
        <time>2021-04-14T16:02:51Z</time>
      </trkpt>
      <trkpt lat="45.30793" lon="3.7505">
        <ele>927</ele>
        <time>2021-04-14T16:02:55Z</time>
      </trkpt>
      <trkpt lat="45.30789" lon="3.7505">
        <ele>928</ele>
        <time>2021-04-14T16:02:57Z</time>
      </trkpt>
      <trkpt lat="45.30786" lon="3.75052">
        <ele>928</ele>
        <time>2021-04-14T16:02:58Z</time>
      </trkpt>
      <trkpt lat="45.30784" lon="3.75053">
        <ele>928</ele>
        <time>2021-04-14T16:03:01Z</time>
      </trkpt>
      <trkpt lat="45.30782" lon="3.75056">
        <ele>930</ele>
        <time>2021-04-14T16:03:03Z</time>
      </trkpt>
      <trkpt lat="45.30779" lon="3.75057">
        <ele>931</ele>
        <time>2021-04-14T16:03:05Z</time>
      </trkpt>
      <trkpt lat="45.30777" lon="3.75058">
        <ele>931</ele>
        <time>2021-04-14T16:03:06Z</time>
      </trkpt>
      <trkpt lat="45.30775" lon="3.75059">
        <ele>932</ele>
        <time>2021-04-14T16:03:07Z</time>
      </trkpt>
      <trkpt lat="45.30772" lon="3.7506">
        <ele>932</ele>
        <time>2021-04-14T16:03:08Z</time>
      </trkpt>
      <trkpt lat="45.3077" lon="3.75061">
        <ele>933</ele>
        <time>2021-04-14T16:03:09Z</time>
      </trkpt>
      <trkpt lat="45.30768" lon="3.75062">
        <ele>933</ele>
        <time>2021-04-14T16:03:10Z</time>
      </trkpt>
      <trkpt lat="45.30766" lon="3.75063">
        <ele>933</ele>
        <time>2021-04-14T16:03:11Z</time>
      </trkpt>
      <trkpt lat="45.30765" lon="3.75064">
        <ele>933</ele>
        <time>2021-04-14T16:03:12Z</time>
      </trkpt>
      <trkpt lat="45.30763" lon="3.75066">
        <ele>933</ele>
        <time>2021-04-14T16:03:13Z</time>
      </trkpt>
      <trkpt lat="45.30761" lon="3.75067">
        <ele>934</ele>
        <time>2021-04-14T16:03:14Z</time>
      </trkpt>
      <trkpt lat="45.30758" lon="3.75069">
        <ele>934</ele>
        <time>2021-04-14T16:03:16Z</time>
      </trkpt>
      <trkpt lat="45.30755" lon="3.75072">
        <ele>934</ele>
        <time>2021-04-14T16:03:18Z</time>
      </trkpt>
      <trkpt lat="45.30747" lon="3.75078">
        <ele>935</ele>
        <time>2021-04-14T16:03:23Z</time>
      </trkpt>
      <trkpt lat="45.30744" lon="3.7508">
        <ele>935</ele>
        <time>2021-04-14T16:03:25Z</time>
      </trkpt>
      <trkpt lat="45.30742" lon="3.75082">
        <ele>935</ele>
        <time>2021-04-14T16:03:26Z</time>
      </trkpt>
      <trkpt lat="45.30741" lon="3.75083">
        <ele>935</ele>
        <time>2021-04-14T16:03:27Z</time>
      </trkpt>
      <trkpt lat="45.30739" lon="3.75085">
        <ele>936</ele>
        <time>2021-04-14T16:03:28Z</time>
      </trkpt>
      <trkpt lat="45.30738" lon="3.75087">
        <ele>936</ele>
        <time>2021-04-14T16:03:29Z</time>
      </trkpt>
      <trkpt lat="45.30736" lon="3.75088">
        <ele>936</ele>
        <time>2021-04-14T16:03:30Z</time>
      </trkpt>
      <trkpt lat="45.30734" lon="3.7509">
        <ele>936</ele>
        <time>2021-04-14T16:03:31Z</time>
      </trkpt>
      <trkpt lat="45.30732" lon="3.75091">
        <ele>937</ele>
        <time>2021-04-14T16:03:32Z</time>
      </trkpt>
      <trkpt lat="45.30728" lon="3.75094">
        <ele>937</ele>
        <time>2021-04-14T16:03:34Z</time>
      </trkpt>
      <trkpt lat="45.30724" lon="3.75096">
        <ele>937</ele>
        <time>2021-04-14T16:03:36Z</time>
      </trkpt>
      <trkpt lat="45.30722" lon="3.75097">
        <ele>938</ele>
        <time>2021-04-14T16:03:37Z</time>
      </trkpt>
      <trkpt lat="45.3072" lon="3.75098">
        <ele>938</ele>
        <time>2021-04-14T16:03:38Z</time>
      </trkpt>
      <trkpt lat="45.30718" lon="3.751">
        <ele>938</ele>
        <time>2021-04-14T16:03:39Z</time>
      </trkpt>
      <trkpt lat="45.30716" lon="3.75101">
        <ele>938</ele>
        <time>2021-04-14T16:03:40Z</time>
      </trkpt>
      <trkpt lat="45.30709" lon="3.7511">
        <ele>939</ele>
        <time>2021-04-14T16:03:44Z</time>
      </trkpt>
      <trkpt lat="45.30706" lon="3.75112">
        <ele>939</ele>
        <time>2021-04-14T16:03:45Z</time>
      </trkpt>
      <trkpt lat="45.30704" lon="3.75114">
        <ele>939</ele>
        <time>2021-04-14T16:03:46Z</time>
      </trkpt>
      <trkpt lat="45.30701" lon="3.75115">
        <ele>940</ele>
        <time>2021-04-14T16:03:47Z</time>
      </trkpt>
      <trkpt lat="45.307" lon="3.75117">
        <ele>940</ele>
        <time>2021-04-14T16:03:48Z</time>
      </trkpt>
      <trkpt lat="45.30698" lon="3.75118">
        <ele>940</ele>
        <time>2021-04-14T16:03:51Z</time>
      </trkpt>
      <trkpt lat="45.30695" lon="3.75121">
        <ele>941</ele>
        <time>2021-04-14T16:03:53Z</time>
      </trkpt>
      <trkpt lat="45.30693" lon="3.75125">
        <ele>942</ele>
        <time>2021-04-14T16:03:55Z</time>
      </trkpt>
      <trkpt lat="45.30691" lon="3.75127">
        <ele>942</ele>
        <time>2021-04-14T16:03:56Z</time>
      </trkpt>
      <trkpt lat="45.3069" lon="3.75129">
        <ele>942</ele>
        <time>2021-04-14T16:03:57Z</time>
      </trkpt>
      <trkpt lat="45.30689" lon="3.75131">
        <ele>942</ele>
        <time>2021-04-14T16:03:58Z</time>
      </trkpt>
      <trkpt lat="45.30687" lon="3.75133">
        <ele>942</ele>
        <time>2021-04-14T16:03:59Z</time>
      </trkpt>
      <trkpt lat="45.30686" lon="3.75136">
        <ele>942</ele>
        <time>2021-04-14T16:04:00Z</time>
      </trkpt>
      <trkpt lat="45.30684" lon="3.75139">
        <ele>942</ele>
        <time>2021-04-14T16:04:01Z</time>
      </trkpt>
      <trkpt lat="45.30682" lon="3.75143">
        <ele>942</ele>
        <time>2021-04-14T16:04:02Z</time>
      </trkpt>
      <trkpt lat="45.3068" lon="3.75147">
        <ele>942</ele>
        <time>2021-04-14T16:04:03Z</time>
      </trkpt>
      <trkpt lat="45.30679" lon="3.75149">
        <ele>942</ele>
        <time>2021-04-14T16:04:04Z</time>
      </trkpt>
      <trkpt lat="45.30677" lon="3.75152">
        <ele>942</ele>
        <time>2021-04-14T16:04:05Z</time>
      </trkpt>
      <trkpt lat="45.30676" lon="3.75155">
        <ele>942</ele>
        <time>2021-04-14T16:04:06Z</time>
      </trkpt>
      <trkpt lat="45.30674" lon="3.75157">
        <ele>942</ele>
        <time>2021-04-14T16:04:07Z</time>
      </trkpt>
      <trkpt lat="45.30672" lon="3.7516">
        <ele>943</ele>
        <time>2021-04-14T16:04:08Z</time>
      </trkpt>
      <trkpt lat="45.3067" lon="3.75163">
        <ele>944</ele>
        <time>2021-04-14T16:04:09Z</time>
      </trkpt>
      <trkpt lat="45.30669" lon="3.75166">
        <ele>944</ele>
        <time>2021-04-14T16:04:10Z</time>
      </trkpt>
      <trkpt lat="45.30667" lon="3.75168">
        <ele>944</ele>
        <time>2021-04-14T16:04:11Z</time>
      </trkpt>
      <trkpt lat="45.30665" lon="3.7517">
        <ele>945</ele>
        <time>2021-04-14T16:04:12Z</time>
      </trkpt>
      <trkpt lat="45.30663" lon="3.75173">
        <ele>945</ele>
        <time>2021-04-14T16:04:13Z</time>
      </trkpt>
      <trkpt lat="45.30661" lon="3.75176">
        <ele>945</ele>
        <time>2021-04-14T16:04:14Z</time>
      </trkpt>
      <trkpt lat="45.30659" lon="3.75178">
        <ele>946</ele>
        <time>2021-04-14T16:04:15Z</time>
      </trkpt>
      <trkpt lat="45.30656" lon="3.75181">
        <ele>946</ele>
        <time>2021-04-14T16:04:16Z</time>
      </trkpt>
      <trkpt lat="45.30654" lon="3.75183">
        <ele>946</ele>
        <time>2021-04-14T16:04:17Z</time>
      </trkpt>
      <trkpt lat="45.30652" lon="3.75186">
        <ele>946</ele>
        <time>2021-04-14T16:04:18Z</time>
      </trkpt>
      <trkpt lat="45.3065" lon="3.75188">
        <ele>947</ele>
        <time>2021-04-14T16:04:19Z</time>
      </trkpt>
      <trkpt lat="45.30648" lon="3.7519">
        <ele>947</ele>
        <time>2021-04-14T16:04:20Z</time>
      </trkpt>
      <trkpt lat="45.30646" lon="3.75192">
        <ele>947</ele>
        <time>2021-04-14T16:04:21Z</time>
      </trkpt>
      <trkpt lat="45.30643" lon="3.75194">
        <ele>948</ele>
        <time>2021-04-14T16:04:22Z</time>
      </trkpt>
      <trkpt lat="45.3064" lon="3.75196">
        <ele>948</ele>
        <time>2021-04-14T16:04:23Z</time>
      </trkpt>
      <trkpt lat="45.30637" lon="3.75198">
        <ele>948</ele>
        <time>2021-04-14T16:04:24Z</time>
      </trkpt>
      <trkpt lat="45.30635" lon="3.75199">
        <ele>949</ele>
        <time>2021-04-14T16:04:25Z</time>
      </trkpt>
      <trkpt lat="45.30632" lon="3.752">
        <ele>949</ele>
        <time>2021-04-14T16:04:26Z</time>
      </trkpt>
      <trkpt lat="45.3063" lon="3.75201">
        <ele>949</ele>
        <time>2021-04-14T16:04:27Z</time>
      </trkpt>
      <trkpt lat="45.30628" lon="3.75202">
        <ele>949</ele>
        <time>2021-04-14T16:04:28Z</time>
      </trkpt>
      <trkpt lat="45.30625" lon="3.75202">
        <ele>950</ele>
        <time>2021-04-14T16:04:29Z</time>
      </trkpt>
      <trkpt lat="45.30623" lon="3.75203">
        <ele>950</ele>
        <time>2021-04-14T16:04:30Z</time>
      </trkpt>
      <trkpt lat="45.30621" lon="3.75204">
        <ele>950</ele>
        <time>2021-04-14T16:04:31Z</time>
      </trkpt>
      <trkpt lat="45.30619" lon="3.75205">
        <ele>951</ele>
        <time>2021-04-14T16:04:32Z</time>
      </trkpt>
      <trkpt lat="45.30617" lon="3.75204">
        <ele>951</ele>
        <time>2021-04-14T16:04:33Z</time>
      </trkpt>
      <trkpt lat="45.30614" lon="3.75204">
        <ele>952</ele>
        <time>2021-04-14T16:04:34Z</time>
      </trkpt>
      <trkpt lat="45.30611" lon="3.75204">
        <ele>952</ele>
        <time>2021-04-14T16:04:35Z</time>
      </trkpt>
      <trkpt lat="45.30608" lon="3.75204">
        <ele>952</ele>
        <time>2021-04-14T16:04:36Z</time>
      </trkpt>
      <trkpt lat="45.30605" lon="3.75204">
        <ele>953</ele>
        <time>2021-04-14T16:04:37Z</time>
      </trkpt>
      <trkpt lat="45.30601" lon="3.75204">
        <ele>953</ele>
        <time>2021-04-14T16:04:38Z</time>
      </trkpt>
      <trkpt lat="45.30598" lon="3.75204">
        <ele>953</ele>
        <time>2021-04-14T16:04:39Z</time>
      </trkpt>
      <trkpt lat="45.30595" lon="3.75204">
        <ele>953</ele>
        <time>2021-04-14T16:04:40Z</time>
      </trkpt>
      <trkpt lat="45.30592" lon="3.75205">
        <ele>953</ele>
        <time>2021-04-14T16:04:41Z</time>
      </trkpt>
      <trkpt lat="45.30589" lon="3.75205">
        <ele>953</ele>
        <time>2021-04-14T16:04:42Z</time>
      </trkpt>
      <trkpt lat="45.30586" lon="3.75206">
        <ele>953</ele>
        <time>2021-04-14T16:04:43Z</time>
      </trkpt>
      <trkpt lat="45.30583" lon="3.75207">
        <ele>953</ele>
        <time>2021-04-14T16:04:44Z</time>
      </trkpt>
      <trkpt lat="45.30581" lon="3.75206">
        <ele>954</ele>
        <time>2021-04-14T16:04:45Z</time>
      </trkpt>
      <trkpt lat="45.30578" lon="3.75206">
        <ele>954</ele>
        <time>2021-04-14T16:04:46Z</time>
      </trkpt>
      <trkpt lat="45.30575" lon="3.75205">
        <ele>954</ele>
        <time>2021-04-14T16:04:47Z</time>
      </trkpt>
      <trkpt lat="45.30572" lon="3.75204">
        <ele>955</ele>
        <time>2021-04-14T16:04:48Z</time>
      </trkpt>
      <trkpt lat="45.30569" lon="3.75204">
        <ele>955</ele>
        <time>2021-04-14T16:04:49Z</time>
      </trkpt>
      <trkpt lat="45.30567" lon="3.75203">
        <ele>955</ele>
        <time>2021-04-14T16:04:50Z</time>
      </trkpt>
      <trkpt lat="45.30564" lon="3.75203">
        <ele>955</ele>
        <time>2021-04-14T16:04:51Z</time>
      </trkpt>
      <trkpt lat="45.30561" lon="3.75203">
        <ele>955</ele>
        <time>2021-04-14T16:04:52Z</time>
      </trkpt>
      <trkpt lat="45.30558" lon="3.75203">
        <ele>955</ele>
        <time>2021-04-14T16:04:53Z</time>
      </trkpt>
      <trkpt lat="45.30556" lon="3.75204">
        <ele>955</ele>
        <time>2021-04-14T16:04:54Z</time>
      </trkpt>
      <trkpt lat="45.30554" lon="3.75204">
        <ele>955</ele>
        <time>2021-04-14T16:04:55Z</time>
      </trkpt>
      <trkpt lat="45.30551" lon="3.75204">
        <ele>955</ele>
        <time>2021-04-14T16:04:56Z</time>
      </trkpt>
      <trkpt lat="45.30548" lon="3.75205">
        <ele>955</ele>
        <time>2021-04-14T16:04:57Z</time>
      </trkpt>
      <trkpt lat="45.30546" lon="3.75206">
        <ele>955</ele>
        <time>2021-04-14T16:04:58Z</time>
      </trkpt>
      <trkpt lat="45.30544" lon="3.75206">
        <ele>956</ele>
        <time>2021-04-14T16:04:59Z</time>
      </trkpt>
      <trkpt lat="45.30541" lon="3.75207">
        <ele>956</ele>
        <time>2021-04-14T16:05:00Z</time>
      </trkpt>
      <trkpt lat="45.30539" lon="3.75208">
        <ele>956</ele>
        <time>2021-04-14T16:05:01Z</time>
      </trkpt>
      <trkpt lat="45.30536" lon="3.75209">
        <ele>956</ele>
        <time>2021-04-14T16:05:02Z</time>
      </trkpt>
      <trkpt lat="45.30533" lon="3.75209">
        <ele>956</ele>
        <time>2021-04-14T16:05:03Z</time>
      </trkpt>
      <trkpt lat="45.30531" lon="3.75211">
        <ele>956</ele>
        <time>2021-04-14T16:05:04Z</time>
      </trkpt>
      <trkpt lat="45.30528" lon="3.75212">
        <ele>956</ele>
        <time>2021-04-14T16:05:05Z</time>
      </trkpt>
      <trkpt lat="45.30526" lon="3.75213">
        <ele>956</ele>
        <time>2021-04-14T16:05:06Z</time>
      </trkpt>
      <trkpt lat="45.30524" lon="3.75215">
        <ele>957</ele>
        <time>2021-04-14T16:05:07Z</time>
      </trkpt>
      <trkpt lat="45.30521" lon="3.75217">
        <ele>957</ele>
        <time>2021-04-14T16:05:08Z</time>
      </trkpt>
      <trkpt lat="45.30519" lon="3.75218">
        <ele>957</ele>
        <time>2021-04-14T16:05:09Z</time>
      </trkpt>
      <trkpt lat="45.30517" lon="3.7522">
        <ele>957</ele>
        <time>2021-04-14T16:05:10Z</time>
      </trkpt>
      <trkpt lat="45.30514" lon="3.75221">
        <ele>957</ele>
        <time>2021-04-14T16:05:11Z</time>
      </trkpt>
      <trkpt lat="45.30512" lon="3.75222">
        <ele>957</ele>
        <time>2021-04-14T16:05:12Z</time>
      </trkpt>
      <trkpt lat="45.3051" lon="3.75223">
        <ele>957</ele>
        <time>2021-04-14T16:05:13Z</time>
      </trkpt>
      <trkpt lat="45.30508" lon="3.75224">
        <ele>957</ele>
        <time>2021-04-14T16:05:14Z</time>
      </trkpt>
      <trkpt lat="45.30506" lon="3.75226">
        <ele>957</ele>
        <time>2021-04-14T16:05:15Z</time>
      </trkpt>
      <trkpt lat="45.30503" lon="3.75227">
        <ele>957</ele>
        <time>2021-04-14T16:05:16Z</time>
      </trkpt>
      <trkpt lat="45.30501" lon="3.75228">
        <ele>957</ele>
        <time>2021-04-14T16:05:17Z</time>
      </trkpt>
      <trkpt lat="45.30499" lon="3.7523">
        <ele>957</ele>
        <time>2021-04-14T16:05:18Z</time>
      </trkpt>
      <trkpt lat="45.30497" lon="3.75231">
        <ele>957</ele>
        <time>2021-04-14T16:05:19Z</time>
      </trkpt>
      <trkpt lat="45.30495" lon="3.75232">
        <ele>958</ele>
        <time>2021-04-14T16:05:20Z</time>
      </trkpt>
      <trkpt lat="45.30493" lon="3.75234">
        <ele>958</ele>
        <time>2021-04-14T16:05:21Z</time>
      </trkpt>
      <trkpt lat="45.30491" lon="3.75235">
        <ele>958</ele>
        <time>2021-04-14T16:05:22Z</time>
      </trkpt>
      <trkpt lat="45.30489" lon="3.75236">
        <ele>958</ele>
        <time>2021-04-14T16:05:23Z</time>
      </trkpt>
      <trkpt lat="45.30487" lon="3.75237">
        <ele>958</ele>
        <time>2021-04-14T16:05:24Z</time>
      </trkpt>
      <trkpt lat="45.30485" lon="3.75238">
        <ele>958</ele>
        <time>2021-04-14T16:05:25Z</time>
      </trkpt>
      <trkpt lat="45.30483" lon="3.75239">
        <ele>958</ele>
        <time>2021-04-14T16:05:26Z</time>
      </trkpt>
      <trkpt lat="45.3048" lon="3.75239">
        <ele>959</ele>
        <time>2021-04-14T16:05:27Z</time>
      </trkpt>
      <trkpt lat="45.30478" lon="3.7524">
        <ele>959</ele>
        <time>2021-04-14T16:05:28Z</time>
      </trkpt>
      <trkpt lat="45.30476" lon="3.75241">
        <ele>959</ele>
        <time>2021-04-14T16:05:29Z</time>
      </trkpt>
      <trkpt lat="45.30474" lon="3.75243">
        <ele>959</ele>
        <time>2021-04-14T16:05:30Z</time>
      </trkpt>
      <trkpt lat="45.30472" lon="3.75243">
        <ele>960</ele>
        <time>2021-04-14T16:05:31Z</time>
      </trkpt>
      <trkpt lat="45.3047" lon="3.75244">
        <ele>960</ele>
        <time>2021-04-14T16:05:32Z</time>
      </trkpt>
      <trkpt lat="45.30468" lon="3.75245">
        <ele>960</ele>
        <time>2021-04-14T16:05:33Z</time>
      </trkpt>
      <trkpt lat="45.30466" lon="3.75246">
        <ele>960</ele>
        <time>2021-04-14T16:05:34Z</time>
      </trkpt>
      <trkpt lat="45.30464" lon="3.75247">
        <ele>960</ele>
        <time>2021-04-14T16:05:35Z</time>
      </trkpt>
      <trkpt lat="45.3046" lon="3.75247">
        <ele>961</ele>
        <time>2021-04-14T16:05:37Z</time>
      </trkpt>
      <trkpt lat="45.30458" lon="3.75247">
        <ele>961</ele>
        <time>2021-04-14T16:05:38Z</time>
      </trkpt>
      <trkpt lat="45.30456" lon="3.75247">
        <ele>962</ele>
        <time>2021-04-14T16:05:39Z</time>
      </trkpt>
      <trkpt lat="45.30455" lon="3.75247">
        <ele>962</ele>
        <time>2021-04-14T16:05:40Z</time>
      </trkpt>
      <trkpt lat="45.30452" lon="3.75247">
        <ele>962</ele>
        <time>2021-04-14T16:05:41Z</time>
      </trkpt>
      <trkpt lat="45.3045" lon="3.75247">
        <ele>962</ele>
        <time>2021-04-14T16:05:42Z</time>
      </trkpt>
      <trkpt lat="45.30448" lon="3.75247">
        <ele>963</ele>
        <time>2021-04-14T16:05:43Z</time>
      </trkpt>
      <trkpt lat="45.30446" lon="3.75247">
        <ele>963</ele>
        <time>2021-04-14T16:05:44Z</time>
      </trkpt>
      <trkpt lat="45.30444" lon="3.75248">
        <ele>963</ele>
        <time>2021-04-14T16:05:45Z</time>
      </trkpt>
      <trkpt lat="45.30442" lon="3.75248">
        <ele>963</ele>
        <time>2021-04-14T16:05:46Z</time>
      </trkpt>
      <trkpt lat="45.30438" lon="3.75247">
        <ele>964</ele>
        <time>2021-04-14T16:05:48Z</time>
      </trkpt>
      <trkpt lat="45.30436" lon="3.75247">
        <ele>965</ele>
        <time>2021-04-14T16:05:49Z</time>
      </trkpt>
      <trkpt lat="45.30434" lon="3.75247">
        <ele>965</ele>
        <time>2021-04-14T16:05:50Z</time>
      </trkpt>
      <trkpt lat="45.30432" lon="3.75246">
        <ele>966</ele>
        <time>2021-04-14T16:05:51Z</time>
      </trkpt>
      <trkpt lat="45.3043" lon="3.75246">
        <ele>966</ele>
        <time>2021-04-14T16:05:52Z</time>
      </trkpt>
      <trkpt lat="45.30428" lon="3.75246">
        <ele>966</ele>
        <time>2021-04-14T16:05:53Z</time>
      </trkpt>
      <trkpt lat="45.30426" lon="3.75245">
        <ele>966</ele>
        <time>2021-04-14T16:05:54Z</time>
      </trkpt>
      <trkpt lat="45.30424" lon="3.75244">
        <ele>967</ele>
        <time>2021-04-14T16:05:55Z</time>
      </trkpt>
      <trkpt lat="45.30421" lon="3.75242">
        <ele>968</ele>
        <time>2021-04-14T16:05:56Z</time>
      </trkpt>
      <trkpt lat="45.30418" lon="3.75241">
        <ele>968</ele>
        <time>2021-04-14T16:05:57Z</time>
      </trkpt>
      <trkpt lat="45.30415" lon="3.75239">
        <ele>968</ele>
        <time>2021-04-14T16:05:58Z</time>
      </trkpt>
      <trkpt lat="45.30413" lon="3.75237">
        <ele>968</ele>
        <time>2021-04-14T16:05:59Z</time>
      </trkpt>
      <trkpt lat="45.30411" lon="3.75237">
        <ele>969</ele>
        <time>2021-04-14T16:06:00Z</time>
      </trkpt>
      <trkpt lat="45.30408" lon="3.75235">
        <ele>969</ele>
        <time>2021-04-14T16:06:02Z</time>
      </trkpt>
      <trkpt lat="45.30406" lon="3.75234">
        <ele>970</ele>
        <time>2021-04-14T16:06:03Z</time>
      </trkpt>
      <trkpt lat="45.30402" lon="3.75232">
        <ele>970</ele>
        <time>2021-04-14T16:06:05Z</time>
      </trkpt>
      <trkpt lat="45.30399" lon="3.75232">
        <ele>971</ele>
        <time>2021-04-14T16:06:06Z</time>
      </trkpt>
      <trkpt lat="45.3039" lon="3.75231">
        <ele>972</ele>
        <time>2021-04-14T16:06:09Z</time>
      </trkpt>
      <trkpt lat="45.30381" lon="3.75231">
        <ele>973</ele>
        <time>2021-04-14T16:06:12Z</time>
      </trkpt>
      <trkpt lat="45.30379" lon="3.75231">
        <ele>973</ele>
        <time>2021-04-14T16:06:13Z</time>
      </trkpt>
      <trkpt lat="45.30377" lon="3.75231">
        <ele>973</ele>
        <time>2021-04-14T16:06:14Z</time>
      </trkpt>
      <trkpt lat="45.30375" lon="3.7523">
        <ele>974</ele>
        <time>2021-04-14T16:06:15Z</time>
      </trkpt>
      <trkpt lat="45.30373" lon="3.7523">
        <ele>974</ele>
        <time>2021-04-14T16:06:16Z</time>
      </trkpt>
      <trkpt lat="45.3037" lon="3.75229">
        <ele>974</ele>
        <time>2021-04-14T16:06:17Z</time>
      </trkpt>
      <trkpt lat="45.30368" lon="3.75229">
        <ele>974</ele>
        <time>2021-04-14T16:06:18Z</time>
      </trkpt>
      <trkpt lat="45.30366" lon="3.75228">
        <ele>975</ele>
        <time>2021-04-14T16:06:19Z</time>
      </trkpt>
      <trkpt lat="45.30364" lon="3.75228">
        <ele>975</ele>
        <time>2021-04-14T16:06:20Z</time>
      </trkpt>
      <trkpt lat="45.30363" lon="3.75228">
        <ele>975</ele>
        <time>2021-04-14T16:06:21Z</time>
      </trkpt>
      <trkpt lat="45.30359" lon="3.75227">
        <ele>976</ele>
        <time>2021-04-14T16:06:23Z</time>
      </trkpt>
      <trkpt lat="45.30356" lon="3.75226">
        <ele>977</ele>
        <time>2021-04-14T16:06:25Z</time>
      </trkpt>
      <trkpt lat="45.30352" lon="3.75226">
        <ele>977</ele>
        <time>2021-04-14T16:06:27Z</time>
      </trkpt>
      <trkpt lat="45.3035" lon="3.75226">
        <ele>978</ele>
        <time>2021-04-14T16:06:28Z</time>
      </trkpt>
      <trkpt lat="45.30348" lon="3.75226">
        <ele>978</ele>
        <time>2021-04-14T16:06:29Z</time>
      </trkpt>
      <trkpt lat="45.30345" lon="3.75226">
        <ele>978</ele>
        <time>2021-04-14T16:06:30Z</time>
      </trkpt>
      <trkpt lat="45.30342" lon="3.75226">
        <ele>978</ele>
        <time>2021-04-14T16:06:31Z</time>
      </trkpt>
      <trkpt lat="45.3033" lon="3.75224">
        <ele>979</ele>
        <time>2021-04-14T16:06:34Z</time>
      </trkpt>
      <trkpt lat="45.30327" lon="3.75224">
        <ele>979</ele>
        <time>2021-04-14T16:06:35Z</time>
      </trkpt>
      <trkpt lat="45.30324" lon="3.75224">
        <ele>979</ele>
        <time>2021-04-14T16:06:36Z</time>
      </trkpt>
      <trkpt lat="45.30322" lon="3.75224">
        <ele>979</ele>
        <time>2021-04-14T16:06:37Z</time>
      </trkpt>
      <trkpt lat="45.30318" lon="3.75224">
        <ele>980</ele>
        <time>2021-04-14T16:06:39Z</time>
      </trkpt>
      <trkpt lat="45.30315" lon="3.75224">
        <ele>981</ele>
        <time>2021-04-14T16:06:40Z</time>
      </trkpt>
      <trkpt lat="45.30313" lon="3.75224">
        <ele>981</ele>
        <time>2021-04-14T16:06:41Z</time>
      </trkpt>
      <trkpt lat="45.3031" lon="3.75223">
        <ele>981</ele>
        <time>2021-04-14T16:06:42Z</time>
      </trkpt>
      <trkpt lat="45.30307" lon="3.75223">
        <ele>982</ele>
        <time>2021-04-14T16:06:43Z</time>
      </trkpt>
      <trkpt lat="45.30305" lon="3.75223">
        <ele>982</ele>
        <time>2021-04-14T16:06:44Z</time>
      </trkpt>
      <trkpt lat="45.30303" lon="3.75223">
        <ele>982</ele>
        <time>2021-04-14T16:06:45Z</time>
      </trkpt>
      <trkpt lat="45.303" lon="3.75223">
        <ele>983</ele>
        <time>2021-04-14T16:06:47Z</time>
      </trkpt>
      <trkpt lat="45.30296" lon="3.75222">
        <ele>984</ele>
        <time>2021-04-14T16:06:49Z</time>
      </trkpt>
      <trkpt lat="45.30294" lon="3.75223">
        <ele>984</ele>
        <time>2021-04-14T16:06:50Z</time>
      </trkpt>
      <trkpt lat="45.30291" lon="3.75224">
        <ele>985</ele>
        <time>2021-04-14T16:06:51Z</time>
      </trkpt>
      <trkpt lat="45.30289" lon="3.75224">
        <ele>985</ele>
        <time>2021-04-14T16:06:52Z</time>
      </trkpt>
      <trkpt lat="45.30286" lon="3.75225">
        <ele>985</ele>
        <time>2021-04-14T16:06:53Z</time>
      </trkpt>
      <trkpt lat="45.30283" lon="3.75225">
        <ele>986</ele>
        <time>2021-04-14T16:06:54Z</time>
      </trkpt>
      <trkpt lat="45.30281" lon="3.75225">
        <ele>986</ele>
        <time>2021-04-14T16:06:55Z</time>
      </trkpt>
      <trkpt lat="45.30277" lon="3.75226">
        <ele>986</ele>
        <time>2021-04-14T16:06:56Z</time>
      </trkpt>
      <trkpt lat="45.30274" lon="3.75226">
        <ele>986</ele>
        <time>2021-04-14T16:06:57Z</time>
      </trkpt>
      <trkpt lat="45.3027" lon="3.75227">
        <ele>986</ele>
        <time>2021-04-14T16:06:58Z</time>
      </trkpt>
      <trkpt lat="45.30267" lon="3.75227">
        <ele>987</ele>
        <time>2021-04-14T16:06:59Z</time>
      </trkpt>
      <trkpt lat="45.30264" lon="3.75228">
        <ele>987</ele>
        <time>2021-04-14T16:07:00Z</time>
      </trkpt>
      <trkpt lat="45.3026" lon="3.75228">
        <ele>987</ele>
        <time>2021-04-14T16:07:01Z</time>
      </trkpt>
      <trkpt lat="45.30257" lon="3.75228">
        <ele>987</ele>
        <time>2021-04-14T16:07:02Z</time>
      </trkpt>
      <trkpt lat="45.30253" lon="3.75228">
        <ele>987</ele>
        <time>2021-04-14T16:07:03Z</time>
      </trkpt>
      <trkpt lat="45.3025" lon="3.75227">
        <ele>988</ele>
        <time>2021-04-14T16:07:04Z</time>
      </trkpt>
      <trkpt lat="45.30246" lon="3.75227">
        <ele>988</ele>
        <time>2021-04-14T16:07:05Z</time>
      </trkpt>
      <trkpt lat="45.30243" lon="3.75227">
        <ele>988</ele>
        <time>2021-04-14T16:07:06Z</time>
      </trkpt>
      <trkpt lat="45.30239" lon="3.75227">
        <ele>988</ele>
        <time>2021-04-14T16:07:07Z</time>
      </trkpt>
      <trkpt lat="45.30236" lon="3.75227">
        <ele>988</ele>
        <time>2021-04-14T16:07:08Z</time>
      </trkpt>
      <trkpt lat="45.30232" lon="3.75227">
        <ele>989</ele>
        <time>2021-04-14T16:07:09Z</time>
      </trkpt>
      <trkpt lat="45.30229" lon="3.75228">
        <ele>989</ele>
        <time>2021-04-14T16:07:10Z</time>
      </trkpt>
      <trkpt lat="45.30226" lon="3.75228">
        <ele>989</ele>
        <time>2021-04-14T16:07:11Z</time>
      </trkpt>
      <trkpt lat="45.30223" lon="3.75228">
        <ele>989</ele>
        <time>2021-04-14T16:07:12Z</time>
      </trkpt>
      <trkpt lat="45.30219" lon="3.75229">
        <ele>989</ele>
        <time>2021-04-14T16:07:13Z</time>
      </trkpt>
      <trkpt lat="45.30216" lon="3.7523">
        <ele>989</ele>
        <time>2021-04-14T16:07:14Z</time>
      </trkpt>
      <trkpt lat="45.30213" lon="3.75231">
        <ele>989</ele>
        <time>2021-04-14T16:07:15Z</time>
      </trkpt>
      <trkpt lat="45.30209" lon="3.75232">
        <ele>989</ele>
        <time>2021-04-14T16:07:16Z</time>
      </trkpt>
      <trkpt lat="45.30206" lon="3.75233">
        <ele>989</ele>
        <time>2021-04-14T16:07:17Z</time>
      </trkpt>
      <trkpt lat="45.30203" lon="3.75233">
        <ele>989</ele>
        <time>2021-04-14T16:07:18Z</time>
      </trkpt>
      <trkpt lat="45.30201" lon="3.75233">
        <ele>990</ele>
        <time>2021-04-14T16:07:19Z</time>
      </trkpt>
      <trkpt lat="45.30198" lon="3.75233">
        <ele>990</ele>
        <time>2021-04-14T16:07:20Z</time>
      </trkpt>
      <trkpt lat="45.30195" lon="3.75233">
        <ele>990</ele>
        <time>2021-04-14T16:07:21Z</time>
      </trkpt>
      <trkpt lat="45.30192" lon="3.75235">
        <ele>990</ele>
        <time>2021-04-14T16:07:23Z</time>
      </trkpt>
      <trkpt lat="45.30192" lon="3.75238">
        <ele>991</ele>
        <time>2021-04-14T16:07:25Z</time>
      </trkpt>
      <trkpt lat="45.30192" lon="3.75241">
        <ele>990</ele>
        <time>2021-04-14T16:07:29Z</time>
      </trkpt>
      <trkpt lat="45.30192" lon="3.75241">
        <ele>990</ele>
        <time>2021-04-14T16:07:34Z</time>
      </trkpt>
      <trkpt lat="45.30186" lon="3.75244">
        <ele>992</ele>
        <time>2021-04-14T16:08:43Z</time>
      </trkpt>
      <trkpt lat="45.30184" lon="3.75243">
        <ele>993</ele>
        <time>2021-04-14T16:08:44Z</time>
      </trkpt>
      <trkpt lat="45.30181" lon="3.75242">
        <ele>993</ele>
        <time>2021-04-14T16:08:45Z</time>
      </trkpt>
      <trkpt lat="45.30179" lon="3.7524">
        <ele>993</ele>
        <time>2021-04-14T16:08:48Z</time>
      </trkpt>
      <trkpt lat="45.30176" lon="3.75241">
        <ele>995</ele>
        <time>2021-04-14T16:08:50Z</time>
      </trkpt>
      <trkpt lat="45.30174" lon="3.75241">
        <ele>996</ele>
        <time>2021-04-14T16:08:51Z</time>
      </trkpt>
      <trkpt lat="45.30172" lon="3.75241">
        <ele>996</ele>
        <time>2021-04-14T16:08:52Z</time>
      </trkpt>
      <trkpt lat="45.3017" lon="3.75241">
        <ele>996</ele>
        <time>2021-04-14T16:08:53Z</time>
      </trkpt>
      <trkpt lat="45.30167" lon="3.75242">
        <ele>996</ele>
        <time>2021-04-14T16:08:54Z</time>
      </trkpt>
      <trkpt lat="45.30164" lon="3.75243">
        <ele>996</ele>
        <time>2021-04-14T16:08:55Z</time>
      </trkpt>
      <trkpt lat="45.30161" lon="3.75243">
        <ele>997</ele>
        <time>2021-04-14T16:08:56Z</time>
      </trkpt>
      <trkpt lat="45.30158" lon="3.75243">
        <ele>997</ele>
        <time>2021-04-14T16:08:57Z</time>
      </trkpt>
      <trkpt lat="45.30155" lon="3.75243">
        <ele>997</ele>
        <time>2021-04-14T16:08:58Z</time>
      </trkpt>
      <trkpt lat="45.30153" lon="3.75243">
        <ele>997</ele>
        <time>2021-04-14T16:08:59Z</time>
      </trkpt>
      <trkpt lat="45.30149" lon="3.75244">
        <ele>998</ele>
        <time>2021-04-14T16:09:01Z</time>
      </trkpt>
      <trkpt lat="45.30147" lon="3.75245">
        <ele>998</ele>
        <time>2021-04-14T16:09:02Z</time>
      </trkpt>
      <trkpt lat="45.30145" lon="3.75245">
        <ele>998</ele>
        <time>2021-04-14T16:09:03Z</time>
      </trkpt>
      <trkpt lat="45.30142" lon="3.75245">
        <ele>998</ele>
        <time>2021-04-14T16:09:04Z</time>
      </trkpt>
      <trkpt lat="45.30139" lon="3.75245">
        <ele>998</ele>
        <time>2021-04-14T16:09:05Z</time>
      </trkpt>
      <trkpt lat="45.30136" lon="3.75244">
        <ele>998</ele>
        <time>2021-04-14T16:09:06Z</time>
      </trkpt>
      <trkpt lat="45.30134" lon="3.75244">
        <ele>999</ele>
        <time>2021-04-14T16:09:07Z</time>
      </trkpt>
      <trkpt lat="45.30132" lon="3.75244">
        <ele>999</ele>
        <time>2021-04-14T16:09:08Z</time>
      </trkpt>
      <trkpt lat="45.30129" lon="3.75245">
        <ele>999</ele>
        <time>2021-04-14T16:09:09Z</time>
      </trkpt>
      <trkpt lat="45.30127" lon="3.75246">
        <ele>1000</ele>
        <time>2021-04-14T16:09:10Z</time>
      </trkpt>
      <trkpt lat="45.30124" lon="3.75246">
        <ele>1000</ele>
        <time>2021-04-14T16:09:12Z</time>
      </trkpt>
      <trkpt lat="45.30121" lon="3.75248">
        <ele>1000</ele>
        <time>2021-04-14T16:09:14Z</time>
      </trkpt>
      <trkpt lat="45.30117" lon="3.75249">
        <ele>1001</ele>
        <time>2021-04-14T16:09:25Z</time>
      </trkpt>
      <trkpt lat="45.30114" lon="3.75251">
        <ele>1002</ele>
        <time>2021-04-14T16:09:26Z</time>
      </trkpt>
      <trkpt lat="45.30112" lon="3.75252">
        <ele>1002</ele>
        <time>2021-04-14T16:09:27Z</time>
      </trkpt>
      <trkpt lat="45.3011" lon="3.75253">
        <ele>1002</ele>
        <time>2021-04-14T16:09:30Z</time>
      </trkpt>
      <trkpt lat="45.30107" lon="3.75254">
        <ele>1003</ele>
        <time>2021-04-14T16:09:33Z</time>
      </trkpt>
      <trkpt lat="45.30105" lon="3.75254">
        <ele>1003</ele>
        <time>2021-04-14T16:09:35Z</time>
      </trkpt>
      <trkpt lat="45.30103" lon="3.75255">
        <ele>1003</ele>
        <time>2021-04-14T16:09:37Z</time>
      </trkpt>
      <trkpt lat="45.30099" lon="3.75255">
        <ele>1003</ele>
        <time>2021-04-14T16:09:39Z</time>
      </trkpt>
      <trkpt lat="45.30097" lon="3.75256">
        <ele>1003</ele>
        <time>2021-04-14T16:09:40Z</time>
      </trkpt>
      <trkpt lat="45.30095" lon="3.75257">
        <ele>1003</ele>
        <time>2021-04-14T16:09:41Z</time>
      </trkpt>
      <trkpt lat="45.30094" lon="3.75257">
        <ele>1003</ele>
        <time>2021-04-14T16:09:42Z</time>
      </trkpt>
      <trkpt lat="45.3009" lon="3.75258">
        <ele>1003</ele>
        <time>2021-04-14T16:09:44Z</time>
      </trkpt>
      <trkpt lat="45.30087" lon="3.7526">
        <ele>1004</ele>
        <time>2021-04-14T16:09:46Z</time>
      </trkpt>
      <trkpt lat="45.30085" lon="3.75261">
        <ele>1004</ele>
        <time>2021-04-14T16:09:47Z</time>
      </trkpt>
      <trkpt lat="45.30082" lon="3.75262">
        <ele>1005</ele>
        <time>2021-04-14T16:09:48Z</time>
      </trkpt>
      <trkpt lat="45.30081" lon="3.75264">
        <ele>1005</ele>
        <time>2021-04-14T16:09:49Z</time>
      </trkpt>
      <trkpt lat="45.30079" lon="3.75265">
        <ele>1005</ele>
        <time>2021-04-14T16:09:50Z</time>
      </trkpt>
      <trkpt lat="45.30077" lon="3.75266">
        <ele>1005</ele>
        <time>2021-04-14T16:09:51Z</time>
      </trkpt>
      <trkpt lat="45.30075" lon="3.75268">
        <ele>1004</ele>
        <time>2021-04-14T16:09:52Z</time>
      </trkpt>
      <trkpt lat="45.30072" lon="3.7527">
        <ele>1004</ele>
        <time>2021-04-14T16:09:53Z</time>
      </trkpt>
      <trkpt lat="45.3007" lon="3.75272">
        <ele>1004</ele>
        <time>2021-04-14T16:09:54Z</time>
      </trkpt>
      <trkpt lat="45.30068" lon="3.75274">
        <ele>1004</ele>
        <time>2021-04-14T16:09:55Z</time>
      </trkpt>
      <trkpt lat="45.30066" lon="3.75276">
        <ele>1004</ele>
        <time>2021-04-14T16:09:56Z</time>
      </trkpt>
      <trkpt lat="45.30065" lon="3.7528">
        <ele>1004</ele>
        <time>2021-04-14T16:09:57Z</time>
      </trkpt>
      <trkpt lat="45.30064" lon="3.75283">
        <ele>1004</ele>
        <time>2021-04-14T16:09:58Z</time>
      </trkpt>
      <trkpt lat="45.30063" lon="3.75286">
        <ele>1004</ele>
        <time>2021-04-14T16:09:59Z</time>
      </trkpt>
      <trkpt lat="45.30062" lon="3.75289">
        <ele>1004</ele>
        <time>2021-04-14T16:10:00Z</time>
      </trkpt>
      <trkpt lat="45.30061" lon="3.75292">
        <ele>1004</ele>
        <time>2021-04-14T16:10:01Z</time>
      </trkpt>
      <trkpt lat="45.30061" lon="3.75296">
        <ele>1004</ele>
        <time>2021-04-14T16:10:02Z</time>
      </trkpt>
      <trkpt lat="45.30061" lon="3.75299">
        <ele>1004</ele>
        <time>2021-04-14T16:10:03Z</time>
      </trkpt>
      <trkpt lat="45.30061" lon="3.75302">
        <ele>1004</ele>
        <time>2021-04-14T16:10:04Z</time>
      </trkpt>
      <trkpt lat="45.30061" lon="3.75305">
        <ele>1004</ele>
        <time>2021-04-14T16:10:05Z</time>
      </trkpt>
      <trkpt lat="45.3006" lon="3.75309">
        <ele>1004</ele>
        <time>2021-04-14T16:10:06Z</time>
      </trkpt>
      <trkpt lat="45.3006" lon="3.75312">
        <ele>1004</ele>
        <time>2021-04-14T16:10:07Z</time>
      </trkpt>
      <trkpt lat="45.3006" lon="3.75315">
        <ele>1004</ele>
        <time>2021-04-14T16:10:08Z</time>
      </trkpt>
      <trkpt lat="45.3006" lon="3.75318">
        <ele>1004</ele>
        <time>2021-04-14T16:10:09Z</time>
      </trkpt>
      <trkpt lat="45.30059" lon="3.7532">
        <ele>1005</ele>
        <time>2021-04-14T16:10:10Z</time>
      </trkpt>
      <trkpt lat="45.30058" lon="3.75325">
        <ele>1005</ele>
        <time>2021-04-14T16:10:12Z</time>
      </trkpt>
      <trkpt lat="45.30058" lon="3.75328">
        <ele>1005</ele>
        <time>2021-04-14T16:10:13Z</time>
      </trkpt>
      <trkpt lat="45.30057" lon="3.7533">
        <ele>1005</ele>
        <time>2021-04-14T16:10:14Z</time>
      </trkpt>
      <trkpt lat="45.30057" lon="3.75333">
        <ele>1006</ele>
        <time>2021-04-14T16:10:15Z</time>
      </trkpt>
      <trkpt lat="45.30057" lon="3.75336">
        <ele>1006</ele>
        <time>2021-04-14T16:10:16Z</time>
      </trkpt>
      <trkpt lat="45.30057" lon="3.75339">
        <ele>1006</ele>
        <time>2021-04-14T16:10:17Z</time>
      </trkpt>
      <trkpt lat="45.30057" lon="3.75342">
        <ele>1006</ele>
        <time>2021-04-14T16:10:18Z</time>
      </trkpt>
      <trkpt lat="45.30056" lon="3.75345">
        <ele>1006</ele>
        <time>2021-04-14T16:10:19Z</time>
      </trkpt>
      <trkpt lat="45.30056" lon="3.75348">
        <ele>1006</ele>
        <time>2021-04-14T16:10:20Z</time>
      </trkpt>
      <trkpt lat="45.30056" lon="3.75351">
        <ele>1006</ele>
        <time>2021-04-14T16:10:21Z</time>
      </trkpt>
      <trkpt lat="45.30055" lon="3.75354">
        <ele>1006</ele>
        <time>2021-04-14T16:10:22Z</time>
      </trkpt>
      <trkpt lat="45.30056" lon="3.75358">
        <ele>1007</ele>
        <time>2021-04-14T16:10:23Z</time>
      </trkpt>
      <trkpt lat="45.30056" lon="3.75362">
        <ele>1007</ele>
        <time>2021-04-14T16:10:24Z</time>
      </trkpt>
      <trkpt lat="45.30056" lon="3.75365">
        <ele>1007</ele>
        <time>2021-04-14T16:10:25Z</time>
      </trkpt>
      <trkpt lat="45.30056" lon="3.75369">
        <ele>1007</ele>
        <time>2021-04-14T16:10:26Z</time>
      </trkpt>
      <trkpt lat="45.30057" lon="3.75372">
        <ele>1008</ele>
        <time>2021-04-14T16:10:27Z</time>
      </trkpt>
      <trkpt lat="45.30057" lon="3.75375">
        <ele>1008</ele>
        <time>2021-04-14T16:10:28Z</time>
      </trkpt>
      <trkpt lat="45.30058" lon="3.75378">
        <ele>1008</ele>
        <time>2021-04-14T16:10:29Z</time>
      </trkpt>
      <trkpt lat="45.30059" lon="3.75381">
        <ele>1009</ele>
        <time>2021-04-14T16:10:30Z</time>
      </trkpt>
      <trkpt lat="45.3006" lon="3.75384">
        <ele>1009</ele>
        <time>2021-04-14T16:10:31Z</time>
      </trkpt>
      <trkpt lat="45.30061" lon="3.75386">
        <ele>1010</ele>
        <time>2021-04-14T16:10:32Z</time>
      </trkpt>
      <trkpt lat="45.30063" lon="3.75388">
        <ele>1010</ele>
        <time>2021-04-14T16:10:33Z</time>
      </trkpt>
      <trkpt lat="45.30064" lon="3.75391">
        <ele>1011</ele>
        <time>2021-04-14T16:10:34Z</time>
      </trkpt>
      <trkpt lat="45.30066" lon="3.75393">
        <ele>1011</ele>
        <time>2021-04-14T16:10:35Z</time>
      </trkpt>
      <trkpt lat="45.30067" lon="3.75395">
        <ele>1012</ele>
        <time>2021-04-14T16:10:36Z</time>
      </trkpt>
      <trkpt lat="45.30069" lon="3.75397">
        <ele>1012</ele>
        <time>2021-04-14T16:10:37Z</time>
      </trkpt>
      <trkpt lat="45.3007" lon="3.75399">
        <ele>1012</ele>
        <time>2021-04-14T16:10:38Z</time>
      </trkpt>
      <trkpt lat="45.30072" lon="3.75401">
        <ele>1013</ele>
        <time>2021-04-14T16:10:39Z</time>
      </trkpt>
      <trkpt lat="45.30074" lon="3.75403">
        <ele>1013</ele>
        <time>2021-04-14T16:10:40Z</time>
      </trkpt>
      <trkpt lat="45.30075" lon="3.75406">
        <ele>1013</ele>
        <time>2021-04-14T16:10:41Z</time>
      </trkpt>
      <trkpt lat="45.30077" lon="3.75408">
        <ele>1014</ele>
        <time>2021-04-14T16:10:42Z</time>
      </trkpt>
      <trkpt lat="45.30078" lon="3.7541">
        <ele>1014</ele>
        <time>2021-04-14T16:10:43Z</time>
      </trkpt>
      <trkpt lat="45.3008" lon="3.75412">
        <ele>1015</ele>
        <time>2021-04-14T16:10:44Z</time>
      </trkpt>
      <trkpt lat="45.30082" lon="3.75415">
        <ele>1015</ele>
        <time>2021-04-14T16:10:45Z</time>
      </trkpt>
      <trkpt lat="45.30083" lon="3.75417">
        <ele>1016</ele>
        <time>2021-04-14T16:10:46Z</time>
      </trkpt>
      <trkpt lat="45.30085" lon="3.7542">
        <ele>1016</ele>
        <time>2021-04-14T16:10:47Z</time>
      </trkpt>
      <trkpt lat="45.30086" lon="3.75422">
        <ele>1017</ele>
        <time>2021-04-14T16:10:48Z</time>
      </trkpt>
      <trkpt lat="45.30088" lon="3.75425">
        <ele>1017</ele>
        <time>2021-04-14T16:10:49Z</time>
      </trkpt>
      <trkpt lat="45.30089" lon="3.75427">
        <ele>1018</ele>
        <time>2021-04-14T16:10:50Z</time>
      </trkpt>
      <trkpt lat="45.30091" lon="3.7543">
        <ele>1018</ele>
        <time>2021-04-14T16:10:51Z</time>
      </trkpt>
      <trkpt lat="45.30092" lon="3.75432">
        <ele>1018</ele>
        <time>2021-04-14T16:10:52Z</time>
      </trkpt>
      <trkpt lat="45.30094" lon="3.75435">
        <ele>1019</ele>
        <time>2021-04-14T16:10:53Z</time>
      </trkpt>
      <trkpt lat="45.30096" lon="3.75437">
        <ele>1019</ele>
        <time>2021-04-14T16:10:54Z</time>
      </trkpt>
      <trkpt lat="45.30097" lon="3.7544">
        <ele>1019</ele>
        <time>2021-04-14T16:10:55Z</time>
      </trkpt>
      <trkpt lat="45.30099" lon="3.75442">
        <ele>1019</ele>
        <time>2021-04-14T16:10:56Z</time>
      </trkpt>
      <trkpt lat="45.30101" lon="3.75445">
        <ele>1019</ele>
        <time>2021-04-14T16:10:57Z</time>
      </trkpt>
      <trkpt lat="45.30104" lon="3.7545">
        <ele>1020</ele>
        <time>2021-04-14T16:10:58Z</time>
      </trkpt>
      <trkpt lat="45.30106" lon="3.75453">
        <ele>1020</ele>
        <time>2021-04-14T16:11:00Z</time>
      </trkpt>
      <trkpt lat="45.30107" lon="3.75456">
        <ele>1021</ele>
        <time>2021-04-14T16:11:01Z</time>
      </trkpt>
      <trkpt lat="45.30109" lon="3.75458">
        <ele>1022</ele>
        <time>2021-04-14T16:11:02Z</time>
      </trkpt>
      <trkpt lat="45.30111" lon="3.75461">
        <ele>1022</ele>
        <time>2021-04-14T16:11:03Z</time>
      </trkpt>
      <trkpt lat="45.30112" lon="3.75464">
        <ele>1022</ele>
        <time>2021-04-14T16:11:04Z</time>
      </trkpt>
      <trkpt lat="45.30114" lon="3.75467">
        <ele>1022</ele>
        <time>2021-04-14T16:11:05Z</time>
      </trkpt>
      <trkpt lat="45.30117" lon="3.7547">
        <ele>1023</ele>
        <time>2021-04-14T16:11:06Z</time>
      </trkpt>
      <trkpt lat="45.30118" lon="3.75472">
        <ele>1023</ele>
        <time>2021-04-14T16:11:07Z</time>
      </trkpt>
      <trkpt lat="45.3012" lon="3.75475">
        <ele>1023</ele>
        <time>2021-04-14T16:11:08Z</time>
      </trkpt>
      <trkpt lat="45.30122" lon="3.75477">
        <ele>1023</ele>
        <time>2021-04-14T16:11:09Z</time>
      </trkpt>
      <trkpt lat="45.30124" lon="3.7548">
        <ele>1023</ele>
        <time>2021-04-14T16:11:10Z</time>
      </trkpt>
      <trkpt lat="45.30126" lon="3.75482">
        <ele>1023</ele>
        <time>2021-04-14T16:11:11Z</time>
      </trkpt>
      <trkpt lat="45.30127" lon="3.75484">
        <ele>1024</ele>
        <time>2021-04-14T16:11:12Z</time>
      </trkpt>
      <trkpt lat="45.30129" lon="3.75487">
        <ele>1024</ele>
        <time>2021-04-14T16:11:13Z</time>
      </trkpt>
      <trkpt lat="45.30131" lon="3.75489">
        <ele>1025</ele>
        <time>2021-04-14T16:11:14Z</time>
      </trkpt>
      <trkpt lat="45.30132" lon="3.75492">
        <ele>1025</ele>
        <time>2021-04-14T16:11:15Z</time>
      </trkpt>
      <trkpt lat="45.30134" lon="3.75494">
        <ele>1025</ele>
        <time>2021-04-14T16:11:16Z</time>
      </trkpt>
      <trkpt lat="45.30136" lon="3.75497">
        <ele>1025</ele>
        <time>2021-04-14T16:11:17Z</time>
      </trkpt>
      <trkpt lat="45.30138" lon="3.75499">
        <ele>1026</ele>
        <time>2021-04-14T16:11:18Z</time>
      </trkpt>
      <trkpt lat="45.30139" lon="3.75502">
        <ele>1026</ele>
        <time>2021-04-14T16:11:19Z</time>
      </trkpt>
      <trkpt lat="45.30141" lon="3.75504">
        <ele>1027</ele>
        <time>2021-04-14T16:11:20Z</time>
      </trkpt>
      <trkpt lat="45.30143" lon="3.75507">
        <ele>1027</ele>
        <time>2021-04-14T16:11:21Z</time>
      </trkpt>
      <trkpt lat="45.30144" lon="3.75509">
        <ele>1028</ele>
        <time>2021-04-14T16:11:22Z</time>
      </trkpt>
      <trkpt lat="45.30146" lon="3.75512">
        <ele>1028</ele>
        <time>2021-04-14T16:11:23Z</time>
      </trkpt>
      <trkpt lat="45.30148" lon="3.75514">
        <ele>1028</ele>
        <time>2021-04-14T16:11:24Z</time>
      </trkpt>
      <trkpt lat="45.30149" lon="3.75517">
        <ele>1028</ele>
        <time>2021-04-14T16:11:25Z</time>
      </trkpt>
      <trkpt lat="45.30151" lon="3.75519">
        <ele>1029</ele>
        <time>2021-04-14T16:11:26Z</time>
      </trkpt>
      <trkpt lat="45.30153" lon="3.75522">
        <ele>1029</ele>
        <time>2021-04-14T16:11:27Z</time>
      </trkpt>
      <trkpt lat="45.30155" lon="3.75525">
        <ele>1029</ele>
        <time>2021-04-14T16:11:28Z</time>
      </trkpt>
      <trkpt lat="45.30157" lon="3.75528">
        <ele>1029</ele>
        <time>2021-04-14T16:11:29Z</time>
      </trkpt>
      <trkpt lat="45.30159" lon="3.7553">
        <ele>1030</ele>
        <time>2021-04-14T16:11:30Z</time>
      </trkpt>
      <trkpt lat="45.3016" lon="3.75533">
        <ele>1030</ele>
        <time>2021-04-14T16:11:31Z</time>
      </trkpt>
      <trkpt lat="45.30162" lon="3.75535">
        <ele>1030</ele>
        <time>2021-04-14T16:11:32Z</time>
      </trkpt>
      <trkpt lat="45.30164" lon="3.75538">
        <ele>1030</ele>
        <time>2021-04-14T16:11:33Z</time>
      </trkpt>
      <trkpt lat="45.30166" lon="3.75541">
        <ele>1031</ele>
        <time>2021-04-14T16:11:34Z</time>
      </trkpt>
      <trkpt lat="45.30167" lon="3.75543">
        <ele>1031</ele>
        <time>2021-04-14T16:11:35Z</time>
      </trkpt>
      <trkpt lat="45.30169" lon="3.75545">
        <ele>1031</ele>
        <time>2021-04-14T16:11:36Z</time>
      </trkpt>
      <trkpt lat="45.30171" lon="3.75548">
        <ele>1031</ele>
        <time>2021-04-14T16:11:37Z</time>
      </trkpt>
      <trkpt lat="45.30173" lon="3.75551">
        <ele>1032</ele>
        <time>2021-04-14T16:11:38Z</time>
      </trkpt>
      <trkpt lat="45.30175" lon="3.75553">
        <ele>1032</ele>
        <time>2021-04-14T16:11:39Z</time>
      </trkpt>
      <trkpt lat="45.30176" lon="3.75555">
        <ele>1032</ele>
        <time>2021-04-14T16:11:40Z</time>
      </trkpt>
      <trkpt lat="45.30178" lon="3.75558">
        <ele>1032</ele>
        <time>2021-04-14T16:11:41Z</time>
      </trkpt>
      <trkpt lat="45.3018" lon="3.7556">
        <ele>1033</ele>
        <time>2021-04-14T16:11:42Z</time>
      </trkpt>
      <trkpt lat="45.30182" lon="3.75562">
        <ele>1033</ele>
        <time>2021-04-14T16:11:43Z</time>
      </trkpt>
      <trkpt lat="45.30184" lon="3.75565">
        <ele>1033</ele>
        <time>2021-04-14T16:11:44Z</time>
      </trkpt>
      <trkpt lat="45.30186" lon="3.75567">
        <ele>1033</ele>
        <time>2021-04-14T16:11:45Z</time>
      </trkpt>
      <trkpt lat="45.30188" lon="3.75569">
        <ele>1033</ele>
        <time>2021-04-14T16:11:46Z</time>
      </trkpt>
      <trkpt lat="45.3019" lon="3.75572">
        <ele>1033</ele>
        <time>2021-04-14T16:11:47Z</time>
      </trkpt>
      <trkpt lat="45.30191" lon="3.75574">
        <ele>1033</ele>
        <time>2021-04-14T16:11:48Z</time>
      </trkpt>
      <trkpt lat="45.30193" lon="3.75577">
        <ele>1033</ele>
        <time>2021-04-14T16:11:49Z</time>
      </trkpt>
      <trkpt lat="45.30195" lon="3.75579">
        <ele>1034</ele>
        <time>2021-04-14T16:11:50Z</time>
      </trkpt>
      <trkpt lat="45.30197" lon="3.75581">
        <ele>1034</ele>
        <time>2021-04-14T16:11:51Z</time>
      </trkpt>
      <trkpt lat="45.30198" lon="3.75583">
        <ele>1034</ele>
        <time>2021-04-14T16:11:52Z</time>
      </trkpt>
      <trkpt lat="45.302" lon="3.75585">
        <ele>1034</ele>
        <time>2021-04-14T16:11:53Z</time>
      </trkpt>
      <trkpt lat="45.30202" lon="3.75587">
        <ele>1034</ele>
        <time>2021-04-14T16:11:54Z</time>
      </trkpt>
      <trkpt lat="45.30204" lon="3.7559">
        <ele>1035</ele>
        <time>2021-04-14T16:11:55Z</time>
      </trkpt>
      <trkpt lat="45.30206" lon="3.75592">
        <ele>1035</ele>
        <time>2021-04-14T16:11:56Z</time>
      </trkpt>
      <trkpt lat="45.30209" lon="3.75594">
        <ele>1035</ele>
        <time>2021-04-14T16:11:57Z</time>
      </trkpt>
      <trkpt lat="45.30211" lon="3.75596">
        <ele>1035</ele>
        <time>2021-04-14T16:11:58Z</time>
      </trkpt>
      <trkpt lat="45.30213" lon="3.75598">
        <ele>1035</ele>
        <time>2021-04-14T16:11:59Z</time>
      </trkpt>
      <trkpt lat="45.30215" lon="3.756">
        <ele>1035</ele>
        <time>2021-04-14T16:12:00Z</time>
      </trkpt>
      <trkpt lat="45.30217" lon="3.75602">
        <ele>1036</ele>
        <time>2021-04-14T16:12:01Z</time>
      </trkpt>
      <trkpt lat="45.30219" lon="3.75604">
        <ele>1036</ele>
        <time>2021-04-14T16:12:02Z</time>
      </trkpt>
      <trkpt lat="45.30222" lon="3.75606">
        <ele>1036</ele>
        <time>2021-04-14T16:12:03Z</time>
      </trkpt>
      <trkpt lat="45.30224" lon="3.75609">
        <ele>1036</ele>
        <time>2021-04-14T16:12:04Z</time>
      </trkpt>
      <trkpt lat="45.30225" lon="3.75611">
        <ele>1036</ele>
        <time>2021-04-14T16:12:05Z</time>
      </trkpt>
      <trkpt lat="45.30227" lon="3.75614">
        <ele>1037</ele>
        <time>2021-04-14T16:12:06Z</time>
      </trkpt>
      <trkpt lat="45.30229" lon="3.75617">
        <ele>1037</ele>
        <time>2021-04-14T16:12:07Z</time>
      </trkpt>
      <trkpt lat="45.30231" lon="3.75621">
        <ele>1037</ele>
        <time>2021-04-14T16:12:08Z</time>
      </trkpt>
      <trkpt lat="45.30231" lon="3.75625">
        <ele>1037</ele>
        <time>2021-04-14T16:12:09Z</time>
      </trkpt>
      <trkpt lat="45.30232" lon="3.75629">
        <ele>1037</ele>
        <time>2021-04-14T16:12:10Z</time>
      </trkpt>
      <trkpt lat="45.30232" lon="3.75633">
        <ele>1037</ele>
        <time>2021-04-14T16:12:11Z</time>
      </trkpt>
      <trkpt lat="45.30232" lon="3.75638">
        <ele>1037</ele>
        <time>2021-04-14T16:12:12Z</time>
      </trkpt>
      <trkpt lat="45.30233" lon="3.75642">
        <ele>1037</ele>
        <time>2021-04-14T16:12:13Z</time>
      </trkpt>
      <trkpt lat="45.30233" lon="3.75647">
        <ele>1037</ele>
        <time>2021-04-14T16:12:14Z</time>
      </trkpt>
      <trkpt lat="45.30233" lon="3.75653">
        <ele>1038</ele>
        <time>2021-04-14T16:12:15Z</time>
      </trkpt>
      <trkpt lat="45.30234" lon="3.75658">
        <ele>1038</ele>
        <time>2021-04-14T16:12:16Z</time>
      </trkpt>
      <trkpt lat="45.30234" lon="3.75663">
        <ele>1038</ele>
        <time>2021-04-14T16:12:17Z</time>
      </trkpt>
      <trkpt lat="45.30234" lon="3.75667">
        <ele>1038</ele>
        <time>2021-04-14T16:12:18Z</time>
      </trkpt>
      <trkpt lat="45.30235" lon="3.75672">
        <ele>1038</ele>
        <time>2021-04-14T16:12:19Z</time>
      </trkpt>
      <trkpt lat="45.30235" lon="3.75676">
        <ele>1038</ele>
        <time>2021-04-14T16:12:20Z</time>
      </trkpt>
      <trkpt lat="45.30236" lon="3.75681">
        <ele>1038</ele>
        <time>2021-04-14T16:12:21Z</time>
      </trkpt>
      <trkpt lat="45.30237" lon="3.75685">
        <ele>1038</ele>
        <time>2021-04-14T16:12:22Z</time>
      </trkpt>
      <trkpt lat="45.30238" lon="3.75688">
        <ele>1038</ele>
        <time>2021-04-14T16:12:23Z</time>
      </trkpt>
      <trkpt lat="45.30239" lon="3.75692">
        <ele>1038</ele>
        <time>2021-04-14T16:12:24Z</time>
      </trkpt>
      <trkpt lat="45.30241" lon="3.75696">
        <ele>1038</ele>
        <time>2021-04-14T16:12:25Z</time>
      </trkpt>
      <trkpt lat="45.30242" lon="3.757">
        <ele>1038</ele>
        <time>2021-04-14T16:12:26Z</time>
      </trkpt>
      <trkpt lat="45.30243" lon="3.75705">
        <ele>1038</ele>
        <time>2021-04-14T16:12:27Z</time>
      </trkpt>
      <trkpt lat="45.30244" lon="3.75711">
        <ele>1038</ele>
        <time>2021-04-14T16:12:28Z</time>
      </trkpt>
      <trkpt lat="45.30246" lon="3.75717">
        <ele>1038</ele>
        <time>2021-04-14T16:12:29Z</time>
      </trkpt>
      <trkpt lat="45.30248" lon="3.75724">
        <ele>1038</ele>
        <time>2021-04-14T16:12:30Z</time>
      </trkpt>
      <trkpt lat="45.30249" lon="3.7573">
        <ele>1038</ele>
        <time>2021-04-14T16:12:31Z</time>
      </trkpt>
      <trkpt lat="45.3025" lon="3.75737">
        <ele>1038</ele>
        <time>2021-04-14T16:12:32Z</time>
      </trkpt>
      <trkpt lat="45.30251" lon="3.75744">
        <ele>1038</ele>
        <time>2021-04-14T16:12:33Z</time>
      </trkpt>
      <trkpt lat="45.30252" lon="3.7575">
        <ele>1038</ele>
        <time>2021-04-14T16:12:34Z</time>
      </trkpt>
      <trkpt lat="45.30254" lon="3.75757">
        <ele>1038</ele>
        <time>2021-04-14T16:12:35Z</time>
      </trkpt>
      <trkpt lat="45.30256" lon="3.75764">
        <ele>1038</ele>
        <time>2021-04-14T16:12:36Z</time>
      </trkpt>
      <trkpt lat="45.30256" lon="3.75772">
        <ele>1038</ele>
        <time>2021-04-14T16:12:37Z</time>
      </trkpt>
      <trkpt lat="45.30257" lon="3.75779">
        <ele>1038</ele>
        <time>2021-04-14T16:12:38Z</time>
      </trkpt>
      <trkpt lat="45.30257" lon="3.75785">
        <ele>1038</ele>
        <time>2021-04-14T16:12:39Z</time>
      </trkpt>
      <trkpt lat="45.30257" lon="3.75791">
        <ele>1038</ele>
        <time>2021-04-14T16:12:40Z</time>
      </trkpt>
      <trkpt lat="45.30258" lon="3.75797">
        <ele>1038</ele>
        <time>2021-04-14T16:12:41Z</time>
      </trkpt>
      <trkpt lat="45.30258" lon="3.75802">
        <ele>1038</ele>
        <time>2021-04-14T16:12:42Z</time>
      </trkpt>
      <trkpt lat="45.30259" lon="3.75807">
        <ele>1038</ele>
        <time>2021-04-14T16:12:43Z</time>
      </trkpt>
      <trkpt lat="45.30261" lon="3.75812">
        <ele>1038</ele>
        <time>2021-04-14T16:12:44Z</time>
      </trkpt>
      <trkpt lat="45.30261" lon="3.75817">
        <ele>1038</ele>
        <time>2021-04-14T16:12:45Z</time>
      </trkpt>
      <trkpt lat="45.30261" lon="3.75821">
        <ele>1039</ele>
        <time>2021-04-14T16:12:46Z</time>
      </trkpt>
      <trkpt lat="45.30261" lon="3.75826">
        <ele>1039</ele>
        <time>2021-04-14T16:12:47Z</time>
      </trkpt>
      <trkpt lat="45.3026" lon="3.7583">
        <ele>1039</ele>
        <time>2021-04-14T16:12:48Z</time>
      </trkpt>
      <trkpt lat="45.30258" lon="3.75834">
        <ele>1039</ele>
        <time>2021-04-14T16:12:49Z</time>
      </trkpt>
      <trkpt lat="45.30257" lon="3.75838">
        <ele>1040</ele>
        <time>2021-04-14T16:12:50Z</time>
      </trkpt>
      <trkpt lat="45.30256" lon="3.75842">
        <ele>1040</ele>
        <time>2021-04-14T16:12:51Z</time>
      </trkpt>
      <trkpt lat="45.30254" lon="3.75847">
        <ele>1040</ele>
        <time>2021-04-14T16:12:52Z</time>
      </trkpt>
      <trkpt lat="45.30252" lon="3.75851">
        <ele>1040</ele>
        <time>2021-04-14T16:12:53Z</time>
      </trkpt>
      <trkpt lat="45.3025" lon="3.75854">
        <ele>1040</ele>
        <time>2021-04-14T16:12:54Z</time>
      </trkpt>
      <trkpt lat="45.30248" lon="3.75858">
        <ele>1040</ele>
        <time>2021-04-14T16:12:55Z</time>
      </trkpt>
      <trkpt lat="45.30245" lon="3.75862">
        <ele>1041</ele>
        <time>2021-04-14T16:12:56Z</time>
      </trkpt>
      <trkpt lat="45.30243" lon="3.75866">
        <ele>1041</ele>
        <time>2021-04-14T16:12:57Z</time>
      </trkpt>
      <trkpt lat="45.30241" lon="3.75869">
        <ele>1041</ele>
        <time>2021-04-14T16:12:58Z</time>
      </trkpt>
      <trkpt lat="45.30239" lon="3.75873">
        <ele>1041</ele>
        <time>2021-04-14T16:12:59Z</time>
      </trkpt>
      <trkpt lat="45.30236" lon="3.75877">
        <ele>1041</ele>
        <time>2021-04-14T16:13:00Z</time>
      </trkpt>
      <trkpt lat="45.30234" lon="3.7588">
        <ele>1041</ele>
        <time>2021-04-14T16:13:01Z</time>
      </trkpt>
      <trkpt lat="45.30231" lon="3.75884">
        <ele>1042</ele>
        <time>2021-04-14T16:13:02Z</time>
      </trkpt>
      <trkpt lat="45.30229" lon="3.75887">
        <ele>1042</ele>
        <time>2021-04-14T16:13:03Z</time>
      </trkpt>
      <trkpt lat="45.30226" lon="3.75891">
        <ele>1042</ele>
        <time>2021-04-14T16:13:04Z</time>
      </trkpt>
      <trkpt lat="45.30223" lon="3.75894">
        <ele>1042</ele>
        <time>2021-04-14T16:13:05Z</time>
      </trkpt>
      <trkpt lat="45.30221" lon="3.75897">
        <ele>1042</ele>
        <time>2021-04-14T16:13:06Z</time>
      </trkpt>
      <trkpt lat="45.30219" lon="3.759">
        <ele>1042</ele>
        <time>2021-04-14T16:13:07Z</time>
      </trkpt>
      <trkpt lat="45.30217" lon="3.75903">
        <ele>1042</ele>
        <time>2021-04-14T16:13:08Z</time>
      </trkpt>
      <trkpt lat="45.30215" lon="3.75904">
        <ele>1042</ele>
        <time>2021-04-14T16:13:09Z</time>
      </trkpt>
      <trkpt lat="45.30213" lon="3.75906">
        <ele>1041</ele>
        <time>2021-04-14T16:13:10Z</time>
      </trkpt>
      <trkpt lat="45.30211" lon="3.75909">
        <ele>1042</ele>
        <time>2021-04-14T16:13:12Z</time>
      </trkpt>
      <trkpt lat="45.30209" lon="3.75912">
        <ele>1043</ele>
        <time>2021-04-14T16:13:14Z</time>
      </trkpt>
      <trkpt lat="45.30208" lon="3.75916">
        <ele>1043</ele>
        <time>2021-04-14T16:13:16Z</time>
      </trkpt>
      <trkpt lat="45.30207" lon="3.75919">
        <ele>1043</ele>
        <time>2021-04-14T16:13:18Z</time>
      </trkpt>
      <trkpt lat="45.30206" lon="3.75921">
        <ele>1043</ele>
        <time>2021-04-14T16:13:20Z</time>
      </trkpt>
      <trkpt lat="45.30203" lon="3.75923">
        <ele>1043</ele>
        <time>2021-04-14T16:13:23Z</time>
      </trkpt>
      <trkpt lat="45.302" lon="3.75923">
        <ele>1043</ele>
        <time>2021-04-14T16:13:25Z</time>
      </trkpt>
      <trkpt lat="45.30196" lon="3.75923">
        <ele>1043</ele>
        <time>2021-04-14T16:13:27Z</time>
      </trkpt>
      <trkpt lat="45.30195" lon="3.75923">
        <ele>1043</ele>
        <time>2021-04-14T16:13:28Z</time>
      </trkpt>
      <trkpt lat="45.30193" lon="3.75923">
        <ele>1043</ele>
        <time>2021-04-14T16:13:29Z</time>
      </trkpt>
      <trkpt lat="45.3019" lon="3.75925">
        <ele>1043</ele>
        <time>2021-04-14T16:13:31Z</time>
      </trkpt>
      <trkpt lat="45.30189" lon="3.75927">
        <ele>1043</ele>
        <time>2021-04-14T16:13:33Z</time>
      </trkpt>
      <trkpt lat="45.30187" lon="3.75927">
        <ele>1043</ele>
        <time>2021-04-14T16:13:37Z</time>
      </trkpt>
      <trkpt lat="45.30185" lon="3.75927">
        <ele>1043</ele>
        <time>2021-04-14T16:13:38Z</time>
      </trkpt>
      <trkpt lat="45.30182" lon="3.75928">
        <ele>1044</ele>
        <time>2021-04-14T16:13:39Z</time>
      </trkpt>
      <trkpt lat="45.3018" lon="3.75928">
        <ele>1044</ele>
        <time>2021-04-14T16:13:40Z</time>
      </trkpt>
      <trkpt lat="45.30177" lon="3.75929">
        <ele>1044</ele>
        <time>2021-04-14T16:13:41Z</time>
      </trkpt>
      <trkpt lat="45.30173" lon="3.75929">
        <ele>1044</ele>
        <time>2021-04-14T16:13:42Z</time>
      </trkpt>
      <trkpt lat="45.3017" lon="3.7593">
        <ele>1043</ele>
        <time>2021-04-14T16:13:43Z</time>
      </trkpt>
      <trkpt lat="45.30167" lon="3.75931">
        <ele>1044</ele>
        <time>2021-04-14T16:13:44Z</time>
      </trkpt>
      <trkpt lat="45.30164" lon="3.75932">
        <ele>1044</ele>
        <time>2021-04-14T16:13:45Z</time>
      </trkpt>
      <trkpt lat="45.30161" lon="3.75933">
        <ele>1044</ele>
        <time>2021-04-14T16:13:46Z</time>
      </trkpt>
      <trkpt lat="45.30157" lon="3.75934">
        <ele>1044</ele>
        <time>2021-04-14T16:13:47Z</time>
      </trkpt>
      <trkpt lat="45.30154" lon="3.75936">
        <ele>1044</ele>
        <time>2021-04-14T16:13:48Z</time>
      </trkpt>
      <trkpt lat="45.30151" lon="3.75937">
        <ele>1044</ele>
        <time>2021-04-14T16:13:49Z</time>
      </trkpt>
      <trkpt lat="45.30148" lon="3.75938">
        <ele>1044</ele>
        <time>2021-04-14T16:13:50Z</time>
      </trkpt>
      <trkpt lat="45.30145" lon="3.7594">
        <ele>1044</ele>
        <time>2021-04-14T16:13:51Z</time>
      </trkpt>
      <trkpt lat="45.30142" lon="3.75941">
        <ele>1044</ele>
        <time>2021-04-14T16:13:52Z</time>
      </trkpt>
      <trkpt lat="45.30138" lon="3.75943">
        <ele>1044</ele>
        <time>2021-04-14T16:13:53Z</time>
      </trkpt>
      <trkpt lat="45.30135" lon="3.75944">
        <ele>1044</ele>
        <time>2021-04-14T16:13:54Z</time>
      </trkpt>
      <trkpt lat="45.30132" lon="3.75946">
        <ele>1044</ele>
        <time>2021-04-14T16:13:55Z</time>
      </trkpt>
      <trkpt lat="45.30128" lon="3.75947">
        <ele>1044</ele>
        <time>2021-04-14T16:13:56Z</time>
      </trkpt>
      <trkpt lat="45.30125" lon="3.75948">
        <ele>1044</ele>
        <time>2021-04-14T16:13:57Z</time>
      </trkpt>
      <trkpt lat="45.30119" lon="3.75951">
        <ele>1043</ele>
        <time>2021-04-14T16:13:58Z</time>
      </trkpt>
      <trkpt lat="45.30115" lon="3.75953">
        <ele>1043</ele>
        <time>2021-04-14T16:14:00Z</time>
      </trkpt>
      <trkpt lat="45.30112" lon="3.75954">
        <ele>1043</ele>
        <time>2021-04-14T16:14:01Z</time>
      </trkpt>
      <trkpt lat="45.30108" lon="3.75955">
        <ele>1043</ele>
        <time>2021-04-14T16:14:02Z</time>
      </trkpt>
      <trkpt lat="45.30105" lon="3.75957">
        <ele>1043</ele>
        <time>2021-04-14T16:14:03Z</time>
      </trkpt>
      <trkpt lat="45.30101" lon="3.75958">
        <ele>1043</ele>
        <time>2021-04-14T16:14:04Z</time>
      </trkpt>
      <trkpt lat="45.30098" lon="3.75959">
        <ele>1043</ele>
        <time>2021-04-14T16:14:05Z</time>
      </trkpt>
      <trkpt lat="45.30094" lon="3.75961">
        <ele>1043</ele>
        <time>2021-04-14T16:14:06Z</time>
      </trkpt>
      <trkpt lat="45.30091" lon="3.75962">
        <ele>1043</ele>
        <time>2021-04-14T16:14:07Z</time>
      </trkpt>
      <trkpt lat="45.30087" lon="3.75963">
        <ele>1042</ele>
        <time>2021-04-14T16:14:08Z</time>
      </trkpt>
      <trkpt lat="45.30084" lon="3.75965">
        <ele>1042</ele>
        <time>2021-04-14T16:14:09Z</time>
      </trkpt>
      <trkpt lat="45.3008" lon="3.75967">
        <ele>1042</ele>
        <time>2021-04-14T16:14:10Z</time>
      </trkpt>
      <trkpt lat="45.30077" lon="3.75968">
        <ele>1042</ele>
        <time>2021-04-14T16:14:11Z</time>
      </trkpt>
      <trkpt lat="45.30074" lon="3.7597">
        <ele>1042</ele>
        <time>2021-04-14T16:14:12Z</time>
      </trkpt>
      <trkpt lat="45.3007" lon="3.75971">
        <ele>1042</ele>
        <time>2021-04-14T16:14:13Z</time>
      </trkpt>
      <trkpt lat="45.30067" lon="3.75973">
        <ele>1042</ele>
        <time>2021-04-14T16:14:14Z</time>
      </trkpt>
      <trkpt lat="45.30063" lon="3.75974">
        <ele>1042</ele>
        <time>2021-04-14T16:14:15Z</time>
      </trkpt>
      <trkpt lat="45.3006" lon="3.75976">
        <ele>1043</ele>
        <time>2021-04-14T16:14:16Z</time>
      </trkpt>
      <trkpt lat="45.30057" lon="3.75978">
        <ele>1043</ele>
        <time>2021-04-14T16:14:17Z</time>
      </trkpt>
      <trkpt lat="45.30053" lon="3.7598">
        <ele>1043</ele>
        <time>2021-04-14T16:14:18Z</time>
      </trkpt>
      <trkpt lat="45.3005" lon="3.75982">
        <ele>1043</ele>
        <time>2021-04-14T16:14:19Z</time>
      </trkpt>
      <trkpt lat="45.30047" lon="3.75984">
        <ele>1043</ele>
        <time>2021-04-14T16:14:20Z</time>
      </trkpt>
      <trkpt lat="45.30044" lon="3.75985">
        <ele>1043</ele>
        <time>2021-04-14T16:14:21Z</time>
      </trkpt>
      <trkpt lat="45.30041" lon="3.75987">
        <ele>1044</ele>
        <time>2021-04-14T16:14:22Z</time>
      </trkpt>
      <trkpt lat="45.30038" lon="3.75988">
        <ele>1044</ele>
        <time>2021-04-14T16:14:23Z</time>
      </trkpt>
      <trkpt lat="45.30035" lon="3.7599">
        <ele>1044</ele>
        <time>2021-04-14T16:14:24Z</time>
      </trkpt>
      <trkpt lat="45.30032" lon="3.75991">
        <ele>1044</ele>
        <time>2021-04-14T16:14:25Z</time>
      </trkpt>
      <trkpt lat="45.30029" lon="3.75992">
        <ele>1044</ele>
        <time>2021-04-14T16:14:26Z</time>
      </trkpt>
      <trkpt lat="45.30026" lon="3.75993">
        <ele>1044</ele>
        <time>2021-04-14T16:14:27Z</time>
      </trkpt>
      <trkpt lat="45.30023" lon="3.75994">
        <ele>1044</ele>
        <time>2021-04-14T16:14:28Z</time>
      </trkpt>
      <trkpt lat="45.3002" lon="3.75994">
        <ele>1044</ele>
        <time>2021-04-14T16:14:29Z</time>
      </trkpt>
      <trkpt lat="45.30017" lon="3.75995">
        <ele>1044</ele>
        <time>2021-04-14T16:14:30Z</time>
      </trkpt>
      <trkpt lat="45.30014" lon="3.75995">
        <ele>1045</ele>
        <time>2021-04-14T16:14:31Z</time>
      </trkpt>
      <trkpt lat="45.30011" lon="3.75996">
        <ele>1045</ele>
        <time>2021-04-14T16:14:32Z</time>
      </trkpt>
      <trkpt lat="45.30009" lon="3.75996">
        <ele>1045</ele>
        <time>2021-04-14T16:14:33Z</time>
      </trkpt>
      <trkpt lat="45.30007" lon="3.75996">
        <ele>1045</ele>
        <time>2021-04-14T16:14:34Z</time>
      </trkpt>
      <trkpt lat="45.30005" lon="3.75996">
        <ele>1045</ele>
        <time>2021-04-14T16:14:35Z</time>
      </trkpt>
      <trkpt lat="45.30003" lon="3.75996">
        <ele>1046</ele>
        <time>2021-04-14T16:14:36Z</time>
      </trkpt>
      <trkpt lat="45.3" lon="3.75997">
        <ele>1046</ele>
        <time>2021-04-14T16:14:37Z</time>
      </trkpt>
      <trkpt lat="45.29998" lon="3.75997">
        <ele>1046</ele>
        <time>2021-04-14T16:14:38Z</time>
      </trkpt>
      <trkpt lat="45.29996" lon="3.75998">
        <ele>1046</ele>
        <time>2021-04-14T16:14:39Z</time>
      </trkpt>
      <trkpt lat="45.29993" lon="3.75999">
        <ele>1046</ele>
        <time>2021-04-14T16:14:40Z</time>
      </trkpt>
      <trkpt lat="45.2999" lon="3.75999">
        <ele>1046</ele>
        <time>2021-04-14T16:14:41Z</time>
      </trkpt>
      <trkpt lat="45.29987" lon="3.76">
        <ele>1046</ele>
        <time>2021-04-14T16:14:42Z</time>
      </trkpt>
      <trkpt lat="45.29984" lon="3.76">
        <ele>1046</ele>
        <time>2021-04-14T16:14:43Z</time>
      </trkpt>
      <trkpt lat="45.29981" lon="3.76001">
        <ele>1046</ele>
        <time>2021-04-14T16:14:44Z</time>
      </trkpt>
      <trkpt lat="45.29977" lon="3.76002">
        <ele>1046</ele>
        <time>2021-04-14T16:14:45Z</time>
      </trkpt>
      <trkpt lat="45.29974" lon="3.76003">
        <ele>1046</ele>
        <time>2021-04-14T16:14:46Z</time>
      </trkpt>
      <trkpt lat="45.29971" lon="3.76003">
        <ele>1047</ele>
        <time>2021-04-14T16:14:47Z</time>
      </trkpt>
      <trkpt lat="45.29968" lon="3.76004">
        <ele>1047</ele>
        <time>2021-04-14T16:14:48Z</time>
      </trkpt>
      <trkpt lat="45.29964" lon="3.76005">
        <ele>1047</ele>
        <time>2021-04-14T16:14:49Z</time>
      </trkpt>
      <trkpt lat="45.29961" lon="3.76005">
        <ele>1047</ele>
        <time>2021-04-14T16:14:50Z</time>
      </trkpt>
      <trkpt lat="45.29958" lon="3.76006">
        <ele>1047</ele>
        <time>2021-04-14T16:14:51Z</time>
      </trkpt>
      <trkpt lat="45.29954" lon="3.76007">
        <ele>1048</ele>
        <time>2021-04-14T16:14:52Z</time>
      </trkpt>
      <trkpt lat="45.29951" lon="3.76008">
        <ele>1048</ele>
        <time>2021-04-14T16:14:53Z</time>
      </trkpt>
      <trkpt lat="45.29948" lon="3.76008">
        <ele>1048</ele>
        <time>2021-04-14T16:14:54Z</time>
      </trkpt>
      <trkpt lat="45.29945" lon="3.76009">
        <ele>1048</ele>
        <time>2021-04-14T16:14:55Z</time>
      </trkpt>
      <trkpt lat="45.29941" lon="3.7601">
        <ele>1049</ele>
        <time>2021-04-14T16:14:56Z</time>
      </trkpt>
      <trkpt lat="45.29938" lon="3.7601">
        <ele>1049</ele>
        <time>2021-04-14T16:14:57Z</time>
      </trkpt>
      <trkpt lat="45.29935" lon="3.76011">
        <ele>1049</ele>
        <time>2021-04-14T16:14:58Z</time>
      </trkpt>
      <trkpt lat="45.29932" lon="3.76012">
        <ele>1049</ele>
        <time>2021-04-14T16:14:59Z</time>
      </trkpt>
      <trkpt lat="45.29928" lon="3.76013">
        <ele>1049</ele>
        <time>2021-04-14T16:15:00Z</time>
      </trkpt>
      <trkpt lat="45.29925" lon="3.76013">
        <ele>1049</ele>
        <time>2021-04-14T16:15:01Z</time>
      </trkpt>
      <trkpt lat="45.29921" lon="3.76014">
        <ele>1049</ele>
        <time>2021-04-14T16:15:02Z</time>
      </trkpt>
      <trkpt lat="45.29918" lon="3.76015">
        <ele>1049</ele>
        <time>2021-04-14T16:15:03Z</time>
      </trkpt>
      <trkpt lat="45.29915" lon="3.76016">
        <ele>1050</ele>
        <time>2021-04-14T16:15:04Z</time>
      </trkpt>
      <trkpt lat="45.29911" lon="3.76016">
        <ele>1050</ele>
        <time>2021-04-14T16:15:05Z</time>
      </trkpt>
      <trkpt lat="45.29908" lon="3.76017">
        <ele>1050</ele>
        <time>2021-04-14T16:15:06Z</time>
      </trkpt>
      <trkpt lat="45.29904" lon="3.76017">
        <ele>1050</ele>
        <time>2021-04-14T16:15:07Z</time>
      </trkpt>
      <trkpt lat="45.29901" lon="3.76018">
        <ele>1050</ele>
        <time>2021-04-14T16:15:08Z</time>
      </trkpt>
      <trkpt lat="45.29898" lon="3.76019">
        <ele>1050</ele>
        <time>2021-04-14T16:15:09Z</time>
      </trkpt>
      <trkpt lat="45.29894" lon="3.76019">
        <ele>1051</ele>
        <time>2021-04-14T16:15:10Z</time>
      </trkpt>
      <trkpt lat="45.29891" lon="3.76019">
        <ele>1051</ele>
        <time>2021-04-14T16:15:11Z</time>
      </trkpt>
      <trkpt lat="45.29888" lon="3.7602">
        <ele>1051</ele>
        <time>2021-04-14T16:15:12Z</time>
      </trkpt>
      <trkpt lat="45.29884" lon="3.7602">
        <ele>1051</ele>
        <time>2021-04-14T16:15:13Z</time>
      </trkpt>
      <trkpt lat="45.2988" lon="3.7602">
        <ele>1051</ele>
        <time>2021-04-14T16:15:14Z</time>
      </trkpt>
      <trkpt lat="45.29877" lon="3.7602">
        <ele>1051</ele>
        <time>2021-04-14T16:15:15Z</time>
      </trkpt>
      <trkpt lat="45.29873" lon="3.7602">
        <ele>1052</ele>
        <time>2021-04-14T16:15:16Z</time>
      </trkpt>
      <trkpt lat="45.2987" lon="3.7602">
        <ele>1052</ele>
        <time>2021-04-14T16:15:17Z</time>
      </trkpt>
      <trkpt lat="45.29867" lon="3.76021">
        <ele>1052</ele>
        <time>2021-04-14T16:15:18Z</time>
      </trkpt>
      <trkpt lat="45.29863" lon="3.76021">
        <ele>1052</ele>
        <time>2021-04-14T16:15:19Z</time>
      </trkpt>
      <trkpt lat="45.29859" lon="3.76022">
        <ele>1052</ele>
        <time>2021-04-14T16:15:20Z</time>
      </trkpt>
      <trkpt lat="45.29855" lon="3.76022">
        <ele>1052</ele>
        <time>2021-04-14T16:15:21Z</time>
      </trkpt>
      <trkpt lat="45.29851" lon="3.76022">
        <ele>1052</ele>
        <time>2021-04-14T16:15:22Z</time>
      </trkpt>
      <trkpt lat="45.29847" lon="3.76022">
        <ele>1053</ele>
        <time>2021-04-14T16:15:23Z</time>
      </trkpt>
      <trkpt lat="45.29843" lon="3.76023">
        <ele>1053</ele>
        <time>2021-04-14T16:15:24Z</time>
      </trkpt>
      <trkpt lat="45.29839" lon="3.76023">
        <ele>1053</ele>
        <time>2021-04-14T16:15:25Z</time>
      </trkpt>
      <trkpt lat="45.29835" lon="3.76024">
        <ele>1053</ele>
        <time>2021-04-14T16:15:26Z</time>
      </trkpt>
      <trkpt lat="45.29831" lon="3.76024">
        <ele>1053</ele>
        <time>2021-04-14T16:15:27Z</time>
      </trkpt>
      <trkpt lat="45.29827" lon="3.76025">
        <ele>1054</ele>
        <time>2021-04-14T16:15:28Z</time>
      </trkpt>
      <trkpt lat="45.29822" lon="3.76026">
        <ele>1054</ele>
        <time>2021-04-14T16:15:29Z</time>
      </trkpt>
      <trkpt lat="45.29818" lon="3.76027">
        <ele>1054</ele>
        <time>2021-04-14T16:15:30Z</time>
      </trkpt>
      <trkpt lat="45.29814" lon="3.76028">
        <ele>1054</ele>
        <time>2021-04-14T16:15:31Z</time>
      </trkpt>
      <trkpt lat="45.2981" lon="3.76029">
        <ele>1054</ele>
        <time>2021-04-14T16:15:32Z</time>
      </trkpt>
      <trkpt lat="45.29806" lon="3.7603">
        <ele>1055</ele>
        <time>2021-04-14T16:15:33Z</time>
      </trkpt>
      <trkpt lat="45.29802" lon="3.76031">
        <ele>1055</ele>
        <time>2021-04-14T16:15:34Z</time>
      </trkpt>
      <trkpt lat="45.29798" lon="3.76032">
        <ele>1055</ele>
        <time>2021-04-14T16:15:35Z</time>
      </trkpt>
      <trkpt lat="45.29794" lon="3.76033">
        <ele>1055</ele>
        <time>2021-04-14T16:15:36Z</time>
      </trkpt>
      <trkpt lat="45.2979" lon="3.76033">
        <ele>1055</ele>
        <time>2021-04-14T16:15:37Z</time>
      </trkpt>
      <trkpt lat="45.29786" lon="3.76034">
        <ele>1056</ele>
        <time>2021-04-14T16:15:38Z</time>
      </trkpt>
      <trkpt lat="45.29783" lon="3.76035">
        <ele>1056</ele>
        <time>2021-04-14T16:15:39Z</time>
      </trkpt>
      <trkpt lat="45.29779" lon="3.76036">
        <ele>1056</ele>
        <time>2021-04-14T16:15:40Z</time>
      </trkpt>
      <trkpt lat="45.29775" lon="3.76037">
        <ele>1056</ele>
        <time>2021-04-14T16:15:41Z</time>
      </trkpt>
      <trkpt lat="45.2977" lon="3.76038">
        <ele>1056</ele>
        <time>2021-04-14T16:15:42Z</time>
      </trkpt>
      <trkpt lat="45.29766" lon="3.76039">
        <ele>1056</ele>
        <time>2021-04-14T16:15:43Z</time>
      </trkpt>
      <trkpt lat="45.29761" lon="3.7604">
        <ele>1056</ele>
        <time>2021-04-14T16:15:44Z</time>
      </trkpt>
      <trkpt lat="45.29757" lon="3.76041">
        <ele>1056</ele>
        <time>2021-04-14T16:15:45Z</time>
      </trkpt>
      <trkpt lat="45.29752" lon="3.76043">
        <ele>1056</ele>
        <time>2021-04-14T16:15:46Z</time>
      </trkpt>
      <trkpt lat="45.29748" lon="3.76045">
        <ele>1056</ele>
        <time>2021-04-14T16:15:47Z</time>
      </trkpt>
      <trkpt lat="45.29744" lon="3.76047">
        <ele>1056</ele>
        <time>2021-04-14T16:15:48Z</time>
      </trkpt>
      <trkpt lat="45.2974" lon="3.76049">
        <ele>1056</ele>
        <time>2021-04-14T16:15:49Z</time>
      </trkpt>
      <trkpt lat="45.29736" lon="3.76051">
        <ele>1056</ele>
        <time>2021-04-14T16:15:50Z</time>
      </trkpt>
      <trkpt lat="45.29732" lon="3.76054">
        <ele>1056</ele>
        <time>2021-04-14T16:15:51Z</time>
      </trkpt>
      <trkpt lat="45.29729" lon="3.76056">
        <ele>1056</ele>
        <time>2021-04-14T16:15:52Z</time>
      </trkpt>
      <trkpt lat="45.29725" lon="3.76058">
        <ele>1056</ele>
        <time>2021-04-14T16:15:53Z</time>
      </trkpt>
      <trkpt lat="45.29722" lon="3.7606">
        <ele>1056</ele>
        <time>2021-04-14T16:15:54Z</time>
      </trkpt>
      <trkpt lat="45.29718" lon="3.76062">
        <ele>1056</ele>
        <time>2021-04-14T16:15:55Z</time>
      </trkpt>
      <trkpt lat="45.29713" lon="3.76064">
        <ele>1056</ele>
        <time>2021-04-14T16:15:56Z</time>
      </trkpt>
      <trkpt lat="45.29709" lon="3.76066">
        <ele>1056</ele>
        <time>2021-04-14T16:15:57Z</time>
      </trkpt>
      <trkpt lat="45.29705" lon="3.76068">
        <ele>1056</ele>
        <time>2021-04-14T16:15:58Z</time>
      </trkpt>
      <trkpt lat="45.297" lon="3.7607">
        <ele>1056</ele>
        <time>2021-04-14T16:15:59Z</time>
      </trkpt>
      <trkpt lat="45.29695" lon="3.76073">
        <ele>1056</ele>
        <time>2021-04-14T16:16:00Z</time>
      </trkpt>
      <trkpt lat="45.2969" lon="3.76075">
        <ele>1056</ele>
        <time>2021-04-14T16:16:01Z</time>
      </trkpt>
      <trkpt lat="45.29685" lon="3.76077">
        <ele>1056</ele>
        <time>2021-04-14T16:16:02Z</time>
      </trkpt>
      <trkpt lat="45.29679" lon="3.7608">
        <ele>1056</ele>
        <time>2021-04-14T16:16:03Z</time>
      </trkpt>
      <trkpt lat="45.29673" lon="3.76082">
        <ele>1056</ele>
        <time>2021-04-14T16:16:04Z</time>
      </trkpt>
      <trkpt lat="45.29666" lon="3.76085">
        <ele>1056</ele>
        <time>2021-04-14T16:16:05Z</time>
      </trkpt>
      <trkpt lat="45.29659" lon="3.76086">
        <ele>1056</ele>
        <time>2021-04-14T16:16:06Z</time>
      </trkpt>
      <trkpt lat="45.29651" lon="3.76088">
        <ele>1055</ele>
        <time>2021-04-14T16:16:07Z</time>
      </trkpt>
      <trkpt lat="45.29643" lon="3.76089">
        <ele>1055</ele>
        <time>2021-04-14T16:16:08Z</time>
      </trkpt>
      <trkpt lat="45.29636" lon="3.76089">
        <ele>1055</ele>
        <time>2021-04-14T16:16:09Z</time>
      </trkpt>
      <trkpt lat="45.29628" lon="3.76089">
        <ele>1055</ele>
        <time>2021-04-14T16:16:10Z</time>
      </trkpt>
      <trkpt lat="45.2962" lon="3.76088">
        <ele>1055</ele>
        <time>2021-04-14T16:16:11Z</time>
      </trkpt>
      <trkpt lat="45.29613" lon="3.76088">
        <ele>1055</ele>
        <time>2021-04-14T16:16:12Z</time>
      </trkpt>
      <trkpt lat="45.29605" lon="3.76087">
        <ele>1054</ele>
        <time>2021-04-14T16:16:13Z</time>
      </trkpt>
      <trkpt lat="45.29598" lon="3.76087">
        <ele>1054</ele>
        <time>2021-04-14T16:16:14Z</time>
      </trkpt>
      <trkpt lat="45.29591" lon="3.76087">
        <ele>1054</ele>
        <time>2021-04-14T16:16:15Z</time>
      </trkpt>
      <trkpt lat="45.29584" lon="3.76088">
        <ele>1054</ele>
        <time>2021-04-14T16:16:16Z</time>
      </trkpt>
      <trkpt lat="45.29577" lon="3.76088">
        <ele>1054</ele>
        <time>2021-04-14T16:16:17Z</time>
      </trkpt>
      <trkpt lat="45.29571" lon="3.76088">
        <ele>1054</ele>
        <time>2021-04-14T16:16:18Z</time>
      </trkpt>
      <trkpt lat="45.29564" lon="3.76089">
        <ele>1054</ele>
        <time>2021-04-14T16:16:19Z</time>
      </trkpt>
      <trkpt lat="45.29558" lon="3.76089">
        <ele>1053</ele>
        <time>2021-04-14T16:16:20Z</time>
      </trkpt>
      <trkpt lat="45.29552" lon="3.7609">
        <ele>1053</ele>
        <time>2021-04-14T16:16:21Z</time>
      </trkpt>
      <trkpt lat="45.29546" lon="3.7609">
        <ele>1053</ele>
        <time>2021-04-14T16:16:22Z</time>
      </trkpt>
      <trkpt lat="45.29541" lon="3.76091">
        <ele>1053</ele>
        <time>2021-04-14T16:16:23Z</time>
      </trkpt>
      <trkpt lat="45.29535" lon="3.76092">
        <ele>1052</ele>
        <time>2021-04-14T16:16:24Z</time>
      </trkpt>
      <trkpt lat="45.2953" lon="3.76094">
        <ele>1052</ele>
        <time>2021-04-14T16:16:25Z</time>
      </trkpt>
      <trkpt lat="45.29526" lon="3.76096">
        <ele>1052</ele>
        <time>2021-04-14T16:16:26Z</time>
      </trkpt>
      <trkpt lat="45.29522" lon="3.76099">
        <ele>1052</ele>
        <time>2021-04-14T16:16:27Z</time>
      </trkpt>
      <trkpt lat="45.29519" lon="3.76103">
        <ele>1052</ele>
        <time>2021-04-14T16:16:28Z</time>
      </trkpt>
      <trkpt lat="45.29516" lon="3.76107">
        <ele>1052</ele>
        <time>2021-04-14T16:16:29Z</time>
      </trkpt>
      <trkpt lat="45.29513" lon="3.76111">
        <ele>1052</ele>
        <time>2021-04-14T16:16:30Z</time>
      </trkpt>
      <trkpt lat="45.29511" lon="3.76114">
        <ele>1052</ele>
        <time>2021-04-14T16:16:31Z</time>
      </trkpt>
      <trkpt lat="45.29509" lon="3.76117">
        <ele>1053</ele>
        <time>2021-04-14T16:16:32Z</time>
      </trkpt>
      <trkpt lat="45.29508" lon="3.76119">
        <ele>1053</ele>
        <time>2021-04-14T16:16:33Z</time>
      </trkpt>
      <trkpt lat="45.29505" lon="3.76121">
        <ele>1053</ele>
        <time>2021-04-14T16:16:35Z</time>
      </trkpt>
      <trkpt lat="45.29502" lon="3.76121">
        <ele>1053</ele>
        <time>2021-04-14T16:16:37Z</time>
      </trkpt>
      <trkpt lat="45.295" lon="3.76121">
        <ele>1053</ele>
        <time>2021-04-14T16:16:38Z</time>
      </trkpt>
      <trkpt lat="45.29497" lon="3.76121">
        <ele>1053</ele>
        <time>2021-04-14T16:16:39Z</time>
      </trkpt>
      <trkpt lat="45.29494" lon="3.76121">
        <ele>1053</ele>
        <time>2021-04-14T16:16:40Z</time>
      </trkpt>
      <trkpt lat="45.29491" lon="3.7612">
        <ele>1053</ele>
        <time>2021-04-14T16:16:41Z</time>
      </trkpt>
      <trkpt lat="45.29488" lon="3.7612">
        <ele>1053</ele>
        <time>2021-04-14T16:16:42Z</time>
      </trkpt>
      <trkpt lat="45.29485" lon="3.7612">
        <ele>1053</ele>
        <time>2021-04-14T16:16:43Z</time>
      </trkpt>
      <trkpt lat="45.29482" lon="3.76119">
        <ele>1053</ele>
        <time>2021-04-14T16:16:44Z</time>
      </trkpt>
      <trkpt lat="45.29478" lon="3.76119">
        <ele>1053</ele>
        <time>2021-04-14T16:16:45Z</time>
      </trkpt>
      <trkpt lat="45.29475" lon="3.76118">
        <ele>1053</ele>
        <time>2021-04-14T16:16:46Z</time>
      </trkpt>
      <trkpt lat="45.29471" lon="3.76118">
        <ele>1053</ele>
        <time>2021-04-14T16:16:47Z</time>
      </trkpt>
      <trkpt lat="45.29467" lon="3.76117">
        <ele>1053</ele>
        <time>2021-04-14T16:16:48Z</time>
      </trkpt>
      <trkpt lat="45.29463" lon="3.76117">
        <ele>1053</ele>
        <time>2021-04-14T16:16:49Z</time>
      </trkpt>
      <trkpt lat="45.29458" lon="3.76117">
        <ele>1053</ele>
        <time>2021-04-14T16:16:50Z</time>
      </trkpt>
      <trkpt lat="45.29453" lon="3.76116">
        <ele>1053</ele>
        <time>2021-04-14T16:16:51Z</time>
      </trkpt>
      <trkpt lat="45.29449" lon="3.76116">
        <ele>1053</ele>
        <time>2021-04-14T16:16:52Z</time>
      </trkpt>
      <trkpt lat="45.29444" lon="3.76116">
        <ele>1053</ele>
        <time>2021-04-14T16:16:53Z</time>
      </trkpt>
      <trkpt lat="45.2944" lon="3.76115">
        <ele>1053</ele>
        <time>2021-04-14T16:16:54Z</time>
      </trkpt>
      <trkpt lat="45.29435" lon="3.76115">
        <ele>1053</ele>
        <time>2021-04-14T16:16:55Z</time>
      </trkpt>
      <trkpt lat="45.2943" lon="3.76115">
        <ele>1053</ele>
        <time>2021-04-14T16:16:56Z</time>
      </trkpt>
      <trkpt lat="45.29426" lon="3.76114">
        <ele>1053</ele>
        <time>2021-04-14T16:16:57Z</time>
      </trkpt>
      <trkpt lat="45.29421" lon="3.76114">
        <ele>1053</ele>
        <time>2021-04-14T16:16:58Z</time>
      </trkpt>
      <trkpt lat="45.29417" lon="3.76114">
        <ele>1053</ele>
        <time>2021-04-14T16:16:59Z</time>
      </trkpt>
      <trkpt lat="45.29412" lon="3.76114">
        <ele>1053</ele>
        <time>2021-04-14T16:17:00Z</time>
      </trkpt>
      <trkpt lat="45.29408" lon="3.76113">
        <ele>1053</ele>
        <time>2021-04-14T16:17:01Z</time>
      </trkpt>
      <trkpt lat="45.29403" lon="3.76113">
        <ele>1054</ele>
        <time>2021-04-14T16:17:02Z</time>
      </trkpt>
      <trkpt lat="45.29399" lon="3.76113">
        <ele>1054</ele>
        <time>2021-04-14T16:17:03Z</time>
      </trkpt>
      <trkpt lat="45.29395" lon="3.76112">
        <ele>1054</ele>
        <time>2021-04-14T16:17:04Z</time>
      </trkpt>
      <trkpt lat="45.2939" lon="3.76112">
        <ele>1054</ele>
        <time>2021-04-14T16:17:05Z</time>
      </trkpt>
      <trkpt lat="45.29386" lon="3.76112">
        <ele>1054</ele>
        <time>2021-04-14T16:17:06Z</time>
      </trkpt>
      <trkpt lat="45.29381" lon="3.76111">
        <ele>1054</ele>
        <time>2021-04-14T16:17:07Z</time>
      </trkpt>
      <trkpt lat="45.29377" lon="3.76111">
        <ele>1054</ele>
        <time>2021-04-14T16:17:08Z</time>
      </trkpt>
      <trkpt lat="45.29372" lon="3.7611">
        <ele>1054</ele>
        <time>2021-04-14T16:17:09Z</time>
      </trkpt>
      <trkpt lat="45.29368" lon="3.7611">
        <ele>1054</ele>
        <time>2021-04-14T16:17:10Z</time>
      </trkpt>
      <trkpt lat="45.29363" lon="3.76109">
        <ele>1054</ele>
        <time>2021-04-14T16:17:11Z</time>
      </trkpt>
      <trkpt lat="45.29358" lon="3.76109">
        <ele>1054</ele>
        <time>2021-04-14T16:17:12Z</time>
      </trkpt>
      <trkpt lat="45.29354" lon="3.76108">
        <ele>1054</ele>
        <time>2021-04-14T16:17:13Z</time>
      </trkpt>
      <trkpt lat="45.29349" lon="3.76108">
        <ele>1054</ele>
        <time>2021-04-14T16:17:14Z</time>
      </trkpt>
      <trkpt lat="45.29345" lon="3.76107">
        <ele>1054</ele>
        <time>2021-04-14T16:17:15Z</time>
      </trkpt>
      <trkpt lat="45.2934" lon="3.76107">
        <ele>1054</ele>
        <time>2021-04-14T16:17:16Z</time>
      </trkpt>
      <trkpt lat="45.29336" lon="3.76106">
        <ele>1054</ele>
        <time>2021-04-14T16:17:17Z</time>
      </trkpt>
      <trkpt lat="45.29331" lon="3.76105">
        <ele>1055</ele>
        <time>2021-04-14T16:17:18Z</time>
      </trkpt>
      <trkpt lat="45.29327" lon="3.76105">
        <ele>1055</ele>
        <time>2021-04-14T16:17:19Z</time>
      </trkpt>
      <trkpt lat="45.29323" lon="3.76104">
        <ele>1055</ele>
        <time>2021-04-14T16:17:20Z</time>
      </trkpt>
      <trkpt lat="45.29318" lon="3.76103">
        <ele>1055</ele>
        <time>2021-04-14T16:17:21Z</time>
      </trkpt>
      <trkpt lat="45.29314" lon="3.76104">
        <ele>1055</ele>
        <time>2021-04-14T16:17:22Z</time>
      </trkpt>
      <trkpt lat="45.2931" lon="3.76104">
        <ele>1055</ele>
        <time>2021-04-14T16:17:23Z</time>
      </trkpt>
      <trkpt lat="45.29306" lon="3.76105">
        <ele>1055</ele>
        <time>2021-04-14T16:17:24Z</time>
      </trkpt>
      <trkpt lat="45.29302" lon="3.76106">
        <ele>1055</ele>
        <time>2021-04-14T16:17:25Z</time>
      </trkpt>
      <trkpt lat="45.29298" lon="3.76105">
        <ele>1055</ele>
        <time>2021-04-14T16:17:26Z</time>
      </trkpt>
      <trkpt lat="45.29294" lon="3.76104">
        <ele>1056</ele>
        <time>2021-04-14T16:17:27Z</time>
      </trkpt>
      <trkpt lat="45.2929" lon="3.76103">
        <ele>1056</ele>
        <time>2021-04-14T16:17:28Z</time>
      </trkpt>
      <trkpt lat="45.29286" lon="3.76103">
        <ele>1056</ele>
        <time>2021-04-14T16:17:29Z</time>
      </trkpt>
      <trkpt lat="45.29282" lon="3.76102">
        <ele>1056</ele>
        <time>2021-04-14T16:17:30Z</time>
      </trkpt>
      <trkpt lat="45.29278" lon="3.76101">
        <ele>1056</ele>
        <time>2021-04-14T16:17:31Z</time>
      </trkpt>
      <trkpt lat="45.29255" lon="3.76098">
        <ele>1060</ele>
      </trkpt>
      <trkpt lat="45.29253" lon="3.7612">
        <ele>1068</ele>
        <time>2021-04-15T07:36:17Z</time>
      </trkpt>
      <trkpt lat="45.29253" lon="3.76124">
        <ele>1068</ele>
        <time>2021-04-15T07:36:18Z</time>
      </trkpt>
      <trkpt lat="45.29252" lon="3.76127">
        <ele>1068</ele>
        <time>2021-04-15T07:36:19Z</time>
      </trkpt>
      <trkpt lat="45.29252" lon="3.76131">
        <ele>1069</ele>
        <time>2021-04-15T07:36:20Z</time>
      </trkpt>
      <trkpt lat="45.29252" lon="3.76133">
        <ele>1069</ele>
        <time>2021-04-15T07:36:21Z</time>
      </trkpt>
      <trkpt lat="45.29251" lon="3.76138">
        <ele>1069</ele>
        <time>2021-04-15T07:36:23Z</time>
      </trkpt>
      <trkpt lat="45.2925" lon="3.76142">
        <ele>1069</ele>
        <time>2021-04-15T07:36:25Z</time>
      </trkpt>
      <trkpt lat="45.29249" lon="3.76145">
        <ele>1069</ele>
        <time>2021-04-15T07:36:26Z</time>
      </trkpt>
      <trkpt lat="45.29248" lon="3.76148">
        <ele>1070</ele>
        <time>2021-04-15T07:36:27Z</time>
      </trkpt>
      <trkpt lat="45.29247" lon="3.76152">
        <ele>1070</ele>
        <time>2021-04-15T07:36:28Z</time>
      </trkpt>
      <trkpt lat="45.29246" lon="3.76155">
        <ele>1070</ele>
        <time>2021-04-15T07:36:29Z</time>
      </trkpt>
      <trkpt lat="45.29245" lon="3.76158">
        <ele>1070</ele>
        <time>2021-04-15T07:36:30Z</time>
      </trkpt>
      <trkpt lat="45.29244" lon="3.76161">
        <ele>1070</ele>
        <time>2021-04-15T07:36:31Z</time>
      </trkpt>
      <trkpt lat="45.29243" lon="3.76164">
        <ele>1070</ele>
        <time>2021-04-15T07:36:32Z</time>
      </trkpt>
      <trkpt lat="45.29242" lon="3.76167">
        <ele>1070</ele>
        <time>2021-04-15T07:36:33Z</time>
      </trkpt>
      <trkpt lat="45.29241" lon="3.76171">
        <ele>1070</ele>
        <time>2021-04-15T07:36:34Z</time>
      </trkpt>
      <trkpt lat="45.29239" lon="3.76175">
        <ele>1070</ele>
        <time>2021-04-15T07:36:35Z</time>
      </trkpt>
      <trkpt lat="45.29238" lon="3.76179">
        <ele>1070</ele>
        <time>2021-04-15T07:36:36Z</time>
      </trkpt>
      <trkpt lat="45.29237" lon="3.76182">
        <ele>1070</ele>
        <time>2021-04-15T07:36:37Z</time>
      </trkpt>
      <trkpt lat="45.29235" lon="3.76186">
        <ele>1070</ele>
        <time>2021-04-15T07:36:38Z</time>
      </trkpt>
      <trkpt lat="45.29233" lon="3.7619">
        <ele>1070</ele>
        <time>2021-04-15T07:36:39Z</time>
      </trkpt>
      <trkpt lat="45.29232" lon="3.76193">
        <ele>1070</ele>
        <time>2021-04-15T07:36:40Z</time>
      </trkpt>
      <trkpt lat="45.29231" lon="3.76197">
        <ele>1070</ele>
        <time>2021-04-15T07:36:41Z</time>
      </trkpt>
      <trkpt lat="45.2923" lon="3.76201">
        <ele>1070</ele>
        <time>2021-04-15T07:36:42Z</time>
      </trkpt>
      <trkpt lat="45.29228" lon="3.76205">
        <ele>1070</ele>
        <time>2021-04-15T07:36:43Z</time>
      </trkpt>
      <trkpt lat="45.29227" lon="3.76208">
        <ele>1070</ele>
        <time>2021-04-15T07:36:44Z</time>
      </trkpt>
      <trkpt lat="45.29226" lon="3.76212">
        <ele>1070</ele>
        <time>2021-04-15T07:36:45Z</time>
      </trkpt>
      <trkpt lat="45.29224" lon="3.76215">
        <ele>1070</ele>
        <time>2021-04-15T07:36:46Z</time>
      </trkpt>
      <trkpt lat="45.29223" lon="3.76218">
        <ele>1069</ele>
        <time>2021-04-15T07:36:47Z</time>
      </trkpt>
      <trkpt lat="45.29223" lon="3.76221">
        <ele>1070</ele>
        <time>2021-04-15T07:36:48Z</time>
      </trkpt>
      <trkpt lat="45.29221" lon="3.76224">
        <ele>1069</ele>
        <time>2021-04-15T07:36:49Z</time>
      </trkpt>
      <trkpt lat="45.2922" lon="3.76226">
        <ele>1069</ele>
        <time>2021-04-15T07:36:50Z</time>
      </trkpt>
      <trkpt lat="45.29219" lon="3.76228">
        <ele>1069</ele>
        <time>2021-04-15T07:36:51Z</time>
      </trkpt>
      <trkpt lat="45.29217" lon="3.76231">
        <ele>1069</ele>
        <time>2021-04-15T07:36:52Z</time>
      </trkpt>
      <trkpt lat="45.29216" lon="3.76232">
        <ele>1069</ele>
        <time>2021-04-15T07:36:53Z</time>
      </trkpt>
      <trkpt lat="45.29215" lon="3.76234">
        <ele>1069</ele>
        <time>2021-04-15T07:36:54Z</time>
      </trkpt>
      <trkpt lat="45.29213" lon="3.76236">
        <ele>1069</ele>
        <time>2021-04-15T07:36:55Z</time>
      </trkpt>
      <trkpt lat="45.29211" lon="3.76238">
        <ele>1069</ele>
        <time>2021-04-15T07:36:56Z</time>
      </trkpt>
      <trkpt lat="45.29209" lon="3.7624">
        <ele>1069</ele>
        <time>2021-04-15T07:36:57Z</time>
      </trkpt>
      <trkpt lat="45.29207" lon="3.76242">
        <ele>1069</ele>
        <time>2021-04-15T07:36:58Z</time>
      </trkpt>
      <trkpt lat="45.29205" lon="3.76245">
        <ele>1069</ele>
        <time>2021-04-15T07:36:59Z</time>
      </trkpt>
      <trkpt lat="45.29203" lon="3.76248">
        <ele>1069</ele>
        <time>2021-04-15T07:37:00Z</time>
      </trkpt>
      <trkpt lat="45.29201" lon="3.7625">
        <ele>1069</ele>
        <time>2021-04-15T07:37:01Z</time>
      </trkpt>
      <trkpt lat="45.29198" lon="3.76253">
        <ele>1069</ele>
        <time>2021-04-15T07:37:02Z</time>
      </trkpt>
      <trkpt lat="45.29196" lon="3.76256">
        <ele>1068</ele>
        <time>2021-04-15T07:37:03Z</time>
      </trkpt>
      <trkpt lat="45.29194" lon="3.76259">
        <ele>1068</ele>
        <time>2021-04-15T07:37:04Z</time>
      </trkpt>
      <trkpt lat="45.29191" lon="3.76262">
        <ele>1068</ele>
        <time>2021-04-15T07:37:05Z</time>
      </trkpt>
      <trkpt lat="45.29189" lon="3.76265">
        <ele>1068</ele>
        <time>2021-04-15T07:37:06Z</time>
      </trkpt>
      <trkpt lat="45.29187" lon="3.76268">
        <ele>1068</ele>
        <time>2021-04-15T07:37:07Z</time>
      </trkpt>
      <trkpt lat="45.29184" lon="3.76272">
        <ele>1068</ele>
        <time>2021-04-15T07:37:08Z</time>
      </trkpt>
      <trkpt lat="45.29182" lon="3.76275">
        <ele>1067</ele>
        <time>2021-04-15T07:37:09Z</time>
      </trkpt>
      <trkpt lat="45.29179" lon="3.76278">
        <ele>1067</ele>
        <time>2021-04-15T07:37:10Z</time>
      </trkpt>
      <trkpt lat="45.29177" lon="3.76281">
        <ele>1066</ele>
        <time>2021-04-15T07:37:11Z</time>
      </trkpt>
      <trkpt lat="45.29174" lon="3.76284">
        <ele>1066</ele>
        <time>2021-04-15T07:37:12Z</time>
      </trkpt>
      <trkpt lat="45.29172" lon="3.76288">
        <ele>1066</ele>
        <time>2021-04-15T07:37:13Z</time>
      </trkpt>
      <trkpt lat="45.29169" lon="3.76292">
        <ele>1066</ele>
        <time>2021-04-15T07:37:14Z</time>
      </trkpt>
      <trkpt lat="45.29167" lon="3.76296">
        <ele>1065</ele>
        <time>2021-04-15T07:37:15Z</time>
      </trkpt>
      <trkpt lat="45.29164" lon="3.763">
        <ele>1065</ele>
        <time>2021-04-15T07:37:16Z</time>
      </trkpt>
      <trkpt lat="45.29162" lon="3.76304">
        <ele>1065</ele>
        <time>2021-04-15T07:37:17Z</time>
      </trkpt>
      <trkpt lat="45.29159" lon="3.76308">
        <ele>1065</ele>
        <time>2021-04-15T07:37:18Z</time>
      </trkpt>
      <trkpt lat="45.29157" lon="3.76312">
        <ele>1065</ele>
        <time>2021-04-15T07:37:19Z</time>
      </trkpt>
      <trkpt lat="45.29155" lon="3.76316">
        <ele>1065</ele>
        <time>2021-04-15T07:37:20Z</time>
      </trkpt>
      <trkpt lat="45.29152" lon="3.7632">
        <ele>1065</ele>
        <time>2021-04-15T07:37:21Z</time>
      </trkpt>
      <trkpt lat="45.2915" lon="3.76324">
        <ele>1065</ele>
        <time>2021-04-15T07:37:22Z</time>
      </trkpt>
      <trkpt lat="45.29148" lon="3.76328">
        <ele>1065</ele>
        <time>2021-04-15T07:37:23Z</time>
      </trkpt>
      <trkpt lat="45.29145" lon="3.76332">
        <ele>1065</ele>
        <time>2021-04-15T07:37:24Z</time>
      </trkpt>
      <trkpt lat="45.29143" lon="3.76336">
        <ele>1065</ele>
        <time>2021-04-15T07:37:25Z</time>
      </trkpt>
      <trkpt lat="45.29141" lon="3.7634">
        <ele>1065</ele>
        <time>2021-04-15T07:37:26Z</time>
      </trkpt>
      <trkpt lat="45.29138" lon="3.76345">
        <ele>1065</ele>
        <time>2021-04-15T07:37:27Z</time>
      </trkpt>
      <trkpt lat="45.29136" lon="3.76349">
        <ele>1065</ele>
        <time>2021-04-15T07:37:28Z</time>
      </trkpt>
      <trkpt lat="45.29134" lon="3.76353">
        <ele>1065</ele>
        <time>2021-04-15T07:37:29Z</time>
      </trkpt>
      <trkpt lat="45.29131" lon="3.76357">
        <ele>1065</ele>
        <time>2021-04-15T07:37:30Z</time>
      </trkpt>
      <trkpt lat="45.29129" lon="3.76362">
        <ele>1065</ele>
        <time>2021-04-15T07:37:31Z</time>
      </trkpt>
      <trkpt lat="45.29127" lon="3.76366">
        <ele>1065</ele>
        <time>2021-04-15T07:37:32Z</time>
      </trkpt>
      <trkpt lat="45.29125" lon="3.76371">
        <ele>1065</ele>
        <time>2021-04-15T07:37:33Z</time>
      </trkpt>
      <trkpt lat="45.29123" lon="3.76375">
        <ele>1065</ele>
        <time>2021-04-15T07:37:34Z</time>
      </trkpt>
      <trkpt lat="45.29121" lon="3.7638">
        <ele>1065</ele>
        <time>2021-04-15T07:37:35Z</time>
      </trkpt>
      <trkpt lat="45.29119" lon="3.76385">
        <ele>1065</ele>
        <time>2021-04-15T07:37:36Z</time>
      </trkpt>
      <trkpt lat="45.29117" lon="3.76389">
        <ele>1065</ele>
        <time>2021-04-15T07:37:37Z</time>
      </trkpt>
      <trkpt lat="45.29114" lon="3.76394">
        <ele>1065</ele>
        <time>2021-04-15T07:37:38Z</time>
      </trkpt>
      <trkpt lat="45.29112" lon="3.76399">
        <ele>1065</ele>
        <time>2021-04-15T07:37:39Z</time>
      </trkpt>
      <trkpt lat="45.2911" lon="3.76404">
        <ele>1065</ele>
        <time>2021-04-15T07:37:40Z</time>
      </trkpt>
      <trkpt lat="45.29108" lon="3.76409">
        <ele>1065</ele>
        <time>2021-04-15T07:37:41Z</time>
      </trkpt>
      <trkpt lat="45.29106" lon="3.76413">
        <ele>1065</ele>
        <time>2021-04-15T07:37:42Z</time>
      </trkpt>
      <trkpt lat="45.29103" lon="3.76418">
        <ele>1065</ele>
        <time>2021-04-15T07:37:43Z</time>
      </trkpt>
      <trkpt lat="45.29101" lon="3.76423">
        <ele>1065</ele>
        <time>2021-04-15T07:37:44Z</time>
      </trkpt>
      <trkpt lat="45.29099" lon="3.76428">
        <ele>1065</ele>
        <time>2021-04-15T07:37:45Z</time>
      </trkpt>
      <trkpt lat="45.29097" lon="3.76433">
        <ele>1065</ele>
        <time>2021-04-15T07:37:46Z</time>
      </trkpt>
      <trkpt lat="45.29094" lon="3.76437">
        <ele>1065</ele>
        <time>2021-04-15T07:37:47Z</time>
      </trkpt>
      <trkpt lat="45.29092" lon="3.76442">
        <ele>1065</ele>
        <time>2021-04-15T07:37:48Z</time>
      </trkpt>
      <trkpt lat="45.29089" lon="3.76446">
        <ele>1065</ele>
        <time>2021-04-15T07:37:49Z</time>
      </trkpt>
      <trkpt lat="45.29087" lon="3.7645">
        <ele>1065</ele>
        <time>2021-04-15T07:37:50Z</time>
      </trkpt>
      <trkpt lat="45.29084" lon="3.76454">
        <ele>1065</ele>
        <time>2021-04-15T07:37:51Z</time>
      </trkpt>
      <trkpt lat="45.29081" lon="3.76458">
        <ele>1065</ele>
        <time>2021-04-15T07:37:52Z</time>
      </trkpt>
      <trkpt lat="45.29079" lon="3.76462">
        <ele>1065</ele>
        <time>2021-04-15T07:37:53Z</time>
      </trkpt>
      <trkpt lat="45.29076" lon="3.76466">
        <ele>1065</ele>
        <time>2021-04-15T07:37:54Z</time>
      </trkpt>
      <trkpt lat="45.29074" lon="3.76471">
        <ele>1066</ele>
        <time>2021-04-15T07:37:55Z</time>
      </trkpt>
      <trkpt lat="45.29071" lon="3.76475">
        <ele>1066</ele>
        <time>2021-04-15T07:37:56Z</time>
      </trkpt>
      <trkpt lat="45.29069" lon="3.76479">
        <ele>1066</ele>
        <time>2021-04-15T07:37:57Z</time>
      </trkpt>
      <trkpt lat="45.29068" lon="3.76484">
        <ele>1066</ele>
        <time>2021-04-15T07:37:58Z</time>
      </trkpt>
      <trkpt lat="45.29066" lon="3.76489">
        <ele>1067</ele>
        <time>2021-04-15T07:37:59Z</time>
      </trkpt>
      <trkpt lat="45.29064" lon="3.76494">
        <ele>1067</ele>
        <time>2021-04-15T07:38:00Z</time>
      </trkpt>
      <trkpt lat="45.29062" lon="3.76498">
        <ele>1067</ele>
        <time>2021-04-15T07:38:01Z</time>
      </trkpt>
      <trkpt lat="45.2906" lon="3.76502">
        <ele>1067</ele>
        <time>2021-04-15T07:38:02Z</time>
      </trkpt>
      <trkpt lat="45.29058" lon="3.76506">
        <ele>1068</ele>
        <time>2021-04-15T07:38:03Z</time>
      </trkpt>
      <trkpt lat="45.29056" lon="3.76509">
        <ele>1068</ele>
        <time>2021-04-15T07:38:04Z</time>
      </trkpt>
      <trkpt lat="45.29054" lon="3.76513">
        <ele>1068</ele>
        <time>2021-04-15T07:38:05Z</time>
      </trkpt>
      <trkpt lat="45.29053" lon="3.76516">
        <ele>1068</ele>
        <time>2021-04-15T07:38:06Z</time>
      </trkpt>
      <trkpt lat="45.29051" lon="3.76521">
        <ele>1068</ele>
        <time>2021-04-15T07:38:07Z</time>
      </trkpt>
      <trkpt lat="45.29049" lon="3.76525">
        <ele>1068</ele>
        <time>2021-04-15T07:38:08Z</time>
      </trkpt>
      <trkpt lat="45.29046" lon="3.76531">
        <ele>1068</ele>
        <time>2021-04-15T07:38:09Z</time>
      </trkpt>
      <trkpt lat="45.29044" lon="3.76535">
        <ele>1068</ele>
        <time>2021-04-15T07:38:10Z</time>
      </trkpt>
      <trkpt lat="45.29043" lon="3.7654">
        <ele>1068</ele>
        <time>2021-04-15T07:38:11Z</time>
      </trkpt>
      <trkpt lat="45.29042" lon="3.76544">
        <ele>1068</ele>
        <time>2021-04-15T07:38:12Z</time>
      </trkpt>
      <trkpt lat="45.2904" lon="3.76548">
        <ele>1069</ele>
        <time>2021-04-15T07:38:13Z</time>
      </trkpt>
      <trkpt lat="45.29039" lon="3.76553">
        <ele>1069</ele>
        <time>2021-04-15T07:38:14Z</time>
      </trkpt>
      <trkpt lat="45.29038" lon="3.76559">
        <ele>1069</ele>
        <time>2021-04-15T07:38:15Z</time>
      </trkpt>
      <trkpt lat="45.29038" lon="3.76564">
        <ele>1069</ele>
        <time>2021-04-15T07:38:16Z</time>
      </trkpt>
      <trkpt lat="45.29037" lon="3.7657">
        <ele>1069</ele>
        <time>2021-04-15T07:38:17Z</time>
      </trkpt>
      <trkpt lat="45.29036" lon="3.76578">
        <ele>1069</ele>
        <time>2021-04-15T07:38:18Z</time>
      </trkpt>
      <trkpt lat="45.29035" lon="3.76584">
        <ele>1069</ele>
        <time>2021-04-15T07:38:19Z</time>
      </trkpt>
      <trkpt lat="45.29035" lon="3.76591">
        <ele>1069</ele>
        <time>2021-04-15T07:38:20Z</time>
      </trkpt>
      <trkpt lat="45.29034" lon="3.76598">
        <ele>1070</ele>
        <time>2021-04-15T07:38:21Z</time>
      </trkpt>
      <trkpt lat="45.29033" lon="3.76606">
        <ele>1070</ele>
        <time>2021-04-15T07:38:22Z</time>
      </trkpt>
      <trkpt lat="45.29033" lon="3.76612">
        <ele>1070</ele>
        <time>2021-04-15T07:38:23Z</time>
      </trkpt>
      <trkpt lat="45.29033" lon="3.76619">
        <ele>1070</ele>
        <time>2021-04-15T07:38:24Z</time>
      </trkpt>
      <trkpt lat="45.29033" lon="3.76626">
        <ele>1070</ele>
        <time>2021-04-15T07:38:26Z</time>
      </trkpt>
      <trkpt lat="45.29032" lon="3.76642">
        <ele>1070</ele>
        <time>2021-04-15T07:38:27Z</time>
      </trkpt>
      <trkpt lat="45.29032" lon="3.7665">
        <ele>1070</ele>
        <time>2021-04-15T07:38:28Z</time>
      </trkpt>
      <trkpt lat="45.29032" lon="3.76658">
        <ele>1070</ele>
        <time>2021-04-15T07:38:29Z</time>
      </trkpt>
      <trkpt lat="45.29032" lon="3.76665">
        <ele>1070</ele>
        <time>2021-04-15T07:38:30Z</time>
      </trkpt>
      <trkpt lat="45.29031" lon="3.76672">
        <ele>1070</ele>
        <time>2021-04-15T07:38:31Z</time>
      </trkpt>
      <trkpt lat="45.29031" lon="3.76679">
        <ele>1070</ele>
        <time>2021-04-15T07:38:32Z</time>
      </trkpt>
      <trkpt lat="45.29031" lon="3.76686">
        <ele>1070</ele>
        <time>2021-04-15T07:38:33Z</time>
      </trkpt>
      <trkpt lat="45.29031" lon="3.76694">
        <ele>1070</ele>
        <time>2021-04-15T07:38:34Z</time>
      </trkpt>
      <trkpt lat="45.29031" lon="3.76701">
        <ele>1070</ele>
        <time>2021-04-15T07:38:35Z</time>
      </trkpt>
      <trkpt lat="45.29031" lon="3.76708">
        <ele>1070</ele>
        <time>2021-04-15T07:38:36Z</time>
      </trkpt>
      <trkpt lat="45.2903" lon="3.76715">
        <ele>1070</ele>
        <time>2021-04-15T07:38:37Z</time>
      </trkpt>
      <trkpt lat="45.29029" lon="3.76721">
        <ele>1069</ele>
        <time>2021-04-15T07:38:38Z</time>
      </trkpt>
      <trkpt lat="45.29028" lon="3.76727">
        <ele>1069</ele>
        <time>2021-04-15T07:38:39Z</time>
      </trkpt>
      <trkpt lat="45.29027" lon="3.76733">
        <ele>1069</ele>
        <time>2021-04-15T07:38:40Z</time>
      </trkpt>
      <trkpt lat="45.29025" lon="3.76743">
        <ele>1069</ele>
        <time>2021-04-15T07:38:42Z</time>
      </trkpt>
      <trkpt lat="45.29023" lon="3.76748">
        <ele>1069</ele>
        <time>2021-04-15T07:38:43Z</time>
      </trkpt>
      <trkpt lat="45.2902" lon="3.76754">
        <ele>1069</ele>
        <time>2021-04-15T07:38:44Z</time>
      </trkpt>
      <trkpt lat="45.29018" lon="3.76759">
        <ele>1069</ele>
        <time>2021-04-15T07:38:45Z</time>
      </trkpt>
      <trkpt lat="45.29016" lon="3.76764">
        <ele>1069</ele>
        <time>2021-04-15T07:38:46Z</time>
      </trkpt>
      <trkpt lat="45.29014" lon="3.76769">
        <ele>1069</ele>
        <time>2021-04-15T07:38:47Z</time>
      </trkpt>
      <trkpt lat="45.29013" lon="3.76775">
        <ele>1069</ele>
        <time>2021-04-15T07:38:48Z</time>
      </trkpt>
      <trkpt lat="45.29011" lon="3.7678">
        <ele>1069</ele>
        <time>2021-04-15T07:38:49Z</time>
      </trkpt>
      <trkpt lat="45.29009" lon="3.76784">
        <ele>1069</ele>
        <time>2021-04-15T07:38:50Z</time>
      </trkpt>
      <trkpt lat="45.29007" lon="3.76788">
        <ele>1069</ele>
        <time>2021-04-15T07:38:51Z</time>
      </trkpt>
      <trkpt lat="45.29005" lon="3.76793">
        <ele>1069</ele>
        <time>2021-04-15T07:38:52Z</time>
      </trkpt>
      <trkpt lat="45.29002" lon="3.76797">
        <ele>1068</ele>
        <time>2021-04-15T07:38:53Z</time>
      </trkpt>
      <trkpt lat="45.28999" lon="3.76802">
        <ele>1068</ele>
        <time>2021-04-15T07:38:54Z</time>
      </trkpt>
      <trkpt lat="45.28997" lon="3.76807">
        <ele>1068</ele>
        <time>2021-04-15T07:38:55Z</time>
      </trkpt>
      <trkpt lat="45.28994" lon="3.76812">
        <ele>1068</ele>
        <time>2021-04-15T07:38:56Z</time>
      </trkpt>
      <trkpt lat="45.28991" lon="3.76817">
        <ele>1068</ele>
        <time>2021-04-15T07:38:57Z</time>
      </trkpt>
      <trkpt lat="45.28988" lon="3.76821">
        <ele>1068</ele>
        <time>2021-04-15T07:38:58Z</time>
      </trkpt>
      <trkpt lat="45.28986" lon="3.76826">
        <ele>1068</ele>
        <time>2021-04-15T07:38:59Z</time>
      </trkpt>
      <trkpt lat="45.28983" lon="3.7683">
        <ele>1067</ele>
        <time>2021-04-15T07:39:00Z</time>
      </trkpt>
      <trkpt lat="45.2898" lon="3.76834">
        <ele>1067</ele>
        <time>2021-04-15T07:39:01Z</time>
      </trkpt>
      <trkpt lat="45.28977" lon="3.76838">
        <ele>1067</ele>
        <time>2021-04-15T07:39:02Z</time>
      </trkpt>
      <trkpt lat="45.28974" lon="3.76842">
        <ele>1067</ele>
        <time>2021-04-15T07:39:03Z</time>
      </trkpt>
      <trkpt lat="45.28971" lon="3.76846">
        <ele>1067</ele>
        <time>2021-04-15T07:39:04Z</time>
      </trkpt>
      <trkpt lat="45.28968" lon="3.7685">
        <ele>1067</ele>
        <time>2021-04-15T07:39:05Z</time>
      </trkpt>
      <trkpt lat="45.28964" lon="3.76854">
        <ele>1067</ele>
        <time>2021-04-15T07:39:06Z</time>
      </trkpt>
      <trkpt lat="45.28961" lon="3.76858">
        <ele>1067</ele>
        <time>2021-04-15T07:39:07Z</time>
      </trkpt>
      <trkpt lat="45.28958" lon="3.76862">
        <ele>1066</ele>
        <time>2021-04-15T07:39:08Z</time>
      </trkpt>
      <trkpt lat="45.28955" lon="3.76865">
        <ele>1066</ele>
        <time>2021-04-15T07:39:09Z</time>
      </trkpt>
      <trkpt lat="45.28953" lon="3.76869">
        <ele>1067</ele>
        <time>2021-04-15T07:39:10Z</time>
      </trkpt>
      <trkpt lat="45.2895" lon="3.76872">
        <ele>1067</ele>
        <time>2021-04-15T07:39:11Z</time>
      </trkpt>
      <trkpt lat="45.28948" lon="3.76876">
        <ele>1067</ele>
        <time>2021-04-15T07:39:12Z</time>
      </trkpt>
      <trkpt lat="45.28942" lon="3.76885">
        <ele>1067</ele>
        <time>2021-04-15T07:39:14Z</time>
      </trkpt>
      <trkpt lat="45.28938" lon="3.7689">
        <ele>1067</ele>
        <time>2021-04-15T07:39:15Z</time>
      </trkpt>
      <trkpt lat="45.28934" lon="3.76895">
        <ele>1067</ele>
        <time>2021-04-15T07:39:16Z</time>
      </trkpt>
      <trkpt lat="45.28931" lon="3.769">
        <ele>1067</ele>
        <time>2021-04-15T07:39:17Z</time>
      </trkpt>
      <trkpt lat="45.28928" lon="3.76905">
        <ele>1067</ele>
        <time>2021-04-15T07:39:18Z</time>
      </trkpt>
      <trkpt lat="45.28926" lon="3.76909">
        <ele>1068</ele>
        <time>2021-04-15T07:39:19Z</time>
      </trkpt>
      <trkpt lat="45.28924" lon="3.76914">
        <ele>1068</ele>
        <time>2021-04-15T07:39:20Z</time>
      </trkpt>
      <trkpt lat="45.28923" lon="3.76919">
        <ele>1068</ele>
        <time>2021-04-15T07:39:21Z</time>
      </trkpt>
      <trkpt lat="45.2892" lon="3.76924">
        <ele>1069</ele>
        <time>2021-04-15T07:39:23Z</time>
      </trkpt>
      <trkpt lat="45.28916" lon="3.76935">
        <ele>1069</ele>
        <time>2021-04-15T07:39:24Z</time>
      </trkpt>
      <trkpt lat="45.28915" lon="3.76941">
        <ele>1069</ele>
        <time>2021-04-15T07:39:25Z</time>
      </trkpt>
      <trkpt lat="45.28913" lon="3.76946">
        <ele>1069</ele>
        <time>2021-04-15T07:39:26Z</time>
      </trkpt>
      <trkpt lat="45.28911" lon="3.76951">
        <ele>1069</ele>
        <time>2021-04-15T07:39:28Z</time>
      </trkpt>
      <trkpt lat="45.2891" lon="3.76956">
        <ele>1069</ele>
        <time>2021-04-15T07:39:29Z</time>
      </trkpt>
      <trkpt lat="45.28909" lon="3.76962">
        <ele>1069</ele>
        <time>2021-04-15T07:39:30Z</time>
      </trkpt>
      <trkpt lat="45.28908" lon="3.76967">
        <ele>1069</ele>
        <time>2021-04-15T07:39:31Z</time>
      </trkpt>
      <trkpt lat="45.28906" lon="3.76972">
        <ele>1069</ele>
        <time>2021-04-15T07:39:32Z</time>
      </trkpt>
      <trkpt lat="45.28903" lon="3.76982">
        <ele>1070</ele>
        <time>2021-04-15T07:39:33Z</time>
      </trkpt>
      <trkpt lat="45.28902" lon="3.76987">
        <ele>1070</ele>
        <time>2021-04-15T07:39:35Z</time>
      </trkpt>
      <trkpt lat="45.289" lon="3.76992">
        <ele>1071</ele>
        <time>2021-04-15T07:39:36Z</time>
      </trkpt>
      <trkpt lat="45.289" lon="3.76997">
        <ele>1071</ele>
        <time>2021-04-15T07:39:37Z</time>
      </trkpt>
      <trkpt lat="45.28899" lon="3.77008">
        <ele>1071</ele>
        <time>2021-04-15T07:39:38Z</time>
      </trkpt>
      <trkpt lat="45.28898" lon="3.7702">
        <ele>1071</ele>
        <time>2021-04-15T07:39:40Z</time>
      </trkpt>
      <trkpt lat="45.28898" lon="3.77026">
        <ele>1071</ele>
        <time>2021-04-15T07:39:42Z</time>
      </trkpt>
      <trkpt lat="45.28898" lon="3.77032">
        <ele>1071</ele>
        <time>2021-04-15T07:39:43Z</time>
      </trkpt>
      <trkpt lat="45.28897" lon="3.77038">
        <ele>1071</ele>
        <time>2021-04-15T07:39:44Z</time>
      </trkpt>
      <trkpt lat="45.28897" lon="3.77044">
        <ele>1071</ele>
        <time>2021-04-15T07:39:45Z</time>
      </trkpt>
      <trkpt lat="45.28896" lon="3.7705">
        <ele>1071</ele>
        <time>2021-04-15T07:39:46Z</time>
      </trkpt>
      <trkpt lat="45.28895" lon="3.77056">
        <ele>1071</ele>
        <time>2021-04-15T07:39:47Z</time>
      </trkpt>
      <trkpt lat="45.28894" lon="3.7706">
        <ele>1071</ele>
        <time>2021-04-15T07:39:48Z</time>
      </trkpt>
      <trkpt lat="45.28893" lon="3.77065">
        <ele>1071</ele>
        <time>2021-04-15T07:39:49Z</time>
      </trkpt>
      <trkpt lat="45.28889" lon="3.77076">
        <ele>1071</ele>
        <time>2021-04-15T07:39:50Z</time>
      </trkpt>
      <trkpt lat="45.28886" lon="3.77081">
        <ele>1071</ele>
        <time>2021-04-15T07:39:52Z</time>
      </trkpt>
      <trkpt lat="45.2888" lon="3.77093">
        <ele>1071</ele>
        <time>2021-04-15T07:39:53Z</time>
      </trkpt>
      <trkpt lat="45.28877" lon="3.771">
        <ele>1071</ele>
        <time>2021-04-15T07:39:55Z</time>
      </trkpt>
      <trkpt lat="45.28875" lon="3.77107">
        <ele>1071</ele>
        <time>2021-04-15T07:39:56Z</time>
      </trkpt>
      <trkpt lat="45.28874" lon="3.77113">
        <ele>1071</ele>
        <time>2021-04-15T07:39:57Z</time>
      </trkpt>
      <trkpt lat="45.28872" lon="3.77119">
        <ele>1071</ele>
        <time>2021-04-15T07:39:58Z</time>
      </trkpt>
      <trkpt lat="45.28868" lon="3.77133">
        <ele>1071</ele>
        <time>2021-04-15T07:39:59Z</time>
      </trkpt>
      <trkpt lat="45.28864" lon="3.77148">
        <ele>1071</ele>
        <time>2021-04-15T07:40:01Z</time>
      </trkpt>
      <trkpt lat="45.2886" lon="3.77165">
        <ele>1072</ele>
        <time>2021-04-15T07:40:03Z</time>
      </trkpt>
      <trkpt lat="45.28855" lon="3.77184">
        <ele>1072</ele>
        <time>2021-04-15T07:40:05Z</time>
      </trkpt>
      <trkpt lat="45.28852" lon="3.77193">
        <ele>1072</ele>
        <time>2021-04-15T07:40:06Z</time>
      </trkpt>
      <trkpt lat="45.28848" lon="3.77215">
        <ele>1072</ele>
        <time>2021-04-15T07:40:08Z</time>
      </trkpt>
      <trkpt lat="45.28846" lon="3.77232">
        <ele>1072</ele>
        <time>2021-04-15T07:40:10Z</time>
      </trkpt>
      <trkpt lat="45.28843" lon="3.77251">
        <ele>1072</ele>
        <time>2021-04-15T07:40:12Z</time>
      </trkpt>
      <trkpt lat="45.28839" lon="3.7726">
        <ele>1071</ele>
        <time>2021-04-15T07:40:13Z</time>
      </trkpt>
      <trkpt lat="45.28838" lon="3.7727">
        <ele>1071</ele>
        <time>2021-04-15T07:40:14Z</time>
      </trkpt>
      <trkpt lat="45.28836" lon="3.77279">
        <ele>1071</ele>
        <time>2021-04-15T07:40:15Z</time>
      </trkpt>
      <trkpt lat="45.28834" lon="3.77288">
        <ele>1071</ele>
        <time>2021-04-15T07:40:16Z</time>
      </trkpt>
      <trkpt lat="45.28832" lon="3.77297">
        <ele>1071</ele>
        <time>2021-04-15T07:40:17Z</time>
      </trkpt>
      <trkpt lat="45.28829" lon="3.77306">
        <ele>1071</ele>
        <time>2021-04-15T07:40:18Z</time>
      </trkpt>
      <trkpt lat="45.28827" lon="3.77314">
        <ele>1071</ele>
        <time>2021-04-15T07:40:20Z</time>
      </trkpt>
      <trkpt lat="45.28825" lon="3.77322">
        <ele>1071</ele>
        <time>2021-04-15T07:40:21Z</time>
      </trkpt>
      <trkpt lat="45.28823" lon="3.7733">
        <ele>1071</ele>
        <time>2021-04-15T07:40:22Z</time>
      </trkpt>
      <trkpt lat="45.2882" lon="3.77338">
        <ele>1071</ele>
        <time>2021-04-15T07:40:23Z</time>
      </trkpt>
      <trkpt lat="45.28816" lon="3.77352">
        <ele>1071</ele>
        <time>2021-04-15T07:40:25Z</time>
      </trkpt>
      <trkpt lat="45.28814" lon="3.77358">
        <ele>1071</ele>
        <time>2021-04-15T07:40:26Z</time>
      </trkpt>
      <trkpt lat="45.2881" lon="3.7737">
        <ele>1071</ele>
        <time>2021-04-15T07:40:28Z</time>
      </trkpt>
      <trkpt lat="45.28807" lon="3.77383">
        <ele>1070</ele>
        <time>2021-04-15T07:40:30Z</time>
      </trkpt>
      <trkpt lat="45.28803" lon="3.77396">
        <ele>1070</ele>
        <time>2021-04-15T07:40:32Z</time>
      </trkpt>
      <trkpt lat="45.288" lon="3.77409">
        <ele>1070</ele>
        <time>2021-04-15T07:40:34Z</time>
      </trkpt>
      <trkpt lat="45.28795" lon="3.77422">
        <ele>1070</ele>
        <time>2021-04-15T07:40:36Z</time>
      </trkpt>
      <trkpt lat="45.2879" lon="3.77433">
        <ele>1069</ele>
        <time>2021-04-15T07:40:37Z</time>
      </trkpt>
      <trkpt lat="45.28783" lon="3.77446">
        <ele>1069</ele>
        <time>2021-04-15T07:40:40Z</time>
      </trkpt>
      <trkpt lat="45.28777" lon="3.77459">
        <ele>1068</ele>
        <time>2021-04-15T07:40:42Z</time>
      </trkpt>
      <trkpt lat="45.28771" lon="3.77473">
        <ele>1069</ele>
        <time>2021-04-15T07:40:44Z</time>
      </trkpt>
      <trkpt lat="45.28765" lon="3.77489">
        <ele>1069</ele>
        <time>2021-04-15T07:40:46Z</time>
      </trkpt>
      <trkpt lat="45.28762" lon="3.77495">
        <ele>1069</ele>
        <time>2021-04-15T07:40:47Z</time>
      </trkpt>
      <trkpt lat="45.28759" lon="3.77502">
        <ele>1069</ele>
        <time>2021-04-15T07:40:48Z</time>
      </trkpt>
      <trkpt lat="45.28756" lon="3.77509">
        <ele>1069</ele>
        <time>2021-04-15T07:40:49Z</time>
      </trkpt>
      <trkpt lat="45.28754" lon="3.77515">
        <ele>1069</ele>
        <time>2021-04-15T07:40:50Z</time>
      </trkpt>
      <trkpt lat="45.28748" lon="3.77525">
        <ele>1069</ele>
        <time>2021-04-15T07:40:51Z</time>
      </trkpt>
      <trkpt lat="45.28744" lon="3.77529">
        <ele>1068</ele>
        <time>2021-04-15T07:40:53Z</time>
      </trkpt>
      <trkpt lat="45.28741" lon="3.77533">
        <ele>1068</ele>
        <time>2021-04-15T07:40:54Z</time>
      </trkpt>
      <trkpt lat="45.28738" lon="3.77536">
        <ele>1068</ele>
        <time>2021-04-15T07:40:55Z</time>
      </trkpt>
      <trkpt lat="45.28732" lon="3.77542">
        <ele>1068</ele>
        <time>2021-04-15T07:40:56Z</time>
      </trkpt>
      <trkpt lat="45.28729" lon="3.77546">
        <ele>1068</ele>
        <time>2021-04-15T07:40:57Z</time>
      </trkpt>
      <trkpt lat="45.28727" lon="3.7755">
        <ele>1068</ele>
        <time>2021-04-15T07:40:58Z</time>
      </trkpt>
      <trkpt lat="45.28724" lon="3.77555">
        <ele>1068</ele>
        <time>2021-04-15T07:40:59Z</time>
      </trkpt>
      <trkpt lat="45.28722" lon="3.7756">
        <ele>1068</ele>
        <time>2021-04-15T07:41:00Z</time>
      </trkpt>
      <trkpt lat="45.2872" lon="3.77566">
        <ele>1068</ele>
        <time>2021-04-15T07:41:01Z</time>
      </trkpt>
      <trkpt lat="45.28718" lon="3.77572">
        <ele>1069</ele>
        <time>2021-04-15T07:41:02Z</time>
      </trkpt>
      <trkpt lat="45.28717" lon="3.77577">
        <ele>1069</ele>
        <time>2021-04-15T07:41:03Z</time>
      </trkpt>
      <trkpt lat="45.28713" lon="3.7759">
        <ele>1069</ele>
        <time>2021-04-15T07:41:06Z</time>
      </trkpt>
      <trkpt lat="45.2871" lon="3.77601">
        <ele>1069</ele>
        <time>2021-04-15T07:41:08Z</time>
      </trkpt>
      <trkpt lat="45.28709" lon="3.77607">
        <ele>1069</ele>
        <time>2021-04-15T07:41:09Z</time>
      </trkpt>
      <trkpt lat="45.28707" lon="3.77612">
        <ele>1069</ele>
        <time>2021-04-15T07:41:10Z</time>
      </trkpt>
      <trkpt lat="45.28703" lon="3.77619">
        <ele>1069</ele>
        <time>2021-04-15T07:41:11Z</time>
      </trkpt>
      <trkpt lat="45.28701" lon="3.77625">
        <ele>1068</ele>
        <time>2021-04-15T07:41:12Z</time>
      </trkpt>
      <trkpt lat="45.28699" lon="3.77631">
        <ele>1068</ele>
        <time>2021-04-15T07:41:13Z</time>
      </trkpt>
      <trkpt lat="45.28697" lon="3.77636">
        <ele>1068</ele>
        <time>2021-04-15T07:41:14Z</time>
      </trkpt>
      <trkpt lat="45.28695" lon="3.77642">
        <ele>1068</ele>
        <time>2021-04-15T07:41:15Z</time>
      </trkpt>
      <trkpt lat="45.28694" lon="3.77645">
        <ele>1068</ele>
        <time>2021-04-15T07:41:16Z</time>
      </trkpt>
      <trkpt lat="45.28692" lon="3.77649">
        <ele>1068</ele>
        <time>2021-04-15T07:41:17Z</time>
      </trkpt>
      <trkpt lat="45.28683" lon="3.77665">
        <ele>1068</ele>
        <time>2021-04-15T07:41:20Z</time>
      </trkpt>
      <trkpt lat="45.28676" lon="3.77677">
        <ele>1068</ele>
        <time>2021-04-15T07:41:22Z</time>
      </trkpt>
      <trkpt lat="45.28672" lon="3.77684">
        <ele>1068</ele>
        <time>2021-04-15T07:41:23Z</time>
      </trkpt>
      <trkpt lat="45.2867" lon="3.77691">
        <ele>1069</ele>
        <time>2021-04-15T07:41:24Z</time>
      </trkpt>
      <trkpt lat="45.28667" lon="3.77697">
        <ele>1069</ele>
        <time>2021-04-15T07:41:25Z</time>
      </trkpt>
      <trkpt lat="45.28666" lon="3.77704">
        <ele>1069</ele>
        <time>2021-04-15T07:41:26Z</time>
      </trkpt>
      <trkpt lat="45.28665" lon="3.7771">
        <ele>1069</ele>
        <time>2021-04-15T07:41:27Z</time>
      </trkpt>
      <trkpt lat="45.28664" lon="3.77716">
        <ele>1069</ele>
        <time>2021-04-15T07:41:28Z</time>
      </trkpt>
      <trkpt lat="45.28664" lon="3.77723">
        <ele>1069</ele>
        <time>2021-04-15T07:41:29Z</time>
      </trkpt>
      <trkpt lat="45.28664" lon="3.7774">
        <ele>1069</ele>
        <time>2021-04-15T07:41:31Z</time>
      </trkpt>
      <trkpt lat="45.28665" lon="3.77761">
        <ele>1069</ele>
        <time>2021-04-15T07:41:33Z</time>
      </trkpt>
      <trkpt lat="45.28665" lon="3.77782">
        <ele>1069</ele>
        <time>2021-04-15T07:41:35Z</time>
      </trkpt>
      <trkpt lat="45.28663" lon="3.77803">
        <ele>1069</ele>
        <time>2021-04-15T07:41:37Z</time>
      </trkpt>
      <trkpt lat="45.28659" lon="3.77826">
        <ele>1068</ele>
        <time>2021-04-15T07:41:39Z</time>
      </trkpt>
      <trkpt lat="45.28657" lon="3.7784">
        <ele>1068</ele>
        <time>2021-04-15T07:41:40Z</time>
      </trkpt>
      <trkpt lat="45.28656" lon="3.77855">
        <ele>1068</ele>
        <time>2021-04-15T07:41:41Z</time>
      </trkpt>
      <trkpt lat="45.28655" lon="3.7787">
        <ele>1068</ele>
        <time>2021-04-15T07:41:42Z</time>
      </trkpt>
      <trkpt lat="45.28654" lon="3.77884">
        <ele>1068</ele>
        <time>2021-04-15T07:41:43Z</time>
      </trkpt>
      <trkpt lat="45.28653" lon="3.77897">
        <ele>1067</ele>
        <time>2021-04-15T07:41:44Z</time>
      </trkpt>
      <trkpt lat="45.28652" lon="3.7791">
        <ele>1067</ele>
        <time>2021-04-15T07:41:45Z</time>
      </trkpt>
      <trkpt lat="45.28651" lon="3.77921">
        <ele>1066</ele>
        <time>2021-04-15T07:41:46Z</time>
      </trkpt>
      <trkpt lat="45.2865" lon="3.7793">
        <ele>1065</ele>
        <time>2021-04-15T07:41:47Z</time>
      </trkpt>
      <trkpt lat="45.28647" lon="3.77938">
        <ele>1065</ele>
        <time>2021-04-15T07:41:48Z</time>
      </trkpt>
      <trkpt lat="45.28643" lon="3.77942">
        <ele>1063</ele>
        <time>2021-04-15T07:41:49Z</time>
      </trkpt>
      <trkpt lat="45.28637" lon="3.77944">
        <ele>1061</ele>
        <time>2021-04-15T07:41:50Z</time>
      </trkpt>
      <trkpt lat="45.28632" lon="3.77947">
        <ele>1060</ele>
        <time>2021-04-15T07:41:51Z</time>
      </trkpt>
      <trkpt lat="45.28627" lon="3.77949">
        <ele>1059</ele>
        <time>2021-04-15T07:41:52Z</time>
      </trkpt>
      <trkpt lat="45.28621" lon="3.77951">
        <ele>1057</ele>
        <time>2021-04-15T07:41:53Z</time>
      </trkpt>
      <trkpt lat="45.28617" lon="3.77954">
        <ele>1056</ele>
        <time>2021-04-15T07:41:54Z</time>
      </trkpt>
      <trkpt lat="45.28614" lon="3.77959">
        <ele>1056</ele>
        <time>2021-04-15T07:41:55Z</time>
      </trkpt>
      <trkpt lat="45.28613" lon="3.77965">
        <ele>1056</ele>
        <time>2021-04-15T07:41:56Z</time>
      </trkpt>
      <trkpt lat="45.28613" lon="3.77972">
        <ele>1056</ele>
        <time>2021-04-15T07:41:57Z</time>
      </trkpt>
      <trkpt lat="45.28613" lon="3.77979">
        <ele>1056</ele>
        <time>2021-04-15T07:41:58Z</time>
      </trkpt>
      <trkpt lat="45.28613" lon="3.77986">
        <ele>1056</ele>
        <time>2021-04-15T07:41:59Z</time>
      </trkpt>
      <trkpt lat="45.28613" lon="3.77994">
        <ele>1056</ele>
        <time>2021-04-15T07:42:00Z</time>
      </trkpt>
      <trkpt lat="45.28614" lon="3.78002">
        <ele>1056</ele>
        <time>2021-04-15T07:42:01Z</time>
      </trkpt>
      <trkpt lat="45.28614" lon="3.7801">
        <ele>1055</ele>
        <time>2021-04-15T07:42:02Z</time>
      </trkpt>
      <trkpt lat="45.28615" lon="3.78019">
        <ele>1055</ele>
        <time>2021-04-15T07:42:03Z</time>
      </trkpt>
      <trkpt lat="45.28616" lon="3.78028">
        <ele>1055</ele>
        <time>2021-04-15T07:42:04Z</time>
      </trkpt>
      <trkpt lat="45.2862" lon="3.78038">
        <ele>1055</ele>
        <time>2021-04-15T07:42:05Z</time>
      </trkpt>
      <trkpt lat="45.28624" lon="3.78046">
        <ele>1055</ele>
        <time>2021-04-15T07:42:06Z</time>
      </trkpt>
      <trkpt lat="45.28628" lon="3.78054">
        <ele>1055</ele>
        <time>2021-04-15T07:42:07Z</time>
      </trkpt>
      <trkpt lat="45.28631" lon="3.78062">
        <ele>1055</ele>
        <time>2021-04-15T07:42:08Z</time>
      </trkpt>
      <trkpt lat="45.28635" lon="3.7807">
        <ele>1055</ele>
        <time>2021-04-15T07:42:09Z</time>
      </trkpt>
      <trkpt lat="45.28642" lon="3.78085">
        <ele>1055</ele>
        <time>2021-04-15T07:42:11Z</time>
      </trkpt>
      <trkpt lat="45.2865" lon="3.78099">
        <ele>1054</ele>
        <time>2021-04-15T07:42:13Z</time>
      </trkpt>
      <trkpt lat="45.28654" lon="3.78107">
        <ele>1054</ele>
        <time>2021-04-15T07:42:14Z</time>
      </trkpt>
      <trkpt lat="45.28658" lon="3.78114">
        <ele>1054</ele>
        <time>2021-04-15T07:42:15Z</time>
      </trkpt>
      <trkpt lat="45.28662" lon="3.7812">
        <ele>1054</ele>
        <time>2021-04-15T07:42:16Z</time>
      </trkpt>
      <trkpt lat="45.28665" lon="3.78125">
        <ele>1054</ele>
        <time>2021-04-15T07:42:17Z</time>
      </trkpt>
      <trkpt lat="45.28667" lon="3.7813">
        <ele>1054</ele>
        <time>2021-04-15T07:42:18Z</time>
      </trkpt>
      <trkpt lat="45.2867" lon="3.78134">
        <ele>1053</ele>
        <time>2021-04-15T07:42:19Z</time>
      </trkpt>
      <trkpt lat="45.28673" lon="3.78141">
        <ele>1052</ele>
        <time>2021-04-15T07:42:20Z</time>
      </trkpt>
      <trkpt lat="45.28677" lon="3.78148">
        <ele>1052</ele>
        <time>2021-04-15T07:42:21Z</time>
      </trkpt>
      <trkpt lat="45.2868" lon="3.78154">
        <ele>1052</ele>
        <time>2021-04-15T07:42:22Z</time>
      </trkpt>
      <trkpt lat="45.28683" lon="3.78161">
        <ele>1052</ele>
        <time>2021-04-15T07:42:23Z</time>
      </trkpt>
      <trkpt lat="45.28686" lon="3.78167">
        <ele>1052</ele>
        <time>2021-04-15T07:42:24Z</time>
      </trkpt>
      <trkpt lat="45.28689" lon="3.78173">
        <ele>1051</ele>
        <time>2021-04-15T07:42:25Z</time>
      </trkpt>
      <trkpt lat="45.28696" lon="3.78189">
        <ele>1051</ele>
        <time>2021-04-15T07:42:27Z</time>
      </trkpt>
      <trkpt lat="45.28698" lon="3.78199">
        <ele>1050</ele>
        <time>2021-04-15T07:42:28Z</time>
      </trkpt>
      <trkpt lat="45.28699" lon="3.78211">
        <ele>1050</ele>
        <time>2021-04-15T07:42:29Z</time>
      </trkpt>
      <trkpt lat="45.287" lon="3.78223">
        <ele>1049</ele>
        <time>2021-04-15T07:42:30Z</time>
      </trkpt>
      <trkpt lat="45.28701" lon="3.78235">
        <ele>1048</ele>
        <time>2021-04-15T07:42:31Z</time>
      </trkpt>
      <trkpt lat="45.28701" lon="3.78247">
        <ele>1047</ele>
        <time>2021-04-15T07:42:32Z</time>
      </trkpt>
      <trkpt lat="45.28702" lon="3.78258">
        <ele>1047</ele>
        <time>2021-04-15T07:42:33Z</time>
      </trkpt>
      <trkpt lat="45.28702" lon="3.78269">
        <ele>1047</ele>
        <time>2021-04-15T07:42:34Z</time>
      </trkpt>
      <trkpt lat="45.28703" lon="3.78281">
        <ele>1046</ele>
        <time>2021-04-15T07:42:35Z</time>
      </trkpt>
      <trkpt lat="45.28704" lon="3.78292">
        <ele>1045</ele>
        <time>2021-04-15T07:42:36Z</time>
      </trkpt>
      <trkpt lat="45.28705" lon="3.78302">
        <ele>1044</ele>
        <time>2021-04-15T07:42:37Z</time>
      </trkpt>
      <trkpt lat="45.28706" lon="3.78313">
        <ele>1043</ele>
        <time>2021-04-15T07:42:38Z</time>
      </trkpt>
      <trkpt lat="45.28708" lon="3.78323">
        <ele>1042</ele>
        <time>2021-04-15T07:42:39Z</time>
      </trkpt>
      <trkpt lat="45.2871" lon="3.78333">
        <ele>1041</ele>
        <time>2021-04-15T07:42:40Z</time>
      </trkpt>
      <trkpt lat="45.28712" lon="3.78342">
        <ele>1040</ele>
        <time>2021-04-15T07:42:41Z</time>
      </trkpt>
      <trkpt lat="45.28715" lon="3.78351">
        <ele>1039</ele>
        <time>2021-04-15T07:42:42Z</time>
      </trkpt>
      <trkpt lat="45.28718" lon="3.78359">
        <ele>1038</ele>
        <time>2021-04-15T07:42:43Z</time>
      </trkpt>
      <trkpt lat="45.28721" lon="3.78368">
        <ele>1038</ele>
        <time>2021-04-15T07:42:44Z</time>
      </trkpt>
      <trkpt lat="45.28724" lon="3.78375">
        <ele>1036</ele>
        <time>2021-04-15T07:42:45Z</time>
      </trkpt>
      <trkpt lat="45.28728" lon="3.78383">
        <ele>1035</ele>
        <time>2021-04-15T07:42:46Z</time>
      </trkpt>
      <trkpt lat="45.28733" lon="3.78389">
        <ele>1033</ele>
        <time>2021-04-15T07:42:47Z</time>
      </trkpt>
      <trkpt lat="45.28737" lon="3.78394">
        <ele>1032</ele>
        <time>2021-04-15T07:42:48Z</time>
      </trkpt>
      <trkpt lat="45.28742" lon="3.78399">
        <ele>1031</ele>
        <time>2021-04-15T07:42:49Z</time>
      </trkpt>
      <trkpt lat="45.28748" lon="3.78402">
        <ele>1031</ele>
        <time>2021-04-15T07:42:50Z</time>
      </trkpt>
      <trkpt lat="45.28753" lon="3.78405">
        <ele>1030</ele>
        <time>2021-04-15T07:42:51Z</time>
      </trkpt>
      <trkpt lat="45.28758" lon="3.78408">
        <ele>1030</ele>
        <time>2021-04-15T07:42:52Z</time>
      </trkpt>
      <trkpt lat="45.28763" lon="3.7841">
        <ele>1029</ele>
        <time>2021-04-15T07:42:53Z</time>
      </trkpt>
      <trkpt lat="45.28768" lon="3.78412">
        <ele>1029</ele>
        <time>2021-04-15T07:42:54Z</time>
      </trkpt>
      <trkpt lat="45.28774" lon="3.78415">
        <ele>1029</ele>
        <time>2021-04-15T07:42:55Z</time>
      </trkpt>
      <trkpt lat="45.2878" lon="3.78417">
        <ele>1028</ele>
        <time>2021-04-15T07:42:56Z</time>
      </trkpt>
      <trkpt lat="45.28786" lon="3.78419">
        <ele>1028</ele>
        <time>2021-04-15T07:42:57Z</time>
      </trkpt>
      <trkpt lat="45.28792" lon="3.78422">
        <ele>1027</ele>
        <time>2021-04-15T07:42:58Z</time>
      </trkpt>
      <trkpt lat="45.28797" lon="3.78425">
        <ele>1026</ele>
        <time>2021-04-15T07:42:59Z</time>
      </trkpt>
      <trkpt lat="45.288" lon="3.78427">
        <ele>1026</ele>
        <time>2021-04-15T07:43:00Z</time>
      </trkpt>
      <trkpt lat="45.28803" lon="3.78428">
        <ele>1026</ele>
        <time>2021-04-15T07:43:01Z</time>
      </trkpt>
      <trkpt lat="45.28804" lon="3.78429">
        <ele>1026</ele>
        <time>2021-04-15T07:43:02Z</time>
      </trkpt>
      <trkpt lat="45.28806" lon="3.78432">
        <ele>1025</ele>
        <time>2021-04-15T07:43:04Z</time>
      </trkpt>
      <trkpt lat="45.28807" lon="3.78433">
        <ele>1024</ele>
        <time>2021-04-15T07:43:10Z</time>
      </trkpt>
      <trkpt lat="45.2881" lon="3.78435">
        <ele>1022</ele>
        <time>2021-04-15T07:43:17Z</time>
      </trkpt>
      <trkpt lat="45.2881" lon="3.78436">
        <ele>1022</ele>
        <time>2021-04-15T07:43:18Z</time>
      </trkpt>
      <trkpt lat="45.28807" lon="3.78439">
        <ele>1022</ele>
        <time>2021-04-15T07:43:27Z</time>
      </trkpt>
      <trkpt lat="45.28803" lon="3.78444">
        <ele>1022</ele>
        <time>2021-04-15T07:43:28Z</time>
      </trkpt>
      <trkpt lat="45.28802" lon="3.78447">
        <ele>1021</ele>
        <time>2021-04-15T07:43:30Z</time>
      </trkpt>
      <trkpt lat="45.288" lon="3.7845">
        <ele>1021</ele>
        <time>2021-04-15T07:43:31Z</time>
      </trkpt>
      <trkpt lat="45.28798" lon="3.78453">
        <ele>1021</ele>
        <time>2021-04-15T07:43:32Z</time>
      </trkpt>
      <trkpt lat="45.28795" lon="3.78456">
        <ele>1021</ele>
        <time>2021-04-15T07:43:33Z</time>
      </trkpt>
      <trkpt lat="45.28789" lon="3.78462">
        <ele>1021</ele>
        <time>2021-04-15T07:43:34Z</time>
      </trkpt>
      <trkpt lat="45.28786" lon="3.78465">
        <ele>1021</ele>
        <time>2021-04-15T07:43:36Z</time>
      </trkpt>
      <trkpt lat="45.28781" lon="3.78471">
        <ele>1021</ele>
        <time>2021-04-15T07:43:37Z</time>
      </trkpt>
      <trkpt lat="45.28779" lon="3.78474">
        <ele>1020</ele>
        <time>2021-04-15T07:43:39Z</time>
      </trkpt>
      <trkpt lat="45.28776" lon="3.78476">
        <ele>1019</ele>
        <time>2021-04-15T07:43:40Z</time>
      </trkpt>
      <trkpt lat="45.28773" lon="3.78479">
        <ele>1018</ele>
        <time>2021-04-15T07:43:41Z</time>
      </trkpt>
      <trkpt lat="45.28766" lon="3.78485">
        <ele>1018</ele>
        <time>2021-04-15T07:43:42Z</time>
      </trkpt>
      <trkpt lat="45.28763" lon="3.78489">
        <ele>1018</ele>
        <time>2021-04-15T07:43:44Z</time>
      </trkpt>
      <trkpt lat="45.2876" lon="3.78493">
        <ele>1018</ele>
        <time>2021-04-15T07:43:45Z</time>
      </trkpt>
      <trkpt lat="45.28756" lon="3.78496">
        <ele>1018</ele>
        <time>2021-04-15T07:43:46Z</time>
      </trkpt>
      <trkpt lat="45.28749" lon="3.78502">
        <ele>1018</ele>
        <time>2021-04-15T07:43:47Z</time>
      </trkpt>
      <trkpt lat="45.28746" lon="3.78506">
        <ele>1018</ele>
        <time>2021-04-15T07:43:48Z</time>
      </trkpt>
      <trkpt lat="45.28742" lon="3.78509">
        <ele>1017</ele>
        <time>2021-04-15T07:43:49Z</time>
      </trkpt>
      <trkpt lat="45.28738" lon="3.78511">
        <ele>1017</ele>
        <time>2021-04-15T07:43:50Z</time>
      </trkpt>
      <trkpt lat="45.28734" lon="3.78513">
        <ele>1017</ele>
        <time>2021-04-15T07:43:51Z</time>
      </trkpt>
      <trkpt lat="45.2873" lon="3.78516">
        <ele>1017</ele>
        <time>2021-04-15T07:43:52Z</time>
      </trkpt>
      <trkpt lat="45.28725" lon="3.78518">
        <ele>1017</ele>
        <time>2021-04-15T07:43:53Z</time>
      </trkpt>
      <trkpt lat="45.28721" lon="3.78521">
        <ele>1017</ele>
        <time>2021-04-15T07:43:54Z</time>
      </trkpt>
      <trkpt lat="45.28718" lon="3.78523">
        <ele>1017</ele>
        <time>2021-04-15T07:43:55Z</time>
      </trkpt>
      <trkpt lat="45.28715" lon="3.78525">
        <ele>1016</ele>
        <time>2021-04-15T07:43:56Z</time>
      </trkpt>
      <trkpt lat="45.28713" lon="3.78529">
        <ele>1016</ele>
        <time>2021-04-15T07:43:57Z</time>
      </trkpt>
      <trkpt lat="45.28713" lon="3.78533">
        <ele>1016</ele>
        <time>2021-04-15T07:43:58Z</time>
      </trkpt>
      <trkpt lat="45.28712" lon="3.78538">
        <ele>1016</ele>
        <time>2021-04-15T07:43:59Z</time>
      </trkpt>
      <trkpt lat="45.28712" lon="3.78543">
        <ele>1016</ele>
        <time>2021-04-15T07:44:00Z</time>
      </trkpt>
      <trkpt lat="45.28712" lon="3.7855">
        <ele>1016</ele>
        <time>2021-04-15T07:44:01Z</time>
      </trkpt>
      <trkpt lat="45.28712" lon="3.78555">
        <ele>1016</ele>
        <time>2021-04-15T07:44:02Z</time>
      </trkpt>
      <trkpt lat="45.28712" lon="3.78561">
        <ele>1016</ele>
        <time>2021-04-15T07:44:03Z</time>
      </trkpt>
      <trkpt lat="45.28712" lon="3.78565">
        <ele>1016</ele>
        <time>2021-04-15T07:44:04Z</time>
      </trkpt>
      <trkpt lat="45.28711" lon="3.78569">
        <ele>1016</ele>
        <time>2021-04-15T07:44:05Z</time>
      </trkpt>
      <trkpt lat="45.28711" lon="3.78573">
        <ele>1016</ele>
        <time>2021-04-15T07:44:06Z</time>
      </trkpt>
      <trkpt lat="45.2871" lon="3.78576">
        <ele>1016</ele>
        <time>2021-04-15T07:44:08Z</time>
      </trkpt>
      <trkpt lat="45.28711" lon="3.78583">
        <ele>1016</ele>
        <time>2021-04-15T07:44:10Z</time>
      </trkpt>
      <trkpt lat="45.28708" lon="3.78593">
        <ele>1016</ele>
        <time>2021-04-15T07:44:11Z</time>
      </trkpt>
      <trkpt lat="45.28707" lon="3.78598">
        <ele>1016</ele>
        <time>2021-04-15T07:44:13Z</time>
      </trkpt>
      <trkpt lat="45.28705" lon="3.78604">
        <ele>1016</ele>
        <time>2021-04-15T07:44:14Z</time>
      </trkpt>
      <trkpt lat="45.28703" lon="3.78614">
        <ele>1016</ele>
        <time>2021-04-15T07:44:15Z</time>
      </trkpt>
      <trkpt lat="45.28701" lon="3.7862">
        <ele>1016</ele>
        <time>2021-04-15T07:44:17Z</time>
      </trkpt>
      <trkpt lat="45.287" lon="3.78626">
        <ele>1015</ele>
        <time>2021-04-15T07:44:18Z</time>
      </trkpt>
      <trkpt lat="45.28699" lon="3.78633">
        <ele>1015</ele>
        <time>2021-04-15T07:44:19Z</time>
      </trkpt>
      <trkpt lat="45.28697" lon="3.78639">
        <ele>1015</ele>
        <time>2021-04-15T07:44:20Z</time>
      </trkpt>
      <trkpt lat="45.28694" lon="3.78645">
        <ele>1015</ele>
        <time>2021-04-15T07:44:21Z</time>
      </trkpt>
      <trkpt lat="45.2869" lon="3.7865">
        <ele>1015</ele>
        <time>2021-04-15T07:44:22Z</time>
      </trkpt>
      <trkpt lat="45.28685" lon="3.78655">
        <ele>1015</ele>
        <time>2021-04-15T07:44:23Z</time>
      </trkpt>
      <trkpt lat="45.2868" lon="3.78658">
        <ele>1014</ele>
        <time>2021-04-15T07:44:24Z</time>
      </trkpt>
      <trkpt lat="45.28672" lon="3.78665">
        <ele>1014</ele>
        <time>2021-04-15T07:44:25Z</time>
      </trkpt>
      <trkpt lat="45.2867" lon="3.78669">
        <ele>1013</ele>
        <time>2021-04-15T07:44:27Z</time>
      </trkpt>
      <trkpt lat="45.28667" lon="3.78673">
        <ele>1012</ele>
        <time>2021-04-15T07:44:28Z</time>
      </trkpt>
      <trkpt lat="45.28665" lon="3.78677">
        <ele>1012</ele>
        <time>2021-04-15T07:44:29Z</time>
      </trkpt>
      <trkpt lat="45.28664" lon="3.78681">
        <ele>1012</ele>
        <time>2021-04-15T07:44:30Z</time>
      </trkpt>
      <trkpt lat="45.28662" lon="3.78685">
        <ele>1012</ele>
        <time>2021-04-15T07:44:31Z</time>
      </trkpt>
      <trkpt lat="45.2866" lon="3.78688">
        <ele>1012</ele>
        <time>2021-04-15T07:44:32Z</time>
      </trkpt>
      <trkpt lat="45.28659" lon="3.78691">
        <ele>1012</ele>
        <time>2021-04-15T07:44:33Z</time>
      </trkpt>
      <trkpt lat="45.28658" lon="3.78694">
        <ele>1012</ele>
        <time>2021-04-15T07:44:34Z</time>
      </trkpt>
      <trkpt lat="45.28657" lon="3.78698">
        <ele>1012</ele>
        <time>2021-04-15T07:44:35Z</time>
      </trkpt>
      <trkpt lat="45.28656" lon="3.78703">
        <ele>1012</ele>
        <time>2021-04-15T07:44:36Z</time>
      </trkpt>
      <trkpt lat="45.28656" lon="3.78707">
        <ele>1012</ele>
        <time>2021-04-15T07:44:37Z</time>
      </trkpt>
      <trkpt lat="45.28656" lon="3.78712">
        <ele>1012</ele>
        <time>2021-04-15T07:44:38Z</time>
      </trkpt>
      <trkpt lat="45.28657" lon="3.78716">
        <ele>1012</ele>
        <time>2021-04-15T07:44:39Z</time>
      </trkpt>
      <trkpt lat="45.28657" lon="3.7872">
        <ele>1012</ele>
        <time>2021-04-15T07:44:40Z</time>
      </trkpt>
      <trkpt lat="45.28656" lon="3.78728">
        <ele>1011</ele>
        <time>2021-04-15T07:44:41Z</time>
      </trkpt>
      <trkpt lat="45.28655" lon="3.78732">
        <ele>1011</ele>
        <time>2021-04-15T07:44:43Z</time>
      </trkpt>
      <trkpt lat="45.28654" lon="3.78741">
        <ele>1011</ele>
        <time>2021-04-15T07:44:44Z</time>
      </trkpt>
      <trkpt lat="45.28654" lon="3.78746">
        <ele>1011</ele>
        <time>2021-04-15T07:44:45Z</time>
      </trkpt>
      <trkpt lat="45.28654" lon="3.78752">
        <ele>1011</ele>
        <time>2021-04-15T07:44:46Z</time>
      </trkpt>
      <trkpt lat="45.28654" lon="3.78758">
        <ele>1011</ele>
        <time>2021-04-15T07:44:47Z</time>
      </trkpt>
      <trkpt lat="45.28655" lon="3.78764">
        <ele>1011</ele>
        <time>2021-04-15T07:44:48Z</time>
      </trkpt>
      <trkpt lat="45.28655" lon="3.78771">
        <ele>1010</ele>
        <time>2021-04-15T07:44:49Z</time>
      </trkpt>
      <trkpt lat="45.28656" lon="3.78778">
        <ele>1010</ele>
        <time>2021-04-15T07:44:50Z</time>
      </trkpt>
      <trkpt lat="45.28657" lon="3.78786">
        <ele>1010</ele>
        <time>2021-04-15T07:44:51Z</time>
      </trkpt>
      <trkpt lat="45.28657" lon="3.78793">
        <ele>1009</ele>
        <time>2021-04-15T07:44:52Z</time>
      </trkpt>
      <trkpt lat="45.28658" lon="3.788">
        <ele>1009</ele>
        <time>2021-04-15T07:44:53Z</time>
      </trkpt>
      <trkpt lat="45.28659" lon="3.78808">
        <ele>1009</ele>
        <time>2021-04-15T07:44:55Z</time>
      </trkpt>
      <trkpt lat="45.28661" lon="3.78816">
        <ele>1009</ele>
        <time>2021-04-15T07:44:56Z</time>
      </trkpt>
      <trkpt lat="45.28662" lon="3.78825">
        <ele>1009</ele>
        <time>2021-04-15T07:44:57Z</time>
      </trkpt>
      <trkpt lat="45.28663" lon="3.78842">
        <ele>1008</ele>
        <time>2021-04-15T07:44:58Z</time>
      </trkpt>
      <trkpt lat="45.28664" lon="3.7885">
        <ele>1008</ele>
        <time>2021-04-15T07:44:59Z</time>
      </trkpt>
      <trkpt lat="45.28664" lon="3.78859">
        <ele>1007</ele>
        <time>2021-04-15T07:45:00Z</time>
      </trkpt>
      <trkpt lat="45.28662" lon="3.78866">
        <ele>1007</ele>
        <time>2021-04-15T07:45:01Z</time>
      </trkpt>
      <trkpt lat="45.2866" lon="3.78872">
        <ele>1006</ele>
        <time>2021-04-15T07:45:02Z</time>
      </trkpt>
      <trkpt lat="45.28657" lon="3.78878">
        <ele>1006</ele>
        <time>2021-04-15T07:45:03Z</time>
      </trkpt>
      <trkpt lat="45.28654" lon="3.78884">
        <ele>1005</ele>
        <time>2021-04-15T07:45:04Z</time>
      </trkpt>
      <trkpt lat="45.28652" lon="3.78892">
        <ele>1004</ele>
        <time>2021-04-15T07:45:05Z</time>
      </trkpt>
      <trkpt lat="45.28649" lon="3.78899">
        <ele>1004</ele>
        <time>2021-04-15T07:45:06Z</time>
      </trkpt>
      <trkpt lat="45.28647" lon="3.78908">
        <ele>1003</ele>
        <time>2021-04-15T07:45:07Z</time>
      </trkpt>
      <trkpt lat="45.28645" lon="3.78917">
        <ele>1003</ele>
        <time>2021-04-15T07:45:08Z</time>
      </trkpt>
      <trkpt lat="45.28643" lon="3.78926">
        <ele>1002</ele>
        <time>2021-04-15T07:45:09Z</time>
      </trkpt>
      <trkpt lat="45.28641" lon="3.78936">
        <ele>1001</ele>
        <time>2021-04-15T07:45:10Z</time>
      </trkpt>
      <trkpt lat="45.2864" lon="3.78947">
        <ele>1001</ele>
        <time>2021-04-15T07:45:11Z</time>
      </trkpt>
      <trkpt lat="45.28638" lon="3.78958">
        <ele>1000</ele>
        <time>2021-04-15T07:45:12Z</time>
      </trkpt>
      <trkpt lat="45.28636" lon="3.78968">
        <ele>1000</ele>
        <time>2021-04-15T07:45:13Z</time>
      </trkpt>
      <trkpt lat="45.28634" lon="3.7898">
        <ele>1000</ele>
        <time>2021-04-15T07:45:14Z</time>
      </trkpt>
      <trkpt lat="45.28632" lon="3.78991">
        <ele>999</ele>
        <time>2021-04-15T07:45:15Z</time>
      </trkpt>
      <trkpt lat="45.28631" lon="3.79002">
        <ele>999</ele>
        <time>2021-04-15T07:45:16Z</time>
      </trkpt>
      <trkpt lat="45.28629" lon="3.79014">
        <ele>998</ele>
        <time>2021-04-15T07:45:17Z</time>
      </trkpt>
      <trkpt lat="45.28627" lon="3.79025">
        <ele>997</ele>
        <time>2021-04-15T07:45:18Z</time>
      </trkpt>
      <trkpt lat="45.28625" lon="3.79035">
        <ele>997</ele>
        <time>2021-04-15T07:45:19Z</time>
      </trkpt>
      <trkpt lat="45.28624" lon="3.79044">
        <ele>996</ele>
        <time>2021-04-15T07:45:20Z</time>
      </trkpt>
      <trkpt lat="45.28622" lon="3.79052">
        <ele>996</ele>
        <time>2021-04-15T07:45:21Z</time>
      </trkpt>
      <trkpt lat="45.2862" lon="3.79058">
        <ele>996</ele>
        <time>2021-04-15T07:45:22Z</time>
      </trkpt>
      <trkpt lat="45.28619" lon="3.79064">
        <ele>996</ele>
        <time>2021-04-15T07:45:23Z</time>
      </trkpt>
      <trkpt lat="45.28618" lon="3.7907">
        <ele>995</ele>
        <time>2021-04-15T07:45:24Z</time>
      </trkpt>
      <trkpt lat="45.28617" lon="3.79076">
        <ele>995</ele>
        <time>2021-04-15T07:45:25Z</time>
      </trkpt>
      <trkpt lat="45.28616" lon="3.7908">
        <ele>995</ele>
        <time>2021-04-15T07:45:26Z</time>
      </trkpt>
      <trkpt lat="45.28614" lon="3.79085">
        <ele>995</ele>
        <time>2021-04-15T07:45:27Z</time>
      </trkpt>
      <trkpt lat="45.28614" lon="3.79089">
        <ele>995</ele>
        <time>2021-04-15T07:45:28Z</time>
      </trkpt>
      <trkpt lat="45.28613" lon="3.79095">
        <ele>994</ele>
        <time>2021-04-15T07:45:29Z</time>
      </trkpt>
      <trkpt lat="45.28612" lon="3.79102">
        <ele>994</ele>
        <time>2021-04-15T07:45:30Z</time>
      </trkpt>
      <trkpt lat="45.28611" lon="3.79109">
        <ele>994</ele>
        <time>2021-04-15T07:45:31Z</time>
      </trkpt>
      <trkpt lat="45.2861" lon="3.79116">
        <ele>993</ele>
        <time>2021-04-15T07:45:32Z</time>
      </trkpt>
      <trkpt lat="45.28609" lon="3.79124">
        <ele>993</ele>
        <time>2021-04-15T07:45:33Z</time>
      </trkpt>
      <trkpt lat="45.28609" lon="3.79131">
        <ele>993</ele>
        <time>2021-04-15T07:45:34Z</time>
      </trkpt>
      <trkpt lat="45.28608" lon="3.79139">
        <ele>993</ele>
        <time>2021-04-15T07:45:35Z</time>
      </trkpt>
      <trkpt lat="45.28607" lon="3.79146">
        <ele>992</ele>
        <time>2021-04-15T07:45:36Z</time>
      </trkpt>
      <trkpt lat="45.28606" lon="3.79153">
        <ele>992</ele>
        <time>2021-04-15T07:45:37Z</time>
      </trkpt>
      <trkpt lat="45.28605" lon="3.79161">
        <ele>992</ele>
        <time>2021-04-15T07:45:38Z</time>
      </trkpt>
      <trkpt lat="45.28604" lon="3.79168">
        <ele>991</ele>
        <time>2021-04-15T07:45:39Z</time>
      </trkpt>
      <trkpt lat="45.28602" lon="3.79176">
        <ele>990</ele>
        <time>2021-04-15T07:45:40Z</time>
      </trkpt>
      <trkpt lat="45.28602" lon="3.79183">
        <ele>989</ele>
        <time>2021-04-15T07:45:41Z</time>
      </trkpt>
      <trkpt lat="45.28601" lon="3.7919">
        <ele>989</ele>
        <time>2021-04-15T07:45:42Z</time>
      </trkpt>
      <trkpt lat="45.286" lon="3.79198">
        <ele>988</ele>
        <time>2021-04-15T07:45:43Z</time>
      </trkpt>
      <trkpt lat="45.28599" lon="3.79206">
        <ele>988</ele>
        <time>2021-04-15T07:45:44Z</time>
      </trkpt>
      <trkpt lat="45.28598" lon="3.79214">
        <ele>987</ele>
        <time>2021-04-15T07:45:45Z</time>
      </trkpt>
      <trkpt lat="45.28597" lon="3.79221">
        <ele>987</ele>
        <time>2021-04-15T07:45:46Z</time>
      </trkpt>
      <trkpt lat="45.28596" lon="3.7923">
        <ele>986</ele>
        <time>2021-04-15T07:45:47Z</time>
      </trkpt>
      <trkpt lat="45.28595" lon="3.79238">
        <ele>986</ele>
        <time>2021-04-15T07:45:48Z</time>
      </trkpt>
      <trkpt lat="45.28595" lon="3.79247">
        <ele>985</ele>
        <time>2021-04-15T07:45:49Z</time>
      </trkpt>
      <trkpt lat="45.28595" lon="3.79256">
        <ele>985</ele>
        <time>2021-04-15T07:45:50Z</time>
      </trkpt>
      <trkpt lat="45.28597" lon="3.79265">
        <ele>984</ele>
        <time>2021-04-15T07:45:51Z</time>
      </trkpt>
      <trkpt lat="45.286" lon="3.79273">
        <ele>984</ele>
        <time>2021-04-15T07:45:52Z</time>
      </trkpt>
      <trkpt lat="45.28604" lon="3.79281">
        <ele>984</ele>
        <time>2021-04-15T07:45:53Z</time>
      </trkpt>
      <trkpt lat="45.28608" lon="3.79289">
        <ele>983</ele>
        <time>2021-04-15T07:45:54Z</time>
      </trkpt>
      <trkpt lat="45.28612" lon="3.79296">
        <ele>983</ele>
        <time>2021-04-15T07:45:55Z</time>
      </trkpt>
      <trkpt lat="45.28616" lon="3.79303">
        <ele>983</ele>
        <time>2021-04-15T07:45:56Z</time>
      </trkpt>
      <trkpt lat="45.2862" lon="3.79309">
        <ele>982</ele>
        <time>2021-04-15T07:45:57Z</time>
      </trkpt>
      <trkpt lat="45.28623" lon="3.79316">
        <ele>982</ele>
        <time>2021-04-15T07:45:58Z</time>
      </trkpt>
      <trkpt lat="45.28625" lon="3.79324">
        <ele>982</ele>
        <time>2021-04-15T07:45:59Z</time>
      </trkpt>
      <trkpt lat="45.28628" lon="3.79332">
        <ele>981</ele>
        <time>2021-04-15T07:46:00Z</time>
      </trkpt>
      <trkpt lat="45.2863" lon="3.7934">
        <ele>981</ele>
        <time>2021-04-15T07:46:01Z</time>
      </trkpt>
      <trkpt lat="45.28631" lon="3.79349">
        <ele>980</ele>
        <time>2021-04-15T07:46:02Z</time>
      </trkpt>
      <trkpt lat="45.28633" lon="3.79358">
        <ele>980</ele>
        <time>2021-04-15T07:46:03Z</time>
      </trkpt>
      <trkpt lat="45.28635" lon="3.79366">
        <ele>979</ele>
        <time>2021-04-15T07:46:04Z</time>
      </trkpt>
      <trkpt lat="45.28636" lon="3.79374">
        <ele>979</ele>
        <time>2021-04-15T07:46:05Z</time>
      </trkpt>
      <trkpt lat="45.28638" lon="3.79382">
        <ele>978</ele>
        <time>2021-04-15T07:46:06Z</time>
      </trkpt>
      <trkpt lat="45.28639" lon="3.79391">
        <ele>978</ele>
        <time>2021-04-15T07:46:07Z</time>
      </trkpt>
      <trkpt lat="45.28641" lon="3.79399">
        <ele>978</ele>
        <time>2021-04-15T07:46:08Z</time>
      </trkpt>
      <trkpt lat="45.28642" lon="3.79408">
        <ele>977</ele>
        <time>2021-04-15T07:46:09Z</time>
      </trkpt>
      <trkpt lat="45.28643" lon="3.79416">
        <ele>977</ele>
        <time>2021-04-15T07:46:10Z</time>
      </trkpt>
      <trkpt lat="45.28643" lon="3.79425">
        <ele>976</ele>
        <time>2021-04-15T07:46:11Z</time>
      </trkpt>
      <trkpt lat="45.28644" lon="3.79434">
        <ele>975</ele>
        <time>2021-04-15T07:46:12Z</time>
      </trkpt>
      <trkpt lat="45.28645" lon="3.79442">
        <ele>975</ele>
        <time>2021-04-15T07:46:13Z</time>
      </trkpt>
      <trkpt lat="45.28645" lon="3.79451">
        <ele>974</ele>
        <time>2021-04-15T07:46:14Z</time>
      </trkpt>
      <trkpt lat="45.28646" lon="3.7946">
        <ele>974</ele>
        <time>2021-04-15T07:46:15Z</time>
      </trkpt>
      <trkpt lat="45.28646" lon="3.79469">
        <ele>973</ele>
        <time>2021-04-15T07:46:16Z</time>
      </trkpt>
      <trkpt lat="45.28647" lon="3.79478">
        <ele>973</ele>
        <time>2021-04-15T07:46:17Z</time>
      </trkpt>
      <trkpt lat="45.28647" lon="3.79487">
        <ele>972</ele>
        <time>2021-04-15T07:46:18Z</time>
      </trkpt>
      <trkpt lat="45.28647" lon="3.79495">
        <ele>972</ele>
        <time>2021-04-15T07:46:19Z</time>
      </trkpt>
      <trkpt lat="45.28648" lon="3.79504">
        <ele>971</ele>
        <time>2021-04-15T07:46:21Z</time>
      </trkpt>
      <trkpt lat="45.28648" lon="3.79513">
        <ele>970</ele>
        <time>2021-04-15T07:46:22Z</time>
      </trkpt>
      <trkpt lat="45.28648" lon="3.79522">
        <ele>970</ele>
        <time>2021-04-15T07:46:23Z</time>
      </trkpt>
      <trkpt lat="45.28649" lon="3.7954">
        <ele>969</ele>
        <time>2021-04-15T07:46:24Z</time>
      </trkpt>
      <trkpt lat="45.28649" lon="3.79558">
        <ele>968</ele>
        <time>2021-04-15T07:46:26Z</time>
      </trkpt>
      <trkpt lat="45.2865" lon="3.79566">
        <ele>968</ele>
        <time>2021-04-15T07:46:28Z</time>
      </trkpt>
      <trkpt lat="45.2865" lon="3.79575">
        <ele>967</ele>
        <time>2021-04-15T07:46:29Z</time>
      </trkpt>
      <trkpt lat="45.28651" lon="3.79584">
        <ele>967</ele>
        <time>2021-04-15T07:46:30Z</time>
      </trkpt>
      <trkpt lat="45.28653" lon="3.79601">
        <ele>966</ele>
        <time>2021-04-15T07:46:31Z</time>
      </trkpt>
      <trkpt lat="45.28654" lon="3.7961">
        <ele>965</ele>
        <time>2021-04-15T07:46:33Z</time>
      </trkpt>
      <trkpt lat="45.28658" lon="3.79627">
        <ele>965</ele>
        <time>2021-04-15T07:46:34Z</time>
      </trkpt>
      <trkpt lat="45.28661" lon="3.79636">
        <ele>964</ele>
        <time>2021-04-15T07:46:36Z</time>
      </trkpt>
      <trkpt lat="45.28663" lon="3.79645">
        <ele>963</ele>
        <time>2021-04-15T07:46:37Z</time>
      </trkpt>
      <trkpt lat="45.28668" lon="3.79664">
        <ele>963</ele>
        <time>2021-04-15T07:46:38Z</time>
      </trkpt>
      <trkpt lat="45.2867" lon="3.79674">
        <ele>962</ele>
        <time>2021-04-15T07:46:40Z</time>
      </trkpt>
      <trkpt lat="45.28674" lon="3.79693">
        <ele>961</ele>
        <time>2021-04-15T07:46:41Z</time>
      </trkpt>
      <trkpt lat="45.28677" lon="3.79703">
        <ele>960</ele>
        <time>2021-04-15T07:46:43Z</time>
      </trkpt>
      <trkpt lat="45.28679" lon="3.79713">
        <ele>960</ele>
        <time>2021-04-15T07:46:44Z</time>
      </trkpt>
      <trkpt lat="45.28682" lon="3.79723">
        <ele>960</ele>
        <time>2021-04-15T07:46:45Z</time>
      </trkpt>
      <trkpt lat="45.28685" lon="3.79734">
        <ele>959</ele>
        <time>2021-04-15T07:46:46Z</time>
      </trkpt>
      <trkpt lat="45.28687" lon="3.79744">
        <ele>959</ele>
        <time>2021-04-15T07:46:47Z</time>
      </trkpt>
      <trkpt lat="45.28692" lon="3.79764">
        <ele>958</ele>
        <time>2021-04-15T07:46:48Z</time>
      </trkpt>
      <trkpt lat="45.28694" lon="3.79774">
        <ele>957</ele>
        <time>2021-04-15T07:46:50Z</time>
      </trkpt>
      <trkpt lat="45.28697" lon="3.79784">
        <ele>957</ele>
        <time>2021-04-15T07:46:51Z</time>
      </trkpt>
      <trkpt lat="45.28699" lon="3.79794">
        <ele>957</ele>
        <time>2021-04-15T07:46:52Z</time>
      </trkpt>
      <trkpt lat="45.28702" lon="3.79804">
        <ele>957</ele>
        <time>2021-04-15T07:46:53Z</time>
      </trkpt>
      <trkpt lat="45.28706" lon="3.79824">
        <ele>956</ele>
        <time>2021-04-15T07:46:54Z</time>
      </trkpt>
      <trkpt lat="45.28709" lon="3.79833">
        <ele>956</ele>
        <time>2021-04-15T07:46:56Z</time>
      </trkpt>
      <trkpt lat="45.28713" lon="3.79853">
        <ele>956</ele>
        <time>2021-04-15T07:46:57Z</time>
      </trkpt>
      <trkpt lat="45.28716" lon="3.79863">
        <ele>955</ele>
        <time>2021-04-15T07:46:59Z</time>
      </trkpt>
      <trkpt lat="45.28718" lon="3.79872">
        <ele>955</ele>
        <time>2021-04-15T07:47:00Z</time>
      </trkpt>
      <trkpt lat="45.28723" lon="3.7989">
        <ele>955</ele>
        <time>2021-04-15T07:47:01Z</time>
      </trkpt>
      <trkpt lat="45.28725" lon="3.79899">
        <ele>955</ele>
        <time>2021-04-15T07:47:03Z</time>
      </trkpt>
      <trkpt lat="45.2873" lon="3.79916">
        <ele>955</ele>
        <time>2021-04-15T07:47:04Z</time>
      </trkpt>
      <trkpt lat="45.28732" lon="3.79924">
        <ele>954</ele>
        <time>2021-04-15T07:47:06Z</time>
      </trkpt>
      <trkpt lat="45.28733" lon="3.79929">
        <ele>954</ele>
        <time>2021-04-15T07:47:07Z</time>
      </trkpt>
      <trkpt lat="45.28734" lon="3.79931">
        <ele>955</ele>
        <time>2021-04-15T07:47:09Z</time>
      </trkpt>
      <trkpt lat="45.28735" lon="3.79931">
        <ele>955</ele>
        <time>2021-04-15T07:47:15Z</time>
      </trkpt>
      <trkpt lat="45.28733" lon="3.79934">
        <ele>954</ele>
        <time>2021-04-15T07:49:14Z</time>
      </trkpt>
      <trkpt lat="45.28733" lon="3.79939">
        <ele>955</ele>
        <time>2021-04-15T07:49:15Z</time>
      </trkpt>
      <trkpt lat="45.28732" lon="3.79942">
        <ele>955</ele>
        <time>2021-04-15T07:49:17Z</time>
      </trkpt>
      <trkpt lat="45.28731" lon="3.79946">
        <ele>955</ele>
        <time>2021-04-15T07:49:18Z</time>
      </trkpt>
      <trkpt lat="45.2873" lon="3.7995">
        <ele>955</ele>
        <time>2021-04-15T07:49:19Z</time>
      </trkpt>
      <trkpt lat="45.28729" lon="3.79956">
        <ele>955</ele>
        <time>2021-04-15T07:49:20Z</time>
      </trkpt>
      <trkpt lat="45.28728" lon="3.79959">
        <ele>955</ele>
        <time>2021-04-15T07:49:22Z</time>
      </trkpt>
      <trkpt lat="45.28728" lon="3.79963">
        <ele>955</ele>
        <time>2021-04-15T07:49:23Z</time>
      </trkpt>
      <trkpt lat="45.28727" lon="3.79966">
        <ele>955</ele>
        <time>2021-04-15T07:49:24Z</time>
      </trkpt>
      <trkpt lat="45.28727" lon="3.79969">
        <ele>955</ele>
        <time>2021-04-15T07:49:25Z</time>
      </trkpt>
      <trkpt lat="45.28727" lon="3.79972">
        <ele>955</ele>
        <time>2021-04-15T07:49:26Z</time>
      </trkpt>
      <trkpt lat="45.28726" lon="3.79974">
        <ele>954</ele>
        <time>2021-04-15T07:49:27Z</time>
      </trkpt>
      <trkpt lat="45.28725" lon="3.79977">
        <ele>954</ele>
        <time>2021-04-15T07:49:28Z</time>
      </trkpt>
      <trkpt lat="45.28724" lon="3.79979">
        <ele>954</ele>
        <time>2021-04-15T07:49:29Z</time>
      </trkpt>
      <trkpt lat="45.28723" lon="3.79982">
        <ele>954</ele>
        <time>2021-04-15T07:49:30Z</time>
      </trkpt>
      <trkpt lat="45.28722" lon="3.79986">
        <ele>953</ele>
        <time>2021-04-15T07:49:32Z</time>
      </trkpt>
      <trkpt lat="45.28721" lon="3.79991">
        <ele>952</ele>
        <time>2021-04-15T07:50:00Z</time>
      </trkpt>
      <trkpt lat="45.28721" lon="3.79997">
        <ele>952</ele>
        <time>2021-04-15T07:50:01Z</time>
      </trkpt>
      <trkpt lat="45.2872" lon="3.80004">
        <ele>952</ele>
        <time>2021-04-15T07:50:03Z</time>
      </trkpt>
      <trkpt lat="45.2872" lon="3.80009">
        <ele>952</ele>
        <time>2021-04-15T07:50:05Z</time>
      </trkpt>
      <trkpt lat="45.28719" lon="3.80014">
        <ele>952</ele>
        <time>2021-04-15T07:50:06Z</time>
      </trkpt>
      <trkpt lat="45.28719" lon="3.80018">
        <ele>952</ele>
        <time>2021-04-15T07:50:07Z</time>
      </trkpt>
      <trkpt lat="45.28718" lon="3.80023">
        <ele>952</ele>
        <time>2021-04-15T07:50:08Z</time>
      </trkpt>
      <trkpt lat="45.28716" lon="3.80034">
        <ele>952</ele>
        <time>2021-04-15T07:50:09Z</time>
      </trkpt>
      <trkpt lat="45.28716" lon="3.80039">
        <ele>952</ele>
        <time>2021-04-15T07:50:11Z</time>
      </trkpt>
      <trkpt lat="45.28714" lon="3.80051">
        <ele>952</ele>
        <time>2021-04-15T07:50:12Z</time>
      </trkpt>
      <trkpt lat="45.28713" lon="3.80057">
        <ele>952</ele>
        <time>2021-04-15T07:50:14Z</time>
      </trkpt>
      <trkpt lat="45.28712" lon="3.80063">
        <ele>952</ele>
        <time>2021-04-15T07:50:15Z</time>
      </trkpt>
      <trkpt lat="45.28711" lon="3.80069">
        <ele>952</ele>
        <time>2021-04-15T07:50:16Z</time>
      </trkpt>
      <trkpt lat="45.28709" lon="3.80081">
        <ele>952</ele>
        <time>2021-04-15T07:50:17Z</time>
      </trkpt>
      <trkpt lat="45.28708" lon="3.80088">
        <ele>951</ele>
        <time>2021-04-15T07:50:19Z</time>
      </trkpt>
      <trkpt lat="45.28704" lon="3.801">
        <ele>951</ele>
        <time>2021-04-15T07:50:20Z</time>
      </trkpt>
      <trkpt lat="45.28702" lon="3.80107">
        <ele>951</ele>
        <time>2021-04-15T07:50:21Z</time>
      </trkpt>
      <trkpt lat="45.287" lon="3.80113">
        <ele>951</ele>
        <time>2021-04-15T07:50:22Z</time>
      </trkpt>
      <trkpt lat="45.28697" lon="3.8012">
        <ele>950</ele>
        <time>2021-04-15T07:50:23Z</time>
      </trkpt>
      <trkpt lat="45.28695" lon="3.80126">
        <ele>950</ele>
        <time>2021-04-15T07:50:24Z</time>
      </trkpt>
      <trkpt lat="45.28693" lon="3.80132">
        <ele>950</ele>
        <time>2021-04-15T07:50:25Z</time>
      </trkpt>
      <trkpt lat="45.2869" lon="3.80138">
        <ele>950</ele>
        <time>2021-04-15T07:50:26Z</time>
      </trkpt>
      <trkpt lat="45.28688" lon="3.80145">
        <ele>950</ele>
        <time>2021-04-15T07:50:27Z</time>
      </trkpt>
      <trkpt lat="45.28686" lon="3.80151">
        <ele>950</ele>
        <time>2021-04-15T07:50:28Z</time>
      </trkpt>
      <trkpt lat="45.28683" lon="3.80158">
        <ele>949</ele>
        <time>2021-04-15T07:50:29Z</time>
      </trkpt>
      <trkpt lat="45.28681" lon="3.80164">
        <ele>949</ele>
        <time>2021-04-15T07:50:30Z</time>
      </trkpt>
      <trkpt lat="45.28679" lon="3.80171">
        <ele>949</ele>
        <time>2021-04-15T07:50:31Z</time>
      </trkpt>
      <trkpt lat="45.28678" lon="3.80178">
        <ele>949</ele>
        <time>2021-04-15T07:50:32Z</time>
      </trkpt>
      <trkpt lat="45.28677" lon="3.80185">
        <ele>949</ele>
        <time>2021-04-15T07:50:33Z</time>
      </trkpt>
      <trkpt lat="45.28676" lon="3.80192">
        <ele>949</ele>
        <time>2021-04-15T07:50:34Z</time>
      </trkpt>
      <trkpt lat="45.28675" lon="3.80199">
        <ele>949</ele>
        <time>2021-04-15T07:50:35Z</time>
      </trkpt>
      <trkpt lat="45.28674" lon="3.80205">
        <ele>949</ele>
        <time>2021-04-15T07:50:36Z</time>
      </trkpt>
      <trkpt lat="45.28674" lon="3.80212">
        <ele>949</ele>
        <time>2021-04-15T07:50:37Z</time>
      </trkpt>
      <trkpt lat="45.28673" lon="3.80219">
        <ele>948</ele>
        <time>2021-04-15T07:50:38Z</time>
      </trkpt>
      <trkpt lat="45.28672" lon="3.80225">
        <ele>948</ele>
        <time>2021-04-15T07:50:39Z</time>
      </trkpt>
      <trkpt lat="45.28672" lon="3.80231">
        <ele>948</ele>
        <time>2021-04-15T07:50:40Z</time>
      </trkpt>
      <trkpt lat="45.28672" lon="3.80238">
        <ele>948</ele>
        <time>2021-04-15T07:50:41Z</time>
      </trkpt>
      <trkpt lat="45.28672" lon="3.80244">
        <ele>948</ele>
        <time>2021-04-15T07:50:42Z</time>
      </trkpt>
      <trkpt lat="45.28673" lon="3.8025">
        <ele>948</ele>
        <time>2021-04-15T07:50:43Z</time>
      </trkpt>
      <trkpt lat="45.28674" lon="3.80255">
        <ele>948</ele>
        <time>2021-04-15T07:50:44Z</time>
      </trkpt>
      <trkpt lat="45.28676" lon="3.80261">
        <ele>948</ele>
        <time>2021-04-15T07:50:45Z</time>
      </trkpt>
      <trkpt lat="45.28677" lon="3.80267">
        <ele>948</ele>
        <time>2021-04-15T07:50:46Z</time>
      </trkpt>
      <trkpt lat="45.28679" lon="3.80275">
        <ele>948</ele>
        <time>2021-04-15T07:50:47Z</time>
      </trkpt>
      <trkpt lat="45.28679" lon="3.80284">
        <ele>948</ele>
        <time>2021-04-15T07:50:48Z</time>
      </trkpt>
      <trkpt lat="45.28679" lon="3.80293">
        <ele>947</ele>
        <time>2021-04-15T07:50:49Z</time>
      </trkpt>
      <trkpt lat="45.28678" lon="3.80302">
        <ele>947</ele>
        <time>2021-04-15T07:50:50Z</time>
      </trkpt>
      <trkpt lat="45.28677" lon="3.8031">
        <ele>947</ele>
        <time>2021-04-15T07:50:51Z</time>
      </trkpt>
      <trkpt lat="45.28675" lon="3.80319">
        <ele>947</ele>
        <time>2021-04-15T07:50:52Z</time>
      </trkpt>
      <trkpt lat="45.28674" lon="3.80327">
        <ele>946</ele>
        <time>2021-04-15T07:50:53Z</time>
      </trkpt>
      <trkpt lat="45.28672" lon="3.80335">
        <ele>946</ele>
        <time>2021-04-15T07:50:54Z</time>
      </trkpt>
      <trkpt lat="45.28671" lon="3.80343">
        <ele>946</ele>
        <time>2021-04-15T07:50:55Z</time>
      </trkpt>
      <trkpt lat="45.28671" lon="3.80351">
        <ele>946</ele>
        <time>2021-04-15T07:50:56Z</time>
      </trkpt>
      <trkpt lat="45.2867" lon="3.80358">
        <ele>946</ele>
        <time>2021-04-15T07:50:57Z</time>
      </trkpt>
      <trkpt lat="45.2867" lon="3.80374">
        <ele>946</ele>
        <time>2021-04-15T07:50:59Z</time>
      </trkpt>
      <trkpt lat="45.28669" lon="3.80381">
        <ele>946</ele>
        <time>2021-04-15T07:51:00Z</time>
      </trkpt>
      <trkpt lat="45.2867" lon="3.80389">
        <ele>946</ele>
        <time>2021-04-15T07:51:02Z</time>
      </trkpt>
      <trkpt lat="45.2867" lon="3.80397">
        <ele>946</ele>
        <time>2021-04-15T07:51:03Z</time>
      </trkpt>
      <trkpt lat="45.28671" lon="3.80406">
        <ele>946</ele>
        <time>2021-04-15T07:51:04Z</time>
      </trkpt>
      <trkpt lat="45.28671" lon="3.80414">
        <ele>946</ele>
        <time>2021-04-15T07:51:05Z</time>
      </trkpt>
      <trkpt lat="45.28672" lon="3.80423">
        <ele>946</ele>
        <time>2021-04-15T07:51:06Z</time>
      </trkpt>
      <trkpt lat="45.28672" lon="3.80432">
        <ele>946</ele>
        <time>2021-04-15T07:51:07Z</time>
      </trkpt>
      <trkpt lat="45.28673" lon="3.8045">
        <ele>945</ele>
        <time>2021-04-15T07:51:08Z</time>
      </trkpt>
      <trkpt lat="45.28673" lon="3.8046">
        <ele>945</ele>
        <time>2021-04-15T07:51:10Z</time>
      </trkpt>
      <trkpt lat="45.28673" lon="3.80468">
        <ele>946</ele>
        <time>2021-04-15T07:51:11Z</time>
      </trkpt>
      <trkpt lat="45.28674" lon="3.80477">
        <ele>946</ele>
        <time>2021-04-15T07:51:12Z</time>
      </trkpt>
      <trkpt lat="45.28675" lon="3.80485">
        <ele>946</ele>
        <time>2021-04-15T07:51:13Z</time>
      </trkpt>
      <trkpt lat="45.28676" lon="3.80493">
        <ele>946</ele>
        <time>2021-04-15T07:51:14Z</time>
      </trkpt>
      <trkpt lat="45.28677" lon="3.80501">
        <ele>946</ele>
        <time>2021-04-15T07:51:15Z</time>
      </trkpt>
      <trkpt lat="45.28678" lon="3.80516">
        <ele>946</ele>
        <time>2021-04-15T07:51:16Z</time>
      </trkpt>
      <trkpt lat="45.28679" lon="3.80523">
        <ele>946</ele>
        <time>2021-04-15T07:51:17Z</time>
      </trkpt>
      <trkpt lat="45.28679" lon="3.80531">
        <ele>946</ele>
        <time>2021-04-15T07:51:18Z</time>
      </trkpt>
      <trkpt lat="45.2868" lon="3.80539">
        <ele>946</ele>
        <time>2021-04-15T07:51:19Z</time>
      </trkpt>
      <trkpt lat="45.28679" lon="3.80547">
        <ele>946</ele>
        <time>2021-04-15T07:51:20Z</time>
      </trkpt>
      <trkpt lat="45.28678" lon="3.80555">
        <ele>946</ele>
        <time>2021-04-15T07:51:21Z</time>
      </trkpt>
      <trkpt lat="45.28678" lon="3.80563">
        <ele>946</ele>
        <time>2021-04-15T07:51:22Z</time>
      </trkpt>
      <trkpt lat="45.28678" lon="3.80572">
        <ele>946</ele>
        <time>2021-04-15T07:51:23Z</time>
      </trkpt>
      <trkpt lat="45.28677" lon="3.80582">
        <ele>946</ele>
        <time>2021-04-15T07:51:24Z</time>
      </trkpt>
      <trkpt lat="45.28678" lon="3.80591">
        <ele>946</ele>
        <time>2021-04-15T07:51:25Z</time>
      </trkpt>
      <trkpt lat="45.28678" lon="3.80602">
        <ele>946</ele>
        <time>2021-04-15T07:51:26Z</time>
      </trkpt>
      <trkpt lat="45.28677" lon="3.80612">
        <ele>946</ele>
        <time>2021-04-15T07:51:27Z</time>
      </trkpt>
      <trkpt lat="45.28677" lon="3.80623">
        <ele>946</ele>
        <time>2021-04-15T07:51:28Z</time>
      </trkpt>
      <trkpt lat="45.28676" lon="3.80634">
        <ele>945</ele>
        <time>2021-04-15T07:51:29Z</time>
      </trkpt>
      <trkpt lat="45.28675" lon="3.80646">
        <ele>945</ele>
        <time>2021-04-15T07:51:30Z</time>
      </trkpt>
      <trkpt lat="45.28674" lon="3.80658">
        <ele>945</ele>
        <time>2021-04-15T07:51:31Z</time>
      </trkpt>
      <trkpt lat="45.28674" lon="3.80671">
        <ele>945</ele>
        <time>2021-04-15T07:51:32Z</time>
      </trkpt>
      <trkpt lat="45.28674" lon="3.80685">
        <ele>945</ele>
        <time>2021-04-15T07:51:33Z</time>
      </trkpt>
      <trkpt lat="45.28674" lon="3.80698">
        <ele>944</ele>
        <time>2021-04-15T07:51:34Z</time>
      </trkpt>
      <trkpt lat="45.28676" lon="3.80711">
        <ele>944</ele>
        <time>2021-04-15T07:51:35Z</time>
      </trkpt>
      <trkpt lat="45.28678" lon="3.80724">
        <ele>943</ele>
        <time>2021-04-15T07:51:36Z</time>
      </trkpt>
      <trkpt lat="45.28681" lon="3.80736">
        <ele>942</ele>
        <time>2021-04-15T07:51:37Z</time>
      </trkpt>
      <trkpt lat="45.28684" lon="3.80749">
        <ele>942</ele>
        <time>2021-04-15T07:51:38Z</time>
      </trkpt>
      <trkpt lat="45.28686" lon="3.80762">
        <ele>941</ele>
        <time>2021-04-15T07:51:39Z</time>
      </trkpt>
      <trkpt lat="45.28689" lon="3.80774">
        <ele>939</ele>
        <time>2021-04-15T07:51:40Z</time>
      </trkpt>
      <trkpt lat="45.28693" lon="3.80786">
        <ele>939</ele>
        <time>2021-04-15T07:51:41Z</time>
      </trkpt>
      <trkpt lat="45.28696" lon="3.80798">
        <ele>939</ele>
        <time>2021-04-15T07:51:42Z</time>
      </trkpt>
      <trkpt lat="45.28698" lon="3.80809">
        <ele>938</ele>
        <time>2021-04-15T07:51:43Z</time>
      </trkpt>
      <trkpt lat="45.287" lon="3.80819">
        <ele>938</ele>
        <time>2021-04-15T07:51:44Z</time>
      </trkpt>
      <trkpt lat="45.28702" lon="3.80829">
        <ele>938</ele>
        <time>2021-04-15T07:51:45Z</time>
      </trkpt>
      <trkpt lat="45.28704" lon="3.80839">
        <ele>938</ele>
        <time>2021-04-15T07:51:46Z</time>
      </trkpt>
      <trkpt lat="45.28707" lon="3.80848">
        <ele>937</ele>
        <time>2021-04-15T07:51:47Z</time>
      </trkpt>
      <trkpt lat="45.28709" lon="3.80857">
        <ele>937</ele>
        <time>2021-04-15T07:51:48Z</time>
      </trkpt>
      <trkpt lat="45.28712" lon="3.80867">
        <ele>936</ele>
        <time>2021-04-15T07:51:49Z</time>
      </trkpt>
      <trkpt lat="45.28714" lon="3.80877">
        <ele>935</ele>
        <time>2021-04-15T07:51:50Z</time>
      </trkpt>
      <trkpt lat="45.28716" lon="3.80887">
        <ele>935</ele>
        <time>2021-04-15T07:51:51Z</time>
      </trkpt>
      <trkpt lat="45.28717" lon="3.80897">
        <ele>934</ele>
        <time>2021-04-15T07:51:52Z</time>
      </trkpt>
      <trkpt lat="45.28717" lon="3.80908">
        <ele>933</ele>
        <time>2021-04-15T07:51:53Z</time>
      </trkpt>
      <trkpt lat="45.28717" lon="3.80918">
        <ele>932</ele>
        <time>2021-04-15T07:51:54Z</time>
      </trkpt>
      <trkpt lat="45.28718" lon="3.8093">
        <ele>932</ele>
        <time>2021-04-15T07:51:55Z</time>
      </trkpt>
      <trkpt lat="45.28719" lon="3.80942">
        <ele>932</ele>
        <time>2021-04-15T07:51:56Z</time>
      </trkpt>
      <trkpt lat="45.28719" lon="3.80968">
        <ele>931</ele>
        <time>2021-04-15T07:51:58Z</time>
      </trkpt>
      <trkpt lat="45.28719" lon="3.80981">
        <ele>930</ele>
        <time>2021-04-15T07:51:59Z</time>
      </trkpt>
      <trkpt lat="45.28716" lon="3.80995">
        <ele>930</ele>
        <time>2021-04-15T07:52:00Z</time>
      </trkpt>
      <trkpt lat="45.28713" lon="3.81008">
        <ele>928</ele>
        <time>2021-04-15T07:52:01Z</time>
      </trkpt>
      <trkpt lat="45.28711" lon="3.81021">
        <ele>927</ele>
        <time>2021-04-15T07:52:02Z</time>
      </trkpt>
      <trkpt lat="45.2871" lon="3.81033">
        <ele>927</ele>
        <time>2021-04-15T07:52:03Z</time>
      </trkpt>
      <trkpt lat="45.28711" lon="3.81047">
        <ele>926</ele>
        <time>2021-04-15T07:52:04Z</time>
      </trkpt>
      <trkpt lat="45.28713" lon="3.81058">
        <ele>925</ele>
        <time>2021-04-15T07:52:05Z</time>
      </trkpt>
      <trkpt lat="45.28713" lon="3.81069">
        <ele>925</ele>
        <time>2021-04-15T07:52:06Z</time>
      </trkpt>
      <trkpt lat="45.28715" lon="3.81078">
        <ele>925</ele>
        <time>2021-04-15T07:52:07Z</time>
      </trkpt>
      <trkpt lat="45.28717" lon="3.81085">
        <ele>924</ele>
        <time>2021-04-15T07:52:08Z</time>
      </trkpt>
      <trkpt lat="45.28718" lon="3.81091">
        <ele>924</ele>
        <time>2021-04-15T07:52:09Z</time>
      </trkpt>
      <trkpt lat="45.28718" lon="3.81095">
        <ele>923</ele>
        <time>2021-04-15T07:52:10Z</time>
      </trkpt>
      <trkpt lat="45.28717" lon="3.81099">
        <ele>923</ele>
        <time>2021-04-15T07:52:11Z</time>
      </trkpt>
      <trkpt lat="45.28716" lon="3.81102">
        <ele>922</ele>
        <time>2021-04-15T07:52:12Z</time>
      </trkpt>
      <trkpt lat="45.28713" lon="3.81107">
        <ele>922</ele>
        <time>2021-04-15T07:52:13Z</time>
      </trkpt>
      <trkpt lat="45.28709" lon="3.81111">
        <ele>921</ele>
        <time>2021-04-15T07:52:14Z</time>
      </trkpt>
      <trkpt lat="45.28705" lon="3.81116">
        <ele>920</ele>
        <time>2021-04-15T07:52:15Z</time>
      </trkpt>
      <trkpt lat="45.28701" lon="3.81121">
        <ele>919</ele>
        <time>2021-04-15T07:52:16Z</time>
      </trkpt>
      <trkpt lat="45.28697" lon="3.81127">
        <ele>917</ele>
        <time>2021-04-15T07:52:17Z</time>
      </trkpt>
      <trkpt lat="45.28694" lon="3.81133">
        <ele>917</ele>
        <time>2021-04-15T07:52:18Z</time>
      </trkpt>
      <trkpt lat="45.28692" lon="3.81139">
        <ele>916</ele>
        <time>2021-04-15T07:52:19Z</time>
      </trkpt>
      <trkpt lat="45.2869" lon="3.81146">
        <ele>915</ele>
        <time>2021-04-15T07:52:20Z</time>
      </trkpt>
      <trkpt lat="45.28688" lon="3.81152">
        <ele>914</ele>
        <time>2021-04-15T07:52:21Z</time>
      </trkpt>
      <trkpt lat="45.28686" lon="3.81158">
        <ele>914</ele>
        <time>2021-04-15T07:52:22Z</time>
      </trkpt>
      <trkpt lat="45.28684" lon="3.81164">
        <ele>913</ele>
        <time>2021-04-15T07:52:23Z</time>
      </trkpt>
      <trkpt lat="45.28682" lon="3.8117">
        <ele>913</ele>
        <time>2021-04-15T07:52:24Z</time>
      </trkpt>
      <trkpt lat="45.2868" lon="3.81176">
        <ele>912</ele>
        <time>2021-04-15T07:52:25Z</time>
      </trkpt>
      <trkpt lat="45.28678" lon="3.81181">
        <ele>912</ele>
        <time>2021-04-15T07:52:26Z</time>
      </trkpt>
      <trkpt lat="45.28676" lon="3.81187">
        <ele>912</ele>
        <time>2021-04-15T07:52:27Z</time>
      </trkpt>
      <trkpt lat="45.28674" lon="3.81193">
        <ele>911</ele>
        <time>2021-04-15T07:52:28Z</time>
      </trkpt>
      <trkpt lat="45.28673" lon="3.81198">
        <ele>911</ele>
        <time>2021-04-15T07:52:29Z</time>
      </trkpt>
      <trkpt lat="45.28671" lon="3.81204">
        <ele>911</ele>
        <time>2021-04-15T07:52:30Z</time>
      </trkpt>
      <trkpt lat="45.28669" lon="3.8121">
        <ele>911</ele>
        <time>2021-04-15T07:52:31Z</time>
      </trkpt>
      <trkpt lat="45.28668" lon="3.81216">
        <ele>911</ele>
        <time>2021-04-15T07:52:32Z</time>
      </trkpt>
      <trkpt lat="45.28666" lon="3.81221">
        <ele>910</ele>
        <time>2021-04-15T07:52:33Z</time>
      </trkpt>
      <trkpt lat="45.28664" lon="3.81227">
        <ele>910</ele>
        <time>2021-04-15T07:52:34Z</time>
      </trkpt>
      <trkpt lat="45.28662" lon="3.81233">
        <ele>910</ele>
        <time>2021-04-15T07:52:35Z</time>
      </trkpt>
      <trkpt lat="45.2866" lon="3.81239">
        <ele>910</ele>
        <time>2021-04-15T07:52:36Z</time>
      </trkpt>
      <trkpt lat="45.28658" lon="3.81244">
        <ele>910</ele>
        <time>2021-04-15T07:52:37Z</time>
      </trkpt>
      <trkpt lat="45.28657" lon="3.8125">
        <ele>910</ele>
        <time>2021-04-15T07:52:38Z</time>
      </trkpt>
      <trkpt lat="45.28655" lon="3.81255">
        <ele>910</ele>
        <time>2021-04-15T07:52:39Z</time>
      </trkpt>
      <trkpt lat="45.28653" lon="3.81261">
        <ele>910</ele>
        <time>2021-04-15T07:52:40Z</time>
      </trkpt>
      <trkpt lat="45.28651" lon="3.81266">
        <ele>909</ele>
        <time>2021-04-15T07:52:41Z</time>
      </trkpt>
      <trkpt lat="45.28648" lon="3.8127">
        <ele>909</ele>
        <time>2021-04-15T07:52:42Z</time>
      </trkpt>
      <trkpt lat="45.28646" lon="3.81275">
        <ele>909</ele>
        <time>2021-04-15T07:52:43Z</time>
      </trkpt>
      <trkpt lat="45.28644" lon="3.81279">
        <ele>910</ele>
        <time>2021-04-15T07:52:44Z</time>
      </trkpt>
      <trkpt lat="45.28641" lon="3.81283">
        <ele>910</ele>
        <time>2021-04-15T07:52:45Z</time>
      </trkpt>
      <trkpt lat="45.28638" lon="3.81287">
        <ele>910</ele>
        <time>2021-04-15T07:52:46Z</time>
      </trkpt>
      <trkpt lat="45.28635" lon="3.81292">
        <ele>909</ele>
        <time>2021-04-15T07:52:47Z</time>
      </trkpt>
      <trkpt lat="45.28633" lon="3.81296">
        <ele>909</ele>
        <time>2021-04-15T07:52:48Z</time>
      </trkpt>
      <trkpt lat="45.2863" lon="3.813">
        <ele>909</ele>
        <time>2021-04-15T07:52:49Z</time>
      </trkpt>
      <trkpt lat="45.28628" lon="3.81303">
        <ele>909</ele>
        <time>2021-04-15T07:52:50Z</time>
      </trkpt>
      <trkpt lat="45.28625" lon="3.81307">
        <ele>909</ele>
        <time>2021-04-15T07:52:51Z</time>
      </trkpt>
      <trkpt lat="45.28623" lon="3.8131">
        <ele>909</ele>
        <time>2021-04-15T07:52:52Z</time>
      </trkpt>
      <trkpt lat="45.2862" lon="3.81314">
        <ele>909</ele>
        <time>2021-04-15T07:52:53Z</time>
      </trkpt>
      <trkpt lat="45.28618" lon="3.81317">
        <ele>909</ele>
        <time>2021-04-15T07:52:54Z</time>
      </trkpt>
      <trkpt lat="45.28615" lon="3.81319">
        <ele>909</ele>
        <time>2021-04-15T07:52:55Z</time>
      </trkpt>
      <trkpt lat="45.28613" lon="3.81322">
        <ele>910</ele>
        <time>2021-04-15T07:52:56Z</time>
      </trkpt>
      <trkpt lat="45.28611" lon="3.81324">
        <ele>910</ele>
        <time>2021-04-15T07:52:57Z</time>
      </trkpt>
      <trkpt lat="45.28609" lon="3.81327">
        <ele>910</ele>
        <time>2021-04-15T07:52:58Z</time>
      </trkpt>
      <trkpt lat="45.28607" lon="3.81329">
        <ele>909</ele>
        <time>2021-04-15T07:52:59Z</time>
      </trkpt>
      <trkpt lat="45.28605" lon="3.8133">
        <ele>910</ele>
        <time>2021-04-15T07:53:00Z</time>
      </trkpt>
      <trkpt lat="45.28603" lon="3.81332">
        <ele>910</ele>
        <time>2021-04-15T07:53:01Z</time>
      </trkpt>
      <trkpt lat="45.286" lon="3.81333">
        <ele>910</ele>
        <time>2021-04-15T07:53:02Z</time>
      </trkpt>
      <trkpt lat="45.28597" lon="3.81335">
        <ele>910</ele>
        <time>2021-04-15T07:53:03Z</time>
      </trkpt>
      <trkpt lat="45.28594" lon="3.81336">
        <ele>910</ele>
        <time>2021-04-15T07:53:04Z</time>
      </trkpt>
      <trkpt lat="45.2859" lon="3.81337">
        <ele>910</ele>
        <time>2021-04-15T07:53:05Z</time>
      </trkpt>
      <trkpt lat="45.28587" lon="3.81338">
        <ele>910</ele>
        <time>2021-04-15T07:53:06Z</time>
      </trkpt>
      <trkpt lat="45.28583" lon="3.8134">
        <ele>910</ele>
        <time>2021-04-15T07:53:07Z</time>
      </trkpt>
      <trkpt lat="45.2858" lon="3.8134">
        <ele>910</ele>
        <time>2021-04-15T07:53:08Z</time>
      </trkpt>
      <trkpt lat="45.28577" lon="3.81341">
        <ele>910</ele>
        <time>2021-04-15T07:53:09Z</time>
      </trkpt>
      <trkpt lat="45.28573" lon="3.81342">
        <ele>910</ele>
        <time>2021-04-15T07:53:10Z</time>
      </trkpt>
      <trkpt lat="45.28569" lon="3.81343">
        <ele>910</ele>
        <time>2021-04-15T07:53:11Z</time>
      </trkpt>
      <trkpt lat="45.28565" lon="3.81344">
        <ele>911</ele>
        <time>2021-04-15T07:53:13Z</time>
      </trkpt>
      <trkpt lat="45.2856" lon="3.81345">
        <ele>911</ele>
        <time>2021-04-15T07:53:14Z</time>
      </trkpt>
      <trkpt lat="45.28557" lon="3.81346">
        <ele>912</ele>
        <time>2021-04-15T07:53:15Z</time>
      </trkpt>
      <trkpt lat="45.28553" lon="3.81346">
        <ele>912</ele>
        <time>2021-04-15T07:53:16Z</time>
      </trkpt>
      <trkpt lat="45.28549" lon="3.81347">
        <ele>912</ele>
        <time>2021-04-15T07:53:17Z</time>
      </trkpt>
      <trkpt lat="45.28545" lon="3.81349">
        <ele>912</ele>
        <time>2021-04-15T07:53:18Z</time>
      </trkpt>
      <trkpt lat="45.28542" lon="3.8135">
        <ele>912</ele>
        <time>2021-04-15T07:53:19Z</time>
      </trkpt>
      <trkpt lat="45.28538" lon="3.81352">
        <ele>912</ele>
        <time>2021-04-15T07:53:20Z</time>
      </trkpt>
      <trkpt lat="45.28532" lon="3.81356">
        <ele>912</ele>
        <time>2021-04-15T07:53:21Z</time>
      </trkpt>
      <trkpt lat="45.28529" lon="3.81359">
        <ele>912</ele>
        <time>2021-04-15T07:53:23Z</time>
      </trkpt>
      <trkpt lat="45.28524" lon="3.81367">
        <ele>913</ele>
        <time>2021-04-15T07:53:24Z</time>
      </trkpt>
      <trkpt lat="45.28522" lon="3.81371">
        <ele>913</ele>
        <time>2021-04-15T07:53:26Z</time>
      </trkpt>
      <trkpt lat="45.2852" lon="3.81376">
        <ele>913</ele>
        <time>2021-04-15T07:53:27Z</time>
      </trkpt>
      <trkpt lat="45.28519" lon="3.81381">
        <ele>913</ele>
        <time>2021-04-15T07:53:28Z</time>
      </trkpt>
      <trkpt lat="45.28515" lon="3.8139">
        <ele>913</ele>
        <time>2021-04-15T07:53:29Z</time>
      </trkpt>
      <trkpt lat="45.28513" lon="3.81395">
        <ele>913</ele>
        <time>2021-04-15T07:53:30Z</time>
      </trkpt>
      <trkpt lat="45.28512" lon="3.81399">
        <ele>913</ele>
        <time>2021-04-15T07:53:31Z</time>
      </trkpt>
      <trkpt lat="45.2851" lon="3.81404">
        <ele>914</ele>
        <time>2021-04-15T07:53:32Z</time>
      </trkpt>
      <trkpt lat="45.28509" lon="3.81409">
        <ele>914</ele>
        <time>2021-04-15T07:53:33Z</time>
      </trkpt>
      <trkpt lat="45.28508" lon="3.81414">
        <ele>914</ele>
        <time>2021-04-15T07:53:34Z</time>
      </trkpt>
      <trkpt lat="45.28507" lon="3.81418">
        <ele>914</ele>
        <time>2021-04-15T07:53:35Z</time>
      </trkpt>
      <trkpt lat="45.28506" lon="3.81423">
        <ele>914</ele>
        <time>2021-04-15T07:53:36Z</time>
      </trkpt>
      <trkpt lat="45.28505" lon="3.81427">
        <ele>915</ele>
        <time>2021-04-15T07:53:37Z</time>
      </trkpt>
      <trkpt lat="45.28503" lon="3.81431">
        <ele>915</ele>
        <time>2021-04-15T07:53:38Z</time>
      </trkpt>
      <trkpt lat="45.28502" lon="3.81437">
        <ele>915</ele>
        <time>2021-04-15T07:53:39Z</time>
      </trkpt>
      <trkpt lat="45.28502" lon="3.81442">
        <ele>916</ele>
        <time>2021-04-15T07:53:40Z</time>
      </trkpt>
      <trkpt lat="45.285" lon="3.81446">
        <ele>917</ele>
        <time>2021-04-15T07:53:41Z</time>
      </trkpt>
      <trkpt lat="45.28497" lon="3.8145">
        <ele>917</ele>
        <time>2021-04-15T07:53:42Z</time>
      </trkpt>
      <trkpt lat="45.28493" lon="3.81453">
        <ele>918</ele>
        <time>2021-04-15T07:53:43Z</time>
      </trkpt>
      <trkpt lat="45.28488" lon="3.81456">
        <ele>919</ele>
        <time>2021-04-15T07:53:44Z</time>
      </trkpt>
      <trkpt lat="45.28484" lon="3.81458">
        <ele>919</ele>
        <time>2021-04-15T07:53:45Z</time>
      </trkpt>
      <trkpt lat="45.2848" lon="3.8146">
        <ele>920</ele>
        <time>2021-04-15T07:53:46Z</time>
      </trkpt>
      <trkpt lat="45.28476" lon="3.81463">
        <ele>920</ele>
        <time>2021-04-15T07:53:47Z</time>
      </trkpt>
      <trkpt lat="45.28471" lon="3.81465">
        <ele>920</ele>
        <time>2021-04-15T07:53:48Z</time>
      </trkpt>
      <trkpt lat="45.28467" lon="3.81467">
        <ele>921</ele>
        <time>2021-04-15T07:53:49Z</time>
      </trkpt>
      <trkpt lat="45.28462" lon="3.81469">
        <ele>921</ele>
        <time>2021-04-15T07:53:50Z</time>
      </trkpt>
      <trkpt lat="45.28458" lon="3.81471">
        <ele>921</ele>
        <time>2021-04-15T07:53:51Z</time>
      </trkpt>
      <trkpt lat="45.28454" lon="3.81474">
        <ele>922</ele>
        <time>2021-04-15T07:53:52Z</time>
      </trkpt>
      <trkpt lat="45.2845" lon="3.81476">
        <ele>922</ele>
        <time>2021-04-15T07:53:53Z</time>
      </trkpt>
      <trkpt lat="45.28446" lon="3.81478">
        <ele>923</ele>
        <time>2021-04-15T07:53:54Z</time>
      </trkpt>
      <trkpt lat="45.28442" lon="3.8148">
        <ele>923</ele>
        <time>2021-04-15T07:53:55Z</time>
      </trkpt>
      <trkpt lat="45.28438" lon="3.81482">
        <ele>924</ele>
        <time>2021-04-15T07:53:56Z</time>
      </trkpt>
      <trkpt lat="45.28434" lon="3.81484">
        <ele>925</ele>
        <time>2021-04-15T07:53:57Z</time>
      </trkpt>
      <trkpt lat="45.2843" lon="3.81486">
        <ele>925</ele>
        <time>2021-04-15T07:53:58Z</time>
      </trkpt>
      <trkpt lat="45.28426" lon="3.81488">
        <ele>926</ele>
        <time>2021-04-15T07:53:59Z</time>
      </trkpt>
      <trkpt lat="45.28421" lon="3.8149">
        <ele>926</ele>
        <time>2021-04-15T07:54:01Z</time>
      </trkpt>
      <trkpt lat="45.28417" lon="3.81492">
        <ele>927</ele>
        <time>2021-04-15T07:54:02Z</time>
      </trkpt>
      <trkpt lat="45.28413" lon="3.81494">
        <ele>927</ele>
        <time>2021-04-15T07:54:03Z</time>
      </trkpt>
      <trkpt lat="45.28408" lon="3.81495">
        <ele>927</ele>
        <time>2021-04-15T07:54:04Z</time>
      </trkpt>
      <trkpt lat="45.28404" lon="3.81497">
        <ele>927</ele>
        <time>2021-04-15T07:54:05Z</time>
      </trkpt>
      <trkpt lat="45.284" lon="3.815">
        <ele>927</ele>
        <time>2021-04-15T07:54:06Z</time>
      </trkpt>
      <trkpt lat="45.28396" lon="3.81502">
        <ele>928</ele>
        <time>2021-04-15T07:54:07Z</time>
      </trkpt>
      <trkpt lat="45.28387" lon="3.81507">
        <ele>928</ele>
        <time>2021-04-15T07:54:08Z</time>
      </trkpt>
      <trkpt lat="45.28383" lon="3.81509">
        <ele>928</ele>
        <time>2021-04-15T07:54:09Z</time>
      </trkpt>
      <trkpt lat="45.28379" lon="3.81511">
        <ele>928</ele>
        <time>2021-04-15T07:54:10Z</time>
      </trkpt>
      <trkpt lat="45.28374" lon="3.81513">
        <ele>928</ele>
        <time>2021-04-15T07:54:11Z</time>
      </trkpt>
      <trkpt lat="45.2837" lon="3.81515">
        <ele>928</ele>
        <time>2021-04-15T07:54:12Z</time>
      </trkpt>
      <trkpt lat="45.28366" lon="3.81517">
        <ele>928</ele>
        <time>2021-04-15T07:54:13Z</time>
      </trkpt>
      <trkpt lat="45.28361" lon="3.81519">
        <ele>928</ele>
        <time>2021-04-15T07:54:14Z</time>
      </trkpt>
      <trkpt lat="45.28357" lon="3.81521">
        <ele>929</ele>
        <time>2021-04-15T07:54:15Z</time>
      </trkpt>
      <trkpt lat="45.28353" lon="3.81522">
        <ele>929</ele>
        <time>2021-04-15T07:54:16Z</time>
      </trkpt>
      <trkpt lat="45.28348" lon="3.81524">
        <ele>929</ele>
        <time>2021-04-15T07:54:17Z</time>
      </trkpt>
      <trkpt lat="45.28344" lon="3.81526">
        <ele>929</ele>
        <time>2021-04-15T07:54:18Z</time>
      </trkpt>
      <trkpt lat="45.2834" lon="3.81528">
        <ele>929</ele>
        <time>2021-04-15T07:54:19Z</time>
      </trkpt>
      <trkpt lat="45.28335" lon="3.81529">
        <ele>929</ele>
        <time>2021-04-15T07:54:20Z</time>
      </trkpt>
      <trkpt lat="45.28331" lon="3.8153">
        <ele>929</ele>
        <time>2021-04-15T07:54:21Z</time>
      </trkpt>
      <trkpt lat="45.28326" lon="3.81532">
        <ele>929</ele>
        <time>2021-04-15T07:54:22Z</time>
      </trkpt>
      <trkpt lat="45.28322" lon="3.81533">
        <ele>929</ele>
        <time>2021-04-15T07:54:23Z</time>
      </trkpt>
      <trkpt lat="45.28318" lon="3.81535">
        <ele>929</ele>
        <time>2021-04-15T07:54:24Z</time>
      </trkpt>
      <trkpt lat="45.28313" lon="3.81537">
        <ele>929</ele>
        <time>2021-04-15T07:54:25Z</time>
      </trkpt>
      <trkpt lat="45.28309" lon="3.81539">
        <ele>929</ele>
        <time>2021-04-15T07:54:26Z</time>
      </trkpt>
      <trkpt lat="45.28305" lon="3.81542">
        <ele>929</ele>
        <time>2021-04-15T07:54:27Z</time>
      </trkpt>
      <trkpt lat="45.28301" lon="3.81545">
        <ele>929</ele>
        <time>2021-04-15T07:54:29Z</time>
      </trkpt>
      <trkpt lat="45.28298" lon="3.81549">
        <ele>930</ele>
        <time>2021-04-15T07:54:30Z</time>
      </trkpt>
      <trkpt lat="45.28294" lon="3.81552">
        <ele>930</ele>
        <time>2021-04-15T07:54:31Z</time>
      </trkpt>
      <trkpt lat="45.28287" lon="3.8156">
        <ele>930</ele>
        <time>2021-04-15T07:54:32Z</time>
      </trkpt>
      <trkpt lat="45.2828" lon="3.81568">
        <ele>930</ele>
        <time>2021-04-15T07:54:34Z</time>
      </trkpt>
      <trkpt lat="45.28277" lon="3.81572">
        <ele>931</ele>
        <time>2021-04-15T07:54:35Z</time>
      </trkpt>
      <trkpt lat="45.28275" lon="3.81577">
        <ele>931</ele>
        <time>2021-04-15T07:54:36Z</time>
      </trkpt>
      <trkpt lat="45.28272" lon="3.81581">
        <ele>931</ele>
        <time>2021-04-15T07:54:37Z</time>
      </trkpt>
      <trkpt lat="45.2827" lon="3.81585">
        <ele>932</ele>
        <time>2021-04-15T07:54:38Z</time>
      </trkpt>
      <trkpt lat="45.28268" lon="3.81588">
        <ele>932</ele>
        <time>2021-04-15T07:54:39Z</time>
      </trkpt>
      <trkpt lat="45.28265" lon="3.81591">
        <ele>933</ele>
        <time>2021-04-15T07:54:40Z</time>
      </trkpt>
      <trkpt lat="45.28261" lon="3.81594">
        <ele>933</ele>
        <time>2021-04-15T07:54:41Z</time>
      </trkpt>
      <trkpt lat="45.28258" lon="3.81598">
        <ele>934</ele>
        <time>2021-04-15T07:54:42Z</time>
      </trkpt>
      <trkpt lat="45.28254" lon="3.81602">
        <ele>934</ele>
        <time>2021-04-15T07:54:43Z</time>
      </trkpt>
      <trkpt lat="45.28251" lon="3.81606">
        <ele>934</ele>
        <time>2021-04-15T07:54:44Z</time>
      </trkpt>
      <trkpt lat="45.28247" lon="3.81609">
        <ele>934</ele>
        <time>2021-04-15T07:54:45Z</time>
      </trkpt>
      <trkpt lat="45.28244" lon="3.81612">
        <ele>935</ele>
        <time>2021-04-15T07:54:46Z</time>
      </trkpt>
      <trkpt lat="45.2824" lon="3.81615">
        <ele>935</ele>
        <time>2021-04-15T07:54:48Z</time>
      </trkpt>
      <trkpt lat="45.28236" lon="3.81617">
        <ele>935</ele>
        <time>2021-04-15T07:54:49Z</time>
      </trkpt>
      <trkpt lat="45.28232" lon="3.81619">
        <ele>935</ele>
        <time>2021-04-15T07:54:50Z</time>
      </trkpt>
      <trkpt lat="45.28227" lon="3.81621">
        <ele>935</ele>
        <time>2021-04-15T07:54:51Z</time>
      </trkpt>
      <trkpt lat="45.28223" lon="3.81624">
        <ele>935</ele>
        <time>2021-04-15T07:54:52Z</time>
      </trkpt>
      <trkpt lat="45.28218" lon="3.81626">
        <ele>935</ele>
        <time>2021-04-15T07:54:53Z</time>
      </trkpt>
      <trkpt lat="45.28213" lon="3.81629">
        <ele>935</ele>
        <time>2021-04-15T07:54:54Z</time>
      </trkpt>
      <trkpt lat="45.28202" lon="3.81634">
        <ele>935</ele>
        <time>2021-04-15T07:54:55Z</time>
      </trkpt>
      <trkpt lat="45.28197" lon="3.81636">
        <ele>935</ele>
        <time>2021-04-15T07:54:57Z</time>
      </trkpt>
      <trkpt lat="45.28191" lon="3.81639">
        <ele>935</ele>
        <time>2021-04-15T07:54:58Z</time>
      </trkpt>
      <trkpt lat="45.28185" lon="3.81642">
        <ele>935</ele>
        <time>2021-04-15T07:54:59Z</time>
      </trkpt>
      <trkpt lat="45.28178" lon="3.81645">
        <ele>935</ele>
        <time>2021-04-15T07:55:00Z</time>
      </trkpt>
      <trkpt lat="45.2817" lon="3.81647">
        <ele>934</ele>
        <time>2021-04-15T07:55:01Z</time>
      </trkpt>
      <trkpt lat="45.28163" lon="3.81648">
        <ele>934</ele>
        <time>2021-04-15T07:55:02Z</time>
      </trkpt>
      <trkpt lat="45.28146" lon="3.8165">
        <ele>933</ele>
        <time>2021-04-15T07:55:03Z</time>
      </trkpt>
      <trkpt lat="45.28129" lon="3.8165">
        <ele>932</ele>
        <time>2021-04-15T07:55:05Z</time>
      </trkpt>
      <trkpt lat="45.28121" lon="3.8165">
        <ele>931</ele>
        <time>2021-04-15T07:55:07Z</time>
      </trkpt>
      <trkpt lat="45.28112" lon="3.81651">
        <ele>930</ele>
        <time>2021-04-15T07:55:08Z</time>
      </trkpt>
      <trkpt lat="45.28094" lon="3.81651">
        <ele>930</ele>
        <time>2021-04-15T07:55:09Z</time>
      </trkpt>
      <trkpt lat="45.28085" lon="3.8165">
        <ele>929</ele>
        <time>2021-04-15T07:55:11Z</time>
      </trkpt>
      <trkpt lat="45.28068" lon="3.8165">
        <ele>928</ele>
        <time>2021-04-15T07:55:12Z</time>
      </trkpt>
      <trkpt lat="45.28061" lon="3.8165">
        <ele>928</ele>
        <time>2021-04-15T07:55:14Z</time>
      </trkpt>
      <trkpt lat="45.28052" lon="3.81649">
        <ele>928</ele>
        <time>2021-04-15T07:55:15Z</time>
      </trkpt>
      <trkpt lat="45.28048" lon="3.81649">
        <ele>928</ele>
        <time>2021-04-15T07:55:17Z</time>
      </trkpt>
      <trkpt lat="45.28044" lon="3.81649">
        <ele>927</ele>
        <time>2021-04-15T07:55:18Z</time>
      </trkpt>
      <trkpt lat="45.2804" lon="3.81649">
        <ele>927</ele>
        <time>2021-04-15T07:55:19Z</time>
      </trkpt>
      <trkpt lat="45.28035" lon="3.81649">
        <ele>927</ele>
        <time>2021-04-15T07:55:20Z</time>
      </trkpt>
      <trkpt lat="45.2803" lon="3.81649">
        <ele>927</ele>
        <time>2021-04-15T07:55:21Z</time>
      </trkpt>
      <trkpt lat="45.28025" lon="3.81647">
        <ele>927</ele>
        <time>2021-04-15T07:55:22Z</time>
      </trkpt>
      <trkpt lat="45.28019" lon="3.81645">
        <ele>927</ele>
        <time>2021-04-15T07:55:23Z</time>
      </trkpt>
      <trkpt lat="45.2801" lon="3.81636">
        <ele>927</ele>
        <time>2021-04-15T07:55:24Z</time>
      </trkpt>
      <trkpt lat="45.28006" lon="3.81631">
        <ele>927</ele>
        <time>2021-04-15T07:55:25Z</time>
      </trkpt>
      <trkpt lat="45.28003" lon="3.81626">
        <ele>927</ele>
        <time>2021-04-15T07:55:26Z</time>
      </trkpt>
      <trkpt lat="45.28" lon="3.81622">
        <ele>927</ele>
        <time>2021-04-15T07:55:27Z</time>
      </trkpt>
      <trkpt lat="45.27997" lon="3.81618">
        <ele>927</ele>
        <time>2021-04-15T07:55:28Z</time>
      </trkpt>
      <trkpt lat="45.27993" lon="3.81614">
        <ele>926</ele>
        <time>2021-04-15T07:55:29Z</time>
      </trkpt>
      <trkpt lat="45.27989" lon="3.81611">
        <ele>927</ele>
        <time>2021-04-15T07:55:30Z</time>
      </trkpt>
      <trkpt lat="45.27985" lon="3.81609">
        <ele>927</ele>
        <time>2021-04-15T07:55:31Z</time>
      </trkpt>
      <trkpt lat="45.27981" lon="3.81605">
        <ele>927</ele>
        <time>2021-04-15T07:55:32Z</time>
      </trkpt>
      <trkpt lat="45.27977" lon="3.81601">
        <ele>927</ele>
        <time>2021-04-15T07:55:33Z</time>
      </trkpt>
      <trkpt lat="45.27973" lon="3.81597">
        <ele>927</ele>
        <time>2021-04-15T07:55:34Z</time>
      </trkpt>
      <trkpt lat="45.27969" lon="3.81594">
        <ele>927</ele>
        <time>2021-04-15T07:55:35Z</time>
      </trkpt>
      <trkpt lat="45.27965" lon="3.81593">
        <ele>927</ele>
        <time>2021-04-15T07:55:36Z</time>
      </trkpt>
      <trkpt lat="45.27962" lon="3.81596">
        <ele>927</ele>
        <time>2021-04-15T07:55:37Z</time>
      </trkpt>
      <trkpt lat="45.27961" lon="3.81601">
        <ele>927</ele>
        <time>2021-04-15T07:55:38Z</time>
      </trkpt>
      <trkpt lat="45.2796" lon="3.81606">
        <ele>927</ele>
        <time>2021-04-15T07:55:39Z</time>
      </trkpt>
      <trkpt lat="45.2796" lon="3.81613">
        <ele>927</ele>
        <time>2021-04-15T07:55:40Z</time>
      </trkpt>
      <trkpt lat="45.2796" lon="3.81619">
        <ele>927</ele>
        <time>2021-04-15T07:55:41Z</time>
      </trkpt>
      <trkpt lat="45.2796" lon="3.81624">
        <ele>927</ele>
        <time>2021-04-15T07:55:42Z</time>
      </trkpt>
      <trkpt lat="45.2796" lon="3.81629">
        <ele>927</ele>
        <time>2021-04-15T07:55:43Z</time>
      </trkpt>
      <trkpt lat="45.2796" lon="3.81634">
        <ele>927</ele>
        <time>2021-04-15T07:55:44Z</time>
      </trkpt>
      <trkpt lat="45.2796" lon="3.81639">
        <ele>927</ele>
        <time>2021-04-15T07:55:45Z</time>
      </trkpt>
      <trkpt lat="45.27961" lon="3.81643">
        <ele>927</ele>
        <time>2021-04-15T07:55:46Z</time>
      </trkpt>
      <trkpt lat="45.2796" lon="3.81648">
        <ele>927</ele>
        <time>2021-04-15T07:55:47Z</time>
      </trkpt>
      <trkpt lat="45.2796" lon="3.81653">
        <ele>927</ele>
        <time>2021-04-15T07:55:48Z</time>
      </trkpt>
      <trkpt lat="45.2796" lon="3.81657">
        <ele>927</ele>
        <time>2021-04-15T07:55:49Z</time>
      </trkpt>
      <trkpt lat="45.27961" lon="3.81662">
        <ele>927</ele>
        <time>2021-04-15T07:55:50Z</time>
      </trkpt>
      <trkpt lat="45.27961" lon="3.81668">
        <ele>927</ele>
        <time>2021-04-15T07:55:51Z</time>
      </trkpt>
      <trkpt lat="45.27962" lon="3.81674">
        <ele>927</ele>
        <time>2021-04-15T07:55:52Z</time>
      </trkpt>
      <trkpt lat="45.27963" lon="3.8168">
        <ele>926</ele>
        <time>2021-04-15T07:55:53Z</time>
      </trkpt>
      <trkpt lat="45.27966" lon="3.81686">
        <ele>926</ele>
        <time>2021-04-15T07:55:54Z</time>
      </trkpt>
      <trkpt lat="45.27969" lon="3.8169">
        <ele>926</ele>
        <time>2021-04-15T07:55:55Z</time>
      </trkpt>
      <trkpt lat="45.27973" lon="3.81694">
        <ele>926</ele>
        <time>2021-04-15T07:55:56Z</time>
      </trkpt>
      <trkpt lat="45.27976" lon="3.81697">
        <ele>926</ele>
        <time>2021-04-15T07:55:57Z</time>
      </trkpt>
      <trkpt lat="45.2798" lon="3.81701">
        <ele>926</ele>
        <time>2021-04-15T07:55:58Z</time>
      </trkpt>
      <trkpt lat="45.27984" lon="3.81704">
        <ele>926</ele>
        <time>2021-04-15T07:55:59Z</time>
      </trkpt>
      <trkpt lat="45.27988" lon="3.81708">
        <ele>925</ele>
        <time>2021-04-15T07:56:00Z</time>
      </trkpt>
      <trkpt lat="45.27991" lon="3.81711">
        <ele>925</ele>
        <time>2021-04-15T07:56:01Z</time>
      </trkpt>
      <trkpt lat="45.27995" lon="3.81715">
        <ele>925</ele>
        <time>2021-04-15T07:56:02Z</time>
      </trkpt>
      <trkpt lat="45.27998" lon="3.8172">
        <ele>925</ele>
        <time>2021-04-15T07:56:03Z</time>
      </trkpt>
      <trkpt lat="45.28001" lon="3.81725">
        <ele>925</ele>
        <time>2021-04-15T07:56:04Z</time>
      </trkpt>
      <trkpt lat="45.28005" lon="3.81732">
        <ele>925</ele>
        <time>2021-04-15T07:56:05Z</time>
      </trkpt>
      <trkpt lat="45.28008" lon="3.81739">
        <ele>925</ele>
        <time>2021-04-15T07:56:06Z</time>
      </trkpt>
      <trkpt lat="45.28012" lon="3.81746">
        <ele>925</ele>
        <time>2021-04-15T07:56:07Z</time>
      </trkpt>
      <trkpt lat="45.28016" lon="3.81753">
        <ele>924</ele>
        <time>2021-04-15T07:56:08Z</time>
      </trkpt>
      <trkpt lat="45.28019" lon="3.81761">
        <ele>924</ele>
        <time>2021-04-15T07:56:09Z</time>
      </trkpt>
      <trkpt lat="45.28023" lon="3.81768">
        <ele>924</ele>
        <time>2021-04-15T07:56:10Z</time>
      </trkpt>
      <trkpt lat="45.28026" lon="3.81776">
        <ele>924</ele>
        <time>2021-04-15T07:56:11Z</time>
      </trkpt>
      <trkpt lat="45.2803" lon="3.81783">
        <ele>923</ele>
        <time>2021-04-15T07:56:12Z</time>
      </trkpt>
      <trkpt lat="45.28034" lon="3.8179">
        <ele>923</ele>
        <time>2021-04-15T07:56:13Z</time>
      </trkpt>
      <trkpt lat="45.28038" lon="3.81797">
        <ele>923</ele>
        <time>2021-04-15T07:56:14Z</time>
      </trkpt>
      <trkpt lat="45.28043" lon="3.81803">
        <ele>922</ele>
        <time>2021-04-15T07:56:15Z</time>
      </trkpt>
      <trkpt lat="45.28047" lon="3.81809">
        <ele>922</ele>
        <time>2021-04-15T07:56:16Z</time>
      </trkpt>
      <trkpt lat="45.28052" lon="3.81815">
        <ele>921</ele>
        <time>2021-04-15T07:56:17Z</time>
      </trkpt>
      <trkpt lat="45.28057" lon="3.8182">
        <ele>921</ele>
        <time>2021-04-15T07:56:18Z</time>
      </trkpt>
      <trkpt lat="45.28062" lon="3.81824">
        <ele>921</ele>
        <time>2021-04-15T07:56:19Z</time>
      </trkpt>
      <trkpt lat="45.28067" lon="3.81828">
        <ele>920</ele>
        <time>2021-04-15T07:56:20Z</time>
      </trkpt>
      <trkpt lat="45.28072" lon="3.81832">
        <ele>920</ele>
        <time>2021-04-15T07:56:21Z</time>
      </trkpt>
      <trkpt lat="45.28078" lon="3.81836">
        <ele>919</ele>
        <time>2021-04-15T07:56:22Z</time>
      </trkpt>
      <trkpt lat="45.28084" lon="3.8184">
        <ele>919</ele>
        <time>2021-04-15T07:56:23Z</time>
      </trkpt>
      <trkpt lat="45.28091" lon="3.81844">
        <ele>918</ele>
        <time>2021-04-15T07:56:24Z</time>
      </trkpt>
      <trkpt lat="45.28098" lon="3.81847">
        <ele>917</ele>
        <time>2021-04-15T07:56:25Z</time>
      </trkpt>
      <trkpt lat="45.28106" lon="3.81851">
        <ele>917</ele>
        <time>2021-04-15T07:56:26Z</time>
      </trkpt>
      <trkpt lat="45.28114" lon="3.81853">
        <ele>916</ele>
        <time>2021-04-15T07:56:27Z</time>
      </trkpt>
      <trkpt lat="45.28123" lon="3.81855">
        <ele>915</ele>
        <time>2021-04-15T07:56:28Z</time>
      </trkpt>
      <trkpt lat="45.28133" lon="3.81855">
        <ele>915</ele>
        <time>2021-04-15T07:56:29Z</time>
      </trkpt>
      <trkpt lat="45.28142" lon="3.81854">
        <ele>914</ele>
        <time>2021-04-15T07:56:30Z</time>
      </trkpt>
      <trkpt lat="45.28152" lon="3.81852">
        <ele>913</ele>
        <time>2021-04-15T07:56:31Z</time>
      </trkpt>
      <trkpt lat="45.28162" lon="3.81849">
        <ele>912</ele>
        <time>2021-04-15T07:56:32Z</time>
      </trkpt>
      <trkpt lat="45.28172" lon="3.81846">
        <ele>911</ele>
        <time>2021-04-15T07:56:33Z</time>
      </trkpt>
      <trkpt lat="45.28182" lon="3.81843">
        <ele>911</ele>
        <time>2021-04-15T07:56:34Z</time>
      </trkpt>
      <trkpt lat="45.28193" lon="3.8184">
        <ele>910</ele>
        <time>2021-04-15T07:56:35Z</time>
      </trkpt>
      <trkpt lat="45.28203" lon="3.81837">
        <ele>909</ele>
        <time>2021-04-15T07:56:36Z</time>
      </trkpt>
      <trkpt lat="45.28215" lon="3.81834">
        <ele>908</ele>
        <time>2021-04-15T07:56:37Z</time>
      </trkpt>
      <trkpt lat="45.28226" lon="3.81832">
        <ele>908</ele>
        <time>2021-04-15T07:56:38Z</time>
      </trkpt>
      <trkpt lat="45.28238" lon="3.8183">
        <ele>907</ele>
        <time>2021-04-15T07:56:39Z</time>
      </trkpt>
      <trkpt lat="45.2825" lon="3.8183">
        <ele>906</ele>
        <time>2021-04-15T07:56:40Z</time>
      </trkpt>
      <trkpt lat="45.28261" lon="3.81833">
        <ele>905</ele>
        <time>2021-04-15T07:56:41Z</time>
      </trkpt>
      <trkpt lat="45.28272" lon="3.81838">
        <ele>904</ele>
        <time>2021-04-15T07:56:42Z</time>
      </trkpt>
      <trkpt lat="45.28281" lon="3.81846">
        <ele>903</ele>
        <time>2021-04-15T07:56:43Z</time>
      </trkpt>
      <trkpt lat="45.28287" lon="3.81856">
        <ele>902</ele>
        <time>2021-04-15T07:56:44Z</time>
      </trkpt>
      <trkpt lat="45.28291" lon="3.81867">
        <ele>901</ele>
        <time>2021-04-15T07:56:45Z</time>
      </trkpt>
      <trkpt lat="45.28295" lon="3.81878">
        <ele>901</ele>
        <time>2021-04-15T07:56:46Z</time>
      </trkpt>
      <trkpt lat="45.28298" lon="3.81888">
        <ele>901</ele>
        <time>2021-04-15T07:56:47Z</time>
      </trkpt>
      <trkpt lat="45.28301" lon="3.81899">
        <ele>901</ele>
        <time>2021-04-15T07:56:48Z</time>
      </trkpt>
      <trkpt lat="45.28303" lon="3.81909">
        <ele>900</ele>
        <time>2021-04-15T07:56:49Z</time>
      </trkpt>
      <trkpt lat="45.28306" lon="3.8192">
        <ele>899</ele>
        <time>2021-04-15T07:56:50Z</time>
      </trkpt>
      <trkpt lat="45.28308" lon="3.81929">
        <ele>899</ele>
        <time>2021-04-15T07:56:51Z</time>
      </trkpt>
      <trkpt lat="45.28311" lon="3.81938">
        <ele>899</ele>
        <time>2021-04-15T07:56:52Z</time>
      </trkpt>
      <trkpt lat="45.28314" lon="3.81946">
        <ele>898</ele>
        <time>2021-04-15T07:56:53Z</time>
      </trkpt>
      <trkpt lat="45.28317" lon="3.81954">
        <ele>898</ele>
        <time>2021-04-15T07:56:54Z</time>
      </trkpt>
      <trkpt lat="45.2832" lon="3.81961">
        <ele>897</ele>
        <time>2021-04-15T07:56:55Z</time>
      </trkpt>
      <trkpt lat="45.28323" lon="3.81968">
        <ele>897</ele>
        <time>2021-04-15T07:56:56Z</time>
      </trkpt>
      <trkpt lat="45.28327" lon="3.81974">
        <ele>896</ele>
        <time>2021-04-15T07:56:57Z</time>
      </trkpt>
      <trkpt lat="45.2833" lon="3.81979">
        <ele>896</ele>
        <time>2021-04-15T07:56:58Z</time>
      </trkpt>
      <trkpt lat="45.28334" lon="3.81983">
        <ele>896</ele>
        <time>2021-04-15T07:56:59Z</time>
      </trkpt>
      <trkpt lat="45.28338" lon="3.81987">
        <ele>896</ele>
        <time>2021-04-15T07:57:00Z</time>
      </trkpt>
      <trkpt lat="45.28343" lon="3.8199">
        <ele>896</ele>
        <time>2021-04-15T07:57:02Z</time>
      </trkpt>
      <trkpt lat="45.28351" lon="3.81995">
        <ele>896</ele>
        <time>2021-04-15T07:57:03Z</time>
      </trkpt>
      <trkpt lat="45.28355" lon="3.81998">
        <ele>896</ele>
        <time>2021-04-15T07:57:05Z</time>
      </trkpt>
      <trkpt lat="45.28359" lon="3.82001">
        <ele>896</ele>
        <time>2021-04-15T07:57:06Z</time>
      </trkpt>
      <trkpt lat="45.28366" lon="3.82007">
        <ele>896</ele>
        <time>2021-04-15T07:57:07Z</time>
      </trkpt>
      <trkpt lat="45.2837" lon="3.82011">
        <ele>896</ele>
        <time>2021-04-15T07:57:08Z</time>
      </trkpt>
      <trkpt lat="45.28373" lon="3.82015">
        <ele>896</ele>
        <time>2021-04-15T07:57:09Z</time>
      </trkpt>
      <trkpt lat="45.28377" lon="3.82019">
        <ele>896</ele>
        <time>2021-04-15T07:57:10Z</time>
      </trkpt>
      <trkpt lat="45.2838" lon="3.82023">
        <ele>896</ele>
        <time>2021-04-15T07:57:11Z</time>
      </trkpt>
      <trkpt lat="45.28383" lon="3.82027">
        <ele>896</ele>
        <time>2021-04-15T07:57:13Z</time>
      </trkpt>
      <trkpt lat="45.28387" lon="3.82031">
        <ele>896</ele>
        <time>2021-04-15T07:57:14Z</time>
      </trkpt>
      <trkpt lat="45.2839" lon="3.82034">
        <ele>896</ele>
        <time>2021-04-15T07:57:15Z</time>
      </trkpt>
      <trkpt lat="45.28394" lon="3.82038">
        <ele>897</ele>
        <time>2021-04-15T07:57:16Z</time>
      </trkpt>
      <trkpt lat="45.28398" lon="3.8204">
        <ele>897</ele>
        <time>2021-04-15T07:57:17Z</time>
      </trkpt>
      <trkpt lat="45.28406" lon="3.82046">
        <ele>897</ele>
        <time>2021-04-15T07:57:18Z</time>
      </trkpt>
      <trkpt lat="45.2841" lon="3.82048">
        <ele>897</ele>
        <time>2021-04-15T07:57:20Z</time>
      </trkpt>
      <trkpt lat="45.28414" lon="3.8205">
        <ele>897</ele>
        <time>2021-04-15T07:57:21Z</time>
      </trkpt>
      <trkpt lat="45.28422" lon="3.82054">
        <ele>898</ele>
        <time>2021-04-15T07:57:22Z</time>
      </trkpt>
      <trkpt lat="45.28427" lon="3.82056">
        <ele>898</ele>
        <time>2021-04-15T07:57:24Z</time>
      </trkpt>
      <trkpt lat="45.28435" lon="3.8206">
        <ele>898</ele>
        <time>2021-04-15T07:57:25Z</time>
      </trkpt>
      <trkpt lat="45.28439" lon="3.82062">
        <ele>899</ele>
        <time>2021-04-15T07:57:27Z</time>
      </trkpt>
      <trkpt lat="45.28444" lon="3.82064">
        <ele>899</ele>
        <time>2021-04-15T07:57:28Z</time>
      </trkpt>
      <trkpt lat="45.28448" lon="3.82065">
        <ele>899</ele>
        <time>2021-04-15T07:57:29Z</time>
      </trkpt>
      <trkpt lat="45.28456" lon="3.82068">
        <ele>900</ele>
        <time>2021-04-15T07:57:30Z</time>
      </trkpt>
      <trkpt lat="45.2846" lon="3.8207">
        <ele>900</ele>
        <time>2021-04-15T07:57:32Z</time>
      </trkpt>
      <trkpt lat="45.28464" lon="3.82071">
        <ele>900</ele>
        <time>2021-04-15T07:57:33Z</time>
      </trkpt>
      <trkpt lat="45.28472" lon="3.82074">
        <ele>901</ele>
        <time>2021-04-15T07:57:34Z</time>
      </trkpt>
      <trkpt lat="45.28476" lon="3.82075">
        <ele>901</ele>
        <time>2021-04-15T07:57:36Z</time>
      </trkpt>
      <trkpt lat="45.28483" lon="3.82078">
        <ele>901</ele>
        <time>2021-04-15T07:57:37Z</time>
      </trkpt>
      <trkpt lat="45.28487" lon="3.82079">
        <ele>902</ele>
        <time>2021-04-15T07:57:38Z</time>
      </trkpt>
      <trkpt lat="45.28491" lon="3.82081">
        <ele>902</ele>
        <time>2021-04-15T07:57:39Z</time>
      </trkpt>
      <trkpt lat="45.28495" lon="3.82083">
        <ele>902</ele>
        <time>2021-04-15T07:57:40Z</time>
      </trkpt>
      <trkpt lat="45.28499" lon="3.82085">
        <ele>902</ele>
        <time>2021-04-15T07:57:41Z</time>
      </trkpt>
      <trkpt lat="45.28502" lon="3.82088">
        <ele>903</ele>
        <time>2021-04-15T07:57:42Z</time>
      </trkpt>
      <trkpt lat="45.28506" lon="3.82091">
        <ele>903</ele>
        <time>2021-04-15T07:57:43Z</time>
      </trkpt>
      <trkpt lat="45.28509" lon="3.82094">
        <ele>903</ele>
        <time>2021-04-15T07:57:44Z</time>
      </trkpt>
      <trkpt lat="45.28513" lon="3.82097">
        <ele>903</ele>
        <time>2021-04-15T07:57:45Z</time>
      </trkpt>
      <trkpt lat="45.28516" lon="3.821">
        <ele>903</ele>
        <time>2021-04-15T07:57:46Z</time>
      </trkpt>
      <trkpt lat="45.28519" lon="3.82104">
        <ele>904</ele>
        <time>2021-04-15T07:57:47Z</time>
      </trkpt>
      <trkpt lat="45.28522" lon="3.82108">
        <ele>904</ele>
        <time>2021-04-15T07:57:48Z</time>
      </trkpt>
      <trkpt lat="45.28525" lon="3.82112">
        <ele>904</ele>
        <time>2021-04-15T07:57:49Z</time>
      </trkpt>
      <trkpt lat="45.28528" lon="3.82116">
        <ele>905</ele>
        <time>2021-04-15T07:57:50Z</time>
      </trkpt>
      <trkpt lat="45.28531" lon="3.8212">
        <ele>905</ele>
        <time>2021-04-15T07:57:51Z</time>
      </trkpt>
      <trkpt lat="45.28534" lon="3.82124">
        <ele>905</ele>
        <time>2021-04-15T07:57:52Z</time>
      </trkpt>
      <trkpt lat="45.28537" lon="3.82128">
        <ele>906</ele>
        <time>2021-04-15T07:57:53Z</time>
      </trkpt>
      <trkpt lat="45.28539" lon="3.82133">
        <ele>906</ele>
        <time>2021-04-15T07:57:54Z</time>
      </trkpt>
      <trkpt lat="45.28542" lon="3.82137">
        <ele>906</ele>
        <time>2021-04-15T07:57:55Z</time>
      </trkpt>
      <trkpt lat="45.28544" lon="3.82142">
        <ele>907</ele>
        <time>2021-04-15T07:57:56Z</time>
      </trkpt>
      <trkpt lat="45.28546" lon="3.82147">
        <ele>907</ele>
        <time>2021-04-15T07:57:57Z</time>
      </trkpt>
      <trkpt lat="45.28549" lon="3.82152">
        <ele>907</ele>
        <time>2021-04-15T07:57:58Z</time>
      </trkpt>
      <trkpt lat="45.28552" lon="3.82157">
        <ele>907</ele>
        <time>2021-04-15T07:57:59Z</time>
      </trkpt>
      <trkpt lat="45.28555" lon="3.82163">
        <ele>907</ele>
        <time>2021-04-15T07:58:00Z</time>
      </trkpt>
      <trkpt lat="45.28558" lon="3.82169">
        <ele>908</ele>
        <time>2021-04-15T07:58:01Z</time>
      </trkpt>
      <trkpt lat="45.2856" lon="3.82175">
        <ele>908</ele>
        <time>2021-04-15T07:58:02Z</time>
      </trkpt>
      <trkpt lat="45.28563" lon="3.82181">
        <ele>908</ele>
        <time>2021-04-15T07:58:03Z</time>
      </trkpt>
      <trkpt lat="45.28565" lon="3.82187">
        <ele>908</ele>
        <time>2021-04-15T07:58:04Z</time>
      </trkpt>
      <trkpt lat="45.28567" lon="3.82193">
        <ele>908</ele>
        <time>2021-04-15T07:58:05Z</time>
      </trkpt>
      <trkpt lat="45.2857" lon="3.82199">
        <ele>908</ele>
        <time>2021-04-15T07:58:06Z</time>
      </trkpt>
      <trkpt lat="45.28572" lon="3.82206">
        <ele>908</ele>
        <time>2021-04-15T07:58:07Z</time>
      </trkpt>
      <trkpt lat="45.28575" lon="3.82212">
        <ele>909</ele>
        <time>2021-04-15T07:58:08Z</time>
      </trkpt>
      <trkpt lat="45.28578" lon="3.82218">
        <ele>909</ele>
        <time>2021-04-15T07:58:09Z</time>
      </trkpt>
      <trkpt lat="45.28581" lon="3.82224">
        <ele>909</ele>
        <time>2021-04-15T07:58:10Z</time>
      </trkpt>
      <trkpt lat="45.28584" lon="3.82228">
        <ele>909</ele>
        <time>2021-04-15T07:58:11Z</time>
      </trkpt>
      <trkpt lat="45.28588" lon="3.82233">
        <ele>910</ele>
        <time>2021-04-15T07:58:12Z</time>
      </trkpt>
      <trkpt lat="45.28593" lon="3.82237">
        <ele>910</ele>
        <time>2021-04-15T07:58:13Z</time>
      </trkpt>
      <trkpt lat="45.28597" lon="3.8224">
        <ele>910</ele>
        <time>2021-04-15T07:58:14Z</time>
      </trkpt>
      <trkpt lat="45.28601" lon="3.82243">
        <ele>911</ele>
        <time>2021-04-15T07:58:15Z</time>
      </trkpt>
      <trkpt lat="45.28606" lon="3.82246">
        <ele>911</ele>
        <time>2021-04-15T07:58:16Z</time>
      </trkpt>
      <trkpt lat="45.2861" lon="3.82249">
        <ele>911</ele>
        <time>2021-04-15T07:58:17Z</time>
      </trkpt>
      <trkpt lat="45.28615" lon="3.82252">
        <ele>912</ele>
        <time>2021-04-15T07:58:18Z</time>
      </trkpt>
      <trkpt lat="45.28618" lon="3.82256">
        <ele>912</ele>
        <time>2021-04-15T07:58:19Z</time>
      </trkpt>
      <trkpt lat="45.28621" lon="3.82259">
        <ele>912</ele>
        <time>2021-04-15T07:58:20Z</time>
      </trkpt>
      <trkpt lat="45.28625" lon="3.82263">
        <ele>912</ele>
        <time>2021-04-15T07:58:21Z</time>
      </trkpt>
      <trkpt lat="45.28628" lon="3.82267">
        <ele>913</ele>
        <time>2021-04-15T07:58:22Z</time>
      </trkpt>
      <trkpt lat="45.28631" lon="3.82271">
        <ele>913</ele>
        <time>2021-04-15T07:58:23Z</time>
      </trkpt>
      <trkpt lat="45.28634" lon="3.82276">
        <ele>913</ele>
        <time>2021-04-15T07:58:24Z</time>
      </trkpt>
      <trkpt lat="45.28637" lon="3.82282">
        <ele>913</ele>
        <time>2021-04-15T07:58:25Z</time>
      </trkpt>
      <trkpt lat="45.28638" lon="3.82288">
        <ele>913</ele>
        <time>2021-04-15T07:58:26Z</time>
      </trkpt>
      <trkpt lat="45.28638" lon="3.82295">
        <ele>914</ele>
        <time>2021-04-15T07:58:27Z</time>
      </trkpt>
      <trkpt lat="45.28638" lon="3.82302">
        <ele>914</ele>
        <time>2021-04-15T07:58:28Z</time>
      </trkpt>
      <trkpt lat="45.28637" lon="3.82308">
        <ele>914</ele>
        <time>2021-04-15T07:58:29Z</time>
      </trkpt>
      <trkpt lat="45.28637" lon="3.82314">
        <ele>914</ele>
        <time>2021-04-15T07:58:30Z</time>
      </trkpt>
      <trkpt lat="45.28637" lon="3.8232">
        <ele>915</ele>
        <time>2021-04-15T07:58:31Z</time>
      </trkpt>
      <trkpt lat="45.28637" lon="3.82326">
        <ele>915</ele>
        <time>2021-04-15T07:58:32Z</time>
      </trkpt>
      <trkpt lat="45.28636" lon="3.82331">
        <ele>915</ele>
        <time>2021-04-15T07:58:33Z</time>
      </trkpt>
      <trkpt lat="45.28634" lon="3.82336">
        <ele>916</ele>
        <time>2021-04-15T07:58:34Z</time>
      </trkpt>
      <trkpt lat="45.28631" lon="3.82341">
        <ele>916</ele>
        <time>2021-04-15T07:58:35Z</time>
      </trkpt>
      <trkpt lat="45.28628" lon="3.82346">
        <ele>916</ele>
        <time>2021-04-15T07:58:36Z</time>
      </trkpt>
      <trkpt lat="45.28624" lon="3.82351">
        <ele>916</ele>
        <time>2021-04-15T07:58:37Z</time>
      </trkpt>
      <trkpt lat="45.28621" lon="3.82355">
        <ele>916</ele>
        <time>2021-04-15T07:58:38Z</time>
      </trkpt>
      <trkpt lat="45.28617" lon="3.82359">
        <ele>916</ele>
        <time>2021-04-15T07:58:39Z</time>
      </trkpt>
      <trkpt lat="45.28614" lon="3.82362">
        <ele>917</ele>
        <time>2021-04-15T07:58:40Z</time>
      </trkpt>
      <trkpt lat="45.28611" lon="3.82367">
        <ele>917</ele>
        <time>2021-04-15T07:58:41Z</time>
      </trkpt>
      <trkpt lat="45.28608" lon="3.82371">
        <ele>917</ele>
        <time>2021-04-15T07:58:42Z</time>
      </trkpt>
      <trkpt lat="45.28604" lon="3.82376">
        <ele>917</ele>
        <time>2021-04-15T07:58:43Z</time>
      </trkpt>
      <trkpt lat="45.28602" lon="3.82381">
        <ele>917</ele>
        <time>2021-04-15T07:58:44Z</time>
      </trkpt>
      <trkpt lat="45.28599" lon="3.82385">
        <ele>918</ele>
        <time>2021-04-15T07:58:45Z</time>
      </trkpt>
      <trkpt lat="45.28596" lon="3.8239">
        <ele>918</ele>
        <time>2021-04-15T07:58:46Z</time>
      </trkpt>
      <trkpt lat="45.28593" lon="3.82395">
        <ele>918</ele>
        <time>2021-04-15T07:58:47Z</time>
      </trkpt>
      <trkpt lat="45.2859" lon="3.824">
        <ele>918</ele>
        <time>2021-04-15T07:58:48Z</time>
      </trkpt>
      <trkpt lat="45.28587" lon="3.82405">
        <ele>918</ele>
        <time>2021-04-15T07:58:49Z</time>
      </trkpt>
      <trkpt lat="45.28584" lon="3.82411">
        <ele>918</ele>
        <time>2021-04-15T07:58:50Z</time>
      </trkpt>
      <trkpt lat="45.2858" lon="3.82417">
        <ele>919</ele>
        <time>2021-04-15T07:58:51Z</time>
      </trkpt>
      <trkpt lat="45.28577" lon="3.82423">
        <ele>919</ele>
        <time>2021-04-15T07:58:52Z</time>
      </trkpt>
      <trkpt lat="45.28574" lon="3.8243">
        <ele>919</ele>
        <time>2021-04-15T07:58:53Z</time>
      </trkpt>
      <trkpt lat="45.2857" lon="3.82438">
        <ele>919</ele>
        <time>2021-04-15T07:58:55Z</time>
      </trkpt>
      <trkpt lat="45.28566" lon="3.82446">
        <ele>919</ele>
        <time>2021-04-15T07:58:56Z</time>
      </trkpt>
      <trkpt lat="45.28563" lon="3.82455">
        <ele>919</ele>
        <time>2021-04-15T07:58:57Z</time>
      </trkpt>
      <trkpt lat="45.28559" lon="3.82464">
        <ele>920</ele>
        <time>2021-04-15T07:58:58Z</time>
      </trkpt>
      <trkpt lat="45.28554" lon="3.82472">
        <ele>920</ele>
        <time>2021-04-15T07:58:59Z</time>
      </trkpt>
      <trkpt lat="45.28544" lon="3.82486">
        <ele>920</ele>
        <time>2021-04-15T07:59:00Z</time>
      </trkpt>
      <trkpt lat="45.28539" lon="3.82492">
        <ele>920</ele>
        <time>2021-04-15T07:59:02Z</time>
      </trkpt>
      <trkpt lat="45.28533" lon="3.82497">
        <ele>920</ele>
        <time>2021-04-15T07:59:03Z</time>
      </trkpt>
      <trkpt lat="45.28527" lon="3.82502">
        <ele>920</ele>
        <time>2021-04-15T07:59:04Z</time>
      </trkpt>
      <trkpt lat="45.28521" lon="3.82505">
        <ele>921</ele>
        <time>2021-04-15T07:59:05Z</time>
      </trkpt>
      <trkpt lat="45.28515" lon="3.82508">
        <ele>920</ele>
        <time>2021-04-15T07:59:06Z</time>
      </trkpt>
      <trkpt lat="45.28504" lon="3.82512">
        <ele>920</ele>
        <time>2021-04-15T07:59:07Z</time>
      </trkpt>
      <trkpt lat="45.28498" lon="3.82514">
        <ele>921</ele>
        <time>2021-04-15T07:59:09Z</time>
      </trkpt>
      <trkpt lat="45.28493" lon="3.82517">
        <ele>921</ele>
        <time>2021-04-15T07:59:10Z</time>
      </trkpt>
      <trkpt lat="45.28488" lon="3.82521">
        <ele>921</ele>
        <time>2021-04-15T07:59:11Z</time>
      </trkpt>
      <trkpt lat="45.2848" lon="3.82531">
        <ele>921</ele>
        <time>2021-04-15T07:59:12Z</time>
      </trkpt>
      <trkpt lat="45.28476" lon="3.82537">
        <ele>922</ele>
        <time>2021-04-15T07:59:13Z</time>
      </trkpt>
      <trkpt lat="45.28472" lon="3.82543">
        <ele>922</ele>
        <time>2021-04-15T07:59:14Z</time>
      </trkpt>
      <trkpt lat="45.2847" lon="3.82551">
        <ele>922</ele>
        <time>2021-04-15T07:59:15Z</time>
      </trkpt>
      <trkpt lat="45.28467" lon="3.82558">
        <ele>922</ele>
        <time>2021-04-15T07:59:16Z</time>
      </trkpt>
      <trkpt lat="45.28465" lon="3.82564">
        <ele>922</ele>
        <time>2021-04-15T07:59:17Z</time>
      </trkpt>
      <trkpt lat="45.28464" lon="3.82571">
        <ele>922</ele>
        <time>2021-04-15T07:59:18Z</time>
      </trkpt>
      <trkpt lat="45.28463" lon="3.82578">
        <ele>922</ele>
        <time>2021-04-15T07:59:19Z</time>
      </trkpt>
      <trkpt lat="45.28462" lon="3.82585">
        <ele>922</ele>
        <time>2021-04-15T07:59:20Z</time>
      </trkpt>
      <trkpt lat="45.28461" lon="3.82592">
        <ele>923</ele>
        <time>2021-04-15T07:59:21Z</time>
      </trkpt>
      <trkpt lat="45.28461" lon="3.82599">
        <ele>923</ele>
        <time>2021-04-15T07:59:22Z</time>
      </trkpt>
      <trkpt lat="45.2846" lon="3.82606">
        <ele>923</ele>
        <time>2021-04-15T07:59:23Z</time>
      </trkpt>
      <trkpt lat="45.2846" lon="3.82613">
        <ele>924</ele>
        <time>2021-04-15T07:59:24Z</time>
      </trkpt>
      <trkpt lat="45.28461" lon="3.82619">
        <ele>924</ele>
        <time>2021-04-15T07:59:25Z</time>
      </trkpt>
      <trkpt lat="45.28461" lon="3.82626">
        <ele>924</ele>
        <time>2021-04-15T07:59:26Z</time>
      </trkpt>
      <trkpt lat="45.28462" lon="3.82633">
        <ele>924</ele>
        <time>2021-04-15T07:59:27Z</time>
      </trkpt>
      <trkpt lat="45.28463" lon="3.8264">
        <ele>925</ele>
        <time>2021-04-15T07:59:28Z</time>
      </trkpt>
      <trkpt lat="45.28464" lon="3.82647">
        <ele>924</ele>
        <time>2021-04-15T07:59:29Z</time>
      </trkpt>
      <trkpt lat="45.28465" lon="3.82654">
        <ele>924</ele>
        <time>2021-04-15T07:59:30Z</time>
      </trkpt>
      <trkpt lat="45.28466" lon="3.82662">
        <ele>925</ele>
        <time>2021-04-15T07:59:31Z</time>
      </trkpt>
      <trkpt lat="45.28467" lon="3.82669">
        <ele>925</ele>
        <time>2021-04-15T07:59:32Z</time>
      </trkpt>
      <trkpt lat="45.28468" lon="3.82676">
        <ele>925</ele>
        <time>2021-04-15T07:59:33Z</time>
      </trkpt>
      <trkpt lat="45.28469" lon="3.82683">
        <ele>925</ele>
        <time>2021-04-15T07:59:34Z</time>
      </trkpt>
      <trkpt lat="45.28471" lon="3.82689">
        <ele>925</ele>
        <time>2021-04-15T07:59:35Z</time>
      </trkpt>
      <trkpt lat="45.28472" lon="3.82696">
        <ele>925</ele>
        <time>2021-04-15T07:59:36Z</time>
      </trkpt>
      <trkpt lat="45.28473" lon="3.82703">
        <ele>925</ele>
        <time>2021-04-15T07:59:37Z</time>
      </trkpt>
      <trkpt lat="45.28474" lon="3.82709">
        <ele>925</ele>
        <time>2021-04-15T07:59:38Z</time>
      </trkpt>
      <trkpt lat="45.28475" lon="3.82716">
        <ele>925</ele>
        <time>2021-04-15T07:59:39Z</time>
      </trkpt>
      <trkpt lat="45.28476" lon="3.82723">
        <ele>925</ele>
        <time>2021-04-15T07:59:40Z</time>
      </trkpt>
      <trkpt lat="45.28476" lon="3.8273">
        <ele>925</ele>
        <time>2021-04-15T07:59:41Z</time>
      </trkpt>
      <trkpt lat="45.28477" lon="3.82737">
        <ele>925</ele>
        <time>2021-04-15T07:59:42Z</time>
      </trkpt>
      <trkpt lat="45.28477" lon="3.82744">
        <ele>925</ele>
        <time>2021-04-15T07:59:43Z</time>
      </trkpt>
      <trkpt lat="45.28477" lon="3.82752">
        <ele>926</ele>
        <time>2021-04-15T07:59:44Z</time>
      </trkpt>
      <trkpt lat="45.28477" lon="3.82759">
        <ele>926</ele>
        <time>2021-04-15T07:59:45Z</time>
      </trkpt>
      <trkpt lat="45.28477" lon="3.82766">
        <ele>926</ele>
        <time>2021-04-15T07:59:46Z</time>
      </trkpt>
      <trkpt lat="45.28477" lon="3.82773">
        <ele>927</ele>
        <time>2021-04-15T07:59:47Z</time>
      </trkpt>
      <trkpt lat="45.28476" lon="3.82781">
        <ele>927</ele>
        <time>2021-04-15T07:59:48Z</time>
      </trkpt>
      <trkpt lat="45.28476" lon="3.82789">
        <ele>927</ele>
        <time>2021-04-15T07:59:49Z</time>
      </trkpt>
      <trkpt lat="45.28475" lon="3.82797">
        <ele>928</ele>
        <time>2021-04-15T07:59:50Z</time>
      </trkpt>
      <trkpt lat="45.28475" lon="3.82805">
        <ele>928</ele>
        <time>2021-04-15T07:59:51Z</time>
      </trkpt>
      <trkpt lat="45.28474" lon="3.82813">
        <ele>928</ele>
        <time>2021-04-15T07:59:52Z</time>
      </trkpt>
      <trkpt lat="45.28473" lon="3.82821">
        <ele>928</ele>
        <time>2021-04-15T07:59:53Z</time>
      </trkpt>
      <trkpt lat="45.28472" lon="3.82829">
        <ele>929</ele>
        <time>2021-04-15T07:59:54Z</time>
      </trkpt>
      <trkpt lat="45.28471" lon="3.82837">
        <ele>929</ele>
        <time>2021-04-15T07:59:55Z</time>
      </trkpt>
      <trkpt lat="45.28471" lon="3.82845">
        <ele>929</ele>
        <time>2021-04-15T07:59:56Z</time>
      </trkpt>
      <trkpt lat="45.2847" lon="3.82853">
        <ele>929</ele>
        <time>2021-04-15T07:59:57Z</time>
      </trkpt>
      <trkpt lat="45.28469" lon="3.8286">
        <ele>929</ele>
        <time>2021-04-15T07:59:59Z</time>
      </trkpt>
      <trkpt lat="45.28468" lon="3.82868">
        <ele>929</ele>
        <time>2021-04-15T08:00:00Z</time>
      </trkpt>
      <trkpt lat="45.28467" lon="3.82876">
        <ele>929</ele>
        <time>2021-04-15T08:00:01Z</time>
      </trkpt>
      <trkpt lat="45.28467" lon="3.82884">
        <ele>929</ele>
        <time>2021-04-15T08:00:02Z</time>
      </trkpt>
      <trkpt lat="45.28466" lon="3.82892">
        <ele>929</ele>
        <time>2021-04-15T08:00:03Z</time>
      </trkpt>
      <trkpt lat="45.28466" lon="3.82907">
        <ele>930</ele>
        <time>2021-04-15T08:00:04Z</time>
      </trkpt>
      <trkpt lat="45.28465" lon="3.82915">
        <ele>930</ele>
        <time>2021-04-15T08:00:06Z</time>
      </trkpt>
      <trkpt lat="45.28464" lon="3.82923">
        <ele>930</ele>
        <time>2021-04-15T08:00:07Z</time>
      </trkpt>
      <trkpt lat="45.28464" lon="3.82931">
        <ele>930</ele>
        <time>2021-04-15T08:00:08Z</time>
      </trkpt>
      <trkpt lat="45.28463" lon="3.82947">
        <ele>930</ele>
        <time>2021-04-15T08:00:09Z</time>
      </trkpt>
      <trkpt lat="45.28463" lon="3.82954">
        <ele>931</ele>
        <time>2021-04-15T08:00:11Z</time>
      </trkpt>
      <trkpt lat="45.28464" lon="3.82962">
        <ele>931</ele>
        <time>2021-04-15T08:00:12Z</time>
      </trkpt>
      <trkpt lat="45.28464" lon="3.82978">
        <ele>931</ele>
        <time>2021-04-15T08:00:13Z</time>
      </trkpt>
      <trkpt lat="45.28465" lon="3.82985">
        <ele>931</ele>
        <time>2021-04-15T08:00:15Z</time>
      </trkpt>
      <trkpt lat="45.28465" lon="3.82993">
        <ele>931</ele>
        <time>2021-04-15T08:00:16Z</time>
      </trkpt>
      <trkpt lat="45.28466" lon="3.83001">
        <ele>931</ele>
        <time>2021-04-15T08:00:17Z</time>
      </trkpt>
      <trkpt lat="45.28466" lon="3.83009">
        <ele>932</ele>
        <time>2021-04-15T08:00:18Z</time>
      </trkpt>
      <trkpt lat="45.28466" lon="3.83017">
        <ele>932</ele>
        <time>2021-04-15T08:00:19Z</time>
      </trkpt>
      <trkpt lat="45.28466" lon="3.83025">
        <ele>932</ele>
        <time>2021-04-15T08:00:20Z</time>
      </trkpt>
      <trkpt lat="45.28465" lon="3.83033">
        <ele>932</ele>
        <time>2021-04-15T08:00:21Z</time>
      </trkpt>
      <trkpt lat="45.28462" lon="3.83049">
        <ele>932</ele>
        <time>2021-04-15T08:00:22Z</time>
      </trkpt>
      <trkpt lat="45.28461" lon="3.83057">
        <ele>932</ele>
        <time>2021-04-15T08:00:24Z</time>
      </trkpt>
      <trkpt lat="45.28459" lon="3.83073">
        <ele>932</ele>
        <time>2021-04-15T08:00:25Z</time>
      </trkpt>
      <trkpt lat="45.28458" lon="3.83082">
        <ele>932</ele>
        <time>2021-04-15T08:00:27Z</time>
      </trkpt>
      <trkpt lat="45.28456" lon="3.83098">
        <ele>932</ele>
        <time>2021-04-15T08:00:28Z</time>
      </trkpt>
      <trkpt lat="45.28454" lon="3.83114">
        <ele>933</ele>
        <time>2021-04-15T08:00:30Z</time>
      </trkpt>
      <trkpt lat="45.28453" lon="3.83122">
        <ele>933</ele>
        <time>2021-04-15T08:00:31Z</time>
      </trkpt>
      <trkpt lat="45.28453" lon="3.83131">
        <ele>933</ele>
        <time>2021-04-15T08:00:33Z</time>
      </trkpt>
      <trkpt lat="45.28453" lon="3.83139">
        <ele>934</ele>
        <time>2021-04-15T08:00:34Z</time>
      </trkpt>
      <trkpt lat="45.28452" lon="3.83148">
        <ele>934</ele>
        <time>2021-04-15T08:00:35Z</time>
      </trkpt>
      <trkpt lat="45.28452" lon="3.83156">
        <ele>934</ele>
        <time>2021-04-15T08:00:36Z</time>
      </trkpt>
      <trkpt lat="45.28452" lon="3.83165">
        <ele>934</ele>
        <time>2021-04-15T08:00:37Z</time>
      </trkpt>
      <trkpt lat="45.28452" lon="3.83173">
        <ele>935</ele>
        <time>2021-04-15T08:00:38Z</time>
      </trkpt>
      <trkpt lat="45.28453" lon="3.8319">
        <ele>935</ele>
        <time>2021-04-15T08:00:39Z</time>
      </trkpt>
      <trkpt lat="45.28454" lon="3.83198">
        <ele>935</ele>
        <time>2021-04-15T08:00:41Z</time>
      </trkpt>
      <trkpt lat="45.28454" lon="3.83206">
        <ele>935</ele>
        <time>2021-04-15T08:00:42Z</time>
      </trkpt>
      <trkpt lat="45.28454" lon="3.83214">
        <ele>935</ele>
        <time>2021-04-15T08:00:43Z</time>
      </trkpt>
      <trkpt lat="45.28455" lon="3.83222">
        <ele>935</ele>
        <time>2021-04-15T08:00:44Z</time>
      </trkpt>
      <trkpt lat="45.28456" lon="3.83231">
        <ele>935</ele>
        <time>2021-04-15T08:00:45Z</time>
      </trkpt>
      <trkpt lat="45.28456" lon="3.83239">
        <ele>935</ele>
        <time>2021-04-15T08:00:46Z</time>
      </trkpt>
      <trkpt lat="45.28456" lon="3.83255">
        <ele>935</ele>
        <time>2021-04-15T08:00:47Z</time>
      </trkpt>
      <trkpt lat="45.28457" lon="3.83262">
        <ele>935</ele>
        <time>2021-04-15T08:00:48Z</time>
      </trkpt>
      <trkpt lat="45.28457" lon="3.8327">
        <ele>935</ele>
        <time>2021-04-15T08:00:49Z</time>
      </trkpt>
      <trkpt lat="45.28457" lon="3.83278">
        <ele>935</ele>
        <time>2021-04-15T08:00:50Z</time>
      </trkpt>
      <trkpt lat="45.28456" lon="3.83286">
        <ele>935</ele>
        <time>2021-04-15T08:00:51Z</time>
      </trkpt>
      <trkpt lat="45.28456" lon="3.83295">
        <ele>935</ele>
        <time>2021-04-15T08:00:52Z</time>
      </trkpt>
      <trkpt lat="45.28455" lon="3.83303">
        <ele>935</ele>
        <time>2021-04-15T08:00:53Z</time>
      </trkpt>
      <trkpt lat="45.28454" lon="3.83311">
        <ele>935</ele>
        <time>2021-04-15T08:00:54Z</time>
      </trkpt>
      <trkpt lat="45.28454" lon="3.83319">
        <ele>935</ele>
        <time>2021-04-15T08:00:55Z</time>
      </trkpt>
      <trkpt lat="45.28453" lon="3.83327">
        <ele>935</ele>
        <time>2021-04-15T08:00:56Z</time>
      </trkpt>
      <trkpt lat="45.28452" lon="3.83335">
        <ele>935</ele>
        <time>2021-04-15T08:00:57Z</time>
      </trkpt>
      <trkpt lat="45.2845" lon="3.83342">
        <ele>935</ele>
        <time>2021-04-15T08:00:58Z</time>
      </trkpt>
      <trkpt lat="45.28448" lon="3.8335">
        <ele>935</ele>
        <time>2021-04-15T08:00:59Z</time>
      </trkpt>
      <trkpt lat="45.28446" lon="3.83358">
        <ele>935</ele>
        <time>2021-04-15T08:01:00Z</time>
      </trkpt>
      <trkpt lat="45.28444" lon="3.83365">
        <ele>935</ele>
        <time>2021-04-15T08:01:01Z</time>
      </trkpt>
      <trkpt lat="45.28442" lon="3.83373">
        <ele>934</ele>
        <time>2021-04-15T08:01:02Z</time>
      </trkpt>
      <trkpt lat="45.28441" lon="3.83381">
        <ele>934</ele>
        <time>2021-04-15T08:01:03Z</time>
      </trkpt>
      <trkpt lat="45.28439" lon="3.83389">
        <ele>934</ele>
        <time>2021-04-15T08:01:04Z</time>
      </trkpt>
      <trkpt lat="45.28437" lon="3.83397">
        <ele>934</ele>
        <time>2021-04-15T08:01:05Z</time>
      </trkpt>
      <trkpt lat="45.28435" lon="3.83405">
        <ele>934</ele>
        <time>2021-04-15T08:01:06Z</time>
      </trkpt>
      <trkpt lat="45.28433" lon="3.83412">
        <ele>934</ele>
        <time>2021-04-15T08:01:07Z</time>
      </trkpt>
      <trkpt lat="45.28431" lon="3.8342">
        <ele>934</ele>
        <time>2021-04-15T08:01:08Z</time>
      </trkpt>
      <trkpt lat="45.2843" lon="3.83428">
        <ele>934</ele>
        <time>2021-04-15T08:01:09Z</time>
      </trkpt>
      <trkpt lat="45.28428" lon="3.83436">
        <ele>933</ele>
        <time>2021-04-15T08:01:10Z</time>
      </trkpt>
      <trkpt lat="45.28427" lon="3.83444">
        <ele>933</ele>
        <time>2021-04-15T08:01:11Z</time>
      </trkpt>
      <trkpt lat="45.28425" lon="3.83451">
        <ele>933</ele>
        <time>2021-04-15T08:01:12Z</time>
      </trkpt>
      <trkpt lat="45.28424" lon="3.83459">
        <ele>933</ele>
        <time>2021-04-15T08:01:13Z</time>
      </trkpt>
      <trkpt lat="45.28422" lon="3.83466">
        <ele>933</ele>
        <time>2021-04-15T08:01:14Z</time>
      </trkpt>
      <trkpt lat="45.28421" lon="3.83474">
        <ele>933</ele>
        <time>2021-04-15T08:01:15Z</time>
      </trkpt>
      <trkpt lat="45.2842" lon="3.83482">
        <ele>933</ele>
        <time>2021-04-15T08:01:16Z</time>
      </trkpt>
      <trkpt lat="45.28418" lon="3.83489">
        <ele>933</ele>
        <time>2021-04-15T08:01:17Z</time>
      </trkpt>
      <trkpt lat="45.28416" lon="3.83497">
        <ele>933</ele>
        <time>2021-04-15T08:01:18Z</time>
      </trkpt>
      <trkpt lat="45.28414" lon="3.83505">
        <ele>933</ele>
        <time>2021-04-15T08:01:19Z</time>
      </trkpt>
      <trkpt lat="45.28412" lon="3.83512">
        <ele>933</ele>
        <time>2021-04-15T08:01:20Z</time>
      </trkpt>
      <trkpt lat="45.28411" lon="3.8352">
        <ele>933</ele>
        <time>2021-04-15T08:01:21Z</time>
      </trkpt>
      <trkpt lat="45.28409" lon="3.83528">
        <ele>933</ele>
        <time>2021-04-15T08:01:22Z</time>
      </trkpt>
      <trkpt lat="45.28406" lon="3.83535">
        <ele>933</ele>
        <time>2021-04-15T08:01:23Z</time>
      </trkpt>
      <trkpt lat="45.28403" lon="3.83541">
        <ele>933</ele>
        <time>2021-04-15T08:01:24Z</time>
      </trkpt>
      <trkpt lat="45.284" lon="3.83548">
        <ele>933</ele>
        <time>2021-04-15T08:01:25Z</time>
      </trkpt>
      <trkpt lat="45.28396" lon="3.83554">
        <ele>933</ele>
        <time>2021-04-15T08:01:27Z</time>
      </trkpt>
      <trkpt lat="45.28392" lon="3.83559">
        <ele>933</ele>
        <time>2021-04-15T08:01:28Z</time>
      </trkpt>
      <trkpt lat="45.28387" lon="3.83564">
        <ele>933</ele>
        <time>2021-04-15T08:01:29Z</time>
      </trkpt>
      <trkpt lat="45.28379" lon="3.83573">
        <ele>933</ele>
        <time>2021-04-15T08:01:30Z</time>
      </trkpt>
      <trkpt lat="45.2837" lon="3.83583">
        <ele>933</ele>
        <time>2021-04-15T08:01:32Z</time>
      </trkpt>
      <trkpt lat="45.28366" lon="3.83588">
        <ele>933</ele>
        <time>2021-04-15T08:01:34Z</time>
      </trkpt>
      <trkpt lat="45.28362" lon="3.83593">
        <ele>933</ele>
        <time>2021-04-15T08:01:35Z</time>
      </trkpt>
      <trkpt lat="45.28358" lon="3.83597">
        <ele>933</ele>
        <time>2021-04-15T08:01:36Z</time>
      </trkpt>
      <trkpt lat="45.28354" lon="3.83601">
        <ele>933</ele>
        <time>2021-04-15T08:01:37Z</time>
      </trkpt>
      <trkpt lat="45.2835" lon="3.83604">
        <ele>933</ele>
        <time>2021-04-15T08:01:38Z</time>
      </trkpt>
      <trkpt lat="45.28347" lon="3.83606">
        <ele>933</ele>
        <time>2021-04-15T08:01:39Z</time>
      </trkpt>
      <trkpt lat="45.28343" lon="3.83607">
        <ele>933</ele>
        <time>2021-04-15T08:01:40Z</time>
      </trkpt>
      <trkpt lat="45.28339" lon="3.83608">
        <ele>933</ele>
        <time>2021-04-15T08:01:41Z</time>
      </trkpt>
      <trkpt lat="45.28337" lon="3.83609">
        <ele>933</ele>
        <time>2021-04-15T08:01:42Z</time>
      </trkpt>
      <trkpt lat="45.28334" lon="3.83611">
        <ele>933</ele>
        <time>2021-04-15T08:01:44Z</time>
      </trkpt>
      <trkpt lat="45.28332" lon="3.8361">
        <ele>932</ele>
        <time>2021-04-15T08:01:48Z</time>
      </trkpt>
      <trkpt lat="45.28329" lon="3.8361">
        <ele>932</ele>
        <time>2021-04-15T08:01:49Z</time>
      </trkpt>
      <trkpt lat="45.28326" lon="3.83609">
        <ele>932</ele>
        <time>2021-04-15T08:01:50Z</time>
      </trkpt>
      <trkpt lat="45.28323" lon="3.83608">
        <ele>932</ele>
        <time>2021-04-15T08:01:51Z</time>
      </trkpt>
      <trkpt lat="45.2832" lon="3.83607">
        <ele>932</ele>
        <time>2021-04-15T08:01:52Z</time>
      </trkpt>
      <trkpt lat="45.28317" lon="3.83606">
        <ele>932</ele>
        <time>2021-04-15T08:01:53Z</time>
      </trkpt>
      <trkpt lat="45.28314" lon="3.83605">
        <ele>932</ele>
        <time>2021-04-15T08:01:54Z</time>
      </trkpt>
      <trkpt lat="45.28311" lon="3.83604">
        <ele>932</ele>
        <time>2021-04-15T08:01:55Z</time>
      </trkpt>
      <trkpt lat="45.28307" lon="3.83605">
        <ele>932</ele>
        <time>2021-04-15T08:01:56Z</time>
      </trkpt>
      <trkpt lat="45.28303" lon="3.83605">
        <ele>931</ele>
        <time>2021-04-15T08:01:57Z</time>
      </trkpt>
      <trkpt lat="45.28299" lon="3.83605">
        <ele>931</ele>
        <time>2021-04-15T08:01:58Z</time>
      </trkpt>
      <trkpt lat="45.28295" lon="3.83606">
        <ele>931</ele>
        <time>2021-04-15T08:01:59Z</time>
      </trkpt>
      <trkpt lat="45.28292" lon="3.83609">
        <ele>931</ele>
        <time>2021-04-15T08:02:00Z</time>
      </trkpt>
      <trkpt lat="45.28289" lon="3.83612">
        <ele>931</ele>
        <time>2021-04-15T08:02:01Z</time>
      </trkpt>
      <trkpt lat="45.28282" lon="3.83617">
        <ele>931</ele>
        <time>2021-04-15T08:02:02Z</time>
      </trkpt>
      <trkpt lat="45.28278" lon="3.8362">
        <ele>931</ele>
        <time>2021-04-15T08:02:03Z</time>
      </trkpt>
      <trkpt lat="45.28275" lon="3.83624">
        <ele>931</ele>
        <time>2021-04-15T08:02:04Z</time>
      </trkpt>
      <trkpt lat="45.28272" lon="3.83629">
        <ele>931</ele>
        <time>2021-04-15T08:02:05Z</time>
      </trkpt>
      <trkpt lat="45.28269" lon="3.83634">
        <ele>931</ele>
        <time>2021-04-15T08:02:06Z</time>
      </trkpt>
      <trkpt lat="45.28267" lon="3.83639">
        <ele>931</ele>
        <time>2021-04-15T08:02:07Z</time>
      </trkpt>
      <trkpt lat="45.28265" lon="3.83645">
        <ele>931</ele>
        <time>2021-04-15T08:02:08Z</time>
      </trkpt>
      <trkpt lat="45.28263" lon="3.83651">
        <ele>931</ele>
        <time>2021-04-15T08:02:09Z</time>
      </trkpt>
      <trkpt lat="45.28261" lon="3.83656">
        <ele>932</ele>
        <time>2021-04-15T08:02:10Z</time>
      </trkpt>
      <trkpt lat="45.28258" lon="3.83661">
        <ele>932</ele>
        <time>2021-04-15T08:02:11Z</time>
      </trkpt>
      <trkpt lat="45.28256" lon="3.83666">
        <ele>932</ele>
        <time>2021-04-15T08:02:12Z</time>
      </trkpt>
      <trkpt lat="45.28253" lon="3.83671">
        <ele>932</ele>
        <time>2021-04-15T08:02:13Z</time>
      </trkpt>
      <trkpt lat="45.2825" lon="3.83676">
        <ele>932</ele>
        <time>2021-04-15T08:02:14Z</time>
      </trkpt>
      <trkpt lat="45.28246" lon="3.8368">
        <ele>932</ele>
        <time>2021-04-15T08:02:15Z</time>
      </trkpt>
      <trkpt lat="45.28243" lon="3.83685">
        <ele>932</ele>
        <time>2021-04-15T08:02:16Z</time>
      </trkpt>
      <trkpt lat="45.28239" lon="3.83689">
        <ele>933</ele>
        <time>2021-04-15T08:02:17Z</time>
      </trkpt>
      <trkpt lat="45.28236" lon="3.83694">
        <ele>933</ele>
        <time>2021-04-15T08:02:18Z</time>
      </trkpt>
      <trkpt lat="45.28232" lon="3.83699">
        <ele>933</ele>
        <time>2021-04-15T08:02:19Z</time>
      </trkpt>
      <trkpt lat="45.28228" lon="3.83703">
        <ele>933</ele>
        <time>2021-04-15T08:02:20Z</time>
      </trkpt>
      <trkpt lat="45.28224" lon="3.83708">
        <ele>933</ele>
        <time>2021-04-15T08:02:21Z</time>
      </trkpt>
      <trkpt lat="45.28221" lon="3.83712">
        <ele>933</ele>
        <time>2021-04-15T08:02:22Z</time>
      </trkpt>
      <trkpt lat="45.28218" lon="3.83716">
        <ele>933</ele>
        <time>2021-04-15T08:02:23Z</time>
      </trkpt>
      <trkpt lat="45.28215" lon="3.83721">
        <ele>933</ele>
        <time>2021-04-15T08:02:24Z</time>
      </trkpt>
      <trkpt lat="45.28212" lon="3.83725">
        <ele>934</ele>
        <time>2021-04-15T08:02:25Z</time>
      </trkpt>
      <trkpt lat="45.28209" lon="3.8373">
        <ele>934</ele>
        <time>2021-04-15T08:02:26Z</time>
      </trkpt>
      <trkpt lat="45.28206" lon="3.83734">
        <ele>934</ele>
        <time>2021-04-15T08:02:27Z</time>
      </trkpt>
      <trkpt lat="45.28203" lon="3.83739">
        <ele>934</ele>
        <time>2021-04-15T08:02:28Z</time>
      </trkpt>
      <trkpt lat="45.282" lon="3.83744">
        <ele>934</ele>
        <time>2021-04-15T08:02:29Z</time>
      </trkpt>
      <trkpt lat="45.28197" lon="3.83748">
        <ele>934</ele>
        <time>2021-04-15T08:02:30Z</time>
      </trkpt>
      <trkpt lat="45.28194" lon="3.83752">
        <ele>934</ele>
        <time>2021-04-15T08:02:31Z</time>
      </trkpt>
      <trkpt lat="45.28192" lon="3.83756">
        <ele>934</ele>
        <time>2021-04-15T08:02:32Z</time>
      </trkpt>
      <trkpt lat="45.2819" lon="3.8376">
        <ele>934</ele>
        <time>2021-04-15T08:02:33Z</time>
      </trkpt>
      <trkpt lat="45.28187" lon="3.83765">
        <ele>935</ele>
        <time>2021-04-15T08:02:34Z</time>
      </trkpt>
      <trkpt lat="45.28184" lon="3.83769">
        <ele>935</ele>
        <time>2021-04-15T08:02:35Z</time>
      </trkpt>
      <trkpt lat="45.28182" lon="3.83774">
        <ele>935</ele>
        <time>2021-04-15T08:02:36Z</time>
      </trkpt>
      <trkpt lat="45.2818" lon="3.83778">
        <ele>935</ele>
        <time>2021-04-15T08:02:37Z</time>
      </trkpt>
      <trkpt lat="45.28177" lon="3.83783">
        <ele>935</ele>
        <time>2021-04-15T08:02:38Z</time>
      </trkpt>
      <trkpt lat="45.28172" lon="3.83786">
        <ele>936</ele>
        <time>2021-04-15T08:02:39Z</time>
      </trkpt>
      <trkpt lat="45.28166" lon="3.83789">
        <ele>936</ele>
        <time>2021-04-15T08:02:40Z</time>
      </trkpt>
      <trkpt lat="45.28161" lon="3.83791">
        <ele>936</ele>
        <time>2021-04-15T08:02:41Z</time>
      </trkpt>
      <trkpt lat="45.28156" lon="3.83792">
        <ele>936</ele>
        <time>2021-04-15T08:02:43Z</time>
      </trkpt>
      <trkpt lat="45.28152" lon="3.83793">
        <ele>936</ele>
        <time>2021-04-15T08:02:44Z</time>
      </trkpt>
      <trkpt lat="45.28147" lon="3.83796">
        <ele>936</ele>
        <time>2021-04-15T08:02:45Z</time>
      </trkpt>
      <trkpt lat="45.28138" lon="3.83802">
        <ele>936</ele>
        <time>2021-04-15T08:02:46Z</time>
      </trkpt>
      <trkpt lat="45.28134" lon="3.83805">
        <ele>936</ele>
        <time>2021-04-15T08:02:48Z</time>
      </trkpt>
      <trkpt lat="45.28127" lon="3.83812">
        <ele>936</ele>
        <time>2021-04-15T08:02:49Z</time>
      </trkpt>
      <trkpt lat="45.28123" lon="3.83815">
        <ele>935</ele>
        <time>2021-04-15T08:02:51Z</time>
      </trkpt>
      <trkpt lat="45.28119" lon="3.83818">
        <ele>935</ele>
        <time>2021-04-15T08:02:52Z</time>
      </trkpt>
      <trkpt lat="45.28116" lon="3.83822">
        <ele>935</ele>
        <time>2021-04-15T08:02:53Z</time>
      </trkpt>
      <trkpt lat="45.28108" lon="3.8383">
        <ele>935</ele>
        <time>2021-04-15T08:02:54Z</time>
      </trkpt>
      <trkpt lat="45.28105" lon="3.83833">
        <ele>936</ele>
        <time>2021-04-15T08:02:56Z</time>
      </trkpt>
      <trkpt lat="45.28102" lon="3.83836">
        <ele>936</ele>
        <time>2021-04-15T08:02:57Z</time>
      </trkpt>
      <trkpt lat="45.28094" lon="3.83843">
        <ele>935</ele>
        <time>2021-04-15T08:02:58Z</time>
      </trkpt>
      <trkpt lat="45.28089" lon="3.83847">
        <ele>936</ele>
        <time>2021-04-15T08:02:59Z</time>
      </trkpt>
      <trkpt lat="45.28085" lon="3.83851">
        <ele>935</ele>
        <time>2021-04-15T08:03:00Z</time>
      </trkpt>
      <trkpt lat="45.28081" lon="3.83855">
        <ele>936</ele>
        <time>2021-04-15T08:03:01Z</time>
      </trkpt>
      <trkpt lat="45.28077" lon="3.83857">
        <ele>936</ele>
        <time>2021-04-15T08:03:02Z</time>
      </trkpt>
      <trkpt lat="45.28074" lon="3.83859">
        <ele>936</ele>
        <time>2021-04-15T08:03:03Z</time>
      </trkpt>
      <trkpt lat="45.28071" lon="3.8386">
        <ele>936</ele>
        <time>2021-04-15T08:03:04Z</time>
      </trkpt>
      <trkpt lat="45.28069" lon="3.83862">
        <ele>936</ele>
        <time>2021-04-15T08:03:05Z</time>
      </trkpt>
      <trkpt lat="45.28066" lon="3.83863">
        <ele>936</ele>
        <time>2021-04-15T08:03:06Z</time>
      </trkpt>
      <trkpt lat="45.28064" lon="3.83865">
        <ele>936</ele>
        <time>2021-04-15T08:03:07Z</time>
      </trkpt>
      <trkpt lat="45.28061" lon="3.83867">
        <ele>936</ele>
        <time>2021-04-15T08:03:08Z</time>
      </trkpt>
      <trkpt lat="45.28058" lon="3.83869">
        <ele>937</ele>
        <time>2021-04-15T08:03:09Z</time>
      </trkpt>
      <trkpt lat="45.28056" lon="3.83871">
        <ele>937</ele>
        <time>2021-04-15T08:03:10Z</time>
      </trkpt>
      <trkpt lat="45.28054" lon="3.83874">
        <ele>937</ele>
        <time>2021-04-15T08:03:11Z</time>
      </trkpt>
      <trkpt lat="45.28051" lon="3.83877">
        <ele>937</ele>
        <time>2021-04-15T08:03:12Z</time>
      </trkpt>
      <trkpt lat="45.28048" lon="3.8388">
        <ele>937</ele>
        <time>2021-04-15T08:03:13Z</time>
      </trkpt>
      <trkpt lat="45.28046" lon="3.83883">
        <ele>937</ele>
        <time>2021-04-15T08:03:14Z</time>
      </trkpt>
      <trkpt lat="45.28044" lon="3.83886">
        <ele>937</ele>
        <time>2021-04-15T08:03:15Z</time>
      </trkpt>
      <trkpt lat="45.28042" lon="3.8389">
        <ele>938</ele>
        <time>2021-04-15T08:03:16Z</time>
      </trkpt>
      <trkpt lat="45.2804" lon="3.83893">
        <ele>938</ele>
        <time>2021-04-15T08:03:17Z</time>
      </trkpt>
      <trkpt lat="45.28038" lon="3.83896">
        <ele>938</ele>
        <time>2021-04-15T08:03:18Z</time>
      </trkpt>
      <trkpt lat="45.28036" lon="3.839">
        <ele>938</ele>
        <time>2021-04-15T08:03:19Z</time>
      </trkpt>
      <trkpt lat="45.28033" lon="3.83904">
        <ele>938</ele>
        <time>2021-04-15T08:03:21Z</time>
      </trkpt>
      <trkpt lat="45.2803" lon="3.83909">
        <ele>938</ele>
        <time>2021-04-15T08:03:22Z</time>
      </trkpt>
      <trkpt lat="45.28027" lon="3.83914">
        <ele>938</ele>
        <time>2021-04-15T08:03:23Z</time>
      </trkpt>
      <trkpt lat="45.28022" lon="3.83924">
        <ele>938</ele>
        <time>2021-04-15T08:03:24Z</time>
      </trkpt>
      <trkpt lat="45.28019" lon="3.8393">
        <ele>938</ele>
        <time>2021-04-15T08:03:25Z</time>
      </trkpt>
      <trkpt lat="45.28017" lon="3.83935">
        <ele>938</ele>
        <time>2021-04-15T08:03:27Z</time>
      </trkpt>
      <trkpt lat="45.28015" lon="3.83941">
        <ele>938</ele>
        <time>2021-04-15T08:03:28Z</time>
      </trkpt>
      <trkpt lat="45.28013" lon="3.83948">
        <ele>938</ele>
        <time>2021-04-15T08:03:29Z</time>
      </trkpt>
      <trkpt lat="45.28011" lon="3.83954">
        <ele>938</ele>
        <time>2021-04-15T08:03:30Z</time>
      </trkpt>
      <trkpt lat="45.28008" lon="3.83959">
        <ele>938</ele>
        <time>2021-04-15T08:03:31Z</time>
      </trkpt>
      <trkpt lat="45.28007" lon="3.83965">
        <ele>938</ele>
        <time>2021-04-15T08:03:32Z</time>
      </trkpt>
      <trkpt lat="45.28003" lon="3.83977">
        <ele>938</ele>
        <time>2021-04-15T08:03:33Z</time>
      </trkpt>
      <trkpt lat="45.28001" lon="3.83983">
        <ele>938</ele>
        <time>2021-04-15T08:03:35Z</time>
      </trkpt>
      <trkpt lat="45.27996" lon="3.83995">
        <ele>938</ele>
        <time>2021-04-15T08:03:36Z</time>
      </trkpt>
      <trkpt lat="45.27991" lon="3.84006">
        <ele>938</ele>
        <time>2021-04-15T08:03:38Z</time>
      </trkpt>
      <trkpt lat="45.27988" lon="3.84011">
        <ele>938</ele>
        <time>2021-04-15T08:03:40Z</time>
      </trkpt>
      <trkpt lat="45.27984" lon="3.84016">
        <ele>938</ele>
        <time>2021-04-15T08:03:41Z</time>
      </trkpt>
      <trkpt lat="45.27981" lon="3.8402">
        <ele>938</ele>
        <time>2021-04-15T08:03:42Z</time>
      </trkpt>
      <trkpt lat="45.27977" lon="3.84025">
        <ele>938</ele>
        <time>2021-04-15T08:03:43Z</time>
      </trkpt>
      <trkpt lat="45.27974" lon="3.84029">
        <ele>938</ele>
        <time>2021-04-15T08:03:44Z</time>
      </trkpt>
      <trkpt lat="45.2797" lon="3.84034">
        <ele>938</ele>
        <time>2021-04-15T08:03:45Z</time>
      </trkpt>
      <trkpt lat="45.27964" lon="3.84043">
        <ele>938</ele>
        <time>2021-04-15T08:03:46Z</time>
      </trkpt>
      <trkpt lat="45.27962" lon="3.84046">
        <ele>939</ele>
        <time>2021-04-15T08:03:48Z</time>
      </trkpt>
      <trkpt lat="45.2796" lon="3.8405">
        <ele>939</ele>
        <time>2021-04-15T08:03:49Z</time>
      </trkpt>
      <trkpt lat="45.2796" lon="3.84054">
        <ele>939</ele>
        <time>2021-04-15T08:03:50Z</time>
      </trkpt>
      <trkpt lat="45.27959" lon="3.84057">
        <ele>939</ele>
        <time>2021-04-15T08:03:51Z</time>
      </trkpt>
      <trkpt lat="45.2796" lon="3.84061">
        <ele>939</ele>
        <time>2021-04-15T08:03:52Z</time>
      </trkpt>
      <trkpt lat="45.2796" lon="3.84065">
        <ele>939</ele>
        <time>2021-04-15T08:03:53Z</time>
      </trkpt>
      <trkpt lat="45.27961" lon="3.8407">
        <ele>939</ele>
        <time>2021-04-15T08:03:54Z</time>
      </trkpt>
      <trkpt lat="45.27962" lon="3.84076">
        <ele>939</ele>
        <time>2021-04-15T08:03:55Z</time>
      </trkpt>
      <trkpt lat="45.27964" lon="3.84081">
        <ele>940</ele>
        <time>2021-04-15T08:03:56Z</time>
      </trkpt>
      <trkpt lat="45.27968" lon="3.84089">
        <ele>940</ele>
        <time>2021-04-15T08:03:57Z</time>
      </trkpt>
      <trkpt lat="45.27969" lon="3.84092">
        <ele>940</ele>
        <time>2021-04-15T08:03:58Z</time>
      </trkpt>
      <trkpt lat="45.27971" lon="3.84096">
        <ele>940</ele>
        <time>2021-04-15T08:03:59Z</time>
      </trkpt>
      <trkpt lat="45.27972" lon="3.841">
        <ele>940</ele>
        <time>2021-04-15T08:04:00Z</time>
      </trkpt>
      <trkpt lat="45.27973" lon="3.84104">
        <ele>940</ele>
        <time>2021-04-15T08:04:01Z</time>
      </trkpt>
      <trkpt lat="45.27974" lon="3.84109">
        <ele>940</ele>
        <time>2021-04-15T08:04:02Z</time>
      </trkpt>
      <trkpt lat="45.27976" lon="3.84114">
        <ele>940</ele>
        <time>2021-04-15T08:04:03Z</time>
      </trkpt>
      <trkpt lat="45.27977" lon="3.84119">
        <ele>940</ele>
        <time>2021-04-15T08:04:04Z</time>
      </trkpt>
      <trkpt lat="45.27978" lon="3.84125">
        <ele>940</ele>
        <time>2021-04-15T08:04:05Z</time>
      </trkpt>
      <trkpt lat="45.27979" lon="3.8413">
        <ele>940</ele>
        <time>2021-04-15T08:04:06Z</time>
      </trkpt>
      <trkpt lat="45.27981" lon="3.84137">
        <ele>940</ele>
        <time>2021-04-15T08:04:07Z</time>
      </trkpt>
      <trkpt lat="45.27984" lon="3.84144">
        <ele>940</ele>
        <time>2021-04-15T08:04:08Z</time>
      </trkpt>
      <trkpt lat="45.27987" lon="3.84152">
        <ele>940</ele>
        <time>2021-04-15T08:04:09Z</time>
      </trkpt>
      <trkpt lat="45.2799" lon="3.84159">
        <ele>940</ele>
        <time>2021-04-15T08:04:10Z</time>
      </trkpt>
      <trkpt lat="45.27993" lon="3.84166">
        <ele>940</ele>
        <time>2021-04-15T08:04:11Z</time>
      </trkpt>
      <trkpt lat="45.27996" lon="3.84172">
        <ele>940</ele>
        <time>2021-04-15T08:04:12Z</time>
      </trkpt>
      <trkpt lat="45.27998" lon="3.84177">
        <ele>940</ele>
        <time>2021-04-15T08:04:13Z</time>
      </trkpt>
      <trkpt lat="45.28001" lon="3.84183">
        <ele>940</ele>
        <time>2021-04-15T08:04:14Z</time>
      </trkpt>
      <trkpt lat="45.28004" lon="3.8419">
        <ele>941</ele>
        <time>2021-04-15T08:04:15Z</time>
      </trkpt>
      <trkpt lat="45.28006" lon="3.84196">
        <ele>941</ele>
        <time>2021-04-15T08:04:16Z</time>
      </trkpt>
      <trkpt lat="45.28008" lon="3.84203">
        <ele>941</ele>
        <time>2021-04-15T08:04:17Z</time>
      </trkpt>
      <trkpt lat="45.2801" lon="3.84209">
        <ele>941</ele>
        <time>2021-04-15T08:04:18Z</time>
      </trkpt>
      <trkpt lat="45.28012" lon="3.84216">
        <ele>941</ele>
        <time>2021-04-15T08:04:19Z</time>
      </trkpt>
      <trkpt lat="45.28014" lon="3.84221">
        <ele>942</ele>
        <time>2021-04-15T08:04:20Z</time>
      </trkpt>
      <trkpt lat="45.28016" lon="3.84227">
        <ele>942</ele>
        <time>2021-04-15T08:04:21Z</time>
      </trkpt>
      <trkpt lat="45.28019" lon="3.84233">
        <ele>942</ele>
        <time>2021-04-15T08:04:22Z</time>
      </trkpt>
      <trkpt lat="45.28021" lon="3.84238">
        <ele>942</ele>
        <time>2021-04-15T08:04:23Z</time>
      </trkpt>
      <trkpt lat="45.28022" lon="3.84243">
        <ele>942</ele>
        <time>2021-04-15T08:04:24Z</time>
      </trkpt>
      <trkpt lat="45.28024" lon="3.84247">
        <ele>943</ele>
        <time>2021-04-15T08:04:25Z</time>
      </trkpt>
      <trkpt lat="45.28025" lon="3.84253">
        <ele>943</ele>
        <time>2021-04-15T08:04:26Z</time>
      </trkpt>
      <trkpt lat="45.28027" lon="3.84259">
        <ele>943</ele>
        <time>2021-04-15T08:04:27Z</time>
      </trkpt>
      <trkpt lat="45.28029" lon="3.84264">
        <ele>943</ele>
        <time>2021-04-15T08:04:28Z</time>
      </trkpt>
      <trkpt lat="45.28031" lon="3.8427">
        <ele>943</ele>
        <time>2021-04-15T08:04:29Z</time>
      </trkpt>
      <trkpt lat="45.28034" lon="3.84276">
        <ele>944</ele>
        <time>2021-04-15T08:04:30Z</time>
      </trkpt>
      <trkpt lat="45.28036" lon="3.84281">
        <ele>944</ele>
        <time>2021-04-15T08:04:31Z</time>
      </trkpt>
      <trkpt lat="45.28038" lon="3.84287">
        <ele>944</ele>
        <time>2021-04-15T08:04:32Z</time>
      </trkpt>
      <trkpt lat="45.2804" lon="3.84293">
        <ele>944</ele>
        <time>2021-04-15T08:04:33Z</time>
      </trkpt>
      <trkpt lat="45.28042" lon="3.84299">
        <ele>944</ele>
        <time>2021-04-15T08:04:34Z</time>
      </trkpt>
      <trkpt lat="45.28043" lon="3.84304">
        <ele>945</ele>
        <time>2021-04-15T08:04:35Z</time>
      </trkpt>
      <trkpt lat="45.28046" lon="3.84314">
        <ele>945</ele>
        <time>2021-04-15T08:04:37Z</time>
      </trkpt>
      <trkpt lat="45.28047" lon="3.84319">
        <ele>945</ele>
        <time>2021-04-15T08:04:38Z</time>
      </trkpt>
      <trkpt lat="45.28049" lon="3.84325">
        <ele>945</ele>
        <time>2021-04-15T08:04:39Z</time>
      </trkpt>
      <trkpt lat="45.28051" lon="3.8433">
        <ele>945</ele>
        <time>2021-04-15T08:04:40Z</time>
      </trkpt>
      <trkpt lat="45.28053" lon="3.84335">
        <ele>945</ele>
        <time>2021-04-15T08:04:41Z</time>
      </trkpt>
      <trkpt lat="45.28054" lon="3.84341">
        <ele>946</ele>
        <time>2021-04-15T08:04:42Z</time>
      </trkpt>
      <trkpt lat="45.28056" lon="3.84347">
        <ele>946</ele>
        <time>2021-04-15T08:04:43Z</time>
      </trkpt>
      <trkpt lat="45.28058" lon="3.84354">
        <ele>946</ele>
        <time>2021-04-15T08:04:44Z</time>
      </trkpt>
      <trkpt lat="45.2806" lon="3.84359">
        <ele>946</ele>
        <time>2021-04-15T08:04:45Z</time>
      </trkpt>
      <trkpt lat="45.28061" lon="3.84365">
        <ele>946</ele>
        <time>2021-04-15T08:04:46Z</time>
      </trkpt>
      <trkpt lat="45.28063" lon="3.84371">
        <ele>946</ele>
        <time>2021-04-15T08:04:47Z</time>
      </trkpt>
      <trkpt lat="45.28065" lon="3.84377">
        <ele>946</ele>
        <time>2021-04-15T08:04:48Z</time>
      </trkpt>
      <trkpt lat="45.28067" lon="3.84383">
        <ele>946</ele>
        <time>2021-04-15T08:04:49Z</time>
      </trkpt>
      <trkpt lat="45.28069" lon="3.84389">
        <ele>947</ele>
        <time>2021-04-15T08:04:50Z</time>
      </trkpt>
      <trkpt lat="45.28071" lon="3.84394">
        <ele>947</ele>
        <time>2021-04-15T08:04:51Z</time>
      </trkpt>
      <trkpt lat="45.28073" lon="3.84399">
        <ele>947</ele>
        <time>2021-04-15T08:04:52Z</time>
      </trkpt>
      <trkpt lat="45.28074" lon="3.84403">
        <ele>947</ele>
        <time>2021-04-15T08:04:53Z</time>
      </trkpt>
      <trkpt lat="45.28076" lon="3.84408">
        <ele>947</ele>
        <time>2021-04-15T08:04:54Z</time>
      </trkpt>
      <trkpt lat="45.28078" lon="3.84414">
        <ele>947</ele>
        <time>2021-04-15T08:04:55Z</time>
      </trkpt>
      <trkpt lat="45.2808" lon="3.84419">
        <ele>947</ele>
        <time>2021-04-15T08:04:56Z</time>
      </trkpt>
      <trkpt lat="45.28082" lon="3.84424">
        <ele>947</ele>
        <time>2021-04-15T08:04:57Z</time>
      </trkpt>
      <trkpt lat="45.28085" lon="3.84429">
        <ele>947</ele>
        <time>2021-04-15T08:04:58Z</time>
      </trkpt>
      <trkpt lat="45.28087" lon="3.84435">
        <ele>947</ele>
        <time>2021-04-15T08:04:59Z</time>
      </trkpt>
      <trkpt lat="45.28089" lon="3.84442">
        <ele>947</ele>
        <time>2021-04-15T08:05:00Z</time>
      </trkpt>
      <trkpt lat="45.28092" lon="3.84449">
        <ele>947</ele>
        <time>2021-04-15T08:05:01Z</time>
      </trkpt>
      <trkpt lat="45.28093" lon="3.84456">
        <ele>947</ele>
        <time>2021-04-15T08:05:02Z</time>
      </trkpt>
      <trkpt lat="45.28096" lon="3.84465">
        <ele>947</ele>
        <time>2021-04-15T08:05:03Z</time>
      </trkpt>
      <trkpt lat="45.28098" lon="3.84471">
        <ele>947</ele>
        <time>2021-04-15T08:05:04Z</time>
      </trkpt>
      <trkpt lat="45.281" lon="3.84477">
        <ele>948</ele>
        <time>2021-04-15T08:05:05Z</time>
      </trkpt>
      <trkpt lat="45.28102" lon="3.84482">
        <ele>948</ele>
        <time>2021-04-15T08:05:06Z</time>
      </trkpt>
      <trkpt lat="45.28104" lon="3.84487">
        <ele>948</ele>
        <time>2021-04-15T08:05:07Z</time>
      </trkpt>
      <trkpt lat="45.28106" lon="3.84493">
        <ele>947</ele>
        <time>2021-04-15T08:05:08Z</time>
      </trkpt>
      <trkpt lat="45.28109" lon="3.84498">
        <ele>947</ele>
        <time>2021-04-15T08:05:09Z</time>
      </trkpt>
      <trkpt lat="45.28112" lon="3.84505">
        <ele>947</ele>
        <time>2021-04-15T08:05:10Z</time>
      </trkpt>
      <trkpt lat="45.28114" lon="3.84511">
        <ele>947</ele>
        <time>2021-04-15T08:05:11Z</time>
      </trkpt>
      <trkpt lat="45.28116" lon="3.84518">
        <ele>947</ele>
        <time>2021-04-15T08:05:12Z</time>
      </trkpt>
      <trkpt lat="45.28118" lon="3.84524">
        <ele>947</ele>
        <time>2021-04-15T08:05:13Z</time>
      </trkpt>
      <trkpt lat="45.28121" lon="3.84532">
        <ele>947</ele>
        <time>2021-04-15T08:05:15Z</time>
      </trkpt>
      <trkpt lat="45.28125" lon="3.84539">
        <ele>947</ele>
        <time>2021-04-15T08:05:16Z</time>
      </trkpt>
      <trkpt lat="45.2813" lon="3.84553">
        <ele>947</ele>
        <time>2021-04-15T08:05:17Z</time>
      </trkpt>
      <trkpt lat="45.28133" lon="3.8456">
        <ele>948</ele>
        <time>2021-04-15T08:05:19Z</time>
      </trkpt>
      <trkpt lat="45.28136" lon="3.84567">
        <ele>948</ele>
        <time>2021-04-15T08:05:20Z</time>
      </trkpt>
      <trkpt lat="45.2814" lon="3.84574">
        <ele>948</ele>
        <time>2021-04-15T08:05:21Z</time>
      </trkpt>
      <trkpt lat="45.28143" lon="3.84582">
        <ele>947</ele>
        <time>2021-04-15T08:05:22Z</time>
      </trkpt>
      <trkpt lat="45.28146" lon="3.8459">
        <ele>946</ele>
        <time>2021-04-15T08:05:23Z</time>
      </trkpt>
      <trkpt lat="45.28148" lon="3.84598">
        <ele>946</ele>
        <time>2021-04-15T08:05:24Z</time>
      </trkpt>
      <trkpt lat="45.28153" lon="3.84613">
        <ele>946</ele>
        <time>2021-04-15T08:05:25Z</time>
      </trkpt>
      <trkpt lat="45.28156" lon="3.84619">
        <ele>946</ele>
        <time>2021-04-15T08:05:27Z</time>
      </trkpt>
      <trkpt lat="45.28159" lon="3.84626">
        <ele>946</ele>
        <time>2021-04-15T08:05:28Z</time>
      </trkpt>
      <trkpt lat="45.28161" lon="3.84633">
        <ele>947</ele>
        <time>2021-04-15T08:05:29Z</time>
      </trkpt>
      <trkpt lat="45.28163" lon="3.84639">
        <ele>947</ele>
        <time>2021-04-15T08:05:30Z</time>
      </trkpt>
      <trkpt lat="45.28165" lon="3.84646">
        <ele>947</ele>
        <time>2021-04-15T08:05:31Z</time>
      </trkpt>
      <trkpt lat="45.28169" lon="3.84658">
        <ele>947</ele>
        <time>2021-04-15T08:05:32Z</time>
      </trkpt>
      <trkpt lat="45.28171" lon="3.84666">
        <ele>948</ele>
        <time>2021-04-15T08:05:34Z</time>
      </trkpt>
      <trkpt lat="45.28177" lon="3.8468">
        <ele>948</ele>
        <time>2021-04-15T08:05:35Z</time>
      </trkpt>
      <trkpt lat="45.28179" lon="3.84688">
        <ele>949</ele>
        <time>2021-04-15T08:05:37Z</time>
      </trkpt>
      <trkpt lat="45.28181" lon="3.84695">
        <ele>949</ele>
        <time>2021-04-15T08:05:38Z</time>
      </trkpt>
      <trkpt lat="45.28184" lon="3.84702">
        <ele>949</ele>
        <time>2021-04-15T08:05:39Z</time>
      </trkpt>
      <trkpt lat="45.28187" lon="3.8471">
        <ele>949</ele>
        <time>2021-04-15T08:05:40Z</time>
      </trkpt>
      <trkpt lat="45.2819" lon="3.84716">
        <ele>949</ele>
        <time>2021-04-15T08:05:41Z</time>
      </trkpt>
      <trkpt lat="45.28193" lon="3.84723">
        <ele>950</ele>
        <time>2021-04-15T08:05:42Z</time>
      </trkpt>
      <trkpt lat="45.28196" lon="3.8473">
        <ele>950</ele>
        <time>2021-04-15T08:05:43Z</time>
      </trkpt>
      <trkpt lat="45.28201" lon="3.84744">
        <ele>950</ele>
        <time>2021-04-15T08:05:44Z</time>
      </trkpt>
      <trkpt lat="45.28204" lon="3.84751">
        <ele>950</ele>
        <time>2021-04-15T08:05:46Z</time>
      </trkpt>
      <trkpt lat="45.28209" lon="3.84764">
        <ele>950</ele>
        <time>2021-04-15T08:05:47Z</time>
      </trkpt>
      <trkpt lat="45.28212" lon="3.84771">
        <ele>950</ele>
        <time>2021-04-15T08:05:49Z</time>
      </trkpt>
      <trkpt lat="45.28214" lon="3.84777">
        <ele>951</ele>
        <time>2021-04-15T08:05:50Z</time>
      </trkpt>
      <trkpt lat="45.2822" lon="3.84791">
        <ele>951</ele>
        <time>2021-04-15T08:05:51Z</time>
      </trkpt>
      <trkpt lat="45.28223" lon="3.84798">
        <ele>951</ele>
        <time>2021-04-15T08:05:52Z</time>
      </trkpt>
      <trkpt lat="45.28225" lon="3.84805">
        <ele>951</ele>
        <time>2021-04-15T08:05:53Z</time>
      </trkpt>
      <trkpt lat="45.28228" lon="3.84811">
        <ele>951</ele>
        <time>2021-04-15T08:05:54Z</time>
      </trkpt>
      <trkpt lat="45.2823" lon="3.84816">
        <ele>952</ele>
        <time>2021-04-15T08:05:55Z</time>
      </trkpt>
      <trkpt lat="45.28232" lon="3.84821">
        <ele>952</ele>
        <time>2021-04-15T08:05:56Z</time>
      </trkpt>
      <trkpt lat="45.28234" lon="3.84827">
        <ele>952</ele>
        <time>2021-04-15T08:05:57Z</time>
      </trkpt>
      <trkpt lat="45.28236" lon="3.84832">
        <ele>952</ele>
        <time>2021-04-15T08:05:58Z</time>
      </trkpt>
      <trkpt lat="45.28238" lon="3.84838">
        <ele>952</ele>
        <time>2021-04-15T08:05:59Z</time>
      </trkpt>
      <trkpt lat="45.28239" lon="3.84845">
        <ele>952</ele>
        <time>2021-04-15T08:06:00Z</time>
      </trkpt>
      <trkpt lat="45.28241" lon="3.84852">
        <ele>952</ele>
        <time>2021-04-15T08:06:01Z</time>
      </trkpt>
      <trkpt lat="45.28243" lon="3.84858">
        <ele>953</ele>
        <time>2021-04-15T08:06:02Z</time>
      </trkpt>
      <trkpt lat="45.28245" lon="3.84864">
        <ele>953</ele>
        <time>2021-04-15T08:06:03Z</time>
      </trkpt>
      <trkpt lat="45.28248" lon="3.84871">
        <ele>953</ele>
        <time>2021-04-15T08:06:04Z</time>
      </trkpt>
      <trkpt lat="45.28252" lon="3.84878">
        <ele>953</ele>
        <time>2021-04-15T08:06:05Z</time>
      </trkpt>
      <trkpt lat="45.28256" lon="3.84886">
        <ele>953</ele>
        <time>2021-04-15T08:06:06Z</time>
      </trkpt>
      <trkpt lat="45.2826" lon="3.84894">
        <ele>953</ele>
        <time>2021-04-15T08:06:07Z</time>
      </trkpt>
      <trkpt lat="45.28264" lon="3.84902">
        <ele>953</ele>
        <time>2021-04-15T08:06:08Z</time>
      </trkpt>
      <trkpt lat="45.28267" lon="3.84909">
        <ele>953</ele>
        <time>2021-04-15T08:06:09Z</time>
      </trkpt>
      <trkpt lat="45.2827" lon="3.84915">
        <ele>953</ele>
        <time>2021-04-15T08:06:10Z</time>
      </trkpt>
      <trkpt lat="45.28276" lon="3.84928">
        <ele>954</ele>
        <time>2021-04-15T08:06:12Z</time>
      </trkpt>
      <trkpt lat="45.28279" lon="3.84933">
        <ele>954</ele>
        <time>2021-04-15T08:06:14Z</time>
      </trkpt>
      <trkpt lat="45.28282" lon="3.84938">
        <ele>954</ele>
        <time>2021-04-15T08:06:15Z</time>
      </trkpt>
      <trkpt lat="45.28285" lon="3.84943">
        <ele>954</ele>
        <time>2021-04-15T08:06:16Z</time>
      </trkpt>
      <trkpt lat="45.28289" lon="3.84948">
        <ele>955</ele>
        <time>2021-04-15T08:06:17Z</time>
      </trkpt>
      <trkpt lat="45.28293" lon="3.84954">
        <ele>955</ele>
        <time>2021-04-15T08:06:18Z</time>
      </trkpt>
      <trkpt lat="45.28297" lon="3.8496">
        <ele>955</ele>
        <time>2021-04-15T08:06:19Z</time>
      </trkpt>
      <trkpt lat="45.28301" lon="3.84965">
        <ele>955</ele>
        <time>2021-04-15T08:06:20Z</time>
      </trkpt>
      <trkpt lat="45.28308" lon="3.84976">
        <ele>955</ele>
        <time>2021-04-15T08:06:21Z</time>
      </trkpt>
      <trkpt lat="45.28312" lon="3.84982">
        <ele>955</ele>
        <time>2021-04-15T08:06:23Z</time>
      </trkpt>
      <trkpt lat="45.28316" lon="3.84988">
        <ele>955</ele>
        <time>2021-04-15T08:06:24Z</time>
      </trkpt>
      <trkpt lat="45.2832" lon="3.84994">
        <ele>956</ele>
        <time>2021-04-15T08:06:25Z</time>
      </trkpt>
      <trkpt lat="45.28324" lon="3.84999">
        <ele>956</ele>
        <time>2021-04-15T08:06:26Z</time>
      </trkpt>
      <trkpt lat="45.28328" lon="3.85005">
        <ele>956</ele>
        <time>2021-04-15T08:06:27Z</time>
      </trkpt>
      <trkpt lat="45.28336" lon="3.85016">
        <ele>956</ele>
        <time>2021-04-15T08:06:28Z</time>
      </trkpt>
      <trkpt lat="45.2834" lon="3.85022">
        <ele>957</ele>
        <time>2021-04-15T08:06:29Z</time>
      </trkpt>
      <trkpt lat="45.28343" lon="3.85027">
        <ele>957</ele>
        <time>2021-04-15T08:06:30Z</time>
      </trkpt>
      <trkpt lat="45.28346" lon="3.85033">
        <ele>957</ele>
        <time>2021-04-15T08:06:32Z</time>
      </trkpt>
      <trkpt lat="45.2835" lon="3.85039">
        <ele>957</ele>
        <time>2021-04-15T08:06:33Z</time>
      </trkpt>
      <trkpt lat="45.28354" lon="3.85045">
        <ele>957</ele>
        <time>2021-04-15T08:06:34Z</time>
      </trkpt>
      <trkpt lat="45.28358" lon="3.8505">
        <ele>957</ele>
        <time>2021-04-15T08:06:35Z</time>
      </trkpt>
      <trkpt lat="45.28361" lon="3.85056">
        <ele>957</ele>
        <time>2021-04-15T08:06:36Z</time>
      </trkpt>
      <trkpt lat="45.28365" lon="3.85062">
        <ele>957</ele>
        <time>2021-04-15T08:06:37Z</time>
      </trkpt>
      <trkpt lat="45.28368" lon="3.85068">
        <ele>957</ele>
        <time>2021-04-15T08:06:38Z</time>
      </trkpt>
      <trkpt lat="45.28375" lon="3.85081">
        <ele>957</ele>
        <time>2021-04-15T08:06:39Z</time>
      </trkpt>
      <trkpt lat="45.28379" lon="3.85087">
        <ele>957</ele>
        <time>2021-04-15T08:06:41Z</time>
      </trkpt>
      <trkpt lat="45.28382" lon="3.85092">
        <ele>958</ele>
        <time>2021-04-15T08:06:42Z</time>
      </trkpt>
      <trkpt lat="45.28386" lon="3.85097">
        <ele>958</ele>
        <time>2021-04-15T08:06:43Z</time>
      </trkpt>
      <trkpt lat="45.2839" lon="3.85103">
        <ele>958</ele>
        <time>2021-04-15T08:06:44Z</time>
      </trkpt>
      <trkpt lat="45.28394" lon="3.85108">
        <ele>958</ele>
        <time>2021-04-15T08:06:45Z</time>
      </trkpt>
      <trkpt lat="45.28398" lon="3.85114">
        <ele>958</ele>
        <time>2021-04-15T08:06:46Z</time>
      </trkpt>
      <trkpt lat="45.28402" lon="3.85119">
        <ele>958</ele>
        <time>2021-04-15T08:06:47Z</time>
      </trkpt>
      <trkpt lat="45.28412" lon="3.85132">
        <ele>958</ele>
        <time>2021-04-15T08:06:48Z</time>
      </trkpt>
      <trkpt lat="45.28417" lon="3.85137">
        <ele>958</ele>
        <time>2021-04-15T08:06:50Z</time>
      </trkpt>
      <trkpt lat="45.28422" lon="3.85144">
        <ele>958</ele>
        <time>2021-04-15T08:06:51Z</time>
      </trkpt>
      <trkpt lat="45.28426" lon="3.8515">
        <ele>958</ele>
        <time>2021-04-15T08:06:52Z</time>
      </trkpt>
      <trkpt lat="45.28432" lon="3.85157">
        <ele>958</ele>
        <time>2021-04-15T08:06:53Z</time>
      </trkpt>
      <trkpt lat="45.28437" lon="3.85163">
        <ele>958</ele>
        <time>2021-04-15T08:06:54Z</time>
      </trkpt>
      <trkpt lat="45.28442" lon="3.85168">
        <ele>958</ele>
        <time>2021-04-15T08:06:55Z</time>
      </trkpt>
      <trkpt lat="45.2845" lon="3.85179">
        <ele>958</ele>
        <time>2021-04-15T08:06:56Z</time>
      </trkpt>
      <trkpt lat="45.28458" lon="3.85188">
        <ele>957</ele>
        <time>2021-04-15T08:06:58Z</time>
      </trkpt>
      <trkpt lat="45.28462" lon="3.85193">
        <ele>957</ele>
        <time>2021-04-15T08:06:59Z</time>
      </trkpt>
      <trkpt lat="45.28465" lon="3.85197">
        <ele>957</ele>
        <time>2021-04-15T08:07:00Z</time>
      </trkpt>
      <trkpt lat="45.28468" lon="3.85201">
        <ele>957</ele>
        <time>2021-04-15T08:07:01Z</time>
      </trkpt>
      <trkpt lat="45.28472" lon="3.85206">
        <ele>957</ele>
        <time>2021-04-15T08:07:02Z</time>
      </trkpt>
      <trkpt lat="45.28475" lon="3.85212">
        <ele>957</ele>
        <time>2021-04-15T08:07:03Z</time>
      </trkpt>
      <trkpt lat="45.28479" lon="3.85217">
        <ele>957</ele>
        <time>2021-04-15T08:07:04Z</time>
      </trkpt>
      <trkpt lat="45.28483" lon="3.85222">
        <ele>957</ele>
        <time>2021-04-15T08:07:05Z</time>
      </trkpt>
      <trkpt lat="45.28487" lon="3.85227">
        <ele>957</ele>
        <time>2021-04-15T08:07:06Z</time>
      </trkpt>
      <trkpt lat="45.28491" lon="3.85232">
        <ele>957</ele>
        <time>2021-04-15T08:07:07Z</time>
      </trkpt>
      <trkpt lat="45.28496" lon="3.85237">
        <ele>956</ele>
        <time>2021-04-15T08:07:09Z</time>
      </trkpt>
      <trkpt lat="45.28501" lon="3.85243">
        <ele>956</ele>
        <time>2021-04-15T08:07:10Z</time>
      </trkpt>
      <trkpt lat="45.28507" lon="3.85249">
        <ele>956</ele>
        <time>2021-04-15T08:07:11Z</time>
      </trkpt>
      <trkpt lat="45.28521" lon="3.85261">
        <ele>956</ele>
        <time>2021-04-15T08:07:12Z</time>
      </trkpt>
      <trkpt lat="45.28527" lon="3.85267">
        <ele>956</ele>
        <time>2021-04-15T08:07:13Z</time>
      </trkpt>
      <trkpt lat="45.28533" lon="3.85274">
        <ele>955</ele>
        <time>2021-04-15T08:07:15Z</time>
      </trkpt>
      <trkpt lat="45.28538" lon="3.85281">
        <ele>955</ele>
        <time>2021-04-15T08:07:16Z</time>
      </trkpt>
      <trkpt lat="45.28543" lon="3.85287">
        <ele>955</ele>
        <time>2021-04-15T08:07:17Z</time>
      </trkpt>
      <trkpt lat="45.28547" lon="3.85293">
        <ele>954</ele>
        <time>2021-04-15T08:07:18Z</time>
      </trkpt>
      <trkpt lat="45.28551" lon="3.85299">
        <ele>954</ele>
        <time>2021-04-15T08:07:19Z</time>
      </trkpt>
      <trkpt lat="45.28556" lon="3.85305">
        <ele>954</ele>
        <time>2021-04-15T08:07:20Z</time>
      </trkpt>
      <trkpt lat="45.28564" lon="3.85315">
        <ele>954</ele>
        <time>2021-04-15T08:07:21Z</time>
      </trkpt>
      <trkpt lat="45.28568" lon="3.8532">
        <ele>954</ele>
        <time>2021-04-15T08:07:23Z</time>
      </trkpt>
      <trkpt lat="45.28577" lon="3.85329">
        <ele>953</ele>
        <time>2021-04-15T08:07:24Z</time>
      </trkpt>
      <trkpt lat="45.28585" lon="3.85339">
        <ele>953</ele>
        <time>2021-04-15T08:07:26Z</time>
      </trkpt>
      <trkpt lat="45.28589" lon="3.85345">
        <ele>953</ele>
        <time>2021-04-15T08:07:28Z</time>
      </trkpt>
      <trkpt lat="45.28593" lon="3.85351">
        <ele>952</ele>
        <time>2021-04-15T08:07:29Z</time>
      </trkpt>
      <trkpt lat="45.286" lon="3.85362">
        <ele>952</ele>
        <time>2021-04-15T08:07:30Z</time>
      </trkpt>
      <trkpt lat="45.28603" lon="3.85367">
        <ele>952</ele>
        <time>2021-04-15T08:07:32Z</time>
      </trkpt>
      <trkpt lat="45.28607" lon="3.85372">
        <ele>952</ele>
        <time>2021-04-15T08:07:33Z</time>
      </trkpt>
      <trkpt lat="45.2861" lon="3.85378">
        <ele>952</ele>
        <time>2021-04-15T08:07:34Z</time>
      </trkpt>
      <trkpt lat="45.28614" lon="3.85383">
        <ele>952</ele>
        <time>2021-04-15T08:07:35Z</time>
      </trkpt>
      <trkpt lat="45.28617" lon="3.85388">
        <ele>952</ele>
        <time>2021-04-15T08:07:36Z</time>
      </trkpt>
      <trkpt lat="45.2862" lon="3.85392">
        <ele>952</ele>
        <time>2021-04-15T08:07:37Z</time>
      </trkpt>
      <trkpt lat="45.28624" lon="3.85396">
        <ele>952</ele>
        <time>2021-04-15T08:07:38Z</time>
      </trkpt>
      <trkpt lat="45.28627" lon="3.854">
        <ele>952</ele>
        <time>2021-04-15T08:07:39Z</time>
      </trkpt>
      <trkpt lat="45.28636" lon="3.85408">
        <ele>952</ele>
        <time>2021-04-15T08:07:40Z</time>
      </trkpt>
      <trkpt lat="45.2864" lon="3.85414">
        <ele>952</ele>
        <time>2021-04-15T08:07:42Z</time>
      </trkpt>
      <trkpt lat="45.28649" lon="3.85426">
        <ele>952</ele>
        <time>2021-04-15T08:07:43Z</time>
      </trkpt>
      <trkpt lat="45.28656" lon="3.85437">
        <ele>953</ele>
        <time>2021-04-15T08:07:45Z</time>
      </trkpt>
      <trkpt lat="45.2866" lon="3.85442">
        <ele>952</ele>
        <time>2021-04-15T08:07:46Z</time>
      </trkpt>
      <trkpt lat="45.28664" lon="3.85447">
        <ele>952</ele>
        <time>2021-04-15T08:07:47Z</time>
      </trkpt>
      <trkpt lat="45.28668" lon="3.85452">
        <ele>952</ele>
        <time>2021-04-15T08:07:48Z</time>
      </trkpt>
      <trkpt lat="45.28671" lon="3.85457">
        <ele>952</ele>
        <time>2021-04-15T08:07:49Z</time>
      </trkpt>
      <trkpt lat="45.28675" lon="3.85462">
        <ele>952</ele>
        <time>2021-04-15T08:07:50Z</time>
      </trkpt>
      <trkpt lat="45.28679" lon="3.85468">
        <ele>952</ele>
        <time>2021-04-15T08:07:51Z</time>
      </trkpt>
      <trkpt lat="45.28682" lon="3.85473">
        <ele>952</ele>
        <time>2021-04-15T08:07:52Z</time>
      </trkpt>
      <trkpt lat="45.28686" lon="3.85479">
        <ele>952</ele>
        <time>2021-04-15T08:07:53Z</time>
      </trkpt>
      <trkpt lat="45.28689" lon="3.85484">
        <ele>952</ele>
        <time>2021-04-15T08:07:54Z</time>
      </trkpt>
      <trkpt lat="45.28693" lon="3.85489">
        <ele>952</ele>
        <time>2021-04-15T08:07:55Z</time>
      </trkpt>
      <trkpt lat="45.28697" lon="3.85494">
        <ele>952</ele>
        <time>2021-04-15T08:07:56Z</time>
      </trkpt>
      <trkpt lat="45.28701" lon="3.85499">
        <ele>953</ele>
        <time>2021-04-15T08:07:57Z</time>
      </trkpt>
      <trkpt lat="45.28705" lon="3.85505">
        <ele>953</ele>
        <time>2021-04-15T08:07:58Z</time>
      </trkpt>
      <trkpt lat="45.28709" lon="3.8551">
        <ele>953</ele>
        <time>2021-04-15T08:07:59Z</time>
      </trkpt>
      <trkpt lat="45.28714" lon="3.85515">
        <ele>953</ele>
        <time>2021-04-15T08:08:01Z</time>
      </trkpt>
      <trkpt lat="45.28718" lon="3.85519">
        <ele>953</ele>
        <time>2021-04-15T08:08:02Z</time>
      </trkpt>
      <trkpt lat="45.28722" lon="3.85524">
        <ele>953</ele>
        <time>2021-04-15T08:08:03Z</time>
      </trkpt>
      <trkpt lat="45.28731" lon="3.85533">
        <ele>953</ele>
        <time>2021-04-15T08:08:04Z</time>
      </trkpt>
      <trkpt lat="45.28736" lon="3.85538">
        <ele>954</ele>
        <time>2021-04-15T08:08:06Z</time>
      </trkpt>
      <trkpt lat="45.2874" lon="3.85542">
        <ele>954</ele>
        <time>2021-04-15T08:08:07Z</time>
      </trkpt>
      <trkpt lat="45.28748" lon="3.85552">
        <ele>954</ele>
        <time>2021-04-15T08:08:08Z</time>
      </trkpt>
      <trkpt lat="45.28752" lon="3.85556">
        <ele>954</ele>
        <time>2021-04-15T08:08:10Z</time>
      </trkpt>
      <trkpt lat="45.28756" lon="3.85561">
        <ele>954</ele>
        <time>2021-04-15T08:08:11Z</time>
      </trkpt>
      <trkpt lat="45.2876" lon="3.85567">
        <ele>954</ele>
        <time>2021-04-15T08:08:12Z</time>
      </trkpt>
      <trkpt lat="45.28764" lon="3.85572">
        <ele>954</ele>
        <time>2021-04-15T08:08:13Z</time>
      </trkpt>
      <trkpt lat="45.28768" lon="3.85576">
        <ele>955</ele>
        <time>2021-04-15T08:08:14Z</time>
      </trkpt>
      <trkpt lat="45.28772" lon="3.8558">
        <ele>955</ele>
        <time>2021-04-15T08:08:15Z</time>
      </trkpt>
      <trkpt lat="45.28777" lon="3.85583">
        <ele>955</ele>
        <time>2021-04-15T08:08:16Z</time>
      </trkpt>
      <trkpt lat="45.28781" lon="3.85587">
        <ele>955</ele>
        <time>2021-04-15T08:08:17Z</time>
      </trkpt>
      <trkpt lat="45.2879" lon="3.85595">
        <ele>955</ele>
        <time>2021-04-15T08:08:18Z</time>
      </trkpt>
      <trkpt lat="45.28794" lon="3.85599">
        <ele>955</ele>
        <time>2021-04-15T08:08:20Z</time>
      </trkpt>
      <trkpt lat="45.28799" lon="3.85603">
        <ele>955</ele>
        <time>2021-04-15T08:08:21Z</time>
      </trkpt>
      <trkpt lat="45.28803" lon="3.85607">
        <ele>955</ele>
        <time>2021-04-15T08:08:22Z</time>
      </trkpt>
      <trkpt lat="45.28813" lon="3.85615">
        <ele>955</ele>
        <time>2021-04-15T08:08:23Z</time>
      </trkpt>
      <trkpt lat="45.28817" lon="3.85619">
        <ele>956</ele>
        <time>2021-04-15T08:08:24Z</time>
      </trkpt>
      <trkpt lat="45.28822" lon="3.85623">
        <ele>956</ele>
        <time>2021-04-15T08:08:25Z</time>
      </trkpt>
      <trkpt lat="45.28826" lon="3.85627">
        <ele>956</ele>
        <time>2021-04-15T08:08:26Z</time>
      </trkpt>
      <trkpt lat="45.2883" lon="3.8563">
        <ele>956</ele>
        <time>2021-04-15T08:08:27Z</time>
      </trkpt>
      <trkpt lat="45.28835" lon="3.85634">
        <ele>956</ele>
        <time>2021-04-15T08:08:29Z</time>
      </trkpt>
      <trkpt lat="45.2884" lon="3.85637">
        <ele>956</ele>
        <time>2021-04-15T08:08:30Z</time>
      </trkpt>
      <trkpt lat="45.28845" lon="3.85641">
        <ele>956</ele>
        <time>2021-04-15T08:08:31Z</time>
      </trkpt>
      <trkpt lat="45.2885" lon="3.85644">
        <ele>956</ele>
        <time>2021-04-15T08:08:32Z</time>
      </trkpt>
      <trkpt lat="45.28855" lon="3.85647">
        <ele>956</ele>
        <time>2021-04-15T08:08:33Z</time>
      </trkpt>
      <trkpt lat="45.2886" lon="3.85651">
        <ele>956</ele>
        <time>2021-04-15T08:08:34Z</time>
      </trkpt>
      <trkpt lat="45.28865" lon="3.85655">
        <ele>956</ele>
        <time>2021-04-15T08:08:35Z</time>
      </trkpt>
      <trkpt lat="45.28875" lon="3.85662">
        <ele>957</ele>
        <time>2021-04-15T08:08:36Z</time>
      </trkpt>
      <trkpt lat="45.28881" lon="3.85666">
        <ele>957</ele>
        <time>2021-04-15T08:08:38Z</time>
      </trkpt>
      <trkpt lat="45.28892" lon="3.85674">
        <ele>957</ele>
        <time>2021-04-15T08:08:39Z</time>
      </trkpt>
      <trkpt lat="45.28897" lon="3.85678">
        <ele>957</ele>
        <time>2021-04-15T08:08:41Z</time>
      </trkpt>
      <trkpt lat="45.28907" lon="3.85686">
        <ele>958</ele>
        <time>2021-04-15T08:08:42Z</time>
      </trkpt>
      <trkpt lat="45.28913" lon="3.8569">
        <ele>958</ele>
        <time>2021-04-15T08:08:44Z</time>
      </trkpt>
      <trkpt lat="45.28922" lon="3.85698">
        <ele>958</ele>
        <time>2021-04-15T08:08:45Z</time>
      </trkpt>
      <trkpt lat="45.28926" lon="3.85702">
        <ele>958</ele>
        <time>2021-04-15T08:08:47Z</time>
      </trkpt>
      <trkpt lat="45.28931" lon="3.85706">
        <ele>958</ele>
        <time>2021-04-15T08:08:48Z</time>
      </trkpt>
      <trkpt lat="45.28935" lon="3.8571">
        <ele>958</ele>
        <time>2021-04-15T08:08:49Z</time>
      </trkpt>
      <trkpt lat="45.28939" lon="3.85714">
        <ele>958</ele>
        <time>2021-04-15T08:08:50Z</time>
      </trkpt>
      <trkpt lat="45.28943" lon="3.85716">
        <ele>957</ele>
        <time>2021-04-15T08:08:51Z</time>
      </trkpt>
      <trkpt lat="45.28947" lon="3.85718">
        <ele>957</ele>
        <time>2021-04-15T08:08:52Z</time>
      </trkpt>
      <trkpt lat="45.28956" lon="3.85722">
        <ele>957</ele>
        <time>2021-04-15T08:08:53Z</time>
      </trkpt>
      <trkpt lat="45.28964" lon="3.85729">
        <ele>957</ele>
        <time>2021-04-15T08:08:55Z</time>
      </trkpt>
      <trkpt lat="45.28967" lon="3.85733">
        <ele>957</ele>
        <time>2021-04-15T08:08:57Z</time>
      </trkpt>
      <trkpt lat="45.28971" lon="3.85736">
        <ele>957</ele>
        <time>2021-04-15T08:08:58Z</time>
      </trkpt>
      <trkpt lat="45.28976" lon="3.8574">
        <ele>957</ele>
        <time>2021-04-15T08:08:59Z</time>
      </trkpt>
      <trkpt lat="45.2898" lon="3.85743">
        <ele>957</ele>
        <time>2021-04-15T08:09:00Z</time>
      </trkpt>
      <trkpt lat="45.28989" lon="3.85749">
        <ele>957</ele>
        <time>2021-04-15T08:09:01Z</time>
      </trkpt>
      <trkpt lat="45.28994" lon="3.85753">
        <ele>957</ele>
        <time>2021-04-15T08:09:03Z</time>
      </trkpt>
      <trkpt lat="45.28998" lon="3.85757">
        <ele>957</ele>
        <time>2021-04-15T08:09:04Z</time>
      </trkpt>
      <trkpt lat="45.29007" lon="3.85765">
        <ele>957</ele>
        <time>2021-04-15T08:09:05Z</time>
      </trkpt>
      <trkpt lat="45.29011" lon="3.85769">
        <ele>956</ele>
        <time>2021-04-15T08:09:07Z</time>
      </trkpt>
      <trkpt lat="45.29015" lon="3.85773">
        <ele>956</ele>
        <time>2021-04-15T08:09:08Z</time>
      </trkpt>
      <trkpt lat="45.29019" lon="3.85777">
        <ele>956</ele>
        <time>2021-04-15T08:09:09Z</time>
      </trkpt>
      <trkpt lat="45.29024" lon="3.85781">
        <ele>956</ele>
        <time>2021-04-15T08:09:10Z</time>
      </trkpt>
      <trkpt lat="45.29029" lon="3.85785">
        <ele>956</ele>
        <time>2021-04-15T08:09:11Z</time>
      </trkpt>
      <trkpt lat="45.29033" lon="3.85788">
        <ele>955</ele>
        <time>2021-04-15T08:09:12Z</time>
      </trkpt>
      <trkpt lat="45.29038" lon="3.85791">
        <ele>955</ele>
        <time>2021-04-15T08:09:13Z</time>
      </trkpt>
      <trkpt lat="45.29042" lon="3.85793">
        <ele>955</ele>
        <time>2021-04-15T08:09:14Z</time>
      </trkpt>
      <trkpt lat="45.2905" lon="3.85799">
        <ele>955</ele>
        <time>2021-04-15T08:09:15Z</time>
      </trkpt>
      <trkpt lat="45.29053" lon="3.85802">
        <ele>954</ele>
        <time>2021-04-15T08:09:17Z</time>
      </trkpt>
      <trkpt lat="45.29057" lon="3.85806">
        <ele>954</ele>
        <time>2021-04-15T08:09:18Z</time>
      </trkpt>
      <trkpt lat="45.2906" lon="3.85809">
        <ele>954</ele>
        <time>2021-04-15T08:09:19Z</time>
      </trkpt>
      <trkpt lat="45.29068" lon="3.85816">
        <ele>954</ele>
        <time>2021-04-15T08:09:20Z</time>
      </trkpt>
      <trkpt lat="45.29073" lon="3.8582">
        <ele>954</ele>
        <time>2021-04-15T08:09:22Z</time>
      </trkpt>
      <trkpt lat="45.29077" lon="3.85823">
        <ele>955</ele>
        <time>2021-04-15T08:09:23Z</time>
      </trkpt>
      <trkpt lat="45.29081" lon="3.85827">
        <ele>955</ele>
        <time>2021-04-15T08:09:24Z</time>
      </trkpt>
      <trkpt lat="45.29085" lon="3.85831">
        <ele>955</ele>
        <time>2021-04-15T08:09:25Z</time>
      </trkpt>
      <trkpt lat="45.29094" lon="3.85838">
        <ele>955</ele>
        <time>2021-04-15T08:09:26Z</time>
      </trkpt>
      <trkpt lat="45.29099" lon="3.85841">
        <ele>955</ele>
        <time>2021-04-15T08:09:28Z</time>
      </trkpt>
      <trkpt lat="45.29103" lon="3.85845">
        <ele>955</ele>
        <time>2021-04-15T08:09:29Z</time>
      </trkpt>
      <trkpt lat="45.29108" lon="3.85849">
        <ele>954</ele>
        <time>2021-04-15T08:09:30Z</time>
      </trkpt>
      <trkpt lat="45.29112" lon="3.85853">
        <ele>955</ele>
        <time>2021-04-15T08:09:31Z</time>
      </trkpt>
      <trkpt lat="45.29117" lon="3.85857">
        <ele>955</ele>
        <time>2021-04-15T08:09:32Z</time>
      </trkpt>
      <trkpt lat="45.29121" lon="3.8586">
        <ele>955</ele>
        <time>2021-04-15T08:09:33Z</time>
      </trkpt>
      <trkpt lat="45.29126" lon="3.85864">
        <ele>955</ele>
        <time>2021-04-15T08:09:34Z</time>
      </trkpt>
      <trkpt lat="45.29135" lon="3.85871">
        <ele>955</ele>
        <time>2021-04-15T08:09:35Z</time>
      </trkpt>
      <trkpt lat="45.29139" lon="3.85875">
        <ele>955</ele>
        <time>2021-04-15T08:09:37Z</time>
      </trkpt>
      <trkpt lat="45.29148" lon="3.85884">
        <ele>954</ele>
        <time>2021-04-15T08:09:38Z</time>
      </trkpt>
      <trkpt lat="45.29153" lon="3.85888">
        <ele>954</ele>
        <time>2021-04-15T08:09:39Z</time>
      </trkpt>
      <trkpt lat="45.29158" lon="3.85892">
        <ele>953</ele>
        <time>2021-04-15T08:09:41Z</time>
      </trkpt>
      <trkpt lat="45.29162" lon="3.85897">
        <ele>953</ele>
        <time>2021-04-15T08:09:42Z</time>
      </trkpt>
      <trkpt lat="45.29167" lon="3.85901">
        <ele>953</ele>
        <time>2021-04-15T08:09:43Z</time>
      </trkpt>
      <trkpt lat="45.29176" lon="3.8591">
        <ele>953</ele>
        <time>2021-04-15T08:09:44Z</time>
      </trkpt>
      <trkpt lat="45.29181" lon="3.85914">
        <ele>953</ele>
        <time>2021-04-15T08:09:46Z</time>
      </trkpt>
      <trkpt lat="45.2919" lon="3.85923">
        <ele>952</ele>
        <time>2021-04-15T08:09:47Z</time>
      </trkpt>
      <trkpt lat="45.29195" lon="3.85927">
        <ele>952</ele>
        <time>2021-04-15T08:09:49Z</time>
      </trkpt>
      <trkpt lat="45.29199" lon="3.85932">
        <ele>952</ele>
        <time>2021-04-15T08:09:50Z</time>
      </trkpt>
      <trkpt lat="45.29204" lon="3.85937">
        <ele>952</ele>
        <time>2021-04-15T08:09:51Z</time>
      </trkpt>
      <trkpt lat="45.29209" lon="3.85943">
        <ele>951</ele>
        <time>2021-04-15T08:09:52Z</time>
      </trkpt>
      <trkpt lat="45.29219" lon="3.85954">
        <ele>951</ele>
        <time>2021-04-15T08:09:53Z</time>
      </trkpt>
      <trkpt lat="45.29224" lon="3.85961">
        <ele>950</ele>
        <time>2021-04-15T08:09:55Z</time>
      </trkpt>
      <trkpt lat="45.29228" lon="3.85967">
        <ele>950</ele>
        <time>2021-04-15T08:09:56Z</time>
      </trkpt>
      <trkpt lat="45.29233" lon="3.85973">
        <ele>950</ele>
        <time>2021-04-15T08:09:57Z</time>
      </trkpt>
      <trkpt lat="45.29242" lon="3.85985">
        <ele>950</ele>
        <time>2021-04-15T08:09:58Z</time>
      </trkpt>
      <trkpt lat="45.29246" lon="3.85991">
        <ele>950</ele>
        <time>2021-04-15T08:09:59Z</time>
      </trkpt>
      <trkpt lat="45.2925" lon="3.85997">
        <ele>950</ele>
        <time>2021-04-15T08:10:00Z</time>
      </trkpt>
      <trkpt lat="45.29255" lon="3.86003">
        <ele>949</ele>
        <time>2021-04-15T08:10:01Z</time>
      </trkpt>
      <trkpt lat="45.29259" lon="3.86009">
        <ele>949</ele>
        <time>2021-04-15T08:10:02Z</time>
      </trkpt>
      <trkpt lat="45.29264" lon="3.86014">
        <ele>949</ele>
        <time>2021-04-15T08:10:03Z</time>
      </trkpt>
      <trkpt lat="45.29268" lon="3.86019">
        <ele>949</ele>
        <time>2021-04-15T08:10:04Z</time>
      </trkpt>
      <trkpt lat="45.29272" lon="3.86024">
        <ele>949</ele>
        <time>2021-04-15T08:10:05Z</time>
      </trkpt>
      <trkpt lat="45.29276" lon="3.86029">
        <ele>949</ele>
        <time>2021-04-15T08:10:06Z</time>
      </trkpt>
      <trkpt lat="45.29281" lon="3.86034">
        <ele>949</ele>
        <time>2021-04-15T08:10:07Z</time>
      </trkpt>
      <trkpt lat="45.29285" lon="3.86039">
        <ele>949</ele>
        <time>2021-04-15T08:10:08Z</time>
      </trkpt>
      <trkpt lat="45.29289" lon="3.86044">
        <ele>949</ele>
        <time>2021-04-15T08:10:09Z</time>
      </trkpt>
      <trkpt lat="45.29293" lon="3.86049">
        <ele>948</ele>
        <time>2021-04-15T08:10:10Z</time>
      </trkpt>
      <trkpt lat="45.29298" lon="3.86054">
        <ele>948</ele>
        <time>2021-04-15T08:10:11Z</time>
      </trkpt>
      <trkpt lat="45.29302" lon="3.86058">
        <ele>948</ele>
        <time>2021-04-15T08:10:12Z</time>
      </trkpt>
      <trkpt lat="45.29306" lon="3.86063">
        <ele>948</ele>
        <time>2021-04-15T08:10:13Z</time>
      </trkpt>
      <trkpt lat="45.2931" lon="3.86068">
        <ele>948</ele>
        <time>2021-04-15T08:10:14Z</time>
      </trkpt>
      <trkpt lat="45.29315" lon="3.86073">
        <ele>948</ele>
        <time>2021-04-15T08:10:15Z</time>
      </trkpt>
      <trkpt lat="45.29319" lon="3.86078">
        <ele>947</ele>
        <time>2021-04-15T08:10:16Z</time>
      </trkpt>
      <trkpt lat="45.29324" lon="3.86084">
        <ele>947</ele>
        <time>2021-04-15T08:10:17Z</time>
      </trkpt>
      <trkpt lat="45.29328" lon="3.86089">
        <ele>947</ele>
        <time>2021-04-15T08:10:18Z</time>
      </trkpt>
      <trkpt lat="45.29333" lon="3.86094">
        <ele>947</ele>
        <time>2021-04-15T08:10:19Z</time>
      </trkpt>
      <trkpt lat="45.29337" lon="3.86099">
        <ele>947</ele>
        <time>2021-04-15T08:10:20Z</time>
      </trkpt>
      <trkpt lat="45.29342" lon="3.86105">
        <ele>947</ele>
        <time>2021-04-15T08:10:21Z</time>
      </trkpt>
      <trkpt lat="45.29346" lon="3.8611">
        <ele>946</ele>
        <time>2021-04-15T08:10:22Z</time>
      </trkpt>
      <trkpt lat="45.29351" lon="3.86115">
        <ele>946</ele>
        <time>2021-04-15T08:10:23Z</time>
      </trkpt>
      <trkpt lat="45.29355" lon="3.86121">
        <ele>946</ele>
        <time>2021-04-15T08:10:24Z</time>
      </trkpt>
      <trkpt lat="45.2936" lon="3.86126">
        <ele>946</ele>
        <time>2021-04-15T08:10:25Z</time>
      </trkpt>
      <trkpt lat="45.29364" lon="3.86131">
        <ele>946</ele>
        <time>2021-04-15T08:10:26Z</time>
      </trkpt>
      <trkpt lat="45.29369" lon="3.86137">
        <ele>946</ele>
        <time>2021-04-15T08:10:27Z</time>
      </trkpt>
      <trkpt lat="45.29373" lon="3.86142">
        <ele>945</ele>
        <time>2021-04-15T08:10:29Z</time>
      </trkpt>
      <trkpt lat="45.29378" lon="3.86148">
        <ele>945</ele>
        <time>2021-04-15T08:10:30Z</time>
      </trkpt>
      <trkpt lat="45.29383" lon="3.86153">
        <ele>945</ele>
        <time>2021-04-15T08:10:31Z</time>
      </trkpt>
      <trkpt lat="45.29387" lon="3.86159">
        <ele>944</ele>
        <time>2021-04-15T08:10:32Z</time>
      </trkpt>
      <trkpt lat="45.29392" lon="3.86164">
        <ele>944</ele>
        <time>2021-04-15T08:10:33Z</time>
      </trkpt>
      <trkpt lat="45.29397" lon="3.8617">
        <ele>944</ele>
        <time>2021-04-15T08:10:34Z</time>
      </trkpt>
      <trkpt lat="45.29402" lon="3.86175">
        <ele>944</ele>
        <time>2021-04-15T08:10:35Z</time>
      </trkpt>
      <trkpt lat="45.29412" lon="3.86185">
        <ele>943</ele>
        <time>2021-04-15T08:10:36Z</time>
      </trkpt>
      <trkpt lat="45.29418" lon="3.8619">
        <ele>943</ele>
        <time>2021-04-15T08:10:38Z</time>
      </trkpt>
      <trkpt lat="45.29423" lon="3.86195">
        <ele>943</ele>
        <time>2021-04-15T08:10:39Z</time>
      </trkpt>
      <trkpt lat="45.29428" lon="3.862">
        <ele>942</ele>
        <time>2021-04-15T08:10:40Z</time>
      </trkpt>
      <trkpt lat="45.29433" lon="3.86204">
        <ele>942</ele>
        <time>2021-04-15T08:10:41Z</time>
      </trkpt>
      <trkpt lat="45.29439" lon="3.86208">
        <ele>942</ele>
        <time>2021-04-15T08:10:42Z</time>
      </trkpt>
      <trkpt lat="45.29444" lon="3.86212">
        <ele>942</ele>
        <time>2021-04-15T08:10:43Z</time>
      </trkpt>
      <trkpt lat="45.29455" lon="3.8622">
        <ele>942</ele>
        <time>2021-04-15T08:10:44Z</time>
      </trkpt>
      <trkpt lat="45.2946" lon="3.86224">
        <ele>941</ele>
        <time>2021-04-15T08:10:46Z</time>
      </trkpt>
      <trkpt lat="45.29466" lon="3.86228">
        <ele>941</ele>
        <time>2021-04-15T08:10:47Z</time>
      </trkpt>
      <trkpt lat="45.29471" lon="3.86232">
        <ele>941</ele>
        <time>2021-04-15T08:10:48Z</time>
      </trkpt>
      <trkpt lat="45.29476" lon="3.86235">
        <ele>940</ele>
        <time>2021-04-15T08:10:49Z</time>
      </trkpt>
      <trkpt lat="45.29482" lon="3.86239">
        <ele>940</ele>
        <time>2021-04-15T08:10:50Z</time>
      </trkpt>
      <trkpt lat="45.29487" lon="3.86243">
        <ele>940</ele>
        <time>2021-04-15T08:10:51Z</time>
      </trkpt>
      <trkpt lat="45.29498" lon="3.86251">
        <ele>940</ele>
        <time>2021-04-15T08:10:52Z</time>
      </trkpt>
      <trkpt lat="45.29503" lon="3.86255">
        <ele>939</ele>
        <time>2021-04-15T08:10:54Z</time>
      </trkpt>
      <trkpt lat="45.29515" lon="3.86263">
        <ele>939</ele>
        <time>2021-04-15T08:10:55Z</time>
      </trkpt>
      <trkpt lat="45.2952" lon="3.86267">
        <ele>938</ele>
        <time>2021-04-15T08:10:57Z</time>
      </trkpt>
      <trkpt lat="45.29526" lon="3.86272">
        <ele>938</ele>
        <time>2021-04-15T08:10:58Z</time>
      </trkpt>
      <trkpt lat="45.29531" lon="3.86276">
        <ele>938</ele>
        <time>2021-04-15T08:10:59Z</time>
      </trkpt>
      <trkpt lat="45.29542" lon="3.86285">
        <ele>937</ele>
        <time>2021-04-15T08:11:00Z</time>
      </trkpt>
      <trkpt lat="45.29548" lon="3.86289">
        <ele>937</ele>
        <time>2021-04-15T08:11:02Z</time>
      </trkpt>
      <trkpt lat="45.29559" lon="3.86299">
        <ele>936</ele>
        <time>2021-04-15T08:11:03Z</time>
      </trkpt>
      <trkpt lat="45.29565" lon="3.86304">
        <ele>935</ele>
        <time>2021-04-15T08:11:05Z</time>
      </trkpt>
      <trkpt lat="45.29571" lon="3.86308">
        <ele>935</ele>
        <time>2021-04-15T08:11:06Z</time>
      </trkpt>
      <trkpt lat="45.29583" lon="3.86318">
        <ele>934</ele>
        <time>2021-04-15T08:11:07Z</time>
      </trkpt>
      <trkpt lat="45.2959" lon="3.86324">
        <ele>933</ele>
        <time>2021-04-15T08:11:09Z</time>
      </trkpt>
      <trkpt lat="45.29596" lon="3.86329">
        <ele>933</ele>
        <time>2021-04-15T08:11:10Z</time>
      </trkpt>
      <trkpt lat="45.29603" lon="3.86335">
        <ele>932</ele>
        <time>2021-04-15T08:11:11Z</time>
      </trkpt>
      <trkpt lat="45.29611" lon="3.86341">
        <ele>931</ele>
        <time>2021-04-15T08:11:12Z</time>
      </trkpt>
      <trkpt lat="45.29618" lon="3.86348">
        <ele>931</ele>
        <time>2021-04-15T08:11:13Z</time>
      </trkpt>
      <trkpt lat="45.29634" lon="3.8636">
        <ele>930</ele>
        <time>2021-04-15T08:11:14Z</time>
      </trkpt>
      <trkpt lat="45.29642" lon="3.86366">
        <ele>929</ele>
        <time>2021-04-15T08:11:16Z</time>
      </trkpt>
      <trkpt lat="45.2965" lon="3.86373">
        <ele>928</ele>
        <time>2021-04-15T08:11:17Z</time>
      </trkpt>
      <trkpt lat="45.29658" lon="3.8638">
        <ele>928</ele>
        <time>2021-04-15T08:11:18Z</time>
      </trkpt>
      <trkpt lat="45.29672" lon="3.86395">
        <ele>928</ele>
        <time>2021-04-15T08:11:19Z</time>
      </trkpt>
      <trkpt lat="45.29678" lon="3.86403">
        <ele>927</ele>
        <time>2021-04-15T08:11:21Z</time>
      </trkpt>
      <trkpt lat="45.29684" lon="3.8641">
        <ele>927</ele>
        <time>2021-04-15T08:11:22Z</time>
      </trkpt>
      <trkpt lat="45.29689" lon="3.86417">
        <ele>927</ele>
        <time>2021-04-15T08:11:23Z</time>
      </trkpt>
      <trkpt lat="45.29695" lon="3.86425">
        <ele>926</ele>
        <time>2021-04-15T08:11:24Z</time>
      </trkpt>
      <trkpt lat="45.297" lon="3.86432">
        <ele>926</ele>
        <time>2021-04-15T08:11:25Z</time>
      </trkpt>
      <trkpt lat="45.29709" lon="3.86445">
        <ele>926</ele>
        <time>2021-04-15T08:11:26Z</time>
      </trkpt>
      <trkpt lat="45.29713" lon="3.86452">
        <ele>926</ele>
        <time>2021-04-15T08:11:28Z</time>
      </trkpt>
      <trkpt lat="45.29717" lon="3.86459">
        <ele>925</ele>
        <time>2021-04-15T08:11:29Z</time>
      </trkpt>
      <trkpt lat="45.29721" lon="3.86465">
        <ele>925</ele>
        <time>2021-04-15T08:11:30Z</time>
      </trkpt>
      <trkpt lat="45.29725" lon="3.86472">
        <ele>925</ele>
        <time>2021-04-15T08:11:31Z</time>
      </trkpt>
      <trkpt lat="45.29728" lon="3.86479">
        <ele>925</ele>
        <time>2021-04-15T08:11:32Z</time>
      </trkpt>
      <trkpt lat="45.29734" lon="3.86493">
        <ele>925</ele>
        <time>2021-04-15T08:11:33Z</time>
      </trkpt>
      <trkpt lat="45.29736" lon="3.86499">
        <ele>925</ele>
        <time>2021-04-15T08:11:34Z</time>
      </trkpt>
      <trkpt lat="45.29739" lon="3.86506">
        <ele>925</ele>
        <time>2021-04-15T08:11:36Z</time>
      </trkpt>
      <trkpt lat="45.29741" lon="3.86513">
        <ele>925</ele>
        <time>2021-04-15T08:11:37Z</time>
      </trkpt>
      <trkpt lat="45.29743" lon="3.86519">
        <ele>925</ele>
        <time>2021-04-15T08:11:38Z</time>
      </trkpt>
      <trkpt lat="45.29745" lon="3.86526">
        <ele>925</ele>
        <time>2021-04-15T08:11:39Z</time>
      </trkpt>
      <trkpt lat="45.29748" lon="3.86532">
        <ele>925</ele>
        <time>2021-04-15T08:11:40Z</time>
      </trkpt>
      <trkpt lat="45.2975" lon="3.86539">
        <ele>925</ele>
        <time>2021-04-15T08:11:41Z</time>
      </trkpt>
      <trkpt lat="45.29752" lon="3.86546">
        <ele>925</ele>
        <time>2021-04-15T08:11:42Z</time>
      </trkpt>
      <trkpt lat="45.29756" lon="3.86559">
        <ele>925</ele>
        <time>2021-04-15T08:11:43Z</time>
      </trkpt>
      <trkpt lat="45.29759" lon="3.86566">
        <ele>925</ele>
        <time>2021-04-15T08:11:45Z</time>
      </trkpt>
      <trkpt lat="45.29761" lon="3.86573">
        <ele>925</ele>
        <time>2021-04-15T08:11:46Z</time>
      </trkpt>
      <trkpt lat="45.29764" lon="3.8658">
        <ele>925</ele>
        <time>2021-04-15T08:11:47Z</time>
      </trkpt>
      <trkpt lat="45.29766" lon="3.86587">
        <ele>925</ele>
        <time>2021-04-15T08:11:48Z</time>
      </trkpt>
      <trkpt lat="45.29768" lon="3.86594">
        <ele>925</ele>
        <time>2021-04-15T08:11:49Z</time>
      </trkpt>
      <trkpt lat="45.29771" lon="3.86601">
        <ele>925</ele>
        <time>2021-04-15T08:11:50Z</time>
      </trkpt>
      <trkpt lat="45.29773" lon="3.86608">
        <ele>925</ele>
        <time>2021-04-15T08:11:51Z</time>
      </trkpt>
      <trkpt lat="45.29777" lon="3.86623">
        <ele>925</ele>
        <time>2021-04-15T08:11:52Z</time>
      </trkpt>
      <trkpt lat="45.2978" lon="3.8663">
        <ele>925</ele>
        <time>2021-04-15T08:11:54Z</time>
      </trkpt>
      <trkpt lat="45.29782" lon="3.86637">
        <ele>925</ele>
        <time>2021-04-15T08:11:55Z</time>
      </trkpt>
      <trkpt lat="45.29784" lon="3.86644">
        <ele>925</ele>
        <time>2021-04-15T08:11:56Z</time>
      </trkpt>
      <trkpt lat="45.29786" lon="3.86651">
        <ele>925</ele>
        <time>2021-04-15T08:11:57Z</time>
      </trkpt>
      <trkpt lat="45.29791" lon="3.86665">
        <ele>926</ele>
        <time>2021-04-15T08:11:58Z</time>
      </trkpt>
      <trkpt lat="45.29794" lon="3.86672">
        <ele>926</ele>
        <time>2021-04-15T08:11:59Z</time>
      </trkpt>
      <trkpt lat="45.29796" lon="3.86679">
        <ele>926</ele>
        <time>2021-04-15T08:12:00Z</time>
      </trkpt>
      <trkpt lat="45.29799" lon="3.86685">
        <ele>926</ele>
        <time>2021-04-15T08:12:01Z</time>
      </trkpt>
      <trkpt lat="45.29802" lon="3.86692">
        <ele>926</ele>
        <time>2021-04-15T08:12:02Z</time>
      </trkpt>
      <trkpt lat="45.29805" lon="3.86698">
        <ele>926</ele>
        <time>2021-04-15T08:12:03Z</time>
      </trkpt>
      <trkpt lat="45.29808" lon="3.86704">
        <ele>926</ele>
        <time>2021-04-15T08:12:04Z</time>
      </trkpt>
      <trkpt lat="45.29811" lon="3.86711">
        <ele>926</ele>
        <time>2021-04-15T08:12:05Z</time>
      </trkpt>
      <trkpt lat="45.29815" lon="3.86717">
        <ele>926</ele>
        <time>2021-04-15T08:12:06Z</time>
      </trkpt>
      <trkpt lat="45.29818" lon="3.86724">
        <ele>926</ele>
        <time>2021-04-15T08:12:07Z</time>
      </trkpt>
      <trkpt lat="45.29821" lon="3.86731">
        <ele>926</ele>
        <time>2021-04-15T08:12:08Z</time>
      </trkpt>
      <trkpt lat="45.29825" lon="3.86737">
        <ele>926</ele>
        <time>2021-04-15T08:12:09Z</time>
      </trkpt>
      <trkpt lat="45.29828" lon="3.86744">
        <ele>926</ele>
        <time>2021-04-15T08:12:10Z</time>
      </trkpt>
      <trkpt lat="45.29832" lon="3.8675">
        <ele>926</ele>
        <time>2021-04-15T08:12:11Z</time>
      </trkpt>
      <trkpt lat="45.29835" lon="3.86757">
        <ele>926</ele>
        <time>2021-04-15T08:12:12Z</time>
      </trkpt>
      <trkpt lat="45.29839" lon="3.86763">
        <ele>926</ele>
        <time>2021-04-15T08:12:13Z</time>
      </trkpt>
      <trkpt lat="45.29843" lon="3.8677">
        <ele>926</ele>
        <time>2021-04-15T08:12:14Z</time>
      </trkpt>
      <trkpt lat="45.29846" lon="3.86776">
        <ele>926</ele>
        <time>2021-04-15T08:12:15Z</time>
      </trkpt>
      <trkpt lat="45.2985" lon="3.86782">
        <ele>926</ele>
        <time>2021-04-15T08:12:16Z</time>
      </trkpt>
      <trkpt lat="45.29854" lon="3.86788">
        <ele>926</ele>
        <time>2021-04-15T08:12:17Z</time>
      </trkpt>
      <trkpt lat="45.29858" lon="3.86794">
        <ele>926</ele>
        <time>2021-04-15T08:12:18Z</time>
      </trkpt>
      <trkpt lat="45.29862" lon="3.868">
        <ele>926</ele>
        <time>2021-04-15T08:12:19Z</time>
      </trkpt>
      <trkpt lat="45.29866" lon="3.86806">
        <ele>926</ele>
        <time>2021-04-15T08:12:20Z</time>
      </trkpt>
      <trkpt lat="45.29869" lon="3.86811">
        <ele>926</ele>
        <time>2021-04-15T08:12:21Z</time>
      </trkpt>
      <trkpt lat="45.29873" lon="3.86817">
        <ele>926</ele>
        <time>2021-04-15T08:12:22Z</time>
      </trkpt>
      <trkpt lat="45.29877" lon="3.86823">
        <ele>926</ele>
        <time>2021-04-15T08:12:23Z</time>
      </trkpt>
      <trkpt lat="45.2988" lon="3.86829">
        <ele>926</ele>
        <time>2021-04-15T08:12:24Z</time>
      </trkpt>
      <trkpt lat="45.29883" lon="3.86833">
        <ele>927</ele>
        <time>2021-04-15T08:12:25Z</time>
      </trkpt>
      <trkpt lat="45.29885" lon="3.86837">
        <ele>927</ele>
        <time>2021-04-15T08:12:26Z</time>
      </trkpt>
      <trkpt lat="45.29888" lon="3.86841">
        <ele>927</ele>
        <time>2021-04-15T08:12:27Z</time>
      </trkpt>
      <trkpt lat="45.29891" lon="3.86845">
        <ele>927</ele>
        <time>2021-04-15T08:12:28Z</time>
      </trkpt>
      <trkpt lat="45.29893" lon="3.8685">
        <ele>927</ele>
        <time>2021-04-15T08:12:29Z</time>
      </trkpt>
      <trkpt lat="45.29896" lon="3.86855">
        <ele>927</ele>
        <time>2021-04-15T08:12:30Z</time>
      </trkpt>
      <trkpt lat="45.29899" lon="3.8686">
        <ele>928</ele>
        <time>2021-04-15T08:12:32Z</time>
      </trkpt>
      <trkpt lat="45.29902" lon="3.86865">
        <ele>928</ele>
        <time>2021-04-15T08:12:33Z</time>
      </trkpt>
      <trkpt lat="45.29906" lon="3.8687">
        <ele>928</ele>
        <time>2021-04-15T08:12:34Z</time>
      </trkpt>
      <trkpt lat="45.29914" lon="3.86881">
        <ele>928</ele>
        <time>2021-04-15T08:12:35Z</time>
      </trkpt>
      <trkpt lat="45.29918" lon="3.86887">
        <ele>929</ele>
        <time>2021-04-15T08:12:37Z</time>
      </trkpt>
      <trkpt lat="45.29922" lon="3.86892">
        <ele>929</ele>
        <time>2021-04-15T08:12:38Z</time>
      </trkpt>
      <trkpt lat="45.29929" lon="3.86901">
        <ele>929</ele>
        <time>2021-04-15T08:12:39Z</time>
      </trkpt>
      <trkpt lat="45.29933" lon="3.86905">
        <ele>930</ele>
        <time>2021-04-15T08:12:41Z</time>
      </trkpt>
      <trkpt lat="45.29936" lon="3.8691">
        <ele>930</ele>
        <time>2021-04-15T08:12:42Z</time>
      </trkpt>
      <trkpt lat="45.2994" lon="3.86914">
        <ele>930</ele>
        <time>2021-04-15T08:12:43Z</time>
      </trkpt>
      <trkpt lat="45.29945" lon="3.8692">
        <ele>930</ele>
        <time>2021-04-15T08:12:44Z</time>
      </trkpt>
      <trkpt lat="45.29955" lon="3.86931">
        <ele>931</ele>
        <time>2021-04-15T08:12:46Z</time>
      </trkpt>
      <trkpt lat="45.29961" lon="3.86936">
        <ele>931</ele>
        <time>2021-04-15T08:12:47Z</time>
      </trkpt>
      <trkpt lat="45.29969" lon="3.86947">
        <ele>931</ele>
        <time>2021-04-15T08:12:48Z</time>
      </trkpt>
      <trkpt lat="45.29974" lon="3.86953">
        <ele>932</ele>
        <time>2021-04-15T08:12:49Z</time>
      </trkpt>
      <trkpt lat="45.2998" lon="3.86959">
        <ele>932</ele>
        <time>2021-04-15T08:12:50Z</time>
      </trkpt>
      <trkpt lat="45.29985" lon="3.86964">
        <ele>932</ele>
        <time>2021-04-15T08:12:51Z</time>
      </trkpt>
      <trkpt lat="45.2999" lon="3.86969">
        <ele>932</ele>
        <time>2021-04-15T08:12:52Z</time>
      </trkpt>
      <trkpt lat="45.29996" lon="3.86974">
        <ele>932</ele>
        <time>2021-04-15T08:12:53Z</time>
      </trkpt>
      <trkpt lat="45.30002" lon="3.86979">
        <ele>933</ele>
        <time>2021-04-15T08:12:54Z</time>
      </trkpt>
      <trkpt lat="45.30008" lon="3.86984">
        <ele>933</ele>
        <time>2021-04-15T08:12:55Z</time>
      </trkpt>
      <trkpt lat="45.30014" lon="3.86988">
        <ele>933</ele>
        <time>2021-04-15T08:12:56Z</time>
      </trkpt>
      <trkpt lat="45.30026" lon="3.86995">
        <ele>933</ele>
        <time>2021-04-15T08:12:58Z</time>
      </trkpt>
      <trkpt lat="45.30031" lon="3.86999">
        <ele>933</ele>
        <time>2021-04-15T08:12:59Z</time>
      </trkpt>
      <trkpt lat="45.30036" lon="3.87001">
        <ele>933</ele>
        <time>2021-04-15T08:13:00Z</time>
      </trkpt>
      <trkpt lat="45.3004" lon="3.87004">
        <ele>933</ele>
        <time>2021-04-15T08:13:01Z</time>
      </trkpt>
      <trkpt lat="45.30046" lon="3.87008">
        <ele>933</ele>
        <time>2021-04-15T08:13:02Z</time>
      </trkpt>
      <trkpt lat="45.30058" lon="3.87013">
        <ele>934</ele>
        <time>2021-04-15T08:13:04Z</time>
      </trkpt>
      <trkpt lat="45.30067" lon="3.8702">
        <ele>934</ele>
        <time>2021-04-15T08:13:06Z</time>
      </trkpt>
      <trkpt lat="45.30073" lon="3.87023">
        <ele>934</ele>
        <time>2021-04-15T08:13:07Z</time>
      </trkpt>
      <trkpt lat="45.30079" lon="3.87026">
        <ele>934</ele>
        <time>2021-04-15T08:13:08Z</time>
      </trkpt>
      <trkpt lat="45.30085" lon="3.87028">
        <ele>934</ele>
        <time>2021-04-15T08:13:10Z</time>
      </trkpt>
      <trkpt lat="45.3009" lon="3.8703">
        <ele>934</ele>
        <time>2021-04-15T08:13:11Z</time>
      </trkpt>
      <trkpt lat="45.30096" lon="3.8703">
        <ele>934</ele>
        <time>2021-04-15T08:13:12Z</time>
      </trkpt>
      <trkpt lat="45.30109" lon="3.87032">
        <ele>934</ele>
        <time>2021-04-15T08:13:13Z</time>
      </trkpt>
      <trkpt lat="45.30116" lon="3.87035">
        <ele>934</ele>
        <time>2021-04-15T08:13:15Z</time>
      </trkpt>
      <trkpt lat="45.30122" lon="3.87037">
        <ele>934</ele>
        <time>2021-04-15T08:13:16Z</time>
      </trkpt>
      <trkpt lat="45.3013" lon="3.87041">
        <ele>934</ele>
        <time>2021-04-15T08:13:17Z</time>
      </trkpt>
      <trkpt lat="45.30137" lon="3.87044">
        <ele>934</ele>
        <time>2021-04-15T08:13:18Z</time>
      </trkpt>
      <trkpt lat="45.30143" lon="3.87047">
        <ele>934</ele>
        <time>2021-04-15T08:13:19Z</time>
      </trkpt>
      <trkpt lat="45.30153" lon="3.87055">
        <ele>934</ele>
        <time>2021-04-15T08:13:20Z</time>
      </trkpt>
      <trkpt lat="45.30159" lon="3.87059">
        <ele>934</ele>
        <time>2021-04-15T08:13:22Z</time>
      </trkpt>
      <trkpt lat="45.30165" lon="3.87061">
        <ele>933</ele>
        <time>2021-04-15T08:13:23Z</time>
      </trkpt>
      <trkpt lat="45.30172" lon="3.87064">
        <ele>933</ele>
        <time>2021-04-15T08:13:24Z</time>
      </trkpt>
      <trkpt lat="45.30178" lon="3.87066">
        <ele>933</ele>
        <time>2021-04-15T08:13:25Z</time>
      </trkpt>
      <trkpt lat="45.30183" lon="3.87068">
        <ele>933</ele>
        <time>2021-04-15T08:13:26Z</time>
      </trkpt>
      <trkpt lat="45.30194" lon="3.87069">
        <ele>932</ele>
        <time>2021-04-15T08:13:27Z</time>
      </trkpt>
      <trkpt lat="45.30201" lon="3.87069">
        <ele>932</ele>
        <time>2021-04-15T08:13:28Z</time>
      </trkpt>
      <trkpt lat="45.30208" lon="3.87069">
        <ele>931</ele>
        <time>2021-04-15T08:13:30Z</time>
      </trkpt>
      <trkpt lat="45.30216" lon="3.87068">
        <ele>930</ele>
        <time>2021-04-15T08:13:31Z</time>
      </trkpt>
      <trkpt lat="45.30222" lon="3.87068">
        <ele>929</ele>
        <time>2021-04-15T08:13:32Z</time>
      </trkpt>
      <trkpt lat="45.30229" lon="3.87069">
        <ele>928</ele>
        <time>2021-04-15T08:13:33Z</time>
      </trkpt>
      <trkpt lat="45.30235" lon="3.8707">
        <ele>927</ele>
        <time>2021-04-15T08:13:34Z</time>
      </trkpt>
      <trkpt lat="45.30241" lon="3.87071">
        <ele>926</ele>
        <time>2021-04-15T08:13:35Z</time>
      </trkpt>
      <trkpt lat="45.30253" lon="3.87074">
        <ele>925</ele>
        <time>2021-04-15T08:13:36Z</time>
      </trkpt>
      <trkpt lat="45.30258" lon="3.87076">
        <ele>924</ele>
        <time>2021-04-15T08:13:38Z</time>
      </trkpt>
      <trkpt lat="45.30263" lon="3.87078">
        <ele>923</ele>
        <time>2021-04-15T08:13:39Z</time>
      </trkpt>
      <trkpt lat="45.30269" lon="3.8708">
        <ele>922</ele>
        <time>2021-04-15T08:13:40Z</time>
      </trkpt>
      <trkpt lat="45.30274" lon="3.87081">
        <ele>922</ele>
        <time>2021-04-15T08:13:41Z</time>
      </trkpt>
      <trkpt lat="45.3028" lon="3.87083">
        <ele>921</ele>
        <time>2021-04-15T08:13:42Z</time>
      </trkpt>
      <trkpt lat="45.30285" lon="3.87085">
        <ele>921</ele>
        <time>2021-04-15T08:13:43Z</time>
      </trkpt>
      <trkpt lat="45.30291" lon="3.87087">
        <ele>920</ele>
        <time>2021-04-15T08:13:44Z</time>
      </trkpt>
      <trkpt lat="45.30301" lon="3.87091">
        <ele>920</ele>
        <time>2021-04-15T08:13:45Z</time>
      </trkpt>
      <trkpt lat="45.30306" lon="3.87094">
        <ele>919</ele>
        <time>2021-04-15T08:13:46Z</time>
      </trkpt>
      <trkpt lat="45.30312" lon="3.87097">
        <ele>919</ele>
        <time>2021-04-15T08:13:48Z</time>
      </trkpt>
      <trkpt lat="45.30317" lon="3.87099">
        <ele>918</ele>
        <time>2021-04-15T08:13:49Z</time>
      </trkpt>
      <trkpt lat="45.30322" lon="3.87103">
        <ele>918</ele>
        <time>2021-04-15T08:13:50Z</time>
      </trkpt>
      <trkpt lat="45.30327" lon="3.87106">
        <ele>918</ele>
        <time>2021-04-15T08:13:51Z</time>
      </trkpt>
      <trkpt lat="45.30332" lon="3.87109">
        <ele>918</ele>
        <time>2021-04-15T08:13:52Z</time>
      </trkpt>
      <trkpt lat="45.30342" lon="3.87114">
        <ele>918</ele>
        <time>2021-04-15T08:13:53Z</time>
      </trkpt>
      <trkpt lat="45.30348" lon="3.87116">
        <ele>917</ele>
        <time>2021-04-15T08:13:55Z</time>
      </trkpt>
      <trkpt lat="45.30353" lon="3.87118">
        <ele>917</ele>
        <time>2021-04-15T08:13:56Z</time>
      </trkpt>
      <trkpt lat="45.30359" lon="3.8712">
        <ele>916</ele>
        <time>2021-04-15T08:13:57Z</time>
      </trkpt>
      <trkpt lat="45.30365" lon="3.87122">
        <ele>915</ele>
        <time>2021-04-15T08:13:58Z</time>
      </trkpt>
      <trkpt lat="45.30371" lon="3.87124">
        <ele>915</ele>
        <time>2021-04-15T08:13:59Z</time>
      </trkpt>
      <trkpt lat="45.30377" lon="3.87127">
        <ele>914</ele>
        <time>2021-04-15T08:14:00Z</time>
      </trkpt>
      <trkpt lat="45.30383" lon="3.87129">
        <ele>913</ele>
        <time>2021-04-15T08:14:01Z</time>
      </trkpt>
      <trkpt lat="45.30395" lon="3.87131">
        <ele>913</ele>
        <time>2021-04-15T08:14:02Z</time>
      </trkpt>
      <trkpt lat="45.30401" lon="3.87131">
        <ele>912</ele>
        <time>2021-04-15T08:14:04Z</time>
      </trkpt>
      <trkpt lat="45.30413" lon="3.8713">
        <ele>911</ele>
        <time>2021-04-15T08:14:05Z</time>
      </trkpt>
      <trkpt lat="45.30419" lon="3.87129">
        <ele>911</ele>
        <time>2021-04-15T08:14:06Z</time>
      </trkpt>
      <trkpt lat="45.30425" lon="3.87128">
        <ele>911</ele>
        <time>2021-04-15T08:14:07Z</time>
      </trkpt>
      <trkpt lat="45.3043" lon="3.87127">
        <ele>910</ele>
        <time>2021-04-15T08:14:08Z</time>
      </trkpt>
      <trkpt lat="45.30436" lon="3.87126">
        <ele>909</ele>
        <time>2021-04-15T08:14:09Z</time>
      </trkpt>
      <trkpt lat="45.30441" lon="3.87124">
        <ele>909</ele>
        <time>2021-04-15T08:14:10Z</time>
      </trkpt>
      <trkpt lat="45.30446" lon="3.87123">
        <ele>908</ele>
        <time>2021-04-15T08:14:11Z</time>
      </trkpt>
      <trkpt lat="45.30451" lon="3.87121">
        <ele>908</ele>
        <time>2021-04-15T08:14:12Z</time>
      </trkpt>
      <trkpt lat="45.30457" lon="3.87119">
        <ele>908</ele>
        <time>2021-04-15T08:14:13Z</time>
      </trkpt>
      <trkpt lat="45.30462" lon="3.87118">
        <ele>907</ele>
        <time>2021-04-15T08:14:14Z</time>
      </trkpt>
      <trkpt lat="45.30466" lon="3.87118">
        <ele>907</ele>
        <time>2021-04-15T08:14:15Z</time>
      </trkpt>
      <trkpt lat="45.3047" lon="3.87117">
        <ele>907</ele>
        <time>2021-04-15T08:14:16Z</time>
      </trkpt>
      <trkpt lat="45.30475" lon="3.87116">
        <ele>907</ele>
        <time>2021-04-15T08:14:17Z</time>
      </trkpt>
      <trkpt lat="45.3048" lon="3.87115">
        <ele>906</ele>
        <time>2021-04-15T08:14:18Z</time>
      </trkpt>
      <trkpt lat="45.30485" lon="3.87114">
        <ele>906</ele>
        <time>2021-04-15T08:14:19Z</time>
      </trkpt>
      <trkpt lat="45.30489" lon="3.87113">
        <ele>906</ele>
        <time>2021-04-15T08:14:20Z</time>
      </trkpt>
      <trkpt lat="45.30494" lon="3.87112">
        <ele>906</ele>
        <time>2021-04-15T08:14:21Z</time>
      </trkpt>
      <trkpt lat="45.30499" lon="3.87111">
        <ele>905</ele>
        <time>2021-04-15T08:14:22Z</time>
      </trkpt>
      <trkpt lat="45.30503" lon="3.8711">
        <ele>905</ele>
        <time>2021-04-15T08:14:23Z</time>
      </trkpt>
      <trkpt lat="45.30509" lon="3.87109">
        <ele>905</ele>
        <time>2021-04-15T08:14:24Z</time>
      </trkpt>
      <trkpt lat="45.30515" lon="3.8711">
        <ele>905</ele>
        <time>2021-04-15T08:14:26Z</time>
      </trkpt>
      <trkpt lat="45.30521" lon="3.8711">
        <ele>904</ele>
        <time>2021-04-15T08:14:27Z</time>
      </trkpt>
      <trkpt lat="45.30527" lon="3.87108">
        <ele>904</ele>
        <time>2021-04-15T08:14:28Z</time>
      </trkpt>
      <trkpt lat="45.30533" lon="3.87106">
        <ele>904</ele>
        <time>2021-04-15T08:14:29Z</time>
      </trkpt>
      <trkpt lat="45.30545" lon="3.87101">
        <ele>904</ele>
        <time>2021-04-15T08:14:30Z</time>
      </trkpt>
      <trkpt lat="45.30552" lon="3.87097">
        <ele>903</ele>
        <time>2021-04-15T08:14:32Z</time>
      </trkpt>
      <trkpt lat="45.30558" lon="3.87093">
        <ele>903</ele>
        <time>2021-04-15T08:14:33Z</time>
      </trkpt>
      <trkpt lat="45.30564" lon="3.87089">
        <ele>903</ele>
        <time>2021-04-15T08:14:34Z</time>
      </trkpt>
      <trkpt lat="45.3057" lon="3.87086">
        <ele>903</ele>
        <time>2021-04-15T08:14:35Z</time>
      </trkpt>
      <trkpt lat="45.30576" lon="3.87084">
        <ele>903</ele>
        <time>2021-04-15T08:14:36Z</time>
      </trkpt>
      <trkpt lat="45.30588" lon="3.87081">
        <ele>903</ele>
        <time>2021-04-15T08:14:37Z</time>
      </trkpt>
      <trkpt lat="45.30594" lon="3.87079">
        <ele>902</ele>
        <time>2021-04-15T08:14:39Z</time>
      </trkpt>
      <trkpt lat="45.306" lon="3.87079">
        <ele>902</ele>
        <time>2021-04-15T08:14:40Z</time>
      </trkpt>
      <trkpt lat="45.30607" lon="3.87078">
        <ele>902</ele>
        <time>2021-04-15T08:14:41Z</time>
      </trkpt>
      <trkpt lat="45.30613" lon="3.87077">
        <ele>902</ele>
        <time>2021-04-15T08:14:42Z</time>
      </trkpt>
      <trkpt lat="45.3062" lon="3.87076">
        <ele>902</ele>
        <time>2021-04-15T08:14:43Z</time>
      </trkpt>
      <trkpt lat="45.30634" lon="3.87077">
        <ele>902</ele>
        <time>2021-04-15T08:14:44Z</time>
      </trkpt>
      <trkpt lat="45.30648" lon="3.8708">
        <ele>902</ele>
        <time>2021-04-15T08:14:46Z</time>
      </trkpt>
      <trkpt lat="45.30658" lon="3.87083">
        <ele>902</ele>
        <time>2021-04-15T08:14:48Z</time>
      </trkpt>
      <trkpt lat="45.30671" lon="3.87084">
        <ele>902</ele>
        <time>2021-04-15T08:14:51Z</time>
      </trkpt>
      <trkpt lat="45.30683" lon="3.87087">
        <ele>902</ele>
        <time>2021-04-15T08:14:54Z</time>
      </trkpt>
      <trkpt lat="45.30693" lon="3.87091">
        <ele>901</ele>
        <time>2021-04-15T08:14:56Z</time>
      </trkpt>
      <trkpt lat="45.30704" lon="3.87096">
        <ele>901</ele>
        <time>2021-04-15T08:14:58Z</time>
      </trkpt>
      <trkpt lat="45.30714" lon="3.87098">
        <ele>900</ele>
        <time>2021-04-15T08:15:01Z</time>
      </trkpt>
      <trkpt lat="45.30722" lon="3.87101">
        <ele>900</ele>
        <time>2021-04-15T08:15:02Z</time>
      </trkpt>
      <trkpt lat="45.30727" lon="3.87102">
        <ele>900</ele>
        <time>2021-04-15T08:15:03Z</time>
      </trkpt>
      <trkpt lat="45.30731" lon="3.87103">
        <ele>900</ele>
        <time>2021-04-15T08:15:04Z</time>
      </trkpt>
      <trkpt lat="45.30735" lon="3.87104">
        <ele>900</ele>
        <time>2021-04-15T08:15:05Z</time>
      </trkpt>
      <trkpt lat="45.30738" lon="3.87105">
        <ele>899</ele>
        <time>2021-04-15T08:15:06Z</time>
      </trkpt>
      <trkpt lat="45.30743" lon="3.87106">
        <ele>899</ele>
        <time>2021-04-15T08:15:07Z</time>
      </trkpt>
      <trkpt lat="45.30747" lon="3.87108">
        <ele>899</ele>
        <time>2021-04-15T08:15:08Z</time>
      </trkpt>
      <trkpt lat="45.30751" lon="3.8711">
        <ele>899</ele>
        <time>2021-04-15T08:15:09Z</time>
      </trkpt>
      <trkpt lat="45.30756" lon="3.87111">
        <ele>898</ele>
        <time>2021-04-15T08:15:10Z</time>
      </trkpt>
      <trkpt lat="45.30761" lon="3.87112">
        <ele>898</ele>
        <time>2021-04-15T08:15:11Z</time>
      </trkpt>
      <trkpt lat="45.30765" lon="3.87114">
        <ele>898</ele>
        <time>2021-04-15T08:15:12Z</time>
      </trkpt>
      <trkpt lat="45.3077" lon="3.87115">
        <ele>897</ele>
        <time>2021-04-15T08:15:13Z</time>
      </trkpt>
      <trkpt lat="45.30775" lon="3.87115">
        <ele>897</ele>
        <time>2021-04-15T08:15:14Z</time>
      </trkpt>
      <trkpt lat="45.3078" lon="3.87116">
        <ele>896</ele>
        <time>2021-04-15T08:15:15Z</time>
      </trkpt>
      <trkpt lat="45.30784" lon="3.87116">
        <ele>895</ele>
        <time>2021-04-15T08:15:16Z</time>
      </trkpt>
      <trkpt lat="45.30789" lon="3.87116">
        <ele>895</ele>
        <time>2021-04-15T08:15:17Z</time>
      </trkpt>
      <trkpt lat="45.30793" lon="3.87115">
        <ele>895</ele>
        <time>2021-04-15T08:15:18Z</time>
      </trkpt>
      <trkpt lat="45.30797" lon="3.87115">
        <ele>893</ele>
        <time>2021-04-15T08:15:19Z</time>
      </trkpt>
      <trkpt lat="45.30802" lon="3.87115">
        <ele>892</ele>
        <time>2021-04-15T08:15:20Z</time>
      </trkpt>
      <trkpt lat="45.30806" lon="3.87115">
        <ele>891</ele>
        <time>2021-04-15T08:15:21Z</time>
      </trkpt>
      <trkpt lat="45.3081" lon="3.87115">
        <ele>891</ele>
        <time>2021-04-15T08:15:22Z</time>
      </trkpt>
      <trkpt lat="45.30814" lon="3.87115">
        <ele>891</ele>
        <time>2021-04-15T08:15:23Z</time>
      </trkpt>
      <trkpt lat="45.30818" lon="3.87115">
        <ele>891</ele>
        <time>2021-04-15T08:15:24Z</time>
      </trkpt>
      <trkpt lat="45.30822" lon="3.87115">
        <ele>890</ele>
        <time>2021-04-15T08:15:25Z</time>
      </trkpt>
      <trkpt lat="45.30827" lon="3.87115">
        <ele>890</ele>
        <time>2021-04-15T08:15:26Z</time>
      </trkpt>
      <trkpt lat="45.30831" lon="3.87115">
        <ele>890</ele>
        <time>2021-04-15T08:15:27Z</time>
      </trkpt>
      <trkpt lat="45.30836" lon="3.87115">
        <ele>889</ele>
        <time>2021-04-15T08:15:28Z</time>
      </trkpt>
      <trkpt lat="45.30841" lon="3.87115">
        <ele>889</ele>
        <time>2021-04-15T08:15:29Z</time>
      </trkpt>
      <trkpt lat="45.30846" lon="3.87115">
        <ele>888</ele>
        <time>2021-04-15T08:15:30Z</time>
      </trkpt>
      <trkpt lat="45.30851" lon="3.87115">
        <ele>888</ele>
        <time>2021-04-15T08:15:31Z</time>
      </trkpt>
      <trkpt lat="45.30856" lon="3.87114">
        <ele>888</ele>
        <time>2021-04-15T08:15:32Z</time>
      </trkpt>
      <trkpt lat="45.30863" lon="3.87113">
        <ele>887</ele>
        <time>2021-04-15T08:15:33Z</time>
      </trkpt>
      <trkpt lat="45.30871" lon="3.87113">
        <ele>887</ele>
        <time>2021-04-15T08:15:34Z</time>
      </trkpt>
      <trkpt lat="45.30878" lon="3.87113">
        <ele>887</ele>
        <time>2021-04-15T08:15:35Z</time>
      </trkpt>
      <trkpt lat="45.30885" lon="3.87112">
        <ele>886</ele>
        <time>2021-04-15T08:15:36Z</time>
      </trkpt>
      <trkpt lat="45.30892" lon="3.87111">
        <ele>885</ele>
        <time>2021-04-15T08:15:37Z</time>
      </trkpt>
      <trkpt lat="45.30898" lon="3.8711">
        <ele>885</ele>
        <time>2021-04-15T08:15:38Z</time>
      </trkpt>
      <trkpt lat="45.30904" lon="3.87109">
        <ele>884</ele>
        <time>2021-04-15T08:15:39Z</time>
      </trkpt>
      <trkpt lat="45.3091" lon="3.87108">
        <ele>884</ele>
        <time>2021-04-15T08:15:40Z</time>
      </trkpt>
      <trkpt lat="45.30916" lon="3.87107">
        <ele>883</ele>
        <time>2021-04-15T08:15:42Z</time>
      </trkpt>
      <trkpt lat="45.30921" lon="3.87106">
        <ele>883</ele>
        <time>2021-04-15T08:15:43Z</time>
      </trkpt>
      <trkpt lat="45.30933" lon="3.87105">
        <ele>882</ele>
        <time>2021-04-15T08:15:44Z</time>
      </trkpt>
      <trkpt lat="45.3094" lon="3.87105">
        <ele>882</ele>
        <time>2021-04-15T08:15:46Z</time>
      </trkpt>
      <trkpt lat="45.30952" lon="3.87107">
        <ele>882</ele>
        <time>2021-04-15T08:15:47Z</time>
      </trkpt>
      <trkpt lat="45.30958" lon="3.87109">
        <ele>881</ele>
        <time>2021-04-15T08:15:49Z</time>
      </trkpt>
      <trkpt lat="45.30964" lon="3.87109">
        <ele>881</ele>
        <time>2021-04-15T08:15:50Z</time>
      </trkpt>
      <trkpt lat="45.30971" lon="3.87109">
        <ele>881</ele>
        <time>2021-04-15T08:15:51Z</time>
      </trkpt>
      <trkpt lat="45.30986" lon="3.87111">
        <ele>880</ele>
        <time>2021-04-15T08:15:52Z</time>
      </trkpt>
      <trkpt lat="45.30993" lon="3.87112">
        <ele>878</ele>
        <time>2021-04-15T08:15:54Z</time>
      </trkpt>
      <trkpt lat="45.31001" lon="3.87113">
        <ele>877</ele>
        <time>2021-04-15T08:15:55Z</time>
      </trkpt>
      <trkpt lat="45.31007" lon="3.87113">
        <ele>877</ele>
        <time>2021-04-15T08:15:56Z</time>
      </trkpt>
      <trkpt lat="45.31014" lon="3.87114">
        <ele>875</ele>
        <time>2021-04-15T08:15:57Z</time>
      </trkpt>
      <trkpt lat="45.3102" lon="3.87114">
        <ele>874</ele>
        <time>2021-04-15T08:15:58Z</time>
      </trkpt>
      <trkpt lat="45.31033" lon="3.87116">
        <ele>873</ele>
        <time>2021-04-15T08:15:59Z</time>
      </trkpt>
      <trkpt lat="45.31039" lon="3.87117">
        <ele>870</ele>
        <time>2021-04-15T08:16:01Z</time>
      </trkpt>
      <trkpt lat="45.31045" lon="3.87117">
        <ele>870</ele>
        <time>2021-04-15T08:16:02Z</time>
      </trkpt>
      <trkpt lat="45.31051" lon="3.87116">
        <ele>869</ele>
        <time>2021-04-15T08:16:03Z</time>
      </trkpt>
      <trkpt lat="45.31057" lon="3.87115">
        <ele>869</ele>
        <time>2021-04-15T08:16:04Z</time>
      </trkpt>
      <trkpt lat="45.31063" lon="3.87114">
        <ele>868</ele>
        <time>2021-04-15T08:16:05Z</time>
      </trkpt>
      <trkpt lat="45.31069" lon="3.87115">
        <ele>868</ele>
        <time>2021-04-15T08:16:06Z</time>
      </trkpt>
      <trkpt lat="45.31075" lon="3.87116">
        <ele>867</ele>
        <time>2021-04-15T08:16:07Z</time>
      </trkpt>
      <trkpt lat="45.31087" lon="3.87121">
        <ele>867</ele>
        <time>2021-04-15T08:16:08Z</time>
      </trkpt>
      <trkpt lat="45.31093" lon="3.87123">
        <ele>867</ele>
        <time>2021-04-15T08:16:09Z</time>
      </trkpt>
      <trkpt lat="45.31099" lon="3.87125">
        <ele>867</ele>
        <time>2021-04-15T08:16:10Z</time>
      </trkpt>
      <trkpt lat="45.31105" lon="3.87126">
        <ele>867</ele>
        <time>2021-04-15T08:16:11Z</time>
      </trkpt>
      <trkpt lat="45.31111" lon="3.87127">
        <ele>867</ele>
        <time>2021-04-15T08:16:12Z</time>
      </trkpt>
      <trkpt lat="45.31117" lon="3.87129">
        <ele>866</ele>
        <time>2021-04-15T08:16:13Z</time>
      </trkpt>
      <trkpt lat="45.31123" lon="3.87129">
        <ele>866</ele>
        <time>2021-04-15T08:16:14Z</time>
      </trkpt>
      <trkpt lat="45.31129" lon="3.87129">
        <ele>865</ele>
        <time>2021-04-15T08:16:15Z</time>
      </trkpt>
      <trkpt lat="45.31136" lon="3.8713">
        <ele>865</ele>
        <time>2021-04-15T08:16:16Z</time>
      </trkpt>
      <trkpt lat="45.31142" lon="3.87131">
        <ele>864</ele>
        <time>2021-04-15T08:16:17Z</time>
      </trkpt>
      <trkpt lat="45.31148" lon="3.87132">
        <ele>864</ele>
        <time>2021-04-15T08:16:18Z</time>
      </trkpt>
      <trkpt lat="45.31155" lon="3.87133">
        <ele>863</ele>
        <time>2021-04-15T08:16:20Z</time>
      </trkpt>
      <trkpt lat="45.31161" lon="3.87134">
        <ele>863</ele>
        <time>2021-04-15T08:16:21Z</time>
      </trkpt>
      <trkpt lat="45.31167" lon="3.87135">
        <ele>863</ele>
        <time>2021-04-15T08:16:22Z</time>
      </trkpt>
      <trkpt lat="45.31173" lon="3.87135">
        <ele>863</ele>
        <time>2021-04-15T08:16:23Z</time>
      </trkpt>
      <trkpt lat="45.31185" lon="3.87135">
        <ele>863</ele>
        <time>2021-04-15T08:16:24Z</time>
      </trkpt>
      <trkpt lat="45.31191" lon="3.87136">
        <ele>862</ele>
        <time>2021-04-15T08:16:26Z</time>
      </trkpt>
      <trkpt lat="45.31204" lon="3.87139">
        <ele>861</ele>
        <time>2021-04-15T08:16:27Z</time>
      </trkpt>
      <trkpt lat="45.3121" lon="3.87142">
        <ele>861</ele>
        <time>2021-04-15T08:16:28Z</time>
      </trkpt>
      <trkpt lat="45.31216" lon="3.87147">
        <ele>860</ele>
        <time>2021-04-15T08:16:30Z</time>
      </trkpt>
      <trkpt lat="45.31227" lon="3.87156">
        <ele>860</ele>
        <time>2021-04-15T08:16:31Z</time>
      </trkpt>
      <trkpt lat="45.3123" lon="3.8716">
        <ele>859</ele>
        <time>2021-04-15T08:16:33Z</time>
      </trkpt>
      <trkpt lat="45.31233" lon="3.87164">
        <ele>859</ele>
        <time>2021-04-15T08:16:34Z</time>
      </trkpt>
      <trkpt lat="45.31235" lon="3.87168">
        <ele>859</ele>
        <time>2021-04-15T08:16:35Z</time>
      </trkpt>
      <trkpt lat="45.31237" lon="3.87172">
        <ele>858</ele>
        <time>2021-04-15T08:16:36Z</time>
      </trkpt>
      <trkpt lat="45.31243" lon="3.87182">
        <ele>858</ele>
        <time>2021-04-15T08:16:37Z</time>
      </trkpt>
      <trkpt lat="45.31246" lon="3.87187">
        <ele>857</ele>
        <time>2021-04-15T08:16:39Z</time>
      </trkpt>
      <trkpt lat="45.31249" lon="3.87192">
        <ele>857</ele>
        <time>2021-04-15T08:16:40Z</time>
      </trkpt>
      <trkpt lat="45.31253" lon="3.87198">
        <ele>856</ele>
        <time>2021-04-15T08:16:41Z</time>
      </trkpt>
      <trkpt lat="45.31265" lon="3.87208">
        <ele>856</ele>
        <time>2021-04-15T08:16:42Z</time>
      </trkpt>
      <trkpt lat="45.31271" lon="3.87213">
        <ele>855</ele>
        <time>2021-04-15T08:16:44Z</time>
      </trkpt>
      <trkpt lat="45.31277" lon="3.8722">
        <ele>855</ele>
        <time>2021-04-15T08:16:45Z</time>
      </trkpt>
      <trkpt lat="45.31282" lon="3.87226">
        <ele>855</ele>
        <time>2021-04-15T08:16:46Z</time>
      </trkpt>
      <trkpt lat="45.31286" lon="3.87232">
        <ele>855</ele>
        <time>2021-04-15T08:16:47Z</time>
      </trkpt>
      <trkpt lat="45.3129" lon="3.87241">
        <ele>855</ele>
        <time>2021-04-15T08:16:48Z</time>
      </trkpt>
      <trkpt lat="45.31295" lon="3.87261">
        <ele>855</ele>
        <time>2021-04-15T08:16:49Z</time>
      </trkpt>
      <trkpt lat="45.31298" lon="3.8727">
        <ele>855</ele>
        <time>2021-04-15T08:16:51Z</time>
      </trkpt>
      <trkpt lat="45.31303" lon="3.87284">
        <ele>855</ele>
        <time>2021-04-15T08:16:52Z</time>
      </trkpt>
      <trkpt lat="45.31306" lon="3.87288">
        <ele>854</ele>
        <time>2021-04-15T08:16:54Z</time>
      </trkpt>
      <trkpt lat="45.31308" lon="3.87292">
        <ele>854</ele>
        <time>2021-04-15T08:16:55Z</time>
      </trkpt>
      <trkpt lat="45.31309" lon="3.87294">
        <ele>853</ele>
        <time>2021-04-15T08:16:56Z</time>
      </trkpt>
      <trkpt lat="45.3131" lon="3.87303">
        <ele>852</ele>
        <time>2021-04-15T08:16:58Z</time>
      </trkpt>
      <trkpt lat="45.31311" lon="3.87305">
        <ele>851</ele>
        <time>2021-04-15T08:16:59Z</time>
      </trkpt>
      <trkpt lat="45.31313" lon="3.87308">
        <ele>851</ele>
        <time>2021-04-15T08:17:00Z</time>
      </trkpt>
      <trkpt lat="45.31316" lon="3.87311">
        <ele>850</ele>
        <time>2021-04-15T08:17:01Z</time>
      </trkpt>
      <trkpt lat="45.31318" lon="3.87313">
        <ele>850</ele>
        <time>2021-04-15T08:17:02Z</time>
      </trkpt>
      <trkpt lat="45.3132" lon="3.87315">
        <ele>849</ele>
        <time>2021-04-15T08:17:03Z</time>
      </trkpt>
      <trkpt lat="45.31323" lon="3.87316">
        <ele>848</ele>
        <time>2021-04-15T08:17:05Z</time>
      </trkpt>
      <trkpt lat="45.31326" lon="3.87316">
        <ele>847</ele>
        <time>2021-04-15T08:17:07Z</time>
      </trkpt>
      <trkpt lat="45.31328" lon="3.87316">
        <ele>846</ele>
        <time>2021-04-15T08:17:09Z</time>
      </trkpt>
      <trkpt lat="45.31331" lon="3.87315">
        <ele>845</ele>
        <time>2021-04-15T08:17:11Z</time>
      </trkpt>
      <trkpt lat="45.31333" lon="3.87314">
        <ele>845</ele>
        <time>2021-04-15T08:17:13Z</time>
      </trkpt>
      <trkpt lat="45.31335" lon="3.87314">
        <ele>844</ele>
        <time>2021-04-15T08:17:15Z</time>
      </trkpt>
      <trkpt lat="45.31337" lon="3.87316">
        <ele>844</ele>
        <time>2021-04-15T08:17:18Z</time>
      </trkpt>
      <trkpt lat="45.31339" lon="3.87318">
        <ele>844</ele>
        <time>2021-04-15T08:17:20Z</time>
      </trkpt>
      <trkpt lat="45.31341" lon="3.87319">
        <ele>843</ele>
        <time>2021-04-15T08:17:22Z</time>
      </trkpt>
      <trkpt lat="45.31343" lon="3.87319">
        <ele>843</ele>
        <time>2021-04-15T08:17:24Z</time>
      </trkpt>
      <trkpt lat="45.31345" lon="3.87319">
        <ele>843</ele>
        <time>2021-04-15T08:17:27Z</time>
      </trkpt>
      <trkpt lat="45.31344" lon="3.8732">
        <ele>843</ele>
        <time>2021-04-15T08:17:32Z</time>
      </trkpt>
      <trkpt lat="45.31346" lon="3.87323">
        <ele>843</ele>
        <time>2021-04-15T08:17:35Z</time>
      </trkpt>
      <trkpt lat="45.31347" lon="3.87323">
        <ele>843</ele>
        <time>2021-04-15T08:17:36Z</time>
      </trkpt>
      <trkpt lat="45.3135" lon="3.87323">
        <ele>843</ele>
        <time>2021-04-15T08:17:38Z</time>
      </trkpt>
      <trkpt lat="45.31353" lon="3.87325">
        <ele>843</ele>
        <time>2021-04-15T08:17:40Z</time>
      </trkpt>
      <trkpt lat="45.31355" lon="3.87326">
        <ele>843</ele>
        <time>2021-04-15T08:17:41Z</time>
      </trkpt>
      <trkpt lat="45.31356" lon="3.87328">
        <ele>843</ele>
        <time>2021-04-15T08:17:43Z</time>
      </trkpt>
      <trkpt lat="45.31358" lon="3.87329">
        <ele>843</ele>
        <time>2021-04-15T08:17:45Z</time>
      </trkpt>
      <trkpt lat="45.3136" lon="3.87331">
        <ele>843</ele>
        <time>2021-04-15T08:17:46Z</time>
      </trkpt>
      <trkpt lat="45.31362" lon="3.87333">
        <ele>843</ele>
        <time>2021-04-15T08:17:47Z</time>
      </trkpt>
      <trkpt lat="45.31364" lon="3.87335">
        <ele>843</ele>
        <time>2021-04-15T08:17:48Z</time>
      </trkpt>
      <trkpt lat="45.31368" lon="3.87341">
        <ele>844</ele>
        <time>2021-04-15T08:17:49Z</time>
      </trkpt>
      <trkpt lat="45.3137" lon="3.87344">
        <ele>844</ele>
        <time>2021-04-15T08:17:51Z</time>
      </trkpt>
      <trkpt lat="45.31373" lon="3.87348">
        <ele>844</ele>
        <time>2021-04-15T08:17:52Z</time>
      </trkpt>
      <trkpt lat="45.31375" lon="3.87352">
        <ele>844</ele>
        <time>2021-04-15T08:17:53Z</time>
      </trkpt>
      <trkpt lat="45.31377" lon="3.87355">
        <ele>844</ele>
        <time>2021-04-15T08:17:54Z</time>
      </trkpt>
      <trkpt lat="45.31382" lon="3.8736">
        <ele>844</ele>
        <time>2021-04-15T08:17:55Z</time>
      </trkpt>
      <trkpt lat="45.31384" lon="3.87361">
        <ele>844</ele>
        <time>2021-04-15T08:17:57Z</time>
      </trkpt>
      <trkpt lat="45.31387" lon="3.87363">
        <ele>844</ele>
        <time>2021-04-15T08:17:58Z</time>
      </trkpt>
      <trkpt lat="45.3139" lon="3.87364">
        <ele>844</ele>
        <time>2021-04-15T08:17:59Z</time>
      </trkpt>
      <trkpt lat="45.31394" lon="3.87365">
        <ele>845</ele>
        <time>2021-04-15T08:18:00Z</time>
      </trkpt>
      <trkpt lat="45.31397" lon="3.87366">
        <ele>845</ele>
        <time>2021-04-15T08:18:01Z</time>
      </trkpt>
      <trkpt lat="45.314" lon="3.87366">
        <ele>846</ele>
        <time>2021-04-15T08:18:02Z</time>
      </trkpt>
      <trkpt lat="45.31403" lon="3.87368">
        <ele>846</ele>
        <time>2021-04-15T08:18:03Z</time>
      </trkpt>
      <trkpt lat="45.3141" lon="3.87371">
        <ele>846</ele>
        <time>2021-04-15T08:18:04Z</time>
      </trkpt>
      <trkpt lat="45.31413" lon="3.87373">
        <ele>847</ele>
        <time>2021-04-15T08:18:06Z</time>
      </trkpt>
      <trkpt lat="45.31416" lon="3.87375">
        <ele>847</ele>
        <time>2021-04-15T08:18:07Z</time>
      </trkpt>
      <trkpt lat="45.31419" lon="3.87377">
        <ele>847</ele>
        <time>2021-04-15T08:18:08Z</time>
      </trkpt>
      <trkpt lat="45.31423" lon="3.87378">
        <ele>848</ele>
        <time>2021-04-15T08:18:09Z</time>
      </trkpt>
      <trkpt lat="45.31426" lon="3.8738">
        <ele>848</ele>
        <time>2021-04-15T08:18:10Z</time>
      </trkpt>
      <trkpt lat="45.31428" lon="3.87382">
        <ele>848</ele>
        <time>2021-04-15T08:18:11Z</time>
      </trkpt>
      <trkpt lat="45.31431" lon="3.87385">
        <ele>848</ele>
        <time>2021-04-15T08:18:12Z</time>
      </trkpt>
      <trkpt lat="45.31434" lon="3.87387">
        <ele>849</ele>
        <time>2021-04-15T08:18:13Z</time>
      </trkpt>
      <trkpt lat="45.3144" lon="3.87394">
        <ele>849</ele>
        <time>2021-04-15T08:18:14Z</time>
      </trkpt>
      <trkpt lat="45.31443" lon="3.87398">
        <ele>849</ele>
        <time>2021-04-15T08:18:15Z</time>
      </trkpt>
      <trkpt lat="45.31447" lon="3.87403">
        <ele>849</ele>
        <time>2021-04-15T08:18:16Z</time>
      </trkpt>
      <trkpt lat="45.31451" lon="3.87408">
        <ele>850</ele>
        <time>2021-04-15T08:18:17Z</time>
      </trkpt>
      <trkpt lat="45.31455" lon="3.87413">
        <ele>850</ele>
        <time>2021-04-15T08:18:18Z</time>
      </trkpt>
      <trkpt lat="45.31459" lon="3.87418">
        <ele>850</ele>
        <time>2021-04-15T08:18:19Z</time>
      </trkpt>
      <trkpt lat="45.31464" lon="3.87423">
        <ele>850</ele>
        <time>2021-04-15T08:18:20Z</time>
      </trkpt>
      <trkpt lat="45.31469" lon="3.87427">
        <ele>850</ele>
        <time>2021-04-15T08:18:21Z</time>
      </trkpt>
      <trkpt lat="45.31474" lon="3.8743">
        <ele>850</ele>
        <time>2021-04-15T08:18:22Z</time>
      </trkpt>
      <trkpt lat="45.31479" lon="3.87433">
        <ele>850</ele>
        <time>2021-04-15T08:18:23Z</time>
      </trkpt>
      <trkpt lat="45.31484" lon="3.87435">
        <ele>850</ele>
        <time>2021-04-15T08:18:24Z</time>
      </trkpt>
      <trkpt lat="45.31489" lon="3.87437">
        <ele>851</ele>
        <time>2021-04-15T08:18:25Z</time>
      </trkpt>
      <trkpt lat="45.31494" lon="3.87439">
        <ele>851</ele>
        <time>2021-04-15T08:18:26Z</time>
      </trkpt>
      <trkpt lat="45.31498" lon="3.87441">
        <ele>851</ele>
        <time>2021-04-15T08:18:27Z</time>
      </trkpt>
      <trkpt lat="45.31503" lon="3.87442">
        <ele>851</ele>
        <time>2021-04-15T08:18:28Z</time>
      </trkpt>
      <trkpt lat="45.31508" lon="3.87443">
        <ele>851</ele>
        <time>2021-04-15T08:18:29Z</time>
      </trkpt>
      <trkpt lat="45.31512" lon="3.87443">
        <ele>852</ele>
        <time>2021-04-15T08:18:30Z</time>
      </trkpt>
      <trkpt lat="45.31517" lon="3.87444">
        <ele>852</ele>
        <time>2021-04-15T08:18:31Z</time>
      </trkpt>
      <trkpt lat="45.3152" lon="3.87445">
        <ele>852</ele>
        <time>2021-04-15T08:18:32Z</time>
      </trkpt>
      <trkpt lat="45.31524" lon="3.87446">
        <ele>852</ele>
        <time>2021-04-15T08:18:33Z</time>
      </trkpt>
      <trkpt lat="45.31528" lon="3.87446">
        <ele>852</ele>
        <time>2021-04-15T08:18:35Z</time>
      </trkpt>
      <trkpt lat="45.31532" lon="3.87446">
        <ele>852</ele>
        <time>2021-04-15T08:18:36Z</time>
      </trkpt>
      <trkpt lat="45.31536" lon="3.87447">
        <ele>853</ele>
        <time>2021-04-15T08:18:37Z</time>
      </trkpt>
      <trkpt lat="45.31541" lon="3.87447">
        <ele>853</ele>
        <time>2021-04-15T08:18:38Z</time>
      </trkpt>
      <trkpt lat="45.3155" lon="3.87447">
        <ele>853</ele>
        <time>2021-04-15T08:18:39Z</time>
      </trkpt>
      <trkpt lat="45.3156" lon="3.87447">
        <ele>853</ele>
        <time>2021-04-15T08:18:42Z</time>
      </trkpt>
      <trkpt lat="45.31564" lon="3.87448">
        <ele>853</ele>
        <time>2021-04-15T08:18:43Z</time>
      </trkpt>
      <trkpt lat="45.31568" lon="3.87449">
        <ele>853</ele>
        <time>2021-04-15T08:18:44Z</time>
      </trkpt>
      <trkpt lat="45.31577" lon="3.8745">
        <ele>854</ele>
        <time>2021-04-15T08:18:46Z</time>
      </trkpt>
      <trkpt lat="45.31585" lon="3.87454">
        <ele>854</ele>
        <time>2021-04-15T08:18:48Z</time>
      </trkpt>
      <trkpt lat="45.31599" lon="3.87459">
        <ele>854</ele>
        <time>2021-04-15T08:18:51Z</time>
      </trkpt>
      <trkpt lat="45.31608" lon="3.87462">
        <ele>854</ele>
        <time>2021-04-15T08:18:52Z</time>
      </trkpt>
      <trkpt lat="45.31617" lon="3.87464">
        <ele>854</ele>
        <time>2021-04-15T08:18:54Z</time>
      </trkpt>
      <trkpt lat="45.31627" lon="3.87467">
        <ele>855</ele>
        <time>2021-04-15T08:18:56Z</time>
      </trkpt>
      <trkpt lat="45.31637" lon="3.87468">
        <ele>855</ele>
        <time>2021-04-15T08:18:58Z</time>
      </trkpt>
      <trkpt lat="45.31643" lon="3.87468">
        <ele>855</ele>
        <time>2021-04-15T08:18:59Z</time>
      </trkpt>
      <trkpt lat="45.31649" lon="3.8747">
        <ele>855</ele>
        <time>2021-04-15T08:19:00Z</time>
      </trkpt>
      <trkpt lat="45.31654" lon="3.8747">
        <ele>855</ele>
        <time>2021-04-15T08:19:01Z</time>
      </trkpt>
      <trkpt lat="45.3166" lon="3.87471">
        <ele>855</ele>
        <time>2021-04-15T08:19:02Z</time>
      </trkpt>
      <trkpt lat="45.31665" lon="3.87473">
        <ele>855</ele>
        <time>2021-04-15T08:19:03Z</time>
      </trkpt>
      <trkpt lat="45.31671" lon="3.87475">
        <ele>855</ele>
        <time>2021-04-15T08:19:04Z</time>
      </trkpt>
      <trkpt lat="45.31676" lon="3.87478">
        <ele>855</ele>
        <time>2021-04-15T08:19:05Z</time>
      </trkpt>
      <trkpt lat="45.31682" lon="3.87481">
        <ele>855</ele>
        <time>2021-04-15T08:19:06Z</time>
      </trkpt>
      <trkpt lat="45.31687" lon="3.87483">
        <ele>855</ele>
        <time>2021-04-15T08:19:07Z</time>
      </trkpt>
      <trkpt lat="45.31692" lon="3.87486">
        <ele>855</ele>
        <time>2021-04-15T08:19:08Z</time>
      </trkpt>
      <trkpt lat="45.31697" lon="3.8749">
        <ele>855</ele>
        <time>2021-04-15T08:19:09Z</time>
      </trkpt>
      <trkpt lat="45.31703" lon="3.87495">
        <ele>855</ele>
        <time>2021-04-15T08:19:10Z</time>
      </trkpt>
      <trkpt lat="45.31708" lon="3.87499">
        <ele>855</ele>
        <time>2021-04-15T08:19:11Z</time>
      </trkpt>
      <trkpt lat="45.31713" lon="3.87503">
        <ele>855</ele>
        <time>2021-04-15T08:19:13Z</time>
      </trkpt>
      <trkpt lat="45.31717" lon="3.87507">
        <ele>855</ele>
        <time>2021-04-15T08:19:14Z</time>
      </trkpt>
      <trkpt lat="45.31722" lon="3.8751">
        <ele>855</ele>
        <time>2021-04-15T08:19:15Z</time>
      </trkpt>
      <trkpt lat="45.31726" lon="3.87514">
        <ele>855</ele>
        <time>2021-04-15T08:19:16Z</time>
      </trkpt>
      <trkpt lat="45.31731" lon="3.87517">
        <ele>856</ele>
        <time>2021-04-15T08:19:17Z</time>
      </trkpt>
      <trkpt lat="45.3174" lon="3.87523">
        <ele>856</ele>
        <time>2021-04-15T08:19:18Z</time>
      </trkpt>
      <trkpt lat="45.31744" lon="3.87526">
        <ele>856</ele>
        <time>2021-04-15T08:19:20Z</time>
      </trkpt>
      <trkpt lat="45.31754" lon="3.87531">
        <ele>856</ele>
        <time>2021-04-15T08:19:21Z</time>
      </trkpt>
      <trkpt lat="45.31758" lon="3.87534">
        <ele>856</ele>
        <time>2021-04-15T08:19:23Z</time>
      </trkpt>
      <trkpt lat="45.31763" lon="3.87536">
        <ele>855</ele>
        <time>2021-04-15T08:19:24Z</time>
      </trkpt>
      <trkpt lat="45.31768" lon="3.87537">
        <ele>855</ele>
        <time>2021-04-15T08:19:25Z</time>
      </trkpt>
      <trkpt lat="45.31777" lon="3.8754">
        <ele>855</ele>
        <time>2021-04-15T08:19:26Z</time>
      </trkpt>
      <trkpt lat="45.31786" lon="3.87543">
        <ele>855</ele>
        <time>2021-04-15T08:19:28Z</time>
      </trkpt>
      <trkpt lat="45.31795" lon="3.87547">
        <ele>855</ele>
        <time>2021-04-15T08:19:30Z</time>
      </trkpt>
      <trkpt lat="45.31801" lon="3.87548">
        <ele>854</ele>
        <time>2021-04-15T08:19:32Z</time>
      </trkpt>
      <trkpt lat="45.31807" lon="3.87548">
        <ele>854</ele>
        <time>2021-04-15T08:19:33Z</time>
      </trkpt>
      <trkpt lat="45.31813" lon="3.87548">
        <ele>854</ele>
        <time>2021-04-15T08:19:34Z</time>
      </trkpt>
      <trkpt lat="45.31818" lon="3.87548">
        <ele>854</ele>
        <time>2021-04-15T08:19:35Z</time>
      </trkpt>
      <trkpt lat="45.31822" lon="3.87547">
        <ele>854</ele>
        <time>2021-04-15T08:19:36Z</time>
      </trkpt>
      <trkpt lat="45.31831" lon="3.87547">
        <ele>854</ele>
        <time>2021-04-15T08:19:37Z</time>
      </trkpt>
      <trkpt lat="45.31835" lon="3.87547">
        <ele>854</ele>
        <time>2021-04-15T08:19:38Z</time>
      </trkpt>
      <trkpt lat="45.31839" lon="3.87548">
        <ele>854</ele>
        <time>2021-04-15T08:19:40Z</time>
      </trkpt>
      <trkpt lat="45.31843" lon="3.87549">
        <ele>853</ele>
        <time>2021-04-15T08:19:41Z</time>
      </trkpt>
      <trkpt lat="45.31847" lon="3.8755">
        <ele>853</ele>
        <time>2021-04-15T08:19:42Z</time>
      </trkpt>
      <trkpt lat="45.31851" lon="3.8755">
        <ele>853</ele>
        <time>2021-04-15T08:19:43Z</time>
      </trkpt>
      <trkpt lat="45.31856" lon="3.8755">
        <ele>853</ele>
        <time>2021-04-15T08:19:44Z</time>
      </trkpt>
      <trkpt lat="45.3186" lon="3.87551">
        <ele>853</ele>
        <time>2021-04-15T08:19:45Z</time>
      </trkpt>
      <trkpt lat="45.31866" lon="3.87552">
        <ele>852</ele>
        <time>2021-04-15T08:19:46Z</time>
      </trkpt>
      <trkpt lat="45.3187" lon="3.87553">
        <ele>852</ele>
        <time>2021-04-15T08:19:47Z</time>
      </trkpt>
      <trkpt lat="45.31875" lon="3.87553">
        <ele>852</ele>
        <time>2021-04-15T08:19:48Z</time>
      </trkpt>
      <trkpt lat="45.31886" lon="3.87554">
        <ele>852</ele>
        <time>2021-04-15T08:19:49Z</time>
      </trkpt>
      <trkpt lat="45.31891" lon="3.87555">
        <ele>852</ele>
        <time>2021-04-15T08:19:51Z</time>
      </trkpt>
      <trkpt lat="45.31896" lon="3.87555">
        <ele>852</ele>
        <time>2021-04-15T08:19:52Z</time>
      </trkpt>
      <trkpt lat="45.31902" lon="3.87556">
        <ele>852</ele>
        <time>2021-04-15T08:19:53Z</time>
      </trkpt>
      <trkpt lat="45.31907" lon="3.87556">
        <ele>851</ele>
        <time>2021-04-15T08:19:54Z</time>
      </trkpt>
      <trkpt lat="45.31913" lon="3.87555">
        <ele>851</ele>
        <time>2021-04-15T08:19:55Z</time>
      </trkpt>
      <trkpt lat="45.31918" lon="3.87554">
        <ele>851</ele>
        <time>2021-04-15T08:19:56Z</time>
      </trkpt>
      <trkpt lat="45.31924" lon="3.87553">
        <ele>850</ele>
        <time>2021-04-15T08:19:57Z</time>
      </trkpt>
      <trkpt lat="45.31935" lon="3.87551">
        <ele>849</ele>
        <time>2021-04-15T08:19:58Z</time>
      </trkpt>
      <trkpt lat="45.31941" lon="3.87551">
        <ele>849</ele>
        <time>2021-04-15T08:19:59Z</time>
      </trkpt>
      <trkpt lat="45.31947" lon="3.87551">
        <ele>849</ele>
        <time>2021-04-15T08:20:00Z</time>
      </trkpt>
      <trkpt lat="45.31953" lon="3.87552">
        <ele>848</ele>
        <time>2021-04-15T08:20:01Z</time>
      </trkpt>
      <trkpt lat="45.3196" lon="3.87553">
        <ele>848</ele>
        <time>2021-04-15T08:20:02Z</time>
      </trkpt>
      <trkpt lat="45.31966" lon="3.87554">
        <ele>848</ele>
        <time>2021-04-15T08:20:03Z</time>
      </trkpt>
      <trkpt lat="45.31971" lon="3.87555">
        <ele>847</ele>
        <time>2021-04-15T08:20:04Z</time>
      </trkpt>
      <trkpt lat="45.31978" lon="3.87556">
        <ele>847</ele>
        <time>2021-04-15T08:20:05Z</time>
      </trkpt>
      <trkpt lat="45.31984" lon="3.87558">
        <ele>847</ele>
        <time>2021-04-15T08:20:06Z</time>
      </trkpt>
      <trkpt lat="45.3199" lon="3.87559">
        <ele>847</ele>
        <time>2021-04-15T08:20:07Z</time>
      </trkpt>
      <trkpt lat="45.31996" lon="3.8756">
        <ele>847</ele>
        <time>2021-04-15T08:20:08Z</time>
      </trkpt>
      <trkpt lat="45.32002" lon="3.87561">
        <ele>847</ele>
        <time>2021-04-15T08:20:09Z</time>
      </trkpt>
      <trkpt lat="45.32007" lon="3.87561">
        <ele>847</ele>
        <time>2021-04-15T08:20:10Z</time>
      </trkpt>
      <trkpt lat="45.32013" lon="3.87562">
        <ele>847</ele>
        <time>2021-04-15T08:20:11Z</time>
      </trkpt>
      <trkpt lat="45.32019" lon="3.87564">
        <ele>847</ele>
        <time>2021-04-15T08:20:12Z</time>
      </trkpt>
      <trkpt lat="45.32024" lon="3.87565">
        <ele>846</ele>
        <time>2021-04-15T08:20:13Z</time>
      </trkpt>
      <trkpt lat="45.32029" lon="3.87567">
        <ele>846</ele>
        <time>2021-04-15T08:20:14Z</time>
      </trkpt>
      <trkpt lat="45.32032" lon="3.87568">
        <ele>846</ele>
        <time>2021-04-15T08:20:15Z</time>
      </trkpt>
      <trkpt lat="45.32034" lon="3.87568">
        <ele>846</ele>
        <time>2021-04-15T08:20:16Z</time>
      </trkpt>
      <trkpt lat="45.32036" lon="3.87569">
        <ele>846</ele>
        <time>2021-04-15T08:20:17Z</time>
      </trkpt>
      <trkpt lat="45.32038" lon="3.8757">
        <ele>845</ele>
        <time>2021-04-15T08:20:18Z</time>
      </trkpt>
      <trkpt lat="45.32041" lon="3.87572">
        <ele>845</ele>
        <time>2021-04-15T08:20:19Z</time>
      </trkpt>
      <trkpt lat="45.32043" lon="3.87574">
        <ele>845</ele>
        <time>2021-04-15T08:20:20Z</time>
      </trkpt>
      <trkpt lat="45.32045" lon="3.87575">
        <ele>845</ele>
        <time>2021-04-15T08:20:21Z</time>
      </trkpt>
      <trkpt lat="45.32048" lon="3.87576">
        <ele>845</ele>
        <time>2021-04-15T08:20:22Z</time>
      </trkpt>
      <trkpt lat="45.3205" lon="3.87578">
        <ele>845</ele>
        <time>2021-04-15T08:20:23Z</time>
      </trkpt>
      <trkpt lat="45.32053" lon="3.8758">
        <ele>845</ele>
        <time>2021-04-15T08:20:24Z</time>
      </trkpt>
      <trkpt lat="45.32055" lon="3.87583">
        <ele>845</ele>
        <time>2021-04-15T08:20:25Z</time>
      </trkpt>
      <trkpt lat="45.32058" lon="3.87586">
        <ele>845</ele>
        <time>2021-04-15T08:20:26Z</time>
      </trkpt>
      <trkpt lat="45.32062" lon="3.87589">
        <ele>845</ele>
        <time>2021-04-15T08:20:27Z</time>
      </trkpt>
      <trkpt lat="45.32065" lon="3.87593">
        <ele>845</ele>
        <time>2021-04-15T08:20:29Z</time>
      </trkpt>
      <trkpt lat="45.32069" lon="3.87595">
        <ele>845</ele>
        <time>2021-04-15T08:20:30Z</time>
      </trkpt>
      <trkpt lat="45.32076" lon="3.87601">
        <ele>845</ele>
        <time>2021-04-15T08:20:31Z</time>
      </trkpt>
      <trkpt lat="45.3208" lon="3.87602">
        <ele>846</ele>
        <time>2021-04-15T08:20:33Z</time>
      </trkpt>
      <trkpt lat="45.32086" lon="3.87606">
        <ele>846</ele>
        <time>2021-04-15T08:20:34Z</time>
      </trkpt>
      <trkpt lat="45.32089" lon="3.87609">
        <ele>846</ele>
        <time>2021-04-15T08:20:36Z</time>
      </trkpt>
      <trkpt lat="45.32093" lon="3.87611">
        <ele>846</ele>
        <time>2021-04-15T08:20:37Z</time>
      </trkpt>
      <trkpt lat="45.32096" lon="3.87613">
        <ele>846</ele>
        <time>2021-04-15T08:20:38Z</time>
      </trkpt>
      <trkpt lat="45.32099" lon="3.87615">
        <ele>846</ele>
        <time>2021-04-15T08:20:39Z</time>
      </trkpt>
      <trkpt lat="45.32102" lon="3.87617">
        <ele>846</ele>
        <time>2021-04-15T08:20:40Z</time>
      </trkpt>
      <trkpt lat="45.32105" lon="3.87619">
        <ele>846</ele>
        <time>2021-04-15T08:20:41Z</time>
      </trkpt>
      <trkpt lat="45.32108" lon="3.87622">
        <ele>847</ele>
        <time>2021-04-15T08:20:42Z</time>
      </trkpt>
      <trkpt lat="45.32111" lon="3.87624">
        <ele>847</ele>
        <time>2021-04-15T08:20:43Z</time>
      </trkpt>
      <trkpt lat="45.32115" lon="3.87627">
        <ele>847</ele>
        <time>2021-04-15T08:20:44Z</time>
      </trkpt>
      <trkpt lat="45.32122" lon="3.8763">
        <ele>848</ele>
        <time>2021-04-15T08:20:45Z</time>
      </trkpt>
      <trkpt lat="45.32126" lon="3.87633">
        <ele>848</ele>
        <time>2021-04-15T08:20:46Z</time>
      </trkpt>
      <trkpt lat="45.32129" lon="3.87635">
        <ele>848</ele>
        <time>2021-04-15T08:20:47Z</time>
      </trkpt>
      <trkpt lat="45.32133" lon="3.87637">
        <ele>848</ele>
        <time>2021-04-15T08:20:48Z</time>
      </trkpt>
      <trkpt lat="45.32136" lon="3.87639">
        <ele>848</ele>
        <time>2021-04-15T08:20:49Z</time>
      </trkpt>
      <trkpt lat="45.3214" lon="3.87642">
        <ele>848</ele>
        <time>2021-04-15T08:20:50Z</time>
      </trkpt>
      <trkpt lat="45.32144" lon="3.87643">
        <ele>848</ele>
        <time>2021-04-15T08:20:51Z</time>
      </trkpt>
      <trkpt lat="45.32148" lon="3.87645">
        <ele>849</ele>
        <time>2021-04-15T08:20:52Z</time>
      </trkpt>
      <trkpt lat="45.32151" lon="3.87646">
        <ele>849</ele>
        <time>2021-04-15T08:20:53Z</time>
      </trkpt>
      <trkpt lat="45.32155" lon="3.87647">
        <ele>849</ele>
        <time>2021-04-15T08:20:54Z</time>
      </trkpt>
      <trkpt lat="45.32159" lon="3.87648">
        <ele>849</ele>
        <time>2021-04-15T08:20:55Z</time>
      </trkpt>
      <trkpt lat="45.32164" lon="3.87649">
        <ele>849</ele>
        <time>2021-04-15T08:20:56Z</time>
      </trkpt>
      <trkpt lat="45.32168" lon="3.87651">
        <ele>849</ele>
        <time>2021-04-15T08:20:57Z</time>
      </trkpt>
      <trkpt lat="45.32172" lon="3.87653">
        <ele>850</ele>
        <time>2021-04-15T08:20:58Z</time>
      </trkpt>
      <trkpt lat="45.32176" lon="3.87656">
        <ele>850</ele>
        <time>2021-04-15T08:20:59Z</time>
      </trkpt>
      <trkpt lat="45.32179" lon="3.87659">
        <ele>850</ele>
        <time>2021-04-15T08:21:00Z</time>
      </trkpt>
      <trkpt lat="45.32183" lon="3.87662">
        <ele>851</ele>
        <time>2021-04-15T08:21:01Z</time>
      </trkpt>
      <trkpt lat="45.32187" lon="3.87665">
        <ele>851</ele>
        <time>2021-04-15T08:21:02Z</time>
      </trkpt>
      <trkpt lat="45.3219" lon="3.87668">
        <ele>851</ele>
        <time>2021-04-15T08:21:03Z</time>
      </trkpt>
      <trkpt lat="45.32193" lon="3.87671">
        <ele>851</ele>
        <time>2021-04-15T08:21:04Z</time>
      </trkpt>
      <trkpt lat="45.32197" lon="3.87674">
        <ele>851</ele>
        <time>2021-04-15T08:21:05Z</time>
      </trkpt>
      <trkpt lat="45.32201" lon="3.87678">
        <ele>852</ele>
        <time>2021-04-15T08:21:06Z</time>
      </trkpt>
      <trkpt lat="45.32205" lon="3.8768">
        <ele>852</ele>
        <time>2021-04-15T08:21:07Z</time>
      </trkpt>
      <trkpt lat="45.32209" lon="3.87682">
        <ele>852</ele>
        <time>2021-04-15T08:21:08Z</time>
      </trkpt>
      <trkpt lat="45.32213" lon="3.87684">
        <ele>852</ele>
        <time>2021-04-15T08:21:09Z</time>
      </trkpt>
      <trkpt lat="45.32217" lon="3.87687">
        <ele>852</ele>
        <time>2021-04-15T08:21:10Z</time>
      </trkpt>
      <trkpt lat="45.32222" lon="3.87689">
        <ele>852</ele>
        <time>2021-04-15T08:21:11Z</time>
      </trkpt>
      <trkpt lat="45.32226" lon="3.87691">
        <ele>853</ele>
        <time>2021-04-15T08:21:12Z</time>
      </trkpt>
      <trkpt lat="45.32231" lon="3.87693">
        <ele>853</ele>
        <time>2021-04-15T08:21:13Z</time>
      </trkpt>
      <trkpt lat="45.32235" lon="3.87696">
        <ele>853</ele>
        <time>2021-04-15T08:21:14Z</time>
      </trkpt>
      <trkpt lat="45.3224" lon="3.87698">
        <ele>853</ele>
        <time>2021-04-15T08:21:15Z</time>
      </trkpt>
      <trkpt lat="45.32244" lon="3.877">
        <ele>853</ele>
        <time>2021-04-15T08:21:16Z</time>
      </trkpt>
      <trkpt lat="45.32249" lon="3.87703">
        <ele>853</ele>
        <time>2021-04-15T08:21:17Z</time>
      </trkpt>
      <trkpt lat="45.32253" lon="3.87705">
        <ele>853</ele>
        <time>2021-04-15T08:21:18Z</time>
      </trkpt>
      <trkpt lat="45.32258" lon="3.87707">
        <ele>854</ele>
        <time>2021-04-15T08:21:19Z</time>
      </trkpt>
      <trkpt lat="45.32262" lon="3.87708">
        <ele>854</ele>
        <time>2021-04-15T08:21:20Z</time>
      </trkpt>
      <trkpt lat="45.32267" lon="3.8771">
        <ele>854</ele>
        <time>2021-04-15T08:21:21Z</time>
      </trkpt>
      <trkpt lat="45.32272" lon="3.8771">
        <ele>854</ele>
        <time>2021-04-15T08:21:22Z</time>
      </trkpt>
      <trkpt lat="45.32276" lon="3.8771">
        <ele>854</ele>
        <time>2021-04-15T08:21:23Z</time>
      </trkpt>
      <trkpt lat="45.32281" lon="3.8771">
        <ele>854</ele>
        <time>2021-04-15T08:21:24Z</time>
      </trkpt>
      <trkpt lat="45.32286" lon="3.8771">
        <ele>855</ele>
        <time>2021-04-15T08:21:26Z</time>
      </trkpt>
      <trkpt lat="45.32291" lon="3.87709">
        <ele>855</ele>
        <time>2021-04-15T08:21:27Z</time>
      </trkpt>
      <trkpt lat="45.32295" lon="3.87709">
        <ele>856</ele>
        <time>2021-04-15T08:21:28Z</time>
      </trkpt>
      <trkpt lat="45.32299" lon="3.87708">
        <ele>856</ele>
        <time>2021-04-15T08:21:29Z</time>
      </trkpt>
      <trkpt lat="45.32309" lon="3.87708">
        <ele>856</ele>
        <time>2021-04-15T08:21:30Z</time>
      </trkpt>
      <trkpt lat="45.32314" lon="3.87708">
        <ele>857</ele>
        <time>2021-04-15T08:21:32Z</time>
      </trkpt>
      <trkpt lat="45.32319" lon="3.87708">
        <ele>857</ele>
        <time>2021-04-15T08:21:33Z</time>
      </trkpt>
      <trkpt lat="45.32324" lon="3.87708">
        <ele>857</ele>
        <time>2021-04-15T08:21:34Z</time>
      </trkpt>
      <trkpt lat="45.32328" lon="3.87709">
        <ele>857</ele>
        <time>2021-04-15T08:21:35Z</time>
      </trkpt>
      <trkpt lat="45.32333" lon="3.8771">
        <ele>858</ele>
        <time>2021-04-15T08:21:36Z</time>
      </trkpt>
      <trkpt lat="45.32337" lon="3.87712">
        <ele>858</ele>
        <time>2021-04-15T08:21:37Z</time>
      </trkpt>
      <trkpt lat="45.32342" lon="3.87714">
        <ele>858</ele>
        <time>2021-04-15T08:21:38Z</time>
      </trkpt>
      <trkpt lat="45.32346" lon="3.87716">
        <ele>858</ele>
        <time>2021-04-15T08:21:39Z</time>
      </trkpt>
      <trkpt lat="45.32351" lon="3.87719">
        <ele>858</ele>
        <time>2021-04-15T08:21:40Z</time>
      </trkpt>
      <trkpt lat="45.3236" lon="3.87726">
        <ele>859</ele>
        <time>2021-04-15T08:21:41Z</time>
      </trkpt>
      <trkpt lat="45.32367" lon="3.87734">
        <ele>860</ele>
        <time>2021-04-15T08:21:43Z</time>
      </trkpt>
      <trkpt lat="45.32371" lon="3.87738">
        <ele>861</ele>
        <time>2021-04-15T08:21:45Z</time>
      </trkpt>
      <trkpt lat="45.32374" lon="3.87742">
        <ele>861</ele>
        <time>2021-04-15T08:21:46Z</time>
      </trkpt>
      <trkpt lat="45.32377" lon="3.87746">
        <ele>862</ele>
        <time>2021-04-15T08:21:47Z</time>
      </trkpt>
      <trkpt lat="45.3238" lon="3.8775">
        <ele>862</ele>
        <time>2021-04-15T08:21:48Z</time>
      </trkpt>
      <trkpt lat="45.32383" lon="3.87754">
        <ele>863</ele>
        <time>2021-04-15T08:21:49Z</time>
      </trkpt>
      <trkpt lat="45.32386" lon="3.87757">
        <ele>863</ele>
        <time>2021-04-15T08:21:50Z</time>
      </trkpt>
      <trkpt lat="45.3239" lon="3.8776">
        <ele>863</ele>
        <time>2021-04-15T08:21:51Z</time>
      </trkpt>
      <trkpt lat="45.32398" lon="3.87765">
        <ele>864</ele>
        <time>2021-04-15T08:21:52Z</time>
      </trkpt>
      <trkpt lat="45.32402" lon="3.87768">
        <ele>864</ele>
        <time>2021-04-15T08:21:54Z</time>
      </trkpt>
      <trkpt lat="45.32406" lon="3.87771">
        <ele>865</ele>
        <time>2021-04-15T08:21:55Z</time>
      </trkpt>
      <trkpt lat="45.3241" lon="3.87774">
        <ele>865</ele>
        <time>2021-04-15T08:21:56Z</time>
      </trkpt>
      <trkpt lat="45.32414" lon="3.87777">
        <ele>865</ele>
        <time>2021-04-15T08:21:57Z</time>
      </trkpt>
      <trkpt lat="45.32418" lon="3.8778">
        <ele>866</ele>
        <time>2021-04-15T08:21:58Z</time>
      </trkpt>
      <trkpt lat="45.32422" lon="3.87783">
        <ele>866</ele>
        <time>2021-04-15T08:21:59Z</time>
      </trkpt>
      <trkpt lat="45.32426" lon="3.87786">
        <ele>866</ele>
        <time>2021-04-15T08:22:00Z</time>
      </trkpt>
      <trkpt lat="45.32434" lon="3.87792">
        <ele>866</ele>
        <time>2021-04-15T08:22:01Z</time>
      </trkpt>
      <trkpt lat="45.32438" lon="3.87795">
        <ele>867</ele>
        <time>2021-04-15T08:22:02Z</time>
      </trkpt>
      <trkpt lat="45.32442" lon="3.87798">
        <ele>867</ele>
        <time>2021-04-15T08:22:03Z</time>
      </trkpt>
      <trkpt lat="45.32447" lon="3.87801">
        <ele>867</ele>
        <time>2021-04-15T08:22:04Z</time>
      </trkpt>
      <trkpt lat="45.32451" lon="3.87804">
        <ele>868</ele>
        <time>2021-04-15T08:22:05Z</time>
      </trkpt>
      <trkpt lat="45.32455" lon="3.87808">
        <ele>868</ele>
        <time>2021-04-15T08:22:06Z</time>
      </trkpt>
      <trkpt lat="45.32458" lon="3.87811">
        <ele>868</ele>
        <time>2021-04-15T08:22:07Z</time>
      </trkpt>
      <trkpt lat="45.32462" lon="3.87814">
        <ele>868</ele>
        <time>2021-04-15T08:22:08Z</time>
      </trkpt>
      <trkpt lat="45.32466" lon="3.87817">
        <ele>869</ele>
        <time>2021-04-15T08:22:09Z</time>
      </trkpt>
      <trkpt lat="45.3247" lon="3.8782">
        <ele>869</ele>
        <time>2021-04-15T08:22:10Z</time>
      </trkpt>
      <trkpt lat="45.32474" lon="3.87823">
        <ele>869</ele>
        <time>2021-04-15T08:22:11Z</time>
      </trkpt>
      <trkpt lat="45.32478" lon="3.87825">
        <ele>869</ele>
        <time>2021-04-15T08:22:12Z</time>
      </trkpt>
      <trkpt lat="45.32482" lon="3.87828">
        <ele>869</ele>
        <time>2021-04-15T08:22:13Z</time>
      </trkpt>
      <trkpt lat="45.32486" lon="3.87831">
        <ele>870</ele>
        <time>2021-04-15T08:22:14Z</time>
      </trkpt>
      <trkpt lat="45.32489" lon="3.87834">
        <ele>870</ele>
        <time>2021-04-15T08:22:15Z</time>
      </trkpt>
      <trkpt lat="45.32493" lon="3.87837">
        <ele>870</ele>
        <time>2021-04-15T08:22:16Z</time>
      </trkpt>
      <trkpt lat="45.32496" lon="3.8784">
        <ele>870</ele>
        <time>2021-04-15T08:22:17Z</time>
      </trkpt>
      <trkpt lat="45.325" lon="3.87843">
        <ele>870</ele>
        <time>2021-04-15T08:22:18Z</time>
      </trkpt>
      <trkpt lat="45.32504" lon="3.87847">
        <ele>871</ele>
        <time>2021-04-15T08:22:19Z</time>
      </trkpt>
      <trkpt lat="45.32508" lon="3.8785">
        <ele>871</ele>
        <time>2021-04-15T08:22:20Z</time>
      </trkpt>
      <trkpt lat="45.32512" lon="3.87853">
        <ele>871</ele>
        <time>2021-04-15T08:22:21Z</time>
      </trkpt>
      <trkpt lat="45.32517" lon="3.87856">
        <ele>871</ele>
        <time>2021-04-15T08:22:23Z</time>
      </trkpt>
      <trkpt lat="45.32521" lon="3.87858">
        <ele>872</ele>
        <time>2021-04-15T08:22:24Z</time>
      </trkpt>
      <trkpt lat="45.3253" lon="3.87863">
        <ele>872</ele>
        <time>2021-04-15T08:22:25Z</time>
      </trkpt>
      <trkpt lat="45.32535" lon="3.87866">
        <ele>872</ele>
        <time>2021-04-15T08:22:27Z</time>
      </trkpt>
      <trkpt lat="45.32539" lon="3.87868">
        <ele>873</ele>
        <time>2021-04-15T08:22:28Z</time>
      </trkpt>
      <trkpt lat="45.32544" lon="3.8787">
        <ele>873</ele>
        <time>2021-04-15T08:22:29Z</time>
      </trkpt>
      <trkpt lat="45.32549" lon="3.87872">
        <ele>873</ele>
        <time>2021-04-15T08:22:30Z</time>
      </trkpt>
      <trkpt lat="45.32554" lon="3.87874">
        <ele>874</ele>
        <time>2021-04-15T08:22:31Z</time>
      </trkpt>
      <trkpt lat="45.32559" lon="3.87876">
        <ele>874</ele>
        <time>2021-04-15T08:22:32Z</time>
      </trkpt>
      <trkpt lat="45.32564" lon="3.87877">
        <ele>874</ele>
        <time>2021-04-15T08:22:33Z</time>
      </trkpt>
      <trkpt lat="45.32569" lon="3.87879">
        <ele>874</ele>
        <time>2021-04-15T08:22:34Z</time>
      </trkpt>
      <trkpt lat="45.32579" lon="3.87881">
        <ele>874</ele>
        <time>2021-04-15T08:22:35Z</time>
      </trkpt>
      <trkpt lat="45.32584" lon="3.87882">
        <ele>874</ele>
        <time>2021-04-15T08:22:36Z</time>
      </trkpt>
      <trkpt lat="45.3259" lon="3.87883">
        <ele>874</ele>
        <time>2021-04-15T08:22:37Z</time>
      </trkpt>
      <trkpt lat="45.32595" lon="3.87884">
        <ele>875</ele>
        <time>2021-04-15T08:22:38Z</time>
      </trkpt>
      <trkpt lat="45.326" lon="3.87886">
        <ele>875</ele>
        <time>2021-04-15T08:22:39Z</time>
      </trkpt>
      <trkpt lat="45.32605" lon="3.87887">
        <ele>875</ele>
        <time>2021-04-15T08:22:40Z</time>
      </trkpt>
      <trkpt lat="45.3261" lon="3.87889">
        <ele>875</ele>
        <time>2021-04-15T08:22:42Z</time>
      </trkpt>
      <trkpt lat="45.32616" lon="3.87891">
        <ele>875</ele>
        <time>2021-04-15T08:22:43Z</time>
      </trkpt>
      <trkpt lat="45.32621" lon="3.87893">
        <ele>875</ele>
        <time>2021-04-15T08:22:44Z</time>
      </trkpt>
      <trkpt lat="45.32632" lon="3.87896">
        <ele>876</ele>
        <time>2021-04-15T08:22:45Z</time>
      </trkpt>
      <trkpt lat="45.32637" lon="3.87898">
        <ele>876</ele>
        <time>2021-04-15T08:22:47Z</time>
      </trkpt>
      <trkpt lat="45.32648" lon="3.87902">
        <ele>876</ele>
        <time>2021-04-15T08:22:48Z</time>
      </trkpt>
      <trkpt lat="45.32654" lon="3.87903">
        <ele>876</ele>
        <time>2021-04-15T08:22:50Z</time>
      </trkpt>
      <trkpt lat="45.3266" lon="3.87905">
        <ele>876</ele>
        <time>2021-04-15T08:22:51Z</time>
      </trkpt>
      <trkpt lat="45.32665" lon="3.87907">
        <ele>876</ele>
        <time>2021-04-15T08:22:52Z</time>
      </trkpt>
      <trkpt lat="45.32677" lon="3.87908">
        <ele>875</ele>
        <time>2021-04-15T08:22:53Z</time>
      </trkpt>
      <trkpt lat="45.32683" lon="3.87907">
        <ele>875</ele>
        <time>2021-04-15T08:22:55Z</time>
      </trkpt>
      <trkpt lat="45.32694" lon="3.87905">
        <ele>875</ele>
        <time>2021-04-15T08:22:56Z</time>
      </trkpt>
      <trkpt lat="45.32699" lon="3.87904">
        <ele>875</ele>
        <time>2021-04-15T08:22:58Z</time>
      </trkpt>
      <trkpt lat="45.32708" lon="3.87906">
        <ele>875</ele>
        <time>2021-04-15T08:22:59Z</time>
      </trkpt>
      <trkpt lat="45.32713" lon="3.87908">
        <ele>875</ele>
        <time>2021-04-15T08:23:00Z</time>
      </trkpt>
      <trkpt lat="45.32717" lon="3.87911">
        <ele>875</ele>
        <time>2021-04-15T08:23:01Z</time>
      </trkpt>
      <trkpt lat="45.32721" lon="3.87914">
        <ele>875</ele>
        <time>2021-04-15T08:23:02Z</time>
      </trkpt>
      <trkpt lat="45.32726" lon="3.87917">
        <ele>875</ele>
        <time>2021-04-15T08:23:03Z</time>
      </trkpt>
      <trkpt lat="45.3273" lon="3.87921">
        <ele>875</ele>
        <time>2021-04-15T08:23:04Z</time>
      </trkpt>
      <trkpt lat="45.32734" lon="3.87924">
        <ele>876</ele>
        <time>2021-04-15T08:23:05Z</time>
      </trkpt>
      <trkpt lat="45.32737" lon="3.87928">
        <ele>876</ele>
        <time>2021-04-15T08:23:06Z</time>
      </trkpt>
      <trkpt lat="45.32741" lon="3.87932">
        <ele>876</ele>
        <time>2021-04-15T08:23:07Z</time>
      </trkpt>
      <trkpt lat="45.32744" lon="3.87936">
        <ele>876</ele>
        <time>2021-04-15T08:23:08Z</time>
      </trkpt>
      <trkpt lat="45.32749" lon="3.87941">
        <ele>876</ele>
        <time>2021-04-15T08:23:09Z</time>
      </trkpt>
      <trkpt lat="45.32753" lon="3.87946">
        <ele>876</ele>
        <time>2021-04-15T08:23:10Z</time>
      </trkpt>
      <trkpt lat="45.32758" lon="3.87951">
        <ele>876</ele>
        <time>2021-04-15T08:23:11Z</time>
      </trkpt>
      <trkpt lat="45.32762" lon="3.87956">
        <ele>876</ele>
        <time>2021-04-15T08:23:12Z</time>
      </trkpt>
      <trkpt lat="45.32766" lon="3.87962">
        <ele>876</ele>
        <time>2021-04-15T08:23:13Z</time>
      </trkpt>
      <trkpt lat="45.3277" lon="3.87967">
        <ele>876</ele>
        <time>2021-04-15T08:23:15Z</time>
      </trkpt>
      <trkpt lat="45.32774" lon="3.87972">
        <ele>876</ele>
        <time>2021-04-15T08:23:16Z</time>
      </trkpt>
      <trkpt lat="45.32778" lon="3.87978">
        <ele>876</ele>
        <time>2021-04-15T08:23:17Z</time>
      </trkpt>
      <trkpt lat="45.32786" lon="3.8799">
        <ele>876</ele>
        <time>2021-04-15T08:23:18Z</time>
      </trkpt>
      <trkpt lat="45.3279" lon="3.87996">
        <ele>876</ele>
        <time>2021-04-15T08:23:19Z</time>
      </trkpt>
      <trkpt lat="45.32794" lon="3.88002">
        <ele>876</ele>
        <time>2021-04-15T08:23:20Z</time>
      </trkpt>
      <trkpt lat="45.32798" lon="3.88008">
        <ele>875</ele>
        <time>2021-04-15T08:23:21Z</time>
      </trkpt>
      <trkpt lat="45.32802" lon="3.88014">
        <ele>875</ele>
        <time>2021-04-15T08:23:22Z</time>
      </trkpt>
      <trkpt lat="45.32806" lon="3.88021">
        <ele>875</ele>
        <time>2021-04-15T08:23:23Z</time>
      </trkpt>
      <trkpt lat="45.32809" lon="3.88028">
        <ele>875</ele>
        <time>2021-04-15T08:23:24Z</time>
      </trkpt>
      <trkpt lat="45.32813" lon="3.88034">
        <ele>875</ele>
        <time>2021-04-15T08:23:25Z</time>
      </trkpt>
      <trkpt lat="45.32817" lon="3.8804">
        <ele>875</ele>
        <time>2021-04-15T08:23:26Z</time>
      </trkpt>
      <trkpt lat="45.3282" lon="3.88047">
        <ele>875</ele>
        <time>2021-04-15T08:23:27Z</time>
      </trkpt>
      <trkpt lat="45.32824" lon="3.88053">
        <ele>875</ele>
        <time>2021-04-15T08:23:28Z</time>
      </trkpt>
      <trkpt lat="45.32827" lon="3.88059">
        <ele>875</ele>
        <time>2021-04-15T08:23:29Z</time>
      </trkpt>
      <trkpt lat="45.32831" lon="3.88065">
        <ele>875</ele>
        <time>2021-04-15T08:23:30Z</time>
      </trkpt>
      <trkpt lat="45.32835" lon="3.88071">
        <ele>874</ele>
        <time>2021-04-15T08:23:31Z</time>
      </trkpt>
      <trkpt lat="45.32839" lon="3.88077">
        <ele>874</ele>
        <time>2021-04-15T08:23:32Z</time>
      </trkpt>
      <trkpt lat="45.32843" lon="3.88084">
        <ele>874</ele>
        <time>2021-04-15T08:23:33Z</time>
      </trkpt>
      <trkpt lat="45.32847" lon="3.8809">
        <ele>874</ele>
        <time>2021-04-15T08:23:34Z</time>
      </trkpt>
      <trkpt lat="45.32851" lon="3.88096">
        <ele>874</ele>
        <time>2021-04-15T08:23:35Z</time>
      </trkpt>
      <trkpt lat="45.32855" lon="3.88102">
        <ele>874</ele>
        <time>2021-04-15T08:23:36Z</time>
      </trkpt>
      <trkpt lat="45.32859" lon="3.88109">
        <ele>874</ele>
        <time>2021-04-15T08:23:37Z</time>
      </trkpt>
      <trkpt lat="45.32863" lon="3.88116">
        <ele>874</ele>
        <time>2021-04-15T08:23:38Z</time>
      </trkpt>
      <trkpt lat="45.32868" lon="3.88122">
        <ele>874</ele>
        <time>2021-04-15T08:23:39Z</time>
      </trkpt>
      <trkpt lat="45.32873" lon="3.88128">
        <ele>873</ele>
        <time>2021-04-15T08:23:40Z</time>
      </trkpt>
      <trkpt lat="45.32878" lon="3.88135">
        <ele>873</ele>
        <time>2021-04-15T08:23:41Z</time>
      </trkpt>
      <trkpt lat="45.32883" lon="3.88141">
        <ele>873</ele>
        <time>2021-04-15T08:23:42Z</time>
      </trkpt>
      <trkpt lat="45.32887" lon="3.88148">
        <ele>873</ele>
        <time>2021-04-15T08:23:43Z</time>
      </trkpt>
      <trkpt lat="45.32892" lon="3.88155">
        <ele>873</ele>
        <time>2021-04-15T08:23:44Z</time>
      </trkpt>
      <trkpt lat="45.32897" lon="3.88162">
        <ele>872</ele>
        <time>2021-04-15T08:23:45Z</time>
      </trkpt>
      <trkpt lat="45.32902" lon="3.88168">
        <ele>872</ele>
        <time>2021-04-15T08:23:46Z</time>
      </trkpt>
      <trkpt lat="45.32907" lon="3.88174">
        <ele>872</ele>
        <time>2021-04-15T08:23:47Z</time>
      </trkpt>
      <trkpt lat="45.32912" lon="3.88181">
        <ele>872</ele>
        <time>2021-04-15T08:23:48Z</time>
      </trkpt>
      <trkpt lat="45.32917" lon="3.88188">
        <ele>871</ele>
        <time>2021-04-15T08:23:49Z</time>
      </trkpt>
      <trkpt lat="45.32922" lon="3.88195">
        <ele>871</ele>
        <time>2021-04-15T08:23:50Z</time>
      </trkpt>
      <trkpt lat="45.32927" lon="3.88202">
        <ele>871</ele>
        <time>2021-04-15T08:23:51Z</time>
      </trkpt>
      <trkpt lat="45.32932" lon="3.88209">
        <ele>871</ele>
        <time>2021-04-15T08:23:52Z</time>
      </trkpt>
      <trkpt lat="45.32936" lon="3.88215">
        <ele>870</ele>
        <time>2021-04-15T08:23:53Z</time>
      </trkpt>
      <trkpt lat="45.3294" lon="3.88221">
        <ele>870</ele>
        <time>2021-04-15T08:23:54Z</time>
      </trkpt>
      <trkpt lat="45.32944" lon="3.88227">
        <ele>870</ele>
        <time>2021-04-15T08:23:55Z</time>
      </trkpt>
      <trkpt lat="45.32948" lon="3.88233">
        <ele>870</ele>
        <time>2021-04-15T08:23:56Z</time>
      </trkpt>
      <trkpt lat="45.32953" lon="3.88239">
        <ele>869</ele>
        <time>2021-04-15T08:23:57Z</time>
      </trkpt>
      <trkpt lat="45.32956" lon="3.88245">
        <ele>869</ele>
        <time>2021-04-15T08:23:58Z</time>
      </trkpt>
      <trkpt lat="45.3296" lon="3.88251">
        <ele>869</ele>
        <time>2021-04-15T08:23:59Z</time>
      </trkpt>
      <trkpt lat="45.32964" lon="3.88257">
        <ele>869</ele>
        <time>2021-04-15T08:24:00Z</time>
      </trkpt>
      <trkpt lat="45.32968" lon="3.88264">
        <ele>869</ele>
        <time>2021-04-15T08:24:01Z</time>
      </trkpt>
      <trkpt lat="45.32972" lon="3.8827">
        <ele>869</ele>
        <time>2021-04-15T08:24:02Z</time>
      </trkpt>
      <trkpt lat="45.32976" lon="3.88277">
        <ele>869</ele>
        <time>2021-04-15T08:24:03Z</time>
      </trkpt>
      <trkpt lat="45.3298" lon="3.88285">
        <ele>869</ele>
        <time>2021-04-15T08:24:04Z</time>
      </trkpt>
      <trkpt lat="45.32983" lon="3.88292">
        <ele>869</ele>
        <time>2021-04-15T08:24:05Z</time>
      </trkpt>
      <trkpt lat="45.32987" lon="3.88299">
        <ele>868</ele>
        <time>2021-04-15T08:24:06Z</time>
      </trkpt>
      <trkpt lat="45.32991" lon="3.88306">
        <ele>868</ele>
        <time>2021-04-15T08:24:07Z</time>
      </trkpt>
      <trkpt lat="45.32995" lon="3.88313">
        <ele>868</ele>
        <time>2021-04-15T08:24:08Z</time>
      </trkpt>
      <trkpt lat="45.32999" lon="3.88319">
        <ele>868</ele>
        <time>2021-04-15T08:24:09Z</time>
      </trkpt>
      <trkpt lat="45.33004" lon="3.88325">
        <ele>868</ele>
        <time>2021-04-15T08:24:10Z</time>
      </trkpt>
      <trkpt lat="45.33008" lon="3.88331">
        <ele>868</ele>
        <time>2021-04-15T08:24:11Z</time>
      </trkpt>
      <trkpt lat="45.33013" lon="3.88337">
        <ele>868</ele>
        <time>2021-04-15T08:24:12Z</time>
      </trkpt>
      <trkpt lat="45.33017" lon="3.88343">
        <ele>868</ele>
        <time>2021-04-15T08:24:13Z</time>
      </trkpt>
      <trkpt lat="45.33021" lon="3.8835">
        <ele>868</ele>
        <time>2021-04-15T08:24:14Z</time>
      </trkpt>
      <trkpt lat="45.33024" lon="3.88356">
        <ele>868</ele>
        <time>2021-04-15T08:24:15Z</time>
      </trkpt>
      <trkpt lat="45.33027" lon="3.88362">
        <ele>867</ele>
        <time>2021-04-15T08:24:17Z</time>
      </trkpt>
      <trkpt lat="45.3303" lon="3.88368">
        <ele>867</ele>
        <time>2021-04-15T08:24:18Z</time>
      </trkpt>
      <trkpt lat="45.33038" lon="3.88379">
        <ele>867</ele>
        <time>2021-04-15T08:24:19Z</time>
      </trkpt>
      <trkpt lat="45.33041" lon="3.88384">
        <ele>868</ele>
        <time>2021-04-15T08:24:21Z</time>
      </trkpt>
      <trkpt lat="45.33045" lon="3.88389">
        <ele>868</ele>
        <time>2021-04-15T08:24:22Z</time>
      </trkpt>
      <trkpt lat="45.33049" lon="3.88395">
        <ele>868</ele>
        <time>2021-04-15T08:24:23Z</time>
      </trkpt>
      <trkpt lat="45.33052" lon="3.884">
        <ele>868</ele>
        <time>2021-04-15T08:24:24Z</time>
      </trkpt>
      <trkpt lat="45.33055" lon="3.88405">
        <ele>868</ele>
        <time>2021-04-15T08:24:25Z</time>
      </trkpt>
      <trkpt lat="45.33059" lon="3.8841">
        <ele>869</ele>
        <time>2021-04-15T08:24:26Z</time>
      </trkpt>
      <trkpt lat="45.33062" lon="3.88415">
        <ele>869</ele>
        <time>2021-04-15T08:24:27Z</time>
      </trkpt>
      <trkpt lat="45.33065" lon="3.88419">
        <ele>869</ele>
        <time>2021-04-15T08:24:28Z</time>
      </trkpt>
      <trkpt lat="45.3307" lon="3.88427">
        <ele>869</ele>
        <time>2021-04-15T08:24:29Z</time>
      </trkpt>
      <trkpt lat="45.33071" lon="3.88428">
        <ele>870</ele>
        <time>2021-04-15T08:24:35Z</time>
      </trkpt>
      <trkpt lat="45.33078" lon="3.8844">
        <ele>870</ele>
        <time>2021-04-15T08:24:46Z</time>
      </trkpt>
      <trkpt lat="45.33081" lon="3.88444">
        <ele>871</ele>
        <time>2021-04-15T08:24:47Z</time>
      </trkpt>
      <trkpt lat="45.33084" lon="3.88448">
        <ele>871</ele>
        <time>2021-04-15T08:24:48Z</time>
      </trkpt>
      <trkpt lat="45.33087" lon="3.88451">
        <ele>871</ele>
        <time>2021-04-15T08:24:49Z</time>
      </trkpt>
      <trkpt lat="45.33089" lon="3.88454">
        <ele>871</ele>
        <time>2021-04-15T08:24:50Z</time>
      </trkpt>
      <trkpt lat="45.33091" lon="3.88457">
        <ele>871</ele>
        <time>2021-04-15T08:24:51Z</time>
      </trkpt>
      <trkpt lat="45.33093" lon="3.8846">
        <ele>871</ele>
        <time>2021-04-15T08:24:52Z</time>
      </trkpt>
      <trkpt lat="45.33096" lon="3.88463">
        <ele>872</ele>
        <time>2021-04-15T08:24:53Z</time>
      </trkpt>
      <trkpt lat="45.33098" lon="3.88466">
        <ele>872</ele>
        <time>2021-04-15T08:24:54Z</time>
      </trkpt>
      <trkpt lat="45.331" lon="3.8847">
        <ele>872</ele>
        <time>2021-04-15T08:24:55Z</time>
      </trkpt>
      <trkpt lat="45.33102" lon="3.88473">
        <ele>872</ele>
        <time>2021-04-15T08:24:56Z</time>
      </trkpt>
      <trkpt lat="45.33104" lon="3.88475">
        <ele>873</ele>
        <time>2021-04-15T08:24:57Z</time>
      </trkpt>
      <trkpt lat="45.33106" lon="3.88478">
        <ele>873</ele>
        <time>2021-04-15T08:24:58Z</time>
      </trkpt>
      <trkpt lat="45.33109" lon="3.88481">
        <ele>873</ele>
        <time>2021-04-15T08:24:59Z</time>
      </trkpt>
      <trkpt lat="45.33111" lon="3.88483">
        <ele>873</ele>
        <time>2021-04-15T08:25:00Z</time>
      </trkpt>
      <trkpt lat="45.33113" lon="3.88485">
        <ele>873</ele>
        <time>2021-04-15T08:25:01Z</time>
      </trkpt>
      <trkpt lat="45.33115" lon="3.88488">
        <ele>873</ele>
        <time>2021-04-15T08:25:02Z</time>
      </trkpt>
      <trkpt lat="45.33117" lon="3.8849">
        <ele>874</ele>
        <time>2021-04-15T08:25:04Z</time>
      </trkpt>
      <trkpt lat="45.33118" lon="3.8849">
        <ele>875</ele>
        <time>2021-04-15T08:25:09Z</time>
      </trkpt>
      <trkpt lat="45.33123" lon="3.88502">
        <ele>875</ele>
        <time>2021-04-15T08:25:24Z</time>
      </trkpt>
      <trkpt lat="45.33128" lon="3.88508">
        <ele>875</ele>
        <time>2021-04-15T08:25:25Z</time>
      </trkpt>
      <trkpt lat="45.3313" lon="3.88511">
        <ele>876</ele>
        <time>2021-04-15T08:25:26Z</time>
      </trkpt>
      <trkpt lat="45.33133" lon="3.88513">
        <ele>876</ele>
        <time>2021-04-15T08:25:27Z</time>
      </trkpt>
      <trkpt lat="45.33136" lon="3.88516">
        <ele>876</ele>
        <time>2021-04-15T08:25:28Z</time>
      </trkpt>
      <trkpt lat="45.33138" lon="3.88518">
        <ele>876</ele>
        <time>2021-04-15T08:25:29Z</time>
      </trkpt>
      <trkpt lat="45.33141" lon="3.8852">
        <ele>876</ele>
        <time>2021-04-15T08:25:30Z</time>
      </trkpt>
      <trkpt lat="45.33143" lon="3.88522">
        <ele>876</ele>
        <time>2021-04-15T08:25:31Z</time>
      </trkpt>
      <trkpt lat="45.33146" lon="3.88524">
        <ele>877</ele>
        <time>2021-04-15T08:25:32Z</time>
      </trkpt>
      <trkpt lat="45.33149" lon="3.88526">
        <ele>877</ele>
        <time>2021-04-15T08:25:33Z</time>
      </trkpt>
      <trkpt lat="45.33151" lon="3.88528">
        <ele>877</ele>
        <time>2021-04-15T08:25:34Z</time>
      </trkpt>
      <trkpt lat="45.33155" lon="3.8853">
        <ele>877</ele>
        <time>2021-04-15T08:25:35Z</time>
      </trkpt>
      <trkpt lat="45.33158" lon="3.88532">
        <ele>877</ele>
        <time>2021-04-15T08:25:36Z</time>
      </trkpt>
      <trkpt lat="45.33161" lon="3.88534">
        <ele>878</ele>
        <time>2021-04-15T08:25:37Z</time>
      </trkpt>
      <trkpt lat="45.33163" lon="3.88536">
        <ele>878</ele>
        <time>2021-04-15T08:25:38Z</time>
      </trkpt>
      <trkpt lat="45.33166" lon="3.88538">
        <ele>878</ele>
        <time>2021-04-15T08:25:39Z</time>
      </trkpt>
      <trkpt lat="45.33169" lon="3.8854">
        <ele>878</ele>
        <time>2021-04-15T08:25:40Z</time>
      </trkpt>
      <trkpt lat="45.33172" lon="3.88541">
        <ele>878</ele>
        <time>2021-04-15T08:25:41Z</time>
      </trkpt>
      <trkpt lat="45.33176" lon="3.88543">
        <ele>879</ele>
        <time>2021-04-15T08:25:42Z</time>
      </trkpt>
      <trkpt lat="45.33179" lon="3.88545">
        <ele>879</ele>
        <time>2021-04-15T08:25:43Z</time>
      </trkpt>
      <trkpt lat="45.33182" lon="3.88546">
        <ele>879</ele>
        <time>2021-04-15T08:25:44Z</time>
      </trkpt>
      <trkpt lat="45.33185" lon="3.88547">
        <ele>879</ele>
        <time>2021-04-15T08:25:46Z</time>
      </trkpt>
      <trkpt lat="45.33189" lon="3.88549">
        <ele>879</ele>
        <time>2021-04-15T08:25:47Z</time>
      </trkpt>
      <trkpt lat="45.33192" lon="3.8855">
        <ele>879</ele>
        <time>2021-04-15T08:25:48Z</time>
      </trkpt>
      <trkpt lat="45.33196" lon="3.88551">
        <ele>880</ele>
        <time>2021-04-15T08:25:49Z</time>
      </trkpt>
      <trkpt lat="45.332" lon="3.88553">
        <ele>880</ele>
        <time>2021-04-15T08:25:50Z</time>
      </trkpt>
      <trkpt lat="45.33203" lon="3.88555">
        <ele>880</ele>
        <time>2021-04-15T08:25:51Z</time>
      </trkpt>
      <trkpt lat="45.33207" lon="3.88556">
        <ele>880</ele>
        <time>2021-04-15T08:25:52Z</time>
      </trkpt>
      <trkpt lat="45.33214" lon="3.88561">
        <ele>880</ele>
        <time>2021-04-15T08:25:53Z</time>
      </trkpt>
      <trkpt lat="45.33217" lon="3.88564">
        <ele>880</ele>
        <time>2021-04-15T08:25:54Z</time>
      </trkpt>
      <trkpt lat="45.33221" lon="3.88566">
        <ele>880</ele>
        <time>2021-04-15T08:25:55Z</time>
      </trkpt>
      <trkpt lat="45.33224" lon="3.88568">
        <ele>880</ele>
        <time>2021-04-15T08:25:56Z</time>
      </trkpt>
      <trkpt lat="45.33227" lon="3.88571">
        <ele>880</ele>
        <time>2021-04-15T08:25:57Z</time>
      </trkpt>
      <trkpt lat="45.33231" lon="3.88574">
        <ele>880</ele>
        <time>2021-04-15T08:25:58Z</time>
      </trkpt>
      <trkpt lat="45.33234" lon="3.88577">
        <ele>880</ele>
        <time>2021-04-15T08:25:59Z</time>
      </trkpt>
      <trkpt lat="45.33237" lon="3.88581">
        <ele>880</ele>
        <time>2021-04-15T08:26:00Z</time>
      </trkpt>
      <trkpt lat="45.33239" lon="3.88585">
        <ele>880</ele>
        <time>2021-04-15T08:26:01Z</time>
      </trkpt>
      <trkpt lat="45.33242" lon="3.88589">
        <ele>880</ele>
        <time>2021-04-15T08:26:02Z</time>
      </trkpt>
      <trkpt lat="45.33244" lon="3.88594">
        <ele>880</ele>
        <time>2021-04-15T08:26:03Z</time>
      </trkpt>
      <trkpt lat="45.33246" lon="3.88598">
        <ele>880</ele>
        <time>2021-04-15T08:26:05Z</time>
      </trkpt>
      <trkpt lat="45.33251" lon="3.88608">
        <ele>880</ele>
        <time>2021-04-15T08:26:06Z</time>
      </trkpt>
      <trkpt lat="45.33253" lon="3.88613">
        <ele>880</ele>
        <time>2021-04-15T08:26:08Z</time>
      </trkpt>
      <trkpt lat="45.33255" lon="3.88619">
        <ele>880</ele>
        <time>2021-04-15T08:26:09Z</time>
      </trkpt>
      <trkpt lat="45.33257" lon="3.88624">
        <ele>880</ele>
        <time>2021-04-15T08:26:10Z</time>
      </trkpt>
      <trkpt lat="45.33259" lon="3.88629">
        <ele>880</ele>
        <time>2021-04-15T08:26:11Z</time>
      </trkpt>
      <trkpt lat="45.33262" lon="3.88634">
        <ele>880</ele>
        <time>2021-04-15T08:26:12Z</time>
      </trkpt>
      <trkpt lat="45.33265" lon="3.88638">
        <ele>880</ele>
        <time>2021-04-15T08:26:13Z</time>
      </trkpt>
      <trkpt lat="45.33271" lon="3.88645">
        <ele>880</ele>
        <time>2021-04-15T08:26:14Z</time>
      </trkpt>
      <trkpt lat="45.33274" lon="3.88647">
        <ele>880</ele>
        <time>2021-04-15T08:26:16Z</time>
      </trkpt>
      <trkpt lat="45.33277" lon="3.8865">
        <ele>880</ele>
        <time>2021-04-15T08:26:17Z</time>
      </trkpt>
      <trkpt lat="45.33283" lon="3.88654">
        <ele>881</ele>
        <time>2021-04-15T08:26:18Z</time>
      </trkpt>
      <trkpt lat="45.33285" lon="3.88657">
        <ele>881</ele>
        <time>2021-04-15T08:26:20Z</time>
      </trkpt>
      <trkpt lat="45.33289" lon="3.8866">
        <ele>881</ele>
        <time>2021-04-15T08:26:21Z</time>
      </trkpt>
      <trkpt lat="45.33296" lon="3.88668">
        <ele>881</ele>
        <time>2021-04-15T08:26:22Z</time>
      </trkpt>
      <trkpt lat="45.33299" lon="3.88673">
        <ele>881</ele>
        <time>2021-04-15T08:26:23Z</time>
      </trkpt>
      <trkpt lat="45.33303" lon="3.88676">
        <ele>881</ele>
        <time>2021-04-15T08:26:24Z</time>
      </trkpt>
      <trkpt lat="45.33306" lon="3.8868">
        <ele>881</ele>
        <time>2021-04-15T08:26:25Z</time>
      </trkpt>
      <trkpt lat="45.33308" lon="3.88683">
        <ele>881</ele>
        <time>2021-04-15T08:26:26Z</time>
      </trkpt>
      <trkpt lat="45.33311" lon="3.88686">
        <ele>882</ele>
        <time>2021-04-15T08:26:27Z</time>
      </trkpt>
      <trkpt lat="45.33313" lon="3.88688">
        <ele>882</ele>
        <time>2021-04-15T08:26:28Z</time>
      </trkpt>
      <trkpt lat="45.33316" lon="3.88691">
        <ele>882</ele>
        <time>2021-04-15T08:26:29Z</time>
      </trkpt>
      <trkpt lat="45.33318" lon="3.88693">
        <ele>882</ele>
        <time>2021-04-15T08:26:30Z</time>
      </trkpt>
      <trkpt lat="45.33319" lon="3.88696">
        <ele>882</ele>
        <time>2021-04-15T08:26:31Z</time>
      </trkpt>
      <trkpt lat="45.33321" lon="3.88698">
        <ele>882</ele>
        <time>2021-04-15T08:26:32Z</time>
      </trkpt>
      <trkpt lat="45.33322" lon="3.88699">
        <ele>882</ele>
        <time>2021-04-15T08:26:33Z</time>
      </trkpt>
      <trkpt lat="45.33324" lon="3.887">
        <ele>882</ele>
        <time>2021-04-15T08:26:34Z</time>
      </trkpt>
      <trkpt lat="45.33327" lon="3.88701">
        <ele>883</ele>
        <time>2021-04-15T08:26:35Z</time>
      </trkpt>
      <trkpt lat="45.3333" lon="3.88703">
        <ele>883</ele>
        <time>2021-04-15T08:26:36Z</time>
      </trkpt>
      <trkpt lat="45.33333" lon="3.88706">
        <ele>883</ele>
        <time>2021-04-15T08:26:37Z</time>
      </trkpt>
      <trkpt lat="45.33336" lon="3.88708">
        <ele>883</ele>
        <time>2021-04-15T08:26:38Z</time>
      </trkpt>
      <trkpt lat="45.33339" lon="3.88711">
        <ele>883</ele>
        <time>2021-04-15T08:26:39Z</time>
      </trkpt>
      <trkpt lat="45.33343" lon="3.88714">
        <ele>883</ele>
        <time>2021-04-15T08:26:40Z</time>
      </trkpt>
      <trkpt lat="45.33346" lon="3.88716">
        <ele>883</ele>
        <time>2021-04-15T08:26:41Z</time>
      </trkpt>
      <trkpt lat="45.3335" lon="3.88718">
        <ele>884</ele>
        <time>2021-04-15T08:26:43Z</time>
      </trkpt>
      <trkpt lat="45.33353" lon="3.88721">
        <ele>884</ele>
        <time>2021-04-15T08:26:44Z</time>
      </trkpt>
      <trkpt lat="45.33357" lon="3.88723">
        <ele>884</ele>
        <time>2021-04-15T08:26:45Z</time>
      </trkpt>
      <trkpt lat="45.3336" lon="3.88725">
        <ele>884</ele>
        <time>2021-04-15T08:26:46Z</time>
      </trkpt>
      <trkpt lat="45.33368" lon="3.88729">
        <ele>884</ele>
        <time>2021-04-15T08:26:47Z</time>
      </trkpt>
      <trkpt lat="45.33371" lon="3.88731">
        <ele>884</ele>
        <time>2021-04-15T08:26:49Z</time>
      </trkpt>
      <trkpt lat="45.33378" lon="3.88735">
        <ele>884</ele>
        <time>2021-04-15T08:26:50Z</time>
      </trkpt>
      <trkpt lat="45.33381" lon="3.88737">
        <ele>884</ele>
        <time>2021-04-15T08:26:52Z</time>
      </trkpt>
      <trkpt lat="45.33384" lon="3.88739">
        <ele>884</ele>
        <time>2021-04-15T08:26:53Z</time>
      </trkpt>
      <trkpt lat="45.33388" lon="3.88742">
        <ele>884</ele>
        <time>2021-04-15T08:26:54Z</time>
      </trkpt>
      <trkpt lat="45.33392" lon="3.88743">
        <ele>884</ele>
        <time>2021-04-15T08:26:55Z</time>
      </trkpt>
      <trkpt lat="45.33396" lon="3.88745">
        <ele>885</ele>
        <time>2021-04-15T08:26:56Z</time>
      </trkpt>
      <trkpt lat="45.33399" lon="3.88747">
        <ele>885</ele>
        <time>2021-04-15T08:26:57Z</time>
      </trkpt>
      <trkpt lat="45.33403" lon="3.88748">
        <ele>885</ele>
        <time>2021-04-15T08:26:58Z</time>
      </trkpt>
      <trkpt lat="45.33407" lon="3.88749">
        <ele>885</ele>
        <time>2021-04-15T08:26:59Z</time>
      </trkpt>
      <trkpt lat="45.33415" lon="3.88752">
        <ele>885</ele>
        <time>2021-04-15T08:27:00Z</time>
      </trkpt>
      <trkpt lat="45.33419" lon="3.88753">
        <ele>885</ele>
        <time>2021-04-15T08:27:02Z</time>
      </trkpt>
      <trkpt lat="45.33423" lon="3.88754">
        <ele>885</ele>
        <time>2021-04-15T08:27:03Z</time>
      </trkpt>
      <trkpt lat="45.33426" lon="3.88755">
        <ele>885</ele>
        <time>2021-04-15T08:27:04Z</time>
      </trkpt>
      <trkpt lat="45.3343" lon="3.88756">
        <ele>885</ele>
        <time>2021-04-15T08:27:05Z</time>
      </trkpt>
      <trkpt lat="45.33434" lon="3.88756">
        <ele>885</ele>
        <time>2021-04-15T08:27:06Z</time>
      </trkpt>
      <trkpt lat="45.33444" lon="3.88758">
        <ele>885</ele>
        <time>2021-04-15T08:27:07Z</time>
      </trkpt>
      <trkpt lat="45.33449" lon="3.8876">
        <ele>885</ele>
        <time>2021-04-15T08:27:08Z</time>
      </trkpt>
      <trkpt lat="45.33455" lon="3.88761">
        <ele>885</ele>
        <time>2021-04-15T08:27:09Z</time>
      </trkpt>
      <trkpt lat="45.3346" lon="3.88763">
        <ele>885</ele>
        <time>2021-04-15T08:27:10Z</time>
      </trkpt>
      <trkpt lat="45.33465" lon="3.88764">
        <ele>885</ele>
        <time>2021-04-15T08:27:11Z</time>
      </trkpt>
      <trkpt lat="45.3347" lon="3.88766">
        <ele>885</ele>
        <time>2021-04-15T08:27:12Z</time>
      </trkpt>
      <trkpt lat="45.33474" lon="3.88767">
        <ele>885</ele>
        <time>2021-04-15T08:27:13Z</time>
      </trkpt>
      <trkpt lat="45.33479" lon="3.88769">
        <ele>885</ele>
        <time>2021-04-15T08:27:14Z</time>
      </trkpt>
      <trkpt lat="45.33484" lon="3.88771">
        <ele>885</ele>
        <time>2021-04-15T08:27:15Z</time>
      </trkpt>
      <trkpt lat="45.3349" lon="3.88773">
        <ele>885</ele>
        <time>2021-04-15T08:27:16Z</time>
      </trkpt>
      <trkpt lat="45.33495" lon="3.88775">
        <ele>886</ele>
        <time>2021-04-15T08:27:17Z</time>
      </trkpt>
      <trkpt lat="45.33501" lon="3.88776">
        <ele>885</ele>
        <time>2021-04-15T08:27:18Z</time>
      </trkpt>
      <trkpt lat="45.33506" lon="3.88777">
        <ele>886</ele>
        <time>2021-04-15T08:27:19Z</time>
      </trkpt>
      <trkpt lat="45.33511" lon="3.88778">
        <ele>886</ele>
        <time>2021-04-15T08:27:20Z</time>
      </trkpt>
      <trkpt lat="45.33517" lon="3.88779">
        <ele>886</ele>
        <time>2021-04-15T08:27:21Z</time>
      </trkpt>
      <trkpt lat="45.33522" lon="3.88781">
        <ele>886</ele>
        <time>2021-04-15T08:27:22Z</time>
      </trkpt>
      <trkpt lat="45.33528" lon="3.88782">
        <ele>886</ele>
        <time>2021-04-15T08:27:23Z</time>
      </trkpt>
      <trkpt lat="45.33535" lon="3.88783">
        <ele>886</ele>
        <time>2021-04-15T08:27:24Z</time>
      </trkpt>
      <trkpt lat="45.33541" lon="3.88785">
        <ele>886</ele>
        <time>2021-04-15T08:27:25Z</time>
      </trkpt>
      <trkpt lat="45.33546" lon="3.88786">
        <ele>886</ele>
        <time>2021-04-15T08:27:26Z</time>
      </trkpt>
      <trkpt lat="45.33551" lon="3.88786">
        <ele>886</ele>
        <time>2021-04-15T08:27:27Z</time>
      </trkpt>
      <trkpt lat="45.33556" lon="3.88787">
        <ele>886</ele>
        <time>2021-04-15T08:27:28Z</time>
      </trkpt>
      <trkpt lat="45.33562" lon="3.88787">
        <ele>886</ele>
        <time>2021-04-15T08:27:29Z</time>
      </trkpt>
      <trkpt lat="45.33567" lon="3.88788">
        <ele>886</ele>
        <time>2021-04-15T08:27:30Z</time>
      </trkpt>
      <trkpt lat="45.33573" lon="3.88788">
        <ele>886</ele>
        <time>2021-04-15T08:27:31Z</time>
      </trkpt>
      <trkpt lat="45.33578" lon="3.88788">
        <ele>886</ele>
        <time>2021-04-15T08:27:32Z</time>
      </trkpt>
      <trkpt lat="45.33584" lon="3.88788">
        <ele>886</ele>
        <time>2021-04-15T08:27:33Z</time>
      </trkpt>
      <trkpt lat="45.3359" lon="3.88789">
        <ele>886</ele>
        <time>2021-04-15T08:27:34Z</time>
      </trkpt>
      <trkpt lat="45.33595" lon="3.88789">
        <ele>886</ele>
        <time>2021-04-15T08:27:35Z</time>
      </trkpt>
      <trkpt lat="45.33601" lon="3.88789">
        <ele>886</ele>
        <time>2021-04-15T08:27:36Z</time>
      </trkpt>
      <trkpt lat="45.33606" lon="3.8879">
        <ele>886</ele>
        <time>2021-04-15T08:27:37Z</time>
      </trkpt>
      <trkpt lat="45.33611" lon="3.8879">
        <ele>886</ele>
        <time>2021-04-15T08:27:38Z</time>
      </trkpt>
      <trkpt lat="45.33616" lon="3.8879">
        <ele>886</ele>
        <time>2021-04-15T08:27:39Z</time>
      </trkpt>
      <trkpt lat="45.33621" lon="3.8879">
        <ele>886</ele>
        <time>2021-04-15T08:27:40Z</time>
      </trkpt>
      <trkpt lat="45.33626" lon="3.8879">
        <ele>886</ele>
        <time>2021-04-15T08:27:41Z</time>
      </trkpt>
      <trkpt lat="45.33631" lon="3.88789">
        <ele>886</ele>
        <time>2021-04-15T08:27:42Z</time>
      </trkpt>
      <trkpt lat="45.33635" lon="3.88788">
        <ele>885</ele>
        <time>2021-04-15T08:27:43Z</time>
      </trkpt>
      <trkpt lat="45.33639" lon="3.88788">
        <ele>885</ele>
        <time>2021-04-15T08:27:44Z</time>
      </trkpt>
      <trkpt lat="45.33643" lon="3.88788">
        <ele>885</ele>
        <time>2021-04-15T08:27:45Z</time>
      </trkpt>
      <trkpt lat="45.33646" lon="3.88788">
        <ele>885</ele>
        <time>2021-04-15T08:27:46Z</time>
      </trkpt>
      <trkpt lat="45.3365" lon="3.88789">
        <ele>885</ele>
        <time>2021-04-15T08:27:47Z</time>
      </trkpt>
      <trkpt lat="45.33654" lon="3.88792">
        <ele>885</ele>
        <time>2021-04-15T08:27:48Z</time>
      </trkpt>
      <trkpt lat="45.33657" lon="3.88795">
        <ele>885</ele>
        <time>2021-04-15T08:27:49Z</time>
      </trkpt>
      <trkpt lat="45.33661" lon="3.88799">
        <ele>885</ele>
        <time>2021-04-15T08:27:50Z</time>
      </trkpt>
      <trkpt lat="45.33664" lon="3.88803">
        <ele>885</ele>
        <time>2021-04-15T08:27:51Z</time>
      </trkpt>
      <trkpt lat="45.33668" lon="3.88807">
        <ele>885</ele>
        <time>2021-04-15T08:27:52Z</time>
      </trkpt>
      <trkpt lat="45.33671" lon="3.88811">
        <ele>885</ele>
        <time>2021-04-15T08:27:53Z</time>
      </trkpt>
      <trkpt lat="45.33675" lon="3.88815">
        <ele>885</ele>
        <time>2021-04-15T08:27:54Z</time>
      </trkpt>
      <trkpt lat="45.33678" lon="3.88818">
        <ele>885</ele>
        <time>2021-04-15T08:27:55Z</time>
      </trkpt>
      <trkpt lat="45.33682" lon="3.88822">
        <ele>885</ele>
        <time>2021-04-15T08:27:56Z</time>
      </trkpt>
      <trkpt lat="45.33686" lon="3.88826">
        <ele>885</ele>
        <time>2021-04-15T08:27:57Z</time>
      </trkpt>
      <trkpt lat="45.3369" lon="3.8883">
        <ele>884</ele>
        <time>2021-04-15T08:27:59Z</time>
      </trkpt>
      <trkpt lat="45.33693" lon="3.88834">
        <ele>884</ele>
        <time>2021-04-15T08:28:00Z</time>
      </trkpt>
      <trkpt lat="45.33696" lon="3.88837">
        <ele>884</ele>
        <time>2021-04-15T08:28:01Z</time>
      </trkpt>
      <trkpt lat="45.33703" lon="3.88845">
        <ele>884</ele>
        <time>2021-04-15T08:28:02Z</time>
      </trkpt>
      <trkpt lat="45.33705" lon="3.88849">
        <ele>884</ele>
        <time>2021-04-15T08:28:04Z</time>
      </trkpt>
      <trkpt lat="45.33708" lon="3.88854">
        <ele>884</ele>
        <time>2021-04-15T08:28:05Z</time>
      </trkpt>
      <trkpt lat="45.33711" lon="3.88859">
        <ele>884</ele>
        <time>2021-04-15T08:28:06Z</time>
      </trkpt>
      <trkpt lat="45.33713" lon="3.88864">
        <ele>884</ele>
        <time>2021-04-15T08:28:07Z</time>
      </trkpt>
      <trkpt lat="45.33715" lon="3.88869">
        <ele>884</ele>
        <time>2021-04-15T08:28:08Z</time>
      </trkpt>
      <trkpt lat="45.33717" lon="3.88874">
        <ele>883</ele>
        <time>2021-04-15T08:28:09Z</time>
      </trkpt>
      <trkpt lat="45.33719" lon="3.8888">
        <ele>883</ele>
        <time>2021-04-15T08:28:10Z</time>
      </trkpt>
      <trkpt lat="45.33721" lon="3.88885">
        <ele>883</ele>
        <time>2021-04-15T08:28:11Z</time>
      </trkpt>
      <trkpt lat="45.33724" lon="3.88889">
        <ele>883</ele>
        <time>2021-04-15T08:28:12Z</time>
      </trkpt>
      <trkpt lat="45.33731" lon="3.88898">
        <ele>883</ele>
        <time>2021-04-15T08:28:13Z</time>
      </trkpt>
      <trkpt lat="45.33736" lon="3.88902">
        <ele>883</ele>
        <time>2021-04-15T08:28:15Z</time>
      </trkpt>
      <trkpt lat="45.33746" lon="3.8891">
        <ele>883</ele>
        <time>2021-04-15T08:28:16Z</time>
      </trkpt>
      <trkpt lat="45.3375" lon="3.88914">
        <ele>883</ele>
        <time>2021-04-15T08:28:18Z</time>
      </trkpt>
      <trkpt lat="45.33755" lon="3.88918">
        <ele>883</ele>
        <time>2021-04-15T08:28:19Z</time>
      </trkpt>
      <trkpt lat="45.3376" lon="3.88922">
        <ele>883</ele>
        <time>2021-04-15T08:28:20Z</time>
      </trkpt>
      <trkpt lat="45.33764" lon="3.88927">
        <ele>882</ele>
        <time>2021-04-15T08:28:21Z</time>
      </trkpt>
      <trkpt lat="45.33766" lon="3.88933">
        <ele>882</ele>
        <time>2021-04-15T08:28:22Z</time>
      </trkpt>
      <trkpt lat="45.33772" lon="3.88946">
        <ele>882</ele>
        <time>2021-04-15T08:28:23Z</time>
      </trkpt>
      <trkpt lat="45.33776" lon="3.8895">
        <ele>882</ele>
        <time>2021-04-15T08:28:25Z</time>
      </trkpt>
      <trkpt lat="45.33785" lon="3.88956">
        <ele>882</ele>
        <time>2021-04-15T08:28:26Z</time>
      </trkpt>
      <trkpt lat="45.33789" lon="3.88959">
        <ele>882</ele>
        <time>2021-04-15T08:28:28Z</time>
      </trkpt>
      <trkpt lat="45.33792" lon="3.88962">
        <ele>882</ele>
        <time>2021-04-15T08:28:29Z</time>
      </trkpt>
      <trkpt lat="45.33795" lon="3.88965">
        <ele>882</ele>
        <time>2021-04-15T08:28:30Z</time>
      </trkpt>
      <trkpt lat="45.33799" lon="3.88967">
        <ele>882</ele>
        <time>2021-04-15T08:28:31Z</time>
      </trkpt>
      <trkpt lat="45.33803" lon="3.8897">
        <ele>881</ele>
        <time>2021-04-15T08:28:32Z</time>
      </trkpt>
      <trkpt lat="45.33805" lon="3.88973">
        <ele>881</ele>
        <time>2021-04-15T08:28:33Z</time>
      </trkpt>
      <trkpt lat="45.33812" lon="3.88981">
        <ele>881</ele>
        <time>2021-04-15T08:28:34Z</time>
      </trkpt>
      <trkpt lat="45.33816" lon="3.88984">
        <ele>881</ele>
        <time>2021-04-15T08:28:35Z</time>
      </trkpt>
      <trkpt lat="45.33821" lon="3.88989">
        <ele>881</ele>
        <time>2021-04-15T08:28:36Z</time>
      </trkpt>
      <trkpt lat="45.33826" lon="3.88993">
        <ele>881</ele>
        <time>2021-04-15T08:28:37Z</time>
      </trkpt>
      <trkpt lat="45.33832" lon="3.88998">
        <ele>881</ele>
        <time>2021-04-15T08:28:38Z</time>
      </trkpt>
      <trkpt lat="45.33839" lon="3.89005">
        <ele>881</ele>
        <time>2021-04-15T08:28:39Z</time>
      </trkpt>
      <trkpt lat="45.33846" lon="3.89013">
        <ele>881</ele>
        <time>2021-04-15T08:28:40Z</time>
      </trkpt>
      <trkpt lat="45.33854" lon="3.89021">
        <ele>880</ele>
        <time>2021-04-15T08:28:41Z</time>
      </trkpt>
      <trkpt lat="45.3386" lon="3.89029">
        <ele>880</ele>
        <time>2021-04-15T08:28:42Z</time>
      </trkpt>
      <trkpt lat="45.33867" lon="3.89036">
        <ele>880</ele>
        <time>2021-04-15T08:28:43Z</time>
      </trkpt>
      <trkpt lat="45.33874" lon="3.89041">
        <ele>879</ele>
        <time>2021-04-15T08:28:44Z</time>
      </trkpt>
      <trkpt lat="45.33882" lon="3.89044">
        <ele>879</ele>
        <time>2021-04-15T08:28:45Z</time>
      </trkpt>
      <trkpt lat="45.3389" lon="3.89045">
        <ele>878</ele>
        <time>2021-04-15T08:28:46Z</time>
      </trkpt>
      <trkpt lat="45.33902" lon="3.89042">
        <ele>878</ele>
        <time>2021-04-15T08:28:47Z</time>
      </trkpt>
      <trkpt lat="45.33913" lon="3.8904">
        <ele>878</ele>
        <time>2021-04-15T08:28:48Z</time>
      </trkpt>
      <trkpt lat="45.33921" lon="3.89036">
        <ele>878</ele>
        <time>2021-04-15T08:28:49Z</time>
      </trkpt>
      <trkpt lat="45.33925" lon="3.89034">
        <ele>877</ele>
        <time>2021-04-15T08:28:50Z</time>
      </trkpt>
      <trkpt lat="45.33929" lon="3.89032">
        <ele>877</ele>
        <time>2021-04-15T08:28:51Z</time>
      </trkpt>
      <trkpt lat="45.33933" lon="3.89032">
        <ele>877</ele>
        <time>2021-04-15T08:28:52Z</time>
      </trkpt>
      <trkpt lat="45.33937" lon="3.89032">
        <ele>876</ele>
        <time>2021-04-15T08:28:53Z</time>
      </trkpt>
      <trkpt lat="45.33939" lon="3.89033">
        <ele>876</ele>
        <time>2021-04-15T08:28:54Z</time>
      </trkpt>
      <trkpt lat="45.33944" lon="3.89035">
        <ele>876</ele>
        <time>2021-04-15T08:28:56Z</time>
      </trkpt>
      <trkpt lat="45.33946" lon="3.89036">
        <ele>876</ele>
        <time>2021-04-15T08:28:58Z</time>
      </trkpt>
      <trkpt lat="45.33948" lon="3.89037">
        <ele>875</ele>
        <time>2021-04-15T08:28:59Z</time>
      </trkpt>
      <trkpt lat="45.3395" lon="3.89037">
        <ele>875</ele>
        <time>2021-04-15T08:29:00Z</time>
      </trkpt>
      <trkpt lat="45.33952" lon="3.89038">
        <ele>875</ele>
        <time>2021-04-15T08:29:01Z</time>
      </trkpt>
      <trkpt lat="45.33955" lon="3.8904">
        <ele>875</ele>
        <time>2021-04-15T08:29:02Z</time>
      </trkpt>
      <trkpt lat="45.33958" lon="3.89041">
        <ele>875</ele>
        <time>2021-04-15T08:29:03Z</time>
      </trkpt>
      <trkpt lat="45.33965" lon="3.89044">
        <ele>875</ele>
        <time>2021-04-15T08:29:04Z</time>
      </trkpt>
      <trkpt lat="45.33969" lon="3.89047">
        <ele>874</ele>
        <time>2021-04-15T08:29:06Z</time>
      </trkpt>
      <trkpt lat="45.33974" lon="3.89049">
        <ele>874</ele>
        <time>2021-04-15T08:29:07Z</time>
      </trkpt>
      <trkpt lat="45.33978" lon="3.89053">
        <ele>874</ele>
        <time>2021-04-15T08:29:08Z</time>
      </trkpt>
      <trkpt lat="45.33987" lon="3.89058">
        <ele>874</ele>
        <time>2021-04-15T08:29:09Z</time>
      </trkpt>
      <trkpt lat="45.33991" lon="3.89061">
        <ele>874</ele>
        <time>2021-04-15T08:29:10Z</time>
      </trkpt>
      <trkpt lat="45.33996" lon="3.89064">
        <ele>874</ele>
        <time>2021-04-15T08:29:12Z</time>
      </trkpt>
      <trkpt lat="45.34006" lon="3.89071">
        <ele>873</ele>
        <time>2021-04-15T08:29:13Z</time>
      </trkpt>
      <trkpt lat="45.34011" lon="3.89073">
        <ele>872</ele>
        <time>2021-04-15T08:29:15Z</time>
      </trkpt>
      <trkpt lat="45.34015" lon="3.89074">
        <ele>871</ele>
        <time>2021-04-15T08:29:16Z</time>
      </trkpt>
      <trkpt lat="45.34019" lon="3.89076">
        <ele>870</ele>
        <time>2021-04-15T08:29:17Z</time>
      </trkpt>
      <trkpt lat="45.34022" lon="3.89078">
        <ele>870</ele>
        <time>2021-04-15T08:29:18Z</time>
      </trkpt>
      <trkpt lat="45.34026" lon="3.89081">
        <ele>869</ele>
        <time>2021-04-15T08:29:19Z</time>
      </trkpt>
      <trkpt lat="45.3403" lon="3.89084">
        <ele>869</ele>
        <time>2021-04-15T08:29:20Z</time>
      </trkpt>
      <trkpt lat="45.34038" lon="3.89088">
        <ele>868</ele>
        <time>2021-04-15T08:29:21Z</time>
      </trkpt>
      <trkpt lat="45.34041" lon="3.8909">
        <ele>866</ele>
        <time>2021-04-15T08:29:23Z</time>
      </trkpt>
      <trkpt lat="45.34044" lon="3.89092">
        <ele>866</ele>
        <time>2021-04-15T08:29:24Z</time>
      </trkpt>
      <trkpt lat="45.34047" lon="3.89095">
        <ele>865</ele>
        <time>2021-04-15T08:29:25Z</time>
      </trkpt>
      <trkpt lat="45.34049" lon="3.89097">
        <ele>865</ele>
        <time>2021-04-15T08:29:26Z</time>
      </trkpt>
      <trkpt lat="45.34052" lon="3.891">
        <ele>864</ele>
        <time>2021-04-15T08:29:27Z</time>
      </trkpt>
      <trkpt lat="45.34055" lon="3.89104">
        <ele>864</ele>
        <time>2021-04-15T08:29:28Z</time>
      </trkpt>
      <trkpt lat="45.34057" lon="3.89106">
        <ele>864</ele>
        <time>2021-04-15T08:29:29Z</time>
      </trkpt>
      <trkpt lat="45.3406" lon="3.89108">
        <ele>863</ele>
        <time>2021-04-15T08:29:30Z</time>
      </trkpt>
      <trkpt lat="45.34063" lon="3.8911">
        <ele>863</ele>
        <time>2021-04-15T08:29:31Z</time>
      </trkpt>
      <trkpt lat="45.34069" lon="3.89112">
        <ele>863</ele>
        <time>2021-04-15T08:29:32Z</time>
      </trkpt>
      <trkpt lat="45.34071" lon="3.89114">
        <ele>862</ele>
        <time>2021-04-15T08:29:33Z</time>
      </trkpt>
      <trkpt lat="45.34074" lon="3.89117">
        <ele>862</ele>
        <time>2021-04-15T08:29:34Z</time>
      </trkpt>
      <trkpt lat="45.34077" lon="3.8912">
        <ele>862</ele>
        <time>2021-04-15T08:29:35Z</time>
      </trkpt>
      <trkpt lat="45.3408" lon="3.89122">
        <ele>862</ele>
        <time>2021-04-15T08:29:36Z</time>
      </trkpt>
      <trkpt lat="45.34083" lon="3.89125">
        <ele>862</ele>
        <time>2021-04-15T08:29:37Z</time>
      </trkpt>
      <trkpt lat="45.34085" lon="3.89129">
        <ele>862</ele>
        <time>2021-04-15T08:29:38Z</time>
      </trkpt>
      <trkpt lat="45.34087" lon="3.89132">
        <ele>862</ele>
        <time>2021-04-15T08:29:39Z</time>
      </trkpt>
      <trkpt lat="45.3409" lon="3.89135">
        <ele>862</ele>
        <time>2021-04-15T08:29:40Z</time>
      </trkpt>
      <trkpt lat="45.34091" lon="3.89138">
        <ele>862</ele>
        <time>2021-04-15T08:29:41Z</time>
      </trkpt>
      <trkpt lat="45.34094" lon="3.89141">
        <ele>862</ele>
        <time>2021-04-15T08:29:42Z</time>
      </trkpt>
      <trkpt lat="45.34096" lon="3.89144">
        <ele>862</ele>
        <time>2021-04-15T08:29:43Z</time>
      </trkpt>
      <trkpt lat="45.34098" lon="3.89148">
        <ele>862</ele>
        <time>2021-04-15T08:29:44Z</time>
      </trkpt>
      <trkpt lat="45.341" lon="3.89152">
        <ele>862</ele>
        <time>2021-04-15T08:29:45Z</time>
      </trkpt>
      <trkpt lat="45.34102" lon="3.89156">
        <ele>862</ele>
        <time>2021-04-15T08:29:46Z</time>
      </trkpt>
      <trkpt lat="45.34103" lon="3.89159">
        <ele>862</ele>
        <time>2021-04-15T08:29:47Z</time>
      </trkpt>
      <trkpt lat="45.34106" lon="3.89164">
        <ele>863</ele>
        <time>2021-04-15T08:29:48Z</time>
      </trkpt>
      <trkpt lat="45.34107" lon="3.89168">
        <ele>863</ele>
        <time>2021-04-15T08:29:49Z</time>
      </trkpt>
      <trkpt lat="45.34109" lon="3.89172">
        <ele>863</ele>
        <time>2021-04-15T08:29:50Z</time>
      </trkpt>
      <trkpt lat="45.3411" lon="3.89176">
        <ele>863</ele>
        <time>2021-04-15T08:29:51Z</time>
      </trkpt>
      <trkpt lat="45.34112" lon="3.8918">
        <ele>863</ele>
        <time>2021-04-15T08:29:52Z</time>
      </trkpt>
      <trkpt lat="45.34113" lon="3.89184">
        <ele>863</ele>
        <time>2021-04-15T08:29:53Z</time>
      </trkpt>
      <trkpt lat="45.34115" lon="3.89187">
        <ele>863</ele>
        <time>2021-04-15T08:29:54Z</time>
      </trkpt>
      <trkpt lat="45.34117" lon="3.89191">
        <ele>863</ele>
        <time>2021-04-15T08:29:55Z</time>
      </trkpt>
      <trkpt lat="45.34119" lon="3.89195">
        <ele>864</ele>
        <time>2021-04-15T08:29:56Z</time>
      </trkpt>
      <trkpt lat="45.34121" lon="3.89198">
        <ele>864</ele>
        <time>2021-04-15T08:29:57Z</time>
      </trkpt>
      <trkpt lat="45.34123" lon="3.89202">
        <ele>864</ele>
        <time>2021-04-15T08:29:58Z</time>
      </trkpt>
      <trkpt lat="45.34125" lon="3.89206">
        <ele>864</ele>
        <time>2021-04-15T08:29:59Z</time>
      </trkpt>
      <trkpt lat="45.34127" lon="3.8921">
        <ele>864</ele>
        <time>2021-04-15T08:30:00Z</time>
      </trkpt>
      <trkpt lat="45.34129" lon="3.89213">
        <ele>865</ele>
        <time>2021-04-15T08:30:01Z</time>
      </trkpt>
      <trkpt lat="45.34132" lon="3.89217">
        <ele>865</ele>
        <time>2021-04-15T08:30:02Z</time>
      </trkpt>
      <trkpt lat="45.34134" lon="3.89222">
        <ele>865</ele>
        <time>2021-04-15T08:30:03Z</time>
      </trkpt>
      <trkpt lat="45.34136" lon="3.89226">
        <ele>865</ele>
        <time>2021-04-15T08:30:04Z</time>
      </trkpt>
      <trkpt lat="45.34139" lon="3.89231">
        <ele>865</ele>
        <time>2021-04-15T08:30:05Z</time>
      </trkpt>
      <trkpt lat="45.34141" lon="3.89235">
        <ele>865</ele>
        <time>2021-04-15T08:30:06Z</time>
      </trkpt>
      <trkpt lat="45.34144" lon="3.89239">
        <ele>864</ele>
        <time>2021-04-15T08:30:07Z</time>
      </trkpt>
      <trkpt lat="45.34148" lon="3.89244">
        <ele>864</ele>
        <time>2021-04-15T08:30:08Z</time>
      </trkpt>
      <trkpt lat="45.34151" lon="3.89248">
        <ele>864</ele>
        <time>2021-04-15T08:30:09Z</time>
      </trkpt>
      <trkpt lat="45.34155" lon="3.89252">
        <ele>864</ele>
        <time>2021-04-15T08:30:10Z</time>
      </trkpt>
      <trkpt lat="45.34158" lon="3.89256">
        <ele>864</ele>
        <time>2021-04-15T08:30:12Z</time>
      </trkpt>
      <trkpt lat="45.34163" lon="3.8926">
        <ele>864</ele>
        <time>2021-04-15T08:30:13Z</time>
      </trkpt>
      <trkpt lat="45.34167" lon="3.89265">
        <ele>864</ele>
        <time>2021-04-15T08:30:14Z</time>
      </trkpt>
      <trkpt lat="45.34171" lon="3.89269">
        <ele>864</ele>
        <time>2021-04-15T08:30:15Z</time>
      </trkpt>
      <trkpt lat="45.34174" lon="3.89273">
        <ele>863</ele>
        <time>2021-04-15T08:30:16Z</time>
      </trkpt>
      <trkpt lat="45.34181" lon="3.89283">
        <ele>863</ele>
        <time>2021-04-15T08:30:17Z</time>
      </trkpt>
      <trkpt lat="45.34185" lon="3.89288">
        <ele>863</ele>
        <time>2021-04-15T08:30:19Z</time>
      </trkpt>
      <trkpt lat="45.34188" lon="3.89293">
        <ele>863</ele>
        <time>2021-04-15T08:30:20Z</time>
      </trkpt>
      <trkpt lat="45.34192" lon="3.89298">
        <ele>863</ele>
        <time>2021-04-15T08:30:21Z</time>
      </trkpt>
      <trkpt lat="45.34196" lon="3.89302">
        <ele>862</ele>
        <time>2021-04-15T08:30:22Z</time>
      </trkpt>
      <trkpt lat="45.342" lon="3.89305">
        <ele>862</ele>
        <time>2021-04-15T08:30:23Z</time>
      </trkpt>
      <trkpt lat="45.34205" lon="3.89307">
        <ele>862</ele>
        <time>2021-04-15T08:30:24Z</time>
      </trkpt>
      <trkpt lat="45.34209" lon="3.8931">
        <ele>862</ele>
        <time>2021-04-15T08:30:25Z</time>
      </trkpt>
      <trkpt lat="45.34212" lon="3.89313">
        <ele>863</ele>
        <time>2021-04-15T08:30:26Z</time>
      </trkpt>
      <trkpt lat="45.34217" lon="3.89322">
        <ele>862</ele>
        <time>2021-04-15T08:30:27Z</time>
      </trkpt>
      <trkpt lat="45.34219" lon="3.89335">
        <ele>863</ele>
        <time>2021-04-15T08:30:29Z</time>
      </trkpt>
      <trkpt lat="45.3422" lon="3.89342">
        <ele>863</ele>
        <time>2021-04-15T08:30:30Z</time>
      </trkpt>
      <trkpt lat="45.34221" lon="3.89349">
        <ele>863</ele>
        <time>2021-04-15T08:30:31Z</time>
      </trkpt>
      <trkpt lat="45.34223" lon="3.89357">
        <ele>863</ele>
        <time>2021-04-15T08:30:32Z</time>
      </trkpt>
      <trkpt lat="45.34224" lon="3.89364">
        <ele>863</ele>
        <time>2021-04-15T08:30:33Z</time>
      </trkpt>
      <trkpt lat="45.34226" lon="3.89372">
        <ele>863</ele>
        <time>2021-04-15T08:30:34Z</time>
      </trkpt>
      <trkpt lat="45.34227" lon="3.8938">
        <ele>863</ele>
        <time>2021-04-15T08:30:35Z</time>
      </trkpt>
      <trkpt lat="45.34229" lon="3.89388">
        <ele>863</ele>
        <time>2021-04-15T08:30:36Z</time>
      </trkpt>
      <trkpt lat="45.3423" lon="3.89395">
        <ele>862</ele>
        <time>2021-04-15T08:30:37Z</time>
      </trkpt>
      <trkpt lat="45.34232" lon="3.89402">
        <ele>862</ele>
        <time>2021-04-15T08:30:38Z</time>
      </trkpt>
      <trkpt lat="45.34234" lon="3.8941">
        <ele>862</ele>
        <time>2021-04-15T08:30:39Z</time>
      </trkpt>
      <trkpt lat="45.34237" lon="3.89417">
        <ele>861</ele>
        <time>2021-04-15T08:30:40Z</time>
      </trkpt>
      <trkpt lat="45.3424" lon="3.89423">
        <ele>861</ele>
        <time>2021-04-15T08:30:41Z</time>
      </trkpt>
      <trkpt lat="45.34244" lon="3.8943">
        <ele>861</ele>
        <time>2021-04-15T08:30:42Z</time>
      </trkpt>
      <trkpt lat="45.34247" lon="3.89436">
        <ele>860</ele>
        <time>2021-04-15T08:30:43Z</time>
      </trkpt>
      <trkpt lat="45.34251" lon="3.89443">
        <ele>860</ele>
        <time>2021-04-15T08:30:44Z</time>
      </trkpt>
      <trkpt lat="45.34254" lon="3.89449">
        <ele>859</ele>
        <time>2021-04-15T08:30:45Z</time>
      </trkpt>
      <trkpt lat="45.34258" lon="3.89455">
        <ele>859</ele>
        <time>2021-04-15T08:30:46Z</time>
      </trkpt>
      <trkpt lat="45.34261" lon="3.89461">
        <ele>859</ele>
        <time>2021-04-15T08:30:47Z</time>
      </trkpt>
      <trkpt lat="45.34265" lon="3.89466">
        <ele>858</ele>
        <time>2021-04-15T08:30:48Z</time>
      </trkpt>
      <trkpt lat="45.34269" lon="3.89471">
        <ele>858</ele>
        <time>2021-04-15T08:30:49Z</time>
      </trkpt>
      <trkpt lat="45.34274" lon="3.89475">
        <ele>857</ele>
        <time>2021-04-15T08:30:50Z</time>
      </trkpt>
      <trkpt lat="45.34278" lon="3.89479">
        <ele>857</ele>
        <time>2021-04-15T08:30:51Z</time>
      </trkpt>
      <trkpt lat="45.34283" lon="3.89482">
        <ele>857</ele>
        <time>2021-04-15T08:30:52Z</time>
      </trkpt>
      <trkpt lat="45.34288" lon="3.89484">
        <ele>857</ele>
        <time>2021-04-15T08:30:53Z</time>
      </trkpt>
      <trkpt lat="45.34293" lon="3.89486">
        <ele>857</ele>
        <time>2021-04-15T08:30:54Z</time>
      </trkpt>
      <trkpt lat="45.34298" lon="3.89487">
        <ele>857</ele>
        <time>2021-04-15T08:30:55Z</time>
      </trkpt>
      <trkpt lat="45.34303" lon="3.89488">
        <ele>857</ele>
        <time>2021-04-15T08:30:56Z</time>
      </trkpt>
      <trkpt lat="45.34308" lon="3.89488">
        <ele>856</ele>
        <time>2021-04-15T08:30:57Z</time>
      </trkpt>
      <trkpt lat="45.34312" lon="3.89489">
        <ele>856</ele>
        <time>2021-04-15T08:30:58Z</time>
      </trkpt>
      <trkpt lat="45.34316" lon="3.8949">
        <ele>856</ele>
        <time>2021-04-15T08:30:59Z</time>
      </trkpt>
      <trkpt lat="45.3432" lon="3.89491">
        <ele>856</ele>
        <time>2021-04-15T08:31:00Z</time>
      </trkpt>
      <trkpt lat="45.34324" lon="3.89493">
        <ele>856</ele>
        <time>2021-04-15T08:31:01Z</time>
      </trkpt>
      <trkpt lat="45.34328" lon="3.89494">
        <ele>856</ele>
        <time>2021-04-15T08:31:02Z</time>
      </trkpt>
      <trkpt lat="45.34333" lon="3.89496">
        <ele>856</ele>
        <time>2021-04-15T08:31:03Z</time>
      </trkpt>
      <trkpt lat="45.34338" lon="3.89497">
        <ele>856</ele>
        <time>2021-04-15T08:31:04Z</time>
      </trkpt>
      <trkpt lat="45.34342" lon="3.89499">
        <ele>856</ele>
        <time>2021-04-15T08:31:05Z</time>
      </trkpt>
      <trkpt lat="45.34347" lon="3.89501">
        <ele>856</ele>
        <time>2021-04-15T08:31:06Z</time>
      </trkpt>
      <trkpt lat="45.34352" lon="3.89504">
        <ele>856</ele>
        <time>2021-04-15T08:31:07Z</time>
      </trkpt>
      <trkpt lat="45.34357" lon="3.89508">
        <ele>855</ele>
        <time>2021-04-15T08:31:09Z</time>
      </trkpt>
      <trkpt lat="45.34362" lon="3.89513">
        <ele>855</ele>
        <time>2021-04-15T08:31:10Z</time>
      </trkpt>
      <trkpt lat="45.34367" lon="3.89519">
        <ele>855</ele>
        <time>2021-04-15T08:31:11Z</time>
      </trkpt>
      <trkpt lat="45.34373" lon="3.89525">
        <ele>855</ele>
        <time>2021-04-15T08:31:12Z</time>
      </trkpt>
      <trkpt lat="45.34379" lon="3.89531">
        <ele>854</ele>
        <time>2021-04-15T08:31:13Z</time>
      </trkpt>
      <trkpt lat="45.3439" lon="3.89545">
        <ele>853</ele>
        <time>2021-04-15T08:31:14Z</time>
      </trkpt>
      <trkpt lat="45.34396" lon="3.89553">
        <ele>851</ele>
        <time>2021-04-15T08:31:16Z</time>
      </trkpt>
      <trkpt lat="45.34402" lon="3.89561">
        <ele>850</ele>
        <time>2021-04-15T08:31:17Z</time>
      </trkpt>
      <trkpt lat="45.34409" lon="3.89569">
        <ele>848</ele>
        <time>2021-04-15T08:31:18Z</time>
      </trkpt>
      <trkpt lat="45.34415" lon="3.89578">
        <ele>847</ele>
        <time>2021-04-15T08:31:19Z</time>
      </trkpt>
      <trkpt lat="45.34429" lon="3.89596">
        <ele>846</ele>
        <time>2021-04-15T08:31:20Z</time>
      </trkpt>
      <trkpt lat="45.34436" lon="3.89605">
        <ele>843</ele>
        <time>2021-04-15T08:31:22Z</time>
      </trkpt>
      <trkpt lat="45.34444" lon="3.89614">
        <ele>842</ele>
        <time>2021-04-15T08:31:23Z</time>
      </trkpt>
      <trkpt lat="45.34451" lon="3.89623">
        <ele>842</ele>
        <time>2021-04-15T08:31:24Z</time>
      </trkpt>
      <trkpt lat="45.34458" lon="3.89631">
        <ele>841</ele>
        <time>2021-04-15T08:31:25Z</time>
      </trkpt>
      <trkpt lat="45.34471" lon="3.89647">
        <ele>840</ele>
        <time>2021-04-15T08:31:26Z</time>
      </trkpt>
      <trkpt lat="45.34477" lon="3.89655">
        <ele>838</ele>
        <time>2021-04-15T08:31:28Z</time>
      </trkpt>
      <trkpt lat="45.34483" lon="3.89664">
        <ele>837</ele>
        <time>2021-04-15T08:31:29Z</time>
      </trkpt>
      <trkpt lat="45.34488" lon="3.89673">
        <ele>836</ele>
        <time>2021-04-15T08:31:30Z</time>
      </trkpt>
      <trkpt lat="45.34498" lon="3.89692">
        <ele>835</ele>
        <time>2021-04-15T08:31:31Z</time>
      </trkpt>
      <trkpt lat="45.34502" lon="3.89702">
        <ele>834</ele>
        <time>2021-04-15T08:31:33Z</time>
      </trkpt>
      <trkpt lat="45.34507" lon="3.89712">
        <ele>833</ele>
        <time>2021-04-15T08:31:34Z</time>
      </trkpt>
      <trkpt lat="45.34511" lon="3.89723">
        <ele>832</ele>
        <time>2021-04-15T08:31:35Z</time>
      </trkpt>
      <trkpt lat="45.34515" lon="3.89732">
        <ele>831</ele>
        <time>2021-04-15T08:31:36Z</time>
      </trkpt>
      <trkpt lat="45.34516" lon="3.89741">
        <ele>830</ele>
        <time>2021-04-15T08:31:37Z</time>
      </trkpt>
      <trkpt lat="45.34515" lon="3.89761">
        <ele>830</ele>
        <time>2021-04-15T08:31:38Z</time>
      </trkpt>
      <trkpt lat="45.34516" lon="3.89772">
        <ele>829</ele>
        <time>2021-04-15T08:31:40Z</time>
      </trkpt>
      <trkpt lat="45.34521" lon="3.8978">
        <ele>829</ele>
        <time>2021-04-15T08:31:41Z</time>
      </trkpt>
      <trkpt lat="45.34527" lon="3.89784">
        <ele>829</ele>
        <time>2021-04-15T08:31:42Z</time>
      </trkpt>
      <trkpt lat="45.34534" lon="3.89784">
        <ele>828</ele>
        <time>2021-04-15T08:31:43Z</time>
      </trkpt>
      <trkpt lat="45.34542" lon="3.89783">
        <ele>828</ele>
        <time>2021-04-15T08:31:44Z</time>
      </trkpt>
      <trkpt lat="45.34558" lon="3.89783">
        <ele>827</ele>
        <time>2021-04-15T08:31:45Z</time>
      </trkpt>
      <trkpt lat="45.34566" lon="3.89782">
        <ele>826</ele>
        <time>2021-04-15T08:31:47Z</time>
      </trkpt>
      <trkpt lat="45.34575" lon="3.89778">
        <ele>825</ele>
        <time>2021-04-15T08:31:48Z</time>
      </trkpt>
      <trkpt lat="45.34585" lon="3.89775">
        <ele>825</ele>
        <time>2021-04-15T08:31:49Z</time>
      </trkpt>
      <trkpt lat="45.34605" lon="3.89774">
        <ele>825</ele>
        <time>2021-04-15T08:31:50Z</time>
      </trkpt>
      <trkpt lat="45.34616" lon="3.89774">
        <ele>824</ele>
        <time>2021-04-15T08:31:52Z</time>
      </trkpt>
      <trkpt lat="45.34627" lon="3.89775">
        <ele>823</ele>
        <time>2021-04-15T08:31:53Z</time>
      </trkpt>
      <trkpt lat="45.34637" lon="3.89777">
        <ele>822</ele>
        <time>2021-04-15T08:31:54Z</time>
      </trkpt>
      <trkpt lat="45.34655" lon="3.89778">
        <ele>822</ele>
        <time>2021-04-15T08:31:55Z</time>
      </trkpt>
      <trkpt lat="45.34661" lon="3.89777">
        <ele>821</ele>
        <time>2021-04-15T08:31:57Z</time>
      </trkpt>
      <trkpt lat="45.34665" lon="3.89778">
        <ele>820</ele>
        <time>2021-04-15T08:31:58Z</time>
      </trkpt>
      <trkpt lat="45.34669" lon="3.89779">
        <ele>819</ele>
        <time>2021-04-15T08:31:59Z</time>
      </trkpt>
      <trkpt lat="45.34672" lon="3.89782">
        <ele>819</ele>
        <time>2021-04-15T08:32:00Z</time>
      </trkpt>
      <trkpt lat="45.34675" lon="3.89785">
        <ele>818</ele>
        <time>2021-04-15T08:32:01Z</time>
      </trkpt>
      <trkpt lat="45.34676" lon="3.8979">
        <ele>818</ele>
        <time>2021-04-15T08:32:02Z</time>
      </trkpt>
      <trkpt lat="45.34675" lon="3.89795">
        <ele>817</ele>
        <time>2021-04-15T08:32:03Z</time>
      </trkpt>
      <trkpt lat="45.34671" lon="3.89804">
        <ele>816</ele>
        <time>2021-04-15T08:32:04Z</time>
      </trkpt>
      <trkpt lat="45.34669" lon="3.89813">
        <ele>814</ele>
        <time>2021-04-15T08:32:06Z</time>
      </trkpt>
      <trkpt lat="45.34669" lon="3.89818">
        <ele>812</ele>
        <time>2021-04-15T08:32:08Z</time>
      </trkpt>
      <trkpt lat="45.34667" lon="3.89815">
        <ele>790.9</ele>
      </trkpt>
      <trkpt lat="45.34658" lon="3.89828">
        <ele>789.5</ele>
      </trkpt>
      <trkpt lat="45.34628" lon="3.89896">
        <ele>784.3</ele>
      </trkpt>
      <trkpt lat="45.34624" lon="3.8991">
        <ele>782.7</ele>
      </trkpt>
      <trkpt lat="45.34623" lon="3.89919">
        <ele>781.8</ele>
      </trkpt>
      <trkpt lat="45.34624" lon="3.89929">
        <ele>781</ele>
      </trkpt>
      <trkpt lat="45.34626" lon="3.89937">
        <ele>780.5</ele>
      </trkpt>
      <trkpt lat="45.34628" lon="3.89943">
        <ele>780.1</ele>
      </trkpt>
      <trkpt lat="45.34639" lon="3.89976">
        <ele>778.2</ele>
      </trkpt>
      <trkpt lat="45.34654" lon="3.90019">
        <ele>775.7</ele>
      </trkpt>
      <trkpt lat="45.34663" lon="3.9004">
        <ele>774.4</ele>
      </trkpt>
      <trkpt lat="45.34664" lon="3.90043">
        <ele>774.3</ele>
      </trkpt>
      <trkpt lat="45.34666" lon="3.90047">
        <ele>774</ele>
      </trkpt>
      <trkpt lat="45.34673" lon="3.90056">
        <ele>773.4</ele>
      </trkpt>
      <trkpt lat="45.34684" lon="3.90066">
        <ele>772.7</ele>
      </trkpt>
      <trkpt lat="45.34691" lon="3.90071">
        <ele>772.4</ele>
      </trkpt>
      <trkpt lat="45.34696" lon="3.90074">
        <ele>772.2</ele>
      </trkpt>
      <trkpt lat="45.34704" lon="3.90078">
        <ele>771.9</ele>
      </trkpt>
      <trkpt lat="45.34716" lon="3.90085">
        <ele>771.5</ele>
      </trkpt>
      <trkpt lat="45.34722" lon="3.90087">
        <ele>771.5</ele>
      </trkpt>
      <trkpt lat="45.34736" lon="3.90094">
        <ele>771.5</ele>
      </trkpt>
      <trkpt lat="45.34744" lon="3.90104">
        <ele>785</ele>
        <time>2021-04-15T08:43:26Z</time>
      </trkpt>
      <trkpt lat="45.34748" lon="3.90105">
        <ele>785</ele>
        <time>2021-04-15T08:43:28Z</time>
      </trkpt>
      <trkpt lat="45.34751" lon="3.90106">
        <ele>785</ele>
        <time>2021-04-15T08:43:30Z</time>
      </trkpt>
      <trkpt lat="45.34754" lon="3.90108">
        <ele>784</ele>
        <time>2021-04-15T08:43:33Z</time>
      </trkpt>
      <trkpt lat="45.34756" lon="3.9011">
        <ele>784</ele>
        <time>2021-04-15T08:43:34Z</time>
      </trkpt>
      <trkpt lat="45.34759" lon="3.90113">
        <ele>784</ele>
        <time>2021-04-15T08:43:35Z</time>
      </trkpt>
      <trkpt lat="45.34762" lon="3.90115">
        <ele>784</ele>
        <time>2021-04-15T08:43:36Z</time>
      </trkpt>
      <trkpt lat="45.34766" lon="3.90122">
        <ele>784</ele>
        <time>2021-04-15T08:43:37Z</time>
      </trkpt>
      <trkpt lat="45.34768" lon="3.90127">
        <ele>784</ele>
        <time>2021-04-15T08:43:38Z</time>
      </trkpt>
      <trkpt lat="45.3477" lon="3.90131">
        <ele>784</ele>
        <time>2021-04-15T08:43:39Z</time>
      </trkpt>
      <trkpt lat="45.34771" lon="3.90137">
        <ele>784</ele>
        <time>2021-04-15T08:43:40Z</time>
      </trkpt>
      <trkpt lat="45.34772" lon="3.90142">
        <ele>783</ele>
        <time>2021-04-15T08:43:41Z</time>
      </trkpt>
      <trkpt lat="45.34772" lon="3.90148">
        <ele>783</ele>
        <time>2021-04-15T08:43:42Z</time>
      </trkpt>
      <trkpt lat="45.34773" lon="3.90153">
        <ele>783</ele>
        <time>2021-04-15T08:43:43Z</time>
      </trkpt>
      <trkpt lat="45.34774" lon="3.90159">
        <ele>783</ele>
        <time>2021-04-15T08:43:44Z</time>
      </trkpt>
      <trkpt lat="45.34775" lon="3.90166">
        <ele>783</ele>
        <time>2021-04-15T08:43:45Z</time>
      </trkpt>
      <trkpt lat="45.34776" lon="3.90172">
        <ele>783</ele>
        <time>2021-04-15T08:43:46Z</time>
      </trkpt>
      <trkpt lat="45.34777" lon="3.90179">
        <ele>782</ele>
        <time>2021-04-15T08:43:47Z</time>
      </trkpt>
      <trkpt lat="45.34779" lon="3.90185">
        <ele>782</ele>
        <time>2021-04-15T08:43:48Z</time>
      </trkpt>
      <trkpt lat="45.3478" lon="3.90192">
        <ele>782</ele>
        <time>2021-04-15T08:43:50Z</time>
      </trkpt>
      <trkpt lat="45.34783" lon="3.90198">
        <ele>782</ele>
        <time>2021-04-15T08:43:51Z</time>
      </trkpt>
      <trkpt lat="45.34786" lon="3.90204">
        <ele>782</ele>
        <time>2021-04-15T08:43:52Z</time>
      </trkpt>
      <trkpt lat="45.34789" lon="3.90209">
        <ele>781</ele>
        <time>2021-04-15T08:43:53Z</time>
      </trkpt>
      <trkpt lat="45.34793" lon="3.90215">
        <ele>781</ele>
        <time>2021-04-15T08:43:54Z</time>
      </trkpt>
      <trkpt lat="45.34796" lon="3.9022">
        <ele>781</ele>
        <time>2021-04-15T08:43:55Z</time>
      </trkpt>
      <trkpt lat="45.348" lon="3.90226">
        <ele>781</ele>
        <time>2021-04-15T08:43:56Z</time>
      </trkpt>
      <trkpt lat="45.34803" lon="3.90231">
        <ele>781</ele>
        <time>2021-04-15T08:43:57Z</time>
      </trkpt>
      <trkpt lat="45.34806" lon="3.90237">
        <ele>781</ele>
        <time>2021-04-15T08:43:58Z</time>
      </trkpt>
      <trkpt lat="45.34812" lon="3.90246">
        <ele>781</ele>
        <time>2021-04-15T08:43:59Z</time>
      </trkpt>
      <trkpt lat="45.34815" lon="3.90251">
        <ele>781</ele>
        <time>2021-04-15T08:44:00Z</time>
      </trkpt>
      <trkpt lat="45.34818" lon="3.90255">
        <ele>781</ele>
        <time>2021-04-15T08:44:01Z</time>
      </trkpt>
      <trkpt lat="45.34821" lon="3.9026">
        <ele>781</ele>
        <time>2021-04-15T08:44:02Z</time>
      </trkpt>
      <trkpt lat="45.34824" lon="3.90264">
        <ele>781</ele>
        <time>2021-04-15T08:44:03Z</time>
      </trkpt>
      <trkpt lat="45.34827" lon="3.90268">
        <ele>781</ele>
        <time>2021-04-15T08:44:04Z</time>
      </trkpt>
      <trkpt lat="45.3483" lon="3.90272">
        <ele>781</ele>
        <time>2021-04-15T08:44:05Z</time>
      </trkpt>
      <trkpt lat="45.34833" lon="3.90276">
        <ele>781</ele>
        <time>2021-04-15T08:44:06Z</time>
      </trkpt>
      <trkpt lat="45.34837" lon="3.9028">
        <ele>781</ele>
        <time>2021-04-15T08:44:07Z</time>
      </trkpt>
      <trkpt lat="45.3484" lon="3.90283">
        <ele>781</ele>
        <time>2021-04-15T08:44:08Z</time>
      </trkpt>
      <trkpt lat="45.34844" lon="3.90286">
        <ele>781</ele>
        <time>2021-04-15T08:44:10Z</time>
      </trkpt>
      <trkpt lat="45.34851" lon="3.90293">
        <ele>781</ele>
        <time>2021-04-15T08:44:11Z</time>
      </trkpt>
      <trkpt lat="45.34855" lon="3.90296">
        <ele>781</ele>
        <time>2021-04-15T08:44:13Z</time>
      </trkpt>
      <trkpt lat="45.34858" lon="3.90299">
        <ele>781</ele>
        <time>2021-04-15T08:44:14Z</time>
      </trkpt>
      <trkpt lat="45.34862" lon="3.90302">
        <ele>782</ele>
        <time>2021-04-15T08:44:15Z</time>
      </trkpt>
      <trkpt lat="45.34865" lon="3.90305">
        <ele>782</ele>
        <time>2021-04-15T08:44:16Z</time>
      </trkpt>
      <trkpt lat="45.34868" lon="3.90307">
        <ele>782</ele>
        <time>2021-04-15T08:44:17Z</time>
      </trkpt>
      <trkpt lat="45.34871" lon="3.9031">
        <ele>782</ele>
        <time>2021-04-15T08:44:18Z</time>
      </trkpt>
      <trkpt lat="45.34875" lon="3.90312">
        <ele>782</ele>
        <time>2021-04-15T08:44:19Z</time>
      </trkpt>
      <trkpt lat="45.34879" lon="3.90314">
        <ele>783</ele>
        <time>2021-04-15T08:44:20Z</time>
      </trkpt>
      <trkpt lat="45.34883" lon="3.90315">
        <ele>783</ele>
        <time>2021-04-15T08:44:21Z</time>
      </trkpt>
      <trkpt lat="45.34887" lon="3.90316">
        <ele>783</ele>
        <time>2021-04-15T08:44:22Z</time>
      </trkpt>
      <trkpt lat="45.34894" lon="3.90316">
        <ele>783</ele>
        <time>2021-04-15T08:44:23Z</time>
      </trkpt>
      <trkpt lat="45.34898" lon="3.90315">
        <ele>783</ele>
        <time>2021-04-15T08:44:25Z</time>
      </trkpt>
      <trkpt lat="45.34902" lon="3.90315">
        <ele>784</ele>
        <time>2021-04-15T08:44:26Z</time>
      </trkpt>
      <trkpt lat="45.3491" lon="3.90314">
        <ele>784</ele>
        <time>2021-04-15T08:44:27Z</time>
      </trkpt>
      <trkpt lat="45.34914" lon="3.90314">
        <ele>784</ele>
        <time>2021-04-15T08:44:28Z</time>
      </trkpt>
      <trkpt lat="45.34918" lon="3.90313">
        <ele>784</ele>
        <time>2021-04-15T08:44:29Z</time>
      </trkpt>
      <trkpt lat="45.34922" lon="3.90312">
        <ele>784</ele>
        <time>2021-04-15T08:44:30Z</time>
      </trkpt>
      <trkpt lat="45.34926" lon="3.90312">
        <ele>784</ele>
        <time>2021-04-15T08:44:31Z</time>
      </trkpt>
      <trkpt lat="45.3493" lon="3.90311">
        <ele>785</ele>
        <time>2021-04-15T08:44:32Z</time>
      </trkpt>
      <trkpt lat="45.34934" lon="3.90311">
        <ele>785</ele>
        <time>2021-04-15T08:44:33Z</time>
      </trkpt>
      <trkpt lat="45.34938" lon="3.9031">
        <ele>785</ele>
        <time>2021-04-15T08:44:34Z</time>
      </trkpt>
      <trkpt lat="45.34942" lon="3.9031">
        <ele>785</ele>
        <time>2021-04-15T08:44:35Z</time>
      </trkpt>
      <trkpt lat="45.34946" lon="3.90309">
        <ele>785</ele>
        <time>2021-04-15T08:44:36Z</time>
      </trkpt>
      <trkpt lat="45.3495" lon="3.90309">
        <ele>785</ele>
        <time>2021-04-15T08:44:37Z</time>
      </trkpt>
      <trkpt lat="45.34954" lon="3.90309">
        <ele>785</ele>
        <time>2021-04-15T08:44:38Z</time>
      </trkpt>
      <trkpt lat="45.34958" lon="3.90309">
        <ele>785</ele>
        <time>2021-04-15T08:44:39Z</time>
      </trkpt>
      <trkpt lat="45.34962" lon="3.90308">
        <ele>786</ele>
        <time>2021-04-15T08:44:40Z</time>
      </trkpt>
      <trkpt lat="45.34965" lon="3.90308">
        <ele>786</ele>
        <time>2021-04-15T08:44:41Z</time>
      </trkpt>
      <trkpt lat="45.34969" lon="3.90307">
        <ele>786</ele>
        <time>2021-04-15T08:44:42Z</time>
      </trkpt>
      <trkpt lat="45.34973" lon="3.90306">
        <ele>786</ele>
        <time>2021-04-15T08:44:43Z</time>
      </trkpt>
      <trkpt lat="45.34976" lon="3.90305">
        <ele>787</ele>
        <time>2021-04-15T08:44:44Z</time>
      </trkpt>
      <trkpt lat="45.3498" lon="3.90304">
        <ele>787</ele>
        <time>2021-04-15T08:44:45Z</time>
      </trkpt>
      <trkpt lat="45.34983" lon="3.90303">
        <ele>787</ele>
        <time>2021-04-15T08:44:46Z</time>
      </trkpt>
      <trkpt lat="45.34987" lon="3.90302">
        <ele>788</ele>
        <time>2021-04-15T08:44:48Z</time>
      </trkpt>
      <trkpt lat="45.34995" lon="3.90301">
        <ele>788</ele>
        <time>2021-04-15T08:44:49Z</time>
      </trkpt>
      <trkpt lat="45.34999" lon="3.903">
        <ele>789</ele>
        <time>2021-04-15T08:44:51Z</time>
      </trkpt>
      <trkpt lat="45.35003" lon="3.90299">
        <ele>789</ele>
        <time>2021-04-15T08:44:52Z</time>
      </trkpt>
      <trkpt lat="45.35007" lon="3.90298">
        <ele>789</ele>
        <time>2021-04-15T08:44:53Z</time>
      </trkpt>
      <trkpt lat="45.35011" lon="3.90297">
        <ele>789</ele>
        <time>2021-04-15T08:44:54Z</time>
      </trkpt>
      <trkpt lat="45.35015" lon="3.90296">
        <ele>790</ele>
        <time>2021-04-15T08:44:55Z</time>
      </trkpt>
      <trkpt lat="45.35019" lon="3.90295">
        <ele>790</ele>
        <time>2021-04-15T08:44:56Z</time>
      </trkpt>
      <trkpt lat="45.35023" lon="3.90294">
        <ele>790</ele>
        <time>2021-04-15T08:44:57Z</time>
      </trkpt>
      <trkpt lat="45.35031" lon="3.90292">
        <ele>791</ele>
        <time>2021-04-15T08:44:58Z</time>
      </trkpt>
      <trkpt lat="45.35035" lon="3.90292">
        <ele>791</ele>
        <time>2021-04-15T08:44:59Z</time>
      </trkpt>
      <trkpt lat="45.35039" lon="3.90291">
        <ele>791</ele>
        <time>2021-04-15T08:45:00Z</time>
      </trkpt>
      <trkpt lat="45.35043" lon="3.9029">
        <ele>791</ele>
        <time>2021-04-15T08:45:01Z</time>
      </trkpt>
      <trkpt lat="45.35047" lon="3.90289">
        <ele>791</ele>
        <time>2021-04-15T08:45:02Z</time>
      </trkpt>
      <trkpt lat="45.3505" lon="3.90288">
        <ele>792</ele>
        <time>2021-04-15T08:45:03Z</time>
      </trkpt>
      <trkpt lat="45.35054" lon="3.90287">
        <ele>792</ele>
        <time>2021-04-15T08:45:04Z</time>
      </trkpt>
      <trkpt lat="45.35058" lon="3.90286">
        <ele>792</ele>
        <time>2021-04-15T08:45:05Z</time>
      </trkpt>
      <trkpt lat="45.35062" lon="3.90285">
        <ele>792</ele>
        <time>2021-04-15T08:45:07Z</time>
      </trkpt>
      <trkpt lat="45.35065" lon="3.90284">
        <ele>793</ele>
        <time>2021-04-15T08:45:08Z</time>
      </trkpt>
      <trkpt lat="45.35069" lon="3.90282">
        <ele>793</ele>
        <time>2021-04-15T08:45:09Z</time>
      </trkpt>
      <trkpt lat="45.35073" lon="3.90282">
        <ele>793</ele>
        <time>2021-04-15T08:45:10Z</time>
      </trkpt>
      <trkpt lat="45.35076" lon="3.9028">
        <ele>793</ele>
        <time>2021-04-15T08:45:11Z</time>
      </trkpt>
      <trkpt lat="45.3508" lon="3.90279">
        <ele>794</ele>
        <time>2021-04-15T08:45:12Z</time>
      </trkpt>
      <trkpt lat="45.35083" lon="3.90278">
        <ele>794</ele>
        <time>2021-04-15T08:45:13Z</time>
      </trkpt>
      <trkpt lat="45.35091" lon="3.90276">
        <ele>794</ele>
        <time>2021-04-15T08:45:14Z</time>
      </trkpt>
      <trkpt lat="45.35094" lon="3.90275">
        <ele>795</ele>
        <time>2021-04-15T08:45:16Z</time>
      </trkpt>
      <trkpt lat="45.35098" lon="3.90274">
        <ele>795</ele>
        <time>2021-04-15T08:45:17Z</time>
      </trkpt>
      <trkpt lat="45.35102" lon="3.90274">
        <ele>795</ele>
        <time>2021-04-15T08:45:18Z</time>
      </trkpt>
      <trkpt lat="45.35105" lon="3.90273">
        <ele>795</ele>
        <time>2021-04-15T08:45:19Z</time>
      </trkpt>
      <trkpt lat="45.35109" lon="3.90273">
        <ele>795</ele>
        <time>2021-04-15T08:45:20Z</time>
      </trkpt>
      <trkpt lat="45.35113" lon="3.90274">
        <ele>795</ele>
        <time>2021-04-15T08:45:21Z</time>
      </trkpt>
      <trkpt lat="45.35117" lon="3.90275">
        <ele>796</ele>
        <time>2021-04-15T08:45:22Z</time>
      </trkpt>
      <trkpt lat="45.35121" lon="3.90275">
        <ele>796</ele>
        <time>2021-04-15T08:45:23Z</time>
      </trkpt>
      <trkpt lat="45.35129" lon="3.90276">
        <ele>796</ele>
        <time>2021-04-15T08:45:24Z</time>
      </trkpt>
      <trkpt lat="45.35132" lon="3.90276">
        <ele>796</ele>
        <time>2021-04-15T08:45:25Z</time>
      </trkpt>
      <trkpt lat="45.35136" lon="3.90276">
        <ele>797</ele>
        <time>2021-04-15T08:45:26Z</time>
      </trkpt>
      <trkpt lat="45.3514" lon="3.90277">
        <ele>797</ele>
        <time>2021-04-15T08:45:27Z</time>
      </trkpt>
      <trkpt lat="45.35143" lon="3.90278">
        <ele>797</ele>
        <time>2021-04-15T08:45:28Z</time>
      </trkpt>
      <trkpt lat="45.35147" lon="3.90278">
        <ele>798</ele>
        <time>2021-04-15T08:45:29Z</time>
      </trkpt>
      <trkpt lat="45.3515" lon="3.9028">
        <ele>798</ele>
        <time>2021-04-15T08:45:30Z</time>
      </trkpt>
      <trkpt lat="45.35154" lon="3.90281">
        <ele>798</ele>
        <time>2021-04-15T08:45:31Z</time>
      </trkpt>
      <trkpt lat="45.35157" lon="3.90283">
        <ele>799</ele>
        <time>2021-04-15T08:45:32Z</time>
      </trkpt>
      <trkpt lat="45.3516" lon="3.90285">
        <ele>799</ele>
        <time>2021-04-15T08:45:33Z</time>
      </trkpt>
      <trkpt lat="45.35163" lon="3.90286">
        <ele>799</ele>
        <time>2021-04-15T08:45:34Z</time>
      </trkpt>
      <trkpt lat="45.35167" lon="3.90288">
        <ele>800</ele>
        <time>2021-04-15T08:45:35Z</time>
      </trkpt>
      <trkpt lat="45.35171" lon="3.90289">
        <ele>800</ele>
        <time>2021-04-15T08:45:36Z</time>
      </trkpt>
      <trkpt lat="45.35174" lon="3.9029">
        <ele>800</ele>
        <time>2021-04-15T08:45:37Z</time>
      </trkpt>
      <trkpt lat="45.35177" lon="3.90291">
        <ele>801</ele>
        <time>2021-04-15T08:45:38Z</time>
      </trkpt>
      <trkpt lat="45.35181" lon="3.90292">
        <ele>801</ele>
        <time>2021-04-15T08:45:39Z</time>
      </trkpt>
      <trkpt lat="45.35184" lon="3.90293">
        <ele>801</ele>
        <time>2021-04-15T08:45:40Z</time>
      </trkpt>
      <trkpt lat="45.35188" lon="3.90296">
        <ele>801</ele>
        <time>2021-04-15T08:45:41Z</time>
      </trkpt>
      <trkpt lat="45.35192" lon="3.90297">
        <ele>801</ele>
        <time>2021-04-15T08:45:42Z</time>
      </trkpt>
      <trkpt lat="45.35196" lon="3.90297">
        <ele>802</ele>
        <time>2021-04-15T08:45:43Z</time>
      </trkpt>
      <trkpt lat="45.352" lon="3.90297">
        <ele>802</ele>
        <time>2021-04-15T08:45:45Z</time>
      </trkpt>
      <trkpt lat="45.35203" lon="3.90295">
        <ele>803</ele>
        <time>2021-04-15T08:45:46Z</time>
      </trkpt>
      <trkpt lat="45.35206" lon="3.90293">
        <ele>804</ele>
        <time>2021-04-15T08:45:47Z</time>
      </trkpt>
      <trkpt lat="45.35209" lon="3.90291">
        <ele>804</ele>
        <time>2021-04-15T08:45:48Z</time>
      </trkpt>
      <trkpt lat="45.35212" lon="3.90291">
        <ele>805</ele>
        <time>2021-04-15T08:45:49Z</time>
      </trkpt>
      <trkpt lat="45.35214" lon="3.90293">
        <ele>805</ele>
        <time>2021-04-15T08:45:50Z</time>
      </trkpt>
      <trkpt lat="45.35217" lon="3.90295">
        <ele>805</ele>
        <time>2021-04-15T08:45:51Z</time>
      </trkpt>
      <trkpt lat="45.35219" lon="3.90299">
        <ele>805</ele>
        <time>2021-04-15T08:45:52Z</time>
      </trkpt>
      <trkpt lat="45.35221" lon="3.90303">
        <ele>805</ele>
        <time>2021-04-15T08:45:53Z</time>
      </trkpt>
      <trkpt lat="45.35222" lon="3.90307">
        <ele>805</ele>
        <time>2021-04-15T08:45:54Z</time>
      </trkpt>
      <trkpt lat="45.35225" lon="3.90311">
        <ele>806</ele>
        <time>2021-04-15T08:45:55Z</time>
      </trkpt>
      <trkpt lat="45.35229" lon="3.9032">
        <ele>806</ele>
        <time>2021-04-15T08:45:56Z</time>
      </trkpt>
      <trkpt lat="45.35232" lon="3.90324">
        <ele>807</ele>
        <time>2021-04-15T08:45:58Z</time>
      </trkpt>
      <trkpt lat="45.35234" lon="3.90329">
        <ele>807</ele>
        <time>2021-04-15T08:45:59Z</time>
      </trkpt>
      <trkpt lat="45.35236" lon="3.90333">
        <ele>807</ele>
        <time>2021-04-15T08:46:00Z</time>
      </trkpt>
      <trkpt lat="45.35238" lon="3.90337">
        <ele>808</ele>
        <time>2021-04-15T08:46:01Z</time>
      </trkpt>
      <trkpt lat="45.35241" lon="3.90345">
        <ele>808</ele>
        <time>2021-04-15T08:46:02Z</time>
      </trkpt>
      <trkpt lat="45.35243" lon="3.90348">
        <ele>809</ele>
        <time>2021-04-15T08:46:03Z</time>
      </trkpt>
      <trkpt lat="45.35245" lon="3.90352">
        <ele>809</ele>
        <time>2021-04-15T08:46:04Z</time>
      </trkpt>
      <trkpt lat="45.35247" lon="3.90356">
        <ele>809</ele>
        <time>2021-04-15T08:46:05Z</time>
      </trkpt>
      <trkpt lat="45.35248" lon="3.9036">
        <ele>810</ele>
        <time>2021-04-15T08:46:06Z</time>
      </trkpt>
      <trkpt lat="45.35253" lon="3.90371">
        <ele>811</ele>
        <time>2021-04-15T08:46:09Z</time>
      </trkpt>
      <trkpt lat="45.35255" lon="3.90374">
        <ele>812</ele>
        <time>2021-04-15T08:46:10Z</time>
      </trkpt>
      <trkpt lat="45.35257" lon="3.90377">
        <ele>812</ele>
        <time>2021-04-15T08:46:11Z</time>
      </trkpt>
      <trkpt lat="45.3526" lon="3.9038">
        <ele>812</ele>
        <time>2021-04-15T08:46:12Z</time>
      </trkpt>
      <trkpt lat="45.35261" lon="3.90383">
        <ele>813</ele>
        <time>2021-04-15T08:46:13Z</time>
      </trkpt>
      <trkpt lat="45.35263" lon="3.90387">
        <ele>813</ele>
        <time>2021-04-15T08:46:14Z</time>
      </trkpt>
      <trkpt lat="45.35265" lon="3.90391">
        <ele>813</ele>
        <time>2021-04-15T08:46:15Z</time>
      </trkpt>
      <trkpt lat="45.35267" lon="3.90395">
        <ele>814</ele>
        <time>2021-04-15T08:46:16Z</time>
      </trkpt>
      <trkpt lat="45.3527" lon="3.90398">
        <ele>814</ele>
        <time>2021-04-15T08:46:17Z</time>
      </trkpt>
      <trkpt lat="45.35272" lon="3.90402">
        <ele>814</ele>
        <time>2021-04-15T08:46:18Z</time>
      </trkpt>
      <trkpt lat="45.35273" lon="3.90405">
        <ele>815</ele>
        <time>2021-04-15T08:46:19Z</time>
      </trkpt>
      <trkpt lat="45.35275" lon="3.90407">
        <ele>815</ele>
        <time>2021-04-15T08:46:20Z</time>
      </trkpt>
      <trkpt lat="45.35277" lon="3.9041">
        <ele>815</ele>
        <time>2021-04-15T08:46:21Z</time>
      </trkpt>
      <trkpt lat="45.35279" lon="3.90413">
        <ele>816</ele>
        <time>2021-04-15T08:46:22Z</time>
      </trkpt>
      <trkpt lat="45.35282" lon="3.90416">
        <ele>816</ele>
        <time>2021-04-15T08:46:23Z</time>
      </trkpt>
      <trkpt lat="45.35285" lon="3.9042">
        <ele>816</ele>
        <time>2021-04-15T08:46:24Z</time>
      </trkpt>
      <trkpt lat="45.35288" lon="3.90422">
        <ele>816</ele>
        <time>2021-04-15T08:46:25Z</time>
      </trkpt>
      <trkpt lat="45.3529" lon="3.90424">
        <ele>817</ele>
        <time>2021-04-15T08:46:26Z</time>
      </trkpt>
      <trkpt lat="45.35292" lon="3.90427">
        <ele>817</ele>
        <time>2021-04-15T08:46:27Z</time>
      </trkpt>
      <trkpt lat="45.35294" lon="3.9043">
        <ele>817</ele>
        <time>2021-04-15T08:46:28Z</time>
      </trkpt>
      <trkpt lat="45.35297" lon="3.90433">
        <ele>818</ele>
        <time>2021-04-15T08:46:29Z</time>
      </trkpt>
      <trkpt lat="45.35299" lon="3.90437">
        <ele>818</ele>
        <time>2021-04-15T08:46:30Z</time>
      </trkpt>
      <trkpt lat="45.35301" lon="3.90442">
        <ele>819</ele>
        <time>2021-04-15T08:46:31Z</time>
      </trkpt>
      <trkpt lat="45.35304" lon="3.90446">
        <ele>819</ele>
        <time>2021-04-15T08:46:32Z</time>
      </trkpt>
      <trkpt lat="45.35306" lon="3.9045">
        <ele>820</ele>
        <time>2021-04-15T08:46:33Z</time>
      </trkpt>
      <trkpt lat="45.35308" lon="3.90453">
        <ele>821</ele>
        <time>2021-04-15T08:46:34Z</time>
      </trkpt>
      <trkpt lat="45.3531" lon="3.90458">
        <ele>822</ele>
        <time>2021-04-15T08:46:35Z</time>
      </trkpt>
      <trkpt lat="45.35312" lon="3.90462">
        <ele>822</ele>
        <time>2021-04-15T08:46:36Z</time>
      </trkpt>
      <trkpt lat="45.35314" lon="3.90465">
        <ele>823</ele>
        <time>2021-04-15T08:46:37Z</time>
      </trkpt>
      <trkpt lat="45.35315" lon="3.90469">
        <ele>824</ele>
        <time>2021-04-15T08:46:38Z</time>
      </trkpt>
      <trkpt lat="45.35316" lon="3.90472">
        <ele>824</ele>
        <time>2021-04-15T08:46:39Z</time>
      </trkpt>
      <trkpt lat="45.35317" lon="3.90476">
        <ele>825</ele>
        <time>2021-04-15T08:46:40Z</time>
      </trkpt>
      <trkpt lat="45.35318" lon="3.90485">
        <ele>825</ele>
        <time>2021-04-15T08:46:42Z</time>
      </trkpt>
      <trkpt lat="45.35319" lon="3.90489">
        <ele>827</ele>
        <time>2021-04-15T08:46:44Z</time>
      </trkpt>
      <trkpt lat="45.35319" lon="3.90493">
        <ele>828</ele>
        <time>2021-04-15T08:46:45Z</time>
      </trkpt>
      <trkpt lat="45.3532" lon="3.90497">
        <ele>829</ele>
        <time>2021-04-15T08:46:46Z</time>
      </trkpt>
      <trkpt lat="45.35321" lon="3.90503">
        <ele>829</ele>
        <time>2021-04-15T08:46:47Z</time>
      </trkpt>
      <trkpt lat="45.35322" lon="3.90509">
        <ele>830</ele>
        <time>2021-04-15T08:46:48Z</time>
      </trkpt>
      <trkpt lat="45.35323" lon="3.90514">
        <ele>830</ele>
        <time>2021-04-15T08:46:49Z</time>
      </trkpt>
      <trkpt lat="45.35324" lon="3.9052">
        <ele>831</ele>
        <time>2021-04-15T08:46:50Z</time>
      </trkpt>
      <trkpt lat="45.35325" lon="3.90524">
        <ele>832</ele>
        <time>2021-04-15T08:46:51Z</time>
      </trkpt>
      <trkpt lat="45.35326" lon="3.9053">
        <ele>832</ele>
        <time>2021-04-15T08:46:52Z</time>
      </trkpt>
      <trkpt lat="45.35326" lon="3.90534">
        <ele>833</ele>
        <time>2021-04-15T08:46:53Z</time>
      </trkpt>
      <trkpt lat="45.35327" lon="3.90539">
        <ele>833</ele>
        <time>2021-04-15T08:46:54Z</time>
      </trkpt>
      <trkpt lat="45.35327" lon="3.90544">
        <ele>834</ele>
        <time>2021-04-15T08:46:55Z</time>
      </trkpt>
      <trkpt lat="45.35327" lon="3.90548">
        <ele>834</ele>
        <time>2021-04-15T08:46:56Z</time>
      </trkpt>
      <trkpt lat="45.35326" lon="3.90558">
        <ele>835</ele>
        <time>2021-04-15T08:46:57Z</time>
      </trkpt>
      <trkpt lat="45.35325" lon="3.90567">
        <ele>836</ele>
        <time>2021-04-15T08:46:59Z</time>
      </trkpt>
      <trkpt lat="45.35324" lon="3.90571">
        <ele>837</ele>
        <time>2021-04-15T08:47:01Z</time>
      </trkpt>
      <trkpt lat="45.35324" lon="3.90576">
        <ele>837</ele>
        <time>2021-04-15T08:47:02Z</time>
      </trkpt>
      <trkpt lat="45.35324" lon="3.9058">
        <ele>838</ele>
        <time>2021-04-15T08:47:03Z</time>
      </trkpt>
      <trkpt lat="45.35325" lon="3.90584">
        <ele>838</ele>
        <time>2021-04-15T08:47:04Z</time>
      </trkpt>
      <trkpt lat="45.35326" lon="3.90589">
        <ele>839</ele>
        <time>2021-04-15T08:47:05Z</time>
      </trkpt>
      <trkpt lat="45.35327" lon="3.90594">
        <ele>839</ele>
        <time>2021-04-15T08:47:06Z</time>
      </trkpt>
      <trkpt lat="45.35328" lon="3.90599">
        <ele>840</ele>
        <time>2021-04-15T08:47:07Z</time>
      </trkpt>
      <trkpt lat="45.35329" lon="3.90604">
        <ele>840</ele>
        <time>2021-04-15T08:47:08Z</time>
      </trkpt>
      <trkpt lat="45.3533" lon="3.90609">
        <ele>840</ele>
        <time>2021-04-15T08:47:09Z</time>
      </trkpt>
      <trkpt lat="45.35331" lon="3.90613">
        <ele>841</ele>
        <time>2021-04-15T08:47:10Z</time>
      </trkpt>
      <trkpt lat="45.35334" lon="3.90622">
        <ele>842</ele>
        <time>2021-04-15T08:47:11Z</time>
      </trkpt>
      <trkpt lat="45.35335" lon="3.90625">
        <ele>843</ele>
        <time>2021-04-15T08:47:13Z</time>
      </trkpt>
      <trkpt lat="45.35336" lon="3.90629">
        <ele>844</ele>
        <time>2021-04-15T08:47:14Z</time>
      </trkpt>
      <trkpt lat="45.35338" lon="3.90634">
        <ele>845</ele>
        <time>2021-04-15T08:47:15Z</time>
      </trkpt>
      <trkpt lat="45.35339" lon="3.90638">
        <ele>846</ele>
        <time>2021-04-15T08:47:16Z</time>
      </trkpt>
      <trkpt lat="45.3534" lon="3.90643">
        <ele>846</ele>
        <time>2021-04-15T08:47:17Z</time>
      </trkpt>
      <trkpt lat="45.35343" lon="3.90651">
        <ele>847</ele>
        <time>2021-04-15T08:47:18Z</time>
      </trkpt>
      <trkpt lat="45.35345" lon="3.90655">
        <ele>847</ele>
        <time>2021-04-15T08:47:19Z</time>
      </trkpt>
      <trkpt lat="45.35347" lon="3.90659">
        <ele>848</ele>
        <time>2021-04-15T08:47:20Z</time>
      </trkpt>
      <trkpt lat="45.35348" lon="3.90664">
        <ele>849</ele>
        <time>2021-04-15T08:47:21Z</time>
      </trkpt>
      <trkpt lat="45.35349" lon="3.90667">
        <ele>849</ele>
        <time>2021-04-15T08:47:22Z</time>
      </trkpt>
      <trkpt lat="45.3535" lon="3.9067">
        <ele>850</ele>
        <time>2021-04-15T08:47:23Z</time>
      </trkpt>
      <trkpt lat="45.35351" lon="3.90674">
        <ele>850</ele>
        <time>2021-04-15T08:47:24Z</time>
      </trkpt>
      <trkpt lat="45.35352" lon="3.90677">
        <ele>851</ele>
        <time>2021-04-15T08:47:25Z</time>
      </trkpt>
      <trkpt lat="45.35353" lon="3.9068">
        <ele>851</ele>
        <time>2021-04-15T08:47:26Z</time>
      </trkpt>
      <trkpt lat="45.35354" lon="3.90684">
        <ele>852</ele>
        <time>2021-04-15T08:47:27Z</time>
      </trkpt>
      <trkpt lat="45.35354" lon="3.90688">
        <ele>852</ele>
        <time>2021-04-15T08:47:28Z</time>
      </trkpt>
      <trkpt lat="45.35354" lon="3.90692">
        <ele>853</ele>
        <time>2021-04-15T08:47:29Z</time>
      </trkpt>
      <trkpt lat="45.35355" lon="3.90696">
        <ele>853</ele>
        <time>2021-04-15T08:47:30Z</time>
      </trkpt>
      <trkpt lat="45.35355" lon="3.90701">
        <ele>853</ele>
        <time>2021-04-15T08:47:31Z</time>
      </trkpt>
      <trkpt lat="45.35355" lon="3.90706">
        <ele>854</ele>
        <time>2021-04-15T08:47:32Z</time>
      </trkpt>
      <trkpt lat="45.35354" lon="3.9071">
        <ele>854</ele>
        <time>2021-04-15T08:47:33Z</time>
      </trkpt>
      <trkpt lat="45.35353" lon="3.90715">
        <ele>855</ele>
        <time>2021-04-15T08:47:34Z</time>
      </trkpt>
      <trkpt lat="45.35352" lon="3.90719">
        <ele>855</ele>
        <time>2021-04-15T08:47:35Z</time>
      </trkpt>
      <trkpt lat="45.35351" lon="3.90724">
        <ele>856</ele>
        <time>2021-04-15T08:47:36Z</time>
      </trkpt>
      <trkpt lat="45.35349" lon="3.90729">
        <ele>856</ele>
        <time>2021-04-15T08:47:37Z</time>
      </trkpt>
      <trkpt lat="45.35348" lon="3.90734">
        <ele>857</ele>
        <time>2021-04-15T08:47:39Z</time>
      </trkpt>
      <trkpt lat="45.35346" lon="3.90739">
        <ele>857</ele>
        <time>2021-04-15T08:47:40Z</time>
      </trkpt>
      <trkpt lat="45.35345" lon="3.90744">
        <ele>857</ele>
        <time>2021-04-15T08:47:41Z</time>
      </trkpt>
      <trkpt lat="45.35343" lon="3.90749">
        <ele>858</ele>
        <time>2021-04-15T08:47:42Z</time>
      </trkpt>
      <trkpt lat="45.35341" lon="3.90759">
        <ele>859</ele>
        <time>2021-04-15T08:47:43Z</time>
      </trkpt>
      <trkpt lat="45.3534" lon="3.90764">
        <ele>860</ele>
        <time>2021-04-15T08:47:45Z</time>
      </trkpt>
      <trkpt lat="45.35339" lon="3.90768">
        <ele>860</ele>
        <time>2021-04-15T08:47:46Z</time>
      </trkpt>
      <trkpt lat="45.35339" lon="3.90772">
        <ele>860</ele>
        <time>2021-04-15T08:47:47Z</time>
      </trkpt>
      <trkpt lat="45.35338" lon="3.90777">
        <ele>861</ele>
        <time>2021-04-15T08:47:48Z</time>
      </trkpt>
      <trkpt lat="45.35339" lon="3.90781">
        <ele>862</ele>
        <time>2021-04-15T08:47:49Z</time>
      </trkpt>
      <trkpt lat="45.35339" lon="3.90786">
        <ele>862</ele>
        <time>2021-04-15T08:47:50Z</time>
      </trkpt>
      <trkpt lat="45.3534" lon="3.9079">
        <ele>863</ele>
        <time>2021-04-15T08:47:51Z</time>
      </trkpt>
      <trkpt lat="45.35341" lon="3.90794">
        <ele>864</ele>
        <time>2021-04-15T08:47:52Z</time>
      </trkpt>
      <trkpt lat="45.35341" lon="3.90799">
        <ele>864</ele>
        <time>2021-04-15T08:47:53Z</time>
      </trkpt>
      <trkpt lat="45.35342" lon="3.90803">
        <ele>865</ele>
        <time>2021-04-15T08:47:54Z</time>
      </trkpt>
      <trkpt lat="45.35343" lon="3.90807">
        <ele>866</ele>
        <time>2021-04-15T08:47:55Z</time>
      </trkpt>
      <trkpt lat="45.35343" lon="3.90815">
        <ele>866</ele>
        <time>2021-04-15T08:47:56Z</time>
      </trkpt>
      <trkpt lat="45.35344" lon="3.90818">
        <ele>867</ele>
        <time>2021-04-15T08:47:57Z</time>
      </trkpt>
      <trkpt lat="45.35344" lon="3.90822">
        <ele>867</ele>
        <time>2021-04-15T08:47:58Z</time>
      </trkpt>
      <trkpt lat="45.35345" lon="3.90827">
        <ele>867</ele>
        <time>2021-04-15T08:47:59Z</time>
      </trkpt>
      <trkpt lat="45.35346" lon="3.90832">
        <ele>868</ele>
        <time>2021-04-15T08:48:01Z</time>
      </trkpt>
      <trkpt lat="45.35347" lon="3.90837">
        <ele>869</ele>
        <time>2021-04-15T08:48:02Z</time>
      </trkpt>
      <trkpt lat="45.35348" lon="3.90842">
        <ele>869</ele>
        <time>2021-04-15T08:48:03Z</time>
      </trkpt>
      <trkpt lat="45.35349" lon="3.90847">
        <ele>869</ele>
        <time>2021-04-15T08:48:04Z</time>
      </trkpt>
      <trkpt lat="45.35349" lon="3.90852">
        <ele>870</ele>
        <time>2021-04-15T08:48:05Z</time>
      </trkpt>
      <trkpt lat="45.3535" lon="3.90857">
        <ele>870</ele>
        <time>2021-04-15T08:48:06Z</time>
      </trkpt>
      <trkpt lat="45.3535" lon="3.90861">
        <ele>871</ele>
        <time>2021-04-15T08:48:07Z</time>
      </trkpt>
      <trkpt lat="45.35351" lon="3.90865">
        <ele>871</ele>
        <time>2021-04-15T08:48:08Z</time>
      </trkpt>
      <trkpt lat="45.35351" lon="3.90869">
        <ele>872</ele>
        <time>2021-04-15T08:48:09Z</time>
      </trkpt>
      <trkpt lat="45.35351" lon="3.90874">
        <ele>872</ele>
        <time>2021-04-15T08:48:10Z</time>
      </trkpt>
      <trkpt lat="45.35352" lon="3.90879">
        <ele>872</ele>
        <time>2021-04-15T08:48:11Z</time>
      </trkpt>
      <trkpt lat="45.35352" lon="3.90884">
        <ele>873</ele>
        <time>2021-04-15T08:48:12Z</time>
      </trkpt>
      <trkpt lat="45.35353" lon="3.90894">
        <ele>873</ele>
        <time>2021-04-15T08:48:13Z</time>
      </trkpt>
      <trkpt lat="45.35354" lon="3.90905">
        <ele>874</ele>
        <time>2021-04-15T08:48:15Z</time>
      </trkpt>
      <trkpt lat="45.35355" lon="3.9091">
        <ele>874</ele>
        <time>2021-04-15T08:48:16Z</time>
      </trkpt>
      <trkpt lat="45.35355" lon="3.90915">
        <ele>875</ele>
        <time>2021-04-15T08:48:17Z</time>
      </trkpt>
      <trkpt lat="45.35355" lon="3.9092">
        <ele>875</ele>
        <time>2021-04-15T08:48:18Z</time>
      </trkpt>
      <trkpt lat="45.35355" lon="3.90926">
        <ele>875</ele>
        <time>2021-04-15T08:48:19Z</time>
      </trkpt>
      <trkpt lat="45.35355" lon="3.90931">
        <ele>876</ele>
        <time>2021-04-15T08:48:20Z</time>
      </trkpt>
      <trkpt lat="45.35355" lon="3.90936">
        <ele>877</ele>
        <time>2021-04-15T08:48:21Z</time>
      </trkpt>
      <trkpt lat="45.35355" lon="3.90942">
        <ele>877</ele>
        <time>2021-04-15T08:48:22Z</time>
      </trkpt>
      <trkpt lat="45.35356" lon="3.90947">
        <ele>878</ele>
        <time>2021-04-15T08:48:23Z</time>
      </trkpt>
      <trkpt lat="45.35356" lon="3.90953">
        <ele>878</ele>
        <time>2021-04-15T08:48:24Z</time>
      </trkpt>
      <trkpt lat="45.35356" lon="3.90958">
        <ele>879</ele>
        <time>2021-04-15T08:48:25Z</time>
      </trkpt>
      <trkpt lat="45.35357" lon="3.90963">
        <ele>879</ele>
        <time>2021-04-15T08:48:26Z</time>
      </trkpt>
      <trkpt lat="45.35357" lon="3.90968">
        <ele>880</ele>
        <time>2021-04-15T08:48:27Z</time>
      </trkpt>
      <trkpt lat="45.35357" lon="3.90973">
        <ele>881</ele>
        <time>2021-04-15T08:48:28Z</time>
      </trkpt>
      <trkpt lat="45.35357" lon="3.90979">
        <ele>881</ele>
        <time>2021-04-15T08:48:29Z</time>
      </trkpt>
      <trkpt lat="45.35358" lon="3.90984">
        <ele>882</ele>
        <time>2021-04-15T08:48:30Z</time>
      </trkpt>
      <trkpt lat="45.35358" lon="3.90989">
        <ele>882</ele>
        <time>2021-04-15T08:48:31Z</time>
      </trkpt>
      <trkpt lat="45.35358" lon="3.90994">
        <ele>882</ele>
        <time>2021-04-15T08:48:32Z</time>
      </trkpt>
      <trkpt lat="45.35358" lon="3.90999">
        <ele>883</ele>
        <time>2021-04-15T08:48:33Z</time>
      </trkpt>
      <trkpt lat="45.35359" lon="3.91003">
        <ele>883</ele>
        <time>2021-04-15T08:48:34Z</time>
      </trkpt>
      <trkpt lat="45.35359" lon="3.91008">
        <ele>884</ele>
        <time>2021-04-15T08:48:36Z</time>
      </trkpt>
      <trkpt lat="45.35359" lon="3.91013">
        <ele>885</ele>
        <time>2021-04-15T08:48:37Z</time>
      </trkpt>
      <trkpt lat="45.35359" lon="3.91018">
        <ele>885</ele>
        <time>2021-04-15T08:48:38Z</time>
      </trkpt>
      <trkpt lat="45.35359" lon="3.91023">
        <ele>886</ele>
        <time>2021-04-15T08:48:39Z</time>
      </trkpt>
      <trkpt lat="45.35359" lon="3.91027">
        <ele>886</ele>
        <time>2021-04-15T08:48:40Z</time>
      </trkpt>
      <trkpt lat="45.35359" lon="3.9103">
        <ele>886</ele>
        <time>2021-04-15T08:48:41Z</time>
      </trkpt>
      <trkpt lat="45.3536" lon="3.91038">
        <ele>887</ele>
        <time>2021-04-15T08:48:42Z</time>
      </trkpt>
      <trkpt lat="45.3536" lon="3.91042">
        <ele>887</ele>
        <time>2021-04-15T08:48:44Z</time>
      </trkpt>
      <trkpt lat="45.3536" lon="3.91046">
        <ele>888</ele>
        <time>2021-04-15T08:48:45Z</time>
      </trkpt>
      <trkpt lat="45.3536" lon="3.9105">
        <ele>888</ele>
        <time>2021-04-15T08:48:46Z</time>
      </trkpt>
      <trkpt lat="45.3536" lon="3.91055">
        <ele>888</ele>
        <time>2021-04-15T08:48:47Z</time>
      </trkpt>
      <trkpt lat="45.35359" lon="3.91058">
        <ele>888</ele>
        <time>2021-04-15T08:48:48Z</time>
      </trkpt>
      <trkpt lat="45.35358" lon="3.91062">
        <ele>888</ele>
        <time>2021-04-15T08:48:49Z</time>
      </trkpt>
      <trkpt lat="45.35357" lon="3.91064">
        <ele>888</ele>
        <time>2021-04-15T08:48:50Z</time>
      </trkpt>
      <trkpt lat="45.35358" lon="3.91069">
        <ele>889</ele>
        <time>2021-04-15T08:48:52Z</time>
      </trkpt>
      <trkpt lat="45.3536" lon="3.91071">
        <ele>889</ele>
        <time>2021-04-15T08:48:53Z</time>
      </trkpt>
      <trkpt lat="45.35362" lon="3.91072">
        <ele>889</ele>
        <time>2021-04-15T08:48:55Z</time>
      </trkpt>
      <trkpt lat="45.35364" lon="3.91073">
        <ele>889</ele>
        <time>2021-04-15T08:48:57Z</time>
      </trkpt>
      <trkpt lat="45.35363" lon="3.91077">
        <ele>890</ele>
        <time>2021-04-15T08:48:59Z</time>
      </trkpt>
      <trkpt lat="45.35362" lon="3.9108">
        <ele>890</ele>
        <time>2021-04-15T08:49:01Z</time>
      </trkpt>
      <trkpt lat="45.35361" lon="3.91084">
        <ele>890</ele>
        <time>2021-04-15T08:49:03Z</time>
      </trkpt>
      <trkpt lat="45.35359" lon="3.91089">
        <ele>891</ele>
        <time>2021-04-15T08:49:05Z</time>
      </trkpt>
      <trkpt lat="45.35359" lon="3.91092">
        <ele>891</ele>
        <time>2021-04-15T08:49:06Z</time>
      </trkpt>
      <trkpt lat="45.35359" lon="3.91095">
        <ele>891</ele>
        <time>2021-04-15T08:49:07Z</time>
      </trkpt>
      <trkpt lat="45.3536" lon="3.91098">
        <ele>891</ele>
        <time>2021-04-15T08:49:08Z</time>
      </trkpt>
      <trkpt lat="45.3536" lon="3.91101">
        <ele>891</ele>
        <time>2021-04-15T08:49:09Z</time>
      </trkpt>
      <trkpt lat="45.3536" lon="3.91105">
        <ele>891</ele>
        <time>2021-04-15T08:49:10Z</time>
      </trkpt>
      <trkpt lat="45.35361" lon="3.91109">
        <ele>891</ele>
        <time>2021-04-15T08:49:11Z</time>
      </trkpt>
      <trkpt lat="45.35361" lon="3.91113">
        <ele>891</ele>
        <time>2021-04-15T08:49:12Z</time>
      </trkpt>
      <trkpt lat="45.35362" lon="3.91118">
        <ele>892</ele>
        <time>2021-04-15T08:49:14Z</time>
      </trkpt>
      <trkpt lat="45.35362" lon="3.91123">
        <ele>892</ele>
        <time>2021-04-15T08:49:15Z</time>
      </trkpt>
      <trkpt lat="45.35363" lon="3.91128">
        <ele>892</ele>
        <time>2021-04-15T08:49:16Z</time>
      </trkpt>
      <trkpt lat="45.35363" lon="3.91133">
        <ele>892</ele>
        <time>2021-04-15T08:49:17Z</time>
      </trkpt>
      <trkpt lat="45.35363" lon="3.91138">
        <ele>892</ele>
        <time>2021-04-15T08:49:18Z</time>
      </trkpt>
      <trkpt lat="45.35362" lon="3.91143">
        <ele>892</ele>
        <time>2021-04-15T08:49:19Z</time>
      </trkpt>
      <trkpt lat="45.3536" lon="3.91147">
        <ele>892</ele>
        <time>2021-04-15T08:49:20Z</time>
      </trkpt>
      <trkpt lat="45.35358" lon="3.91151">
        <ele>893</ele>
        <time>2021-04-15T08:49:21Z</time>
      </trkpt>
      <trkpt lat="45.35356" lon="3.91155">
        <ele>893</ele>
        <time>2021-04-15T08:49:22Z</time>
      </trkpt>
      <trkpt lat="45.35354" lon="3.9116">
        <ele>893</ele>
        <time>2021-04-15T08:49:23Z</time>
      </trkpt>
      <trkpt lat="45.35349" lon="3.91169">
        <ele>893</ele>
        <time>2021-04-15T08:49:24Z</time>
      </trkpt>
      <trkpt lat="45.35347" lon="3.91174">
        <ele>893</ele>
        <time>2021-04-15T08:49:26Z</time>
      </trkpt>
      <trkpt lat="45.35345" lon="3.91179">
        <ele>893</ele>
        <time>2021-04-15T08:49:27Z</time>
      </trkpt>
      <trkpt lat="45.35343" lon="3.91183">
        <ele>893</ele>
        <time>2021-04-15T08:49:28Z</time>
      </trkpt>
      <trkpt lat="45.35341" lon="3.91188">
        <ele>893</ele>
        <time>2021-04-15T08:49:29Z</time>
      </trkpt>
      <trkpt lat="45.35339" lon="3.91194">
        <ele>893</ele>
        <time>2021-04-15T08:49:30Z</time>
      </trkpt>
      <trkpt lat="45.35335" lon="3.91205">
        <ele>893</ele>
        <time>2021-04-15T08:49:31Z</time>
      </trkpt>
      <trkpt lat="45.35333" lon="3.9121">
        <ele>893</ele>
        <time>2021-04-15T08:49:32Z</time>
      </trkpt>
      <trkpt lat="45.3533" lon="3.91216">
        <ele>894</ele>
        <time>2021-04-15T08:49:33Z</time>
      </trkpt>
      <trkpt lat="45.35328" lon="3.91222">
        <ele>894</ele>
        <time>2021-04-15T08:49:34Z</time>
      </trkpt>
      <trkpt lat="45.35326" lon="3.91228">
        <ele>894</ele>
        <time>2021-04-15T08:49:35Z</time>
      </trkpt>
      <trkpt lat="45.35324" lon="3.91234">
        <ele>894</ele>
        <time>2021-04-15T08:49:36Z</time>
      </trkpt>
      <trkpt lat="45.35322" lon="3.9124">
        <ele>894</ele>
        <time>2021-04-15T08:49:37Z</time>
      </trkpt>
      <trkpt lat="45.35321" lon="3.91246">
        <ele>895</ele>
        <time>2021-04-15T08:49:38Z</time>
      </trkpt>
      <trkpt lat="45.35319" lon="3.91251">
        <ele>895</ele>
        <time>2021-04-15T08:49:40Z</time>
      </trkpt>
      <trkpt lat="45.35317" lon="3.91257">
        <ele>895</ele>
        <time>2021-04-15T08:49:41Z</time>
      </trkpt>
      <trkpt lat="45.35316" lon="3.91263">
        <ele>895</ele>
        <time>2021-04-15T08:49:42Z</time>
      </trkpt>
      <trkpt lat="45.35314" lon="3.91269">
        <ele>895</ele>
        <time>2021-04-15T08:49:43Z</time>
      </trkpt>
      <trkpt lat="45.35312" lon="3.91275">
        <ele>896</ele>
        <time>2021-04-15T08:49:44Z</time>
      </trkpt>
      <trkpt lat="45.3531" lon="3.91281">
        <ele>896</ele>
        <time>2021-04-15T08:49:45Z</time>
      </trkpt>
      <trkpt lat="45.35308" lon="3.91287">
        <ele>896</ele>
        <time>2021-04-15T08:49:46Z</time>
      </trkpt>
      <trkpt lat="45.35304" lon="3.91298">
        <ele>896</ele>
        <time>2021-04-15T08:49:47Z</time>
      </trkpt>
      <trkpt lat="45.35302" lon="3.91303">
        <ele>896</ele>
        <time>2021-04-15T08:49:49Z</time>
      </trkpt>
      <trkpt lat="45.35298" lon="3.91313">
        <ele>896</ele>
        <time>2021-04-15T08:49:50Z</time>
      </trkpt>
      <trkpt lat="45.35296" lon="3.91317">
        <ele>896</ele>
        <time>2021-04-15T08:49:51Z</time>
      </trkpt>
      <trkpt lat="45.35295" lon="3.9132">
        <ele>896</ele>
        <time>2021-04-15T08:49:52Z</time>
      </trkpt>
      <trkpt lat="45.35294" lon="3.91323">
        <ele>896</ele>
        <time>2021-04-15T08:49:54Z</time>
      </trkpt>
      <trkpt lat="45.35294" lon="3.91324">
        <ele>896</ele>
        <time>2021-04-15T08:49:58Z</time>
      </trkpt>
      <trkpt lat="45.35284" lon="3.91332">
        <ele>896</ele>
        <time>2021-04-15T08:51:49Z</time>
      </trkpt>
      <trkpt lat="45.35282" lon="3.91333">
        <ele>896</ele>
        <time>2021-04-15T08:51:50Z</time>
      </trkpt>
      <trkpt lat="45.35279" lon="3.91335">
        <ele>895</ele>
        <time>2021-04-15T08:51:52Z</time>
      </trkpt>
      <trkpt lat="45.35277" lon="3.91337">
        <ele>895</ele>
        <time>2021-04-15T08:51:53Z</time>
      </trkpt>
      <trkpt lat="45.35274" lon="3.91339">
        <ele>895</ele>
        <time>2021-04-15T08:51:54Z</time>
      </trkpt>
      <trkpt lat="45.35271" lon="3.91341">
        <ele>895</ele>
        <time>2021-04-15T08:51:55Z</time>
      </trkpt>
      <trkpt lat="45.35268" lon="3.91343">
        <ele>895</ele>
        <time>2021-04-15T08:51:56Z</time>
      </trkpt>
      <trkpt lat="45.35259" lon="3.91346">
        <ele>895</ele>
        <time>2021-04-15T08:51:57Z</time>
      </trkpt>
      <trkpt lat="45.35255" lon="3.91348">
        <ele>895</ele>
        <time>2021-04-15T08:51:59Z</time>
      </trkpt>
      <trkpt lat="45.3525" lon="3.9135">
        <ele>894</ele>
        <time>2021-04-15T08:52:00Z</time>
      </trkpt>
      <trkpt lat="45.35246" lon="3.91352">
        <ele>894</ele>
        <time>2021-04-15T08:52:01Z</time>
      </trkpt>
      <trkpt lat="45.35241" lon="3.91354">
        <ele>894</ele>
        <time>2021-04-15T08:52:02Z</time>
      </trkpt>
      <trkpt lat="45.35237" lon="3.91355">
        <ele>894</ele>
        <time>2021-04-15T08:52:03Z</time>
      </trkpt>
      <trkpt lat="45.35233" lon="3.91357">
        <ele>894</ele>
        <time>2021-04-15T08:52:04Z</time>
      </trkpt>
      <trkpt lat="45.35229" lon="3.91359">
        <ele>894</ele>
        <time>2021-04-15T08:52:05Z</time>
      </trkpt>
      <trkpt lat="45.35225" lon="3.91362">
        <ele>894</ele>
        <time>2021-04-15T08:52:06Z</time>
      </trkpt>
      <trkpt lat="45.3522" lon="3.91364">
        <ele>893</ele>
        <time>2021-04-15T08:52:07Z</time>
      </trkpt>
      <trkpt lat="45.35211" lon="3.9137">
        <ele>893</ele>
        <time>2021-04-15T08:52:08Z</time>
      </trkpt>
      <trkpt lat="45.35207" lon="3.91373">
        <ele>893</ele>
        <time>2021-04-15T08:52:09Z</time>
      </trkpt>
      <trkpt lat="45.35202" lon="3.91377">
        <ele>893</ele>
        <time>2021-04-15T08:52:10Z</time>
      </trkpt>
      <trkpt lat="45.35198" lon="3.9138">
        <ele>893</ele>
        <time>2021-04-15T08:52:11Z</time>
      </trkpt>
      <trkpt lat="45.35193" lon="3.91383">
        <ele>893</ele>
        <time>2021-04-15T08:52:12Z</time>
      </trkpt>
      <trkpt lat="45.35189" lon="3.91386">
        <ele>893</ele>
        <time>2021-04-15T08:52:13Z</time>
      </trkpt>
      <trkpt lat="45.35185" lon="3.9139">
        <ele>893</ele>
        <time>2021-04-15T08:52:14Z</time>
      </trkpt>
      <trkpt lat="45.35181" lon="3.91393">
        <ele>893</ele>
        <time>2021-04-15T08:52:15Z</time>
      </trkpt>
      <trkpt lat="45.35177" lon="3.91396">
        <ele>893</ele>
        <time>2021-04-15T08:52:16Z</time>
      </trkpt>
      <trkpt lat="45.35173" lon="3.91399">
        <ele>893</ele>
        <time>2021-04-15T08:52:17Z</time>
      </trkpt>
      <trkpt lat="45.35169" lon="3.91403">
        <ele>893</ele>
        <time>2021-04-15T08:52:18Z</time>
      </trkpt>
      <trkpt lat="45.35165" lon="3.91406">
        <ele>893</ele>
        <time>2021-04-15T08:52:19Z</time>
      </trkpt>
      <trkpt lat="45.35162" lon="3.9141">
        <ele>893</ele>
        <time>2021-04-15T08:52:20Z</time>
      </trkpt>
      <trkpt lat="45.3516" lon="3.91414">
        <ele>893</ele>
        <time>2021-04-15T08:52:21Z</time>
      </trkpt>
      <trkpt lat="45.3516" lon="3.91419">
        <ele>893</ele>
        <time>2021-04-15T08:52:22Z</time>
      </trkpt>
      <trkpt lat="45.35162" lon="3.91425">
        <ele>893</ele>
        <time>2021-04-15T08:52:23Z</time>
      </trkpt>
      <trkpt lat="45.35163" lon="3.91429">
        <ele>893</ele>
        <time>2021-04-15T08:52:24Z</time>
      </trkpt>
      <trkpt lat="45.35165" lon="3.91434">
        <ele>893</ele>
        <time>2021-04-15T08:52:25Z</time>
      </trkpt>
      <trkpt lat="45.35166" lon="3.91438">
        <ele>892</ele>
        <time>2021-04-15T08:52:26Z</time>
      </trkpt>
      <trkpt lat="45.35168" lon="3.91441">
        <ele>892</ele>
        <time>2021-04-15T08:52:27Z</time>
      </trkpt>
      <trkpt lat="45.35169" lon="3.91445">
        <ele>892</ele>
        <time>2021-04-15T08:52:28Z</time>
      </trkpt>
      <trkpt lat="45.3517" lon="3.9145">
        <ele>892</ele>
        <time>2021-04-15T08:52:30Z</time>
      </trkpt>
      <trkpt lat="45.35172" lon="3.91455">
        <ele>892</ele>
        <time>2021-04-15T08:52:31Z</time>
      </trkpt>
      <trkpt lat="45.35176" lon="3.91467">
        <ele>892</ele>
        <time>2021-04-15T08:52:32Z</time>
      </trkpt>
      <trkpt lat="45.35178" lon="3.91473">
        <ele>892</ele>
        <time>2021-04-15T08:52:34Z</time>
      </trkpt>
      <trkpt lat="45.3518" lon="3.91479">
        <ele>892</ele>
        <time>2021-04-15T08:52:35Z</time>
      </trkpt>
      <trkpt lat="45.35182" lon="3.91485">
        <ele>892</ele>
        <time>2021-04-15T08:52:36Z</time>
      </trkpt>
      <trkpt lat="45.35183" lon="3.9149">
        <ele>892</ele>
        <time>2021-04-15T08:52:37Z</time>
      </trkpt>
      <trkpt lat="45.35185" lon="3.91496">
        <ele>892</ele>
        <time>2021-04-15T08:52:38Z</time>
      </trkpt>
      <trkpt lat="45.35186" lon="3.91502">
        <ele>892</ele>
        <time>2021-04-15T08:52:39Z</time>
      </trkpt>
      <trkpt lat="45.35187" lon="3.91508">
        <ele>892</ele>
        <time>2021-04-15T08:52:40Z</time>
      </trkpt>
      <trkpt lat="45.35189" lon="3.91515">
        <ele>891</ele>
        <time>2021-04-15T08:52:41Z</time>
      </trkpt>
      <trkpt lat="45.3519" lon="3.91521">
        <ele>891</ele>
        <time>2021-04-15T08:52:42Z</time>
      </trkpt>
      <trkpt lat="45.35192" lon="3.91534">
        <ele>891</ele>
        <time>2021-04-15T08:52:43Z</time>
      </trkpt>
      <trkpt lat="45.35193" lon="3.91541">
        <ele>890</ele>
        <time>2021-04-15T08:52:45Z</time>
      </trkpt>
      <trkpt lat="45.35194" lon="3.91547">
        <ele>890</ele>
        <time>2021-04-15T08:52:46Z</time>
      </trkpt>
      <trkpt lat="45.35197" lon="3.91561">
        <ele>890</ele>
        <time>2021-04-15T08:52:47Z</time>
      </trkpt>
      <trkpt lat="45.35199" lon="3.91568">
        <ele>890</ele>
        <time>2021-04-15T08:52:48Z</time>
      </trkpt>
      <trkpt lat="45.35201" lon="3.91574">
        <ele>890</ele>
        <time>2021-04-15T08:52:49Z</time>
      </trkpt>
      <trkpt lat="45.35204" lon="3.9158">
        <ele>889</ele>
        <time>2021-04-15T08:52:50Z</time>
      </trkpt>
      <trkpt lat="45.35208" lon="3.91585">
        <ele>889</ele>
        <time>2021-04-15T08:52:51Z</time>
      </trkpt>
      <trkpt lat="45.35211" lon="3.91588">
        <ele>889</ele>
        <time>2021-04-15T08:52:52Z</time>
      </trkpt>
      <trkpt lat="45.35216" lon="3.91592">
        <ele>889</ele>
        <time>2021-04-15T08:52:53Z</time>
      </trkpt>
      <trkpt lat="45.3522" lon="3.91595">
        <ele>889</ele>
        <time>2021-04-15T08:52:54Z</time>
      </trkpt>
      <trkpt lat="45.35223" lon="3.91597">
        <ele>889</ele>
        <time>2021-04-15T08:52:55Z</time>
      </trkpt>
      <trkpt lat="45.35226" lon="3.91599">
        <ele>889</ele>
        <time>2021-04-15T08:52:56Z</time>
      </trkpt>
      <trkpt lat="45.35228" lon="3.91602">
        <ele>889</ele>
        <time>2021-04-15T08:52:57Z</time>
      </trkpt>
      <trkpt lat="45.35229" lon="3.91605">
        <ele>889</ele>
        <time>2021-04-15T08:52:58Z</time>
      </trkpt>
      <trkpt lat="45.3523" lon="3.9161">
        <ele>889</ele>
        <time>2021-04-15T08:52:59Z</time>
      </trkpt>
      <trkpt lat="45.3523" lon="3.91617">
        <ele>889</ele>
        <time>2021-04-15T08:53:00Z</time>
      </trkpt>
      <trkpt lat="45.35231" lon="3.91624">
        <ele>889</ele>
        <time>2021-04-15T08:53:01Z</time>
      </trkpt>
      <trkpt lat="45.35232" lon="3.91632">
        <ele>889</ele>
        <time>2021-04-15T08:53:02Z</time>
      </trkpt>
      <trkpt lat="45.35232" lon="3.9164">
        <ele>889</ele>
        <time>2021-04-15T08:53:03Z</time>
      </trkpt>
      <trkpt lat="45.35232" lon="3.91649">
        <ele>888</ele>
        <time>2021-04-15T08:53:04Z</time>
      </trkpt>
      <trkpt lat="45.35232" lon="3.91657">
        <ele>888</ele>
        <time>2021-04-15T08:53:05Z</time>
      </trkpt>
      <trkpt lat="45.35232" lon="3.91665">
        <ele>888</ele>
        <time>2021-04-15T08:53:06Z</time>
      </trkpt>
      <trkpt lat="45.35232" lon="3.91673">
        <ele>888</ele>
        <time>2021-04-15T08:53:08Z</time>
      </trkpt>
      <trkpt lat="45.35231" lon="3.91681">
        <ele>887</ele>
        <time>2021-04-15T08:53:09Z</time>
      </trkpt>
      <trkpt lat="45.35231" lon="3.91689">
        <ele>887</ele>
        <time>2021-04-15T08:53:10Z</time>
      </trkpt>
      <trkpt lat="45.3523" lon="3.91696">
        <ele>887</ele>
        <time>2021-04-15T08:53:11Z</time>
      </trkpt>
      <trkpt lat="45.3523" lon="3.91704">
        <ele>887</ele>
        <time>2021-04-15T08:53:12Z</time>
      </trkpt>
      <trkpt lat="45.35228" lon="3.9172">
        <ele>887</ele>
        <time>2021-04-15T08:53:13Z</time>
      </trkpt>
      <trkpt lat="45.35228" lon="3.91728">
        <ele>886</ele>
        <time>2021-04-15T08:53:15Z</time>
      </trkpt>
      <trkpt lat="45.35228" lon="3.91735">
        <ele>886</ele>
        <time>2021-04-15T08:53:16Z</time>
      </trkpt>
      <trkpt lat="45.35227" lon="3.91743">
        <ele>886</ele>
        <time>2021-04-15T08:53:17Z</time>
      </trkpt>
      <trkpt lat="45.35227" lon="3.91751">
        <ele>885</ele>
        <time>2021-04-15T08:53:18Z</time>
      </trkpt>
      <trkpt lat="45.35228" lon="3.91759">
        <ele>885</ele>
        <time>2021-04-15T08:53:19Z</time>
      </trkpt>
      <trkpt lat="45.35229" lon="3.91776">
        <ele>885</ele>
        <time>2021-04-15T08:53:20Z</time>
      </trkpt>
      <trkpt lat="45.35229" lon="3.91792">
        <ele>884</ele>
        <time>2021-04-15T08:53:22Z</time>
      </trkpt>
      <trkpt lat="45.35229" lon="3.91801">
        <ele>884</ele>
        <time>2021-04-15T08:53:24Z</time>
      </trkpt>
      <trkpt lat="45.35227" lon="3.91817">
        <ele>883</ele>
        <time>2021-04-15T08:53:25Z</time>
      </trkpt>
      <trkpt lat="45.35226" lon="3.91825">
        <ele>883</ele>
        <time>2021-04-15T08:53:26Z</time>
      </trkpt>
      <trkpt lat="45.35224" lon="3.91833">
        <ele>883</ele>
        <time>2021-04-15T08:53:27Z</time>
      </trkpt>
      <trkpt lat="45.35222" lon="3.91842">
        <ele>882</ele>
        <time>2021-04-15T08:53:28Z</time>
      </trkpt>
      <trkpt lat="45.3522" lon="3.9185">
        <ele>882</ele>
        <time>2021-04-15T08:53:29Z</time>
      </trkpt>
      <trkpt lat="45.35218" lon="3.91858">
        <ele>882</ele>
        <time>2021-04-15T08:53:30Z</time>
      </trkpt>
      <trkpt lat="45.35216" lon="3.91867">
        <ele>882</ele>
        <time>2021-04-15T08:53:31Z</time>
      </trkpt>
      <trkpt lat="45.35214" lon="3.91875">
        <ele>881</ele>
        <time>2021-04-15T08:53:32Z</time>
      </trkpt>
      <trkpt lat="45.35212" lon="3.91884">
        <ele>881</ele>
        <time>2021-04-15T08:53:33Z</time>
      </trkpt>
      <trkpt lat="45.3521" lon="3.91892">
        <ele>881</ele>
        <time>2021-04-15T08:53:34Z</time>
      </trkpt>
      <trkpt lat="45.35208" lon="3.919">
        <ele>880</ele>
        <time>2021-04-15T08:53:35Z</time>
      </trkpt>
      <trkpt lat="45.35207" lon="3.91909">
        <ele>880</ele>
        <time>2021-04-15T08:53:36Z</time>
      </trkpt>
      <trkpt lat="45.35206" lon="3.91917">
        <ele>880</ele>
        <time>2021-04-15T08:53:37Z</time>
      </trkpt>
      <trkpt lat="45.35205" lon="3.91926">
        <ele>880</ele>
        <time>2021-04-15T08:53:38Z</time>
      </trkpt>
      <trkpt lat="45.35204" lon="3.91934">
        <ele>880</ele>
        <time>2021-04-15T08:53:39Z</time>
      </trkpt>
      <trkpt lat="45.35204" lon="3.91943">
        <ele>880</ele>
        <time>2021-04-15T08:53:40Z</time>
      </trkpt>
      <trkpt lat="45.35203" lon="3.91952">
        <ele>879</ele>
        <time>2021-04-15T08:53:41Z</time>
      </trkpt>
      <trkpt lat="45.35203" lon="3.9196">
        <ele>879</ele>
        <time>2021-04-15T08:53:42Z</time>
      </trkpt>
      <trkpt lat="45.35203" lon="3.91968">
        <ele>879</ele>
        <time>2021-04-15T08:53:43Z</time>
      </trkpt>
      <trkpt lat="45.35202" lon="3.92019">
        <ele>876</ele>
        <time>2021-04-15T08:54:58Z</time>
      </trkpt>
      <trkpt lat="45.35202" lon="3.92029">
        <ele>876</ele>
        <time>2021-04-15T08:54:59Z</time>
      </trkpt>
      <trkpt lat="45.35202" lon="3.92034">
        <ele>875</ele>
        <time>2021-04-15T08:55:00Z</time>
      </trkpt>
      <trkpt lat="45.35203" lon="3.9204">
        <ele>875</ele>
        <time>2021-04-15T08:55:01Z</time>
      </trkpt>
      <trkpt lat="45.35203" lon="3.92047">
        <ele>875</ele>
        <time>2021-04-15T08:55:02Z</time>
      </trkpt>
      <trkpt lat="45.35203" lon="3.92054">
        <ele>875</ele>
        <time>2021-04-15T08:55:03Z</time>
      </trkpt>
      <trkpt lat="45.35203" lon="3.92061">
        <ele>875</ele>
        <time>2021-04-15T08:55:04Z</time>
      </trkpt>
      <trkpt lat="45.35204" lon="3.92069">
        <ele>875</ele>
        <time>2021-04-15T08:55:05Z</time>
      </trkpt>
      <trkpt lat="45.35204" lon="3.92076">
        <ele>875</ele>
        <time>2021-04-15T08:55:06Z</time>
      </trkpt>
      <trkpt lat="45.35205" lon="3.92084">
        <ele>875</ele>
        <time>2021-04-15T08:55:07Z</time>
      </trkpt>
      <trkpt lat="45.35205" lon="3.92092">
        <ele>875</ele>
        <time>2021-04-15T08:55:08Z</time>
      </trkpt>
      <trkpt lat="45.35206" lon="3.92099">
        <ele>874</ele>
        <time>2021-04-15T08:55:09Z</time>
      </trkpt>
      <trkpt lat="45.35207" lon="3.92107">
        <ele>874</ele>
        <time>2021-04-15T08:55:10Z</time>
      </trkpt>
      <trkpt lat="45.35208" lon="3.92115">
        <ele>874</ele>
        <time>2021-04-15T08:55:11Z</time>
      </trkpt>
      <trkpt lat="45.35209" lon="3.92122">
        <ele>874</ele>
        <time>2021-04-15T08:55:12Z</time>
      </trkpt>
      <trkpt lat="45.3521" lon="3.92129">
        <ele>874</ele>
        <time>2021-04-15T08:55:13Z</time>
      </trkpt>
      <trkpt lat="45.35212" lon="3.92136">
        <ele>875</ele>
        <time>2021-04-15T08:55:14Z</time>
      </trkpt>
      <trkpt lat="45.35214" lon="3.92143">
        <ele>875</ele>
        <time>2021-04-15T08:55:15Z</time>
      </trkpt>
      <trkpt lat="45.35216" lon="3.9215">
        <ele>875</ele>
        <time>2021-04-15T08:55:16Z</time>
      </trkpt>
      <trkpt lat="45.35219" lon="3.92156">
        <ele>875</ele>
        <time>2021-04-15T08:55:17Z</time>
      </trkpt>
      <trkpt lat="45.35221" lon="3.92161">
        <ele>876</ele>
        <time>2021-04-15T08:55:19Z</time>
      </trkpt>
      <trkpt lat="45.35224" lon="3.92167">
        <ele>876</ele>
        <time>2021-04-15T08:55:20Z</time>
      </trkpt>
      <trkpt lat="45.35227" lon="3.92172">
        <ele>876</ele>
        <time>2021-04-15T08:55:21Z</time>
      </trkpt>
      <trkpt lat="45.35233" lon="3.92183">
        <ele>876</ele>
        <time>2021-04-15T08:55:22Z</time>
      </trkpt>
      <trkpt lat="45.35236" lon="3.92188">
        <ele>877</ele>
        <time>2021-04-15T08:55:24Z</time>
      </trkpt>
      <trkpt lat="45.35239" lon="3.92193">
        <ele>877</ele>
        <time>2021-04-15T08:55:25Z</time>
      </trkpt>
      <trkpt lat="45.35242" lon="3.92198">
        <ele>877</ele>
        <time>2021-04-15T08:55:26Z</time>
      </trkpt>
      <trkpt lat="45.35245" lon="3.92203">
        <ele>877</ele>
        <time>2021-04-15T08:55:27Z</time>
      </trkpt>
      <trkpt lat="45.35248" lon="3.92208">
        <ele>877</ele>
        <time>2021-04-15T08:55:28Z</time>
      </trkpt>
      <trkpt lat="45.35251" lon="3.92214">
        <ele>877</ele>
        <time>2021-04-15T08:55:29Z</time>
      </trkpt>
      <trkpt lat="45.35254" lon="3.92219">
        <ele>877</ele>
        <time>2021-04-15T08:55:30Z</time>
      </trkpt>
      <trkpt lat="45.35257" lon="3.92224">
        <ele>877</ele>
        <time>2021-04-15T08:55:31Z</time>
      </trkpt>
      <trkpt lat="45.35263" lon="3.92235">
        <ele>877</ele>
        <time>2021-04-15T08:55:32Z</time>
      </trkpt>
      <trkpt lat="45.35266" lon="3.9224">
        <ele>877</ele>
        <time>2021-04-15T08:55:34Z</time>
      </trkpt>
      <trkpt lat="45.35269" lon="3.92246">
        <ele>878</ele>
        <time>2021-04-15T08:55:35Z</time>
      </trkpt>
      <trkpt lat="45.35276" lon="3.92256">
        <ele>878</ele>
        <time>2021-04-15T08:55:36Z</time>
      </trkpt>
      <trkpt lat="45.35279" lon="3.92262">
        <ele>878</ele>
        <time>2021-04-15T08:55:37Z</time>
      </trkpt>
      <trkpt lat="45.35282" lon="3.92268">
        <ele>878</ele>
        <time>2021-04-15T08:55:38Z</time>
      </trkpt>
      <trkpt lat="45.35285" lon="3.92274">
        <ele>878</ele>
        <time>2021-04-15T08:55:39Z</time>
      </trkpt>
      <trkpt lat="45.35288" lon="3.9228">
        <ele>878</ele>
        <time>2021-04-15T08:55:40Z</time>
      </trkpt>
      <trkpt lat="45.3529" lon="3.92286">
        <ele>878</ele>
        <time>2021-04-15T08:55:41Z</time>
      </trkpt>
      <trkpt lat="45.35293" lon="3.92292">
        <ele>878</ele>
        <time>2021-04-15T08:55:42Z</time>
      </trkpt>
      <trkpt lat="45.35296" lon="3.92298">
        <ele>878</ele>
        <time>2021-04-15T08:55:43Z</time>
      </trkpt>
      <trkpt lat="45.35299" lon="3.92305">
        <ele>878</ele>
        <time>2021-04-15T08:55:44Z</time>
      </trkpt>
      <trkpt lat="45.35301" lon="3.92311">
        <ele>878</ele>
        <time>2021-04-15T08:55:45Z</time>
      </trkpt>
      <trkpt lat="45.35304" lon="3.92318">
        <ele>878</ele>
        <time>2021-04-15T08:55:46Z</time>
      </trkpt>
      <trkpt lat="45.35307" lon="3.92325">
        <ele>878</ele>
        <time>2021-04-15T08:55:47Z</time>
      </trkpt>
      <trkpt lat="45.35309" lon="3.92331">
        <ele>878</ele>
        <time>2021-04-15T08:55:48Z</time>
      </trkpt>
      <trkpt lat="45.35312" lon="3.92338">
        <ele>878</ele>
        <time>2021-04-15T08:55:49Z</time>
      </trkpt>
      <trkpt lat="45.35315" lon="3.92345">
        <ele>879</ele>
        <time>2021-04-15T08:55:50Z</time>
      </trkpt>
      <trkpt lat="45.35318" lon="3.92352">
        <ele>879</ele>
        <time>2021-04-15T08:55:51Z</time>
      </trkpt>
      <trkpt lat="45.35321" lon="3.92359">
        <ele>879</ele>
        <time>2021-04-15T08:55:52Z</time>
      </trkpt>
      <trkpt lat="45.35324" lon="3.92366">
        <ele>879</ele>
        <time>2021-04-15T08:55:53Z</time>
      </trkpt>
      <trkpt lat="45.35326" lon="3.92373">
        <ele>879</ele>
        <time>2021-04-15T08:55:54Z</time>
      </trkpt>
      <trkpt lat="45.35329" lon="3.9238">
        <ele>879</ele>
        <time>2021-04-15T08:55:55Z</time>
      </trkpt>
      <trkpt lat="45.35332" lon="3.92387">
        <ele>879</ele>
        <time>2021-04-15T08:55:57Z</time>
      </trkpt>
      <trkpt lat="45.35335" lon="3.92395">
        <ele>879</ele>
        <time>2021-04-15T08:55:58Z</time>
      </trkpt>
      <trkpt lat="45.35337" lon="3.92402">
        <ele>879</ele>
        <time>2021-04-15T08:55:59Z</time>
      </trkpt>
      <trkpt lat="45.35342" lon="3.92415">
        <ele>878</ele>
        <time>2021-04-15T08:56:00Z</time>
      </trkpt>
      <trkpt lat="45.35343" lon="3.9242">
        <ele>878</ele>
        <time>2021-04-15T08:56:02Z</time>
      </trkpt>
      <trkpt lat="45.35344" lon="3.92424">
        <ele>878</ele>
        <time>2021-04-15T08:56:03Z</time>
      </trkpt>
      <trkpt lat="45.35345" lon="3.92428">
        <ele>878</ele>
        <time>2021-04-15T08:56:04Z</time>
      </trkpt>
      <trkpt lat="45.35346" lon="3.92432">
        <ele>878</ele>
        <time>2021-04-15T08:56:05Z</time>
      </trkpt>
      <trkpt lat="45.35348" lon="3.92435">
        <ele>878</ele>
        <time>2021-04-15T08:56:06Z</time>
      </trkpt>
      <trkpt lat="45.35349" lon="3.92439">
        <ele>878</ele>
        <time>2021-04-15T08:56:07Z</time>
      </trkpt>
      <trkpt lat="45.35351" lon="3.92443">
        <ele>878</ele>
        <time>2021-04-15T08:56:08Z</time>
      </trkpt>
      <trkpt lat="45.35352" lon="3.92448">
        <ele>878</ele>
        <time>2021-04-15T08:56:09Z</time>
      </trkpt>
      <trkpt lat="45.35354" lon="3.92453">
        <ele>878</ele>
        <time>2021-04-15T08:56:10Z</time>
      </trkpt>
      <trkpt lat="45.35355" lon="3.92458">
        <ele>878</ele>
        <time>2021-04-15T08:56:11Z</time>
      </trkpt>
      <trkpt lat="45.35357" lon="3.92464">
        <ele>878</ele>
        <time>2021-04-15T08:56:12Z</time>
      </trkpt>
      <trkpt lat="45.35358" lon="3.92469">
        <ele>878</ele>
        <time>2021-04-15T08:56:13Z</time>
      </trkpt>
      <trkpt lat="45.35362" lon="3.92481">
        <ele>878</ele>
        <time>2021-04-15T08:56:14Z</time>
      </trkpt>
      <trkpt lat="45.35364" lon="3.92488">
        <ele>878</ele>
        <time>2021-04-15T08:56:16Z</time>
      </trkpt>
      <trkpt lat="45.35365" lon="3.92494">
        <ele>877</ele>
        <time>2021-04-15T08:56:17Z</time>
      </trkpt>
      <trkpt lat="45.35367" lon="3.92501">
        <ele>877</ele>
        <time>2021-04-15T08:56:18Z</time>
      </trkpt>
      <trkpt lat="45.3537" lon="3.92507">
        <ele>877</ele>
        <time>2021-04-15T08:56:19Z</time>
      </trkpt>
      <trkpt lat="45.35372" lon="3.92514">
        <ele>877</ele>
        <time>2021-04-15T08:56:20Z</time>
      </trkpt>
      <trkpt lat="45.35374" lon="3.92521">
        <ele>877</ele>
        <time>2021-04-15T08:56:21Z</time>
      </trkpt>
      <trkpt lat="45.35377" lon="3.92528">
        <ele>877</ele>
        <time>2021-04-15T08:56:22Z</time>
      </trkpt>
      <trkpt lat="45.35379" lon="3.92535">
        <ele>877</ele>
        <time>2021-04-15T08:56:23Z</time>
      </trkpt>
      <trkpt lat="45.35384" lon="3.9255">
        <ele>877</ele>
        <time>2021-04-15T08:56:24Z</time>
      </trkpt>
      <trkpt lat="45.35387" lon="3.92557">
        <ele>877</ele>
        <time>2021-04-15T08:56:26Z</time>
      </trkpt>
      <trkpt lat="45.3539" lon="3.92563">
        <ele>877</ele>
        <time>2021-04-15T08:56:27Z</time>
      </trkpt>
      <trkpt lat="45.35393" lon="3.92569">
        <ele>877</ele>
        <time>2021-04-15T08:56:28Z</time>
      </trkpt>
      <trkpt lat="45.35396" lon="3.92575">
        <ele>877</ele>
        <time>2021-04-15T08:56:29Z</time>
      </trkpt>
      <trkpt lat="45.354" lon="3.92581">
        <ele>877</ele>
        <time>2021-04-15T08:56:30Z</time>
      </trkpt>
      <trkpt lat="45.35404" lon="3.92586">
        <ele>877</ele>
        <time>2021-04-15T08:56:31Z</time>
      </trkpt>
      <trkpt lat="45.35408" lon="3.92592">
        <ele>876</ele>
        <time>2021-04-15T08:56:32Z</time>
      </trkpt>
      <trkpt lat="45.35415" lon="3.92603">
        <ele>876</ele>
        <time>2021-04-15T08:56:33Z</time>
      </trkpt>
      <trkpt lat="45.35419" lon="3.92608">
        <ele>877</ele>
        <time>2021-04-15T08:56:35Z</time>
      </trkpt>
      <trkpt lat="45.35422" lon="3.92614">
        <ele>877</ele>
        <time>2021-04-15T08:56:36Z</time>
      </trkpt>
      <trkpt lat="45.35424" lon="3.9262">
        <ele>877</ele>
        <time>2021-04-15T08:56:37Z</time>
      </trkpt>
      <trkpt lat="45.35427" lon="3.92627">
        <ele>877</ele>
        <time>2021-04-15T08:56:38Z</time>
      </trkpt>
      <trkpt lat="45.35429" lon="3.92633">
        <ele>877</ele>
        <time>2021-04-15T08:56:39Z</time>
      </trkpt>
      <trkpt lat="45.35431" lon="3.92639">
        <ele>878</ele>
        <time>2021-04-15T08:56:40Z</time>
      </trkpt>
      <trkpt lat="45.35433" lon="3.92645">
        <ele>878</ele>
        <time>2021-04-15T08:56:41Z</time>
      </trkpt>
      <trkpt lat="45.35435" lon="3.92651">
        <ele>878</ele>
        <time>2021-04-15T08:56:42Z</time>
      </trkpt>
      <trkpt lat="45.35438" lon="3.92661">
        <ele>879</ele>
        <time>2021-04-15T08:56:43Z</time>
      </trkpt>
      <trkpt lat="45.3544" lon="3.92666">
        <ele>879</ele>
        <time>2021-04-15T08:56:45Z</time>
      </trkpt>
      <trkpt lat="45.35442" lon="3.9267">
        <ele>880</ele>
        <time>2021-04-15T08:56:46Z</time>
      </trkpt>
      <trkpt lat="45.35444" lon="3.92673">
        <ele>880</ele>
        <time>2021-04-15T08:56:47Z</time>
      </trkpt>
      <trkpt lat="45.35446" lon="3.92675">
        <ele>880</ele>
        <time>2021-04-15T08:56:48Z</time>
      </trkpt>
      <trkpt lat="45.35448" lon="3.92677">
        <ele>880</ele>
        <time>2021-04-15T08:56:49Z</time>
      </trkpt>
      <trkpt lat="45.3545" lon="3.92678">
        <ele>881</ele>
        <time>2021-04-15T08:56:50Z</time>
      </trkpt>
      <trkpt lat="45.35456" lon="3.9268">
        <ele>881</ele>
        <time>2021-04-15T08:56:52Z</time>
      </trkpt>
      <trkpt lat="45.35459" lon="3.92679">
        <ele>881</ele>
        <time>2021-04-15T08:56:54Z</time>
      </trkpt>
      <trkpt lat="45.35463" lon="3.92677">
        <ele>881</ele>
        <time>2021-04-15T08:56:55Z</time>
      </trkpt>
      <trkpt lat="45.35466" lon="3.92675">
        <ele>882</ele>
        <time>2021-04-15T08:56:56Z</time>
      </trkpt>
      <trkpt lat="45.3547" lon="3.92673">
        <ele>882</ele>
        <time>2021-04-15T08:56:57Z</time>
      </trkpt>
      <trkpt lat="45.35473" lon="3.92671">
        <ele>882</ele>
        <time>2021-04-15T08:56:58Z</time>
      </trkpt>
      <trkpt lat="45.35479" lon="3.92666">
        <ele>882</ele>
        <time>2021-04-15T08:56:59Z</time>
      </trkpt>
      <trkpt lat="45.35482" lon="3.92665">
        <ele>882</ele>
        <time>2021-04-15T08:57:00Z</time>
      </trkpt>
      <trkpt lat="45.35486" lon="3.92663">
        <ele>882</ele>
        <time>2021-04-15T08:57:01Z</time>
      </trkpt>
      <trkpt lat="45.3549" lon="3.9266">
        <ele>882</ele>
        <time>2021-04-15T08:57:02Z</time>
      </trkpt>
      <trkpt lat="45.35494" lon="3.92658">
        <ele>883</ele>
        <time>2021-04-15T08:57:03Z</time>
      </trkpt>
      <trkpt lat="45.35498" lon="3.92657">
        <ele>883</ele>
        <time>2021-04-15T08:57:04Z</time>
      </trkpt>
      <trkpt lat="45.35502" lon="3.92655">
        <ele>883</ele>
        <time>2021-04-15T08:57:05Z</time>
      </trkpt>
      <trkpt lat="45.35506" lon="3.92654">
        <ele>883</ele>
        <time>2021-04-15T08:57:06Z</time>
      </trkpt>
      <trkpt lat="45.3551" lon="3.92653">
        <ele>883</ele>
        <time>2021-04-15T08:57:07Z</time>
      </trkpt>
      <trkpt lat="45.35514" lon="3.92653">
        <ele>884</ele>
        <time>2021-04-15T08:57:09Z</time>
      </trkpt>
      <trkpt lat="45.35518" lon="3.92653">
        <ele>884</ele>
        <time>2021-04-15T08:57:10Z</time>
      </trkpt>
      <trkpt lat="45.35525" lon="3.92653">
        <ele>884</ele>
        <time>2021-04-15T08:57:11Z</time>
      </trkpt>
      <trkpt lat="45.35529" lon="3.92654">
        <ele>884</ele>
        <time>2021-04-15T08:57:12Z</time>
      </trkpt>
      <trkpt lat="45.35533" lon="3.92655">
        <ele>885</ele>
        <time>2021-04-15T08:57:13Z</time>
      </trkpt>
      <trkpt lat="45.35537" lon="3.92658">
        <ele>885</ele>
        <time>2021-04-15T08:57:14Z</time>
      </trkpt>
      <trkpt lat="45.3554" lon="3.92662">
        <ele>885</ele>
        <time>2021-04-15T08:57:15Z</time>
      </trkpt>
      <trkpt lat="45.35542" lon="3.92668">
        <ele>885</ele>
        <time>2021-04-15T08:57:16Z</time>
      </trkpt>
      <trkpt lat="45.35543" lon="3.92675">
        <ele>885</ele>
        <time>2021-04-15T08:57:17Z</time>
      </trkpt>
      <trkpt lat="45.35544" lon="3.92681">
        <ele>885</ele>
        <time>2021-04-15T08:57:18Z</time>
      </trkpt>
      <trkpt lat="45.35545" lon="3.92687">
        <ele>885</ele>
        <time>2021-04-15T08:57:19Z</time>
      </trkpt>
      <trkpt lat="45.35546" lon="3.92694">
        <ele>886</ele>
        <time>2021-04-15T08:57:20Z</time>
      </trkpt>
      <trkpt lat="45.35546" lon="3.927">
        <ele>886</ele>
        <time>2021-04-15T08:57:21Z</time>
      </trkpt>
      <trkpt lat="45.35547" lon="3.92706">
        <ele>886</ele>
        <time>2021-04-15T08:57:22Z</time>
      </trkpt>
      <trkpt lat="45.35549" lon="3.92712">
        <ele>886</ele>
        <time>2021-04-15T08:57:23Z</time>
      </trkpt>
      <trkpt lat="45.3555" lon="3.92717">
        <ele>886</ele>
        <time>2021-04-15T08:57:24Z</time>
      </trkpt>
      <trkpt lat="45.35552" lon="3.92723">
        <ele>887</ele>
        <time>2021-04-15T08:57:25Z</time>
      </trkpt>
      <trkpt lat="45.35553" lon="3.92729">
        <ele>887</ele>
        <time>2021-04-15T08:57:26Z</time>
      </trkpt>
      <trkpt lat="45.35555" lon="3.92734">
        <ele>887</ele>
        <time>2021-04-15T08:57:27Z</time>
      </trkpt>
      <trkpt lat="45.35557" lon="3.9274">
        <ele>887</ele>
        <time>2021-04-15T08:57:28Z</time>
      </trkpt>
      <trkpt lat="45.35558" lon="3.92746">
        <ele>887</ele>
        <time>2021-04-15T08:57:29Z</time>
      </trkpt>
      <trkpt lat="45.3556" lon="3.92752">
        <ele>888</ele>
        <time>2021-04-15T08:57:30Z</time>
      </trkpt>
      <trkpt lat="45.35562" lon="3.92757">
        <ele>888</ele>
        <time>2021-04-15T08:57:32Z</time>
      </trkpt>
      <trkpt lat="45.35564" lon="3.92763">
        <ele>888</ele>
        <time>2021-04-15T08:57:33Z</time>
      </trkpt>
      <trkpt lat="45.35565" lon="3.92769">
        <ele>888</ele>
        <time>2021-04-15T08:57:34Z</time>
      </trkpt>
      <trkpt lat="45.35569" lon="3.92781">
        <ele>888</ele>
        <time>2021-04-15T08:57:35Z</time>
      </trkpt>
      <trkpt lat="45.35571" lon="3.92787">
        <ele>889</ele>
        <time>2021-04-15T08:57:37Z</time>
      </trkpt>
      <trkpt lat="45.35573" lon="3.92792">
        <ele>889</ele>
        <time>2021-04-15T08:57:38Z</time>
      </trkpt>
      <trkpt lat="45.35574" lon="3.92798">
        <ele>889</ele>
        <time>2021-04-15T08:57:39Z</time>
      </trkpt>
      <trkpt lat="45.35576" lon="3.92804">
        <ele>890</ele>
        <time>2021-04-15T08:57:40Z</time>
      </trkpt>
      <trkpt lat="45.35578" lon="3.9281">
        <ele>890</ele>
        <time>2021-04-15T08:57:41Z</time>
      </trkpt>
      <trkpt lat="45.35579" lon="3.92816">
        <ele>890</ele>
        <time>2021-04-15T08:57:42Z</time>
      </trkpt>
      <trkpt lat="45.35581" lon="3.92822">
        <ele>890</ele>
        <time>2021-04-15T08:57:43Z</time>
      </trkpt>
      <trkpt lat="45.35583" lon="3.92828">
        <ele>890</ele>
        <time>2021-04-15T08:57:44Z</time>
      </trkpt>
      <trkpt lat="45.35585" lon="3.92834">
        <ele>891</ele>
        <time>2021-04-15T08:57:45Z</time>
      </trkpt>
      <trkpt lat="45.35588" lon="3.92845">
        <ele>891</ele>
        <time>2021-04-15T08:57:46Z</time>
      </trkpt>
      <trkpt lat="45.3559" lon="3.92851">
        <ele>892</ele>
        <time>2021-04-15T08:57:48Z</time>
      </trkpt>
      <trkpt lat="45.35594" lon="3.92862">
        <ele>892</ele>
        <time>2021-04-15T08:57:49Z</time>
      </trkpt>
      <trkpt lat="45.35595" lon="3.92868">
        <ele>892</ele>
        <time>2021-04-15T08:57:50Z</time>
      </trkpt>
      <trkpt lat="45.35597" lon="3.92874">
        <ele>892</ele>
        <time>2021-04-15T08:57:51Z</time>
      </trkpt>
      <trkpt lat="45.35598" lon="3.9288">
        <ele>893</ele>
        <time>2021-04-15T08:57:52Z</time>
      </trkpt>
      <trkpt lat="45.356" lon="3.92885">
        <ele>893</ele>
        <time>2021-04-15T08:57:53Z</time>
      </trkpt>
      <trkpt lat="45.35602" lon="3.92891">
        <ele>893</ele>
        <time>2021-04-15T08:57:54Z</time>
      </trkpt>
      <trkpt lat="45.35603" lon="3.92896">
        <ele>894</ele>
        <time>2021-04-15T08:57:55Z</time>
      </trkpt>
      <trkpt lat="45.35605" lon="3.92901">
        <ele>894</ele>
        <time>2021-04-15T08:57:56Z</time>
      </trkpt>
      <trkpt lat="45.35607" lon="3.92906">
        <ele>894</ele>
        <time>2021-04-15T08:57:57Z</time>
      </trkpt>
      <trkpt lat="45.35608" lon="3.92912">
        <ele>895</ele>
        <time>2021-04-15T08:57:58Z</time>
      </trkpt>
      <trkpt lat="45.3561" lon="3.92917">
        <ele>895</ele>
        <time>2021-04-15T08:57:59Z</time>
      </trkpt>
      <trkpt lat="45.35612" lon="3.92922">
        <ele>895</ele>
        <time>2021-04-15T08:58:00Z</time>
      </trkpt>
      <trkpt lat="45.35614" lon="3.92928">
        <ele>895</ele>
        <time>2021-04-15T08:58:01Z</time>
      </trkpt>
      <trkpt lat="45.35615" lon="3.92933">
        <ele>896</ele>
        <time>2021-04-15T08:58:02Z</time>
      </trkpt>
      <trkpt lat="45.35617" lon="3.92939">
        <ele>896</ele>
        <time>2021-04-15T08:58:03Z</time>
      </trkpt>
      <trkpt lat="45.35619" lon="3.92944">
        <ele>896</ele>
        <time>2021-04-15T08:58:04Z</time>
      </trkpt>
      <trkpt lat="45.35621" lon="3.9295">
        <ele>896</ele>
        <time>2021-04-15T08:58:05Z</time>
      </trkpt>
      <trkpt lat="45.35623" lon="3.92955">
        <ele>897</ele>
        <time>2021-04-15T08:58:06Z</time>
      </trkpt>
      <trkpt lat="45.35624" lon="3.92961">
        <ele>897</ele>
        <time>2021-04-15T08:58:07Z</time>
      </trkpt>
      <trkpt lat="45.35626" lon="3.92966">
        <ele>897</ele>
        <time>2021-04-15T08:58:08Z</time>
      </trkpt>
      <trkpt lat="45.35628" lon="3.92972">
        <ele>898</ele>
        <time>2021-04-15T08:58:09Z</time>
      </trkpt>
      <trkpt lat="45.3563" lon="3.92977">
        <ele>899</ele>
        <time>2021-04-15T08:58:11Z</time>
      </trkpt>
      <trkpt lat="45.35633" lon="3.92982">
        <ele>899</ele>
        <time>2021-04-15T08:58:12Z</time>
      </trkpt>
      <trkpt lat="45.35635" lon="3.92988">
        <ele>899</ele>
        <time>2021-04-15T08:58:13Z</time>
      </trkpt>
      <trkpt lat="45.35637" lon="3.92993">
        <ele>900</ele>
        <time>2021-04-15T08:58:14Z</time>
      </trkpt>
      <trkpt lat="45.35639" lon="3.92999">
        <ele>900</ele>
        <time>2021-04-15T08:58:15Z</time>
      </trkpt>
      <trkpt lat="45.35641" lon="3.93005">
        <ele>900</ele>
        <time>2021-04-15T08:58:16Z</time>
      </trkpt>
      <trkpt lat="45.35643" lon="3.9301">
        <ele>901</ele>
        <time>2021-04-15T08:58:17Z</time>
      </trkpt>
      <trkpt lat="45.35646" lon="3.93016">
        <ele>901</ele>
        <time>2021-04-15T08:58:18Z</time>
      </trkpt>
      <trkpt lat="45.35648" lon="3.93021">
        <ele>901</ele>
        <time>2021-04-15T08:58:19Z</time>
      </trkpt>
      <trkpt lat="45.3565" lon="3.93027">
        <ele>901</ele>
        <time>2021-04-15T08:58:20Z</time>
      </trkpt>
      <trkpt lat="45.35654" lon="3.93039">
        <ele>902</ele>
        <time>2021-04-15T08:58:21Z</time>
      </trkpt>
      <trkpt lat="45.35655" lon="3.93045">
        <ele>902</ele>
        <time>2021-04-15T08:58:23Z</time>
      </trkpt>
      <trkpt lat="45.35657" lon="3.93051">
        <ele>903</ele>
        <time>2021-04-15T08:58:24Z</time>
      </trkpt>
      <trkpt lat="45.35659" lon="3.93057">
        <ele>903</ele>
        <time>2021-04-15T08:58:25Z</time>
      </trkpt>
      <trkpt lat="45.35661" lon="3.93063">
        <ele>903</ele>
        <time>2021-04-15T08:58:26Z</time>
      </trkpt>
      <trkpt lat="45.35664" lon="3.93076">
        <ele>903</ele>
        <time>2021-04-15T08:58:27Z</time>
      </trkpt>
      <trkpt lat="45.35665" lon="3.93082">
        <ele>903</ele>
        <time>2021-04-15T08:58:28Z</time>
      </trkpt>
      <trkpt lat="45.35667" lon="3.93089">
        <ele>904</ele>
        <time>2021-04-15T08:58:29Z</time>
      </trkpt>
      <trkpt lat="45.35669" lon="3.93095">
        <ele>904</ele>
        <time>2021-04-15T08:58:30Z</time>
      </trkpt>
      <trkpt lat="45.3567" lon="3.93102">
        <ele>904</ele>
        <time>2021-04-15T08:58:31Z</time>
      </trkpt>
      <trkpt lat="45.35672" lon="3.93109">
        <ele>904</ele>
        <time>2021-04-15T08:58:32Z</time>
      </trkpt>
      <trkpt lat="45.35674" lon="3.93115">
        <ele>904</ele>
        <time>2021-04-15T08:58:33Z</time>
      </trkpt>
      <trkpt lat="45.35675" lon="3.93121">
        <ele>904</ele>
        <time>2021-04-15T08:58:34Z</time>
      </trkpt>
      <trkpt lat="45.35677" lon="3.93127">
        <ele>904</ele>
        <time>2021-04-15T08:58:35Z</time>
      </trkpt>
      <trkpt lat="45.35678" lon="3.93133">
        <ele>904</ele>
        <time>2021-04-15T08:58:36Z</time>
      </trkpt>
      <trkpt lat="45.35679" lon="3.93138">
        <ele>904</ele>
        <time>2021-04-15T08:58:37Z</time>
      </trkpt>
      <trkpt lat="45.35681" lon="3.93143">
        <ele>904</ele>
        <time>2021-04-15T08:58:38Z</time>
      </trkpt>
      <trkpt lat="45.35682" lon="3.93146">
        <ele>904</ele>
        <time>2021-04-15T08:58:39Z</time>
      </trkpt>
      <trkpt lat="45.35706" lon="3.93145">
        <ele>906</ele>
        <time>2021-04-15T08:59:23Z</time>
      </trkpt>
      <trkpt lat="45.35712" lon="3.93145">
        <ele>906</ele>
        <time>2021-04-15T08:59:24Z</time>
      </trkpt>
      <trkpt lat="45.35717" lon="3.93144">
        <ele>906</ele>
        <time>2021-04-15T08:59:25Z</time>
      </trkpt>
      <trkpt lat="45.35722" lon="3.93144">
        <ele>906</ele>
        <time>2021-04-15T08:59:26Z</time>
      </trkpt>
      <trkpt lat="45.35727" lon="3.93144">
        <ele>906</ele>
        <time>2021-04-15T08:59:27Z</time>
      </trkpt>
      <trkpt lat="45.35733" lon="3.93144">
        <ele>906</ele>
        <time>2021-04-15T08:59:28Z</time>
      </trkpt>
      <trkpt lat="45.35738" lon="3.93144">
        <ele>907</ele>
        <time>2021-04-15T08:59:29Z</time>
      </trkpt>
      <trkpt lat="45.35743" lon="3.93145">
        <ele>907</ele>
        <time>2021-04-15T08:59:30Z</time>
      </trkpt>
      <trkpt lat="45.35747" lon="3.93145">
        <ele>907</ele>
        <time>2021-04-15T08:59:31Z</time>
      </trkpt>
      <trkpt lat="45.35752" lon="3.93146">
        <ele>907</ele>
        <time>2021-04-15T08:59:32Z</time>
      </trkpt>
      <trkpt lat="45.35755" lon="3.93146">
        <ele>907</ele>
        <time>2021-04-15T08:59:33Z</time>
      </trkpt>
      <trkpt lat="45.35759" lon="3.93146">
        <ele>907</ele>
        <time>2021-04-15T08:59:34Z</time>
      </trkpt>
      <trkpt lat="45.35762" lon="3.93146">
        <ele>907</ele>
        <time>2021-04-15T08:59:35Z</time>
      </trkpt>
      <trkpt lat="45.35764" lon="3.93147">
        <ele>907</ele>
        <time>2021-04-15T08:59:36Z</time>
      </trkpt>
      <trkpt lat="45.35767" lon="3.93148">
        <ele>907</ele>
        <time>2021-04-15T08:59:37Z</time>
      </trkpt>
      <trkpt lat="45.3577" lon="3.93149">
        <ele>907</ele>
        <time>2021-04-15T08:59:38Z</time>
      </trkpt>
      <trkpt lat="45.35774" lon="3.93151">
        <ele>907</ele>
        <time>2021-04-15T08:59:39Z</time>
      </trkpt>
      <trkpt lat="45.35778" lon="3.93152">
        <ele>907</ele>
        <time>2021-04-15T08:59:40Z</time>
      </trkpt>
      <trkpt lat="45.35782" lon="3.93154">
        <ele>907</ele>
        <time>2021-04-15T08:59:42Z</time>
      </trkpt>
      <trkpt lat="45.35787" lon="3.93156">
        <ele>907</ele>
        <time>2021-04-15T08:59:43Z</time>
      </trkpt>
      <trkpt lat="45.35796" lon="3.93159">
        <ele>907</ele>
        <time>2021-04-15T08:59:44Z</time>
      </trkpt>
      <trkpt lat="45.35802" lon="3.9316">
        <ele>907</ele>
        <time>2021-04-15T08:59:46Z</time>
      </trkpt>
      <trkpt lat="45.35807" lon="3.93162">
        <ele>907</ele>
        <time>2021-04-15T08:59:47Z</time>
      </trkpt>
      <trkpt lat="45.35812" lon="3.93163">
        <ele>907</ele>
        <time>2021-04-15T08:59:48Z</time>
      </trkpt>
      <trkpt lat="45.35818" lon="3.93164">
        <ele>907</ele>
        <time>2021-04-15T08:59:49Z</time>
      </trkpt>
      <trkpt lat="45.35824" lon="3.93165">
        <ele>907</ele>
        <time>2021-04-15T08:59:50Z</time>
      </trkpt>
      <trkpt lat="45.35829" lon="3.93165">
        <ele>907</ele>
        <time>2021-04-15T08:59:51Z</time>
      </trkpt>
      <trkpt lat="45.35835" lon="3.93166">
        <ele>907</ele>
        <time>2021-04-15T08:59:52Z</time>
      </trkpt>
      <trkpt lat="45.35846" lon="3.93167">
        <ele>907</ele>
        <time>2021-04-15T08:59:53Z</time>
      </trkpt>
      <trkpt lat="45.35851" lon="3.93167">
        <ele>907</ele>
        <time>2021-04-15T08:59:55Z</time>
      </trkpt>
      <trkpt lat="45.35856" lon="3.93168">
        <ele>907</ele>
        <time>2021-04-15T08:59:56Z</time>
      </trkpt>
      <trkpt lat="45.35862" lon="3.93168">
        <ele>907</ele>
        <time>2021-04-15T08:59:57Z</time>
      </trkpt>
      <trkpt lat="45.35872" lon="3.93168">
        <ele>907</ele>
        <time>2021-04-15T08:59:58Z</time>
      </trkpt>
      <trkpt lat="45.35878" lon="3.93168">
        <ele>907</ele>
        <time>2021-04-15T08:59:59Z</time>
      </trkpt>
      <trkpt lat="45.35883" lon="3.93168">
        <ele>907</ele>
        <time>2021-04-15T09:00:00Z</time>
      </trkpt>
      <trkpt lat="45.35889" lon="3.93168">
        <ele>907</ele>
        <time>2021-04-15T09:00:01Z</time>
      </trkpt>
      <trkpt lat="45.35894" lon="3.93168">
        <ele>907</ele>
        <time>2021-04-15T09:00:02Z</time>
      </trkpt>
      <trkpt lat="45.359" lon="3.93168">
        <ele>907</ele>
        <time>2021-04-15T09:00:03Z</time>
      </trkpt>
      <trkpt lat="45.35906" lon="3.93167">
        <ele>907</ele>
        <time>2021-04-15T09:00:04Z</time>
      </trkpt>
      <trkpt lat="45.35911" lon="3.93167">
        <ele>907</ele>
        <time>2021-04-15T09:00:05Z</time>
      </trkpt>
      <trkpt lat="45.35917" lon="3.93167">
        <ele>908</ele>
        <time>2021-04-15T09:00:06Z</time>
      </trkpt>
      <trkpt lat="45.35923" lon="3.93167">
        <ele>908</ele>
        <time>2021-04-15T09:00:07Z</time>
      </trkpt>
      <trkpt lat="45.35928" lon="3.93167">
        <ele>908</ele>
        <time>2021-04-15T09:00:08Z</time>
      </trkpt>
      <trkpt lat="45.35934" lon="3.93168">
        <ele>908</ele>
        <time>2021-04-15T09:00:09Z</time>
      </trkpt>
      <trkpt lat="45.35939" lon="3.93169">
        <ele>908</ele>
        <time>2021-04-15T09:00:10Z</time>
      </trkpt>
      <trkpt lat="45.35945" lon="3.9317">
        <ele>908</ele>
        <time>2021-04-15T09:00:11Z</time>
      </trkpt>
      <trkpt lat="45.35951" lon="3.93171">
        <ele>908</ele>
        <time>2021-04-15T09:00:12Z</time>
      </trkpt>
      <trkpt lat="45.35956" lon="3.93172">
        <ele>908</ele>
        <time>2021-04-15T09:00:13Z</time>
      </trkpt>
      <trkpt lat="45.35962" lon="3.93174">
        <ele>908</ele>
        <time>2021-04-15T09:00:14Z</time>
      </trkpt>
      <trkpt lat="45.35967" lon="3.93177">
        <ele>908</ele>
        <time>2021-04-15T09:00:15Z</time>
      </trkpt>
      <trkpt lat="45.35973" lon="3.93179">
        <ele>908</ele>
        <time>2021-04-15T09:00:16Z</time>
      </trkpt>
      <trkpt lat="45.35978" lon="3.93181">
        <ele>908</ele>
        <time>2021-04-15T09:00:17Z</time>
      </trkpt>
      <trkpt lat="45.35984" lon="3.93183">
        <ele>908</ele>
        <time>2021-04-15T09:00:18Z</time>
      </trkpt>
      <trkpt lat="45.35995" lon="3.93188">
        <ele>908</ele>
        <time>2021-04-15T09:00:20Z</time>
      </trkpt>
      <trkpt lat="45.36" lon="3.93191">
        <ele>908</ele>
        <time>2021-04-15T09:00:22Z</time>
      </trkpt>
      <trkpt lat="45.36005" lon="3.93194">
        <ele>908</ele>
        <time>2021-04-15T09:00:23Z</time>
      </trkpt>
      <trkpt lat="45.3601" lon="3.93197">
        <ele>908</ele>
        <time>2021-04-15T09:00:24Z</time>
      </trkpt>
      <trkpt lat="45.36016" lon="3.932">
        <ele>908</ele>
        <time>2021-04-15T09:00:25Z</time>
      </trkpt>
      <trkpt lat="45.36021" lon="3.93203">
        <ele>908</ele>
        <time>2021-04-15T09:00:26Z</time>
      </trkpt>
      <trkpt lat="45.36026" lon="3.93206">
        <ele>908</ele>
        <time>2021-04-15T09:00:27Z</time>
      </trkpt>
      <trkpt lat="45.36032" lon="3.9321">
        <ele>908</ele>
        <time>2021-04-15T09:00:28Z</time>
      </trkpt>
      <trkpt lat="45.36042" lon="3.93217">
        <ele>908</ele>
        <time>2021-04-15T09:00:29Z</time>
      </trkpt>
      <trkpt lat="45.36048" lon="3.93221">
        <ele>908</ele>
        <time>2021-04-15T09:00:31Z</time>
      </trkpt>
      <trkpt lat="45.36053" lon="3.93224">
        <ele>908</ele>
        <time>2021-04-15T09:00:32Z</time>
      </trkpt>
      <trkpt lat="45.36058" lon="3.93228">
        <ele>908</ele>
        <time>2021-04-15T09:00:33Z</time>
      </trkpt>
      <trkpt lat="45.36063" lon="3.93232">
        <ele>908</ele>
        <time>2021-04-15T09:00:34Z</time>
      </trkpt>
      <trkpt lat="45.36069" lon="3.93235">
        <ele>908</ele>
        <time>2021-04-15T09:00:35Z</time>
      </trkpt>
      <trkpt lat="45.36074" lon="3.93239">
        <ele>908</ele>
        <time>2021-04-15T09:00:36Z</time>
      </trkpt>
      <trkpt lat="45.36085" lon="3.93246">
        <ele>908</ele>
        <time>2021-04-15T09:00:37Z</time>
      </trkpt>
      <trkpt lat="45.3609" lon="3.93249">
        <ele>908</ele>
        <time>2021-04-15T09:00:39Z</time>
      </trkpt>
      <trkpt lat="45.36096" lon="3.93252">
        <ele>907</ele>
        <time>2021-04-15T09:00:40Z</time>
      </trkpt>
      <trkpt lat="45.36102" lon="3.93255">
        <ele>907</ele>
        <time>2021-04-15T09:00:41Z</time>
      </trkpt>
      <trkpt lat="45.36107" lon="3.93257">
        <ele>907</ele>
        <time>2021-04-15T09:00:42Z</time>
      </trkpt>
      <trkpt lat="45.36113" lon="3.9326">
        <ele>907</ele>
        <time>2021-04-15T09:00:43Z</time>
      </trkpt>
      <trkpt lat="45.36119" lon="3.93262">
        <ele>907</ele>
        <time>2021-04-15T09:00:44Z</time>
      </trkpt>
      <trkpt lat="45.3613" lon="3.93267">
        <ele>907</ele>
        <time>2021-04-15T09:00:45Z</time>
      </trkpt>
      <trkpt lat="45.36136" lon="3.93269">
        <ele>907</ele>
        <time>2021-04-15T09:00:47Z</time>
      </trkpt>
      <trkpt lat="45.36142" lon="3.93271">
        <ele>907</ele>
        <time>2021-04-15T09:00:48Z</time>
      </trkpt>
      <trkpt lat="45.36148" lon="3.93272">
        <ele>907</ele>
        <time>2021-04-15T09:00:49Z</time>
      </trkpt>
      <trkpt lat="45.36154" lon="3.93274">
        <ele>907</ele>
        <time>2021-04-15T09:00:50Z</time>
      </trkpt>
      <trkpt lat="45.3616" lon="3.93276">
        <ele>907</ele>
        <time>2021-04-15T09:00:51Z</time>
      </trkpt>
      <trkpt lat="45.36165" lon="3.93278">
        <ele>907</ele>
        <time>2021-04-15T09:00:52Z</time>
      </trkpt>
      <trkpt lat="45.36171" lon="3.9328">
        <ele>907</ele>
        <time>2021-04-15T09:00:53Z</time>
      </trkpt>
      <trkpt lat="45.36182" lon="3.93283">
        <ele>907</ele>
        <time>2021-04-15T09:00:54Z</time>
      </trkpt>
      <trkpt lat="45.36192" lon="3.93286">
        <ele>907</ele>
        <time>2021-04-15T09:00:56Z</time>
      </trkpt>
      <trkpt lat="45.36197" lon="3.93288">
        <ele>907</ele>
        <time>2021-04-15T09:00:57Z</time>
      </trkpt>
      <trkpt lat="45.36201" lon="3.93289">
        <ele>907</ele>
        <time>2021-04-15T09:00:58Z</time>
      </trkpt>
      <trkpt lat="45.36205" lon="3.9329">
        <ele>907</ele>
        <time>2021-04-15T09:00:59Z</time>
      </trkpt>
      <trkpt lat="45.36207" lon="3.93291">
        <ele>907</ele>
        <time>2021-04-15T09:01:00Z</time>
      </trkpt>
      <trkpt lat="45.36209" lon="3.93292">
        <ele>907</ele>
        <time>2021-04-15T09:01:01Z</time>
      </trkpt>
      <trkpt lat="45.36211" lon="3.93293">
        <ele>907</ele>
        <time>2021-04-15T09:01:03Z</time>
      </trkpt>
      <trkpt lat="45.36213" lon="3.93293">
        <ele>907</ele>
        <time>2021-04-15T09:01:05Z</time>
      </trkpt>
      <trkpt lat="45.36215" lon="3.93291">
        <ele>906</ele>
        <time>2021-04-15T09:01:06Z</time>
      </trkpt>
      <trkpt lat="45.36217" lon="3.93288">
        <ele>907</ele>
        <time>2021-04-15T09:01:07Z</time>
      </trkpt>
      <trkpt lat="45.36219" lon="3.93284">
        <ele>906</ele>
        <time>2021-04-15T09:01:08Z</time>
      </trkpt>
      <trkpt lat="45.36222" lon="3.93279">
        <ele>906</ele>
        <time>2021-04-15T09:01:09Z</time>
      </trkpt>
      <trkpt lat="45.36224" lon="3.93274">
        <ele>906</ele>
        <time>2021-04-15T09:01:10Z</time>
      </trkpt>
      <trkpt lat="45.36227" lon="3.93269">
        <ele>906</ele>
        <time>2021-04-15T09:01:11Z</time>
      </trkpt>
      <trkpt lat="45.36229" lon="3.93265">
        <ele>906</ele>
        <time>2021-04-15T09:01:12Z</time>
      </trkpt>
      <trkpt lat="45.36231" lon="3.9326">
        <ele>906</ele>
        <time>2021-04-15T09:01:13Z</time>
      </trkpt>
      <trkpt lat="45.36234" lon="3.93254">
        <ele>906</ele>
        <time>2021-04-15T09:01:14Z</time>
      </trkpt>
      <trkpt lat="45.36236" lon="3.93249">
        <ele>906</ele>
        <time>2021-04-15T09:01:15Z</time>
      </trkpt>
      <trkpt lat="45.36239" lon="3.93244">
        <ele>906</ele>
        <time>2021-04-15T09:01:17Z</time>
      </trkpt>
      <trkpt lat="45.36243" lon="3.93238">
        <ele>906</ele>
        <time>2021-04-15T09:01:18Z</time>
      </trkpt>
      <trkpt lat="45.36246" lon="3.93232">
        <ele>906</ele>
        <time>2021-04-15T09:01:19Z</time>
      </trkpt>
      <trkpt lat="45.36252" lon="3.93221">
        <ele>906</ele>
        <time>2021-04-15T09:01:20Z</time>
      </trkpt>
      <trkpt lat="45.36255" lon="3.93215">
        <ele>905</ele>
        <time>2021-04-15T09:01:22Z</time>
      </trkpt>
      <trkpt lat="45.36258" lon="3.9321">
        <ele>905</ele>
        <time>2021-04-15T09:01:23Z</time>
      </trkpt>
      <trkpt lat="45.36261" lon="3.93204">
        <ele>905</ele>
        <time>2021-04-15T09:01:24Z</time>
      </trkpt>
      <trkpt lat="45.36265" lon="3.93198">
        <ele>905</ele>
        <time>2021-04-15T09:01:25Z</time>
      </trkpt>
      <trkpt lat="45.36268" lon="3.93193">
        <ele>905</ele>
        <time>2021-04-15T09:01:26Z</time>
      </trkpt>
      <trkpt lat="45.36272" lon="3.93187">
        <ele>905</ele>
        <time>2021-04-15T09:01:27Z</time>
      </trkpt>
      <trkpt lat="45.36275" lon="3.93183">
        <ele>905</ele>
        <time>2021-04-15T09:01:28Z</time>
      </trkpt>
      <trkpt lat="45.36278" lon="3.93178">
        <ele>905</ele>
        <time>2021-04-15T09:01:29Z</time>
      </trkpt>
      <trkpt lat="45.36281" lon="3.93174">
        <ele>905</ele>
        <time>2021-04-15T09:01:30Z</time>
      </trkpt>
      <trkpt lat="45.36286" lon="3.93166">
        <ele>905</ele>
        <time>2021-04-15T09:01:31Z</time>
      </trkpt>
      <trkpt lat="45.36288" lon="3.93162">
        <ele>904</ele>
        <time>2021-04-15T09:01:33Z</time>
      </trkpt>
      <trkpt lat="45.36292" lon="3.93156">
        <ele>904</ele>
        <time>2021-04-15T09:01:34Z</time>
      </trkpt>
      <trkpt lat="45.36293" lon="3.93153">
        <ele>904</ele>
        <time>2021-04-15T09:01:36Z</time>
      </trkpt>
      <trkpt lat="45.36293" lon="3.93153">
        <ele>904</ele>
        <time>2021-04-15T09:01:41Z</time>
      </trkpt>
      <trkpt lat="45.36299" lon="3.93147">
        <ele>904</ele>
        <time>2021-04-15T09:02:10Z</time>
      </trkpt>
      <trkpt lat="45.36301" lon="3.93143">
        <ele>904</ele>
        <time>2021-04-15T09:02:11Z</time>
      </trkpt>
      <trkpt lat="45.36303" lon="3.9314">
        <ele>904</ele>
        <time>2021-04-15T09:02:13Z</time>
      </trkpt>
      <trkpt lat="45.36305" lon="3.93136">
        <ele>904</ele>
        <time>2021-04-15T09:02:14Z</time>
      </trkpt>
      <trkpt lat="45.36307" lon="3.93133">
        <ele>904</ele>
        <time>2021-04-15T09:02:15Z</time>
      </trkpt>
      <trkpt lat="45.36309" lon="3.93131">
        <ele>904</ele>
        <time>2021-04-15T09:02:16Z</time>
      </trkpt>
      <trkpt lat="45.3631" lon="3.93129">
        <ele>904</ele>
        <time>2021-04-15T09:02:17Z</time>
      </trkpt>
      <trkpt lat="45.36311" lon="3.93127">
        <ele>904</ele>
        <time>2021-04-15T09:02:18Z</time>
      </trkpt>
      <trkpt lat="45.36313" lon="3.93124">
        <ele>904</ele>
        <time>2021-04-15T09:02:19Z</time>
      </trkpt>
      <trkpt lat="45.36315" lon="3.9312">
        <ele>904</ele>
        <time>2021-04-15T09:02:20Z</time>
      </trkpt>
      <trkpt lat="45.36318" lon="3.93115">
        <ele>904</ele>
        <time>2021-04-15T09:02:21Z</time>
      </trkpt>
      <trkpt lat="45.36323" lon="3.93104">
        <ele>903</ele>
        <time>2021-04-15T09:02:22Z</time>
      </trkpt>
      <trkpt lat="45.36326" lon="3.93098">
        <ele>903</ele>
        <time>2021-04-15T09:02:24Z</time>
      </trkpt>
      <trkpt lat="45.3633" lon="3.93092">
        <ele>903</ele>
        <time>2021-04-15T09:02:25Z</time>
      </trkpt>
      <trkpt lat="45.36336" lon="3.93079">
        <ele>903</ele>
        <time>2021-04-15T09:02:26Z</time>
      </trkpt>
      <trkpt lat="45.36339" lon="3.93072">
        <ele>903</ele>
        <time>2021-04-15T09:02:28Z</time>
      </trkpt>
      <trkpt lat="45.36341" lon="3.93065">
        <ele>904</ele>
        <time>2021-04-15T09:02:29Z</time>
      </trkpt>
      <trkpt lat="45.36347" lon="3.93051">
        <ele>904</ele>
        <time>2021-04-15T09:02:30Z</time>
      </trkpt>
      <trkpt lat="45.36349" lon="3.93043">
        <ele>904</ele>
        <time>2021-04-15T09:02:31Z</time>
      </trkpt>
      <trkpt lat="45.36352" lon="3.93036">
        <ele>904</ele>
        <time>2021-04-15T09:02:32Z</time>
      </trkpt>
      <trkpt lat="45.36355" lon="3.93029">
        <ele>904</ele>
        <time>2021-04-15T09:02:33Z</time>
      </trkpt>
      <trkpt lat="45.36358" lon="3.93021">
        <ele>904</ele>
        <time>2021-04-15T09:02:34Z</time>
      </trkpt>
      <trkpt lat="45.36361" lon="3.93015">
        <ele>904</ele>
        <time>2021-04-15T09:02:35Z</time>
      </trkpt>
      <trkpt lat="45.36365" lon="3.93008">
        <ele>904</ele>
        <time>2021-04-15T09:02:36Z</time>
      </trkpt>
      <trkpt lat="45.36369" lon="3.93002">
        <ele>904</ele>
        <time>2021-04-15T09:02:37Z</time>
      </trkpt>
      <trkpt lat="45.36372" lon="3.92995">
        <ele>904</ele>
        <time>2021-04-15T09:02:38Z</time>
      </trkpt>
      <trkpt lat="45.36376" lon="3.92989">
        <ele>904</ele>
        <time>2021-04-15T09:02:39Z</time>
      </trkpt>
      <trkpt lat="45.3638" lon="3.92983">
        <ele>904</ele>
        <time>2021-04-15T09:02:40Z</time>
      </trkpt>
      <trkpt lat="45.36384" lon="3.92977">
        <ele>904</ele>
        <time>2021-04-15T09:02:41Z</time>
      </trkpt>
      <trkpt lat="45.36387" lon="3.92971">
        <ele>904</ele>
        <time>2021-04-15T09:02:42Z</time>
      </trkpt>
      <trkpt lat="45.36391" lon="3.92965">
        <ele>904</ele>
        <time>2021-04-15T09:02:43Z</time>
      </trkpt>
      <trkpt lat="45.36395" lon="3.92959">
        <ele>904</ele>
        <time>2021-04-15T09:02:44Z</time>
      </trkpt>
      <trkpt lat="45.36398" lon="3.92953">
        <ele>904</ele>
        <time>2021-04-15T09:02:45Z</time>
      </trkpt>
      <trkpt lat="45.36401" lon="3.92947">
        <ele>904</ele>
        <time>2021-04-15T09:02:46Z</time>
      </trkpt>
      <trkpt lat="45.36403" lon="3.92942">
        <ele>904</ele>
        <time>2021-04-15T09:02:47Z</time>
      </trkpt>
      <trkpt lat="45.36406" lon="3.92936">
        <ele>905</ele>
        <time>2021-04-15T09:02:48Z</time>
      </trkpt>
      <trkpt lat="45.36408" lon="3.92931">
        <ele>905</ele>
        <time>2021-04-15T09:02:49Z</time>
      </trkpt>
      <trkpt lat="45.36411" lon="3.92927">
        <ele>905</ele>
        <time>2021-04-15T09:02:50Z</time>
      </trkpt>
      <trkpt lat="45.36414" lon="3.92924">
        <ele>905</ele>
        <time>2021-04-15T09:02:51Z</time>
      </trkpt>
      <trkpt lat="45.36417" lon="3.92922">
        <ele>905</ele>
        <time>2021-04-15T09:02:52Z</time>
      </trkpt>
      <trkpt lat="45.36419" lon="3.92921">
        <ele>905</ele>
        <time>2021-04-15T09:02:53Z</time>
      </trkpt>
      <trkpt lat="45.36421" lon="3.92919">
        <ele>905</ele>
        <time>2021-04-15T09:02:55Z</time>
      </trkpt>
      <trkpt lat="45.36423" lon="3.9292">
        <ele>905</ele>
        <time>2021-04-15T09:02:58Z</time>
      </trkpt>
      <trkpt lat="45.36424" lon="3.92923">
        <ele>905</ele>
        <time>2021-04-15T09:03:00Z</time>
      </trkpt>
      <trkpt lat="45.36427" lon="3.92926">
        <ele>906</ele>
        <time>2021-04-15T09:03:02Z</time>
      </trkpt>
      <trkpt lat="45.36429" lon="3.92927">
        <ele>906</ele>
        <time>2021-04-15T09:03:03Z</time>
      </trkpt>
      <trkpt lat="45.36431" lon="3.92929">
        <ele>906</ele>
        <time>2021-04-15T09:03:04Z</time>
      </trkpt>
      <trkpt lat="45.36434" lon="3.92931">
        <ele>906</ele>
        <time>2021-04-15T09:03:05Z</time>
      </trkpt>
      <trkpt lat="45.36438" lon="3.92933">
        <ele>907</ele>
        <time>2021-04-15T09:03:06Z</time>
      </trkpt>
      <trkpt lat="45.36442" lon="3.92934">
        <ele>907</ele>
        <time>2021-04-15T09:03:07Z</time>
      </trkpt>
      <trkpt lat="45.36446" lon="3.92936">
        <ele>907</ele>
        <time>2021-04-15T09:03:08Z</time>
      </trkpt>
      <trkpt lat="45.36451" lon="3.92937">
        <ele>907</ele>
        <time>2021-04-15T09:03:09Z</time>
      </trkpt>
      <trkpt lat="45.36455" lon="3.92939">
        <ele>907</ele>
        <time>2021-04-15T09:03:11Z</time>
      </trkpt>
      <trkpt lat="45.36459" lon="3.92941">
        <ele>907</ele>
        <time>2021-04-15T09:03:12Z</time>
      </trkpt>
      <trkpt lat="45.36463" lon="3.92942">
        <ele>907</ele>
        <time>2021-04-15T09:03:13Z</time>
      </trkpt>
      <trkpt lat="45.36466" lon="3.92944">
        <ele>907</ele>
        <time>2021-04-15T09:03:14Z</time>
      </trkpt>
      <trkpt lat="45.3647" lon="3.92946">
        <ele>907</ele>
        <time>2021-04-15T09:03:15Z</time>
      </trkpt>
      <trkpt lat="45.36474" lon="3.92948">
        <ele>907</ele>
        <time>2021-04-15T09:03:16Z</time>
      </trkpt>
      <trkpt lat="45.36478" lon="3.92951">
        <ele>907</ele>
        <time>2021-04-15T09:03:17Z</time>
      </trkpt>
      <trkpt lat="45.36482" lon="3.92954">
        <ele>907</ele>
        <time>2021-04-15T09:03:18Z</time>
      </trkpt>
      <trkpt lat="45.36486" lon="3.92957">
        <ele>907</ele>
        <time>2021-04-15T09:03:19Z</time>
      </trkpt>
      <trkpt lat="45.36491" lon="3.9296">
        <ele>907</ele>
        <time>2021-04-15T09:03:20Z</time>
      </trkpt>
      <trkpt lat="45.36498" lon="3.92966">
        <ele>907</ele>
        <time>2021-04-15T09:03:21Z</time>
      </trkpt>
      <trkpt lat="45.36502" lon="3.92969">
        <ele>907</ele>
        <time>2021-04-15T09:03:23Z</time>
      </trkpt>
      <trkpt lat="45.36507" lon="3.92973">
        <ele>907</ele>
        <time>2021-04-15T09:03:24Z</time>
      </trkpt>
      <trkpt lat="45.36512" lon="3.92978">
        <ele>907</ele>
        <time>2021-04-15T09:03:25Z</time>
      </trkpt>
      <trkpt lat="45.36516" lon="3.92982">
        <ele>907</ele>
        <time>2021-04-15T09:03:26Z</time>
      </trkpt>
      <trkpt lat="45.36526" lon="3.92992">
        <ele>907</ele>
        <time>2021-04-15T09:03:27Z</time>
      </trkpt>
      <trkpt lat="45.36531" lon="3.92997">
        <ele>907</ele>
        <time>2021-04-15T09:03:28Z</time>
      </trkpt>
      <trkpt lat="45.36536" lon="3.93003">
        <ele>907</ele>
        <time>2021-04-15T09:03:29Z</time>
      </trkpt>
      <trkpt lat="45.36541" lon="3.93009">
        <ele>907</ele>
        <time>2021-04-15T09:03:30Z</time>
      </trkpt>
      <trkpt lat="45.36546" lon="3.93014">
        <ele>907</ele>
        <time>2021-04-15T09:03:31Z</time>
      </trkpt>
      <trkpt lat="45.3655" lon="3.93019">
        <ele>907</ele>
        <time>2021-04-15T09:03:32Z</time>
      </trkpt>
      <trkpt lat="45.36554" lon="3.93024">
        <ele>907</ele>
        <time>2021-04-15T09:03:33Z</time>
      </trkpt>
      <trkpt lat="45.36558" lon="3.93029">
        <ele>907</ele>
        <time>2021-04-15T09:03:34Z</time>
      </trkpt>
      <trkpt lat="45.36563" lon="3.93033">
        <ele>907</ele>
        <time>2021-04-15T09:03:35Z</time>
      </trkpt>
      <trkpt lat="45.36567" lon="3.93038">
        <ele>907</ele>
        <time>2021-04-15T09:03:36Z</time>
      </trkpt>
      <trkpt lat="45.36572" lon="3.93043">
        <ele>907</ele>
        <time>2021-04-15T09:03:37Z</time>
      </trkpt>
      <trkpt lat="45.36576" lon="3.93047">
        <ele>907</ele>
        <time>2021-04-15T09:03:38Z</time>
      </trkpt>
      <trkpt lat="45.3658" lon="3.93052">
        <ele>907</ele>
        <time>2021-04-15T09:03:39Z</time>
      </trkpt>
      <trkpt lat="45.36585" lon="3.93056">
        <ele>907</ele>
        <time>2021-04-15T09:03:40Z</time>
      </trkpt>
      <trkpt lat="45.36589" lon="3.9306">
        <ele>907</ele>
        <time>2021-04-15T09:03:41Z</time>
      </trkpt>
      <trkpt lat="45.36594" lon="3.93064">
        <ele>907</ele>
        <time>2021-04-15T09:03:42Z</time>
      </trkpt>
      <trkpt lat="45.36598" lon="3.93068">
        <ele>907</ele>
        <time>2021-04-15T09:03:43Z</time>
      </trkpt>
      <trkpt lat="45.36603" lon="3.93071">
        <ele>907</ele>
        <time>2021-04-15T09:03:44Z</time>
      </trkpt>
      <trkpt lat="45.36608" lon="3.93074">
        <ele>907</ele>
        <time>2021-04-15T09:03:45Z</time>
      </trkpt>
      <trkpt lat="45.36613" lon="3.93076">
        <ele>907</ele>
        <time>2021-04-15T09:03:46Z</time>
      </trkpt>
      <trkpt lat="45.36623" lon="3.93079">
        <ele>907</ele>
        <time>2021-04-15T09:03:48Z</time>
      </trkpt>
      <trkpt lat="45.36628" lon="3.93081">
        <ele>907</ele>
        <time>2021-04-15T09:03:50Z</time>
      </trkpt>
      <trkpt lat="45.36633" lon="3.93082">
        <ele>907</ele>
        <time>2021-04-15T09:03:51Z</time>
      </trkpt>
      <trkpt lat="45.36639" lon="3.93083">
        <ele>907</ele>
        <time>2021-04-15T09:03:52Z</time>
      </trkpt>
      <trkpt lat="45.36644" lon="3.93084">
        <ele>907</ele>
        <time>2021-04-15T09:03:53Z</time>
      </trkpt>
      <trkpt lat="45.36649" lon="3.93085">
        <ele>907</ele>
        <time>2021-04-15T09:03:54Z</time>
      </trkpt>
      <trkpt lat="45.36654" lon="3.93087">
        <ele>908</ele>
        <time>2021-04-15T09:03:55Z</time>
      </trkpt>
      <trkpt lat="45.36658" lon="3.93089">
        <ele>908</ele>
        <time>2021-04-15T09:03:56Z</time>
      </trkpt>
      <trkpt lat="45.36663" lon="3.93089">
        <ele>908</ele>
        <time>2021-04-15T09:03:57Z</time>
      </trkpt>
      <trkpt lat="45.36673" lon="3.93091">
        <ele>908</ele>
        <time>2021-04-15T09:03:58Z</time>
      </trkpt>
      <trkpt lat="45.36678" lon="3.93092">
        <ele>908</ele>
        <time>2021-04-15T09:04:00Z</time>
      </trkpt>
      <trkpt lat="45.36683" lon="3.93094">
        <ele>908</ele>
        <time>2021-04-15T09:04:01Z</time>
      </trkpt>
      <trkpt lat="45.36688" lon="3.93096">
        <ele>909</ele>
        <time>2021-04-15T09:04:02Z</time>
      </trkpt>
      <trkpt lat="45.36694" lon="3.93098">
        <ele>909</ele>
        <time>2021-04-15T09:04:03Z</time>
      </trkpt>
      <trkpt lat="45.36699" lon="3.93099">
        <ele>909</ele>
        <time>2021-04-15T09:04:04Z</time>
      </trkpt>
      <trkpt lat="45.3671" lon="3.93101">
        <ele>909</ele>
        <time>2021-04-15T09:04:05Z</time>
      </trkpt>
      <trkpt lat="45.36715" lon="3.93103">
        <ele>909</ele>
        <time>2021-04-15T09:04:06Z</time>
      </trkpt>
      <trkpt lat="45.36721" lon="3.93104">
        <ele>909</ele>
        <time>2021-04-15T09:04:07Z</time>
      </trkpt>
      <trkpt lat="45.36726" lon="3.93105">
        <ele>909</ele>
        <time>2021-04-15T09:04:08Z</time>
      </trkpt>
      <trkpt lat="45.36731" lon="3.93106">
        <ele>909</ele>
        <time>2021-04-15T09:04:09Z</time>
      </trkpt>
      <trkpt lat="45.36737" lon="3.93108">
        <ele>909</ele>
        <time>2021-04-15T09:04:10Z</time>
      </trkpt>
      <trkpt lat="45.36742" lon="3.93109">
        <ele>909</ele>
        <time>2021-04-15T09:04:11Z</time>
      </trkpt>
      <trkpt lat="45.36748" lon="3.9311">
        <ele>909</ele>
        <time>2021-04-15T09:04:12Z</time>
      </trkpt>
      <trkpt lat="45.36753" lon="3.93111">
        <ele>909</ele>
        <time>2021-04-15T09:04:13Z</time>
      </trkpt>
      <trkpt lat="45.36758" lon="3.93113">
        <ele>909</ele>
        <time>2021-04-15T09:04:14Z</time>
      </trkpt>
      <trkpt lat="45.36764" lon="3.93114">
        <ele>909</ele>
        <time>2021-04-15T09:04:15Z</time>
      </trkpt>
      <trkpt lat="45.36769" lon="3.93116">
        <ele>910</ele>
        <time>2021-04-15T09:04:16Z</time>
      </trkpt>
      <trkpt lat="45.36775" lon="3.93117">
        <ele>910</ele>
        <time>2021-04-15T09:04:17Z</time>
      </trkpt>
      <trkpt lat="45.3678" lon="3.93119">
        <ele>910</ele>
        <time>2021-04-15T09:04:18Z</time>
      </trkpt>
      <trkpt lat="45.36785" lon="3.9312">
        <ele>910</ele>
        <time>2021-04-15T09:04:19Z</time>
      </trkpt>
      <trkpt lat="45.3679" lon="3.93122">
        <ele>910</ele>
        <time>2021-04-15T09:04:20Z</time>
      </trkpt>
      <trkpt lat="45.36796" lon="3.93124">
        <ele>910</ele>
        <time>2021-04-15T09:04:21Z</time>
      </trkpt>
      <trkpt lat="45.36801" lon="3.93126">
        <ele>910</ele>
        <time>2021-04-15T09:04:22Z</time>
      </trkpt>
      <trkpt lat="45.36806" lon="3.93128">
        <ele>910</ele>
        <time>2021-04-15T09:04:23Z</time>
      </trkpt>
      <trkpt lat="45.36811" lon="3.9313">
        <ele>910</ele>
        <time>2021-04-15T09:04:24Z</time>
      </trkpt>
      <trkpt lat="45.36821" lon="3.93135">
        <ele>911</ele>
        <time>2021-04-15T09:04:26Z</time>
      </trkpt>
      <trkpt lat="45.36826" lon="3.93139">
        <ele>911</ele>
        <time>2021-04-15T09:04:27Z</time>
      </trkpt>
      <trkpt lat="45.3683" lon="3.93143">
        <ele>911</ele>
        <time>2021-04-15T09:04:29Z</time>
      </trkpt>
      <trkpt lat="45.36833" lon="3.93149">
        <ele>911</ele>
        <time>2021-04-15T09:04:30Z</time>
      </trkpt>
      <trkpt lat="45.36835" lon="3.93156">
        <ele>911</ele>
        <time>2021-04-15T09:04:31Z</time>
      </trkpt>
      <trkpt lat="45.36836" lon="3.93163">
        <ele>911</ele>
        <time>2021-04-15T09:04:32Z</time>
      </trkpt>
      <trkpt lat="45.36836" lon="3.93171">
        <ele>911</ele>
        <time>2021-04-15T09:04:33Z</time>
      </trkpt>
      <trkpt lat="45.36837" lon="3.93179">
        <ele>912</ele>
        <time>2021-04-15T09:04:34Z</time>
      </trkpt>
      <trkpt lat="45.36839" lon="3.93195">
        <ele>912</ele>
        <time>2021-04-15T09:04:35Z</time>
      </trkpt>
      <trkpt lat="45.3684" lon="3.93212">
        <ele>912</ele>
        <time>2021-04-15T09:04:37Z</time>
      </trkpt>
      <trkpt lat="45.36841" lon="3.93221">
        <ele>912</ele>
        <time>2021-04-15T09:04:38Z</time>
      </trkpt>
      <trkpt lat="45.36842" lon="3.9323">
        <ele>912</ele>
        <time>2021-04-15T09:04:39Z</time>
      </trkpt>
      <trkpt lat="45.36841" lon="3.93238">
        <ele>912</ele>
        <time>2021-04-15T09:04:40Z</time>
      </trkpt>
      <trkpt lat="45.36841" lon="3.93246">
        <ele>912</ele>
        <time>2021-04-15T09:04:41Z</time>
      </trkpt>
      <trkpt lat="45.3684" lon="3.93254">
        <ele>911</ele>
        <time>2021-04-15T09:04:42Z</time>
      </trkpt>
      <trkpt lat="45.36839" lon="3.93262">
        <ele>912</ele>
        <time>2021-04-15T09:04:43Z</time>
      </trkpt>
      <trkpt lat="45.36838" lon="3.93269">
        <ele>912</ele>
        <time>2021-04-15T09:04:44Z</time>
      </trkpt>
      <trkpt lat="45.36837" lon="3.93276">
        <ele>912</ele>
        <time>2021-04-15T09:04:46Z</time>
      </trkpt>
      <trkpt lat="45.36836" lon="3.93283">
        <ele>912</ele>
        <time>2021-04-15T09:04:47Z</time>
      </trkpt>
      <trkpt lat="45.36835" lon="3.9329">
        <ele>912</ele>
        <time>2021-04-15T09:04:48Z</time>
      </trkpt>
      <trkpt lat="45.36834" lon="3.93297">
        <ele>913</ele>
        <time>2021-04-15T09:04:49Z</time>
      </trkpt>
      <trkpt lat="45.36835" lon="3.93304">
        <ele>913</ele>
        <time>2021-04-15T09:04:50Z</time>
      </trkpt>
      <trkpt lat="45.36837" lon="3.9331">
        <ele>913</ele>
        <time>2021-04-15T09:04:51Z</time>
      </trkpt>
      <trkpt lat="45.3684" lon="3.93315">
        <ele>913</ele>
        <time>2021-04-15T09:04:52Z</time>
      </trkpt>
      <trkpt lat="45.36843" lon="3.93318">
        <ele>913</ele>
        <time>2021-04-15T09:04:53Z</time>
      </trkpt>
      <trkpt lat="45.36849" lon="3.93322">
        <ele>913</ele>
        <time>2021-04-15T09:04:54Z</time>
      </trkpt>
      <trkpt lat="45.36852" lon="3.93324">
        <ele>914</ele>
        <time>2021-04-15T09:04:56Z</time>
      </trkpt>
      <trkpt lat="45.36854" lon="3.93326">
        <ele>914</ele>
        <time>2021-04-15T09:04:57Z</time>
      </trkpt>
      <trkpt lat="45.36857" lon="3.93327">
        <ele>914</ele>
        <time>2021-04-15T09:04:58Z</time>
      </trkpt>
      <trkpt lat="45.3686" lon="3.93329">
        <ele>914</ele>
        <time>2021-04-15T09:04:59Z</time>
      </trkpt>
      <trkpt lat="45.36862" lon="3.93331">
        <ele>915</ele>
        <time>2021-04-15T09:05:00Z</time>
      </trkpt>
      <trkpt lat="45.36873" lon="3.93338">
        <ele>915</ele>
        <time>2021-04-15T09:05:02Z</time>
      </trkpt>
      <trkpt lat="45.36882" lon="3.93339">
        <ele>916</ele>
        <time>2021-04-15T09:05:05Z</time>
      </trkpt>
      <trkpt lat="45.36891" lon="3.93343">
        <ele>917</ele>
        <time>2021-04-15T09:05:07Z</time>
      </trkpt>
      <trkpt lat="45.36905" lon="3.93348">
        <ele>918</ele>
        <time>2021-04-15T09:05:10Z</time>
      </trkpt>
      <trkpt lat="45.3691" lon="3.93351">
        <ele>918</ele>
        <time>2021-04-15T09:05:11Z</time>
      </trkpt>
      <trkpt lat="45.36916" lon="3.93354">
        <ele>918</ele>
        <time>2021-04-15T09:05:12Z</time>
      </trkpt>
      <trkpt lat="45.3692" lon="3.93356">
        <ele>919</ele>
        <time>2021-04-15T09:05:13Z</time>
      </trkpt>
      <trkpt lat="45.36925" lon="3.93358">
        <ele>919</ele>
        <time>2021-04-15T09:05:14Z</time>
      </trkpt>
      <trkpt lat="45.3693" lon="3.93361">
        <ele>919</ele>
        <time>2021-04-15T09:05:15Z</time>
      </trkpt>
      <trkpt lat="45.36935" lon="3.93364">
        <ele>919</ele>
        <time>2021-04-15T09:05:16Z</time>
      </trkpt>
      <trkpt lat="45.36939" lon="3.93365">
        <ele>920</ele>
        <time>2021-04-15T09:05:17Z</time>
      </trkpt>
      <trkpt lat="45.36943" lon="3.93367">
        <ele>920</ele>
        <time>2021-04-15T09:05:18Z</time>
      </trkpt>
      <trkpt lat="45.36948" lon="3.93369">
        <ele>920</ele>
        <time>2021-04-15T09:05:19Z</time>
      </trkpt>
      <trkpt lat="45.36953" lon="3.93371">
        <ele>920</ele>
        <time>2021-04-15T09:05:20Z</time>
      </trkpt>
      <trkpt lat="45.36958" lon="3.93374">
        <ele>920</ele>
        <time>2021-04-15T09:05:21Z</time>
      </trkpt>
      <trkpt lat="45.36963" lon="3.93376">
        <ele>921</ele>
        <time>2021-04-15T09:05:23Z</time>
      </trkpt>
      <trkpt lat="45.36967" lon="3.93378">
        <ele>921</ele>
        <time>2021-04-15T09:05:24Z</time>
      </trkpt>
      <trkpt lat="45.36972" lon="3.93381">
        <ele>922</ele>
        <time>2021-04-15T09:05:25Z</time>
      </trkpt>
      <trkpt lat="45.36977" lon="3.93383">
        <ele>922</ele>
        <time>2021-04-15T09:05:26Z</time>
      </trkpt>
      <trkpt lat="45.36981" lon="3.93385">
        <ele>922</ele>
        <time>2021-04-15T09:05:27Z</time>
      </trkpt>
      <trkpt lat="45.36985" lon="3.93387">
        <ele>922</ele>
        <time>2021-04-15T09:05:28Z</time>
      </trkpt>
      <trkpt lat="45.36994" lon="3.93392">
        <ele>923</ele>
        <time>2021-04-15T09:05:29Z</time>
      </trkpt>
      <trkpt lat="45.36999" lon="3.93393">
        <ele>923</ele>
        <time>2021-04-15T09:05:31Z</time>
      </trkpt>
      <trkpt lat="45.37004" lon="3.93396">
        <ele>924</ele>
        <time>2021-04-15T09:05:32Z</time>
      </trkpt>
      <trkpt lat="45.37009" lon="3.93397">
        <ele>924</ele>
        <time>2021-04-15T09:05:33Z</time>
      </trkpt>
      <trkpt lat="45.37014" lon="3.93399">
        <ele>924</ele>
        <time>2021-04-15T09:05:34Z</time>
      </trkpt>
      <trkpt lat="45.37017" lon="3.93399">
        <ele>924</ele>
        <time>2021-04-15T09:05:35Z</time>
      </trkpt>
      <trkpt lat="45.3702" lon="3.934">
        <ele>925</ele>
        <time>2021-04-15T09:05:36Z</time>
      </trkpt>
      <trkpt lat="45.37021" lon="3.93403">
        <ele>926</ele>
        <time>2021-04-15T09:05:38Z</time>
      </trkpt>
      <trkpt lat="45.37022" lon="3.93408">
        <ele>926</ele>
        <time>2021-04-15T09:05:40Z</time>
      </trkpt>
      <trkpt lat="45.37025" lon="3.93419">
        <ele>925</ele>
        <time>2021-04-15T09:05:41Z</time>
      </trkpt>
      <trkpt lat="45.37026" lon="3.93423">
        <ele>925</ele>
        <time>2021-04-15T09:05:42Z</time>
      </trkpt>
      <trkpt lat="45.37025" lon="3.93427">
        <ele>925</ele>
        <time>2021-04-15T09:05:43Z</time>
      </trkpt>
      <trkpt lat="45.37025" lon="3.93432">
        <ele>925</ele>
        <time>2021-04-15T09:05:44Z</time>
      </trkpt>
      <trkpt lat="45.37025" lon="3.93438">
        <ele>925</ele>
        <time>2021-04-15T09:05:45Z</time>
      </trkpt>
      <trkpt lat="45.37025" lon="3.93444">
        <ele>925</ele>
        <time>2021-04-15T09:05:46Z</time>
      </trkpt>
      <trkpt lat="45.37025" lon="3.93451">
        <ele>925</ele>
        <time>2021-04-15T09:05:47Z</time>
      </trkpt>
      <trkpt lat="45.37025" lon="3.93459">
        <ele>924</ele>
        <time>2021-04-15T09:05:48Z</time>
      </trkpt>
      <trkpt lat="45.37025" lon="3.93466">
        <ele>924</ele>
        <time>2021-04-15T09:05:49Z</time>
      </trkpt>
      <trkpt lat="45.37026" lon="3.93473">
        <ele>924</ele>
        <time>2021-04-15T09:05:50Z</time>
      </trkpt>
      <trkpt lat="45.37026" lon="3.9348">
        <ele>924</ele>
        <time>2021-04-15T09:05:51Z</time>
      </trkpt>
      <trkpt lat="45.37026" lon="3.93486">
        <ele>924</ele>
        <time>2021-04-15T09:05:52Z</time>
      </trkpt>
      <trkpt lat="45.37027" lon="3.93492">
        <ele>924</ele>
        <time>2021-04-15T09:05:53Z</time>
      </trkpt>
      <trkpt lat="45.37027" lon="3.93498">
        <ele>924</ele>
        <time>2021-04-15T09:05:54Z</time>
      </trkpt>
      <trkpt lat="45.37027" lon="3.93504">
        <ele>924</ele>
        <time>2021-04-15T09:05:55Z</time>
      </trkpt>
      <trkpt lat="45.37027" lon="3.9351">
        <ele>924</ele>
        <time>2021-04-15T09:05:56Z</time>
      </trkpt>
      <trkpt lat="45.37027" lon="3.93517">
        <ele>924</ele>
        <time>2021-04-15T09:05:57Z</time>
      </trkpt>
      <trkpt lat="45.37028" lon="3.93529">
        <ele>925</ele>
        <time>2021-04-15T09:05:59Z</time>
      </trkpt>
      <trkpt lat="45.37029" lon="3.93536">
        <ele>925</ele>
        <time>2021-04-15T09:06:00Z</time>
      </trkpt>
      <trkpt lat="45.3703" lon="3.93542">
        <ele>925</ele>
        <time>2021-04-15T09:06:01Z</time>
      </trkpt>
      <trkpt lat="45.37031" lon="3.93549">
        <ele>925</ele>
        <time>2021-04-15T09:06:02Z</time>
      </trkpt>
      <trkpt lat="45.37032" lon="3.93556">
        <ele>925</ele>
        <time>2021-04-15T09:06:03Z</time>
      </trkpt>
      <trkpt lat="45.37033" lon="3.93563">
        <ele>925</ele>
        <time>2021-04-15T09:06:04Z</time>
      </trkpt>
      <trkpt lat="45.37034" lon="3.9357">
        <ele>925</ele>
        <time>2021-04-15T09:06:05Z</time>
      </trkpt>
      <trkpt lat="45.37035" lon="3.93577">
        <ele>925</ele>
        <time>2021-04-15T09:06:06Z</time>
      </trkpt>
      <trkpt lat="45.37035" lon="3.93584">
        <ele>925</ele>
        <time>2021-04-15T09:06:07Z</time>
      </trkpt>
      <trkpt lat="45.37035" lon="3.93591">
        <ele>925</ele>
        <time>2021-04-15T09:06:08Z</time>
      </trkpt>
      <trkpt lat="45.37035" lon="3.93598">
        <ele>925</ele>
        <time>2021-04-15T09:06:09Z</time>
      </trkpt>
      <trkpt lat="45.37034" lon="3.93605">
        <ele>925</ele>
        <time>2021-04-15T09:06:10Z</time>
      </trkpt>
      <trkpt lat="45.37034" lon="3.93612">
        <ele>925</ele>
        <time>2021-04-15T09:06:11Z</time>
      </trkpt>
      <trkpt lat="45.37034" lon="3.93618">
        <ele>926</ele>
        <time>2021-04-15T09:06:12Z</time>
      </trkpt>
      <trkpt lat="45.37033" lon="3.93625">
        <ele>926</ele>
        <time>2021-04-15T09:06:13Z</time>
      </trkpt>
      <trkpt lat="45.37033" lon="3.93632">
        <ele>926</ele>
        <time>2021-04-15T09:06:14Z</time>
      </trkpt>
      <trkpt lat="45.37032" lon="3.9364">
        <ele>926</ele>
        <time>2021-04-15T09:06:15Z</time>
      </trkpt>
      <trkpt lat="45.37031" lon="3.93647">
        <ele>926</ele>
        <time>2021-04-15T09:06:16Z</time>
      </trkpt>
      <trkpt lat="45.3703" lon="3.93654">
        <ele>926</ele>
        <time>2021-04-15T09:06:17Z</time>
      </trkpt>
      <trkpt lat="45.37029" lon="3.93661">
        <ele>926</ele>
        <time>2021-04-15T09:06:18Z</time>
      </trkpt>
      <trkpt lat="45.37028" lon="3.93669">
        <ele>926</ele>
        <time>2021-04-15T09:06:20Z</time>
      </trkpt>
      <trkpt lat="45.37027" lon="3.93677">
        <ele>926</ele>
        <time>2021-04-15T09:06:21Z</time>
      </trkpt>
      <trkpt lat="45.37026" lon="3.93684">
        <ele>926</ele>
        <time>2021-04-15T09:06:22Z</time>
      </trkpt>
      <trkpt lat="45.37026" lon="3.93692">
        <ele>927</ele>
        <time>2021-04-15T09:06:23Z</time>
      </trkpt>
      <trkpt lat="45.37025" lon="3.93699">
        <ele>926</ele>
        <time>2021-04-15T09:06:24Z</time>
      </trkpt>
      <trkpt lat="45.37023" lon="3.93713">
        <ele>927</ele>
        <time>2021-04-15T09:06:25Z</time>
      </trkpt>
      <trkpt lat="45.37023" lon="3.9372">
        <ele>927</ele>
        <time>2021-04-15T09:06:27Z</time>
      </trkpt>
      <trkpt lat="45.37022" lon="3.93726">
        <ele>927</ele>
        <time>2021-04-15T09:06:28Z</time>
      </trkpt>
      <trkpt lat="45.37022" lon="3.93734">
        <ele>927</ele>
        <time>2021-04-15T09:06:29Z</time>
      </trkpt>
      <trkpt lat="45.37022" lon="3.93741">
        <ele>927</ele>
        <time>2021-04-15T09:06:30Z</time>
      </trkpt>
      <trkpt lat="45.37022" lon="3.93746">
        <ele>928</ele>
        <time>2021-04-15T09:06:31Z</time>
      </trkpt>
      <trkpt lat="45.37021" lon="3.93751">
        <ele>928</ele>
        <time>2021-04-15T09:06:32Z</time>
      </trkpt>
      <trkpt lat="45.37021" lon="3.93754">
        <ele>928</ele>
        <time>2021-04-15T09:06:33Z</time>
      </trkpt>
      <trkpt lat="45.37022" lon="3.93756">
        <ele>928</ele>
        <time>2021-04-15T09:06:34Z</time>
      </trkpt>
      <trkpt lat="45.37021" lon="3.9376">
        <ele>929</ele>
        <time>2021-04-15T09:06:36Z</time>
      </trkpt>
      <trkpt lat="45.3702" lon="3.93763">
        <ele>929</ele>
        <time>2021-04-15T09:06:37Z</time>
      </trkpt>
      <trkpt lat="45.37019" lon="3.93767">
        <ele>929</ele>
        <time>2021-04-15T09:06:39Z</time>
      </trkpt>
      <trkpt lat="45.37018" lon="3.93769">
        <ele>930</ele>
        <time>2021-04-15T09:06:40Z</time>
      </trkpt>
      <trkpt lat="45.37018" lon="3.93772">
        <ele>930</ele>
        <time>2021-04-15T09:06:41Z</time>
      </trkpt>
      <trkpt lat="45.37016" lon="3.93775">
        <ele>930</ele>
        <time>2021-04-15T09:06:43Z</time>
      </trkpt>
      <trkpt lat="45.37015" lon="3.93773">
        <ele>930</ele>
        <time>2021-04-15T09:06:47Z</time>
      </trkpt>
      <trkpt lat="45.37016" lon="3.93768">
        <ele>930</ele>
        <time>2021-04-15T09:07:05Z</time>
      </trkpt>
      <trkpt lat="45.37017" lon="3.93767">
        <ele>930</ele>
        <time>2021-04-15T09:07:12Z</time>
      </trkpt>
      <trkpt lat="45.37016" lon="3.9377">
        <ele>930</ele>
        <time>2021-04-15T09:07:17Z</time>
      </trkpt>
      <trkpt lat="45.37016" lon="3.93771">
        <ele>930</ele>
        <time>2021-04-15T09:07:21Z</time>
      </trkpt>
      <trkpt lat="45.37016" lon="3.93771">
        <ele>930</ele>
        <time>2021-04-15T09:07:22Z</time>
      </trkpt>
      <trkpt lat="45.37019" lon="3.93769">
        <ele>930</ele>
        <time>2021-04-15T09:07:27Z</time>
      </trkpt>
      <trkpt lat="45.37019" lon="3.93769">
        <ele>930</ele>
        <time>2021-04-15T09:07:30Z</time>
      </trkpt>
      <trkpt lat="45.37017" lon="3.93772">
        <ele>929</ele>
        <time>2021-04-15T09:07:35Z</time>
      </trkpt>
      <trkpt lat="45.37015" lon="3.93774">
        <ele>929</ele>
        <time>2021-04-15T09:07:37Z</time>
      </trkpt>
      <trkpt lat="45.37014" lon="3.93774">
        <ele>930</ele>
        <time>2021-04-15T09:07:44Z</time>
      </trkpt>
      <trkpt lat="45.37011" lon="3.93782">
        <ele>930</ele>
        <time>2021-04-15T09:08:05Z</time>
      </trkpt>
      <trkpt lat="45.3701" lon="3.93786">
        <ele>930</ele>
        <time>2021-04-15T09:08:06Z</time>
      </trkpt>
      <trkpt lat="45.3701" lon="3.93791">
        <ele>930</ele>
        <time>2021-04-15T09:08:08Z</time>
      </trkpt>
      <trkpt lat="45.3701" lon="3.93797">
        <ele>930</ele>
        <time>2021-04-15T09:08:09Z</time>
      </trkpt>
      <trkpt lat="45.37009" lon="3.93804">
        <ele>930</ele>
        <time>2021-04-15T09:08:10Z</time>
      </trkpt>
      <trkpt lat="45.37009" lon="3.93811">
        <ele>930</ele>
        <time>2021-04-15T09:08:11Z</time>
      </trkpt>
      <trkpt lat="45.37008" lon="3.93818">
        <ele>930</ele>
        <time>2021-04-15T09:08:12Z</time>
      </trkpt>
      <trkpt lat="45.37007" lon="3.93825">
        <ele>930</ele>
        <time>2021-04-15T09:08:13Z</time>
      </trkpt>
      <trkpt lat="45.37007" lon="3.93832">
        <ele>929</ele>
        <time>2021-04-15T09:08:14Z</time>
      </trkpt>
      <trkpt lat="45.37006" lon="3.93839">
        <ele>929</ele>
        <time>2021-04-15T09:08:15Z</time>
      </trkpt>
      <trkpt lat="45.37004" lon="3.93852">
        <ele>929</ele>
        <time>2021-04-15T09:08:16Z</time>
      </trkpt>
      <trkpt lat="45.37004" lon="3.93859">
        <ele>929</ele>
        <time>2021-04-15T09:08:18Z</time>
      </trkpt>
      <trkpt lat="45.37003" lon="3.93866">
        <ele>929</ele>
        <time>2021-04-15T09:08:19Z</time>
      </trkpt>
      <trkpt lat="45.37002" lon="3.93873">
        <ele>929</ele>
        <time>2021-04-15T09:08:20Z</time>
      </trkpt>
      <trkpt lat="45.37002" lon="3.9388">
        <ele>928</ele>
        <time>2021-04-15T09:08:21Z</time>
      </trkpt>
      <trkpt lat="45.37001" lon="3.93887">
        <ele>928</ele>
        <time>2021-04-15T09:08:22Z</time>
      </trkpt>
      <trkpt lat="45.37" lon="3.93893">
        <ele>928</ele>
        <time>2021-04-15T09:08:23Z</time>
      </trkpt>
      <trkpt lat="45.36999" lon="3.939">
        <ele>927</ele>
        <time>2021-04-15T09:08:24Z</time>
      </trkpt>
      <trkpt lat="45.36996" lon="3.93915">
        <ele>927</ele>
        <time>2021-04-15T09:08:25Z</time>
      </trkpt>
      <trkpt lat="45.36995" lon="3.93923">
        <ele>927</ele>
        <time>2021-04-15T09:08:26Z</time>
      </trkpt>
      <trkpt lat="45.36994" lon="3.93931">
        <ele>927</ele>
        <time>2021-04-15T09:08:27Z</time>
      </trkpt>
      <trkpt lat="45.36993" lon="3.93938">
        <ele>926</ele>
        <time>2021-04-15T09:08:28Z</time>
      </trkpt>
      <trkpt lat="45.36992" lon="3.93946">
        <ele>926</ele>
        <time>2021-04-15T09:08:29Z</time>
      </trkpt>
      <trkpt lat="45.36991" lon="3.93953">
        <ele>926</ele>
        <time>2021-04-15T09:08:30Z</time>
      </trkpt>
      <trkpt lat="45.3699" lon="3.9396">
        <ele>926</ele>
        <time>2021-04-15T09:08:31Z</time>
      </trkpt>
      <trkpt lat="45.36989" lon="3.93967">
        <ele>926</ele>
        <time>2021-04-15T09:08:32Z</time>
      </trkpt>
      <trkpt lat="45.36989" lon="3.93974">
        <ele>926</ele>
        <time>2021-04-15T09:08:33Z</time>
      </trkpt>
      <trkpt lat="45.36989" lon="3.93982">
        <ele>925</ele>
        <time>2021-04-15T09:08:34Z</time>
      </trkpt>
      <trkpt lat="45.36988" lon="3.93989">
        <ele>925</ele>
        <time>2021-04-15T09:08:35Z</time>
      </trkpt>
      <trkpt lat="45.36988" lon="3.93997">
        <ele>925</ele>
        <time>2021-04-15T09:08:36Z</time>
      </trkpt>
      <trkpt lat="45.36988" lon="3.94004">
        <ele>925</ele>
        <time>2021-04-15T09:08:37Z</time>
      </trkpt>
      <trkpt lat="45.36988" lon="3.94012">
        <ele>925</ele>
        <time>2021-04-15T09:08:38Z</time>
      </trkpt>
      <trkpt lat="45.36987" lon="3.9402">
        <ele>925</ele>
        <time>2021-04-15T09:08:39Z</time>
      </trkpt>
      <trkpt lat="45.36986" lon="3.94029">
        <ele>925</ele>
        <time>2021-04-15T09:08:40Z</time>
      </trkpt>
      <trkpt lat="45.36986" lon="3.94037">
        <ele>925</ele>
        <time>2021-04-15T09:08:41Z</time>
      </trkpt>
      <trkpt lat="45.36986" lon="3.94045">
        <ele>924</ele>
        <time>2021-04-15T09:08:42Z</time>
      </trkpt>
      <trkpt lat="45.36986" lon="3.94053">
        <ele>924</ele>
        <time>2021-04-15T09:08:43Z</time>
      </trkpt>
      <trkpt lat="45.36986" lon="3.94061">
        <ele>924</ele>
        <time>2021-04-15T09:08:44Z</time>
      </trkpt>
      <trkpt lat="45.36987" lon="3.94069">
        <ele>924</ele>
        <time>2021-04-15T09:08:45Z</time>
      </trkpt>
      <trkpt lat="45.36987" lon="3.94077">
        <ele>924</ele>
        <time>2021-04-15T09:08:46Z</time>
      </trkpt>
      <trkpt lat="45.36988" lon="3.94084">
        <ele>924</ele>
        <time>2021-04-15T09:08:47Z</time>
      </trkpt>
      <trkpt lat="45.36988" lon="3.94092">
        <ele>924</ele>
        <time>2021-04-15T09:08:48Z</time>
      </trkpt>
      <trkpt lat="45.36989" lon="3.941">
        <ele>924</ele>
        <time>2021-04-15T09:08:49Z</time>
      </trkpt>
      <trkpt lat="45.3699" lon="3.94108">
        <ele>924</ele>
        <time>2021-04-15T09:08:50Z</time>
      </trkpt>
      <trkpt lat="45.36991" lon="3.94115">
        <ele>924</ele>
        <time>2021-04-15T09:08:51Z</time>
      </trkpt>
      <trkpt lat="45.36991" lon="3.94122">
        <ele>924</ele>
        <time>2021-04-15T09:08:52Z</time>
      </trkpt>
      <trkpt lat="45.36991" lon="3.9413">
        <ele>924</ele>
        <time>2021-04-15T09:08:53Z</time>
      </trkpt>
      <trkpt lat="45.36991" lon="3.94139">
        <ele>924</ele>
        <time>2021-04-15T09:08:54Z</time>
      </trkpt>
      <trkpt lat="45.3699" lon="3.94148">
        <ele>924</ele>
        <time>2021-04-15T09:08:55Z</time>
      </trkpt>
      <trkpt lat="45.36989" lon="3.94156">
        <ele>924</ele>
        <time>2021-04-15T09:08:56Z</time>
      </trkpt>
      <trkpt lat="45.36988" lon="3.94164">
        <ele>924</ele>
        <time>2021-04-15T09:08:57Z</time>
      </trkpt>
      <trkpt lat="45.36988" lon="3.94171">
        <ele>923</ele>
        <time>2021-04-15T09:08:58Z</time>
      </trkpt>
      <trkpt lat="45.36988" lon="3.94178">
        <ele>924</ele>
        <time>2021-04-15T09:09:00Z</time>
      </trkpt>
      <trkpt lat="45.36988" lon="3.94185">
        <ele>924</ele>
        <time>2021-04-15T09:09:01Z</time>
      </trkpt>
      <trkpt lat="45.3699" lon="3.94199">
        <ele>924</ele>
        <time>2021-04-15T09:09:02Z</time>
      </trkpt>
      <trkpt lat="45.36992" lon="3.94207">
        <ele>924</ele>
        <time>2021-04-15T09:09:03Z</time>
      </trkpt>
      <trkpt lat="45.36993" lon="3.94215">
        <ele>924</ele>
        <time>2021-04-15T09:09:04Z</time>
      </trkpt>
      <trkpt lat="45.36994" lon="3.94222">
        <ele>924</ele>
        <time>2021-04-15T09:09:05Z</time>
      </trkpt>
      <trkpt lat="45.36994" lon="3.9423">
        <ele>924</ele>
        <time>2021-04-15T09:09:06Z</time>
      </trkpt>
      <trkpt lat="45.36994" lon="3.94238">
        <ele>924</ele>
        <time>2021-04-15T09:09:07Z</time>
      </trkpt>
      <trkpt lat="45.36995" lon="3.94245">
        <ele>924</ele>
        <time>2021-04-15T09:09:08Z</time>
      </trkpt>
      <trkpt lat="45.36995" lon="3.94252">
        <ele>924</ele>
        <time>2021-04-15T09:09:09Z</time>
      </trkpt>
      <trkpt lat="45.36995" lon="3.9426">
        <ele>924</ele>
        <time>2021-04-15T09:09:10Z</time>
      </trkpt>
      <trkpt lat="45.36995" lon="3.94266">
        <ele>924</ele>
        <time>2021-04-15T09:09:11Z</time>
      </trkpt>
      <trkpt lat="45.36995" lon="3.94273">
        <ele>924</ele>
        <time>2021-04-15T09:09:12Z</time>
      </trkpt>
      <trkpt lat="45.36995" lon="3.94278">
        <ele>924</ele>
        <time>2021-04-15T09:09:13Z</time>
      </trkpt>
      <trkpt lat="45.36995" lon="3.94283">
        <ele>925</ele>
        <time>2021-04-15T09:09:14Z</time>
      </trkpt>
      <trkpt lat="45.36994" lon="3.94287">
        <ele>925</ele>
        <time>2021-04-15T09:09:15Z</time>
      </trkpt>
      <trkpt lat="45.36994" lon="3.94292">
        <ele>925</ele>
        <time>2021-04-15T09:09:16Z</time>
      </trkpt>
      <trkpt lat="45.36993" lon="3.94297">
        <ele>925</ele>
        <time>2021-04-15T09:09:17Z</time>
      </trkpt>
      <trkpt lat="45.36992" lon="3.94302">
        <ele>925</ele>
        <time>2021-04-15T09:09:18Z</time>
      </trkpt>
      <trkpt lat="45.36991" lon="3.94308">
        <ele>925</ele>
        <time>2021-04-15T09:09:19Z</time>
      </trkpt>
      <trkpt lat="45.3699" lon="3.94313">
        <ele>925</ele>
        <time>2021-04-15T09:09:20Z</time>
      </trkpt>
      <trkpt lat="45.36989" lon="3.94318">
        <ele>925</ele>
        <time>2021-04-15T09:09:21Z</time>
      </trkpt>
      <trkpt lat="45.36987" lon="3.94323">
        <ele>925</ele>
        <time>2021-04-15T09:09:22Z</time>
      </trkpt>
      <trkpt lat="45.36986" lon="3.94328">
        <ele>925</ele>
        <time>2021-04-15T09:09:24Z</time>
      </trkpt>
      <trkpt lat="45.36983" lon="3.94338">
        <ele>925</ele>
        <time>2021-04-15T09:09:25Z</time>
      </trkpt>
      <trkpt lat="45.36982" lon="3.94343">
        <ele>925</ele>
        <time>2021-04-15T09:09:27Z</time>
      </trkpt>
      <trkpt lat="45.3698" lon="3.94348">
        <ele>925</ele>
        <time>2021-04-15T09:09:28Z</time>
      </trkpt>
      <trkpt lat="45.36978" lon="3.94354">
        <ele>925</ele>
        <time>2021-04-15T09:09:29Z</time>
      </trkpt>
      <trkpt lat="45.36976" lon="3.94359">
        <ele>925</ele>
        <time>2021-04-15T09:09:30Z</time>
      </trkpt>
      <trkpt lat="45.36974" lon="3.94365">
        <ele>925</ele>
        <time>2021-04-15T09:09:31Z</time>
      </trkpt>
      <trkpt lat="45.36973" lon="3.94371">
        <ele>925</ele>
        <time>2021-04-15T09:09:32Z</time>
      </trkpt>
      <trkpt lat="45.36971" lon="3.94376">
        <ele>925</ele>
        <time>2021-04-15T09:09:33Z</time>
      </trkpt>
      <trkpt lat="45.36969" lon="3.94382">
        <ele>925</ele>
        <time>2021-04-15T09:09:34Z</time>
      </trkpt>
      <trkpt lat="45.36968" lon="3.94388">
        <ele>925</ele>
        <time>2021-04-15T09:09:35Z</time>
      </trkpt>
      <trkpt lat="45.36966" lon="3.94393">
        <ele>925</ele>
        <time>2021-04-15T09:09:36Z</time>
      </trkpt>
      <trkpt lat="45.36963" lon="3.94402">
        <ele>925</ele>
        <time>2021-04-15T09:09:37Z</time>
      </trkpt>
      <trkpt lat="45.36961" lon="3.94407">
        <ele>926</ele>
        <time>2021-04-15T09:09:39Z</time>
      </trkpt>
      <trkpt lat="45.36959" lon="3.94412">
        <ele>926</ele>
        <time>2021-04-15T09:09:40Z</time>
      </trkpt>
      <trkpt lat="45.36952" lon="3.9442">
        <ele>926</ele>
        <time>2021-04-15T09:09:41Z</time>
      </trkpt>
      <trkpt lat="45.36948" lon="3.94423">
        <ele>925</ele>
        <time>2021-04-15T09:09:42Z</time>
      </trkpt>
      <trkpt lat="45.36944" lon="3.94426">
        <ele>925</ele>
        <time>2021-04-15T09:09:43Z</time>
      </trkpt>
      <trkpt lat="45.3694" lon="3.94428">
        <ele>925</ele>
        <time>2021-04-15T09:09:44Z</time>
      </trkpt>
      <trkpt lat="45.36936" lon="3.9443">
        <ele>925</ele>
        <time>2021-04-15T09:09:45Z</time>
      </trkpt>
      <trkpt lat="45.36932" lon="3.94432">
        <ele>925</ele>
        <time>2021-04-15T09:09:46Z</time>
      </trkpt>
      <trkpt lat="45.36929" lon="3.94436">
        <ele>926</ele>
        <time>2021-04-15T09:09:47Z</time>
      </trkpt>
      <trkpt lat="45.36925" lon="3.94439">
        <ele>926</ele>
        <time>2021-04-15T09:09:48Z</time>
      </trkpt>
      <trkpt lat="45.36922" lon="3.94443">
        <ele>926</ele>
        <time>2021-04-15T09:09:49Z</time>
      </trkpt>
      <trkpt lat="45.36919" lon="3.94448">
        <ele>926</ele>
        <time>2021-04-15T09:09:50Z</time>
      </trkpt>
      <trkpt lat="45.36916" lon="3.94453">
        <ele>926</ele>
        <time>2021-04-15T09:09:51Z</time>
      </trkpt>
      <trkpt lat="45.36913" lon="3.94458">
        <ele>926</ele>
        <time>2021-04-15T09:09:52Z</time>
      </trkpt>
      <trkpt lat="45.36911" lon="3.94463">
        <ele>926</ele>
        <time>2021-04-15T09:09:53Z</time>
      </trkpt>
      <trkpt lat="45.36908" lon="3.94468">
        <ele>926</ele>
        <time>2021-04-15T09:09:54Z</time>
      </trkpt>
      <trkpt lat="45.36906" lon="3.94473">
        <ele>926</ele>
        <time>2021-04-15T09:09:55Z</time>
      </trkpt>
      <trkpt lat="45.36903" lon="3.94478">
        <ele>926</ele>
        <time>2021-04-15T09:09:56Z</time>
      </trkpt>
      <trkpt lat="45.36901" lon="3.94484">
        <ele>927</ele>
        <time>2021-04-15T09:09:57Z</time>
      </trkpt>
      <trkpt lat="45.36898" lon="3.94489">
        <ele>927</ele>
        <time>2021-04-15T09:09:58Z</time>
      </trkpt>
      <trkpt lat="45.36896" lon="3.94495">
        <ele>927</ele>
        <time>2021-04-15T09:09:59Z</time>
      </trkpt>
      <trkpt lat="45.36893" lon="3.945">
        <ele>927</ele>
        <time>2021-04-15T09:10:00Z</time>
      </trkpt>
      <trkpt lat="45.36891" lon="3.94506">
        <ele>927</ele>
        <time>2021-04-15T09:10:01Z</time>
      </trkpt>
      <trkpt lat="45.36889" lon="3.94511">
        <ele>927</ele>
        <time>2021-04-15T09:10:02Z</time>
      </trkpt>
      <trkpt lat="45.36886" lon="3.94516">
        <ele>927</ele>
        <time>2021-04-15T09:10:03Z</time>
      </trkpt>
      <trkpt lat="45.36883" lon="3.94521">
        <ele>927</ele>
        <time>2021-04-15T09:10:04Z</time>
      </trkpt>
      <trkpt lat="45.36881" lon="3.94526">
        <ele>928</ele>
        <time>2021-04-15T09:10:05Z</time>
      </trkpt>
      <trkpt lat="45.36878" lon="3.9453">
        <ele>928</ele>
        <time>2021-04-15T09:10:06Z</time>
      </trkpt>
      <trkpt lat="45.36875" lon="3.94535">
        <ele>928</ele>
        <time>2021-04-15T09:10:07Z</time>
      </trkpt>
      <trkpt lat="45.36873" lon="3.94539">
        <ele>928</ele>
        <time>2021-04-15T09:10:08Z</time>
      </trkpt>
      <trkpt lat="45.3687" lon="3.94544">
        <ele>928</ele>
        <time>2021-04-15T09:10:09Z</time>
      </trkpt>
      <trkpt lat="45.36867" lon="3.94549">
        <ele>929</ele>
        <time>2021-04-15T09:10:10Z</time>
      </trkpt>
      <trkpt lat="45.36864" lon="3.94553">
        <ele>929</ele>
        <time>2021-04-15T09:10:11Z</time>
      </trkpt>
      <trkpt lat="45.36862" lon="3.94557">
        <ele>929</ele>
        <time>2021-04-15T09:10:12Z</time>
      </trkpt>
      <trkpt lat="45.36859" lon="3.94561">
        <ele>929</ele>
        <time>2021-04-15T09:10:13Z</time>
      </trkpt>
      <trkpt lat="45.36856" lon="3.94564">
        <ele>929</ele>
        <time>2021-04-15T09:10:14Z</time>
      </trkpt>
      <trkpt lat="45.36853" lon="3.94568">
        <ele>930</ele>
        <time>2021-04-15T09:10:15Z</time>
      </trkpt>
      <trkpt lat="45.3685" lon="3.94571">
        <ele>930</ele>
        <time>2021-04-15T09:10:16Z</time>
      </trkpt>
      <trkpt lat="45.36847" lon="3.94574">
        <ele>930</ele>
        <time>2021-04-15T09:10:17Z</time>
      </trkpt>
      <trkpt lat="45.36844" lon="3.94575">
        <ele>930</ele>
        <time>2021-04-15T09:10:18Z</time>
      </trkpt>
      <trkpt lat="45.36841" lon="3.94575">
        <ele>931</ele>
        <time>2021-04-15T09:10:19Z</time>
      </trkpt>
      <trkpt lat="45.36839" lon="3.94575">
        <ele>931</ele>
        <time>2021-04-15T09:10:21Z</time>
      </trkpt>
      <trkpt lat="45.36836" lon="3.94573">
        <ele>931</ele>
        <time>2021-04-15T09:10:22Z</time>
      </trkpt>
      <trkpt lat="45.36833" lon="3.94572">
        <ele>931</ele>
        <time>2021-04-15T09:10:23Z</time>
      </trkpt>
      <trkpt lat="45.36831" lon="3.9457">
        <ele>931</ele>
        <time>2021-04-15T09:10:24Z</time>
      </trkpt>
      <trkpt lat="45.36829" lon="3.94569">
        <ele>931</ele>
        <time>2021-04-15T09:10:25Z</time>
      </trkpt>
      <trkpt lat="45.36826" lon="3.94568">
        <ele>931</ele>
        <time>2021-04-15T09:10:26Z</time>
      </trkpt>
      <trkpt lat="45.3682" lon="3.94569">
        <ele>931</ele>
        <time>2021-04-15T09:10:27Z</time>
      </trkpt>
      <trkpt lat="45.36817" lon="3.94571">
        <ele>931</ele>
        <time>2021-04-15T09:10:29Z</time>
      </trkpt>
      <trkpt lat="45.36814" lon="3.94574">
        <ele>931</ele>
        <time>2021-04-15T09:10:30Z</time>
      </trkpt>
      <trkpt lat="45.36811" lon="3.94578">
        <ele>931</ele>
        <time>2021-04-15T09:10:31Z</time>
      </trkpt>
      <trkpt lat="45.3681" lon="3.94582">
        <ele>931</ele>
        <time>2021-04-15T09:10:32Z</time>
      </trkpt>
      <trkpt lat="45.36809" lon="3.94587">
        <ele>931</ele>
        <time>2021-04-15T09:10:33Z</time>
      </trkpt>
      <trkpt lat="45.36808" lon="3.94592">
        <ele>931</ele>
        <time>2021-04-15T09:10:34Z</time>
      </trkpt>
      <trkpt lat="45.36807" lon="3.94596">
        <ele>931</ele>
        <time>2021-04-15T09:10:35Z</time>
      </trkpt>
      <trkpt lat="45.36806" lon="3.94601">
        <ele>931</ele>
        <time>2021-04-15T09:10:36Z</time>
      </trkpt>
      <trkpt lat="45.36805" lon="3.94606">
        <ele>931</ele>
        <time>2021-04-15T09:10:37Z</time>
      </trkpt>
      <trkpt lat="45.36802" lon="3.94616">
        <ele>931</ele>
        <time>2021-04-15T09:10:38Z</time>
      </trkpt>
      <trkpt lat="45.368" lon="3.94621">
        <ele>932</ele>
        <time>2021-04-15T09:10:39Z</time>
      </trkpt>
      <trkpt lat="45.36799" lon="3.94626">
        <ele>932</ele>
        <time>2021-04-15T09:10:40Z</time>
      </trkpt>
      <trkpt lat="45.36798" lon="3.94631">
        <ele>932</ele>
        <time>2021-04-15T09:10:41Z</time>
      </trkpt>
      <trkpt lat="45.36797" lon="3.94636">
        <ele>932</ele>
        <time>2021-04-15T09:10:42Z</time>
      </trkpt>
      <trkpt lat="45.36796" lon="3.94642">
        <ele>932</ele>
        <time>2021-04-15T09:10:43Z</time>
      </trkpt>
      <trkpt lat="45.36795" lon="3.94647">
        <ele>932</ele>
        <time>2021-04-15T09:10:44Z</time>
      </trkpt>
      <trkpt lat="45.36795" lon="3.94654">
        <ele>932</ele>
        <time>2021-04-15T09:10:45Z</time>
      </trkpt>
      <trkpt lat="45.36794" lon="3.9466">
        <ele>932</ele>
        <time>2021-04-15T09:10:46Z</time>
      </trkpt>
      <trkpt lat="45.36793" lon="3.94667">
        <ele>932</ele>
        <time>2021-04-15T09:10:47Z</time>
      </trkpt>
      <trkpt lat="45.36792" lon="3.94673">
        <ele>932</ele>
        <time>2021-04-15T09:10:48Z</time>
      </trkpt>
      <trkpt lat="45.3679" lon="3.94678">
        <ele>932</ele>
        <time>2021-04-15T09:10:49Z</time>
      </trkpt>
      <trkpt lat="45.36788" lon="3.94683">
        <ele>932</ele>
        <time>2021-04-15T09:10:50Z</time>
      </trkpt>
      <trkpt lat="45.36786" lon="3.94688">
        <ele>931</ele>
        <time>2021-04-15T09:10:51Z</time>
      </trkpt>
      <trkpt lat="45.36786" lon="3.94693">
        <ele>931</ele>
        <time>2021-04-15T09:10:52Z</time>
      </trkpt>
      <trkpt lat="45.36787" lon="3.94698">
        <ele>931</ele>
        <time>2021-04-15T09:10:53Z</time>
      </trkpt>
      <trkpt lat="45.36788" lon="3.94702">
        <ele>931</ele>
        <time>2021-04-15T09:10:54Z</time>
      </trkpt>
      <trkpt lat="45.36787" lon="3.94706">
        <ele>931</ele>
        <time>2021-04-15T09:10:55Z</time>
      </trkpt>
      <trkpt lat="45.36786" lon="3.94708">
        <ele>931</ele>
        <time>2021-04-15T09:10:57Z</time>
      </trkpt>
      <trkpt lat="45.36784" lon="3.94707">
        <ele>931</ele>
        <time>2021-04-15T09:11:03Z</time>
      </trkpt>
      <trkpt lat="45.36779" lon="3.94713">
        <ele>932</ele>
        <time>2021-04-15T09:11:14Z</time>
      </trkpt>
      <trkpt lat="45.36773" lon="3.9472">
        <ele>932</ele>
        <time>2021-04-15T09:11:15Z</time>
      </trkpt>
      <trkpt lat="45.36769" lon="3.94724">
        <ele>932</ele>
        <time>2021-04-15T09:11:16Z</time>
      </trkpt>
      <trkpt lat="45.36766" lon="3.94728">
        <ele>932</ele>
        <time>2021-04-15T09:11:17Z</time>
      </trkpt>
      <trkpt lat="45.36762" lon="3.94733">
        <ele>931</ele>
        <time>2021-04-15T09:11:18Z</time>
      </trkpt>
      <trkpt lat="45.36759" lon="3.94738">
        <ele>931</ele>
        <time>2021-04-15T09:11:19Z</time>
      </trkpt>
      <trkpt lat="45.36755" lon="3.94743">
        <ele>931</ele>
        <time>2021-04-15T09:11:20Z</time>
      </trkpt>
      <trkpt lat="45.36752" lon="3.94748">
        <ele>931</ele>
        <time>2021-04-15T09:11:21Z</time>
      </trkpt>
      <trkpt lat="45.36749" lon="3.94752">
        <ele>931</ele>
        <time>2021-04-15T09:11:22Z</time>
      </trkpt>
      <trkpt lat="45.36747" lon="3.94756">
        <ele>930</ele>
        <time>2021-04-15T09:11:23Z</time>
      </trkpt>
      <trkpt lat="45.36745" lon="3.9476">
        <ele>930</ele>
        <time>2021-04-15T09:11:24Z</time>
      </trkpt>
      <trkpt lat="45.36743" lon="3.94764">
        <ele>930</ele>
        <time>2021-04-15T09:11:25Z</time>
      </trkpt>
      <trkpt lat="45.36741" lon="3.94769">
        <ele>930</ele>
        <time>2021-04-15T09:11:26Z</time>
      </trkpt>
      <trkpt lat="45.36739" lon="3.94775">
        <ele>929</ele>
        <time>2021-04-15T09:11:27Z</time>
      </trkpt>
      <trkpt lat="45.36737" lon="3.9478">
        <ele>929</ele>
        <time>2021-04-15T09:11:28Z</time>
      </trkpt>
      <trkpt lat="45.36735" lon="3.94787">
        <ele>929</ele>
        <time>2021-04-15T09:11:29Z</time>
      </trkpt>
      <trkpt lat="45.36732" lon="3.94794">
        <ele>928</ele>
        <time>2021-04-15T09:11:30Z</time>
      </trkpt>
      <trkpt lat="45.3673" lon="3.94801">
        <ele>928</ele>
        <time>2021-04-15T09:11:31Z</time>
      </trkpt>
      <trkpt lat="45.36727" lon="3.94809">
        <ele>927</ele>
        <time>2021-04-15T09:11:32Z</time>
      </trkpt>
      <trkpt lat="45.36725" lon="3.94818">
        <ele>927</ele>
        <time>2021-04-15T09:11:33Z</time>
      </trkpt>
      <trkpt lat="45.36722" lon="3.94826">
        <ele>926</ele>
        <time>2021-04-15T09:11:34Z</time>
      </trkpt>
      <trkpt lat="45.36719" lon="3.94835">
        <ele>926</ele>
        <time>2021-04-15T09:11:35Z</time>
      </trkpt>
      <trkpt lat="45.36715" lon="3.94843">
        <ele>926</ele>
        <time>2021-04-15T09:11:36Z</time>
      </trkpt>
      <trkpt lat="45.36709" lon="3.94851">
        <ele>925</ele>
        <time>2021-04-15T09:11:37Z</time>
      </trkpt>
      <trkpt lat="45.36703" lon="3.94858">
        <ele>925</ele>
        <time>2021-04-15T09:11:38Z</time>
      </trkpt>
      <trkpt lat="45.36697" lon="3.94866">
        <ele>924</ele>
        <time>2021-04-15T09:11:39Z</time>
      </trkpt>
      <trkpt lat="45.3669" lon="3.94874">
        <ele>923</ele>
        <time>2021-04-15T09:11:40Z</time>
      </trkpt>
      <trkpt lat="45.36683" lon="3.94882">
        <ele>923</ele>
        <time>2021-04-15T09:11:41Z</time>
      </trkpt>
      <trkpt lat="45.36676" lon="3.9489">
        <ele>922</ele>
        <time>2021-04-15T09:11:42Z</time>
      </trkpt>
      <trkpt lat="45.36668" lon="3.94898">
        <ele>921</ele>
        <time>2021-04-15T09:11:43Z</time>
      </trkpt>
      <trkpt lat="45.36659" lon="3.94905">
        <ele>920</ele>
        <time>2021-04-15T09:11:44Z</time>
      </trkpt>
      <trkpt lat="45.36651" lon="3.94913">
        <ele>919</ele>
        <time>2021-04-15T09:11:45Z</time>
      </trkpt>
      <trkpt lat="45.36642" lon="3.9492">
        <ele>918</ele>
        <time>2021-04-15T09:11:46Z</time>
      </trkpt>
      <trkpt lat="45.36634" lon="3.94927">
        <ele>917</ele>
        <time>2021-04-15T09:11:47Z</time>
      </trkpt>
      <trkpt lat="45.36625" lon="3.94934">
        <ele>916</ele>
        <time>2021-04-15T09:11:48Z</time>
      </trkpt>
      <trkpt lat="45.36616" lon="3.94941">
        <ele>915</ele>
        <time>2021-04-15T09:11:49Z</time>
      </trkpt>
      <trkpt lat="45.36607" lon="3.94948">
        <ele>914</ele>
        <time>2021-04-15T09:11:50Z</time>
      </trkpt>
      <trkpt lat="45.36598" lon="3.94955">
        <ele>913</ele>
        <time>2021-04-15T09:11:51Z</time>
      </trkpt>
      <trkpt lat="45.3658" lon="3.94969">
        <ele>912</ele>
        <time>2021-04-15T09:11:53Z</time>
      </trkpt>
      <trkpt lat="45.36571" lon="3.94974">
        <ele>911</ele>
        <time>2021-04-15T09:11:54Z</time>
      </trkpt>
      <trkpt lat="45.36562" lon="3.94979">
        <ele>910</ele>
        <time>2021-04-15T09:11:55Z</time>
      </trkpt>
      <trkpt lat="45.36553" lon="3.94982">
        <ele>910</ele>
        <time>2021-04-15T09:11:56Z</time>
      </trkpt>
      <trkpt lat="45.36543" lon="3.94986">
        <ele>909</ele>
        <time>2021-04-15T09:11:57Z</time>
      </trkpt>
      <trkpt lat="45.36533" lon="3.9499">
        <ele>908</ele>
        <time>2021-04-15T09:11:58Z</time>
      </trkpt>
      <trkpt lat="45.36523" lon="3.94993">
        <ele>907</ele>
        <time>2021-04-15T09:11:59Z</time>
      </trkpt>
      <trkpt lat="45.36512" lon="3.94996">
        <ele>906</ele>
        <time>2021-04-15T09:12:00Z</time>
      </trkpt>
      <trkpt lat="45.36502" lon="3.94999">
        <ele>905</ele>
        <time>2021-04-15T09:12:01Z</time>
      </trkpt>
      <trkpt lat="45.36493" lon="3.95003">
        <ele>905</ele>
        <time>2021-04-15T09:12:02Z</time>
      </trkpt>
      <trkpt lat="45.36483" lon="3.95007">
        <ele>904</ele>
        <time>2021-04-15T09:12:03Z</time>
      </trkpt>
      <trkpt lat="45.36474" lon="3.95011">
        <ele>903</ele>
        <time>2021-04-15T09:12:04Z</time>
      </trkpt>
      <trkpt lat="45.36466" lon="3.95015">
        <ele>903</ele>
        <time>2021-04-15T09:12:05Z</time>
      </trkpt>
      <trkpt lat="45.36457" lon="3.95018">
        <ele>903</ele>
        <time>2021-04-15T09:12:06Z</time>
      </trkpt>
      <trkpt lat="45.36448" lon="3.95018">
        <ele>902</ele>
        <time>2021-04-15T09:12:07Z</time>
      </trkpt>
      <trkpt lat="45.3644" lon="3.95018">
        <ele>901</ele>
        <time>2021-04-15T09:12:09Z</time>
      </trkpt>
      <trkpt lat="45.36431" lon="3.95017">
        <ele>901</ele>
        <time>2021-04-15T09:12:10Z</time>
      </trkpt>
      <trkpt lat="45.36423" lon="3.95016">
        <ele>901</ele>
        <time>2021-04-15T09:12:11Z</time>
      </trkpt>
      <trkpt lat="45.36406" lon="3.95014">
        <ele>900</ele>
        <time>2021-04-15T09:12:12Z</time>
      </trkpt>
      <trkpt lat="45.36399" lon="3.95013">
        <ele>899</ele>
        <time>2021-04-15T09:12:14Z</time>
      </trkpt>
      <trkpt lat="45.36393" lon="3.95013">
        <ele>898</ele>
        <time>2021-04-15T09:12:15Z</time>
      </trkpt>
      <trkpt lat="45.36387" lon="3.95014">
        <ele>898</ele>
        <time>2021-04-15T09:12:16Z</time>
      </trkpt>
      <trkpt lat="45.36382" lon="3.95016">
        <ele>897</ele>
        <time>2021-04-15T09:12:17Z</time>
      </trkpt>
      <trkpt lat="45.36377" lon="3.95019">
        <ele>897</ele>
        <time>2021-04-15T09:12:18Z</time>
      </trkpt>
      <trkpt lat="45.36371" lon="3.95022">
        <ele>896</ele>
        <time>2021-04-15T09:12:19Z</time>
      </trkpt>
      <trkpt lat="45.36359" lon="3.95028">
        <ele>896</ele>
        <time>2021-04-15T09:12:20Z</time>
      </trkpt>
      <trkpt lat="45.36353" lon="3.95032">
        <ele>895</ele>
        <time>2021-04-15T09:12:22Z</time>
      </trkpt>
      <trkpt lat="45.36346" lon="3.95036">
        <ele>895</ele>
        <time>2021-04-15T09:12:23Z</time>
      </trkpt>
      <trkpt lat="45.3634" lon="3.95042">
        <ele>895</ele>
        <time>2021-04-15T09:12:24Z</time>
      </trkpt>
      <trkpt lat="45.36334" lon="3.95048">
        <ele>894</ele>
        <time>2021-04-15T09:12:25Z</time>
      </trkpt>
      <trkpt lat="45.36328" lon="3.95055">
        <ele>894</ele>
        <time>2021-04-15T09:12:26Z</time>
      </trkpt>
      <trkpt lat="45.36316" lon="3.95069">
        <ele>894</ele>
        <time>2021-04-15T09:12:27Z</time>
      </trkpt>
      <trkpt lat="45.3631" lon="3.95077">
        <ele>892</ele>
        <time>2021-04-15T09:12:29Z</time>
      </trkpt>
      <trkpt lat="45.36304" lon="3.95085">
        <ele>892</ele>
        <time>2021-04-15T09:12:30Z</time>
      </trkpt>
      <trkpt lat="45.36293" lon="3.95102">
        <ele>891</ele>
        <time>2021-04-15T09:12:31Z</time>
      </trkpt>
      <trkpt lat="45.36286" lon="3.95109">
        <ele>890</ele>
        <time>2021-04-15T09:12:32Z</time>
      </trkpt>
      <trkpt lat="45.36279" lon="3.95114">
        <ele>889</ele>
        <time>2021-04-15T09:12:33Z</time>
      </trkpt>
      <trkpt lat="45.36272" lon="3.95118">
        <ele>889</ele>
        <time>2021-04-15T09:12:34Z</time>
      </trkpt>
      <trkpt lat="45.36265" lon="3.95123">
        <ele>888</ele>
        <time>2021-04-15T09:12:35Z</time>
      </trkpt>
      <trkpt lat="45.36257" lon="3.95128">
        <ele>888</ele>
        <time>2021-04-15T09:12:36Z</time>
      </trkpt>
      <trkpt lat="45.3625" lon="3.95133">
        <ele>888</ele>
        <time>2021-04-15T09:12:37Z</time>
      </trkpt>
      <trkpt lat="45.36244" lon="3.95138">
        <ele>887</ele>
        <time>2021-04-15T09:12:38Z</time>
      </trkpt>
      <trkpt lat="45.36237" lon="3.95144">
        <ele>886</ele>
        <time>2021-04-15T09:12:39Z</time>
      </trkpt>
      <trkpt lat="45.3623" lon="3.95149">
        <ele>886</ele>
        <time>2021-04-15T09:12:40Z</time>
      </trkpt>
      <trkpt lat="45.36223" lon="3.95155">
        <ele>885</ele>
        <time>2021-04-15T09:12:41Z</time>
      </trkpt>
      <trkpt lat="45.36216" lon="3.9516">
        <ele>885</ele>
        <time>2021-04-15T09:12:42Z</time>
      </trkpt>
      <trkpt lat="45.36209" lon="3.95165">
        <ele>884</ele>
        <time>2021-04-15T09:12:43Z</time>
      </trkpt>
      <trkpt lat="45.36203" lon="3.95169">
        <ele>884</ele>
        <time>2021-04-15T09:12:44Z</time>
      </trkpt>
      <trkpt lat="45.36196" lon="3.95174">
        <ele>883</ele>
        <time>2021-04-15T09:12:45Z</time>
      </trkpt>
      <trkpt lat="45.36189" lon="3.95178">
        <ele>883</ele>
        <time>2021-04-15T09:12:46Z</time>
      </trkpt>
      <trkpt lat="45.36182" lon="3.95183">
        <ele>883</ele>
        <time>2021-04-15T09:12:47Z</time>
      </trkpt>
      <trkpt lat="45.36175" lon="3.95187">
        <ele>883</ele>
        <time>2021-04-15T09:12:48Z</time>
      </trkpt>
      <trkpt lat="45.36168" lon="3.95192">
        <ele>883</ele>
        <time>2021-04-15T09:12:49Z</time>
      </trkpt>
      <trkpt lat="45.36162" lon="3.95196">
        <ele>882</ele>
        <time>2021-04-15T09:12:50Z</time>
      </trkpt>
      <trkpt lat="45.36155" lon="3.95201">
        <ele>882</ele>
        <time>2021-04-15T09:12:52Z</time>
      </trkpt>
      <trkpt lat="45.36143" lon="3.95209">
        <ele>882</ele>
        <time>2021-04-15T09:12:53Z</time>
      </trkpt>
      <trkpt lat="45.36137" lon="3.95213">
        <ele>881</ele>
        <time>2021-04-15T09:12:54Z</time>
      </trkpt>
      <trkpt lat="45.36132" lon="3.95217">
        <ele>881</ele>
        <time>2021-04-15T09:12:55Z</time>
      </trkpt>
      <trkpt lat="45.36127" lon="3.95222">
        <ele>881</ele>
        <time>2021-04-15T09:12:56Z</time>
      </trkpt>
      <trkpt lat="45.36122" lon="3.95226">
        <ele>881</ele>
        <time>2021-04-15T09:12:57Z</time>
      </trkpt>
      <trkpt lat="45.36117" lon="3.9523">
        <ele>881</ele>
        <time>2021-04-15T09:12:58Z</time>
      </trkpt>
      <trkpt lat="45.36112" lon="3.95235">
        <ele>881</ele>
        <time>2021-04-15T09:12:59Z</time>
      </trkpt>
      <trkpt lat="45.36107" lon="3.95239">
        <ele>881</ele>
        <time>2021-04-15T09:13:00Z</time>
      </trkpt>
      <trkpt lat="45.36102" lon="3.95243">
        <ele>881</ele>
        <time>2021-04-15T09:13:01Z</time>
      </trkpt>
      <trkpt lat="45.36098" lon="3.95248">
        <ele>880</ele>
        <time>2021-04-15T09:13:02Z</time>
      </trkpt>
      <trkpt lat="45.36093" lon="3.95253">
        <ele>880</ele>
        <time>2021-04-15T09:13:03Z</time>
      </trkpt>
      <trkpt lat="45.36088" lon="3.95257">
        <ele>880</ele>
        <time>2021-04-15T09:13:04Z</time>
      </trkpt>
      <trkpt lat="45.36083" lon="3.95261">
        <ele>880</ele>
        <time>2021-04-15T09:13:05Z</time>
      </trkpt>
      <trkpt lat="45.36078" lon="3.95265">
        <ele>881</ele>
        <time>2021-04-15T09:13:06Z</time>
      </trkpt>
      <trkpt lat="45.36073" lon="3.95268">
        <ele>881</ele>
        <time>2021-04-15T09:13:07Z</time>
      </trkpt>
      <trkpt lat="45.36068" lon="3.95272">
        <ele>881</ele>
        <time>2021-04-15T09:13:08Z</time>
      </trkpt>
      <trkpt lat="45.36063" lon="3.95275">
        <ele>881</ele>
        <time>2021-04-15T09:13:09Z</time>
      </trkpt>
      <trkpt lat="45.36058" lon="3.95278">
        <ele>881</ele>
        <time>2021-04-15T09:13:10Z</time>
      </trkpt>
      <trkpt lat="45.36053" lon="3.95281">
        <ele>881</ele>
        <time>2021-04-15T09:13:11Z</time>
      </trkpt>
      <trkpt lat="45.36048" lon="3.95284">
        <ele>881</ele>
        <time>2021-04-15T09:13:12Z</time>
      </trkpt>
      <trkpt lat="45.36043" lon="3.95287">
        <ele>881</ele>
        <time>2021-04-15T09:13:13Z</time>
      </trkpt>
      <trkpt lat="45.36038" lon="3.9529">
        <ele>881</ele>
        <time>2021-04-15T09:13:14Z</time>
      </trkpt>
      <trkpt lat="45.36033" lon="3.95293">
        <ele>881</ele>
        <time>2021-04-15T09:13:15Z</time>
      </trkpt>
      <trkpt lat="45.36028" lon="3.95296">
        <ele>881</ele>
        <time>2021-04-15T09:13:16Z</time>
      </trkpt>
      <trkpt lat="45.36024" lon="3.95298">
        <ele>881</ele>
        <time>2021-04-15T09:13:17Z</time>
      </trkpt>
      <trkpt lat="45.36019" lon="3.95301">
        <ele>881</ele>
        <time>2021-04-15T09:13:18Z</time>
      </trkpt>
      <trkpt lat="45.36014" lon="3.95304">
        <ele>882</ele>
        <time>2021-04-15T09:13:19Z</time>
      </trkpt>
      <trkpt lat="45.3601" lon="3.95306">
        <ele>882</ele>
        <time>2021-04-15T09:13:20Z</time>
      </trkpt>
      <trkpt lat="45.36006" lon="3.95307">
        <ele>881</ele>
        <time>2021-04-15T09:13:21Z</time>
      </trkpt>
      <trkpt lat="45.36001" lon="3.95308">
        <ele>881</ele>
        <time>2021-04-15T09:13:22Z</time>
      </trkpt>
      <trkpt lat="45.35996" lon="3.95309">
        <ele>881</ele>
        <time>2021-04-15T09:13:23Z</time>
      </trkpt>
      <trkpt lat="45.35992" lon="3.95309">
        <ele>881</ele>
        <time>2021-04-15T09:13:24Z</time>
      </trkpt>
      <trkpt lat="45.35988" lon="3.9531">
        <ele>881</ele>
        <time>2021-04-15T09:13:25Z</time>
      </trkpt>
      <trkpt lat="45.35985" lon="3.95311">
        <ele>881</ele>
        <time>2021-04-15T09:13:26Z</time>
      </trkpt>
      <trkpt lat="45.3598" lon="3.95312">
        <ele>881</ele>
        <time>2021-04-15T09:13:27Z</time>
      </trkpt>
      <trkpt lat="45.35975" lon="3.95314">
        <ele>881</ele>
        <time>2021-04-15T09:13:28Z</time>
      </trkpt>
      <trkpt lat="45.35963" lon="3.95319">
        <ele>880</ele>
        <time>2021-04-15T09:13:30Z</time>
      </trkpt>
      <trkpt lat="45.35956" lon="3.95323">
        <ele>879</ele>
        <time>2021-04-15T09:13:32Z</time>
      </trkpt>
      <trkpt lat="45.35948" lon="3.95326">
        <ele>878</ele>
        <time>2021-04-15T09:13:33Z</time>
      </trkpt>
      <trkpt lat="45.3594" lon="3.9533">
        <ele>877</ele>
        <time>2021-04-15T09:13:34Z</time>
      </trkpt>
      <trkpt lat="45.35931" lon="3.95333">
        <ele>876</ele>
        <time>2021-04-15T09:13:35Z</time>
      </trkpt>
      <trkpt lat="45.35913" lon="3.9534">
        <ele>875</ele>
        <time>2021-04-15T09:13:36Z</time>
      </trkpt>
      <trkpt lat="45.35904" lon="3.95343">
        <ele>874</ele>
        <time>2021-04-15T09:13:38Z</time>
      </trkpt>
      <trkpt lat="45.35895" lon="3.95347">
        <ele>873</ele>
        <time>2021-04-15T09:13:39Z</time>
      </trkpt>
      <trkpt lat="45.35886" lon="3.9535">
        <ele>873</ele>
        <time>2021-04-15T09:13:40Z</time>
      </trkpt>
      <trkpt lat="45.3587" lon="3.95356">
        <ele>873</ele>
        <time>2021-04-15T09:13:41Z</time>
      </trkpt>
      <trkpt lat="45.35863" lon="3.95358">
        <ele>872</ele>
        <time>2021-04-15T09:13:43Z</time>
      </trkpt>
      <trkpt lat="45.35855" lon="3.95361">
        <ele>871</ele>
        <time>2021-04-15T09:13:44Z</time>
      </trkpt>
      <trkpt lat="45.35848" lon="3.95364">
        <ele>871</ele>
        <time>2021-04-15T09:13:45Z</time>
      </trkpt>
      <trkpt lat="45.35841" lon="3.95367">
        <ele>871</ele>
        <time>2021-04-15T09:13:46Z</time>
      </trkpt>
      <trkpt lat="45.35829" lon="3.95372">
        <ele>870</ele>
        <time>2021-04-15T09:13:47Z</time>
      </trkpt>
      <trkpt lat="45.35823" lon="3.95376">
        <ele>870</ele>
        <time>2021-04-15T09:13:48Z</time>
      </trkpt>
      <trkpt lat="45.35818" lon="3.9538">
        <ele>870</ele>
        <time>2021-04-15T09:13:49Z</time>
      </trkpt>
      <trkpt lat="45.35814" lon="3.95383">
        <ele>870</ele>
        <time>2021-04-15T09:13:50Z</time>
      </trkpt>
      <trkpt lat="45.35811" lon="3.95386">
        <ele>869</ele>
        <time>2021-04-15T09:13:51Z</time>
      </trkpt>
      <trkpt lat="45.35808" lon="3.95388">
        <ele>870</ele>
        <time>2021-04-15T09:13:52Z</time>
      </trkpt>
      <trkpt lat="45.35805" lon="3.9539">
        <ele>870</ele>
        <time>2021-04-15T09:13:53Z</time>
      </trkpt>
      <trkpt lat="45.35801" lon="3.95393">
        <ele>870</ele>
        <time>2021-04-15T09:13:54Z</time>
      </trkpt>
      <trkpt lat="45.35798" lon="3.95396">
        <ele>869</ele>
        <time>2021-04-15T09:13:55Z</time>
      </trkpt>
      <trkpt lat="45.35794" lon="3.954">
        <ele>869</ele>
        <time>2021-04-15T09:13:56Z</time>
      </trkpt>
      <trkpt lat="45.3579" lon="3.95404">
        <ele>869</ele>
        <time>2021-04-15T09:13:57Z</time>
      </trkpt>
      <trkpt lat="45.35786" lon="3.95408">
        <ele>869</ele>
        <time>2021-04-15T09:13:58Z</time>
      </trkpt>
      <trkpt lat="45.35782" lon="3.9541">
        <ele>868</ele>
        <time>2021-04-15T09:13:59Z</time>
      </trkpt>
      <trkpt lat="45.35779" lon="3.95411">
        <ele>868</ele>
        <time>2021-04-15T09:14:01Z</time>
      </trkpt>
      <trkpt lat="45.35777" lon="3.95413">
        <ele>869</ele>
        <time>2021-04-15T09:14:03Z</time>
      </trkpt>
      <trkpt lat="45.35775" lon="3.95415">
        <ele>869</ele>
        <time>2021-04-15T09:14:05Z</time>
      </trkpt>
      <trkpt lat="45.35773" lon="3.95418">
        <ele>869</ele>
        <time>2021-04-15T09:14:06Z</time>
      </trkpt>
      <trkpt lat="45.3577" lon="3.95423">
        <ele>869</ele>
        <time>2021-04-15T09:14:08Z</time>
      </trkpt>
      <trkpt lat="45.35769" lon="3.95427">
        <ele>869</ele>
        <time>2021-04-15T09:14:09Z</time>
      </trkpt>
      <trkpt lat="45.35767" lon="3.95431">
        <ele>869</ele>
        <time>2021-04-15T09:14:10Z</time>
      </trkpt>
      <trkpt lat="45.35765" lon="3.95435">
        <ele>869</ele>
        <time>2021-04-15T09:14:11Z</time>
      </trkpt>
      <trkpt lat="45.35762" lon="3.95438">
        <ele>869</ele>
        <time>2021-04-15T09:14:12Z</time>
      </trkpt>
      <trkpt lat="45.3576" lon="3.95441">
        <ele>869</ele>
        <time>2021-04-15T09:14:13Z</time>
      </trkpt>
      <trkpt lat="45.35759" lon="3.95445">
        <ele>869</ele>
        <time>2021-04-15T09:14:14Z</time>
      </trkpt>
      <trkpt lat="45.35757" lon="3.95448">
        <ele>869</ele>
        <time>2021-04-15T09:14:15Z</time>
      </trkpt>
      <trkpt lat="45.35755" lon="3.95451">
        <ele>869</ele>
        <time>2021-04-15T09:14:16Z</time>
      </trkpt>
      <trkpt lat="45.35753" lon="3.95455">
        <ele>869</ele>
        <time>2021-04-15T09:14:17Z</time>
      </trkpt>
      <trkpt lat="45.35751" lon="3.95458">
        <ele>869</ele>
        <time>2021-04-15T09:14:18Z</time>
      </trkpt>
      <trkpt lat="45.35749" lon="3.95461">
        <ele>869</ele>
        <time>2021-04-15T09:14:19Z</time>
      </trkpt>
      <trkpt lat="45.35748" lon="3.95464">
        <ele>869</ele>
        <time>2021-04-15T09:14:20Z</time>
      </trkpt>
      <trkpt lat="45.35746" lon="3.95467">
        <ele>869</ele>
        <time>2021-04-15T09:14:21Z</time>
      </trkpt>
      <trkpt lat="45.35744" lon="3.9547">
        <ele>869</ele>
        <time>2021-04-15T09:14:22Z</time>
      </trkpt>
      <trkpt lat="45.35741" lon="3.95472">
        <ele>869</ele>
        <time>2021-04-15T09:14:23Z</time>
      </trkpt>
      <trkpt lat="45.35739" lon="3.95475">
        <ele>869</ele>
        <time>2021-04-15T09:14:24Z</time>
      </trkpt>
      <trkpt lat="45.35737" lon="3.95478">
        <ele>870</ele>
        <time>2021-04-15T09:14:25Z</time>
      </trkpt>
      <trkpt lat="45.35735" lon="3.9548">
        <ele>870</ele>
        <time>2021-04-15T09:14:27Z</time>
      </trkpt>
      <trkpt lat="45.35733" lon="3.95482">
        <ele>870</ele>
        <time>2021-04-15T09:14:28Z</time>
      </trkpt>
      <trkpt lat="45.35731" lon="3.95485">
        <ele>871</ele>
        <time>2021-04-15T09:14:29Z</time>
      </trkpt>
      <trkpt lat="45.3573" lon="3.95487">
        <ele>871</ele>
        <time>2021-04-15T09:14:30Z</time>
      </trkpt>
      <trkpt lat="45.35728" lon="3.95489">
        <ele>871</ele>
        <time>2021-04-15T09:14:31Z</time>
      </trkpt>
      <trkpt lat="45.35726" lon="3.95491">
        <ele>871</ele>
        <time>2021-04-15T09:14:32Z</time>
      </trkpt>
      <trkpt lat="45.35724" lon="3.95493">
        <ele>872</ele>
        <time>2021-04-15T09:14:33Z</time>
      </trkpt>
      <trkpt lat="45.35722" lon="3.95496">
        <ele>872</ele>
        <time>2021-04-15T09:14:34Z</time>
      </trkpt>
      <trkpt lat="45.3572" lon="3.95498">
        <ele>872</ele>
        <time>2021-04-15T09:14:35Z</time>
      </trkpt>
      <trkpt lat="45.35718" lon="3.95501">
        <ele>872</ele>
        <time>2021-04-15T09:14:36Z</time>
      </trkpt>
      <trkpt lat="45.35714" lon="3.95502">
        <ele>872</ele>
        <time>2021-04-15T09:14:37Z</time>
      </trkpt>
      <trkpt lat="45.35712" lon="3.95502">
        <ele>872</ele>
        <time>2021-04-15T09:14:39Z</time>
      </trkpt>
      <trkpt lat="45.35713" lon="3.95498">
        <ele>873</ele>
        <time>2021-04-15T09:14:40Z</time>
      </trkpt>
      <trkpt lat="45.35711" lon="3.95495">
        <ele>873</ele>
        <time>2021-04-15T09:14:42Z</time>
      </trkpt>
      <trkpt lat="45.35709" lon="3.95498">
        <ele>873</ele>
        <time>2021-04-15T09:14:44Z</time>
      </trkpt>
      <trkpt lat="45.3571" lon="3.95503">
        <ele>874</ele>
        <time>2021-04-15T09:14:45Z</time>
      </trkpt>
      <trkpt lat="45.3571" lon="3.95507">
        <ele>874</ele>
        <time>2021-04-15T09:14:46Z</time>
      </trkpt>
      <trkpt lat="45.35711" lon="3.95512">
        <ele>874</ele>
        <time>2021-04-15T09:14:47Z</time>
      </trkpt>
      <trkpt lat="45.35712" lon="3.95517">
        <ele>875</ele>
        <time>2021-04-15T09:14:48Z</time>
      </trkpt>
      <trkpt lat="45.35712" lon="3.95522">
        <ele>875</ele>
        <time>2021-04-15T09:14:49Z</time>
      </trkpt>
      <trkpt lat="45.35712" lon="3.95526">
        <ele>875</ele>
        <time>2021-04-15T09:14:50Z</time>
      </trkpt>
      <trkpt lat="45.35713" lon="3.9553">
        <ele>875</ele>
        <time>2021-04-15T09:14:51Z</time>
      </trkpt>
      <trkpt lat="45.35713" lon="3.95534">
        <ele>876</ele>
        <time>2021-04-15T09:14:52Z</time>
      </trkpt>
      <trkpt lat="45.35713" lon="3.95538">
        <ele>876</ele>
        <time>2021-04-15T09:14:53Z</time>
      </trkpt>
      <trkpt lat="45.35713" lon="3.95543">
        <ele>876</ele>
        <time>2021-04-15T09:14:54Z</time>
      </trkpt>
      <trkpt lat="45.35712" lon="3.95547">
        <ele>877</ele>
        <time>2021-04-15T09:14:55Z</time>
      </trkpt>
      <trkpt lat="45.35711" lon="3.9555">
        <ele>877</ele>
        <time>2021-04-15T09:14:56Z</time>
      </trkpt>
      <trkpt lat="45.35711" lon="3.95554">
        <ele>877</ele>
        <time>2021-04-15T09:14:57Z</time>
      </trkpt>
      <trkpt lat="45.3571" lon="3.95558">
        <ele>877</ele>
        <time>2021-04-15T09:14:58Z</time>
      </trkpt>
      <trkpt lat="45.35709" lon="3.95561">
        <ele>878</ele>
        <time>2021-04-15T09:15:00Z</time>
      </trkpt>
      <trkpt lat="45.35708" lon="3.95564">
        <ele>878</ele>
        <time>2021-04-15T09:15:01Z</time>
      </trkpt>
      <trkpt lat="45.35708" lon="3.95568">
        <ele>878</ele>
        <time>2021-04-15T09:15:02Z</time>
      </trkpt>
      <trkpt lat="45.35709" lon="3.95577">
        <ele>878</ele>
        <time>2021-04-15T09:15:03Z</time>
      </trkpt>
      <trkpt lat="45.3571" lon="3.95581">
        <ele>879</ele>
        <time>2021-04-15T09:15:05Z</time>
      </trkpt>
      <trkpt lat="45.35711" lon="3.95585">
        <ele>879</ele>
        <time>2021-04-15T09:15:06Z</time>
      </trkpt>
      <trkpt lat="45.35711" lon="3.95588">
        <ele>880</ele>
        <time>2021-04-15T09:15:07Z</time>
      </trkpt>
      <trkpt lat="45.3571" lon="3.95591">
        <ele>880</ele>
        <time>2021-04-15T09:15:08Z</time>
      </trkpt>
      <trkpt lat="45.35712" lon="3.95592">
        <ele>882</ele>
        <time>2021-04-15T09:15:10Z</time>
      </trkpt>
      <trkpt lat="45.35711" lon="3.95586">
        <ele>883</ele>
        <time>2021-04-15T09:15:12Z</time>
      </trkpt>
      <trkpt lat="45.35709" lon="3.95582">
        <ele>883</ele>
        <time>2021-04-15T09:15:13Z</time>
      </trkpt>
      <trkpt lat="45.35707" lon="3.95578">
        <ele>883</ele>
        <time>2021-04-15T09:15:14Z</time>
      </trkpt>
      <trkpt lat="45.35705" lon="3.95574">
        <ele>884</ele>
        <time>2021-04-15T09:15:15Z</time>
      </trkpt>
      <trkpt lat="45.35703" lon="3.9557">
        <ele>884</ele>
        <time>2021-04-15T09:15:16Z</time>
      </trkpt>
      <trkpt lat="45.35697" lon="3.95562">
        <ele>884</ele>
        <time>2021-04-15T09:15:17Z</time>
      </trkpt>
      <trkpt lat="45.35695" lon="3.95558">
        <ele>885</ele>
        <time>2021-04-15T09:15:19Z</time>
      </trkpt>
      <trkpt lat="45.35692" lon="3.95555">
        <ele>885</ele>
        <time>2021-04-15T09:15:20Z</time>
      </trkpt>
      <trkpt lat="45.35689" lon="3.95553">
        <ele>885</ele>
        <time>2021-04-15T09:15:21Z</time>
      </trkpt>
      <trkpt lat="45.35681" lon="3.9555">
        <ele>885</ele>
        <time>2021-04-15T09:15:22Z</time>
      </trkpt>
      <trkpt lat="45.35677" lon="3.95549">
        <ele>885</ele>
        <time>2021-04-15T09:15:23Z</time>
      </trkpt>
      <trkpt lat="45.35673" lon="3.95549">
        <ele>885</ele>
        <time>2021-04-15T09:15:24Z</time>
      </trkpt>
      <trkpt lat="45.35669" lon="3.95548">
        <ele>885</ele>
        <time>2021-04-15T09:15:25Z</time>
      </trkpt>
      <trkpt lat="45.35665" lon="3.95546">
        <ele>885</ele>
        <time>2021-04-15T09:15:26Z</time>
      </trkpt>
      <trkpt lat="45.35662" lon="3.95542">
        <ele>885</ele>
        <time>2021-04-15T09:15:27Z</time>
      </trkpt>
      <trkpt lat="45.35661" lon="3.95538">
        <ele>886</ele>
        <time>2021-04-15T09:15:28Z</time>
      </trkpt>
      <trkpt lat="45.35658" lon="3.95534">
        <ele>886</ele>
        <time>2021-04-15T09:15:29Z</time>
      </trkpt>
      <trkpt lat="45.35653" lon="3.95532">
        <ele>886</ele>
        <time>2021-04-15T09:15:30Z</time>
      </trkpt>
      <trkpt lat="45.35648" lon="3.95531">
        <ele>886</ele>
        <time>2021-04-15T09:15:31Z</time>
      </trkpt>
      <trkpt lat="45.35642" lon="3.9553">
        <ele>886</ele>
        <time>2021-04-15T09:15:32Z</time>
      </trkpt>
      <trkpt lat="45.35636" lon="3.95528">
        <ele>886</ele>
        <time>2021-04-15T09:15:33Z</time>
      </trkpt>
      <trkpt lat="45.3563" lon="3.95526">
        <ele>885</ele>
        <time>2021-04-15T09:15:34Z</time>
      </trkpt>
      <trkpt lat="45.35624" lon="3.95524">
        <ele>885</ele>
        <time>2021-04-15T09:15:35Z</time>
      </trkpt>
      <trkpt lat="45.35617" lon="3.95522">
        <ele>885</ele>
        <time>2021-04-15T09:15:36Z</time>
      </trkpt>
      <trkpt lat="45.35608" lon="3.9552">
        <ele>884</ele>
        <time>2021-04-15T09:15:37Z</time>
      </trkpt>
      <trkpt lat="45.356" lon="3.95517">
        <ele>884</ele>
        <time>2021-04-15T09:15:38Z</time>
      </trkpt>
      <trkpt lat="45.35592" lon="3.95513">
        <ele>883</ele>
        <time>2021-04-15T09:15:39Z</time>
      </trkpt>
      <trkpt lat="45.35585" lon="3.95508">
        <ele>883</ele>
        <time>2021-04-15T09:15:40Z</time>
      </trkpt>
      <trkpt lat="45.35579" lon="3.95503">
        <ele>883</ele>
        <time>2021-04-15T09:15:41Z</time>
      </trkpt>
      <trkpt lat="45.35572" lon="3.95499">
        <ele>882</ele>
        <time>2021-04-15T09:15:43Z</time>
      </trkpt>
      <trkpt lat="45.3556" lon="3.95493">
        <ele>882</ele>
        <time>2021-04-15T09:15:44Z</time>
      </trkpt>
      <trkpt lat="45.35554" lon="3.95491">
        <ele>881</ele>
        <time>2021-04-15T09:15:46Z</time>
      </trkpt>
      <trkpt lat="45.35548" lon="3.95489">
        <ele>881</ele>
        <time>2021-04-15T09:15:47Z</time>
      </trkpt>
      <trkpt lat="45.35543" lon="3.95487">
        <ele>880</ele>
        <time>2021-04-15T09:15:48Z</time>
      </trkpt>
      <trkpt lat="45.35538" lon="3.95486">
        <ele>880</ele>
        <time>2021-04-15T09:15:49Z</time>
      </trkpt>
      <trkpt lat="45.35534" lon="3.95483">
        <ele>880</ele>
        <time>2021-04-15T09:15:50Z</time>
      </trkpt>
      <trkpt lat="45.3553" lon="3.9548">
        <ele>880</ele>
        <time>2021-04-15T09:15:51Z</time>
      </trkpt>
      <trkpt lat="45.35527" lon="3.95477">
        <ele>880</ele>
        <time>2021-04-15T09:15:52Z</time>
      </trkpt>
      <trkpt lat="45.35524" lon="3.95473">
        <ele>880</ele>
        <time>2021-04-15T09:15:53Z</time>
      </trkpt>
      <trkpt lat="45.35521" lon="3.9547">
        <ele>879</ele>
        <time>2021-04-15T09:15:54Z</time>
      </trkpt>
      <trkpt lat="45.35514" lon="3.95465">
        <ele>879</ele>
        <time>2021-04-15T09:15:55Z</time>
      </trkpt>
      <trkpt lat="45.35511" lon="3.95464">
        <ele>879</ele>
        <time>2021-04-15T09:15:57Z</time>
      </trkpt>
      <trkpt lat="45.35509" lon="3.95463">
        <ele>879</ele>
        <time>2021-04-15T09:15:58Z</time>
      </trkpt>
      <trkpt lat="45.35507" lon="3.95463">
        <ele>879</ele>
        <time>2021-04-15T09:15:59Z</time>
      </trkpt>
      <trkpt lat="45.35504" lon="3.95463">
        <ele>879</ele>
        <time>2021-04-15T09:16:00Z</time>
      </trkpt>
      <trkpt lat="45.35501" lon="3.95461">
        <ele>879</ele>
        <time>2021-04-15T09:16:02Z</time>
      </trkpt>
      <trkpt lat="45.35499" lon="3.95459">
        <ele>880</ele>
        <time>2021-04-15T09:16:03Z</time>
      </trkpt>
      <trkpt lat="45.35497" lon="3.95458">
        <ele>880</ele>
        <time>2021-04-15T09:16:04Z</time>
      </trkpt>
      <trkpt lat="45.35494" lon="3.95458">
        <ele>880</ele>
        <time>2021-04-15T09:16:06Z</time>
      </trkpt>
      <trkpt lat="45.35492" lon="3.95455">
        <ele>880</ele>
        <time>2021-04-15T09:16:08Z</time>
      </trkpt>
      <trkpt lat="45.35489" lon="3.95453">
        <ele>880</ele>
        <time>2021-04-15T09:16:09Z</time>
      </trkpt>
      <trkpt lat="45.35487" lon="3.95452">
        <ele>880</ele>
        <time>2021-04-15T09:16:10Z</time>
      </trkpt>
      <trkpt lat="45.35485" lon="3.95449">
        <ele>879</ele>
        <time>2021-04-15T09:16:11Z</time>
      </trkpt>
      <trkpt lat="45.35482" lon="3.95447">
        <ele>879</ele>
        <time>2021-04-15T09:16:12Z</time>
      </trkpt>
      <trkpt lat="45.3548" lon="3.95445">
        <ele>879</ele>
        <time>2021-04-15T09:16:13Z</time>
      </trkpt>
      <trkpt lat="45.35479" lon="3.95443">
        <ele>879</ele>
        <time>2021-04-15T09:16:14Z</time>
      </trkpt>
      <trkpt lat="45.35476" lon="3.95441">
        <ele>880</ele>
        <time>2021-04-15T09:16:16Z</time>
      </trkpt>
      <trkpt lat="45.35474" lon="3.9544">
        <ele>880</ele>
        <time>2021-04-15T09:16:17Z</time>
      </trkpt>
      <trkpt lat="45.35472" lon="3.95438">
        <ele>880</ele>
        <time>2021-04-15T09:16:18Z</time>
      </trkpt>
      <trkpt lat="45.35469" lon="3.95436">
        <ele>880</ele>
        <time>2021-04-15T09:16:19Z</time>
      </trkpt>
      <trkpt lat="45.35466" lon="3.95433">
        <ele>880</ele>
        <time>2021-04-15T09:16:21Z</time>
      </trkpt>
      <trkpt lat="45.35463" lon="3.95431">
        <ele>881</ele>
        <time>2021-04-15T09:16:22Z</time>
      </trkpt>
      <trkpt lat="45.35459" lon="3.95428">
        <ele>881</ele>
        <time>2021-04-15T09:16:23Z</time>
      </trkpt>
      <trkpt lat="45.35455" lon="3.95425">
        <ele>881</ele>
        <time>2021-04-15T09:16:24Z</time>
      </trkpt>
      <trkpt lat="45.35451" lon="3.95423">
        <ele>881</ele>
        <time>2021-04-15T09:16:25Z</time>
      </trkpt>
      <trkpt lat="45.35447" lon="3.9542">
        <ele>881</ele>
        <time>2021-04-15T09:16:26Z</time>
      </trkpt>
      <trkpt lat="45.35443" lon="3.95417">
        <ele>881</ele>
        <time>2021-04-15T09:16:27Z</time>
      </trkpt>
      <trkpt lat="45.35438" lon="3.95415">
        <ele>881</ele>
        <time>2021-04-15T09:16:28Z</time>
      </trkpt>
      <trkpt lat="45.35433" lon="3.95412">
        <ele>881</ele>
        <time>2021-04-15T09:16:29Z</time>
      </trkpt>
      <trkpt lat="45.35423" lon="3.95407">
        <ele>880</ele>
        <time>2021-04-15T09:16:30Z</time>
      </trkpt>
      <trkpt lat="45.35419" lon="3.95405">
        <ele>879</ele>
        <time>2021-04-15T09:16:32Z</time>
      </trkpt>
      <trkpt lat="45.35414" lon="3.95403">
        <ele>879</ele>
        <time>2021-04-15T09:16:33Z</time>
      </trkpt>
      <trkpt lat="45.35409" lon="3.95402">
        <ele>879</ele>
        <time>2021-04-15T09:16:34Z</time>
      </trkpt>
      <trkpt lat="45.35405" lon="3.954">
        <ele>879</ele>
        <time>2021-04-15T09:16:35Z</time>
      </trkpt>
      <trkpt lat="45.35401" lon="3.95398">
        <ele>879</ele>
        <time>2021-04-15T09:16:36Z</time>
      </trkpt>
      <trkpt lat="45.35397" lon="3.95396">
        <ele>879</ele>
        <time>2021-04-15T09:16:37Z</time>
      </trkpt>
      <trkpt lat="45.3539" lon="3.9539">
        <ele>879</ele>
        <time>2021-04-15T09:16:38Z</time>
      </trkpt>
      <trkpt lat="45.35386" lon="3.95388">
        <ele>879</ele>
        <time>2021-04-15T09:16:39Z</time>
      </trkpt>
      <trkpt lat="45.35381" lon="3.95385">
        <ele>879</ele>
        <time>2021-04-15T09:16:40Z</time>
      </trkpt>
      <trkpt lat="45.35376" lon="3.95383">
        <ele>878</ele>
        <time>2021-04-15T09:16:41Z</time>
      </trkpt>
      <trkpt lat="45.35371" lon="3.9538">
        <ele>878</ele>
        <time>2021-04-15T09:16:42Z</time>
      </trkpt>
      <trkpt lat="45.35366" lon="3.95378">
        <ele>878</ele>
        <time>2021-04-15T09:16:43Z</time>
      </trkpt>
      <trkpt lat="45.35361" lon="3.95375">
        <ele>878</ele>
        <time>2021-04-15T09:16:44Z</time>
      </trkpt>
      <trkpt lat="45.35357" lon="3.95371">
        <ele>878</ele>
        <time>2021-04-15T09:16:45Z</time>
      </trkpt>
      <trkpt lat="45.35353" lon="3.95368">
        <ele>878</ele>
        <time>2021-04-15T09:16:46Z</time>
      </trkpt>
      <trkpt lat="45.35349" lon="3.95365">
        <ele>878</ele>
        <time>2021-04-15T09:16:47Z</time>
      </trkpt>
      <trkpt lat="45.35346" lon="3.95364">
        <ele>877</ele>
        <time>2021-04-15T09:16:48Z</time>
      </trkpt>
      <trkpt lat="45.35343" lon="3.95363">
        <ele>877</ele>
        <time>2021-04-15T09:16:49Z</time>
      </trkpt>
      <trkpt lat="45.3534" lon="3.95362">
        <ele>877</ele>
        <time>2021-04-15T09:16:50Z</time>
      </trkpt>
      <trkpt lat="45.35336" lon="3.95363">
        <ele>877</ele>
        <time>2021-04-15T09:16:51Z</time>
      </trkpt>
      <trkpt lat="45.35333" lon="3.95365">
        <ele>877</ele>
        <time>2021-04-15T09:16:52Z</time>
      </trkpt>
      <trkpt lat="45.35329" lon="3.95367">
        <ele>878</ele>
        <time>2021-04-15T09:16:53Z</time>
      </trkpt>
      <trkpt lat="45.35326" lon="3.9537">
        <ele>878</ele>
        <time>2021-04-15T09:16:54Z</time>
      </trkpt>
      <trkpt lat="45.35322" lon="3.95372">
        <ele>878</ele>
        <time>2021-04-15T09:16:55Z</time>
      </trkpt>
      <trkpt lat="45.35318" lon="3.95375">
        <ele>878</ele>
        <time>2021-04-15T09:16:56Z</time>
      </trkpt>
      <trkpt lat="45.35315" lon="3.95377">
        <ele>878</ele>
        <time>2021-04-15T09:16:57Z</time>
      </trkpt>
      <trkpt lat="45.35307" lon="3.95377">
        <ele>879</ele>
        <time>2021-04-15T09:16:59Z</time>
      </trkpt>
      <trkpt lat="45.35304" lon="3.95375">
        <ele>880</ele>
        <time>2021-04-15T09:17:01Z</time>
      </trkpt>
      <trkpt lat="45.353" lon="3.95373">
        <ele>880</ele>
        <time>2021-04-15T09:17:02Z</time>
      </trkpt>
      <trkpt lat="45.35297" lon="3.95369">
        <ele>880</ele>
        <time>2021-04-15T09:17:03Z</time>
      </trkpt>
      <trkpt lat="45.35294" lon="3.95366">
        <ele>881</ele>
        <time>2021-04-15T09:17:04Z</time>
      </trkpt>
      <trkpt lat="45.35288" lon="3.95358">
        <ele>881</ele>
        <time>2021-04-15T09:17:05Z</time>
      </trkpt>
      <trkpt lat="45.35285" lon="3.95354">
        <ele>882</ele>
        <time>2021-04-15T09:17:06Z</time>
      </trkpt>
      <trkpt lat="45.35282" lon="3.95351">
        <ele>882</ele>
        <time>2021-04-15T09:17:07Z</time>
      </trkpt>
      <trkpt lat="45.35279" lon="3.95347">
        <ele>882</ele>
        <time>2021-04-15T09:17:08Z</time>
      </trkpt>
      <trkpt lat="45.35276" lon="3.95344">
        <ele>883</ele>
        <time>2021-04-15T09:17:09Z</time>
      </trkpt>
      <trkpt lat="45.35274" lon="3.9534">
        <ele>883</ele>
        <time>2021-04-15T09:17:10Z</time>
      </trkpt>
      <trkpt lat="45.35271" lon="3.95337">
        <ele>884</ele>
        <time>2021-04-15T09:17:11Z</time>
      </trkpt>
      <trkpt lat="45.35268" lon="3.95333">
        <ele>884</ele>
        <time>2021-04-15T09:17:12Z</time>
      </trkpt>
      <trkpt lat="45.35265" lon="3.9533">
        <ele>884</ele>
        <time>2021-04-15T09:17:13Z</time>
      </trkpt>
      <trkpt lat="45.35262" lon="3.95326">
        <ele>884</ele>
        <time>2021-04-15T09:17:14Z</time>
      </trkpt>
      <trkpt lat="45.3526" lon="3.95323">
        <ele>885</ele>
        <time>2021-04-15T09:17:15Z</time>
      </trkpt>
      <trkpt lat="45.35256" lon="3.95319">
        <ele>885</ele>
        <time>2021-04-15T09:17:16Z</time>
      </trkpt>
      <trkpt lat="45.3525" lon="3.95311">
        <ele>886</ele>
        <time>2021-04-15T09:17:18Z</time>
      </trkpt>
      <trkpt lat="45.35247" lon="3.95308">
        <ele>886</ele>
        <time>2021-04-15T09:17:20Z</time>
      </trkpt>
      <trkpt lat="45.35243" lon="3.95304">
        <ele>886</ele>
        <time>2021-04-15T09:17:21Z</time>
      </trkpt>
      <trkpt lat="45.3524" lon="3.953">
        <ele>887</ele>
        <time>2021-04-15T09:17:22Z</time>
      </trkpt>
      <trkpt lat="45.35237" lon="3.95296">
        <ele>887</ele>
        <time>2021-04-15T09:17:23Z</time>
      </trkpt>
      <trkpt lat="45.35234" lon="3.95292">
        <ele>887</ele>
        <time>2021-04-15T09:17:24Z</time>
      </trkpt>
      <trkpt lat="45.35231" lon="3.95288">
        <ele>888</ele>
        <time>2021-04-15T09:17:25Z</time>
      </trkpt>
      <trkpt lat="45.35228" lon="3.95283">
        <ele>888</ele>
        <time>2021-04-15T09:17:26Z</time>
      </trkpt>
      <trkpt lat="45.35225" lon="3.9528">
        <ele>888</ele>
        <time>2021-04-15T09:17:27Z</time>
      </trkpt>
      <trkpt lat="45.35221" lon="3.95276">
        <ele>888</ele>
        <time>2021-04-15T09:17:28Z</time>
      </trkpt>
      <trkpt lat="45.35217" lon="3.95273">
        <ele>889</ele>
        <time>2021-04-15T09:17:29Z</time>
      </trkpt>
      <trkpt lat="45.35209" lon="3.95269">
        <ele>889</ele>
        <time>2021-04-15T09:17:30Z</time>
      </trkpt>
      <trkpt lat="45.35205" lon="3.95267">
        <ele>889</ele>
        <time>2021-04-15T09:17:32Z</time>
      </trkpt>
      <trkpt lat="45.35201" lon="3.95265">
        <ele>890</ele>
        <time>2021-04-15T09:17:33Z</time>
      </trkpt>
      <trkpt lat="45.35196" lon="3.95263">
        <ele>890</ele>
        <time>2021-04-15T09:17:34Z</time>
      </trkpt>
      <trkpt lat="45.35188" lon="3.95259">
        <ele>890</ele>
        <time>2021-04-15T09:17:35Z</time>
      </trkpt>
      <trkpt lat="45.35184" lon="3.95257">
        <ele>891</ele>
        <time>2021-04-15T09:17:36Z</time>
      </trkpt>
      <trkpt lat="45.3518" lon="3.95256">
        <ele>891</ele>
        <time>2021-04-15T09:17:37Z</time>
      </trkpt>
      <trkpt lat="45.35176" lon="3.95254">
        <ele>891</ele>
        <time>2021-04-15T09:17:38Z</time>
      </trkpt>
      <trkpt lat="45.35172" lon="3.95251">
        <ele>891</ele>
        <time>2021-04-15T09:17:39Z</time>
      </trkpt>
      <trkpt lat="45.35168" lon="3.95249">
        <ele>892</ele>
        <time>2021-04-15T09:17:40Z</time>
      </trkpt>
      <trkpt lat="45.35164" lon="3.95247">
        <ele>892</ele>
        <time>2021-04-15T09:17:41Z</time>
      </trkpt>
      <trkpt lat="45.3516" lon="3.95245">
        <ele>892</ele>
        <time>2021-04-15T09:17:42Z</time>
      </trkpt>
      <trkpt lat="45.35156" lon="3.95242">
        <ele>893</ele>
        <time>2021-04-15T09:17:43Z</time>
      </trkpt>
      <trkpt lat="45.35153" lon="3.9524">
        <ele>893</ele>
        <time>2021-04-15T09:17:44Z</time>
      </trkpt>
      <trkpt lat="45.35149" lon="3.95238">
        <ele>893</ele>
        <time>2021-04-15T09:17:45Z</time>
      </trkpt>
      <trkpt lat="45.35146" lon="3.95235">
        <ele>894</ele>
        <time>2021-04-15T09:17:46Z</time>
      </trkpt>
      <trkpt lat="45.35143" lon="3.95231">
        <ele>894</ele>
        <time>2021-04-15T09:17:47Z</time>
      </trkpt>
      <trkpt lat="45.3514" lon="3.95227">
        <ele>894</ele>
        <time>2021-04-15T09:17:48Z</time>
      </trkpt>
      <trkpt lat="45.35137" lon="3.95222">
        <ele>895</ele>
        <time>2021-04-15T09:17:49Z</time>
      </trkpt>
      <trkpt lat="45.35135" lon="3.95218">
        <ele>895</ele>
        <time>2021-04-15T09:17:50Z</time>
      </trkpt>
      <trkpt lat="45.35132" lon="3.95213">
        <ele>895</ele>
        <time>2021-04-15T09:17:51Z</time>
      </trkpt>
      <trkpt lat="45.35129" lon="3.95208">
        <ele>896</ele>
        <time>2021-04-15T09:17:52Z</time>
      </trkpt>
      <trkpt lat="45.35126" lon="3.95203">
        <ele>896</ele>
        <time>2021-04-15T09:17:53Z</time>
      </trkpt>
      <trkpt lat="45.35124" lon="3.95197">
        <ele>896</ele>
        <time>2021-04-15T09:17:54Z</time>
      </trkpt>
      <trkpt lat="45.35121" lon="3.95192">
        <ele>897</ele>
        <time>2021-04-15T09:17:56Z</time>
      </trkpt>
      <trkpt lat="45.35118" lon="3.95185">
        <ele>897</ele>
        <time>2021-04-15T09:17:57Z</time>
      </trkpt>
      <trkpt lat="45.35115" lon="3.95179">
        <ele>897</ele>
        <time>2021-04-15T09:17:58Z</time>
      </trkpt>
      <trkpt lat="45.35111" lon="3.95173">
        <ele>897</ele>
        <time>2021-04-15T09:17:59Z</time>
      </trkpt>
      <trkpt lat="45.35108" lon="3.95168">
        <ele>897</ele>
        <time>2021-04-15T09:18:00Z</time>
      </trkpt>
      <trkpt lat="45.35104" lon="3.95162">
        <ele>897</ele>
        <time>2021-04-15T09:18:01Z</time>
      </trkpt>
      <trkpt lat="45.351" lon="3.95157">
        <ele>898</ele>
        <time>2021-04-15T09:18:02Z</time>
      </trkpt>
      <trkpt lat="45.35091" lon="3.95147">
        <ele>898</ele>
        <time>2021-04-15T09:18:03Z</time>
      </trkpt>
      <trkpt lat="45.35087" lon="3.95142">
        <ele>898</ele>
        <time>2021-04-15T09:18:05Z</time>
      </trkpt>
      <trkpt lat="45.35083" lon="3.95137">
        <ele>898</ele>
        <time>2021-04-15T09:18:06Z</time>
      </trkpt>
      <trkpt lat="45.35079" lon="3.95132">
        <ele>898</ele>
        <time>2021-04-15T09:18:07Z</time>
      </trkpt>
      <trkpt lat="45.35075" lon="3.95127">
        <ele>898</ele>
        <time>2021-04-15T09:18:08Z</time>
      </trkpt>
      <trkpt lat="45.35071" lon="3.95123">
        <ele>898</ele>
        <time>2021-04-15T09:18:09Z</time>
      </trkpt>
      <trkpt lat="45.35066" lon="3.95119">
        <ele>898</ele>
        <time>2021-04-15T09:18:10Z</time>
      </trkpt>
      <trkpt lat="45.35062" lon="3.95115">
        <ele>898</ele>
        <time>2021-04-15T09:18:11Z</time>
      </trkpt>
      <trkpt lat="45.35051" lon="3.95107">
        <ele>898</ele>
        <time>2021-04-15T09:18:12Z</time>
      </trkpt>
      <trkpt lat="45.35045" lon="3.95103">
        <ele>898</ele>
        <time>2021-04-15T09:18:13Z</time>
      </trkpt>
      <trkpt lat="45.35037" lon="3.95099">
        <ele>898</ele>
        <time>2021-04-15T09:18:14Z</time>
      </trkpt>
      <trkpt lat="45.35029" lon="3.95094">
        <ele>898</ele>
        <time>2021-04-15T09:18:15Z</time>
      </trkpt>
      <trkpt lat="45.35022" lon="3.95089">
        <ele>898</ele>
        <time>2021-04-15T09:18:16Z</time>
      </trkpt>
      <trkpt lat="45.35014" lon="3.95083">
        <ele>897</ele>
        <time>2021-04-15T09:18:17Z</time>
      </trkpt>
      <trkpt lat="45.35006" lon="3.95078">
        <ele>897</ele>
        <time>2021-04-15T09:18:18Z</time>
      </trkpt>
      <trkpt lat="45.34999" lon="3.95073">
        <ele>897</ele>
        <time>2021-04-15T09:18:19Z</time>
      </trkpt>
      <trkpt lat="45.34991" lon="3.95067">
        <ele>896</ele>
        <time>2021-04-15T09:18:20Z</time>
      </trkpt>
      <trkpt lat="45.34984" lon="3.95061">
        <ele>896</ele>
        <time>2021-04-15T09:18:21Z</time>
      </trkpt>
      <trkpt lat="45.34977" lon="3.95055">
        <ele>896</ele>
        <time>2021-04-15T09:18:22Z</time>
      </trkpt>
      <trkpt lat="45.34969" lon="3.95049">
        <ele>895</ele>
        <time>2021-04-15T09:18:23Z</time>
      </trkpt>
      <trkpt lat="45.34961" lon="3.95044">
        <ele>894</ele>
        <time>2021-04-15T09:18:24Z</time>
      </trkpt>
      <trkpt lat="45.34954" lon="3.95036">
        <ele>893</ele>
        <time>2021-04-15T09:18:25Z</time>
      </trkpt>
      <trkpt lat="45.34947" lon="3.95027">
        <ele>892</ele>
        <time>2021-04-15T09:18:26Z</time>
      </trkpt>
      <trkpt lat="45.34941" lon="3.95019">
        <ele>890</ele>
        <time>2021-04-15T09:18:27Z</time>
      </trkpt>
      <trkpt lat="45.34935" lon="3.95014">
        <ele>890</ele>
        <time>2021-04-15T09:18:28Z</time>
      </trkpt>
      <trkpt lat="45.34929" lon="3.95011">
        <ele>889</ele>
        <time>2021-04-15T09:18:29Z</time>
      </trkpt>
      <trkpt lat="45.34922" lon="3.9501">
        <ele>888</ele>
        <time>2021-04-15T09:18:30Z</time>
      </trkpt>
      <trkpt lat="45.34914" lon="3.95008">
        <ele>887</ele>
        <time>2021-04-15T09:18:31Z</time>
      </trkpt>
      <trkpt lat="45.34906" lon="3.95006">
        <ele>885</ele>
        <time>2021-04-15T09:18:32Z</time>
      </trkpt>
      <trkpt lat="45.34897" lon="3.95004">
        <ele>883</ele>
        <time>2021-04-15T09:18:34Z</time>
      </trkpt>
      <trkpt lat="45.34889" lon="3.95002">
        <ele>882</ele>
        <time>2021-04-15T09:18:35Z</time>
      </trkpt>
      <trkpt lat="45.34881" lon="3.95">
        <ele>881</ele>
        <time>2021-04-15T09:18:36Z</time>
      </trkpt>
      <trkpt lat="45.34867" lon="3.94996">
        <ele>879</ele>
        <time>2021-04-15T09:18:37Z</time>
      </trkpt>
      <trkpt lat="45.34862" lon="3.94994">
        <ele>878</ele>
        <time>2021-04-15T09:18:39Z</time>
      </trkpt>
      <trkpt lat="45.34857" lon="3.94992">
        <ele>878</ele>
        <time>2021-04-15T09:18:40Z</time>
      </trkpt>
      <trkpt lat="45.34853" lon="3.9499">
        <ele>878</ele>
        <time>2021-04-15T09:18:41Z</time>
      </trkpt>
      <trkpt lat="45.34849" lon="3.94988">
        <ele>877</ele>
        <time>2021-04-15T09:18:42Z</time>
      </trkpt>
      <trkpt lat="45.34845" lon="3.94986">
        <ele>877</ele>
        <time>2021-04-15T09:18:43Z</time>
      </trkpt>
      <trkpt lat="45.34841" lon="3.94983">
        <ele>876</ele>
        <time>2021-04-15T09:18:44Z</time>
      </trkpt>
      <trkpt lat="45.34836" lon="3.9498">
        <ele>876</ele>
        <time>2021-04-15T09:18:45Z</time>
      </trkpt>
      <trkpt lat="45.34831" lon="3.94977">
        <ele>875</ele>
        <time>2021-04-15T09:18:46Z</time>
      </trkpt>
      <trkpt lat="45.34823" lon="3.94969">
        <ele>875</ele>
        <time>2021-04-15T09:18:47Z</time>
      </trkpt>
      <trkpt lat="45.34819" lon="3.94963">
        <ele>874</ele>
        <time>2021-04-15T09:18:49Z</time>
      </trkpt>
      <trkpt lat="45.34816" lon="3.94954">
        <ele>874</ele>
        <time>2021-04-15T09:18:50Z</time>
      </trkpt>
      <trkpt lat="45.34811" lon="3.94937">
        <ele>874</ele>
        <time>2021-04-15T09:18:51Z</time>
      </trkpt>
      <trkpt lat="45.34808" lon="3.94928">
        <ele>873</ele>
        <time>2021-04-15T09:18:52Z</time>
      </trkpt>
      <trkpt lat="45.34805" lon="3.94919">
        <ele>873</ele>
        <time>2021-04-15T09:18:53Z</time>
      </trkpt>
      <trkpt lat="45.34802" lon="3.9491">
        <ele>873</ele>
        <time>2021-04-15T09:18:54Z</time>
      </trkpt>
      <trkpt lat="45.34799" lon="3.94901">
        <ele>873</ele>
        <time>2021-04-15T09:18:55Z</time>
      </trkpt>
      <trkpt lat="45.34796" lon="3.94893">
        <ele>872</ele>
        <time>2021-04-15T09:18:56Z</time>
      </trkpt>
      <trkpt lat="45.34793" lon="3.94884">
        <ele>872</ele>
        <time>2021-04-15T09:18:57Z</time>
      </trkpt>
      <trkpt lat="45.3479" lon="3.94875">
        <ele>872</ele>
        <time>2021-04-15T09:18:58Z</time>
      </trkpt>
      <trkpt lat="45.34788" lon="3.94866">
        <ele>872</ele>
        <time>2021-04-15T09:18:59Z</time>
      </trkpt>
      <trkpt lat="45.34785" lon="3.94856">
        <ele>871</ele>
        <time>2021-04-15T09:19:00Z</time>
      </trkpt>
      <trkpt lat="45.34782" lon="3.94847">
        <ele>871</ele>
        <time>2021-04-15T09:19:01Z</time>
      </trkpt>
      <trkpt lat="45.34779" lon="3.94837">
        <ele>871</ele>
        <time>2021-04-15T09:19:02Z</time>
      </trkpt>
      <trkpt lat="45.34774" lon="3.94828">
        <ele>870</ele>
        <time>2021-04-15T09:19:03Z</time>
      </trkpt>
      <trkpt lat="45.3477" lon="3.94819">
        <ele>870</ele>
        <time>2021-04-15T09:19:04Z</time>
      </trkpt>
      <trkpt lat="45.34764" lon="3.9481">
        <ele>869</ele>
        <time>2021-04-15T09:19:05Z</time>
      </trkpt>
      <trkpt lat="45.34758" lon="3.948">
        <ele>868</ele>
        <time>2021-04-15T09:19:06Z</time>
      </trkpt>
      <trkpt lat="45.34752" lon="3.9479">
        <ele>867</ele>
        <time>2021-04-15T09:19:07Z</time>
      </trkpt>
      <trkpt lat="45.34746" lon="3.9478">
        <ele>866</ele>
        <time>2021-04-15T09:19:08Z</time>
      </trkpt>
      <trkpt lat="45.34739" lon="3.94769">
        <ele>866</ele>
        <time>2021-04-15T09:19:09Z</time>
      </trkpt>
      <trkpt lat="45.34733" lon="3.94757">
        <ele>865</ele>
        <time>2021-04-15T09:19:10Z</time>
      </trkpt>
      <trkpt lat="45.34726" lon="3.94745">
        <ele>863</ele>
        <time>2021-04-15T09:19:12Z</time>
      </trkpt>
      <trkpt lat="45.34712" lon="3.94722">
        <ele>862</ele>
        <time>2021-04-15T09:19:13Z</time>
      </trkpt>
      <trkpt lat="45.34705" lon="3.94711">
        <ele>861</ele>
        <time>2021-04-15T09:19:15Z</time>
      </trkpt>
      <trkpt lat="45.34697" lon="3.947">
        <ele>860</ele>
        <time>2021-04-15T09:19:16Z</time>
      </trkpt>
      <trkpt lat="45.3468" lon="3.94679">
        <ele>859</ele>
        <time>2021-04-15T09:19:17Z</time>
      </trkpt>
      <trkpt lat="45.34671" lon="3.9467">
        <ele>858</ele>
        <time>2021-04-15T09:19:19Z</time>
      </trkpt>
      <trkpt lat="45.34661" lon="3.94663">
        <ele>857</ele>
        <time>2021-04-15T09:19:20Z</time>
      </trkpt>
      <trkpt lat="45.34652" lon="3.94656">
        <ele>857</ele>
        <time>2021-04-15T09:19:21Z</time>
      </trkpt>
      <trkpt lat="45.34632" lon="3.94644">
        <ele>856</ele>
        <time>2021-04-15T09:19:22Z</time>
      </trkpt>
      <trkpt lat="45.34622" lon="3.94638">
        <ele>855</ele>
        <time>2021-04-15T09:19:24Z</time>
      </trkpt>
      <trkpt lat="45.34613" lon="3.94631">
        <ele>855</ele>
        <time>2021-04-15T09:19:25Z</time>
      </trkpt>
      <trkpt lat="45.34604" lon="3.94625">
        <ele>854</ele>
        <time>2021-04-15T09:19:26Z</time>
      </trkpt>
      <trkpt lat="45.34591" lon="3.94605">
        <ele>854</ele>
        <time>2021-04-15T09:19:27Z</time>
      </trkpt>
      <trkpt lat="45.34582" lon="3.94583">
        <ele>854</ele>
        <time>2021-04-15T09:19:29Z</time>
      </trkpt>
      <trkpt lat="45.34578" lon="3.94572">
        <ele>854</ele>
        <time>2021-04-15T09:19:30Z</time>
      </trkpt>
      <trkpt lat="45.34572" lon="3.94562">
        <ele>854</ele>
        <time>2021-04-15T09:19:31Z</time>
      </trkpt>
      <trkpt lat="45.34566" lon="3.94553">
        <ele>854</ele>
        <time>2021-04-15T09:19:32Z</time>
      </trkpt>
      <trkpt lat="45.34559" lon="3.94546">
        <ele>854</ele>
        <time>2021-04-15T09:19:33Z</time>
      </trkpt>
      <trkpt lat="45.34551" lon="3.94539">
        <ele>854</ele>
        <time>2021-04-15T09:19:34Z</time>
      </trkpt>
      <trkpt lat="45.34544" lon="3.94534">
        <ele>853</ele>
        <time>2021-04-15T09:19:35Z</time>
      </trkpt>
      <trkpt lat="45.34537" lon="3.9453">
        <ele>853</ele>
        <time>2021-04-15T09:19:36Z</time>
      </trkpt>
      <trkpt lat="45.34529" lon="3.94526">
        <ele>853</ele>
        <time>2021-04-15T09:19:37Z</time>
      </trkpt>
      <trkpt lat="45.34523" lon="3.94522">
        <ele>853</ele>
        <time>2021-04-15T09:19:38Z</time>
      </trkpt>
      <trkpt lat="45.34516" lon="3.94518">
        <ele>853</ele>
        <time>2021-04-15T09:19:40Z</time>
      </trkpt>
      <trkpt lat="45.3451" lon="3.94514">
        <ele>853</ele>
        <time>2021-04-15T09:19:41Z</time>
      </trkpt>
      <trkpt lat="45.34505" lon="3.94511">
        <ele>853</ele>
        <time>2021-04-15T09:19:42Z</time>
      </trkpt>
      <trkpt lat="45.34499" lon="3.94508">
        <ele>853</ele>
        <time>2021-04-15T09:19:43Z</time>
      </trkpt>
      <trkpt lat="45.34494" lon="3.94507">
        <ele>853</ele>
        <time>2021-04-15T09:19:44Z</time>
      </trkpt>
      <trkpt lat="45.34489" lon="3.94506">
        <ele>853</ele>
        <time>2021-04-15T09:19:45Z</time>
      </trkpt>
      <trkpt lat="45.34477" lon="3.94505">
        <ele>853</ele>
        <time>2021-04-15T09:19:46Z</time>
      </trkpt>
      <trkpt lat="45.34465" lon="3.94507">
        <ele>853</ele>
        <time>2021-04-15T09:19:48Z</time>
      </trkpt>
      <trkpt lat="45.3446" lon="3.94508">
        <ele>853</ele>
        <time>2021-04-15T09:19:49Z</time>
      </trkpt>
      <trkpt lat="45.34455" lon="3.94509">
        <ele>853</ele>
        <time>2021-04-15T09:19:50Z</time>
      </trkpt>
      <trkpt lat="45.3445" lon="3.94511">
        <ele>853</ele>
        <time>2021-04-15T09:19:51Z</time>
      </trkpt>
      <trkpt lat="45.34444" lon="3.94513">
        <ele>853</ele>
        <time>2021-04-15T09:19:52Z</time>
      </trkpt>
      <trkpt lat="45.34439" lon="3.94514">
        <ele>853</ele>
        <time>2021-04-15T09:19:53Z</time>
      </trkpt>
      <trkpt lat="45.34433" lon="3.94516">
        <ele>853</ele>
        <time>2021-04-15T09:19:54Z</time>
      </trkpt>
      <trkpt lat="45.34428" lon="3.94518">
        <ele>853</ele>
        <time>2021-04-15T09:19:55Z</time>
      </trkpt>
      <trkpt lat="45.34422" lon="3.9452">
        <ele>853</ele>
        <time>2021-04-15T09:19:56Z</time>
      </trkpt>
      <trkpt lat="45.34416" lon="3.94522">
        <ele>853</ele>
        <time>2021-04-15T09:19:57Z</time>
      </trkpt>
      <trkpt lat="45.34411" lon="3.94525">
        <ele>854</ele>
        <time>2021-04-15T09:19:58Z</time>
      </trkpt>
      <trkpt lat="45.34405" lon="3.94527">
        <ele>854</ele>
        <time>2021-04-15T09:19:59Z</time>
      </trkpt>
      <trkpt lat="45.344" lon="3.94531">
        <ele>854</ele>
        <time>2021-04-15T09:20:00Z</time>
      </trkpt>
      <trkpt lat="45.34396" lon="3.94535">
        <ele>854</ele>
        <time>2021-04-15T09:20:01Z</time>
      </trkpt>
      <trkpt lat="45.34391" lon="3.94539">
        <ele>854</ele>
        <time>2021-04-15T09:20:02Z</time>
      </trkpt>
      <trkpt lat="45.34387" lon="3.94545">
        <ele>854</ele>
        <time>2021-04-15T09:20:03Z</time>
      </trkpt>
      <trkpt lat="45.34383" lon="3.94551">
        <ele>854</ele>
        <time>2021-04-15T09:20:04Z</time>
      </trkpt>
      <trkpt lat="45.34379" lon="3.94557">
        <ele>854</ele>
        <time>2021-04-15T09:20:05Z</time>
      </trkpt>
      <trkpt lat="45.34375" lon="3.94563">
        <ele>854</ele>
        <time>2021-04-15T09:20:06Z</time>
      </trkpt>
      <trkpt lat="45.34371" lon="3.9457">
        <ele>854</ele>
        <time>2021-04-15T09:20:07Z</time>
      </trkpt>
      <trkpt lat="45.34367" lon="3.94575">
        <ele>854</ele>
        <time>2021-04-15T09:20:09Z</time>
      </trkpt>
      <trkpt lat="45.34363" lon="3.94581">
        <ele>854</ele>
        <time>2021-04-15T09:20:10Z</time>
      </trkpt>
      <trkpt lat="45.34359" lon="3.94586">
        <ele>855</ele>
        <time>2021-04-15T09:20:11Z</time>
      </trkpt>
      <trkpt lat="45.34354" lon="3.94591">
        <ele>855</ele>
        <time>2021-04-15T09:20:12Z</time>
      </trkpt>
      <trkpt lat="45.34345" lon="3.94599">
        <ele>855</ele>
        <time>2021-04-15T09:20:13Z</time>
      </trkpt>
      <trkpt lat="45.3434" lon="3.94602">
        <ele>855</ele>
        <time>2021-04-15T09:20:15Z</time>
      </trkpt>
      <trkpt lat="45.34334" lon="3.94605">
        <ele>855</ele>
        <time>2021-04-15T09:20:16Z</time>
      </trkpt>
      <trkpt lat="45.34329" lon="3.94608">
        <ele>855</ele>
        <time>2021-04-15T09:20:17Z</time>
      </trkpt>
      <trkpt lat="45.34324" lon="3.9461">
        <ele>856</ele>
        <time>2021-04-15T09:20:18Z</time>
      </trkpt>
      <trkpt lat="45.34319" lon="3.94613">
        <ele>856</ele>
        <time>2021-04-15T09:20:19Z</time>
      </trkpt>
      <trkpt lat="45.34314" lon="3.94616">
        <ele>856</ele>
        <time>2021-04-15T09:20:20Z</time>
      </trkpt>
      <trkpt lat="45.34309" lon="3.94619">
        <ele>856</ele>
        <time>2021-04-15T09:20:21Z</time>
      </trkpt>
      <trkpt lat="45.34301" lon="3.94626">
        <ele>856</ele>
        <time>2021-04-15T09:20:22Z</time>
      </trkpt>
      <trkpt lat="45.34299" lon="3.94631">
        <ele>856</ele>
        <time>2021-04-15T09:20:24Z</time>
      </trkpt>
      <trkpt lat="45.34299" lon="3.94636">
        <ele>856</ele>
        <time>2021-04-15T09:20:25Z</time>
      </trkpt>
      <trkpt lat="45.343" lon="3.94648">
        <ele>856</ele>
        <time>2021-04-15T09:20:26Z</time>
      </trkpt>
      <trkpt lat="45.34299" lon="3.94655">
        <ele>857</ele>
        <time>2021-04-15T09:20:27Z</time>
      </trkpt>
      <trkpt lat="45.34299" lon="3.94662">
        <ele>857</ele>
        <time>2021-04-15T09:20:28Z</time>
      </trkpt>
      <trkpt lat="45.34298" lon="3.94668">
        <ele>857</ele>
        <time>2021-04-15T09:20:29Z</time>
      </trkpt>
      <trkpt lat="45.34297" lon="3.94674">
        <ele>857</ele>
        <time>2021-04-15T09:20:30Z</time>
      </trkpt>
      <trkpt lat="45.34295" lon="3.94679">
        <ele>858</ele>
        <time>2021-04-15T09:20:31Z</time>
      </trkpt>
      <trkpt lat="45.34293" lon="3.94684">
        <ele>858</ele>
        <time>2021-04-15T09:20:32Z</time>
      </trkpt>
      <trkpt lat="45.34291" lon="3.94689">
        <ele>858</ele>
        <time>2021-04-15T09:20:33Z</time>
      </trkpt>
      <trkpt lat="45.34289" lon="3.94693">
        <ele>859</ele>
        <time>2021-04-15T09:20:34Z</time>
      </trkpt>
      <trkpt lat="45.34287" lon="3.94698">
        <ele>859</ele>
        <time>2021-04-15T09:20:35Z</time>
      </trkpt>
      <trkpt lat="45.34284" lon="3.94702">
        <ele>859</ele>
        <time>2021-04-15T09:20:36Z</time>
      </trkpt>
      <trkpt lat="45.34282" lon="3.94706">
        <ele>860</ele>
        <time>2021-04-15T09:20:37Z</time>
      </trkpt>
      <trkpt lat="45.34279" lon="3.9471">
        <ele>860</ele>
        <time>2021-04-15T09:20:38Z</time>
      </trkpt>
      <trkpt lat="45.34277" lon="3.94714">
        <ele>860</ele>
        <time>2021-04-15T09:20:39Z</time>
      </trkpt>
      <trkpt lat="45.34274" lon="3.94718">
        <ele>861</ele>
        <time>2021-04-15T09:20:40Z</time>
      </trkpt>
      <trkpt lat="45.34272" lon="3.94722">
        <ele>861</ele>
        <time>2021-04-15T09:20:41Z</time>
      </trkpt>
      <trkpt lat="45.34269" lon="3.94727">
        <ele>861</ele>
        <time>2021-04-15T09:20:42Z</time>
      </trkpt>
      <trkpt lat="45.34267" lon="3.94731">
        <ele>862</ele>
        <time>2021-04-15T09:20:43Z</time>
      </trkpt>
      <trkpt lat="45.34265" lon="3.94736">
        <ele>862</ele>
        <time>2021-04-15T09:20:44Z</time>
      </trkpt>
      <trkpt lat="45.34264" lon="3.94741">
        <ele>862</ele>
        <time>2021-04-15T09:20:45Z</time>
      </trkpt>
      <trkpt lat="45.34262" lon="3.94746">
        <ele>863</ele>
        <time>2021-04-15T09:20:46Z</time>
      </trkpt>
      <trkpt lat="45.34259" lon="3.94751">
        <ele>863</ele>
        <time>2021-04-15T09:20:47Z</time>
      </trkpt>
      <trkpt lat="45.34257" lon="3.94756">
        <ele>863</ele>
        <time>2021-04-15T09:20:48Z</time>
      </trkpt>
      <trkpt lat="45.34255" lon="3.94761">
        <ele>864</ele>
        <time>2021-04-15T09:20:49Z</time>
      </trkpt>
      <trkpt lat="45.34252" lon="3.94766">
        <ele>864</ele>
        <time>2021-04-15T09:20:50Z</time>
      </trkpt>
      <trkpt lat="45.3425" lon="3.94771">
        <ele>864</ele>
        <time>2021-04-15T09:20:51Z</time>
      </trkpt>
      <trkpt lat="45.34248" lon="3.94776">
        <ele>864</ele>
        <time>2021-04-15T09:20:52Z</time>
      </trkpt>
      <trkpt lat="45.34246" lon="3.9478">
        <ele>865</ele>
        <time>2021-04-15T09:20:53Z</time>
      </trkpt>
      <trkpt lat="45.34243" lon="3.94785">
        <ele>865</ele>
        <time>2021-04-15T09:20:54Z</time>
      </trkpt>
      <trkpt lat="45.34241" lon="3.94789">
        <ele>865</ele>
        <time>2021-04-15T09:20:55Z</time>
      </trkpt>
      <trkpt lat="45.34239" lon="3.94793">
        <ele>865</ele>
        <time>2021-04-15T09:20:56Z</time>
      </trkpt>
      <trkpt lat="45.34236" lon="3.94797">
        <ele>866</ele>
        <time>2021-04-15T09:20:57Z</time>
      </trkpt>
      <trkpt lat="45.34234" lon="3.94801">
        <ele>866</ele>
        <time>2021-04-15T09:20:58Z</time>
      </trkpt>
      <trkpt lat="45.34231" lon="3.94804">
        <ele>866</ele>
        <time>2021-04-15T09:20:59Z</time>
      </trkpt>
      <trkpt lat="45.34228" lon="3.94808">
        <ele>867</ele>
        <time>2021-04-15T09:21:01Z</time>
      </trkpt>
      <trkpt lat="45.34225" lon="3.94811">
        <ele>867</ele>
        <time>2021-04-15T09:21:02Z</time>
      </trkpt>
      <trkpt lat="45.34222" lon="3.94814">
        <ele>867</ele>
        <time>2021-04-15T09:21:03Z</time>
      </trkpt>
      <trkpt lat="45.34216" lon="3.9482">
        <ele>867</ele>
        <time>2021-04-15T09:21:04Z</time>
      </trkpt>
      <trkpt lat="45.34213" lon="3.94823">
        <ele>867</ele>
        <time>2021-04-15T09:21:05Z</time>
      </trkpt>
      <trkpt lat="45.3421" lon="3.94827">
        <ele>868</ele>
        <time>2021-04-15T09:21:06Z</time>
      </trkpt>
      <trkpt lat="45.34207" lon="3.9483">
        <ele>868</ele>
        <time>2021-04-15T09:21:07Z</time>
      </trkpt>
      <trkpt lat="45.34204" lon="3.94834">
        <ele>868</ele>
        <time>2021-04-15T09:21:08Z</time>
      </trkpt>
      <trkpt lat="45.34202" lon="3.94837">
        <ele>868</ele>
        <time>2021-04-15T09:21:09Z</time>
      </trkpt>
      <trkpt lat="45.34199" lon="3.94841">
        <ele>869</ele>
        <time>2021-04-15T09:21:10Z</time>
      </trkpt>
      <trkpt lat="45.34197" lon="3.94845">
        <ele>869</ele>
        <time>2021-04-15T09:21:11Z</time>
      </trkpt>
      <trkpt lat="45.34194" lon="3.94849">
        <ele>870</ele>
        <time>2021-04-15T09:21:12Z</time>
      </trkpt>
      <trkpt lat="45.34192" lon="3.94853">
        <ele>870</ele>
        <time>2021-04-15T09:21:13Z</time>
      </trkpt>
      <trkpt lat="45.3419" lon="3.94857">
        <ele>871</ele>
        <time>2021-04-15T09:21:14Z</time>
      </trkpt>
      <trkpt lat="45.34188" lon="3.9486">
        <ele>871</ele>
        <time>2021-04-15T09:21:15Z</time>
      </trkpt>
      <trkpt lat="45.34186" lon="3.94864">
        <ele>872</ele>
        <time>2021-04-15T09:21:16Z</time>
      </trkpt>
      <trkpt lat="45.34184" lon="3.94868">
        <ele>872</ele>
        <time>2021-04-15T09:21:17Z</time>
      </trkpt>
      <trkpt lat="45.34182" lon="3.94872">
        <ele>873</ele>
        <time>2021-04-15T09:21:18Z</time>
      </trkpt>
      <trkpt lat="45.3418" lon="3.94876">
        <ele>873</ele>
        <time>2021-04-15T09:21:19Z</time>
      </trkpt>
      <trkpt lat="45.34178" lon="3.9488">
        <ele>874</ele>
        <time>2021-04-15T09:21:20Z</time>
      </trkpt>
      <trkpt lat="45.34176" lon="3.94884">
        <ele>874</ele>
        <time>2021-04-15T09:21:21Z</time>
      </trkpt>
      <trkpt lat="45.34174" lon="3.94888">
        <ele>875</ele>
        <time>2021-04-15T09:21:22Z</time>
      </trkpt>
      <trkpt lat="45.34172" lon="3.94893">
        <ele>875</ele>
        <time>2021-04-15T09:21:23Z</time>
      </trkpt>
      <trkpt lat="45.3417" lon="3.94897">
        <ele>876</ele>
        <time>2021-04-15T09:21:25Z</time>
      </trkpt>
      <trkpt lat="45.34165" lon="3.94907">
        <ele>877</ele>
        <time>2021-04-15T09:21:26Z</time>
      </trkpt>
      <trkpt lat="45.34163" lon="3.94911">
        <ele>877</ele>
        <time>2021-04-15T09:21:28Z</time>
      </trkpt>
      <trkpt lat="45.34161" lon="3.94915">
        <ele>878</ele>
        <time>2021-04-15T09:21:29Z</time>
      </trkpt>
      <trkpt lat="45.3416" lon="3.9492">
        <ele>878</ele>
        <time>2021-04-15T09:21:30Z</time>
      </trkpt>
      <trkpt lat="45.34158" lon="3.94924">
        <ele>879</ele>
        <time>2021-04-15T09:21:31Z</time>
      </trkpt>
      <trkpt lat="45.34156" lon="3.94929">
        <ele>879</ele>
        <time>2021-04-15T09:21:32Z</time>
      </trkpt>
      <trkpt lat="45.34154" lon="3.94933">
        <ele>879</ele>
        <time>2021-04-15T09:21:33Z</time>
      </trkpt>
      <trkpt lat="45.34153" lon="3.94938">
        <ele>879</ele>
        <time>2021-04-15T09:21:34Z</time>
      </trkpt>
      <trkpt lat="45.34151" lon="3.94942">
        <ele>880</ele>
        <time>2021-04-15T09:21:35Z</time>
      </trkpt>
      <trkpt lat="45.34149" lon="3.94947">
        <ele>880</ele>
        <time>2021-04-15T09:21:36Z</time>
      </trkpt>
      <trkpt lat="45.34148" lon="3.94951">
        <ele>880</ele>
        <time>2021-04-15T09:21:37Z</time>
      </trkpt>
      <trkpt lat="45.34146" lon="3.94956">
        <ele>881</ele>
        <time>2021-04-15T09:21:38Z</time>
      </trkpt>
      <trkpt lat="45.34144" lon="3.9496">
        <ele>881</ele>
        <time>2021-04-15T09:21:39Z</time>
      </trkpt>
      <trkpt lat="45.3414" lon="3.9497">
        <ele>881</ele>
        <time>2021-04-15T09:21:40Z</time>
      </trkpt>
      <trkpt lat="45.34136" lon="3.94979">
        <ele>882</ele>
        <time>2021-04-15T09:21:42Z</time>
      </trkpt>
      <trkpt lat="45.34134" lon="3.94983">
        <ele>882</ele>
        <time>2021-04-15T09:21:44Z</time>
      </trkpt>
      <trkpt lat="45.34132" lon="3.94987">
        <ele>883</ele>
        <time>2021-04-15T09:21:45Z</time>
      </trkpt>
      <trkpt lat="45.3413" lon="3.94991">
        <ele>883</ele>
        <time>2021-04-15T09:21:46Z</time>
      </trkpt>
      <trkpt lat="45.34128" lon="3.94996">
        <ele>883</ele>
        <time>2021-04-15T09:21:47Z</time>
      </trkpt>
      <trkpt lat="45.34126" lon="3.95">
        <ele>883</ele>
        <time>2021-04-15T09:21:48Z</time>
      </trkpt>
      <trkpt lat="45.34124" lon="3.95005">
        <ele>884</ele>
        <time>2021-04-15T09:21:49Z</time>
      </trkpt>
      <trkpt lat="45.34122" lon="3.95009">
        <ele>884</ele>
        <time>2021-04-15T09:21:50Z</time>
      </trkpt>
      <trkpt lat="45.3412" lon="3.95013">
        <ele>884</ele>
        <time>2021-04-15T09:21:51Z</time>
      </trkpt>
      <trkpt lat="45.34118" lon="3.95018">
        <ele>885</ele>
        <time>2021-04-15T09:21:52Z</time>
      </trkpt>
      <trkpt lat="45.34114" lon="3.95027">
        <ele>885</ele>
        <time>2021-04-15T09:21:53Z</time>
      </trkpt>
      <trkpt lat="45.34113" lon="3.95032">
        <ele>886</ele>
        <time>2021-04-15T09:21:55Z</time>
      </trkpt>
      <trkpt lat="45.34112" lon="3.95037">
        <ele>886</ele>
        <time>2021-04-15T09:21:56Z</time>
      </trkpt>
      <trkpt lat="45.34111" lon="3.95043">
        <ele>886</ele>
        <time>2021-04-15T09:21:57Z</time>
      </trkpt>
      <trkpt lat="45.3411" lon="3.95048">
        <ele>886</ele>
        <time>2021-04-15T09:21:58Z</time>
      </trkpt>
      <trkpt lat="45.3411" lon="3.95054">
        <ele>887</ele>
        <time>2021-04-15T09:21:59Z</time>
      </trkpt>
      <trkpt lat="45.34109" lon="3.9506">
        <ele>887</ele>
        <time>2021-04-15T09:22:00Z</time>
      </trkpt>
      <trkpt lat="45.34109" lon="3.95071">
        <ele>887</ele>
        <time>2021-04-15T09:22:01Z</time>
      </trkpt>
      <trkpt lat="45.34108" lon="3.95077">
        <ele>888</ele>
        <time>2021-04-15T09:22:03Z</time>
      </trkpt>
      <trkpt lat="45.34108" lon="3.95083">
        <ele>889</ele>
        <time>2021-04-15T09:22:04Z</time>
      </trkpt>
      <trkpt lat="45.34107" lon="3.95089">
        <ele>889</ele>
        <time>2021-04-15T09:22:05Z</time>
      </trkpt>
      <trkpt lat="45.34105" lon="3.951">
        <ele>889</ele>
        <time>2021-04-15T09:22:06Z</time>
      </trkpt>
      <trkpt lat="45.34104" lon="3.95105">
        <ele>890</ele>
        <time>2021-04-15T09:22:08Z</time>
      </trkpt>
      <trkpt lat="45.34103" lon="3.9511">
        <ele>890</ele>
        <time>2021-04-15T09:22:09Z</time>
      </trkpt>
      <trkpt lat="45.34103" lon="3.95114">
        <ele>891</ele>
        <time>2021-04-15T09:22:10Z</time>
      </trkpt>
      <trkpt lat="45.34102" lon="3.95119">
        <ele>891</ele>
        <time>2021-04-15T09:22:11Z</time>
      </trkpt>
      <trkpt lat="45.34101" lon="3.95124">
        <ele>891</ele>
        <time>2021-04-15T09:22:12Z</time>
      </trkpt>
      <trkpt lat="45.341" lon="3.95129">
        <ele>891</ele>
        <time>2021-04-15T09:22:13Z</time>
      </trkpt>
      <trkpt lat="45.34099" lon="3.95134">
        <ele>892</ele>
        <time>2021-04-15T09:22:14Z</time>
      </trkpt>
      <trkpt lat="45.34098" lon="3.9514">
        <ele>892</ele>
        <time>2021-04-15T09:22:15Z</time>
      </trkpt>
      <trkpt lat="45.34097" lon="3.95145">
        <ele>892</ele>
        <time>2021-04-15T09:22:16Z</time>
      </trkpt>
      <trkpt lat="45.34097" lon="3.95151">
        <ele>893</ele>
        <time>2021-04-15T09:22:17Z</time>
      </trkpt>
      <trkpt lat="45.34096" lon="3.95156">
        <ele>893</ele>
        <time>2021-04-15T09:22:18Z</time>
      </trkpt>
      <trkpt lat="45.34093" lon="3.95167">
        <ele>893</ele>
        <time>2021-04-15T09:22:19Z</time>
      </trkpt>
      <trkpt lat="45.34092" lon="3.95173">
        <ele>893</ele>
        <time>2021-04-15T09:22:20Z</time>
      </trkpt>
      <trkpt lat="45.3409" lon="3.95179">
        <ele>894</ele>
        <time>2021-04-15T09:22:21Z</time>
      </trkpt>
      <trkpt lat="45.34089" lon="3.95185">
        <ele>894</ele>
        <time>2021-04-15T09:22:22Z</time>
      </trkpt>
      <trkpt lat="45.34088" lon="3.95191">
        <ele>894</ele>
        <time>2021-04-15T09:22:23Z</time>
      </trkpt>
      <trkpt lat="45.34086" lon="3.95197">
        <ele>895</ele>
        <time>2021-04-15T09:22:24Z</time>
      </trkpt>
      <trkpt lat="45.34084" lon="3.95202">
        <ele>895</ele>
        <time>2021-04-15T09:22:25Z</time>
      </trkpt>
      <trkpt lat="45.34083" lon="3.95208">
        <ele>895</ele>
        <time>2021-04-15T09:22:26Z</time>
      </trkpt>
      <trkpt lat="45.34081" lon="3.95214">
        <ele>895</ele>
        <time>2021-04-15T09:22:27Z</time>
      </trkpt>
      <trkpt lat="45.34079" lon="3.9522">
        <ele>896</ele>
        <time>2021-04-15T09:22:28Z</time>
      </trkpt>
      <trkpt lat="45.34078" lon="3.95227">
        <ele>896</ele>
        <time>2021-04-15T09:22:29Z</time>
      </trkpt>
      <trkpt lat="45.34076" lon="3.95233">
        <ele>896</ele>
        <time>2021-04-15T09:22:30Z</time>
      </trkpt>
      <trkpt lat="45.34074" lon="3.95239">
        <ele>896</ele>
        <time>2021-04-15T09:22:31Z</time>
      </trkpt>
      <trkpt lat="45.34072" lon="3.95245">
        <ele>897</ele>
        <time>2021-04-15T09:22:32Z</time>
      </trkpt>
      <trkpt lat="45.3407" lon="3.95251">
        <ele>897</ele>
        <time>2021-04-15T09:22:33Z</time>
      </trkpt>
      <trkpt lat="45.34069" lon="3.95257">
        <ele>897</ele>
        <time>2021-04-15T09:22:34Z</time>
      </trkpt>
      <trkpt lat="45.34067" lon="3.95263">
        <ele>897</ele>
        <time>2021-04-15T09:22:35Z</time>
      </trkpt>
      <trkpt lat="45.34065" lon="3.95269">
        <ele>898</ele>
        <time>2021-04-15T09:22:36Z</time>
      </trkpt>
      <trkpt lat="45.34064" lon="3.95275">
        <ele>898</ele>
        <time>2021-04-15T09:22:37Z</time>
      </trkpt>
      <trkpt lat="45.34062" lon="3.95282">
        <ele>898</ele>
        <time>2021-04-15T09:22:38Z</time>
      </trkpt>
      <trkpt lat="45.34061" lon="3.95288">
        <ele>898</ele>
        <time>2021-04-15T09:22:39Z</time>
      </trkpt>
      <trkpt lat="45.34059" lon="3.95295">
        <ele>899</ele>
        <time>2021-04-15T09:22:40Z</time>
      </trkpt>
      <trkpt lat="45.34058" lon="3.95301">
        <ele>899</ele>
        <time>2021-04-15T09:22:41Z</time>
      </trkpt>
      <trkpt lat="45.34056" lon="3.95307">
        <ele>899</ele>
        <time>2021-04-15T09:22:42Z</time>
      </trkpt>
      <trkpt lat="45.34054" lon="3.95313">
        <ele>899</ele>
        <time>2021-04-15T09:22:43Z</time>
      </trkpt>
      <trkpt lat="45.34052" lon="3.95319">
        <ele>900</ele>
        <time>2021-04-15T09:22:44Z</time>
      </trkpt>
      <trkpt lat="45.34051" lon="3.95325">
        <ele>900</ele>
        <time>2021-04-15T09:22:45Z</time>
      </trkpt>
      <trkpt lat="45.34049" lon="3.95331">
        <ele>900</ele>
        <time>2021-04-15T09:22:46Z</time>
      </trkpt>
      <trkpt lat="45.34047" lon="3.95337">
        <ele>900</ele>
        <time>2021-04-15T09:22:47Z</time>
      </trkpt>
      <trkpt lat="45.34045" lon="3.95343">
        <ele>901</ele>
        <time>2021-04-15T09:22:48Z</time>
      </trkpt>
      <trkpt lat="45.34043" lon="3.95348">
        <ele>901</ele>
        <time>2021-04-15T09:22:49Z</time>
      </trkpt>
      <trkpt lat="45.3404" lon="3.95354">
        <ele>901</ele>
        <time>2021-04-15T09:22:50Z</time>
      </trkpt>
      <trkpt lat="45.34038" lon="3.9536">
        <ele>901</ele>
        <time>2021-04-15T09:22:51Z</time>
      </trkpt>
      <trkpt lat="45.34035" lon="3.95366">
        <ele>901</ele>
        <time>2021-04-15T09:22:52Z</time>
      </trkpt>
      <trkpt lat="45.34032" lon="3.95372">
        <ele>901</ele>
        <time>2021-04-15T09:22:53Z</time>
      </trkpt>
      <trkpt lat="45.3403" lon="3.95378">
        <ele>902</ele>
        <time>2021-04-15T09:22:54Z</time>
      </trkpt>
      <trkpt lat="45.34027" lon="3.95383">
        <ele>902</ele>
        <time>2021-04-15T09:22:55Z</time>
      </trkpt>
      <trkpt lat="45.34025" lon="3.95388">
        <ele>902</ele>
        <time>2021-04-15T09:22:56Z</time>
      </trkpt>
      <trkpt lat="45.34023" lon="3.95394">
        <ele>902</ele>
        <time>2021-04-15T09:22:57Z</time>
      </trkpt>
      <trkpt lat="45.3402" lon="3.95399">
        <ele>902</ele>
        <time>2021-04-15T09:22:58Z</time>
      </trkpt>
      <trkpt lat="45.34018" lon="3.95404">
        <ele>903</ele>
        <time>2021-04-15T09:22:59Z</time>
      </trkpt>
      <trkpt lat="45.34016" lon="3.9541">
        <ele>903</ele>
        <time>2021-04-15T09:23:00Z</time>
      </trkpt>
      <trkpt lat="45.34014" lon="3.95416">
        <ele>903</ele>
        <time>2021-04-15T09:23:01Z</time>
      </trkpt>
      <trkpt lat="45.34012" lon="3.95422">
        <ele>903</ele>
        <time>2021-04-15T09:23:02Z</time>
      </trkpt>
      <trkpt lat="45.3401" lon="3.95428">
        <ele>903</ele>
        <time>2021-04-15T09:23:03Z</time>
      </trkpt>
      <trkpt lat="45.34008" lon="3.95434">
        <ele>904</ele>
        <time>2021-04-15T09:23:05Z</time>
      </trkpt>
      <trkpt lat="45.34006" lon="3.9544">
        <ele>904</ele>
        <time>2021-04-15T09:23:06Z</time>
      </trkpt>
      <trkpt lat="45.34005" lon="3.95446">
        <ele>904</ele>
        <time>2021-04-15T09:23:07Z</time>
      </trkpt>
      <trkpt lat="45.34004" lon="3.95453">
        <ele>904</ele>
        <time>2021-04-15T09:23:08Z</time>
      </trkpt>
      <trkpt lat="45.34003" lon="3.95459">
        <ele>905</ele>
        <time>2021-04-15T09:23:09Z</time>
      </trkpt>
      <trkpt lat="45.34002" lon="3.95465">
        <ele>905</ele>
        <time>2021-04-15T09:23:10Z</time>
      </trkpt>
      <trkpt lat="45.34002" lon="3.95471">
        <ele>905</ele>
        <time>2021-04-15T09:23:11Z</time>
      </trkpt>
      <trkpt lat="45.34001" lon="3.95477">
        <ele>905</ele>
        <time>2021-04-15T09:23:12Z</time>
      </trkpt>
      <trkpt lat="45.34" lon="3.95483">
        <ele>905</ele>
        <time>2021-04-15T09:23:13Z</time>
      </trkpt>
      <trkpt lat="45.33998" lon="3.95492">
        <ele>906</ele>
        <time>2021-04-15T09:23:14Z</time>
      </trkpt>
      <trkpt lat="45.33997" lon="3.95495">
        <ele>906</ele>
        <time>2021-04-15T09:23:16Z</time>
      </trkpt>
      <trkpt lat="45.33995" lon="3.95502">
        <ele>906</ele>
        <time>2021-04-15T09:23:17Z</time>
      </trkpt>
      <trkpt lat="45.33994" lon="3.95506">
        <ele>906</ele>
        <time>2021-04-15T09:23:18Z</time>
      </trkpt>
      <trkpt lat="45.33992" lon="3.95509">
        <ele>907</ele>
        <time>2021-04-15T09:23:19Z</time>
      </trkpt>
      <trkpt lat="45.3399" lon="3.95513">
        <ele>907</ele>
        <time>2021-04-15T09:23:20Z</time>
      </trkpt>
      <trkpt lat="45.33989" lon="3.95517">
        <ele>907</ele>
        <time>2021-04-15T09:23:21Z</time>
      </trkpt>
      <trkpt lat="45.33988" lon="3.95521">
        <ele>907</ele>
        <time>2021-04-15T09:23:22Z</time>
      </trkpt>
      <trkpt lat="45.33986" lon="3.95526">
        <ele>907</ele>
        <time>2021-04-15T09:23:23Z</time>
      </trkpt>
      <trkpt lat="45.33984" lon="3.9553">
        <ele>907</ele>
        <time>2021-04-15T09:23:24Z</time>
      </trkpt>
      <trkpt lat="45.33982" lon="3.95535">
        <ele>907</ele>
        <time>2021-04-15T09:23:25Z</time>
      </trkpt>
      <trkpt lat="45.33981" lon="3.9554">
        <ele>908</ele>
        <time>2021-04-15T09:23:26Z</time>
      </trkpt>
      <trkpt lat="45.33979" lon="3.95544">
        <ele>908</ele>
        <time>2021-04-15T09:23:27Z</time>
      </trkpt>
      <trkpt lat="45.33978" lon="3.95548">
        <ele>908</ele>
        <time>2021-04-15T09:23:28Z</time>
      </trkpt>
      <trkpt lat="45.33976" lon="3.95553">
        <ele>908</ele>
        <time>2021-04-15T09:23:29Z</time>
      </trkpt>
      <trkpt lat="45.33975" lon="3.95557">
        <ele>908</ele>
        <time>2021-04-15T09:23:30Z</time>
      </trkpt>
      <trkpt lat="45.33974" lon="3.95561">
        <ele>909</ele>
        <time>2021-04-15T09:23:31Z</time>
      </trkpt>
      <trkpt lat="45.33973" lon="3.95565">
        <ele>909</ele>
        <time>2021-04-15T09:23:32Z</time>
      </trkpt>
      <trkpt lat="45.33972" lon="3.9557">
        <ele>909</ele>
        <time>2021-04-15T09:23:33Z</time>
      </trkpt>
      <trkpt lat="45.33972" lon="3.95574">
        <ele>909</ele>
        <time>2021-04-15T09:23:34Z</time>
      </trkpt>
      <trkpt lat="45.33971" lon="3.95579">
        <ele>909</ele>
        <time>2021-04-15T09:23:35Z</time>
      </trkpt>
      <trkpt lat="45.3397" lon="3.95583">
        <ele>910</ele>
        <time>2021-04-15T09:23:36Z</time>
      </trkpt>
      <trkpt lat="45.33969" lon="3.95588">
        <ele>910</ele>
        <time>2021-04-15T09:23:38Z</time>
      </trkpt>
      <trkpt lat="45.33967" lon="3.95592">
        <ele>910</ele>
        <time>2021-04-15T09:23:39Z</time>
      </trkpt>
      <trkpt lat="45.33966" lon="3.95597">
        <ele>910</ele>
        <time>2021-04-15T09:23:40Z</time>
      </trkpt>
      <trkpt lat="45.33965" lon="3.95601">
        <ele>911</ele>
        <time>2021-04-15T09:23:41Z</time>
      </trkpt>
      <trkpt lat="45.33963" lon="3.95606">
        <ele>911</ele>
        <time>2021-04-15T09:23:42Z</time>
      </trkpt>
      <trkpt lat="45.33962" lon="3.9561">
        <ele>911</ele>
        <time>2021-04-15T09:23:43Z</time>
      </trkpt>
      <trkpt lat="45.33961" lon="3.95615">
        <ele>911</ele>
        <time>2021-04-15T09:23:44Z</time>
      </trkpt>
      <trkpt lat="45.33958" lon="3.95624">
        <ele>912</ele>
        <time>2021-04-15T09:23:45Z</time>
      </trkpt>
      <trkpt lat="45.33957" lon="3.95628">
        <ele>912</ele>
        <time>2021-04-15T09:23:47Z</time>
      </trkpt>
      <trkpt lat="45.33955" lon="3.95632">
        <ele>912</ele>
        <time>2021-04-15T09:23:48Z</time>
      </trkpt>
      <trkpt lat="45.33953" lon="3.95636">
        <ele>913</ele>
        <time>2021-04-15T09:23:49Z</time>
      </trkpt>
      <trkpt lat="45.33951" lon="3.9564">
        <ele>913</ele>
        <time>2021-04-15T09:23:50Z</time>
      </trkpt>
      <trkpt lat="45.3395" lon="3.95645">
        <ele>913</ele>
        <time>2021-04-15T09:23:51Z</time>
      </trkpt>
      <trkpt lat="45.33948" lon="3.95649">
        <ele>913</ele>
        <time>2021-04-15T09:23:52Z</time>
      </trkpt>
      <trkpt lat="45.33946" lon="3.95653">
        <ele>913</ele>
        <time>2021-04-15T09:23:53Z</time>
      </trkpt>
      <trkpt lat="45.33944" lon="3.95658">
        <ele>914</ele>
        <time>2021-04-15T09:23:54Z</time>
      </trkpt>
      <trkpt lat="45.33941" lon="3.95667">
        <ele>914</ele>
        <time>2021-04-15T09:23:55Z</time>
      </trkpt>
      <trkpt lat="45.3394" lon="3.95672">
        <ele>914</ele>
        <time>2021-04-15T09:23:56Z</time>
      </trkpt>
      <trkpt lat="45.33938" lon="3.95676">
        <ele>915</ele>
        <time>2021-04-15T09:23:57Z</time>
      </trkpt>
      <trkpt lat="45.33937" lon="3.95681">
        <ele>915</ele>
        <time>2021-04-15T09:23:58Z</time>
      </trkpt>
      <trkpt lat="45.33936" lon="3.95686">
        <ele>915</ele>
        <time>2021-04-15T09:23:59Z</time>
      </trkpt>
      <trkpt lat="45.33934" lon="3.9569">
        <ele>916</ele>
        <time>2021-04-15T09:24:00Z</time>
      </trkpt>
      <trkpt lat="45.33933" lon="3.95695">
        <ele>916</ele>
        <time>2021-04-15T09:24:01Z</time>
      </trkpt>
      <trkpt lat="45.33931" lon="3.95699">
        <ele>916</ele>
        <time>2021-04-15T09:24:02Z</time>
      </trkpt>
      <trkpt lat="45.33929" lon="3.95703">
        <ele>917</ele>
        <time>2021-04-15T09:24:03Z</time>
      </trkpt>
      <trkpt lat="45.33926" lon="3.95707">
        <ele>917</ele>
        <time>2021-04-15T09:24:04Z</time>
      </trkpt>
      <trkpt lat="45.33924" lon="3.95711">
        <ele>917</ele>
        <time>2021-04-15T09:24:05Z</time>
      </trkpt>
      <trkpt lat="45.33922" lon="3.95714">
        <ele>917</ele>
        <time>2021-04-15T09:24:06Z</time>
      </trkpt>
      <trkpt lat="45.3392" lon="3.95718">
        <ele>918</ele>
        <time>2021-04-15T09:24:07Z</time>
      </trkpt>
      <trkpt lat="45.33918" lon="3.95722">
        <ele>918</ele>
        <time>2021-04-15T09:24:08Z</time>
      </trkpt>
      <trkpt lat="45.33915" lon="3.95726">
        <ele>918</ele>
        <time>2021-04-15T09:24:09Z</time>
      </trkpt>
      <trkpt lat="45.33914" lon="3.9573">
        <ele>919</ele>
        <time>2021-04-15T09:24:10Z</time>
      </trkpt>
      <trkpt lat="45.33912" lon="3.95735">
        <ele>919</ele>
        <time>2021-04-15T09:24:11Z</time>
      </trkpt>
      <trkpt lat="45.33911" lon="3.9574">
        <ele>919</ele>
        <time>2021-04-15T09:24:12Z</time>
      </trkpt>
      <trkpt lat="45.3391" lon="3.95745">
        <ele>919</ele>
        <time>2021-04-15T09:24:13Z</time>
      </trkpt>
      <trkpt lat="45.3391" lon="3.95751">
        <ele>920</ele>
        <time>2021-04-15T09:24:14Z</time>
      </trkpt>
      <trkpt lat="45.33909" lon="3.95756">
        <ele>920</ele>
        <time>2021-04-15T09:24:16Z</time>
      </trkpt>
      <trkpt lat="45.33909" lon="3.95761">
        <ele>920</ele>
        <time>2021-04-15T09:24:17Z</time>
      </trkpt>
      <trkpt lat="45.33907" lon="3.95766">
        <ele>920</ele>
        <time>2021-04-15T09:24:18Z</time>
      </trkpt>
      <trkpt lat="45.33905" lon="3.95771">
        <ele>920</ele>
        <time>2021-04-15T09:24:19Z</time>
      </trkpt>
      <trkpt lat="45.33902" lon="3.95774">
        <ele>920</ele>
        <time>2021-04-15T09:24:20Z</time>
      </trkpt>
      <trkpt lat="45.33898" lon="3.95777">
        <ele>920</ele>
        <time>2021-04-15T09:24:21Z</time>
      </trkpt>
      <trkpt lat="45.33894" lon="3.95779">
        <ele>920</ele>
        <time>2021-04-15T09:24:22Z</time>
      </trkpt>
      <trkpt lat="45.33889" lon="3.95781">
        <ele>920</ele>
        <time>2021-04-15T09:24:23Z</time>
      </trkpt>
      <trkpt lat="45.33884" lon="3.95782">
        <ele>920</ele>
        <time>2021-04-15T09:24:24Z</time>
      </trkpt>
      <trkpt lat="45.33874" lon="3.95786">
        <ele>920</ele>
        <time>2021-04-15T09:24:25Z</time>
      </trkpt>
      <trkpt lat="45.33869" lon="3.95786">
        <ele>920</ele>
        <time>2021-04-15T09:24:27Z</time>
      </trkpt>
      <trkpt lat="45.33863" lon="3.95787">
        <ele>920</ele>
        <time>2021-04-15T09:24:28Z</time>
      </trkpt>
      <trkpt lat="45.33857" lon="3.95787">
        <ele>920</ele>
        <time>2021-04-15T09:24:29Z</time>
      </trkpt>
      <trkpt lat="45.33851" lon="3.95787">
        <ele>920</ele>
        <time>2021-04-15T09:24:30Z</time>
      </trkpt>
      <trkpt lat="45.33845" lon="3.95786">
        <ele>920</ele>
        <time>2021-04-15T09:24:31Z</time>
      </trkpt>
      <trkpt lat="45.33838" lon="3.95787">
        <ele>920</ele>
        <time>2021-04-15T09:24:32Z</time>
      </trkpt>
      <trkpt lat="45.33826" lon="3.95787">
        <ele>919</ele>
        <time>2021-04-15T09:24:33Z</time>
      </trkpt>
      <trkpt lat="45.33819" lon="3.95788">
        <ele>919</ele>
        <time>2021-04-15T09:24:34Z</time>
      </trkpt>
      <trkpt lat="45.33814" lon="3.95788">
        <ele>919</ele>
        <time>2021-04-15T09:24:35Z</time>
      </trkpt>
      <trkpt lat="45.33808" lon="3.95789">
        <ele>919</ele>
        <time>2021-04-15T09:24:36Z</time>
      </trkpt>
      <trkpt lat="45.33802" lon="3.9579">
        <ele>919</ele>
        <time>2021-04-15T09:24:37Z</time>
      </trkpt>
      <trkpt lat="45.33796" lon="3.95792">
        <ele>919</ele>
        <time>2021-04-15T09:24:38Z</time>
      </trkpt>
      <trkpt lat="45.3379" lon="3.95794">
        <ele>919</ele>
        <time>2021-04-15T09:24:39Z</time>
      </trkpt>
      <trkpt lat="45.33784" lon="3.95796">
        <ele>920</ele>
        <time>2021-04-15T09:24:40Z</time>
      </trkpt>
      <trkpt lat="45.33778" lon="3.95798">
        <ele>920</ele>
        <time>2021-04-15T09:24:41Z</time>
      </trkpt>
      <trkpt lat="45.33772" lon="3.95798">
        <ele>920</ele>
        <time>2021-04-15T09:24:42Z</time>
      </trkpt>
      <trkpt lat="45.33765" lon="3.95798">
        <ele>920</ele>
        <time>2021-04-15T09:24:43Z</time>
      </trkpt>
      <trkpt lat="45.33759" lon="3.95798">
        <ele>920</ele>
        <time>2021-04-15T09:24:44Z</time>
      </trkpt>
      <trkpt lat="45.33754" lon="3.95797">
        <ele>920</ele>
        <time>2021-04-15T09:24:45Z</time>
      </trkpt>
      <trkpt lat="45.33748" lon="3.95797">
        <ele>920</ele>
        <time>2021-04-15T09:24:46Z</time>
      </trkpt>
      <trkpt lat="45.33741" lon="3.95796">
        <ele>920</ele>
        <time>2021-04-15T09:24:47Z</time>
      </trkpt>
      <trkpt lat="45.33734" lon="3.95796">
        <ele>919</ele>
        <time>2021-04-15T09:24:48Z</time>
      </trkpt>
      <trkpt lat="45.33726" lon="3.95794">
        <ele>919</ele>
        <time>2021-04-15T09:24:49Z</time>
      </trkpt>
      <trkpt lat="45.33718" lon="3.95792">
        <ele>918</ele>
        <time>2021-04-15T09:24:50Z</time>
      </trkpt>
      <trkpt lat="45.3371" lon="3.95789">
        <ele>918</ele>
        <time>2021-04-15T09:24:51Z</time>
      </trkpt>
      <trkpt lat="45.33701" lon="3.95788">
        <ele>917</ele>
        <time>2021-04-15T09:24:52Z</time>
      </trkpt>
      <trkpt lat="45.33693" lon="3.95789">
        <ele>916</ele>
        <time>2021-04-15T09:24:54Z</time>
      </trkpt>
      <trkpt lat="45.33685" lon="3.95791">
        <ele>916</ele>
        <time>2021-04-15T09:24:55Z</time>
      </trkpt>
      <trkpt lat="45.33669" lon="3.95794">
        <ele>916</ele>
        <time>2021-04-15T09:24:56Z</time>
      </trkpt>
      <trkpt lat="45.33662" lon="3.95796">
        <ele>915</ele>
        <time>2021-04-15T09:24:58Z</time>
      </trkpt>
      <trkpt lat="45.33655" lon="3.95797">
        <ele>915</ele>
        <time>2021-04-15T09:24:59Z</time>
      </trkpt>
      <trkpt lat="45.33642" lon="3.95799">
        <ele>915</ele>
        <time>2021-04-15T09:25:00Z</time>
      </trkpt>
      <trkpt lat="45.33636" lon="3.958">
        <ele>915</ele>
        <time>2021-04-15T09:25:02Z</time>
      </trkpt>
      <trkpt lat="45.33624" lon="3.95802">
        <ele>915</ele>
        <time>2021-04-15T09:25:03Z</time>
      </trkpt>
      <trkpt lat="45.33618" lon="3.95803">
        <ele>915</ele>
        <time>2021-04-15T09:25:05Z</time>
      </trkpt>
      <trkpt lat="45.33612" lon="3.95806">
        <ele>915</ele>
        <time>2021-04-15T09:25:06Z</time>
      </trkpt>
      <trkpt lat="45.33607" lon="3.9581">
        <ele>915</ele>
        <time>2021-04-15T09:25:07Z</time>
      </trkpt>
      <trkpt lat="45.33602" lon="3.95814">
        <ele>915</ele>
        <time>2021-04-15T09:25:08Z</time>
      </trkpt>
      <trkpt lat="45.33597" lon="3.95818">
        <ele>915</ele>
        <time>2021-04-15T09:25:09Z</time>
      </trkpt>
      <trkpt lat="45.33592" lon="3.95822">
        <ele>915</ele>
        <time>2021-04-15T09:25:10Z</time>
      </trkpt>
      <trkpt lat="45.33581" lon="3.9583">
        <ele>915</ele>
        <time>2021-04-15T09:25:11Z</time>
      </trkpt>
      <trkpt lat="45.33576" lon="3.95833">
        <ele>915</ele>
        <time>2021-04-15T09:25:12Z</time>
      </trkpt>
      <trkpt lat="45.33571" lon="3.95837">
        <ele>915</ele>
        <time>2021-04-15T09:25:13Z</time>
      </trkpt>
      <trkpt lat="45.33566" lon="3.9584">
        <ele>915</ele>
        <time>2021-04-15T09:25:14Z</time>
      </trkpt>
      <trkpt lat="45.33562" lon="3.95843">
        <ele>915</ele>
        <time>2021-04-15T09:25:15Z</time>
      </trkpt>
      <trkpt lat="45.33556" lon="3.95846">
        <ele>915</ele>
        <time>2021-04-15T09:25:16Z</time>
      </trkpt>
      <trkpt lat="45.33551" lon="3.95849">
        <ele>915</ele>
        <time>2021-04-15T09:25:17Z</time>
      </trkpt>
      <trkpt lat="45.33546" lon="3.95853">
        <ele>915</ele>
        <time>2021-04-15T09:25:18Z</time>
      </trkpt>
      <trkpt lat="45.33541" lon="3.95856">
        <ele>915</ele>
        <time>2021-04-15T09:25:19Z</time>
      </trkpt>
      <trkpt lat="45.33536" lon="3.95859">
        <ele>915</ele>
        <time>2021-04-15T09:25:20Z</time>
      </trkpt>
      <trkpt lat="45.3353" lon="3.95862">
        <ele>915</ele>
        <time>2021-04-15T09:25:21Z</time>
      </trkpt>
      <trkpt lat="45.33525" lon="3.95865">
        <ele>915</ele>
        <time>2021-04-15T09:25:22Z</time>
      </trkpt>
      <trkpt lat="45.33519" lon="3.95868">
        <ele>916</ele>
        <time>2021-04-15T09:25:23Z</time>
      </trkpt>
      <trkpt lat="45.33514" lon="3.9587">
        <ele>916</ele>
        <time>2021-04-15T09:25:24Z</time>
      </trkpt>
      <trkpt lat="45.33508" lon="3.95873">
        <ele>916</ele>
        <time>2021-04-15T09:25:25Z</time>
      </trkpt>
      <trkpt lat="45.33503" lon="3.95875">
        <ele>916</ele>
        <time>2021-04-15T09:25:26Z</time>
      </trkpt>
      <trkpt lat="45.33497" lon="3.95877">
        <ele>916</ele>
        <time>2021-04-15T09:25:27Z</time>
      </trkpt>
      <trkpt lat="45.33492" lon="3.95879">
        <ele>916</ele>
        <time>2021-04-15T09:25:28Z</time>
      </trkpt>
      <trkpt lat="45.33486" lon="3.95882">
        <ele>915</ele>
        <time>2021-04-15T09:25:29Z</time>
      </trkpt>
      <trkpt lat="45.3348" lon="3.95884">
        <ele>915</ele>
        <time>2021-04-15T09:25:30Z</time>
      </trkpt>
      <trkpt lat="45.33475" lon="3.95886">
        <ele>915</ele>
        <time>2021-04-15T09:25:32Z</time>
      </trkpt>
      <trkpt lat="45.33469" lon="3.95887">
        <ele>915</ele>
        <time>2021-04-15T09:25:33Z</time>
      </trkpt>
      <trkpt lat="45.33463" lon="3.95889">
        <ele>915</ele>
        <time>2021-04-15T09:25:34Z</time>
      </trkpt>
      <trkpt lat="45.33457" lon="3.95891">
        <ele>915</ele>
        <time>2021-04-15T09:25:35Z</time>
      </trkpt>
      <trkpt lat="45.33452" lon="3.95892">
        <ele>915</ele>
        <time>2021-04-15T09:25:36Z</time>
      </trkpt>
      <trkpt lat="45.33446" lon="3.95894">
        <ele>915</ele>
        <time>2021-04-15T09:25:37Z</time>
      </trkpt>
      <trkpt lat="45.33435" lon="3.95898">
        <ele>915</ele>
        <time>2021-04-15T09:25:38Z</time>
      </trkpt>
      <trkpt lat="45.33429" lon="3.959">
        <ele>915</ele>
        <time>2021-04-15T09:25:40Z</time>
      </trkpt>
      <trkpt lat="45.33424" lon="3.95903">
        <ele>915</ele>
        <time>2021-04-15T09:25:41Z</time>
      </trkpt>
      <trkpt lat="45.33418" lon="3.95905">
        <ele>915</ele>
        <time>2021-04-15T09:25:42Z</time>
      </trkpt>
      <trkpt lat="45.33413" lon="3.95908">
        <ele>915</ele>
        <time>2021-04-15T09:25:43Z</time>
      </trkpt>
      <trkpt lat="45.33408" lon="3.95911">
        <ele>915</ele>
        <time>2021-04-15T09:25:44Z</time>
      </trkpt>
      <trkpt lat="45.33402" lon="3.95915">
        <ele>915</ele>
        <time>2021-04-15T09:25:45Z</time>
      </trkpt>
      <trkpt lat="45.33392" lon="3.95922">
        <ele>915</ele>
        <time>2021-04-15T09:25:46Z</time>
      </trkpt>
      <trkpt lat="45.33387" lon="3.95925">
        <ele>915</ele>
        <time>2021-04-15T09:25:48Z</time>
      </trkpt>
      <trkpt lat="45.33378" lon="3.95932">
        <ele>916</ele>
        <time>2021-04-15T09:25:49Z</time>
      </trkpt>
      <trkpt lat="45.33373" lon="3.95936">
        <ele>916</ele>
        <time>2021-04-15T09:25:50Z</time>
      </trkpt>
      <trkpt lat="45.33368" lon="3.95939">
        <ele>916</ele>
        <time>2021-04-15T09:25:51Z</time>
      </trkpt>
      <trkpt lat="45.33363" lon="3.95943">
        <ele>916</ele>
        <time>2021-04-15T09:25:52Z</time>
      </trkpt>
      <trkpt lat="45.33358" lon="3.95945">
        <ele>916</ele>
        <time>2021-04-15T09:25:53Z</time>
      </trkpt>
      <trkpt lat="45.33353" lon="3.95948">
        <ele>916</ele>
        <time>2021-04-15T09:25:54Z</time>
      </trkpt>
      <trkpt lat="45.33348" lon="3.95951">
        <ele>916</ele>
        <time>2021-04-15T09:25:55Z</time>
      </trkpt>
      <trkpt lat="45.33342" lon="3.95953">
        <ele>916</ele>
        <time>2021-04-15T09:25:56Z</time>
      </trkpt>
      <trkpt lat="45.33337" lon="3.95956">
        <ele>916</ele>
        <time>2021-04-15T09:25:57Z</time>
      </trkpt>
      <trkpt lat="45.33332" lon="3.95958">
        <ele>916</ele>
        <time>2021-04-15T09:25:58Z</time>
      </trkpt>
      <trkpt lat="45.33327" lon="3.9596">
        <ele>916</ele>
        <time>2021-04-15T09:25:59Z</time>
      </trkpt>
      <trkpt lat="45.33322" lon="3.95962">
        <ele>916</ele>
        <time>2021-04-15T09:26:00Z</time>
      </trkpt>
      <trkpt lat="45.33317" lon="3.95964">
        <ele>917</ele>
        <time>2021-04-15T09:26:01Z</time>
      </trkpt>
      <trkpt lat="45.33313" lon="3.95966">
        <ele>917</ele>
        <time>2021-04-15T09:26:02Z</time>
      </trkpt>
      <trkpt lat="45.33308" lon="3.95968">
        <ele>917</ele>
        <time>2021-04-15T09:26:03Z</time>
      </trkpt>
      <trkpt lat="45.33304" lon="3.9597">
        <ele>917</ele>
        <time>2021-04-15T09:26:04Z</time>
      </trkpt>
      <trkpt lat="45.33299" lon="3.95972">
        <ele>917</ele>
        <time>2021-04-15T09:26:05Z</time>
      </trkpt>
      <trkpt lat="45.33294" lon="3.95974">
        <ele>917</ele>
        <time>2021-04-15T09:26:06Z</time>
      </trkpt>
      <trkpt lat="45.33289" lon="3.95977">
        <ele>917</ele>
        <time>2021-04-15T09:26:07Z</time>
      </trkpt>
      <trkpt lat="45.33283" lon="3.95979">
        <ele>917</ele>
        <time>2021-04-15T09:26:08Z</time>
      </trkpt>
      <trkpt lat="45.33278" lon="3.95981">
        <ele>917</ele>
        <time>2021-04-15T09:26:10Z</time>
      </trkpt>
      <trkpt lat="45.33272" lon="3.95983">
        <ele>917</ele>
        <time>2021-04-15T09:26:11Z</time>
      </trkpt>
      <trkpt lat="45.33266" lon="3.95985">
        <ele>917</ele>
        <time>2021-04-15T09:26:12Z</time>
      </trkpt>
      <trkpt lat="45.3326" lon="3.95987">
        <ele>917</ele>
        <time>2021-04-15T09:26:13Z</time>
      </trkpt>
      <trkpt lat="45.33249" lon="3.95991">
        <ele>916</ele>
        <time>2021-04-15T09:26:14Z</time>
      </trkpt>
      <trkpt lat="45.33244" lon="3.95994">
        <ele>916</ele>
        <time>2021-04-15T09:26:16Z</time>
      </trkpt>
      <trkpt lat="45.33238" lon="3.95997">
        <ele>915</ele>
        <time>2021-04-15T09:26:17Z</time>
      </trkpt>
      <trkpt lat="45.33231" lon="3.95999">
        <ele>915</ele>
        <time>2021-04-15T09:26:18Z</time>
      </trkpt>
      <trkpt lat="45.33225" lon="3.96002">
        <ele>915</ele>
        <time>2021-04-15T09:26:19Z</time>
      </trkpt>
      <trkpt lat="45.33218" lon="3.96004">
        <ele>914</ele>
        <time>2021-04-15T09:26:20Z</time>
      </trkpt>
      <trkpt lat="45.33212" lon="3.96006">
        <ele>914</ele>
        <time>2021-04-15T09:26:21Z</time>
      </trkpt>
      <trkpt lat="45.33198" lon="3.96011">
        <ele>914</ele>
        <time>2021-04-15T09:26:22Z</time>
      </trkpt>
      <trkpt lat="45.33191" lon="3.96012">
        <ele>913</ele>
        <time>2021-04-15T09:26:24Z</time>
      </trkpt>
      <trkpt lat="45.33185" lon="3.96014">
        <ele>913</ele>
        <time>2021-04-15T09:26:25Z</time>
      </trkpt>
      <trkpt lat="45.33178" lon="3.96014">
        <ele>913</ele>
        <time>2021-04-15T09:26:26Z</time>
      </trkpt>
      <trkpt lat="45.33164" lon="3.96016">
        <ele>913</ele>
        <time>2021-04-15T09:26:27Z</time>
      </trkpt>
      <trkpt lat="45.33156" lon="3.96017">
        <ele>913</ele>
        <time>2021-04-15T09:26:28Z</time>
      </trkpt>
      <trkpt lat="45.33148" lon="3.96018">
        <ele>913</ele>
        <time>2021-04-15T09:26:29Z</time>
      </trkpt>
      <trkpt lat="45.33138" lon="3.96018">
        <ele>913</ele>
        <time>2021-04-15T09:26:30Z</time>
      </trkpt>
      <trkpt lat="45.33129" lon="3.96019">
        <ele>912</ele>
        <time>2021-04-15T09:26:31Z</time>
      </trkpt>
      <trkpt lat="45.3312" lon="3.9602">
        <ele>912</ele>
        <time>2021-04-15T09:26:32Z</time>
      </trkpt>
      <trkpt lat="45.33111" lon="3.96022">
        <ele>911</ele>
        <time>2021-04-15T09:26:33Z</time>
      </trkpt>
      <trkpt lat="45.33101" lon="3.96025">
        <ele>911</ele>
        <time>2021-04-15T09:26:34Z</time>
      </trkpt>
      <trkpt lat="45.33093" lon="3.96028">
        <ele>911</ele>
        <time>2021-04-15T09:26:35Z</time>
      </trkpt>
      <trkpt lat="45.33085" lon="3.96031">
        <ele>910</ele>
        <time>2021-04-15T09:26:36Z</time>
      </trkpt>
      <trkpt lat="45.33077" lon="3.96034">
        <ele>909</ele>
        <time>2021-04-15T09:26:37Z</time>
      </trkpt>
      <trkpt lat="45.33069" lon="3.96037">
        <ele>908</ele>
        <time>2021-04-15T09:26:38Z</time>
      </trkpt>
      <trkpt lat="45.3306" lon="3.96041">
        <ele>907</ele>
        <time>2021-04-15T09:26:39Z</time>
      </trkpt>
      <trkpt lat="45.33052" lon="3.96046">
        <ele>906</ele>
        <time>2021-04-15T09:26:40Z</time>
      </trkpt>
      <trkpt lat="45.33045" lon="3.9605">
        <ele>906</ele>
        <time>2021-04-15T09:26:41Z</time>
      </trkpt>
      <trkpt lat="45.33037" lon="3.96055">
        <ele>905</ele>
        <time>2021-04-15T09:26:42Z</time>
      </trkpt>
      <trkpt lat="45.3303" lon="3.96058">
        <ele>905</ele>
        <time>2021-04-15T09:26:43Z</time>
      </trkpt>
      <trkpt lat="45.33024" lon="3.96062">
        <ele>904</ele>
        <time>2021-04-15T09:26:44Z</time>
      </trkpt>
      <trkpt lat="45.33017" lon="3.96065">
        <ele>903</ele>
        <time>2021-04-15T09:26:45Z</time>
      </trkpt>
      <trkpt lat="45.33011" lon="3.96068">
        <ele>902</ele>
        <time>2021-04-15T09:26:46Z</time>
      </trkpt>
      <trkpt lat="45.33005" lon="3.96072">
        <ele>901</ele>
        <time>2021-04-15T09:26:47Z</time>
      </trkpt>
      <trkpt lat="45.32999" lon="3.96075">
        <ele>900</ele>
        <time>2021-04-15T09:26:49Z</time>
      </trkpt>
      <trkpt lat="45.32993" lon="3.96079">
        <ele>899</ele>
        <time>2021-04-15T09:26:50Z</time>
      </trkpt>
      <trkpt lat="45.32987" lon="3.96083">
        <ele>899</ele>
        <time>2021-04-15T09:26:51Z</time>
      </trkpt>
      <trkpt lat="45.32982" lon="3.96086">
        <ele>898</ele>
        <time>2021-04-15T09:26:52Z</time>
      </trkpt>
      <trkpt lat="45.32978" lon="3.96088">
        <ele>898</ele>
        <time>2021-04-15T09:26:53Z</time>
      </trkpt>
      <trkpt lat="45.32974" lon="3.9609">
        <ele>898</ele>
        <time>2021-04-15T09:26:54Z</time>
      </trkpt>
      <trkpt lat="45.3297" lon="3.96092">
        <ele>898</ele>
        <time>2021-04-15T09:26:55Z</time>
      </trkpt>
      <trkpt lat="45.32964" lon="3.96097">
        <ele>898</ele>
        <time>2021-04-15T09:26:56Z</time>
      </trkpt>
      <trkpt lat="45.32961" lon="3.961">
        <ele>897</ele>
        <time>2021-04-15T09:26:58Z</time>
      </trkpt>
      <trkpt lat="45.32953" lon="3.96105">
        <ele>897</ele>
        <time>2021-04-15T09:26:59Z</time>
      </trkpt>
      <trkpt lat="45.32948" lon="3.96108">
        <ele>897</ele>
        <time>2021-04-15T09:27:00Z</time>
      </trkpt>
      <trkpt lat="45.32943" lon="3.9611">
        <ele>897</ele>
        <time>2021-04-15T09:27:01Z</time>
      </trkpt>
      <trkpt lat="45.32937" lon="3.96113">
        <ele>896</ele>
        <time>2021-04-15T09:27:02Z</time>
      </trkpt>
      <trkpt lat="45.32931" lon="3.96115">
        <ele>896</ele>
        <time>2021-04-15T09:27:03Z</time>
      </trkpt>
      <trkpt lat="45.32925" lon="3.96117">
        <ele>896</ele>
        <time>2021-04-15T09:27:04Z</time>
      </trkpt>
      <trkpt lat="45.32919" lon="3.96119">
        <ele>896</ele>
        <time>2021-04-15T09:27:05Z</time>
      </trkpt>
      <trkpt lat="45.32913" lon="3.9612">
        <ele>895</ele>
        <time>2021-04-15T09:27:06Z</time>
      </trkpt>
      <trkpt lat="45.32907" lon="3.9612">
        <ele>895</ele>
        <time>2021-04-15T09:27:07Z</time>
      </trkpt>
      <trkpt lat="45.32901" lon="3.9612">
        <ele>895</ele>
        <time>2021-04-15T09:27:08Z</time>
      </trkpt>
      <trkpt lat="45.32896" lon="3.9612">
        <ele>894</ele>
        <time>2021-04-15T09:27:09Z</time>
      </trkpt>
      <trkpt lat="45.32891" lon="3.96119">
        <ele>894</ele>
        <time>2021-04-15T09:27:10Z</time>
      </trkpt>
      <trkpt lat="45.32885" lon="3.96118">
        <ele>894</ele>
        <time>2021-04-15T09:27:11Z</time>
      </trkpt>
      <trkpt lat="45.3288" lon="3.96116">
        <ele>894</ele>
        <time>2021-04-15T09:27:12Z</time>
      </trkpt>
      <trkpt lat="45.32874" lon="3.96113">
        <ele>894</ele>
        <time>2021-04-15T09:27:13Z</time>
      </trkpt>
      <trkpt lat="45.32869" lon="3.9611">
        <ele>893</ele>
        <time>2021-04-15T09:27:14Z</time>
      </trkpt>
      <trkpt lat="45.32864" lon="3.96107">
        <ele>893</ele>
        <time>2021-04-15T09:27:15Z</time>
      </trkpt>
      <trkpt lat="45.32859" lon="3.96106">
        <ele>893</ele>
        <time>2021-04-15T09:27:16Z</time>
      </trkpt>
      <trkpt lat="45.32855" lon="3.96107">
        <ele>893</ele>
        <time>2021-04-15T09:27:17Z</time>
      </trkpt>
      <trkpt lat="45.32851" lon="3.96109">
        <ele>893</ele>
        <time>2021-04-15T09:27:18Z</time>
      </trkpt>
      <trkpt lat="45.32848" lon="3.96114">
        <ele>893</ele>
        <time>2021-04-15T09:27:19Z</time>
      </trkpt>
      <trkpt lat="45.32847" lon="3.96119">
        <ele>892</ele>
        <time>2021-04-15T09:27:20Z</time>
      </trkpt>
      <trkpt lat="45.32845" lon="3.96126">
        <ele>892</ele>
        <time>2021-04-15T09:27:21Z</time>
      </trkpt>
      <trkpt lat="45.32843" lon="3.96133">
        <ele>892</ele>
        <time>2021-04-15T09:27:22Z</time>
      </trkpt>
      <trkpt lat="45.32841" lon="3.9614">
        <ele>891</ele>
        <time>2021-04-15T09:27:23Z</time>
      </trkpt>
      <trkpt lat="45.32838" lon="3.96146">
        <ele>891</ele>
        <time>2021-04-15T09:27:24Z</time>
      </trkpt>
      <trkpt lat="45.32835" lon="3.96153">
        <ele>890</ele>
        <time>2021-04-15T09:27:25Z</time>
      </trkpt>
      <trkpt lat="45.32832" lon="3.96159">
        <ele>890</ele>
        <time>2021-04-15T09:27:27Z</time>
      </trkpt>
      <trkpt lat="45.32831" lon="3.96166">
        <ele>889</ele>
        <time>2021-04-15T09:27:28Z</time>
      </trkpt>
      <trkpt lat="45.3283" lon="3.96174">
        <ele>889</ele>
        <time>2021-04-15T09:27:29Z</time>
      </trkpt>
      <trkpt lat="45.32831" lon="3.96181">
        <ele>889</ele>
        <time>2021-04-15T09:27:30Z</time>
      </trkpt>
      <trkpt lat="45.32834" lon="3.96188">
        <ele>888</ele>
        <time>2021-04-15T09:27:31Z</time>
      </trkpt>
      <trkpt lat="45.32837" lon="3.96194">
        <ele>888</ele>
        <time>2021-04-15T09:27:32Z</time>
      </trkpt>
      <trkpt lat="45.32842" lon="3.96199">
        <ele>888</ele>
        <time>2021-04-15T09:27:33Z</time>
      </trkpt>
      <trkpt lat="45.32852" lon="3.9621">
        <ele>887</ele>
        <time>2021-04-15T09:27:34Z</time>
      </trkpt>
      <trkpt lat="45.32858" lon="3.96216">
        <ele>886</ele>
        <time>2021-04-15T09:27:36Z</time>
      </trkpt>
      <trkpt lat="45.32864" lon="3.96223">
        <ele>885</ele>
        <time>2021-04-15T09:27:37Z</time>
      </trkpt>
      <trkpt lat="45.32869" lon="3.96229">
        <ele>885</ele>
        <time>2021-04-15T09:27:38Z</time>
      </trkpt>
      <trkpt lat="45.32875" lon="3.96237">
        <ele>884</ele>
        <time>2021-04-15T09:27:39Z</time>
      </trkpt>
      <trkpt lat="45.32879" lon="3.96244">
        <ele>883</ele>
        <time>2021-04-15T09:27:40Z</time>
      </trkpt>
      <trkpt lat="45.32886" lon="3.96261">
        <ele>883</ele>
        <time>2021-04-15T09:27:41Z</time>
      </trkpt>
      <trkpt lat="45.32889" lon="3.96278">
        <ele>882</ele>
        <time>2021-04-15T09:27:43Z</time>
      </trkpt>
      <trkpt lat="45.32891" lon="3.96287">
        <ele>882</ele>
        <time>2021-04-15T09:27:44Z</time>
      </trkpt>
      <trkpt lat="45.32893" lon="3.96295">
        <ele>882</ele>
        <time>2021-04-15T09:27:45Z</time>
      </trkpt>
      <trkpt lat="45.32897" lon="3.96302">
        <ele>881</ele>
        <time>2021-04-15T09:27:46Z</time>
      </trkpt>
      <trkpt lat="45.32901" lon="3.96308">
        <ele>881</ele>
        <time>2021-04-15T09:27:47Z</time>
      </trkpt>
      <trkpt lat="45.32906" lon="3.96313">
        <ele>881</ele>
        <time>2021-04-15T09:27:48Z</time>
      </trkpt>
      <trkpt lat="45.32911" lon="3.96319">
        <ele>880</ele>
        <time>2021-04-15T09:27:49Z</time>
      </trkpt>
      <trkpt lat="45.32915" lon="3.96324">
        <ele>880</ele>
        <time>2021-04-15T09:27:50Z</time>
      </trkpt>
      <trkpt lat="45.3292" lon="3.96331">
        <ele>880</ele>
        <time>2021-04-15T09:27:51Z</time>
      </trkpt>
      <trkpt lat="45.32924" lon="3.96338">
        <ele>879</ele>
        <time>2021-04-15T09:27:52Z</time>
      </trkpt>
      <trkpt lat="45.32927" lon="3.96345">
        <ele>879</ele>
        <time>2021-04-15T09:27:53Z</time>
      </trkpt>
      <trkpt lat="45.32929" lon="3.96353">
        <ele>879</ele>
        <time>2021-04-15T09:27:54Z</time>
      </trkpt>
      <trkpt lat="45.32931" lon="3.96361">
        <ele>879</ele>
        <time>2021-04-15T09:27:55Z</time>
      </trkpt>
      <trkpt lat="45.32931" lon="3.9637">
        <ele>879</ele>
        <time>2021-04-15T09:27:56Z</time>
      </trkpt>
      <trkpt lat="45.32931" lon="3.96378">
        <ele>878</ele>
        <time>2021-04-15T09:27:57Z</time>
      </trkpt>
      <trkpt lat="45.32931" lon="3.96387">
        <ele>877</ele>
        <time>2021-04-15T09:27:58Z</time>
      </trkpt>
      <trkpt lat="45.3293" lon="3.96395">
        <ele>877</ele>
        <time>2021-04-15T09:27:59Z</time>
      </trkpt>
      <trkpt lat="45.32929" lon="3.96403">
        <ele>876</ele>
        <time>2021-04-15T09:28:00Z</time>
      </trkpt>
      <trkpt lat="45.32928" lon="3.96412">
        <ele>876</ele>
        <time>2021-04-15T09:28:01Z</time>
      </trkpt>
      <trkpt lat="45.32927" lon="3.9642">
        <ele>876</ele>
        <time>2021-04-15T09:28:02Z</time>
      </trkpt>
      <trkpt lat="45.32925" lon="3.96429">
        <ele>875</ele>
        <time>2021-04-15T09:28:04Z</time>
      </trkpt>
      <trkpt lat="45.32923" lon="3.96437">
        <ele>875</ele>
        <time>2021-04-15T09:28:05Z</time>
      </trkpt>
      <trkpt lat="45.32919" lon="3.96454">
        <ele>874</ele>
        <time>2021-04-15T09:28:06Z</time>
      </trkpt>
      <trkpt lat="45.32917" lon="3.96461">
        <ele>874</ele>
        <time>2021-04-15T09:28:07Z</time>
      </trkpt>
      <trkpt lat="45.32915" lon="3.96469">
        <ele>874</ele>
        <time>2021-04-15T09:28:08Z</time>
      </trkpt>
      <trkpt lat="45.32913" lon="3.96477">
        <ele>874</ele>
        <time>2021-04-15T09:28:09Z</time>
      </trkpt>
      <trkpt lat="45.3291" lon="3.96485">
        <ele>874</ele>
        <time>2021-04-15T09:28:10Z</time>
      </trkpt>
      <trkpt lat="45.32908" lon="3.96493">
        <ele>874</ele>
        <time>2021-04-15T09:28:11Z</time>
      </trkpt>
      <trkpt lat="45.32906" lon="3.96502">
        <ele>873</ele>
        <time>2021-04-15T09:28:12Z</time>
      </trkpt>
      <trkpt lat="45.32903" lon="3.9651">
        <ele>873</ele>
        <time>2021-04-15T09:28:13Z</time>
      </trkpt>
      <trkpt lat="45.32901" lon="3.96518">
        <ele>873</ele>
        <time>2021-04-15T09:28:14Z</time>
      </trkpt>
      <trkpt lat="45.32899" lon="3.96526">
        <ele>873</ele>
        <time>2021-04-15T09:28:15Z</time>
      </trkpt>
      <trkpt lat="45.32897" lon="3.96534">
        <ele>873</ele>
        <time>2021-04-15T09:28:16Z</time>
      </trkpt>
      <trkpt lat="45.32894" lon="3.96542">
        <ele>872</ele>
        <time>2021-04-15T09:28:17Z</time>
      </trkpt>
      <trkpt lat="45.32891" lon="3.9655">
        <ele>872</ele>
        <time>2021-04-15T09:28:18Z</time>
      </trkpt>
      <trkpt lat="45.32888" lon="3.96557">
        <ele>872</ele>
        <time>2021-04-15T09:28:19Z</time>
      </trkpt>
      <trkpt lat="45.32886" lon="3.96564">
        <ele>872</ele>
        <time>2021-04-15T09:28:20Z</time>
      </trkpt>
      <trkpt lat="45.32883" lon="3.96572">
        <ele>872</ele>
        <time>2021-04-15T09:28:21Z</time>
      </trkpt>
      <trkpt lat="45.32881" lon="3.96579">
        <ele>872</ele>
        <time>2021-04-15T09:28:22Z</time>
      </trkpt>
      <trkpt lat="45.32878" lon="3.96586">
        <ele>872</ele>
        <time>2021-04-15T09:28:24Z</time>
      </trkpt>
      <trkpt lat="45.32876" lon="3.96594">
        <ele>871</ele>
        <time>2021-04-15T09:28:25Z</time>
      </trkpt>
      <trkpt lat="45.32873" lon="3.96601">
        <ele>871</ele>
        <time>2021-04-15T09:28:26Z</time>
      </trkpt>
      <trkpt lat="45.32871" lon="3.96609">
        <ele>870</ele>
        <time>2021-04-15T09:28:27Z</time>
      </trkpt>
      <trkpt lat="45.32868" lon="3.96618">
        <ele>870</ele>
        <time>2021-04-15T09:28:28Z</time>
      </trkpt>
      <trkpt lat="45.32864" lon="3.96627">
        <ele>869</ele>
        <time>2021-04-15T09:28:29Z</time>
      </trkpt>
      <trkpt lat="45.32857" lon="3.96644">
        <ele>869</ele>
        <time>2021-04-15T09:28:30Z</time>
      </trkpt>
      <trkpt lat="45.32854" lon="3.96653">
        <ele>868</ele>
        <time>2021-04-15T09:28:32Z</time>
      </trkpt>
      <trkpt lat="45.3285" lon="3.96662">
        <ele>868</ele>
        <time>2021-04-15T09:28:33Z</time>
      </trkpt>
      <trkpt lat="45.32847" lon="3.96671">
        <ele>867</ele>
        <time>2021-04-15T09:28:34Z</time>
      </trkpt>
      <trkpt lat="45.32843" lon="3.9668">
        <ele>867</ele>
        <time>2021-04-15T09:28:35Z</time>
      </trkpt>
      <trkpt lat="45.32839" lon="3.96688">
        <ele>867</ele>
        <time>2021-04-15T09:28:36Z</time>
      </trkpt>
      <trkpt lat="45.32833" lon="3.96705">
        <ele>866</ele>
        <time>2021-04-15T09:28:37Z</time>
      </trkpt>
      <trkpt lat="45.32829" lon="3.96713">
        <ele>865</ele>
        <time>2021-04-15T09:28:39Z</time>
      </trkpt>
      <trkpt lat="45.32822" lon="3.96731">
        <ele>865</ele>
        <time>2021-04-15T09:28:40Z</time>
      </trkpt>
      <trkpt lat="45.32818" lon="3.96738">
        <ele>865</ele>
        <time>2021-04-15T09:28:41Z</time>
      </trkpt>
      <trkpt lat="45.32813" lon="3.96745">
        <ele>865</ele>
        <time>2021-04-15T09:28:42Z</time>
      </trkpt>
      <trkpt lat="45.32807" lon="3.96749">
        <ele>864</ele>
        <time>2021-04-15T09:28:43Z</time>
      </trkpt>
      <trkpt lat="45.32801" lon="3.96753">
        <ele>864</ele>
        <time>2021-04-15T09:28:44Z</time>
      </trkpt>
      <trkpt lat="45.32795" lon="3.96756">
        <ele>864</ele>
        <time>2021-04-15T09:28:45Z</time>
      </trkpt>
      <trkpt lat="45.32788" lon="3.96759">
        <ele>863</ele>
        <time>2021-04-15T09:28:46Z</time>
      </trkpt>
      <trkpt lat="45.32782" lon="3.96763">
        <ele>863</ele>
        <time>2021-04-15T09:28:47Z</time>
      </trkpt>
      <trkpt lat="45.32775" lon="3.96766">
        <ele>863</ele>
        <time>2021-04-15T09:28:48Z</time>
      </trkpt>
      <trkpt lat="45.32769" lon="3.96771">
        <ele>863</ele>
        <time>2021-04-15T09:28:49Z</time>
      </trkpt>
      <trkpt lat="45.32763" lon="3.96776">
        <ele>863</ele>
        <time>2021-04-15T09:28:50Z</time>
      </trkpt>
      <trkpt lat="45.32758" lon="3.96781">
        <ele>863</ele>
        <time>2021-04-15T09:28:51Z</time>
      </trkpt>
      <trkpt lat="45.32752" lon="3.96787">
        <ele>862</ele>
        <time>2021-04-15T09:28:52Z</time>
      </trkpt>
      <trkpt lat="45.32747" lon="3.96792">
        <ele>862</ele>
        <time>2021-04-15T09:28:53Z</time>
      </trkpt>
      <trkpt lat="45.32741" lon="3.96797">
        <ele>862</ele>
        <time>2021-04-15T09:28:54Z</time>
      </trkpt>
      <trkpt lat="45.32736" lon="3.96802">
        <ele>862</ele>
        <time>2021-04-15T09:28:55Z</time>
      </trkpt>
      <trkpt lat="45.3273" lon="3.96806">
        <ele>862</ele>
        <time>2021-04-15T09:28:56Z</time>
      </trkpt>
      <trkpt lat="45.32724" lon="3.96809">
        <ele>862</ele>
        <time>2021-04-15T09:28:57Z</time>
      </trkpt>
      <trkpt lat="45.32717" lon="3.96812">
        <ele>862</ele>
        <time>2021-04-15T09:28:58Z</time>
      </trkpt>
      <trkpt lat="45.32704" lon="3.96815">
        <ele>861</ele>
        <time>2021-04-15T09:29:00Z</time>
      </trkpt>
      <trkpt lat="45.32698" lon="3.96816">
        <ele>861</ele>
        <time>2021-04-15T09:29:01Z</time>
      </trkpt>
      <trkpt lat="45.32691" lon="3.96817">
        <ele>861</ele>
        <time>2021-04-15T09:29:02Z</time>
      </trkpt>
      <trkpt lat="45.32685" lon="3.96819">
        <ele>861</ele>
        <time>2021-04-15T09:29:03Z</time>
      </trkpt>
      <trkpt lat="45.32678" lon="3.96821">
        <ele>861</ele>
        <time>2021-04-15T09:29:04Z</time>
      </trkpt>
      <trkpt lat="45.32671" lon="3.96823">
        <ele>861</ele>
        <time>2021-04-15T09:29:05Z</time>
      </trkpt>
      <trkpt lat="45.32665" lon="3.96827">
        <ele>860</ele>
        <time>2021-04-15T09:29:06Z</time>
      </trkpt>
      <trkpt lat="45.32658" lon="3.9683">
        <ele>860</ele>
        <time>2021-04-15T09:29:07Z</time>
      </trkpt>
      <trkpt lat="45.32652" lon="3.96834">
        <ele>860</ele>
        <time>2021-04-15T09:29:08Z</time>
      </trkpt>
      <trkpt lat="45.32646" lon="3.96838">
        <ele>860</ele>
        <time>2021-04-15T09:29:09Z</time>
      </trkpt>
      <trkpt lat="45.3264" lon="3.96843">
        <ele>860</ele>
        <time>2021-04-15T09:29:10Z</time>
      </trkpt>
      <trkpt lat="45.32634" lon="3.96847">
        <ele>859</ele>
        <time>2021-04-15T09:29:11Z</time>
      </trkpt>
      <trkpt lat="45.32628" lon="3.96852">
        <ele>859</ele>
        <time>2021-04-15T09:29:12Z</time>
      </trkpt>
      <trkpt lat="45.32623" lon="3.96857">
        <ele>859</ele>
        <time>2021-04-15T09:29:13Z</time>
      </trkpt>
      <trkpt lat="45.32618" lon="3.96864">
        <ele>858</ele>
        <time>2021-04-15T09:29:14Z</time>
      </trkpt>
      <trkpt lat="45.32613" lon="3.96871">
        <ele>858</ele>
        <time>2021-04-15T09:29:15Z</time>
      </trkpt>
      <trkpt lat="45.32609" lon="3.96879">
        <ele>858</ele>
        <time>2021-04-15T09:29:16Z</time>
      </trkpt>
      <trkpt lat="45.32605" lon="3.96887">
        <ele>857</ele>
        <time>2021-04-15T09:29:17Z</time>
      </trkpt>
      <trkpt lat="45.32601" lon="3.96895">
        <ele>857</ele>
        <time>2021-04-15T09:29:18Z</time>
      </trkpt>
      <trkpt lat="45.32598" lon="3.96904">
        <ele>857</ele>
        <time>2021-04-15T09:29:19Z</time>
      </trkpt>
      <trkpt lat="45.32593" lon="3.96912">
        <ele>856</ele>
        <time>2021-04-15T09:29:20Z</time>
      </trkpt>
      <trkpt lat="45.32589" lon="3.96921">
        <ele>856</ele>
        <time>2021-04-15T09:29:21Z</time>
      </trkpt>
      <trkpt lat="45.32586" lon="3.9693">
        <ele>856</ele>
        <time>2021-04-15T09:29:22Z</time>
      </trkpt>
      <trkpt lat="45.32582" lon="3.96939">
        <ele>855</ele>
        <time>2021-04-15T09:29:23Z</time>
      </trkpt>
      <trkpt lat="45.32578" lon="3.96949">
        <ele>855</ele>
        <time>2021-04-15T09:29:24Z</time>
      </trkpt>
      <trkpt lat="45.32574" lon="3.96959">
        <ele>854</ele>
        <time>2021-04-15T09:29:25Z</time>
      </trkpt>
      <trkpt lat="45.3257" lon="3.96968">
        <ele>854</ele>
        <time>2021-04-15T09:29:26Z</time>
      </trkpt>
      <trkpt lat="45.32567" lon="3.96977">
        <ele>853</ele>
        <time>2021-04-15T09:29:27Z</time>
      </trkpt>
      <trkpt lat="45.32563" lon="3.96986">
        <ele>853</ele>
        <time>2021-04-15T09:29:28Z</time>
      </trkpt>
      <trkpt lat="45.3256" lon="3.96996">
        <ele>853</ele>
        <time>2021-04-15T09:29:29Z</time>
      </trkpt>
      <trkpt lat="45.32558" lon="3.97005">
        <ele>852</ele>
        <time>2021-04-15T09:29:30Z</time>
      </trkpt>
      <trkpt lat="45.32555" lon="3.97013">
        <ele>852</ele>
        <time>2021-04-15T09:29:31Z</time>
      </trkpt>
      <trkpt lat="45.32553" lon="3.97022">
        <ele>852</ele>
        <time>2021-04-15T09:29:32Z</time>
      </trkpt>
      <trkpt lat="45.32552" lon="3.9703">
        <ele>852</ele>
        <time>2021-04-15T09:29:33Z</time>
      </trkpt>
      <trkpt lat="45.32551" lon="3.97037">
        <ele>852</ele>
        <time>2021-04-15T09:29:34Z</time>
      </trkpt>
      <trkpt lat="45.3255" lon="3.97045">
        <ele>852</ele>
        <time>2021-04-15T09:29:35Z</time>
      </trkpt>
      <trkpt lat="45.32548" lon="3.97053">
        <ele>851</ele>
        <time>2021-04-15T09:29:36Z</time>
      </trkpt>
      <trkpt lat="45.32547" lon="3.97061">
        <ele>851</ele>
        <time>2021-04-15T09:29:37Z</time>
      </trkpt>
      <trkpt lat="45.32545" lon="3.97068">
        <ele>851</ele>
        <time>2021-04-15T09:29:39Z</time>
      </trkpt>
      <trkpt lat="45.32543" lon="3.97075">
        <ele>851</ele>
        <time>2021-04-15T09:29:40Z</time>
      </trkpt>
      <trkpt lat="45.32541" lon="3.97082">
        <ele>851</ele>
        <time>2021-04-15T09:29:41Z</time>
      </trkpt>
      <trkpt lat="45.32539" lon="3.97089">
        <ele>851</ele>
        <time>2021-04-15T09:29:42Z</time>
      </trkpt>
      <trkpt lat="45.32537" lon="3.97095">
        <ele>851</ele>
        <time>2021-04-15T09:29:43Z</time>
      </trkpt>
      <trkpt lat="45.32534" lon="3.97102">
        <ele>851</ele>
        <time>2021-04-15T09:29:44Z</time>
      </trkpt>
      <trkpt lat="45.3253" lon="3.97114">
        <ele>851</ele>
        <time>2021-04-15T09:29:45Z</time>
      </trkpt>
      <trkpt lat="45.32527" lon="3.9712">
        <ele>851</ele>
        <time>2021-04-15T09:29:47Z</time>
      </trkpt>
      <trkpt lat="45.32524" lon="3.97127">
        <ele>851</ele>
        <time>2021-04-15T09:29:48Z</time>
      </trkpt>
      <trkpt lat="45.32521" lon="3.97133">
        <ele>852</ele>
        <time>2021-04-15T09:29:49Z</time>
      </trkpt>
      <trkpt lat="45.32518" lon="3.97139">
        <ele>852</ele>
        <time>2021-04-15T09:29:50Z</time>
      </trkpt>
      <trkpt lat="45.32516" lon="3.97146">
        <ele>852</ele>
        <time>2021-04-15T09:29:51Z</time>
      </trkpt>
      <trkpt lat="45.32513" lon="3.97153">
        <ele>852</ele>
        <time>2021-04-15T09:29:52Z</time>
      </trkpt>
      <trkpt lat="45.32511" lon="3.97161">
        <ele>852</ele>
        <time>2021-04-15T09:29:53Z</time>
      </trkpt>
      <trkpt lat="45.32506" lon="3.97176">
        <ele>852</ele>
        <time>2021-04-15T09:29:54Z</time>
      </trkpt>
      <trkpt lat="45.32503" lon="3.97192">
        <ele>852</ele>
        <time>2021-04-15T09:29:56Z</time>
      </trkpt>
      <trkpt lat="45.32501" lon="3.97199">
        <ele>852</ele>
        <time>2021-04-15T09:29:58Z</time>
      </trkpt>
      <trkpt lat="45.325" lon="3.97208">
        <ele>852</ele>
        <time>2021-04-15T09:29:59Z</time>
      </trkpt>
      <trkpt lat="45.32499" lon="3.97215">
        <ele>852</ele>
        <time>2021-04-15T09:30:00Z</time>
      </trkpt>
      <trkpt lat="45.32499" lon="3.97224">
        <ele>852</ele>
        <time>2021-04-15T09:30:01Z</time>
      </trkpt>
      <trkpt lat="45.32499" lon="3.97232">
        <ele>852</ele>
        <time>2021-04-15T09:30:02Z</time>
      </trkpt>
      <trkpt lat="45.325" lon="3.97247">
        <ele>852</ele>
        <time>2021-04-15T09:30:03Z</time>
      </trkpt>
      <trkpt lat="45.32501" lon="3.97255">
        <ele>852</ele>
        <time>2021-04-15T09:30:05Z</time>
      </trkpt>
      <trkpt lat="45.32503" lon="3.97264">
        <ele>852</ele>
        <time>2021-04-15T09:30:06Z</time>
      </trkpt>
      <trkpt lat="45.32505" lon="3.97272">
        <ele>852</ele>
        <time>2021-04-15T09:30:07Z</time>
      </trkpt>
      <trkpt lat="45.32507" lon="3.97279">
        <ele>852</ele>
        <time>2021-04-15T09:30:08Z</time>
      </trkpt>
      <trkpt lat="45.32509" lon="3.97287">
        <ele>852</ele>
        <time>2021-04-15T09:30:09Z</time>
      </trkpt>
      <trkpt lat="45.32511" lon="3.97295">
        <ele>852</ele>
        <time>2021-04-15T09:30:10Z</time>
      </trkpt>
      <trkpt lat="45.32512" lon="3.97302">
        <ele>852</ele>
        <time>2021-04-15T09:30:11Z</time>
      </trkpt>
      <trkpt lat="45.32516" lon="3.97318">
        <ele>852</ele>
        <time>2021-04-15T09:30:12Z</time>
      </trkpt>
      <trkpt lat="45.32517" lon="3.97326">
        <ele>852</ele>
        <time>2021-04-15T09:30:14Z</time>
      </trkpt>
      <trkpt lat="45.3252" lon="3.97342">
        <ele>852</ele>
        <time>2021-04-15T09:30:15Z</time>
      </trkpt>
      <trkpt lat="45.32521" lon="3.97349">
        <ele>853</ele>
        <time>2021-04-15T09:30:17Z</time>
      </trkpt>
      <trkpt lat="45.32522" lon="3.97357">
        <ele>853</ele>
        <time>2021-04-15T09:30:18Z</time>
      </trkpt>
      <trkpt lat="45.32523" lon="3.97365">
        <ele>853</ele>
        <time>2021-04-15T09:30:19Z</time>
      </trkpt>
      <trkpt lat="45.32522" lon="3.9738">
        <ele>853</ele>
        <time>2021-04-15T09:30:20Z</time>
      </trkpt>
      <trkpt lat="45.32521" lon="3.97387">
        <ele>854</ele>
        <time>2021-04-15T09:30:22Z</time>
      </trkpt>
      <trkpt lat="45.3252" lon="3.97394">
        <ele>854</ele>
        <time>2021-04-15T09:30:23Z</time>
      </trkpt>
      <trkpt lat="45.32519" lon="3.97402">
        <ele>854</ele>
        <time>2021-04-15T09:30:24Z</time>
      </trkpt>
      <trkpt lat="45.32518" lon="3.97409">
        <ele>854</ele>
        <time>2021-04-15T09:30:25Z</time>
      </trkpt>
      <trkpt lat="45.32516" lon="3.97416">
        <ele>855</ele>
        <time>2021-04-15T09:30:26Z</time>
      </trkpt>
      <trkpt lat="45.32514" lon="3.97421">
        <ele>855</ele>
        <time>2021-04-15T09:30:27Z</time>
      </trkpt>
      <trkpt lat="45.32512" lon="3.97426">
        <ele>855</ele>
        <time>2021-04-15T09:30:28Z</time>
      </trkpt>
      <trkpt lat="45.3251" lon="3.9743">
        <ele>855</ele>
        <time>2021-04-15T09:30:29Z</time>
      </trkpt>
      <trkpt lat="45.32508" lon="3.97435">
        <ele>855</ele>
        <time>2021-04-15T09:30:30Z</time>
      </trkpt>
      <trkpt lat="45.32505" lon="3.97447">
        <ele>855</ele>
        <time>2021-04-15T09:30:31Z</time>
      </trkpt>
      <trkpt lat="45.32505" lon="3.97454">
        <ele>855</ele>
        <time>2021-04-15T09:30:33Z</time>
      </trkpt>
      <trkpt lat="45.32506" lon="3.97467">
        <ele>855</ele>
        <time>2021-04-15T09:30:34Z</time>
      </trkpt>
      <trkpt lat="45.32505" lon="3.97473">
        <ele>855</ele>
        <time>2021-04-15T09:30:36Z</time>
      </trkpt>
      <trkpt lat="45.32505" lon="3.97481">
        <ele>855</ele>
        <time>2021-04-15T09:30:37Z</time>
      </trkpt>
      <trkpt lat="45.32504" lon="3.97488">
        <ele>855</ele>
        <time>2021-04-15T09:30:38Z</time>
      </trkpt>
      <trkpt lat="45.32504" lon="3.97496">
        <ele>855</ele>
        <time>2021-04-15T09:30:39Z</time>
      </trkpt>
      <trkpt lat="45.32503" lon="3.97504">
        <ele>855</ele>
        <time>2021-04-15T09:30:40Z</time>
      </trkpt>
      <trkpt lat="45.32501" lon="3.97511">
        <ele>855</ele>
        <time>2021-04-15T09:30:41Z</time>
      </trkpt>
      <trkpt lat="45.325" lon="3.97517">
        <ele>855</ele>
        <time>2021-04-15T09:30:42Z</time>
      </trkpt>
      <trkpt lat="45.325" lon="3.97523">
        <ele>855</ele>
        <time>2021-04-15T09:30:43Z</time>
      </trkpt>
      <trkpt lat="45.32501" lon="3.97529">
        <ele>855</ele>
        <time>2021-04-15T09:30:44Z</time>
      </trkpt>
      <trkpt lat="45.32504" lon="3.97537">
        <ele>855</ele>
        <time>2021-04-15T09:30:45Z</time>
      </trkpt>
      <trkpt lat="45.32505" lon="3.97546">
        <ele>855</ele>
        <time>2021-04-15T09:30:46Z</time>
      </trkpt>
      <trkpt lat="45.32506" lon="3.97554">
        <ele>855</ele>
        <time>2021-04-15T09:30:47Z</time>
      </trkpt>
      <trkpt lat="45.32508" lon="3.97561">
        <ele>855</ele>
        <time>2021-04-15T09:30:48Z</time>
      </trkpt>
      <trkpt lat="45.32512" lon="3.97565">
        <ele>856</ele>
        <time>2021-04-15T09:30:49Z</time>
      </trkpt>
      <trkpt lat="45.32515" lon="3.9757">
        <ele>856</ele>
        <time>2021-04-15T09:30:50Z</time>
      </trkpt>
      <trkpt lat="45.3252" lon="3.97575">
        <ele>856</ele>
        <time>2021-04-15T09:30:51Z</time>
      </trkpt>
      <trkpt lat="45.32525" lon="3.9758">
        <ele>855</ele>
        <time>2021-04-15T09:30:52Z</time>
      </trkpt>
      <trkpt lat="45.32532" lon="3.97589">
        <ele>855</ele>
        <time>2021-04-15T09:30:53Z</time>
      </trkpt>
      <trkpt lat="45.32536" lon="3.97594">
        <ele>855</ele>
        <time>2021-04-15T09:30:55Z</time>
      </trkpt>
      <trkpt lat="45.3254" lon="3.97599">
        <ele>855</ele>
        <time>2021-04-15T09:30:56Z</time>
      </trkpt>
      <trkpt lat="45.32544" lon="3.97604">
        <ele>855</ele>
        <time>2021-04-15T09:30:57Z</time>
      </trkpt>
      <trkpt lat="45.32548" lon="3.97609">
        <ele>855</ele>
        <time>2021-04-15T09:30:58Z</time>
      </trkpt>
      <trkpt lat="45.32551" lon="3.97615">
        <ele>855</ele>
        <time>2021-04-15T09:30:59Z</time>
      </trkpt>
      <trkpt lat="45.32554" lon="3.97621">
        <ele>855</ele>
        <time>2021-04-15T09:31:00Z</time>
      </trkpt>
      <trkpt lat="45.32557" lon="3.97627">
        <ele>855</ele>
        <time>2021-04-15T09:31:01Z</time>
      </trkpt>
      <trkpt lat="45.32559" lon="3.97633">
        <ele>855</ele>
        <time>2021-04-15T09:31:02Z</time>
      </trkpt>
      <trkpt lat="45.32561" lon="3.97639">
        <ele>855</ele>
        <time>2021-04-15T09:31:03Z</time>
      </trkpt>
      <trkpt lat="45.32562" lon="3.97645">
        <ele>855</ele>
        <time>2021-04-15T09:31:04Z</time>
      </trkpt>
      <trkpt lat="45.32563" lon="3.9765">
        <ele>855</ele>
        <time>2021-04-15T09:31:05Z</time>
      </trkpt>
      <trkpt lat="45.32563" lon="3.97653">
        <ele>855</ele>
        <time>2021-04-15T09:31:06Z</time>
      </trkpt>
      <trkpt lat="45.32563" lon="3.97656">
        <ele>855</ele>
        <time>2021-04-15T09:31:07Z</time>
      </trkpt>
      <trkpt lat="45.32564" lon="3.9766">
        <ele>855</ele>
        <time>2021-04-15T09:31:09Z</time>
      </trkpt>
      <trkpt lat="45.32566" lon="3.97661">
        <ele>855</ele>
        <time>2021-04-15T09:31:11Z</time>
      </trkpt>
      <trkpt lat="45.32569" lon="3.97662">
        <ele>855</ele>
        <time>2021-04-15T09:31:12Z</time>
      </trkpt>
      <trkpt lat="45.32572" lon="3.97664">
        <ele>855</ele>
        <time>2021-04-15T09:31:14Z</time>
      </trkpt>
      <trkpt lat="45.32573" lon="3.97667">
        <ele>855</ele>
        <time>2021-04-15T09:31:15Z</time>
      </trkpt>
      <trkpt lat="45.32575" lon="3.9767">
        <ele>855</ele>
        <time>2021-04-15T09:31:16Z</time>
      </trkpt>
      <trkpt lat="45.32576" lon="3.97674">
        <ele>855</ele>
        <time>2021-04-15T09:31:17Z</time>
      </trkpt>
      <trkpt lat="45.32578" lon="3.97678">
        <ele>856</ele>
        <time>2021-04-15T09:31:18Z</time>
      </trkpt>
      <trkpt lat="45.32581" lon="3.97689">
        <ele>856</ele>
        <time>2021-04-15T09:31:19Z</time>
      </trkpt>
      <trkpt lat="45.32582" lon="3.97695">
        <ele>856</ele>
        <time>2021-04-15T09:31:21Z</time>
      </trkpt>
      <trkpt lat="45.32582" lon="3.97701">
        <ele>856</ele>
        <time>2021-04-15T09:31:22Z</time>
      </trkpt>
      <trkpt lat="45.32583" lon="3.97708">
        <ele>856</ele>
        <time>2021-04-15T09:31:23Z</time>
      </trkpt>
      <trkpt lat="45.32584" lon="3.97714">
        <ele>856</ele>
        <time>2021-04-15T09:31:24Z</time>
      </trkpt>
      <trkpt lat="45.32586" lon="3.9772">
        <ele>856</ele>
        <time>2021-04-15T09:31:25Z</time>
      </trkpt>
      <trkpt lat="45.32587" lon="3.97726">
        <ele>856</ele>
        <time>2021-04-15T09:31:26Z</time>
      </trkpt>
      <trkpt lat="45.32588" lon="3.97731">
        <ele>856</ele>
        <time>2021-04-15T09:31:27Z</time>
      </trkpt>
      <trkpt lat="45.32588" lon="3.97735">
        <ele>856</ele>
        <time>2021-04-15T09:31:28Z</time>
      </trkpt>
      <trkpt lat="45.32587" lon="3.97739">
        <ele>856</ele>
        <time>2021-04-15T09:31:29Z</time>
      </trkpt>
      <trkpt lat="45.32585" lon="3.97744">
        <ele>856</ele>
        <time>2021-04-15T09:31:30Z</time>
      </trkpt>
      <trkpt lat="45.32582" lon="3.97751">
        <ele>856</ele>
        <time>2021-04-15T09:31:31Z</time>
      </trkpt>
      <trkpt lat="45.3258" lon="3.97754">
        <ele>856</ele>
        <time>2021-04-15T09:31:33Z</time>
      </trkpt>
      <trkpt lat="45.32579" lon="3.97757">
        <ele>856</ele>
        <time>2021-04-15T09:31:40Z</time>
      </trkpt>
      <trkpt lat="45.32577" lon="3.97762">
        <ele>856</ele>
        <time>2021-04-15T09:31:42Z</time>
      </trkpt>
      <trkpt lat="45.32576" lon="3.97765">
        <ele>856</ele>
        <time>2021-04-15T09:31:43Z</time>
      </trkpt>
      <trkpt lat="45.32575" lon="3.97769">
        <ele>856</ele>
        <time>2021-04-15T09:31:44Z</time>
      </trkpt>
      <trkpt lat="45.32575" lon="3.97774">
        <ele>856</ele>
        <time>2021-04-15T09:31:45Z</time>
      </trkpt>
      <trkpt lat="45.32574" lon="3.97778">
        <ele>856</ele>
        <time>2021-04-15T09:31:46Z</time>
      </trkpt>
      <trkpt lat="45.32575" lon="3.97784">
        <ele>856</ele>
        <time>2021-04-15T09:31:47Z</time>
      </trkpt>
      <trkpt lat="45.32576" lon="3.97789">
        <ele>856</ele>
        <time>2021-04-15T09:31:48Z</time>
      </trkpt>
      <trkpt lat="45.32577" lon="3.97794">
        <ele>856</ele>
        <time>2021-04-15T09:31:49Z</time>
      </trkpt>
      <trkpt lat="45.3258" lon="3.97804">
        <ele>856</ele>
        <time>2021-04-15T09:31:50Z</time>
      </trkpt>
      <trkpt lat="45.32581" lon="3.97806">
        <ele>857</ele>
        <time>2021-04-15T09:31:52Z</time>
      </trkpt>
      <trkpt lat="45.32582" lon="3.97809">
        <ele>857</ele>
        <time>2021-04-15T09:31:54Z</time>
      </trkpt>
      <trkpt lat="45.3258" lon="3.97812">
        <ele>857</ele>
        <time>2021-04-15T09:31:55Z</time>
      </trkpt>
      <trkpt lat="45.32575" lon="3.97815">
        <ele>857</ele>
        <time>2021-04-15T09:31:56Z</time>
      </trkpt>
      <trkpt lat="45.32572" lon="3.97816">
        <ele>857</ele>
        <time>2021-04-15T09:31:58Z</time>
      </trkpt>
      <trkpt lat="45.32569" lon="3.97815">
        <ele>857</ele>
        <time>2021-04-15T09:31:59Z</time>
      </trkpt>
      <trkpt lat="45.32565" lon="3.97814">
        <ele>857</ele>
        <time>2021-04-15T09:32:00Z</time>
      </trkpt>
      <trkpt lat="45.32562" lon="3.97813">
        <ele>857</ele>
        <time>2021-04-15T09:32:01Z</time>
      </trkpt>
      <trkpt lat="45.3256" lon="3.97812">
        <ele>857</ele>
        <time>2021-04-15T09:32:02Z</time>
      </trkpt>
      <trkpt lat="45.32558" lon="3.97812">
        <ele>857</ele>
        <time>2021-04-15T09:32:03Z</time>
      </trkpt>
      <trkpt lat="45.32555" lon="3.97811">
        <ele>858</ele>
        <time>2021-04-15T09:32:04Z</time>
      </trkpt>
      <trkpt lat="45.32551" lon="3.97811">
        <ele>858</ele>
        <time>2021-04-15T09:32:05Z</time>
      </trkpt>
      <trkpt lat="45.32548" lon="3.9781">
        <ele>858</ele>
        <time>2021-04-15T09:32:06Z</time>
      </trkpt>
      <trkpt lat="45.32545" lon="3.97809">
        <ele>858</ele>
        <time>2021-04-15T09:32:07Z</time>
      </trkpt>
      <trkpt lat="45.32542" lon="3.97808">
        <ele>858</ele>
        <time>2021-04-15T09:32:08Z</time>
      </trkpt>
      <trkpt lat="45.32538" lon="3.97807">
        <ele>858</ele>
        <time>2021-04-15T09:32:09Z</time>
      </trkpt>
      <trkpt lat="45.32535" lon="3.97808">
        <ele>859</ele>
        <time>2021-04-15T09:32:12Z</time>
      </trkpt>
      <trkpt lat="45.32533" lon="3.97809">
        <ele>859</ele>
        <time>2021-04-15T09:32:13Z</time>
      </trkpt>
      <trkpt lat="45.32531" lon="3.97812">
        <ele>860</ele>
        <time>2021-04-15T09:32:15Z</time>
      </trkpt>
      <trkpt lat="45.3253" lon="3.97817">
        <ele>860</ele>
        <time>2021-04-15T09:32:17Z</time>
      </trkpt>
      <trkpt lat="45.3253" lon="3.97821">
        <ele>861</ele>
        <time>2021-04-15T09:32:18Z</time>
      </trkpt>
      <trkpt lat="45.32529" lon="3.97825">
        <ele>861</ele>
        <time>2021-04-15T09:32:19Z</time>
      </trkpt>
      <trkpt lat="45.32529" lon="3.97829">
        <ele>861</ele>
        <time>2021-04-15T09:32:20Z</time>
      </trkpt>
      <trkpt lat="45.32528" lon="3.97833">
        <ele>862</ele>
        <time>2021-04-15T09:32:21Z</time>
      </trkpt>
      <trkpt lat="45.32527" lon="3.97838">
        <ele>862</ele>
        <time>2021-04-15T09:32:22Z</time>
      </trkpt>
      <trkpt lat="45.32527" lon="3.97842">
        <ele>862</ele>
        <time>2021-04-15T09:32:23Z</time>
      </trkpt>
      <trkpt lat="45.32527" lon="3.97847">
        <ele>862</ele>
        <time>2021-04-15T09:32:24Z</time>
      </trkpt>
      <trkpt lat="45.32526" lon="3.97852">
        <ele>863</ele>
        <time>2021-04-15T09:32:25Z</time>
      </trkpt>
      <trkpt lat="45.32526" lon="3.97856">
        <ele>863</ele>
        <time>2021-04-15T09:32:26Z</time>
      </trkpt>
      <trkpt lat="45.32526" lon="3.97861">
        <ele>863</ele>
        <time>2021-04-15T09:32:27Z</time>
      </trkpt>
      <trkpt lat="45.32525" lon="3.9787">
        <ele>863</ele>
        <time>2021-04-15T09:32:28Z</time>
      </trkpt>
      <trkpt lat="45.32525" lon="3.97875">
        <ele>864</ele>
        <time>2021-04-15T09:32:30Z</time>
      </trkpt>
      <trkpt lat="45.32524" lon="3.97879">
        <ele>864</ele>
        <time>2021-04-15T09:32:31Z</time>
      </trkpt>
      <trkpt lat="45.3252" lon="3.97887">
        <ele>864</ele>
        <time>2021-04-15T09:32:32Z</time>
      </trkpt>
      <trkpt lat="45.32517" lon="3.9789">
        <ele>864</ele>
        <time>2021-04-15T09:32:34Z</time>
      </trkpt>
      <trkpt lat="45.32515" lon="3.97894">
        <ele>865</ele>
        <time>2021-04-15T09:32:35Z</time>
      </trkpt>
      <trkpt lat="45.32511" lon="3.97897">
        <ele>865</ele>
        <time>2021-04-15T09:32:36Z</time>
      </trkpt>
      <trkpt lat="45.32508" lon="3.97899">
        <ele>865</ele>
        <time>2021-04-15T09:32:37Z</time>
      </trkpt>
      <trkpt lat="45.32505" lon="3.97902">
        <ele>865</ele>
        <time>2021-04-15T09:32:38Z</time>
      </trkpt>
      <trkpt lat="45.32502" lon="3.97905">
        <ele>865</ele>
        <time>2021-04-15T09:32:39Z</time>
      </trkpt>
      <trkpt lat="45.325" lon="3.97908">
        <ele>866</ele>
        <time>2021-04-15T09:32:40Z</time>
      </trkpt>
      <trkpt lat="45.32497" lon="3.9791">
        <ele>866</ele>
        <time>2021-04-15T09:32:41Z</time>
      </trkpt>
      <trkpt lat="45.32495" lon="3.97913">
        <ele>866</ele>
        <time>2021-04-15T09:32:42Z</time>
      </trkpt>
      <trkpt lat="45.32492" lon="3.97915">
        <ele>867</ele>
        <time>2021-04-15T09:32:43Z</time>
      </trkpt>
      <trkpt lat="45.32489" lon="3.97917">
        <ele>867</ele>
        <time>2021-04-15T09:32:44Z</time>
      </trkpt>
      <trkpt lat="45.32486" lon="3.97919">
        <ele>867</ele>
        <time>2021-04-15T09:32:45Z</time>
      </trkpt>
      <trkpt lat="45.3248" lon="3.97922">
        <ele>868</ele>
        <time>2021-04-15T09:32:46Z</time>
      </trkpt>
      <trkpt lat="45.32477" lon="3.97923">
        <ele>868</ele>
        <time>2021-04-15T09:32:47Z</time>
      </trkpt>
      <trkpt lat="45.32474" lon="3.97925">
        <ele>869</ele>
        <time>2021-04-15T09:32:49Z</time>
      </trkpt>
      <trkpt lat="45.32471" lon="3.97927">
        <ele>869</ele>
        <time>2021-04-15T09:32:50Z</time>
      </trkpt>
      <trkpt lat="45.32468" lon="3.97929">
        <ele>869</ele>
        <time>2021-04-15T09:32:51Z</time>
      </trkpt>
      <trkpt lat="45.32465" lon="3.97931">
        <ele>870</ele>
        <time>2021-04-15T09:32:52Z</time>
      </trkpt>
      <trkpt lat="45.32462" lon="3.97932">
        <ele>870</ele>
        <time>2021-04-15T09:32:53Z</time>
      </trkpt>
      <trkpt lat="45.32459" lon="3.97935">
        <ele>870</ele>
        <time>2021-04-15T09:32:54Z</time>
      </trkpt>
      <trkpt lat="45.32456" lon="3.97937">
        <ele>871</ele>
        <time>2021-04-15T09:32:55Z</time>
      </trkpt>
      <trkpt lat="45.32453" lon="3.97938">
        <ele>871</ele>
        <time>2021-04-15T09:32:56Z</time>
      </trkpt>
      <trkpt lat="45.3245" lon="3.9794">
        <ele>871</ele>
        <time>2021-04-15T09:32:57Z</time>
      </trkpt>
      <trkpt lat="45.32447" lon="3.97942">
        <ele>872</ele>
        <time>2021-04-15T09:32:58Z</time>
      </trkpt>
      <trkpt lat="45.32444" lon="3.97943">
        <ele>872</ele>
        <time>2021-04-15T09:32:59Z</time>
      </trkpt>
      <trkpt lat="45.32442" lon="3.97945">
        <ele>872</ele>
        <time>2021-04-15T09:33:00Z</time>
      </trkpt>
      <trkpt lat="45.32436" lon="3.97948">
        <ele>873</ele>
        <time>2021-04-15T09:33:01Z</time>
      </trkpt>
      <trkpt lat="45.32433" lon="3.9795">
        <ele>873</ele>
        <time>2021-04-15T09:33:03Z</time>
      </trkpt>
      <trkpt lat="45.3243" lon="3.97951">
        <ele>874</ele>
        <time>2021-04-15T09:33:04Z</time>
      </trkpt>
      <trkpt lat="45.32428" lon="3.97953">
        <ele>874</ele>
        <time>2021-04-15T09:33:05Z</time>
      </trkpt>
      <trkpt lat="45.32425" lon="3.97954">
        <ele>875</ele>
        <time>2021-04-15T09:33:06Z</time>
      </trkpt>
      <trkpt lat="45.32422" lon="3.97955">
        <ele>875</ele>
        <time>2021-04-15T09:33:07Z</time>
      </trkpt>
      <trkpt lat="45.3242" lon="3.97957">
        <ele>875</ele>
        <time>2021-04-15T09:33:08Z</time>
      </trkpt>
      <trkpt lat="45.32417" lon="3.97958">
        <ele>875</ele>
        <time>2021-04-15T09:33:09Z</time>
      </trkpt>
      <trkpt lat="45.32414" lon="3.9796">
        <ele>876</ele>
        <time>2021-04-15T09:33:10Z</time>
      </trkpt>
      <trkpt lat="45.32412" lon="3.97962">
        <ele>876</ele>
        <time>2021-04-15T09:33:11Z</time>
      </trkpt>
      <trkpt lat="45.32408" lon="3.97964">
        <ele>877</ele>
        <time>2021-04-15T09:33:12Z</time>
      </trkpt>
      <trkpt lat="45.32405" lon="3.97965">
        <ele>877</ele>
        <time>2021-04-15T09:33:13Z</time>
      </trkpt>
      <trkpt lat="45.32402" lon="3.97966">
        <ele>877</ele>
        <time>2021-04-15T09:33:14Z</time>
      </trkpt>
      <trkpt lat="45.32399" lon="3.97968">
        <ele>878</ele>
        <time>2021-04-15T09:33:15Z</time>
      </trkpt>
      <trkpt lat="45.32396" lon="3.97969">
        <ele>878</ele>
        <time>2021-04-15T09:33:16Z</time>
      </trkpt>
      <trkpt lat="45.32392" lon="3.9797">
        <ele>879</ele>
        <time>2021-04-15T09:33:17Z</time>
      </trkpt>
      <trkpt lat="45.32389" lon="3.97971">
        <ele>879</ele>
        <time>2021-04-15T09:33:18Z</time>
      </trkpt>
      <trkpt lat="45.32385" lon="3.97973">
        <ele>880</ele>
        <time>2021-04-15T09:33:19Z</time>
      </trkpt>
      <trkpt lat="45.32382" lon="3.97975">
        <ele>880</ele>
        <time>2021-04-15T09:33:20Z</time>
      </trkpt>
      <trkpt lat="45.32378" lon="3.97976">
        <ele>880</ele>
        <time>2021-04-15T09:33:21Z</time>
      </trkpt>
      <trkpt lat="45.32374" lon="3.97978">
        <ele>881</ele>
        <time>2021-04-15T09:33:22Z</time>
      </trkpt>
      <trkpt lat="45.32371" lon="3.9798">
        <ele>881</ele>
        <time>2021-04-15T09:33:23Z</time>
      </trkpt>
      <trkpt lat="45.32367" lon="3.97983">
        <ele>882</ele>
        <time>2021-04-15T09:33:24Z</time>
      </trkpt>
      <trkpt lat="45.32364" lon="3.97985">
        <ele>882</ele>
        <time>2021-04-15T09:33:25Z</time>
      </trkpt>
      <trkpt lat="45.3236" lon="3.97987">
        <ele>882</ele>
        <time>2021-04-15T09:33:26Z</time>
      </trkpt>
      <trkpt lat="45.32357" lon="3.9799">
        <ele>882</ele>
        <time>2021-04-15T09:33:27Z</time>
      </trkpt>
      <trkpt lat="45.32353" lon="3.97993">
        <ele>883</ele>
        <time>2021-04-15T09:33:28Z</time>
      </trkpt>
      <trkpt lat="45.32349" lon="3.97996">
        <ele>883</ele>
        <time>2021-04-15T09:33:29Z</time>
      </trkpt>
      <trkpt lat="45.32346" lon="3.97999">
        <ele>883</ele>
        <time>2021-04-15T09:33:30Z</time>
      </trkpt>
      <trkpt lat="45.32342" lon="3.98002">
        <ele>884</ele>
        <time>2021-04-15T09:33:31Z</time>
      </trkpt>
      <trkpt lat="45.32339" lon="3.98005">
        <ele>884</ele>
        <time>2021-04-15T09:33:32Z</time>
      </trkpt>
      <trkpt lat="45.32336" lon="3.98008">
        <ele>884</ele>
        <time>2021-04-15T09:33:33Z</time>
      </trkpt>
      <trkpt lat="45.32333" lon="3.9801">
        <ele>885</ele>
        <time>2021-04-15T09:33:34Z</time>
      </trkpt>
      <trkpt lat="45.32331" lon="3.98013">
        <ele>885</ele>
        <time>2021-04-15T09:33:35Z</time>
      </trkpt>
      <trkpt lat="45.32328" lon="3.98015">
        <ele>885</ele>
        <time>2021-04-15T09:33:36Z</time>
      </trkpt>
      <trkpt lat="45.32325" lon="3.98018">
        <ele>885</ele>
        <time>2021-04-15T09:33:37Z</time>
      </trkpt>
      <trkpt lat="45.32322" lon="3.98021">
        <ele>885</ele>
        <time>2021-04-15T09:33:38Z</time>
      </trkpt>
      <trkpt lat="45.32319" lon="3.98024">
        <ele>886</ele>
        <time>2021-04-15T09:33:39Z</time>
      </trkpt>
      <trkpt lat="45.32315" lon="3.98026">
        <ele>886</ele>
        <time>2021-04-15T09:33:40Z</time>
      </trkpt>
      <trkpt lat="45.32312" lon="3.98028">
        <ele>886</ele>
        <time>2021-04-15T09:33:41Z</time>
      </trkpt>
      <trkpt lat="45.3231" lon="3.98031">
        <ele>887</ele>
        <time>2021-04-15T09:33:42Z</time>
      </trkpt>
      <trkpt lat="45.32307" lon="3.98033">
        <ele>887</ele>
        <time>2021-04-15T09:33:43Z</time>
      </trkpt>
      <trkpt lat="45.32303" lon="3.98035">
        <ele>887</ele>
        <time>2021-04-15T09:33:44Z</time>
      </trkpt>
      <trkpt lat="45.32297" lon="3.98035">
        <ele>888</ele>
        <time>2021-04-15T09:33:46Z</time>
      </trkpt>
      <trkpt lat="45.32294" lon="3.98035">
        <ele>889</ele>
        <time>2021-04-15T09:33:48Z</time>
      </trkpt>
      <trkpt lat="45.32292" lon="3.98036">
        <ele>889</ele>
        <time>2021-04-15T09:33:49Z</time>
      </trkpt>
      <trkpt lat="45.32289" lon="3.98039">
        <ele>889</ele>
        <time>2021-04-15T09:33:50Z</time>
      </trkpt>
      <trkpt lat="45.32288" lon="3.98043">
        <ele>890</ele>
        <time>2021-04-15T09:33:51Z</time>
      </trkpt>
      <trkpt lat="45.32286" lon="3.98048">
        <ele>890</ele>
        <time>2021-04-15T09:33:52Z</time>
      </trkpt>
      <trkpt lat="45.32285" lon="3.98053">
        <ele>890</ele>
        <time>2021-04-15T09:33:53Z</time>
      </trkpt>
      <trkpt lat="45.32283" lon="3.98057">
        <ele>891</ele>
        <time>2021-04-15T09:33:54Z</time>
      </trkpt>
      <trkpt lat="45.32282" lon="3.98061">
        <ele>891</ele>
        <time>2021-04-15T09:33:55Z</time>
      </trkpt>
      <trkpt lat="45.3228" lon="3.98065">
        <ele>891</ele>
        <time>2021-04-15T09:33:56Z</time>
      </trkpt>
      <trkpt lat="45.32278" lon="3.9807">
        <ele>892</ele>
        <time>2021-04-15T09:33:57Z</time>
      </trkpt>
      <trkpt lat="45.32276" lon="3.98074">
        <ele>892</ele>
        <time>2021-04-15T09:33:58Z</time>
      </trkpt>
      <trkpt lat="45.32273" lon="3.98078">
        <ele>892</ele>
        <time>2021-04-15T09:33:59Z</time>
      </trkpt>
      <trkpt lat="45.32269" lon="3.98079">
        <ele>892</ele>
        <time>2021-04-15T09:34:00Z</time>
      </trkpt>
      <trkpt lat="45.3226" lon="3.9808">
        <ele>892</ele>
        <time>2021-04-15T09:34:01Z</time>
      </trkpt>
      <trkpt lat="45.32249" lon="3.98077">
        <ele>892</ele>
        <time>2021-04-15T09:34:03Z</time>
      </trkpt>
      <trkpt lat="45.32244" lon="3.98076">
        <ele>892</ele>
        <time>2021-04-15T09:34:05Z</time>
      </trkpt>
      <trkpt lat="45.32238" lon="3.98074">
        <ele>891</ele>
        <time>2021-04-15T09:34:06Z</time>
      </trkpt>
      <trkpt lat="45.32233" lon="3.98071">
        <ele>891</ele>
        <time>2021-04-15T09:34:07Z</time>
      </trkpt>
      <trkpt lat="45.32228" lon="3.98068">
        <ele>891</ele>
        <time>2021-04-15T09:34:08Z</time>
      </trkpt>
      <trkpt lat="45.32223" lon="3.98066">
        <ele>891</ele>
        <time>2021-04-15T09:34:09Z</time>
      </trkpt>
      <trkpt lat="45.32218" lon="3.98062">
        <ele>892</ele>
        <time>2021-04-15T09:34:10Z</time>
      </trkpt>
      <trkpt lat="45.32213" lon="3.98059">
        <ele>892</ele>
        <time>2021-04-15T09:34:11Z</time>
      </trkpt>
      <trkpt lat="45.32209" lon="3.98055">
        <ele>892</ele>
        <time>2021-04-15T09:34:12Z</time>
      </trkpt>
      <trkpt lat="45.32204" lon="3.98052">
        <ele>891</ele>
        <time>2021-04-15T09:34:13Z</time>
      </trkpt>
      <trkpt lat="45.322" lon="3.98049">
        <ele>891</ele>
        <time>2021-04-15T09:34:14Z</time>
      </trkpt>
      <trkpt lat="45.32195" lon="3.98045">
        <ele>891</ele>
        <time>2021-04-15T09:34:15Z</time>
      </trkpt>
      <trkpt lat="45.3219" lon="3.98042">
        <ele>891</ele>
        <time>2021-04-15T09:34:16Z</time>
      </trkpt>
      <trkpt lat="45.32185" lon="3.98038">
        <ele>891</ele>
        <time>2021-04-15T09:34:17Z</time>
      </trkpt>
      <trkpt lat="45.3218" lon="3.98035">
        <ele>891</ele>
        <time>2021-04-15T09:34:18Z</time>
      </trkpt>
      <trkpt lat="45.32176" lon="3.98031">
        <ele>890</ele>
        <time>2021-04-15T09:34:19Z</time>
      </trkpt>
      <trkpt lat="45.32167" lon="3.98025">
        <ele>890</ele>
        <time>2021-04-15T09:34:20Z</time>
      </trkpt>
      <trkpt lat="45.32157" lon="3.98018">
        <ele>890</ele>
        <time>2021-04-15T09:34:22Z</time>
      </trkpt>
      <trkpt lat="45.32153" lon="3.98015">
        <ele>890</ele>
        <time>2021-04-15T09:34:24Z</time>
      </trkpt>
      <trkpt lat="45.32148" lon="3.98012">
        <ele>890</ele>
        <time>2021-04-15T09:34:25Z</time>
      </trkpt>
      <trkpt lat="45.32144" lon="3.98008">
        <ele>890</ele>
        <time>2021-04-15T09:34:26Z</time>
      </trkpt>
      <trkpt lat="45.32139" lon="3.98005">
        <ele>890</ele>
        <time>2021-04-15T09:34:27Z</time>
      </trkpt>
      <trkpt lat="45.32134" lon="3.98002">
        <ele>890</ele>
        <time>2021-04-15T09:34:28Z</time>
      </trkpt>
      <trkpt lat="45.32123" lon="3.97995">
        <ele>890</ele>
        <time>2021-04-15T09:34:29Z</time>
      </trkpt>
      <trkpt lat="45.32118" lon="3.97991">
        <ele>890</ele>
        <time>2021-04-15T09:34:31Z</time>
      </trkpt>
      <trkpt lat="45.32113" lon="3.97987">
        <ele>890</ele>
        <time>2021-04-15T09:34:32Z</time>
      </trkpt>
      <trkpt lat="45.32107" lon="3.97982">
        <ele>889</ele>
        <time>2021-04-15T09:34:33Z</time>
      </trkpt>
      <trkpt lat="45.32102" lon="3.97977">
        <ele>889</ele>
        <time>2021-04-15T09:34:34Z</time>
      </trkpt>
      <trkpt lat="45.32096" lon="3.97972">
        <ele>889</ele>
        <time>2021-04-15T09:34:35Z</time>
      </trkpt>
      <trkpt lat="45.32092" lon="3.97967">
        <ele>889</ele>
        <time>2021-04-15T09:34:36Z</time>
      </trkpt>
      <trkpt lat="45.32082" lon="3.97956">
        <ele>889</ele>
        <time>2021-04-15T09:34:37Z</time>
      </trkpt>
      <trkpt lat="45.32078" lon="3.9795">
        <ele>889</ele>
        <time>2021-04-15T09:34:39Z</time>
      </trkpt>
      <trkpt lat="45.32074" lon="3.97945">
        <ele>888</ele>
        <time>2021-04-15T09:34:40Z</time>
      </trkpt>
      <trkpt lat="45.32065" lon="3.97933">
        <ele>888</ele>
        <time>2021-04-15T09:34:41Z</time>
      </trkpt>
      <trkpt lat="45.32061" lon="3.97928">
        <ele>888</ele>
        <time>2021-04-15T09:34:43Z</time>
      </trkpt>
      <trkpt lat="45.32057" lon="3.97922">
        <ele>888</ele>
        <time>2021-04-15T09:34:44Z</time>
      </trkpt>
      <trkpt lat="45.32053" lon="3.97917">
        <ele>888</ele>
        <time>2021-04-15T09:34:45Z</time>
      </trkpt>
      <trkpt lat="45.32049" lon="3.97911">
        <ele>888</ele>
        <time>2021-04-15T09:34:46Z</time>
      </trkpt>
      <trkpt lat="45.32045" lon="3.97905">
        <ele>888</ele>
        <time>2021-04-15T09:34:47Z</time>
      </trkpt>
      <trkpt lat="45.32041" lon="3.97899">
        <ele>888</ele>
        <time>2021-04-15T09:34:48Z</time>
      </trkpt>
      <trkpt lat="45.32037" lon="3.97893">
        <ele>888</ele>
        <time>2021-04-15T09:34:49Z</time>
      </trkpt>
      <trkpt lat="45.32034" lon="3.97886">
        <ele>888</ele>
        <time>2021-04-15T09:34:50Z</time>
      </trkpt>
      <trkpt lat="45.3203" lon="3.9788">
        <ele>887</ele>
        <time>2021-04-15T09:34:51Z</time>
      </trkpt>
      <trkpt lat="45.32027" lon="3.97873">
        <ele>887</ele>
        <time>2021-04-15T09:34:52Z</time>
      </trkpt>
      <trkpt lat="45.32024" lon="3.97867">
        <ele>887</ele>
        <time>2021-04-15T09:34:53Z</time>
      </trkpt>
      <trkpt lat="45.32022" lon="3.9786">
        <ele>887</ele>
        <time>2021-04-15T09:34:54Z</time>
      </trkpt>
      <trkpt lat="45.3202" lon="3.97854">
        <ele>887</ele>
        <time>2021-04-15T09:34:55Z</time>
      </trkpt>
      <trkpt lat="45.32019" lon="3.97846">
        <ele>887</ele>
        <time>2021-04-15T09:34:56Z</time>
      </trkpt>
      <trkpt lat="45.32017" lon="3.97839">
        <ele>887</ele>
        <time>2021-04-15T09:34:57Z</time>
      </trkpt>
      <trkpt lat="45.32015" lon="3.97831">
        <ele>887</ele>
        <time>2021-04-15T09:34:58Z</time>
      </trkpt>
      <trkpt lat="45.32013" lon="3.97823">
        <ele>887</ele>
        <time>2021-04-15T09:34:59Z</time>
      </trkpt>
      <trkpt lat="45.32009" lon="3.97808">
        <ele>887</ele>
        <time>2021-04-15T09:35:00Z</time>
      </trkpt>
      <trkpt lat="45.32008" lon="3.978">
        <ele>887</ele>
        <time>2021-04-15T09:35:02Z</time>
      </trkpt>
      <trkpt lat="45.32006" lon="3.97792">
        <ele>887</ele>
        <time>2021-04-15T09:35:03Z</time>
      </trkpt>
      <trkpt lat="45.32004" lon="3.97784">
        <ele>887</ele>
        <time>2021-04-15T09:35:04Z</time>
      </trkpt>
      <trkpt lat="45.32002" lon="3.97776">
        <ele>887</ele>
        <time>2021-04-15T09:35:05Z</time>
      </trkpt>
      <trkpt lat="45.32" lon="3.97768">
        <ele>887</ele>
        <time>2021-04-15T09:35:06Z</time>
      </trkpt>
      <trkpt lat="45.31998" lon="3.9776">
        <ele>887</ele>
        <time>2021-04-15T09:35:07Z</time>
      </trkpt>
      <trkpt lat="45.31996" lon="3.97753">
        <ele>887</ele>
        <time>2021-04-15T09:35:08Z</time>
      </trkpt>
      <trkpt lat="45.31994" lon="3.97745">
        <ele>887</ele>
        <time>2021-04-15T09:35:09Z</time>
      </trkpt>
      <trkpt lat="45.31992" lon="3.97737">
        <ele>887</ele>
        <time>2021-04-15T09:35:10Z</time>
      </trkpt>
      <trkpt lat="45.3199" lon="3.9773">
        <ele>887</ele>
        <time>2021-04-15T09:35:11Z</time>
      </trkpt>
      <trkpt lat="45.31988" lon="3.97722">
        <ele>887</ele>
        <time>2021-04-15T09:35:12Z</time>
      </trkpt>
      <trkpt lat="45.31986" lon="3.97715">
        <ele>886</ele>
        <time>2021-04-15T09:35:13Z</time>
      </trkpt>
      <trkpt lat="45.31984" lon="3.97707">
        <ele>886</ele>
        <time>2021-04-15T09:35:14Z</time>
      </trkpt>
      <trkpt lat="45.31982" lon="3.977">
        <ele>886</ele>
        <time>2021-04-15T09:35:15Z</time>
      </trkpt>
      <trkpt lat="45.3198" lon="3.97692">
        <ele>886</ele>
        <time>2021-04-15T09:35:16Z</time>
      </trkpt>
      <trkpt lat="45.31978" lon="3.97685">
        <ele>886</ele>
        <time>2021-04-15T09:35:17Z</time>
      </trkpt>
      <trkpt lat="45.31976" lon="3.97677">
        <ele>886</ele>
        <time>2021-04-15T09:35:18Z</time>
      </trkpt>
      <trkpt lat="45.31972" lon="3.97662">
        <ele>886</ele>
        <time>2021-04-15T09:35:19Z</time>
      </trkpt>
      <trkpt lat="45.31967" lon="3.97646">
        <ele>886</ele>
        <time>2021-04-15T09:35:21Z</time>
      </trkpt>
      <trkpt lat="45.31965" lon="3.97639">
        <ele>886</ele>
        <time>2021-04-15T09:35:23Z</time>
      </trkpt>
      <trkpt lat="45.31963" lon="3.97631">
        <ele>886</ele>
        <time>2021-04-15T09:35:24Z</time>
      </trkpt>
      <trkpt lat="45.3196" lon="3.97623">
        <ele>886</ele>
        <time>2021-04-15T09:35:25Z</time>
      </trkpt>
      <trkpt lat="45.31958" lon="3.97616">
        <ele>886</ele>
        <time>2021-04-15T09:35:26Z</time>
      </trkpt>
      <trkpt lat="45.31955" lon="3.97608">
        <ele>886</ele>
        <time>2021-04-15T09:35:27Z</time>
      </trkpt>
      <trkpt lat="45.31953" lon="3.97601">
        <ele>886</ele>
        <time>2021-04-15T09:35:28Z</time>
      </trkpt>
      <trkpt lat="45.31947" lon="3.97586">
        <ele>886</ele>
        <time>2021-04-15T09:35:29Z</time>
      </trkpt>
      <trkpt lat="45.31944" lon="3.97579">
        <ele>886</ele>
        <time>2021-04-15T09:35:31Z</time>
      </trkpt>
      <trkpt lat="45.31942" lon="3.97571">
        <ele>886</ele>
        <time>2021-04-15T09:35:32Z</time>
      </trkpt>
      <trkpt lat="45.31943" lon="3.97563">
        <ele>886</ele>
        <time>2021-04-15T09:35:33Z</time>
      </trkpt>
      <trkpt lat="45.31945" lon="3.97557">
        <ele>886</ele>
        <time>2021-04-15T09:35:34Z</time>
      </trkpt>
      <trkpt lat="45.31949" lon="3.97552">
        <ele>886</ele>
        <time>2021-04-15T09:35:35Z</time>
      </trkpt>
      <trkpt lat="45.31953" lon="3.97548">
        <ele>886</ele>
        <time>2021-04-15T09:35:36Z</time>
      </trkpt>
      <trkpt lat="45.31957" lon="3.97543">
        <ele>886</ele>
        <time>2021-04-15T09:35:37Z</time>
      </trkpt>
      <trkpt lat="45.31968" lon="3.97535">
        <ele>886</ele>
        <time>2021-04-15T09:35:38Z</time>
      </trkpt>
      <trkpt lat="45.31973" lon="3.97532">
        <ele>886</ele>
        <time>2021-04-15T09:35:40Z</time>
      </trkpt>
      <trkpt lat="45.31979" lon="3.97529">
        <ele>886</ele>
        <time>2021-04-15T09:35:41Z</time>
      </trkpt>
      <trkpt lat="45.31985" lon="3.97526">
        <ele>886</ele>
        <time>2021-04-15T09:35:42Z</time>
      </trkpt>
      <trkpt lat="45.31991" lon="3.97523">
        <ele>885</ele>
        <time>2021-04-15T09:35:43Z</time>
      </trkpt>
      <trkpt lat="45.31997" lon="3.9752">
        <ele>885</ele>
        <time>2021-04-15T09:35:44Z</time>
      </trkpt>
      <trkpt lat="45.32002" lon="3.97517">
        <ele>885</ele>
        <time>2021-04-15T09:35:45Z</time>
      </trkpt>
      <trkpt lat="45.32008" lon="3.97514">
        <ele>885</ele>
        <time>2021-04-15T09:35:46Z</time>
      </trkpt>
      <trkpt lat="45.32014" lon="3.97509">
        <ele>885</ele>
        <time>2021-04-15T09:35:47Z</time>
      </trkpt>
      <trkpt lat="45.3202" lon="3.97505">
        <ele>884</ele>
        <time>2021-04-15T09:35:48Z</time>
      </trkpt>
      <trkpt lat="45.32026" lon="3.975">
        <ele>884</ele>
        <time>2021-04-15T09:35:49Z</time>
      </trkpt>
      <trkpt lat="45.32032" lon="3.97496">
        <ele>884</ele>
        <time>2021-04-15T09:35:50Z</time>
      </trkpt>
      <trkpt lat="45.32038" lon="3.97491">
        <ele>883</ele>
        <time>2021-04-15T09:35:51Z</time>
      </trkpt>
      <trkpt lat="45.32045" lon="3.97486">
        <ele>883</ele>
        <time>2021-04-15T09:35:52Z</time>
      </trkpt>
      <trkpt lat="45.32051" lon="3.9748">
        <ele>883</ele>
        <time>2021-04-15T09:35:53Z</time>
      </trkpt>
      <trkpt lat="45.32057" lon="3.97475">
        <ele>883</ele>
        <time>2021-04-15T09:35:54Z</time>
      </trkpt>
      <trkpt lat="45.32064" lon="3.97469">
        <ele>882</ele>
        <time>2021-04-15T09:35:55Z</time>
      </trkpt>
      <trkpt lat="45.3207" lon="3.97464">
        <ele>882</ele>
        <time>2021-04-15T09:35:56Z</time>
      </trkpt>
      <trkpt lat="45.3208" lon="3.97452">
        <ele>882</ele>
        <time>2021-04-15T09:35:57Z</time>
      </trkpt>
      <trkpt lat="45.32085" lon="3.97446">
        <ele>881</ele>
        <time>2021-04-15T09:35:59Z</time>
      </trkpt>
      <trkpt lat="45.32089" lon="3.97439">
        <ele>881</ele>
        <time>2021-04-15T09:36:00Z</time>
      </trkpt>
      <trkpt lat="45.32095" lon="3.97426">
        <ele>881</ele>
        <time>2021-04-15T09:36:01Z</time>
      </trkpt>
      <trkpt lat="45.32097" lon="3.9742">
        <ele>880</ele>
        <time>2021-04-15T09:36:03Z</time>
      </trkpt>
      <trkpt lat="45.321" lon="3.97414">
        <ele>880</ele>
        <time>2021-04-15T09:36:04Z</time>
      </trkpt>
      <trkpt lat="45.32103" lon="3.97408">
        <ele>879</ele>
        <time>2021-04-15T09:36:05Z</time>
      </trkpt>
      <trkpt lat="45.32106" lon="3.97401">
        <ele>879</ele>
        <time>2021-04-15T09:36:06Z</time>
      </trkpt>
      <trkpt lat="45.3211" lon="3.97393">
        <ele>878</ele>
        <time>2021-04-15T09:36:07Z</time>
      </trkpt>
      <trkpt lat="45.32112" lon="3.97385">
        <ele>878</ele>
        <time>2021-04-15T09:36:08Z</time>
      </trkpt>
      <trkpt lat="45.32113" lon="3.97376">
        <ele>878</ele>
        <time>2021-04-15T09:36:09Z</time>
      </trkpt>
      <trkpt lat="45.32114" lon="3.97358">
        <ele>878</ele>
        <time>2021-04-15T09:36:10Z</time>
      </trkpt>
      <trkpt lat="45.32114" lon="3.97349">
        <ele>877</ele>
        <time>2021-04-15T09:36:12Z</time>
      </trkpt>
      <trkpt lat="45.32115" lon="3.97341">
        <ele>877</ele>
        <time>2021-04-15T09:36:13Z</time>
      </trkpt>
      <trkpt lat="45.32115" lon="3.97332">
        <ele>876</ele>
        <time>2021-04-15T09:36:14Z</time>
      </trkpt>
      <trkpt lat="45.32116" lon="3.97323">
        <ele>876</ele>
        <time>2021-04-15T09:36:15Z</time>
      </trkpt>
      <trkpt lat="45.32117" lon="3.97304">
        <ele>876</ele>
        <time>2021-04-15T09:36:16Z</time>
      </trkpt>
      <trkpt lat="45.32118" lon="3.97294">
        <ele>875</ele>
        <time>2021-04-15T09:36:18Z</time>
      </trkpt>
      <trkpt lat="45.32119" lon="3.97284">
        <ele>875</ele>
        <time>2021-04-15T09:36:19Z</time>
      </trkpt>
      <trkpt lat="45.3212" lon="3.97274">
        <ele>874</ele>
        <time>2021-04-15T09:36:20Z</time>
      </trkpt>
      <trkpt lat="45.32119" lon="3.97263">
        <ele>873</ele>
        <time>2021-04-15T09:36:21Z</time>
      </trkpt>
      <trkpt lat="45.32119" lon="3.97253">
        <ele>873</ele>
        <time>2021-04-15T09:36:22Z</time>
      </trkpt>
      <trkpt lat="45.32118" lon="3.97242">
        <ele>872</ele>
        <time>2021-04-15T09:36:23Z</time>
      </trkpt>
      <trkpt lat="45.32118" lon="3.97231">
        <ele>872</ele>
        <time>2021-04-15T09:36:24Z</time>
      </trkpt>
      <trkpt lat="45.32115" lon="3.9722">
        <ele>871</ele>
        <time>2021-04-15T09:36:25Z</time>
      </trkpt>
      <trkpt lat="45.32113" lon="3.97208">
        <ele>871</ele>
        <time>2021-04-15T09:36:26Z</time>
      </trkpt>
      <trkpt lat="45.32113" lon="3.97196">
        <ele>870</ele>
        <time>2021-04-15T09:36:27Z</time>
      </trkpt>
      <trkpt lat="45.32112" lon="3.97185">
        <ele>870</ele>
        <time>2021-04-15T09:36:28Z</time>
      </trkpt>
      <trkpt lat="45.32112" lon="3.97172">
        <ele>869</ele>
        <time>2021-04-15T09:36:29Z</time>
      </trkpt>
      <trkpt lat="45.32111" lon="3.9716">
        <ele>869</ele>
        <time>2021-04-15T09:36:30Z</time>
      </trkpt>
      <trkpt lat="45.32111" lon="3.97148">
        <ele>869</ele>
        <time>2021-04-15T09:36:31Z</time>
      </trkpt>
      <trkpt lat="45.32111" lon="3.97137">
        <ele>869</ele>
        <time>2021-04-15T09:36:32Z</time>
      </trkpt>
      <trkpt lat="45.32113" lon="3.97126">
        <ele>869</ele>
        <time>2021-04-15T09:36:33Z</time>
      </trkpt>
      <trkpt lat="45.32116" lon="3.97116">
        <ele>869</ele>
        <time>2021-04-15T09:36:34Z</time>
      </trkpt>
      <trkpt lat="45.3212" lon="3.97096">
        <ele>868</ele>
        <time>2021-04-15T09:36:35Z</time>
      </trkpt>
      <trkpt lat="45.32123" lon="3.97081">
        <ele>867</ele>
        <time>2021-04-15T09:36:37Z</time>
      </trkpt>
      <trkpt lat="45.32126" lon="3.97065">
        <ele>866</ele>
        <time>2021-04-15T09:36:40Z</time>
      </trkpt>
      <trkpt lat="45.32139" lon="3.97047">
        <ele>865</ele>
        <time>2021-04-15T09:36:42Z</time>
      </trkpt>
      <trkpt lat="45.32146" lon="3.97038">
        <ele>864</ele>
        <time>2021-04-15T09:36:43Z</time>
      </trkpt>
      <trkpt lat="45.32155" lon="3.97028">
        <ele>864</ele>
        <time>2021-04-15T09:36:44Z</time>
      </trkpt>
      <trkpt lat="45.32157" lon="3.97025">
        <ele>863</ele>
        <time>2021-04-15T09:36:46Z</time>
      </trkpt>
      <trkpt lat="45.3216" lon="3.97022">
        <ele>863</ele>
        <time>2021-04-15T09:36:47Z</time>
      </trkpt>
      <trkpt lat="45.32161" lon="3.97019">
        <ele>862</ele>
        <time>2021-04-15T09:36:48Z</time>
      </trkpt>
      <trkpt lat="45.32161" lon="3.97015">
        <ele>862</ele>
        <time>2021-04-15T09:36:49Z</time>
      </trkpt>
      <trkpt lat="45.3216" lon="3.97011">
        <ele>861</ele>
        <time>2021-04-15T09:36:50Z</time>
      </trkpt>
      <trkpt lat="45.32159" lon="3.97008">
        <ele>861</ele>
        <time>2021-04-15T09:36:51Z</time>
      </trkpt>
      <trkpt lat="45.32159" lon="3.97004">
        <ele>860</ele>
        <time>2021-04-15T09:36:52Z</time>
      </trkpt>
      <trkpt lat="45.32158" lon="3.97">
        <ele>860</ele>
        <time>2021-04-15T09:36:53Z</time>
      </trkpt>
      <trkpt lat="45.32155" lon="3.96991">
        <ele>860</ele>
        <time>2021-04-15T09:36:54Z</time>
      </trkpt>
      <trkpt lat="45.32155" lon="3.96987">
        <ele>859</ele>
        <time>2021-04-15T09:36:56Z</time>
      </trkpt>
      <trkpt lat="45.32154" lon="3.96984">
        <ele>859</ele>
        <time>2021-04-15T09:36:57Z</time>
      </trkpt>
      <trkpt lat="45.32153" lon="3.96979">
        <ele>859</ele>
        <time>2021-04-15T09:36:58Z</time>
      </trkpt>
      <trkpt lat="45.3215" lon="3.96969">
        <ele>859</ele>
        <time>2021-04-15T09:36:59Z</time>
      </trkpt>
      <trkpt lat="45.32149" lon="3.96963">
        <ele>859</ele>
        <time>2021-04-15T09:37:01Z</time>
      </trkpt>
      <trkpt lat="45.32148" lon="3.96957">
        <ele>858</ele>
        <time>2021-04-15T09:37:02Z</time>
      </trkpt>
      <trkpt lat="45.32147" lon="3.9695">
        <ele>858</ele>
        <time>2021-04-15T09:37:03Z</time>
      </trkpt>
      <trkpt lat="45.32146" lon="3.96943">
        <ele>858</ele>
        <time>2021-04-15T09:37:04Z</time>
      </trkpt>
      <trkpt lat="45.32144" lon="3.96937">
        <ele>858</ele>
        <time>2021-04-15T09:37:05Z</time>
      </trkpt>
      <trkpt lat="45.32143" lon="3.9693">
        <ele>858</ele>
        <time>2021-04-15T09:37:06Z</time>
      </trkpt>
      <trkpt lat="45.32142" lon="3.96924">
        <ele>858</ele>
        <time>2021-04-15T09:37:07Z</time>
      </trkpt>
      <trkpt lat="45.32142" lon="3.96917">
        <ele>858</ele>
        <time>2021-04-15T09:37:08Z</time>
      </trkpt>
      <trkpt lat="45.32141" lon="3.9691">
        <ele>858</ele>
        <time>2021-04-15T09:37:09Z</time>
      </trkpt>
      <trkpt lat="45.3214" lon="3.96896">
        <ele>858</ele>
        <time>2021-04-15T09:37:10Z</time>
      </trkpt>
      <trkpt lat="45.32139" lon="3.96889">
        <ele>857</ele>
        <time>2021-04-15T09:37:12Z</time>
      </trkpt>
      <trkpt lat="45.32136" lon="3.96876">
        <ele>857</ele>
        <time>2021-04-15T09:37:13Z</time>
      </trkpt>
      <trkpt lat="45.32134" lon="3.9687">
        <ele>857</ele>
        <time>2021-04-15T09:37:15Z</time>
      </trkpt>
      <trkpt lat="45.32132" lon="3.96864">
        <ele>857</ele>
        <time>2021-04-15T09:37:16Z</time>
      </trkpt>
      <trkpt lat="45.3213" lon="3.96858">
        <ele>857</ele>
        <time>2021-04-15T09:37:17Z</time>
      </trkpt>
      <trkpt lat="45.32127" lon="3.96853">
        <ele>857</ele>
        <time>2021-04-15T09:37:18Z</time>
      </trkpt>
      <trkpt lat="45.32125" lon="3.96847">
        <ele>857</ele>
        <time>2021-04-15T09:37:19Z</time>
      </trkpt>
      <trkpt lat="45.32122" lon="3.9684">
        <ele>857</ele>
        <time>2021-04-15T09:37:20Z</time>
      </trkpt>
      <trkpt lat="45.32121" lon="3.96834">
        <ele>857</ele>
        <time>2021-04-15T09:37:21Z</time>
      </trkpt>
      <trkpt lat="45.32119" lon="3.96828">
        <ele>857</ele>
        <time>2021-04-15T09:37:22Z</time>
      </trkpt>
      <trkpt lat="45.32117" lon="3.96822">
        <ele>857</ele>
        <time>2021-04-15T09:37:23Z</time>
      </trkpt>
      <trkpt lat="45.32114" lon="3.96816">
        <ele>857</ele>
        <time>2021-04-15T09:37:24Z</time>
      </trkpt>
      <trkpt lat="45.32111" lon="3.9681">
        <ele>856</ele>
        <time>2021-04-15T09:37:25Z</time>
      </trkpt>
      <trkpt lat="45.32107" lon="3.96804">
        <ele>856</ele>
        <time>2021-04-15T09:37:26Z</time>
      </trkpt>
      <trkpt lat="45.32099" lon="3.96792">
        <ele>856</ele>
        <time>2021-04-15T09:37:28Z</time>
      </trkpt>
      <trkpt lat="45.32089" lon="3.96781">
        <ele>856</ele>
        <time>2021-04-15T09:37:30Z</time>
      </trkpt>
      <trkpt lat="45.32084" lon="3.96775">
        <ele>856</ele>
        <time>2021-04-15T09:37:31Z</time>
      </trkpt>
      <trkpt lat="45.32073" lon="3.96762">
        <ele>855</ele>
        <time>2021-04-15T09:37:32Z</time>
      </trkpt>
      <trkpt lat="45.32067" lon="3.96755">
        <ele>855</ele>
        <time>2021-04-15T09:37:34Z</time>
      </trkpt>
      <trkpt lat="45.32062" lon="3.96749">
        <ele>855</ele>
        <time>2021-04-15T09:37:35Z</time>
      </trkpt>
      <trkpt lat="45.32056" lon="3.96742">
        <ele>854</ele>
        <time>2021-04-15T09:37:36Z</time>
      </trkpt>
      <trkpt lat="45.32045" lon="3.96727">
        <ele>854</ele>
        <time>2021-04-15T09:37:37Z</time>
      </trkpt>
      <trkpt lat="45.3204" lon="3.9672">
        <ele>854</ele>
        <time>2021-04-15T09:37:39Z</time>
      </trkpt>
      <trkpt lat="45.32034" lon="3.96713">
        <ele>853</ele>
        <time>2021-04-15T09:37:40Z</time>
      </trkpt>
      <trkpt lat="45.32029" lon="3.96706">
        <ele>853</ele>
        <time>2021-04-15T09:37:41Z</time>
      </trkpt>
      <trkpt lat="45.32025" lon="3.96698">
        <ele>853</ele>
        <time>2021-04-15T09:37:42Z</time>
      </trkpt>
      <trkpt lat="45.32021" lon="3.96691">
        <ele>853</ele>
        <time>2021-04-15T09:37:43Z</time>
      </trkpt>
      <trkpt lat="45.32014" lon="3.9668">
        <ele>853</ele>
        <time>2021-04-15T09:37:44Z</time>
      </trkpt>
      <trkpt lat="45.3201" lon="3.96675">
        <ele>853</ele>
        <time>2021-04-15T09:37:46Z</time>
      </trkpt>
      <trkpt lat="45.32006" lon="3.96671">
        <ele>852</ele>
        <time>2021-04-15T09:37:47Z</time>
      </trkpt>
      <trkpt lat="45.32003" lon="3.96667">
        <ele>852</ele>
        <time>2021-04-15T09:37:48Z</time>
      </trkpt>
      <trkpt lat="45.31999" lon="3.96663">
        <ele>852</ele>
        <time>2021-04-15T09:37:49Z</time>
      </trkpt>
      <trkpt lat="45.31996" lon="3.96659">
        <ele>852</ele>
        <time>2021-04-15T09:37:50Z</time>
      </trkpt>
      <trkpt lat="45.31992" lon="3.96653">
        <ele>852</ele>
        <time>2021-04-15T09:37:51Z</time>
      </trkpt>
      <trkpt lat="45.3199" lon="3.9665">
        <ele>852</ele>
        <time>2021-04-15T09:37:53Z</time>
      </trkpt>
      <trkpt lat="45.31988" lon="3.96647">
        <ele>851</ele>
        <time>2021-04-15T09:37:54Z</time>
      </trkpt>
      <trkpt lat="45.31986" lon="3.96645">
        <ele>851</ele>
        <time>2021-04-15T09:37:55Z</time>
      </trkpt>
      <trkpt lat="45.31984" lon="3.96642">
        <ele>851</ele>
        <time>2021-04-15T09:37:56Z</time>
      </trkpt>
      <trkpt lat="45.31982" lon="3.9664">
        <ele>851</ele>
        <time>2021-04-15T09:37:57Z</time>
      </trkpt>
      <trkpt lat="45.3198" lon="3.96637">
        <ele>851</ele>
        <time>2021-04-15T09:37:58Z</time>
      </trkpt>
      <trkpt lat="45.31978" lon="3.96635">
        <ele>851</ele>
        <time>2021-04-15T09:37:59Z</time>
      </trkpt>
      <trkpt lat="45.31976" lon="3.96632">
        <ele>851</ele>
        <time>2021-04-15T09:38:00Z</time>
      </trkpt>
      <trkpt lat="45.31974" lon="3.9663">
        <ele>851</ele>
        <time>2021-04-15T09:38:01Z</time>
      </trkpt>
      <trkpt lat="45.31972" lon="3.96628">
        <ele>851</ele>
        <time>2021-04-15T09:38:02Z</time>
      </trkpt>
      <trkpt lat="45.31969" lon="3.96626">
        <ele>851</ele>
        <time>2021-04-15T09:38:03Z</time>
      </trkpt>
      <trkpt lat="45.31967" lon="3.96622">
        <ele>851</ele>
        <time>2021-04-15T09:38:04Z</time>
      </trkpt>
      <trkpt lat="45.31964" lon="3.96619">
        <ele>851</ele>
        <time>2021-04-15T09:38:05Z</time>
      </trkpt>
      <trkpt lat="45.31962" lon="3.96616">
        <ele>851</ele>
        <time>2021-04-15T09:38:06Z</time>
      </trkpt>
      <trkpt lat="45.3196" lon="3.96614">
        <ele>851</ele>
        <time>2021-04-15T09:38:07Z</time>
      </trkpt>
      <trkpt lat="45.31958" lon="3.96611">
        <ele>851</ele>
        <time>2021-04-15T09:38:08Z</time>
      </trkpt>
      <trkpt lat="45.31955" lon="3.96608">
        <ele>852</ele>
        <time>2021-04-15T09:38:09Z</time>
      </trkpt>
      <trkpt lat="45.31949" lon="3.96602">
        <ele>852</ele>
        <time>2021-04-15T09:38:10Z</time>
      </trkpt>
      <trkpt lat="45.31946" lon="3.96599">
        <ele>852</ele>
        <time>2021-04-15T09:38:12Z</time>
      </trkpt>
      <trkpt lat="45.3194" lon="3.96592">
        <ele>853</ele>
        <time>2021-04-15T09:38:13Z</time>
      </trkpt>
      <trkpt lat="45.31937" lon="3.9659">
        <ele>853</ele>
        <time>2021-04-15T09:38:15Z</time>
      </trkpt>
      <trkpt lat="45.31935" lon="3.96586">
        <ele>853</ele>
        <time>2021-04-15T09:38:16Z</time>
      </trkpt>
      <trkpt lat="45.31932" lon="3.96584">
        <ele>854</ele>
        <time>2021-04-15T09:38:17Z</time>
      </trkpt>
      <trkpt lat="45.31928" lon="3.96581">
        <ele>854</ele>
        <time>2021-04-15T09:38:18Z</time>
      </trkpt>
      <trkpt lat="45.31925" lon="3.96577">
        <ele>854</ele>
        <time>2021-04-15T09:38:19Z</time>
      </trkpt>
      <trkpt lat="45.31923" lon="3.96574">
        <ele>855</ele>
        <time>2021-04-15T09:38:20Z</time>
      </trkpt>
      <trkpt lat="45.3192" lon="3.9657">
        <ele>855</ele>
        <time>2021-04-15T09:38:21Z</time>
      </trkpt>
      <trkpt lat="45.31917" lon="3.96567">
        <ele>855</ele>
        <time>2021-04-15T09:38:22Z</time>
      </trkpt>
      <trkpt lat="45.31914" lon="3.96565">
        <ele>856</ele>
        <time>2021-04-15T09:38:23Z</time>
      </trkpt>
      <trkpt lat="45.31912" lon="3.96563">
        <ele>856</ele>
        <time>2021-04-15T09:38:24Z</time>
      </trkpt>
      <trkpt lat="45.3191" lon="3.9656">
        <ele>856</ele>
        <time>2021-04-15T09:38:25Z</time>
      </trkpt>
      <trkpt lat="45.31907" lon="3.96558">
        <ele>856</ele>
        <time>2021-04-15T09:38:26Z</time>
      </trkpt>
      <trkpt lat="45.31904" lon="3.96555">
        <ele>856</ele>
        <time>2021-04-15T09:38:27Z</time>
      </trkpt>
      <trkpt lat="45.31898" lon="3.96548">
        <ele>857</ele>
        <time>2021-04-15T09:38:28Z</time>
      </trkpt>
      <trkpt lat="45.31895" lon="3.96545">
        <ele>857</ele>
        <time>2021-04-15T09:38:29Z</time>
      </trkpt>
      <trkpt lat="45.31892" lon="3.96541">
        <ele>858</ele>
        <time>2021-04-15T09:38:31Z</time>
      </trkpt>
      <trkpt lat="45.31887" lon="3.96535">
        <ele>858</ele>
        <time>2021-04-15T09:38:32Z</time>
      </trkpt>
      <trkpt lat="45.31881" lon="3.9653">
        <ele>858</ele>
        <time>2021-04-15T09:38:33Z</time>
      </trkpt>
      <trkpt lat="45.31877" lon="3.96525">
        <ele>858</ele>
        <time>2021-04-15T09:38:34Z</time>
      </trkpt>
      <trkpt lat="45.31874" lon="3.96521">
        <ele>858</ele>
        <time>2021-04-15T09:38:35Z</time>
      </trkpt>
      <trkpt lat="45.3187" lon="3.96517">
        <ele>858</ele>
        <time>2021-04-15T09:38:36Z</time>
      </trkpt>
      <trkpt lat="45.31866" lon="3.96513">
        <ele>858</ele>
        <time>2021-04-15T09:38:37Z</time>
      </trkpt>
      <trkpt lat="45.31863" lon="3.96509">
        <ele>858</ele>
        <time>2021-04-15T09:38:38Z</time>
      </trkpt>
      <trkpt lat="45.3186" lon="3.96505">
        <ele>859</ele>
        <time>2021-04-15T09:38:39Z</time>
      </trkpt>
      <trkpt lat="45.31857" lon="3.96499">
        <ele>859</ele>
        <time>2021-04-15T09:38:40Z</time>
      </trkpt>
      <trkpt lat="45.31855" lon="3.96494">
        <ele>859</ele>
        <time>2021-04-15T09:38:41Z</time>
      </trkpt>
      <trkpt lat="45.31853" lon="3.96488">
        <ele>859</ele>
        <time>2021-04-15T09:38:42Z</time>
      </trkpt>
      <trkpt lat="45.31852" lon="3.96483">
        <ele>859</ele>
        <time>2021-04-15T09:38:43Z</time>
      </trkpt>
      <trkpt lat="45.3185" lon="3.96479">
        <ele>859</ele>
        <time>2021-04-15T09:38:44Z</time>
      </trkpt>
      <trkpt lat="45.31848" lon="3.96474">
        <ele>859</ele>
        <time>2021-04-15T09:38:45Z</time>
      </trkpt>
      <trkpt lat="45.31845" lon="3.9647">
        <ele>859</ele>
        <time>2021-04-15T09:38:46Z</time>
      </trkpt>
      <trkpt lat="45.31843" lon="3.96465">
        <ele>860</ele>
        <time>2021-04-15T09:38:47Z</time>
      </trkpt>
      <trkpt lat="45.31838" lon="3.96455">
        <ele>860</ele>
        <time>2021-04-15T09:38:48Z</time>
      </trkpt>
      <trkpt lat="45.31832" lon="3.96446">
        <ele>860</ele>
        <time>2021-04-15T09:38:50Z</time>
      </trkpt>
      <trkpt lat="45.3183" lon="3.96441">
        <ele>861</ele>
        <time>2021-04-15T09:38:52Z</time>
      </trkpt>
      <trkpt lat="45.31828" lon="3.96435">
        <ele>861</ele>
        <time>2021-04-15T09:38:53Z</time>
      </trkpt>
      <trkpt lat="45.31827" lon="3.9643">
        <ele>862</ele>
        <time>2021-04-15T09:38:54Z</time>
      </trkpt>
      <trkpt lat="45.31825" lon="3.96424">
        <ele>862</ele>
        <time>2021-04-15T09:38:55Z</time>
      </trkpt>
      <trkpt lat="45.31824" lon="3.96418">
        <ele>863</ele>
        <time>2021-04-15T09:38:56Z</time>
      </trkpt>
      <trkpt lat="45.31823" lon="3.96412">
        <ele>863</ele>
        <time>2021-04-15T09:38:57Z</time>
      </trkpt>
      <trkpt lat="45.31822" lon="3.96406">
        <ele>863</ele>
        <time>2021-04-15T09:38:58Z</time>
      </trkpt>
      <trkpt lat="45.31819" lon="3.96394">
        <ele>863</ele>
        <time>2021-04-15T09:38:59Z</time>
      </trkpt>
      <trkpt lat="45.31817" lon="3.96388">
        <ele>864</ele>
        <time>2021-04-15T09:39:01Z</time>
      </trkpt>
      <trkpt lat="45.31816" lon="3.96381">
        <ele>865</ele>
        <time>2021-04-15T09:39:02Z</time>
      </trkpt>
      <trkpt lat="45.31815" lon="3.96375">
        <ele>865</ele>
        <time>2021-04-15T09:39:03Z</time>
      </trkpt>
      <trkpt lat="45.31814" lon="3.96369">
        <ele>865</ele>
        <time>2021-04-15T09:39:04Z</time>
      </trkpt>
      <trkpt lat="45.31812" lon="3.96363">
        <ele>865</ele>
        <time>2021-04-15T09:39:05Z</time>
      </trkpt>
      <trkpt lat="45.31811" lon="3.96357">
        <ele>865</ele>
        <time>2021-04-15T09:39:06Z</time>
      </trkpt>
      <trkpt lat="45.31808" lon="3.96346">
        <ele>865</ele>
        <time>2021-04-15T09:39:07Z</time>
      </trkpt>
      <trkpt lat="45.31807" lon="3.9634">
        <ele>866</ele>
        <time>2021-04-15T09:39:09Z</time>
      </trkpt>
      <trkpt lat="45.31805" lon="3.96334">
        <ele>866</ele>
        <time>2021-04-15T09:39:10Z</time>
      </trkpt>
      <trkpt lat="45.31803" lon="3.96329">
        <ele>867</ele>
        <time>2021-04-15T09:39:11Z</time>
      </trkpt>
      <trkpt lat="45.31801" lon="3.96323">
        <ele>867</ele>
        <time>2021-04-15T09:39:12Z</time>
      </trkpt>
      <trkpt lat="45.31794" lon="3.96312">
        <ele>867</ele>
        <time>2021-04-15T09:39:13Z</time>
      </trkpt>
      <trkpt lat="45.3179" lon="3.96307">
        <ele>867</ele>
        <time>2021-04-15T09:39:15Z</time>
      </trkpt>
      <trkpt lat="45.31786" lon="3.96302">
        <ele>867</ele>
        <time>2021-04-15T09:39:16Z</time>
      </trkpt>
      <trkpt lat="45.31782" lon="3.96297">
        <ele>867</ele>
        <time>2021-04-15T09:39:17Z</time>
      </trkpt>
      <trkpt lat="45.31779" lon="3.96292">
        <ele>867</ele>
        <time>2021-04-15T09:39:18Z</time>
      </trkpt>
      <trkpt lat="45.31776" lon="3.96288">
        <ele>867</ele>
        <time>2021-04-15T09:39:19Z</time>
      </trkpt>
      <trkpt lat="45.31774" lon="3.96283">
        <ele>867</ele>
        <time>2021-04-15T09:39:20Z</time>
      </trkpt>
      <trkpt lat="45.31771" lon="3.96279">
        <ele>867</ele>
        <time>2021-04-15T09:39:21Z</time>
      </trkpt>
      <trkpt lat="45.31769" lon="3.96276">
        <ele>868</ele>
        <time>2021-04-15T09:39:22Z</time>
      </trkpt>
      <trkpt lat="45.31767" lon="3.96272">
        <ele>868</ele>
        <time>2021-04-15T09:39:23Z</time>
      </trkpt>
      <trkpt lat="45.31761" lon="3.96267">
        <ele>868</ele>
        <time>2021-04-15T09:39:24Z</time>
      </trkpt>
      <trkpt lat="45.31756" lon="3.96269">
        <ele>868</ele>
        <time>2021-04-15T09:39:26Z</time>
      </trkpt>
      <trkpt lat="45.31753" lon="3.96271">
        <ele>869</ele>
        <time>2021-04-15T09:39:28Z</time>
      </trkpt>
      <trkpt lat="45.3175" lon="3.96274">
        <ele>869</ele>
        <time>2021-04-15T09:39:29Z</time>
      </trkpt>
      <trkpt lat="45.31747" lon="3.96276">
        <ele>869</ele>
        <time>2021-04-15T09:39:30Z</time>
      </trkpt>
      <trkpt lat="45.31744" lon="3.96278">
        <ele>869</ele>
        <time>2021-04-15T09:39:31Z</time>
      </trkpt>
      <trkpt lat="45.31741" lon="3.9628">
        <ele>869</ele>
        <time>2021-04-15T09:39:32Z</time>
      </trkpt>
      <trkpt lat="45.31739" lon="3.96281">
        <ele>869</ele>
        <time>2021-04-15T09:39:33Z</time>
      </trkpt>
      <trkpt lat="45.31736" lon="3.96283">
        <ele>870</ele>
        <time>2021-04-15T09:39:34Z</time>
      </trkpt>
      <trkpt lat="45.31733" lon="3.96285">
        <ele>870</ele>
        <time>2021-04-15T09:39:35Z</time>
      </trkpt>
      <trkpt lat="45.3173" lon="3.96286">
        <ele>870</ele>
        <time>2021-04-15T09:39:36Z</time>
      </trkpt>
      <trkpt lat="45.31728" lon="3.96288">
        <ele>870</ele>
        <time>2021-04-15T09:39:37Z</time>
      </trkpt>
      <trkpt lat="45.31725" lon="3.96289">
        <ele>870</ele>
        <time>2021-04-15T09:39:38Z</time>
      </trkpt>
      <trkpt lat="45.31723" lon="3.9629">
        <ele>871</ele>
        <time>2021-04-15T09:39:39Z</time>
      </trkpt>
      <trkpt lat="45.3172" lon="3.96292">
        <ele>871</ele>
        <time>2021-04-15T09:39:40Z</time>
      </trkpt>
      <trkpt lat="45.31717" lon="3.96293">
        <ele>871</ele>
        <time>2021-04-15T09:39:41Z</time>
      </trkpt>
      <trkpt lat="45.31715" lon="3.96295">
        <ele>871</ele>
        <time>2021-04-15T09:39:42Z</time>
      </trkpt>
      <trkpt lat="45.31712" lon="3.96297">
        <ele>872</ele>
        <time>2021-04-15T09:39:43Z</time>
      </trkpt>
      <trkpt lat="45.31709" lon="3.96298">
        <ele>872</ele>
        <time>2021-04-15T09:39:44Z</time>
      </trkpt>
      <trkpt lat="45.31704" lon="3.96301">
        <ele>872</ele>
        <time>2021-04-15T09:39:45Z</time>
      </trkpt>
      <trkpt lat="45.31701" lon="3.96303">
        <ele>873</ele>
        <time>2021-04-15T09:39:47Z</time>
      </trkpt>
      <trkpt lat="45.31698" lon="3.96304">
        <ele>873</ele>
        <time>2021-04-15T09:39:48Z</time>
      </trkpt>
      <trkpt lat="45.31695" lon="3.96306">
        <ele>873</ele>
        <time>2021-04-15T09:39:49Z</time>
      </trkpt>
      <trkpt lat="45.31692" lon="3.96308">
        <ele>874</ele>
        <time>2021-04-15T09:39:50Z</time>
      </trkpt>
      <trkpt lat="45.31689" lon="3.9631">
        <ele>874</ele>
        <time>2021-04-15T09:39:51Z</time>
      </trkpt>
      <trkpt lat="45.31686" lon="3.96312">
        <ele>875</ele>
        <time>2021-04-15T09:39:52Z</time>
      </trkpt>
      <trkpt lat="45.31683" lon="3.96314">
        <ele>875</ele>
        <time>2021-04-15T09:39:53Z</time>
      </trkpt>
      <trkpt lat="45.31679" lon="3.96316">
        <ele>875</ele>
        <time>2021-04-15T09:39:54Z</time>
      </trkpt>
      <trkpt lat="45.31676" lon="3.96319">
        <ele>876</ele>
        <time>2021-04-15T09:39:55Z</time>
      </trkpt>
      <trkpt lat="45.31668" lon="3.96322">
        <ele>876</ele>
        <time>2021-04-15T09:39:56Z</time>
      </trkpt>
      <trkpt lat="45.31665" lon="3.96324">
        <ele>877</ele>
        <time>2021-04-15T09:39:58Z</time>
      </trkpt>
      <trkpt lat="45.31661" lon="3.96325">
        <ele>877</ele>
        <time>2021-04-15T09:39:59Z</time>
      </trkpt>
      <trkpt lat="45.31657" lon="3.96327">
        <ele>877</ele>
        <time>2021-04-15T09:40:00Z</time>
      </trkpt>
      <trkpt lat="45.31653" lon="3.96329">
        <ele>877</ele>
        <time>2021-04-15T09:40:01Z</time>
      </trkpt>
      <trkpt lat="45.3165" lon="3.9633">
        <ele>878</ele>
        <time>2021-04-15T09:40:02Z</time>
      </trkpt>
      <trkpt lat="45.31645" lon="3.96332">
        <ele>878</ele>
        <time>2021-04-15T09:40:03Z</time>
      </trkpt>
      <trkpt lat="45.31637" lon="3.96335">
        <ele>878</ele>
        <time>2021-04-15T09:40:04Z</time>
      </trkpt>
      <trkpt lat="45.31633" lon="3.96337">
        <ele>878</ele>
        <time>2021-04-15T09:40:06Z</time>
      </trkpt>
      <trkpt lat="45.31629" lon="3.96338">
        <ele>879</ele>
        <time>2021-04-15T09:40:07Z</time>
      </trkpt>
      <trkpt lat="45.31625" lon="3.9634">
        <ele>879</ele>
        <time>2021-04-15T09:40:08Z</time>
      </trkpt>
      <trkpt lat="45.31621" lon="3.96341">
        <ele>879</ele>
        <time>2021-04-15T09:40:09Z</time>
      </trkpt>
      <trkpt lat="45.31616" lon="3.96343">
        <ele>879</ele>
        <time>2021-04-15T09:40:10Z</time>
      </trkpt>
      <trkpt lat="45.31612" lon="3.96345">
        <ele>880</ele>
        <time>2021-04-15T09:40:11Z</time>
      </trkpt>
      <trkpt lat="45.31607" lon="3.96346">
        <ele>880</ele>
        <time>2021-04-15T09:40:12Z</time>
      </trkpt>
      <trkpt lat="45.31603" lon="3.96348">
        <ele>880</ele>
        <time>2021-04-15T09:40:13Z</time>
      </trkpt>
      <trkpt lat="45.31598" lon="3.9635">
        <ele>880</ele>
        <time>2021-04-15T09:40:14Z</time>
      </trkpt>
      <trkpt lat="45.31594" lon="3.96352">
        <ele>881</ele>
        <time>2021-04-15T09:40:15Z</time>
      </trkpt>
      <trkpt lat="45.31589" lon="3.96353">
        <ele>881</ele>
        <time>2021-04-15T09:40:16Z</time>
      </trkpt>
      <trkpt lat="45.31585" lon="3.96355">
        <ele>881</ele>
        <time>2021-04-15T09:40:17Z</time>
      </trkpt>
      <trkpt lat="45.31581" lon="3.96356">
        <ele>881</ele>
        <time>2021-04-15T09:40:18Z</time>
      </trkpt>
      <trkpt lat="45.31576" lon="3.96358">
        <ele>881</ele>
        <time>2021-04-15T09:40:19Z</time>
      </trkpt>
      <trkpt lat="45.31571" lon="3.96359">
        <ele>881</ele>
        <time>2021-04-15T09:40:20Z</time>
      </trkpt>
      <trkpt lat="45.31567" lon="3.9636">
        <ele>882</ele>
        <time>2021-04-15T09:40:21Z</time>
      </trkpt>
      <trkpt lat="45.31563" lon="3.96361">
        <ele>882</ele>
        <time>2021-04-15T09:40:22Z</time>
      </trkpt>
      <trkpt lat="45.31554" lon="3.96364">
        <ele>882</ele>
        <time>2021-04-15T09:40:23Z</time>
      </trkpt>
      <trkpt lat="45.3155" lon="3.96365">
        <ele>882</ele>
        <time>2021-04-15T09:40:25Z</time>
      </trkpt>
      <trkpt lat="45.31545" lon="3.96366">
        <ele>882</ele>
        <time>2021-04-15T09:40:26Z</time>
      </trkpt>
      <trkpt lat="45.3154" lon="3.96367">
        <ele>883</ele>
        <time>2021-04-15T09:40:27Z</time>
      </trkpt>
      <trkpt lat="45.31536" lon="3.96368">
        <ele>883</ele>
        <time>2021-04-15T09:40:28Z</time>
      </trkpt>
      <trkpt lat="45.31531" lon="3.96369">
        <ele>883</ele>
        <time>2021-04-15T09:40:29Z</time>
      </trkpt>
      <trkpt lat="45.31522" lon="3.96371">
        <ele>883</ele>
        <time>2021-04-15T09:40:30Z</time>
      </trkpt>
      <trkpt lat="45.31518" lon="3.96371">
        <ele>883</ele>
        <time>2021-04-15T09:40:32Z</time>
      </trkpt>
      <trkpt lat="45.31513" lon="3.96372">
        <ele>884</ele>
        <time>2021-04-15T09:40:33Z</time>
      </trkpt>
      <trkpt lat="45.31508" lon="3.96373">
        <ele>884</ele>
        <time>2021-04-15T09:40:34Z</time>
      </trkpt>
      <trkpt lat="45.31503" lon="3.96374">
        <ele>884</ele>
        <time>2021-04-15T09:40:35Z</time>
      </trkpt>
      <trkpt lat="45.31498" lon="3.96374">
        <ele>884</ele>
        <time>2021-04-15T09:40:36Z</time>
      </trkpt>
      <trkpt lat="45.31493" lon="3.96375">
        <ele>884</ele>
        <time>2021-04-15T09:40:37Z</time>
      </trkpt>
      <trkpt lat="45.31489" lon="3.96375">
        <ele>884</ele>
        <time>2021-04-15T09:40:38Z</time>
      </trkpt>
      <trkpt lat="45.31484" lon="3.96376">
        <ele>885</ele>
        <time>2021-04-15T09:40:39Z</time>
      </trkpt>
      <trkpt lat="45.3148" lon="3.96376">
        <ele>885</ele>
        <time>2021-04-15T09:40:40Z</time>
      </trkpt>
      <trkpt lat="45.3147" lon="3.96377">
        <ele>885</ele>
        <time>2021-04-15T09:40:41Z</time>
      </trkpt>
      <trkpt lat="45.31465" lon="3.96377">
        <ele>885</ele>
        <time>2021-04-15T09:40:42Z</time>
      </trkpt>
      <trkpt lat="45.3146" lon="3.96377">
        <ele>886</ele>
        <time>2021-04-15T09:40:44Z</time>
      </trkpt>
      <trkpt lat="45.31455" lon="3.96377">
        <ele>886</ele>
        <time>2021-04-15T09:40:45Z</time>
      </trkpt>
      <trkpt lat="45.3145" lon="3.96377">
        <ele>886</ele>
        <time>2021-04-15T09:40:46Z</time>
      </trkpt>
      <trkpt lat="45.31445" lon="3.96377">
        <ele>886</ele>
        <time>2021-04-15T09:40:47Z</time>
      </trkpt>
      <trkpt lat="45.31441" lon="3.96377">
        <ele>887</ele>
        <time>2021-04-15T09:40:48Z</time>
      </trkpt>
      <trkpt lat="45.31436" lon="3.96376">
        <ele>887</ele>
        <time>2021-04-15T09:40:49Z</time>
      </trkpt>
      <trkpt lat="45.31431" lon="3.96375">
        <ele>887</ele>
        <time>2021-04-15T09:40:50Z</time>
      </trkpt>
      <trkpt lat="45.31421" lon="3.96374">
        <ele>887</ele>
        <time>2021-04-15T09:40:51Z</time>
      </trkpt>
      <trkpt lat="45.31416" lon="3.96374">
        <ele>888</ele>
        <time>2021-04-15T09:40:53Z</time>
      </trkpt>
      <trkpt lat="45.31411" lon="3.96373">
        <ele>888</ele>
        <time>2021-04-15T09:40:54Z</time>
      </trkpt>
      <trkpt lat="45.31407" lon="3.96373">
        <ele>888</ele>
        <time>2021-04-15T09:40:55Z</time>
      </trkpt>
      <trkpt lat="45.31402" lon="3.96373">
        <ele>889</ele>
        <time>2021-04-15T09:40:56Z</time>
      </trkpt>
      <trkpt lat="45.31398" lon="3.96372">
        <ele>889</ele>
        <time>2021-04-15T09:40:57Z</time>
      </trkpt>
      <trkpt lat="45.31393" lon="3.96372">
        <ele>889</ele>
        <time>2021-04-15T09:40:58Z</time>
      </trkpt>
      <trkpt lat="45.31388" lon="3.96371">
        <ele>889</ele>
        <time>2021-04-15T09:40:59Z</time>
      </trkpt>
      <trkpt lat="45.31383" lon="3.96371">
        <ele>890</ele>
        <time>2021-04-15T09:41:00Z</time>
      </trkpt>
      <trkpt lat="45.31378" lon="3.9637">
        <ele>890</ele>
        <time>2021-04-15T09:41:01Z</time>
      </trkpt>
      <trkpt lat="45.31373" lon="3.9637">
        <ele>890</ele>
        <time>2021-04-15T09:41:02Z</time>
      </trkpt>
      <trkpt lat="45.31368" lon="3.9637">
        <ele>891</ele>
        <time>2021-04-15T09:41:03Z</time>
      </trkpt>
      <trkpt lat="45.31363" lon="3.96371">
        <ele>891</ele>
        <time>2021-04-15T09:41:04Z</time>
      </trkpt>
      <trkpt lat="45.31358" lon="3.96371">
        <ele>891</ele>
        <time>2021-04-15T09:41:05Z</time>
      </trkpt>
      <trkpt lat="45.31353" lon="3.96372">
        <ele>891</ele>
        <time>2021-04-15T09:41:06Z</time>
      </trkpt>
      <trkpt lat="45.31348" lon="3.96372">
        <ele>892</ele>
        <time>2021-04-15T09:41:07Z</time>
      </trkpt>
      <trkpt lat="45.31343" lon="3.96372">
        <ele>892</ele>
        <time>2021-04-15T09:41:08Z</time>
      </trkpt>
      <trkpt lat="45.31338" lon="3.96373">
        <ele>892</ele>
        <time>2021-04-15T09:41:09Z</time>
      </trkpt>
      <trkpt lat="45.31333" lon="3.96374">
        <ele>893</ele>
        <time>2021-04-15T09:41:10Z</time>
      </trkpt>
      <trkpt lat="45.31328" lon="3.96375">
        <ele>893</ele>
        <time>2021-04-15T09:41:11Z</time>
      </trkpt>
      <trkpt lat="45.31323" lon="3.96376">
        <ele>893</ele>
        <time>2021-04-15T09:41:12Z</time>
      </trkpt>
      <trkpt lat="45.31318" lon="3.96377">
        <ele>893</ele>
        <time>2021-04-15T09:41:13Z</time>
      </trkpt>
      <trkpt lat="45.31313" lon="3.96378">
        <ele>894</ele>
        <time>2021-04-15T09:41:14Z</time>
      </trkpt>
      <trkpt lat="45.31307" lon="3.96379">
        <ele>894</ele>
        <time>2021-04-15T09:41:15Z</time>
      </trkpt>
      <trkpt lat="45.31302" lon="3.96379">
        <ele>894</ele>
        <time>2021-04-15T09:41:16Z</time>
      </trkpt>
      <trkpt lat="45.31297" lon="3.9638">
        <ele>894</ele>
        <time>2021-04-15T09:41:17Z</time>
      </trkpt>
      <trkpt lat="45.31291" lon="3.9638">
        <ele>895</ele>
        <time>2021-04-15T09:41:18Z</time>
      </trkpt>
      <trkpt lat="45.31286" lon="3.96381">
        <ele>895</ele>
        <time>2021-04-15T09:41:19Z</time>
      </trkpt>
      <trkpt lat="45.31275" lon="3.96381">
        <ele>895</ele>
        <time>2021-04-15T09:41:20Z</time>
      </trkpt>
      <trkpt lat="45.3127" lon="3.96382">
        <ele>895</ele>
        <time>2021-04-15T09:41:21Z</time>
      </trkpt>
      <trkpt lat="45.31264" lon="3.96382">
        <ele>896</ele>
        <time>2021-04-15T09:41:23Z</time>
      </trkpt>
      <trkpt lat="45.31259" lon="3.96382">
        <ele>896</ele>
        <time>2021-04-15T09:41:24Z</time>
      </trkpt>
      <trkpt lat="45.31255" lon="3.96382">
        <ele>896</ele>
        <time>2021-04-15T09:41:25Z</time>
      </trkpt>
      <trkpt lat="45.31251" lon="3.96382">
        <ele>896</ele>
        <time>2021-04-15T09:41:26Z</time>
      </trkpt>
      <trkpt lat="45.31246" lon="3.96382">
        <ele>897</ele>
        <time>2021-04-15T09:41:27Z</time>
      </trkpt>
      <trkpt lat="45.31242" lon="3.96381">
        <ele>897</ele>
        <time>2021-04-15T09:41:28Z</time>
      </trkpt>
      <trkpt lat="45.31237" lon="3.96381">
        <ele>897</ele>
        <time>2021-04-15T09:41:29Z</time>
      </trkpt>
      <trkpt lat="45.31233" lon="3.96381">
        <ele>897</ele>
        <time>2021-04-15T09:41:30Z</time>
      </trkpt>
      <trkpt lat="45.31223" lon="3.9638">
        <ele>897</ele>
        <time>2021-04-15T09:41:31Z</time>
      </trkpt>
      <trkpt lat="45.31218" lon="3.96379">
        <ele>897</ele>
        <time>2021-04-15T09:41:33Z</time>
      </trkpt>
      <trkpt lat="45.31214" lon="3.96378">
        <ele>897</ele>
        <time>2021-04-15T09:41:34Z</time>
      </trkpt>
      <trkpt lat="45.3121" lon="3.96376">
        <ele>897</ele>
        <time>2021-04-15T09:41:35Z</time>
      </trkpt>
      <trkpt lat="45.31205" lon="3.96375">
        <ele>898</ele>
        <time>2021-04-15T09:41:36Z</time>
      </trkpt>
      <trkpt lat="45.312" lon="3.96373">
        <ele>898</ele>
        <time>2021-04-15T09:41:37Z</time>
      </trkpt>
      <trkpt lat="45.31196" lon="3.96371">
        <ele>898</ele>
        <time>2021-04-15T09:41:38Z</time>
      </trkpt>
      <trkpt lat="45.31187" lon="3.96367">
        <ele>898</ele>
        <time>2021-04-15T09:41:39Z</time>
      </trkpt>
      <trkpt lat="45.31182" lon="3.96366">
        <ele>898</ele>
        <time>2021-04-15T09:41:41Z</time>
      </trkpt>
      <trkpt lat="45.31178" lon="3.96364">
        <ele>898</ele>
        <time>2021-04-15T09:41:42Z</time>
      </trkpt>
      <trkpt lat="45.31174" lon="3.96364">
        <ele>898</ele>
        <time>2021-04-15T09:41:43Z</time>
      </trkpt>
      <trkpt lat="45.3117" lon="3.96363">
        <ele>898</ele>
        <time>2021-04-15T09:41:44Z</time>
      </trkpt>
      <trkpt lat="45.31166" lon="3.96362">
        <ele>898</ele>
        <time>2021-04-15T09:41:45Z</time>
      </trkpt>
      <trkpt lat="45.31162" lon="3.96362">
        <ele>898</ele>
        <time>2021-04-15T09:41:46Z</time>
      </trkpt>
      <trkpt lat="45.31158" lon="3.96361">
        <ele>898</ele>
        <time>2021-04-15T09:41:47Z</time>
      </trkpt>
      <trkpt lat="45.31155" lon="3.9636">
        <ele>898</ele>
        <time>2021-04-15T09:41:48Z</time>
      </trkpt>
      <trkpt lat="45.31153" lon="3.96359">
        <ele>898</ele>
        <time>2021-04-15T09:41:49Z</time>
      </trkpt>
      <trkpt lat="45.31151" lon="3.96361">
        <ele>898</ele>
        <time>2021-04-15T09:41:51Z</time>
      </trkpt>
      <trkpt lat="45.31149" lon="3.96365">
        <ele>899</ele>
        <time>2021-04-15T09:41:53Z</time>
      </trkpt>
      <trkpt lat="45.31149" lon="3.96368">
        <ele>899</ele>
        <time>2021-04-15T09:41:54Z</time>
      </trkpt>
      <trkpt lat="45.31149" lon="3.96373">
        <ele>899</ele>
        <time>2021-04-15T09:41:55Z</time>
      </trkpt>
      <trkpt lat="45.31149" lon="3.96379">
        <ele>899</ele>
        <time>2021-04-15T09:41:56Z</time>
      </trkpt>
      <trkpt lat="45.31149" lon="3.96384">
        <ele>899</ele>
        <time>2021-04-15T09:41:57Z</time>
      </trkpt>
      <trkpt lat="45.31148" lon="3.96389">
        <ele>899</ele>
        <time>2021-04-15T09:41:58Z</time>
      </trkpt>
      <trkpt lat="45.31144" lon="3.96399">
        <ele>899</ele>
        <time>2021-04-15T09:41:59Z</time>
      </trkpt>
      <trkpt lat="45.31142" lon="3.96404">
        <ele>899</ele>
        <time>2021-04-15T09:42:01Z</time>
      </trkpt>
      <trkpt lat="45.3114" lon="3.9641">
        <ele>899</ele>
        <time>2021-04-15T09:42:02Z</time>
      </trkpt>
      <trkpt lat="45.31138" lon="3.96415">
        <ele>899</ele>
        <time>2021-04-15T09:42:03Z</time>
      </trkpt>
      <trkpt lat="45.31137" lon="3.96421">
        <ele>899</ele>
        <time>2021-04-15T09:42:04Z</time>
      </trkpt>
      <trkpt lat="45.31136" lon="3.96427">
        <ele>899</ele>
        <time>2021-04-15T09:42:05Z</time>
      </trkpt>
      <trkpt lat="45.31136" lon="3.96432">
        <ele>899</ele>
        <time>2021-04-15T09:42:06Z</time>
      </trkpt>
      <trkpt lat="45.31135" lon="3.96444">
        <ele>899</ele>
        <time>2021-04-15T09:42:07Z</time>
      </trkpt>
      <trkpt lat="45.31135" lon="3.9645">
        <ele>899</ele>
        <time>2021-04-15T09:42:09Z</time>
      </trkpt>
      <trkpt lat="45.31135" lon="3.96463">
        <ele>899</ele>
        <time>2021-04-15T09:42:10Z</time>
      </trkpt>
      <trkpt lat="45.31135" lon="3.9647">
        <ele>899</ele>
        <time>2021-04-15T09:42:12Z</time>
      </trkpt>
      <trkpt lat="45.31135" lon="3.96477">
        <ele>899</ele>
        <time>2021-04-15T09:42:13Z</time>
      </trkpt>
      <trkpt lat="45.31136" lon="3.96484">
        <ele>899</ele>
        <time>2021-04-15T09:42:14Z</time>
      </trkpt>
      <trkpt lat="45.31136" lon="3.96491">
        <ele>899</ele>
        <time>2021-04-15T09:42:15Z</time>
      </trkpt>
      <trkpt lat="45.31136" lon="3.96498">
        <ele>899</ele>
        <time>2021-04-15T09:42:16Z</time>
      </trkpt>
      <trkpt lat="45.31137" lon="3.96512">
        <ele>899</ele>
        <time>2021-04-15T09:42:17Z</time>
      </trkpt>
      <trkpt lat="45.31138" lon="3.96519">
        <ele>900</ele>
        <time>2021-04-15T09:42:19Z</time>
      </trkpt>
      <trkpt lat="45.31139" lon="3.96526">
        <ele>900</ele>
        <time>2021-04-15T09:42:20Z</time>
      </trkpt>
      <trkpt lat="45.31141" lon="3.96541">
        <ele>900</ele>
        <time>2021-04-15T09:42:21Z</time>
      </trkpt>
      <trkpt lat="45.31143" lon="3.96548">
        <ele>900</ele>
        <time>2021-04-15T09:42:23Z</time>
      </trkpt>
      <trkpt lat="45.31144" lon="3.96555">
        <ele>900</ele>
        <time>2021-04-15T09:42:24Z</time>
      </trkpt>
      <trkpt lat="45.31146" lon="3.96561">
        <ele>900</ele>
        <time>2021-04-15T09:42:25Z</time>
      </trkpt>
      <trkpt lat="45.31147" lon="3.96568">
        <ele>900</ele>
        <time>2021-04-15T09:42:26Z</time>
      </trkpt>
      <trkpt lat="45.31149" lon="3.96575">
        <ele>900</ele>
        <time>2021-04-15T09:42:27Z</time>
      </trkpt>
      <trkpt lat="45.3115" lon="3.96582">
        <ele>901</ele>
        <time>2021-04-15T09:42:28Z</time>
      </trkpt>
      <trkpt lat="45.31151" lon="3.96589">
        <ele>901</ele>
        <time>2021-04-15T09:42:29Z</time>
      </trkpt>
      <trkpt lat="45.31151" lon="3.96596">
        <ele>901</ele>
        <time>2021-04-15T09:42:30Z</time>
      </trkpt>
      <trkpt lat="45.31151" lon="3.96609">
        <ele>902</ele>
        <time>2021-04-15T09:42:31Z</time>
      </trkpt>
      <trkpt lat="45.3115" lon="3.96615">
        <ele>902</ele>
        <time>2021-04-15T09:42:33Z</time>
      </trkpt>
      <trkpt lat="45.31148" lon="3.96622">
        <ele>902</ele>
        <time>2021-04-15T09:42:34Z</time>
      </trkpt>
      <trkpt lat="45.31146" lon="3.96628">
        <ele>902</ele>
        <time>2021-04-15T09:42:35Z</time>
      </trkpt>
      <trkpt lat="45.3114" lon="3.96638">
        <ele>902</ele>
        <time>2021-04-15T09:42:36Z</time>
      </trkpt>
      <trkpt lat="45.31137" lon="3.96643">
        <ele>902</ele>
        <time>2021-04-15T09:42:38Z</time>
      </trkpt>
      <trkpt lat="45.31134" lon="3.96648">
        <ele>901</ele>
        <time>2021-04-15T09:42:39Z</time>
      </trkpt>
      <trkpt lat="45.3113" lon="3.96653">
        <ele>901</ele>
        <time>2021-04-15T09:42:40Z</time>
      </trkpt>
      <trkpt lat="45.31127" lon="3.96658">
        <ele>901</ele>
        <time>2021-04-15T09:42:41Z</time>
      </trkpt>
      <trkpt lat="45.31123" lon="3.96664">
        <ele>901</ele>
        <time>2021-04-15T09:42:42Z</time>
      </trkpt>
      <trkpt lat="45.3112" lon="3.9667">
        <ele>901</ele>
        <time>2021-04-15T09:42:43Z</time>
      </trkpt>
      <trkpt lat="45.31117" lon="3.96675">
        <ele>901</ele>
        <time>2021-04-15T09:42:44Z</time>
      </trkpt>
      <trkpt lat="45.31114" lon="3.9668">
        <ele>901</ele>
        <time>2021-04-15T09:42:45Z</time>
      </trkpt>
      <trkpt lat="45.3111" lon="3.96685">
        <ele>901</ele>
        <time>2021-04-15T09:42:46Z</time>
      </trkpt>
      <trkpt lat="45.31106" lon="3.9669">
        <ele>901</ele>
        <time>2021-04-15T09:42:47Z</time>
      </trkpt>
      <trkpt lat="45.31102" lon="3.96695">
        <ele>901</ele>
        <time>2021-04-15T09:42:48Z</time>
      </trkpt>
      <trkpt lat="45.31097" lon="3.967">
        <ele>901</ele>
        <time>2021-04-15T09:42:49Z</time>
      </trkpt>
      <trkpt lat="45.31092" lon="3.96705">
        <ele>901</ele>
        <time>2021-04-15T09:42:50Z</time>
      </trkpt>
      <trkpt lat="45.31087" lon="3.96709">
        <ele>901</ele>
        <time>2021-04-15T09:42:51Z</time>
      </trkpt>
      <trkpt lat="45.31083" lon="3.96715">
        <ele>901</ele>
        <time>2021-04-15T09:42:52Z</time>
      </trkpt>
      <trkpt lat="45.31079" lon="3.96722">
        <ele>901</ele>
        <time>2021-04-15T09:42:53Z</time>
      </trkpt>
      <trkpt lat="45.31076" lon="3.96731">
        <ele>901</ele>
        <time>2021-04-15T09:42:54Z</time>
      </trkpt>
      <trkpt lat="45.31072" lon="3.96749">
        <ele>900</ele>
        <time>2021-04-15T09:42:55Z</time>
      </trkpt>
      <trkpt lat="45.31071" lon="3.96758">
        <ele>900</ele>
        <time>2021-04-15T09:42:57Z</time>
      </trkpt>
      <trkpt lat="45.31067" lon="3.96776">
        <ele>900</ele>
        <time>2021-04-15T09:42:58Z</time>
      </trkpt>
      <trkpt lat="45.31067" lon="3.96785">
        <ele>899</ele>
        <time>2021-04-15T09:43:00Z</time>
      </trkpt>
      <trkpt lat="45.31067" lon="3.96795">
        <ele>899</ele>
        <time>2021-04-15T09:43:01Z</time>
      </trkpt>
      <trkpt lat="45.31067" lon="3.96804">
        <ele>898</ele>
        <time>2021-04-15T09:43:02Z</time>
      </trkpt>
      <trkpt lat="45.31068" lon="3.96814">
        <ele>898</ele>
        <time>2021-04-15T09:43:03Z</time>
      </trkpt>
      <trkpt lat="45.31068" lon="3.96823">
        <ele>898</ele>
        <time>2021-04-15T09:43:04Z</time>
      </trkpt>
      <trkpt lat="45.31068" lon="3.96832">
        <ele>898</ele>
        <time>2021-04-15T09:43:05Z</time>
      </trkpt>
      <trkpt lat="45.31069" lon="3.96841">
        <ele>897</ele>
        <time>2021-04-15T09:43:06Z</time>
      </trkpt>
      <trkpt lat="45.3107" lon="3.9685">
        <ele>897</ele>
        <time>2021-04-15T09:43:07Z</time>
      </trkpt>
      <trkpt lat="45.31072" lon="3.96859">
        <ele>896</ele>
        <time>2021-04-15T09:43:08Z</time>
      </trkpt>
      <trkpt lat="45.31073" lon="3.96869">
        <ele>896</ele>
        <time>2021-04-15T09:43:09Z</time>
      </trkpt>
      <trkpt lat="45.31075" lon="3.9688">
        <ele>895</ele>
        <time>2021-04-15T09:43:10Z</time>
      </trkpt>
      <trkpt lat="45.31076" lon="3.96891">
        <ele>895</ele>
        <time>2021-04-15T09:43:11Z</time>
      </trkpt>
      <trkpt lat="45.31075" lon="3.96903">
        <ele>894</ele>
        <time>2021-04-15T09:43:12Z</time>
      </trkpt>
      <trkpt lat="45.31073" lon="3.96915">
        <ele>893</ele>
        <time>2021-04-15T09:43:13Z</time>
      </trkpt>
      <trkpt lat="45.3107" lon="3.9694">
        <ele>893</ele>
        <time>2021-04-15T09:43:14Z</time>
      </trkpt>
      <trkpt lat="45.31067" lon="3.96954">
        <ele>890</ele>
        <time>2021-04-15T09:43:16Z</time>
      </trkpt>
      <trkpt lat="45.31065" lon="3.96967">
        <ele>890</ele>
        <time>2021-04-15T09:43:17Z</time>
      </trkpt>
      <trkpt lat="45.31061" lon="3.96981">
        <ele>889</ele>
        <time>2021-04-15T09:43:18Z</time>
      </trkpt>
      <trkpt lat="45.31058" lon="3.96994">
        <ele>888</ele>
        <time>2021-04-15T09:43:19Z</time>
      </trkpt>
      <trkpt lat="45.31055" lon="3.97009">
        <ele>887</ele>
        <time>2021-04-15T09:43:20Z</time>
      </trkpt>
      <trkpt lat="45.31052" lon="3.97023">
        <ele>886</ele>
        <time>2021-04-15T09:43:21Z</time>
      </trkpt>
      <trkpt lat="45.31049" lon="3.97039">
        <ele>885</ele>
        <time>2021-04-15T09:43:22Z</time>
      </trkpt>
      <trkpt lat="45.31045" lon="3.9707">
        <ele>884</ele>
        <time>2021-04-15T09:43:23Z</time>
      </trkpt>
      <trkpt lat="45.31043" lon="3.97086">
        <ele>879</ele>
        <time>2021-04-15T09:43:25Z</time>
      </trkpt>
      <trkpt lat="45.31042" lon="3.971">
        <ele>877</ele>
        <time>2021-04-15T09:43:26Z</time>
      </trkpt>
      <trkpt lat="45.31041" lon="3.97126">
        <ele>875</ele>
        <time>2021-04-15T09:43:27Z</time>
      </trkpt>
      <trkpt lat="45.31041" lon="3.97139">
        <ele>873</ele>
        <time>2021-04-15T09:43:29Z</time>
      </trkpt>
      <trkpt lat="45.31041" lon="3.97152">
        <ele>872</ele>
        <time>2021-04-15T09:43:30Z</time>
      </trkpt>
      <trkpt lat="45.3104" lon="3.97166">
        <ele>871</ele>
        <time>2021-04-15T09:43:31Z</time>
      </trkpt>
      <trkpt lat="45.31037" lon="3.9718">
        <ele>870</ele>
        <time>2021-04-15T09:43:32Z</time>
      </trkpt>
      <trkpt lat="45.31032" lon="3.97193">
        <ele>870</ele>
        <time>2021-04-15T09:43:33Z</time>
      </trkpt>
      <trkpt lat="45.31026" lon="3.97204">
        <ele>869</ele>
        <time>2021-04-15T09:43:34Z</time>
      </trkpt>
      <trkpt lat="45.3102" lon="3.97215">
        <ele>868</ele>
        <time>2021-04-15T09:43:35Z</time>
      </trkpt>
      <trkpt lat="45.31015" lon="3.97226">
        <ele>866</ele>
        <time>2021-04-15T09:43:36Z</time>
      </trkpt>
      <trkpt lat="45.31011" lon="3.97238">
        <ele>865</ele>
        <time>2021-04-15T09:43:37Z</time>
      </trkpt>
      <trkpt lat="45.31009" lon="3.97248">
        <ele>864</ele>
        <time>2021-04-15T09:43:38Z</time>
      </trkpt>
      <trkpt lat="45.31003" lon="3.97268">
        <ele>863</ele>
        <time>2021-04-15T09:43:40Z</time>
      </trkpt>
      <trkpt lat="45.30991" lon="3.97288">
        <ele>861</ele>
        <time>2021-04-15T09:43:42Z</time>
      </trkpt>
      <trkpt lat="45.30982" lon="3.97298">
        <ele>860</ele>
        <time>2021-04-15T09:43:43Z</time>
      </trkpt>
      <trkpt lat="45.30966" lon="3.97313">
        <ele>859</ele>
        <time>2021-04-15T09:43:44Z</time>
      </trkpt>
      <trkpt lat="45.30957" lon="3.9732">
        <ele>857</ele>
        <time>2021-04-15T09:43:46Z</time>
      </trkpt>
      <trkpt lat="45.30947" lon="3.97336">
        <ele>856</ele>
        <time>2021-04-15T09:43:48Z</time>
      </trkpt>
      <trkpt lat="45.30941" lon="3.97355">
        <ele>853</ele>
        <time>2021-04-15T09:43:50Z</time>
      </trkpt>
      <trkpt lat="45.30939" lon="3.97371">
        <ele>850</ele>
        <time>2021-04-15T09:43:52Z</time>
      </trkpt>
      <trkpt lat="45.30933" lon="3.97384">
        <ele>848</ele>
        <time>2021-04-15T09:43:55Z</time>
      </trkpt>
      <trkpt lat="45.30925" lon="3.97388">
        <ele>846</ele>
        <time>2021-04-15T09:43:58Z</time>
      </trkpt>
      <trkpt lat="45.30916" lon="3.97393">
        <ele>845</ele>
        <time>2021-04-15T09:44:01Z</time>
      </trkpt>
      <trkpt lat="45.30906" lon="3.97403">
        <ele>843</ele>
        <time>2021-04-15T09:44:04Z</time>
      </trkpt>
      <trkpt lat="45.30896" lon="3.97418">
        <ele>843</ele>
        <time>2021-04-15T09:44:06Z</time>
      </trkpt>
      <trkpt lat="45.3089" lon="3.97428">
        <ele>842</ele>
        <time>2021-04-15T09:44:08Z</time>
      </trkpt>
      <trkpt lat="45.30882" lon="3.97436">
        <ele>842</ele>
        <time>2021-04-15T09:44:10Z</time>
      </trkpt>
      <trkpt lat="45.30874" lon="3.9745">
        <ele>841</ele>
        <time>2021-04-15T09:44:13Z</time>
      </trkpt>
      <trkpt lat="45.30865" lon="3.97463">
        <ele>840</ele>
        <time>2021-04-15T09:44:15Z</time>
      </trkpt>
      <trkpt lat="45.30857" lon="3.97475">
        <ele>840</ele>
        <time>2021-04-15T09:44:17Z</time>
      </trkpt>
      <trkpt lat="45.30852" lon="3.97488">
        <ele>839</ele>
        <time>2021-04-15T09:44:19Z</time>
      </trkpt>
      <trkpt lat="45.30849" lon="3.97501">
        <ele>837</ele>
        <time>2021-04-15T09:44:22Z</time>
      </trkpt>
      <trkpt lat="45.3085" lon="3.97514">
        <ele>835</ele>
        <time>2021-04-15T09:44:27Z</time>
      </trkpt>
      <trkpt lat="45.30848" lon="3.97526">
        <ele>834</ele>
        <time>2021-04-15T09:44:30Z</time>
      </trkpt>
      <trkpt lat="45.3084" lon="3.97534">
        <ele>834</ele>
        <time>2021-04-15T09:44:35Z</time>
      </trkpt>
      <trkpt lat="45.30834" lon="3.97538">
        <ele>834</ele>
        <time>2021-04-15T09:44:39Z</time>
      </trkpt>
      <trkpt lat="45.30831" lon="3.97539">
        <ele>835</ele>
        <time>2021-04-15T09:44:40Z</time>
      </trkpt>
      <trkpt lat="45.30821" lon="3.97544">
        <ele>836</ele>
        <time>2021-04-15T09:44:44Z</time>
      </trkpt>
      <trkpt lat="45.3081" lon="3.97545">
        <ele>836</ele>
        <time>2021-04-15T09:44:48Z</time>
      </trkpt>
      <trkpt lat="45.30802" lon="3.97551">
        <ele>836</ele>
        <time>2021-04-15T09:44:49Z</time>
      </trkpt>
      <trkpt lat="45.30793" lon="3.97558">
        <ele>836</ele>
        <time>2021-04-15T09:44:52Z</time>
      </trkpt>
      <trkpt lat="45.30782" lon="3.97564">
        <ele>836</ele>
        <time>2021-04-15T09:44:55Z</time>
      </trkpt>
      <trkpt lat="45.3077" lon="3.97571">
        <ele>836</ele>
        <time>2021-04-15T09:44:58Z</time>
      </trkpt>
      <trkpt lat="45.30761" lon="3.97576">
        <ele>837</ele>
        <time>2021-04-15T09:45:02Z</time>
      </trkpt>
      <trkpt lat="45.30754" lon="3.97584">
        <ele>837</ele>
        <time>2021-04-15T09:45:05Z</time>
      </trkpt>
      <trkpt lat="45.30752" lon="3.97586">
        <ele>837</ele>
        <time>2021-04-15T09:45:06Z</time>
      </trkpt>
      <trkpt lat="45.30749" lon="3.97589">
        <ele>837</ele>
        <time>2021-04-15T09:45:07Z</time>
      </trkpt>
      <trkpt lat="45.30744" lon="3.97594">
        <ele>838</ele>
        <time>2021-04-15T09:45:08Z</time>
      </trkpt>
      <trkpt lat="45.30742" lon="3.97596">
        <ele>838</ele>
        <time>2021-04-15T09:45:10Z</time>
      </trkpt>
      <trkpt lat="45.30739" lon="3.97598">
        <ele>838</ele>
        <time>2021-04-15T09:45:11Z</time>
      </trkpt>
      <trkpt lat="45.30737" lon="3.976">
        <ele>839</ele>
        <time>2021-04-15T09:45:12Z</time>
      </trkpt>
      <trkpt lat="45.30734" lon="3.97603">
        <ele>839</ele>
        <time>2021-04-15T09:45:13Z</time>
      </trkpt>
      <trkpt lat="45.30728" lon="3.97611">
        <ele>839</ele>
        <time>2021-04-15T09:45:14Z</time>
      </trkpt>
      <trkpt lat="45.30725" lon="3.97615">
        <ele>839</ele>
        <time>2021-04-15T09:45:16Z</time>
      </trkpt>
      <trkpt lat="45.30722" lon="3.9762">
        <ele>839</ele>
        <time>2021-04-15T09:45:17Z</time>
      </trkpt>
      <trkpt lat="45.3072" lon="3.97625">
        <ele>839</ele>
        <time>2021-04-15T09:45:18Z</time>
      </trkpt>
      <trkpt lat="45.30718" lon="3.9763">
        <ele>839</ele>
        <time>2021-04-15T09:45:19Z</time>
      </trkpt>
      <trkpt lat="45.30716" lon="3.97635">
        <ele>839</ele>
        <time>2021-04-15T09:45:20Z</time>
      </trkpt>
      <trkpt lat="45.30713" lon="3.9764">
        <ele>839</ele>
        <time>2021-04-15T09:45:21Z</time>
      </trkpt>
      <trkpt lat="45.3071" lon="3.97651">
        <ele>839</ele>
        <time>2021-04-15T09:45:22Z</time>
      </trkpt>
      <trkpt lat="45.30708" lon="3.97656">
        <ele>839</ele>
        <time>2021-04-15T09:45:24Z</time>
      </trkpt>
      <trkpt lat="45.30706" lon="3.97662">
        <ele>840</ele>
        <time>2021-04-15T09:45:25Z</time>
      </trkpt>
      <trkpt lat="45.30703" lon="3.97673">
        <ele>840</ele>
        <time>2021-04-15T09:45:26Z</time>
      </trkpt>
      <trkpt lat="45.30701" lon="3.97678">
        <ele>840</ele>
        <time>2021-04-15T09:45:27Z</time>
      </trkpt>
      <trkpt lat="45.307" lon="3.97684">
        <ele>840</ele>
        <time>2021-04-15T09:45:29Z</time>
      </trkpt>
      <trkpt lat="45.30699" lon="3.9769">
        <ele>840</ele>
        <time>2021-04-15T09:45:30Z</time>
      </trkpt>
      <trkpt lat="45.30698" lon="3.97696">
        <ele>840</ele>
        <time>2021-04-15T09:45:31Z</time>
      </trkpt>
      <trkpt lat="45.30697" lon="3.97703">
        <ele>840</ele>
        <time>2021-04-15T09:45:32Z</time>
      </trkpt>
      <trkpt lat="45.30697" lon="3.97709">
        <ele>840</ele>
        <time>2021-04-15T09:45:33Z</time>
      </trkpt>
      <trkpt lat="45.30696" lon="3.97716">
        <ele>841</ele>
        <time>2021-04-15T09:45:34Z</time>
      </trkpt>
      <trkpt lat="45.30696" lon="3.97723">
        <ele>841</ele>
        <time>2021-04-15T09:45:35Z</time>
      </trkpt>
      <trkpt lat="45.30695" lon="3.97729">
        <ele>841</ele>
        <time>2021-04-15T09:45:36Z</time>
      </trkpt>
      <trkpt lat="45.30695" lon="3.97736">
        <ele>841</ele>
        <time>2021-04-15T09:45:37Z</time>
      </trkpt>
      <trkpt lat="45.30695" lon="3.97742">
        <ele>841</ele>
        <time>2021-04-15T09:45:38Z</time>
      </trkpt>
      <trkpt lat="45.30695" lon="3.97749">
        <ele>841</ele>
        <time>2021-04-15T09:45:39Z</time>
      </trkpt>
      <trkpt lat="45.30695" lon="3.97755">
        <ele>841</ele>
        <time>2021-04-15T09:45:40Z</time>
      </trkpt>
      <trkpt lat="45.30695" lon="3.97761">
        <ele>841</ele>
        <time>2021-04-15T09:45:41Z</time>
      </trkpt>
      <trkpt lat="45.30695" lon="3.97768">
        <ele>841</ele>
        <time>2021-04-15T09:45:42Z</time>
      </trkpt>
      <trkpt lat="45.30695" lon="3.97774">
        <ele>841</ele>
        <time>2021-04-15T09:45:43Z</time>
      </trkpt>
      <trkpt lat="45.30694" lon="3.97781">
        <ele>841</ele>
        <time>2021-04-15T09:45:44Z</time>
      </trkpt>
      <trkpt lat="45.30693" lon="3.97787">
        <ele>841</ele>
        <time>2021-04-15T09:45:45Z</time>
      </trkpt>
      <trkpt lat="45.3069" lon="3.97798">
        <ele>841</ele>
        <time>2021-04-15T09:45:46Z</time>
      </trkpt>
      <trkpt lat="45.30686" lon="3.97809">
        <ele>842</ele>
        <time>2021-04-15T09:45:48Z</time>
      </trkpt>
      <trkpt lat="45.30684" lon="3.97814">
        <ele>842</ele>
        <time>2021-04-15T09:45:50Z</time>
      </trkpt>
      <trkpt lat="45.30683" lon="3.9782">
        <ele>842</ele>
        <time>2021-04-15T09:45:51Z</time>
      </trkpt>
      <trkpt lat="45.30681" lon="3.97826">
        <ele>843</ele>
        <time>2021-04-15T09:45:52Z</time>
      </trkpt>
      <trkpt lat="45.30679" lon="3.97832">
        <ele>843</ele>
        <time>2021-04-15T09:45:53Z</time>
      </trkpt>
      <trkpt lat="45.30677" lon="3.97838">
        <ele>843</ele>
        <time>2021-04-15T09:45:54Z</time>
      </trkpt>
      <trkpt lat="45.30676" lon="3.97844">
        <ele>843</ele>
        <time>2021-04-15T09:45:55Z</time>
      </trkpt>
      <trkpt lat="45.30674" lon="3.9785">
        <ele>843</ele>
        <time>2021-04-15T09:45:56Z</time>
      </trkpt>
      <trkpt lat="45.30672" lon="3.97856">
        <ele>843</ele>
        <time>2021-04-15T09:45:57Z</time>
      </trkpt>
      <trkpt lat="45.3067" lon="3.97862">
        <ele>843</ele>
        <time>2021-04-15T09:45:58Z</time>
      </trkpt>
      <trkpt lat="45.30668" lon="3.97868">
        <ele>844</ele>
        <time>2021-04-15T09:45:59Z</time>
      </trkpt>
      <trkpt lat="45.30666" lon="3.97874">
        <ele>844</ele>
        <time>2021-04-15T09:46:00Z</time>
      </trkpt>
      <trkpt lat="45.30665" lon="3.9788">
        <ele>844</ele>
        <time>2021-04-15T09:46:01Z</time>
      </trkpt>
      <trkpt lat="45.30663" lon="3.97887">
        <ele>844</ele>
        <time>2021-04-15T09:46:02Z</time>
      </trkpt>
      <trkpt lat="45.30662" lon="3.97893">
        <ele>844</ele>
        <time>2021-04-15T09:46:03Z</time>
      </trkpt>
      <trkpt lat="45.3066" lon="3.97899">
        <ele>845</ele>
        <time>2021-04-15T09:46:04Z</time>
      </trkpt>
      <trkpt lat="45.30657" lon="3.97913">
        <ele>845</ele>
        <time>2021-04-15T09:46:05Z</time>
      </trkpt>
      <trkpt lat="45.30656" lon="3.97919">
        <ele>845</ele>
        <time>2021-04-15T09:46:07Z</time>
      </trkpt>
      <trkpt lat="45.30654" lon="3.97925">
        <ele>846</ele>
        <time>2021-04-15T09:46:08Z</time>
      </trkpt>
      <trkpt lat="45.30653" lon="3.97931">
        <ele>846</ele>
        <time>2021-04-15T09:46:09Z</time>
      </trkpt>
      <trkpt lat="45.3065" lon="3.97943">
        <ele>846</ele>
        <time>2021-04-15T09:46:10Z</time>
      </trkpt>
      <trkpt lat="45.30649" lon="3.97949">
        <ele>847</ele>
        <time>2021-04-15T09:46:12Z</time>
      </trkpt>
      <trkpt lat="45.30647" lon="3.97955">
        <ele>847</ele>
        <time>2021-04-15T09:46:13Z</time>
      </trkpt>
      <trkpt lat="45.30646" lon="3.97961">
        <ele>848</ele>
        <time>2021-04-15T09:46:14Z</time>
      </trkpt>
      <trkpt lat="45.30645" lon="3.97967">
        <ele>848</ele>
        <time>2021-04-15T09:46:15Z</time>
      </trkpt>
      <trkpt lat="45.30644" lon="3.97973">
        <ele>848</ele>
        <time>2021-04-15T09:46:16Z</time>
      </trkpt>
      <trkpt lat="45.30642" lon="3.9798">
        <ele>849</ele>
        <time>2021-04-15T09:46:17Z</time>
      </trkpt>
      <trkpt lat="45.30641" lon="3.97986">
        <ele>849</ele>
        <time>2021-04-15T09:46:18Z</time>
      </trkpt>
      <trkpt lat="45.30639" lon="3.97992">
        <ele>849</ele>
        <time>2021-04-15T09:46:19Z</time>
      </trkpt>
      <trkpt lat="45.30638" lon="3.97998">
        <ele>850</ele>
        <time>2021-04-15T09:46:20Z</time>
      </trkpt>
      <trkpt lat="45.30634" lon="3.9801">
        <ele>850</ele>
        <time>2021-04-15T09:46:21Z</time>
      </trkpt>
      <trkpt lat="45.30631" lon="3.98016">
        <ele>850</ele>
        <time>2021-04-15T09:46:23Z</time>
      </trkpt>
      <trkpt lat="45.30625" lon="3.98023">
        <ele>851</ele>
        <time>2021-04-15T09:46:24Z</time>
      </trkpt>
      <trkpt lat="45.30621" lon="3.98024">
        <ele>851</ele>
        <time>2021-04-15T09:46:26Z</time>
      </trkpt>
      <trkpt lat="45.30617" lon="3.98024">
        <ele>852</ele>
        <time>2021-04-15T09:46:27Z</time>
      </trkpt>
      <trkpt lat="45.30614" lon="3.98023">
        <ele>852</ele>
        <time>2021-04-15T09:46:28Z</time>
      </trkpt>
      <trkpt lat="45.3061" lon="3.98022">
        <ele>853</ele>
        <time>2021-04-15T09:46:29Z</time>
      </trkpt>
      <trkpt lat="45.30607" lon="3.98021">
        <ele>853</ele>
        <time>2021-04-15T09:46:30Z</time>
      </trkpt>
      <trkpt lat="45.30603" lon="3.9802">
        <ele>854</ele>
        <time>2021-04-15T09:46:31Z</time>
      </trkpt>
      <trkpt lat="45.30599" lon="3.9802">
        <ele>854</ele>
        <time>2021-04-15T09:46:32Z</time>
      </trkpt>
      <trkpt lat="45.30596" lon="3.98021">
        <ele>855</ele>
        <time>2021-04-15T09:46:33Z</time>
      </trkpt>
      <trkpt lat="45.30592" lon="3.98022">
        <ele>855</ele>
        <time>2021-04-15T09:46:34Z</time>
      </trkpt>
      <trkpt lat="45.30588" lon="3.98024">
        <ele>856</ele>
        <time>2021-04-15T09:46:35Z</time>
      </trkpt>
      <trkpt lat="45.30585" lon="3.98027">
        <ele>856</ele>
        <time>2021-04-15T09:46:36Z</time>
      </trkpt>
      <trkpt lat="45.30582" lon="3.98029">
        <ele>857</ele>
        <time>2021-04-15T09:46:37Z</time>
      </trkpt>
      <trkpt lat="45.3058" lon="3.98033">
        <ele>857</ele>
        <time>2021-04-15T09:46:38Z</time>
      </trkpt>
      <trkpt lat="45.30578" lon="3.98036">
        <ele>857</ele>
        <time>2021-04-15T09:46:39Z</time>
      </trkpt>
      <trkpt lat="45.30576" lon="3.9804">
        <ele>858</ele>
        <time>2021-04-15T09:46:40Z</time>
      </trkpt>
      <trkpt lat="45.30574" lon="3.98043">
        <ele>858</ele>
        <time>2021-04-15T09:46:41Z</time>
      </trkpt>
      <trkpt lat="45.30573" lon="3.98047">
        <ele>859</ele>
        <time>2021-04-15T09:46:42Z</time>
      </trkpt>
      <trkpt lat="45.30569" lon="3.98055">
        <ele>859</ele>
        <time>2021-04-15T09:46:43Z</time>
      </trkpt>
      <trkpt lat="45.30567" lon="3.98058">
        <ele>860</ele>
        <time>2021-04-15T09:46:45Z</time>
      </trkpt>
      <trkpt lat="45.30565" lon="3.98061">
        <ele>861</ele>
        <time>2021-04-15T09:46:46Z</time>
      </trkpt>
      <trkpt lat="45.30562" lon="3.98064">
        <ele>861</ele>
        <time>2021-04-15T09:46:47Z</time>
      </trkpt>
      <trkpt lat="45.30559" lon="3.98067">
        <ele>862</ele>
        <time>2021-04-15T09:46:48Z</time>
      </trkpt>
      <trkpt lat="45.30554" lon="3.98073">
        <ele>862</ele>
        <time>2021-04-15T09:46:49Z</time>
      </trkpt>
      <trkpt lat="45.30552" lon="3.98076">
        <ele>863</ele>
        <time>2021-04-15T09:46:51Z</time>
      </trkpt>
      <trkpt lat="45.3055" lon="3.9808">
        <ele>863</ele>
        <time>2021-04-15T09:46:52Z</time>
      </trkpt>
      <trkpt lat="45.30547" lon="3.98085">
        <ele>863</ele>
        <time>2021-04-15T09:46:53Z</time>
      </trkpt>
      <trkpt lat="45.30545" lon="3.98089">
        <ele>864</ele>
        <time>2021-04-15T09:46:54Z</time>
      </trkpt>
      <trkpt lat="45.30543" lon="3.98094">
        <ele>864</ele>
        <time>2021-04-15T09:46:55Z</time>
      </trkpt>
      <trkpt lat="45.3054" lon="3.98099">
        <ele>864</ele>
        <time>2021-04-15T09:46:56Z</time>
      </trkpt>
      <trkpt lat="45.30537" lon="3.98104">
        <ele>864</ele>
        <time>2021-04-15T09:46:57Z</time>
      </trkpt>
      <trkpt lat="45.30535" lon="3.98109">
        <ele>864</ele>
        <time>2021-04-15T09:46:58Z</time>
      </trkpt>
      <trkpt lat="45.30532" lon="3.98114">
        <ele>864</ele>
        <time>2021-04-15T09:46:59Z</time>
      </trkpt>
      <trkpt lat="45.3053" lon="3.98119">
        <ele>865</ele>
        <time>2021-04-15T09:47:00Z</time>
      </trkpt>
      <trkpt lat="45.30525" lon="3.98129">
        <ele>865</ele>
        <time>2021-04-15T09:47:01Z</time>
      </trkpt>
      <trkpt lat="45.30523" lon="3.98133">
        <ele>865</ele>
        <time>2021-04-15T09:47:02Z</time>
      </trkpt>
      <trkpt lat="45.30521" lon="3.98138">
        <ele>866</ele>
        <time>2021-04-15T09:47:04Z</time>
      </trkpt>
      <trkpt lat="45.30519" lon="3.98143">
        <ele>866</ele>
        <time>2021-04-15T09:47:05Z</time>
      </trkpt>
      <trkpt lat="45.30517" lon="3.98149">
        <ele>866</ele>
        <time>2021-04-15T09:47:06Z</time>
      </trkpt>
      <trkpt lat="45.30515" lon="3.98154">
        <ele>866</ele>
        <time>2021-04-15T09:47:07Z</time>
      </trkpt>
      <trkpt lat="45.30512" lon="3.9816">
        <ele>867</ele>
        <time>2021-04-15T09:47:08Z</time>
      </trkpt>
      <trkpt lat="45.3051" lon="3.98166">
        <ele>867</ele>
        <time>2021-04-15T09:47:09Z</time>
      </trkpt>
      <trkpt lat="45.30508" lon="3.98172">
        <ele>867</ele>
        <time>2021-04-15T09:47:10Z</time>
      </trkpt>
      <trkpt lat="45.30506" lon="3.98177">
        <ele>867</ele>
        <time>2021-04-15T09:47:11Z</time>
      </trkpt>
      <trkpt lat="45.30503" lon="3.98183">
        <ele>867</ele>
        <time>2021-04-15T09:47:12Z</time>
      </trkpt>
      <trkpt lat="45.30501" lon="3.9819">
        <ele>867</ele>
        <time>2021-04-15T09:47:13Z</time>
      </trkpt>
      <trkpt lat="45.30498" lon="3.98197">
        <ele>867</ele>
        <time>2021-04-15T09:47:14Z</time>
      </trkpt>
      <trkpt lat="45.30495" lon="3.98204">
        <ele>867</ele>
        <time>2021-04-15T09:47:15Z</time>
      </trkpt>
      <trkpt lat="45.30492" lon="3.98212">
        <ele>867</ele>
        <time>2021-04-15T09:47:16Z</time>
      </trkpt>
      <trkpt lat="45.30489" lon="3.9822">
        <ele>867</ele>
        <time>2021-04-15T09:47:17Z</time>
      </trkpt>
      <trkpt lat="45.30486" lon="3.98228">
        <ele>867</ele>
        <time>2021-04-15T09:47:18Z</time>
      </trkpt>
      <trkpt lat="45.30483" lon="3.98236">
        <ele>867</ele>
        <time>2021-04-15T09:47:19Z</time>
      </trkpt>
      <trkpt lat="45.3048" lon="3.98244">
        <ele>867</ele>
        <time>2021-04-15T09:47:20Z</time>
      </trkpt>
      <trkpt lat="45.30478" lon="3.98251">
        <ele>867</ele>
        <time>2021-04-15T09:47:21Z</time>
      </trkpt>
      <trkpt lat="45.30475" lon="3.98259">
        <ele>867</ele>
        <time>2021-04-15T09:47:22Z</time>
      </trkpt>
      <trkpt lat="45.30473" lon="3.98267">
        <ele>867</ele>
        <time>2021-04-15T09:47:23Z</time>
      </trkpt>
      <trkpt lat="45.30471" lon="3.98275">
        <ele>867</ele>
        <time>2021-04-15T09:47:24Z</time>
      </trkpt>
      <trkpt lat="45.30468" lon="3.98283">
        <ele>867</ele>
        <time>2021-04-15T09:47:25Z</time>
      </trkpt>
      <trkpt lat="45.30466" lon="3.98291">
        <ele>867</ele>
        <time>2021-04-15T09:47:26Z</time>
      </trkpt>
      <trkpt lat="45.30464" lon="3.98299">
        <ele>867</ele>
        <time>2021-04-15T09:47:27Z</time>
      </trkpt>
      <trkpt lat="45.30462" lon="3.98306">
        <ele>867</ele>
        <time>2021-04-15T09:47:28Z</time>
      </trkpt>
      <trkpt lat="45.30458" lon="3.98322">
        <ele>868</ele>
        <time>2021-04-15T09:47:29Z</time>
      </trkpt>
      <trkpt lat="45.30456" lon="3.9833">
        <ele>868</ele>
        <time>2021-04-15T09:47:31Z</time>
      </trkpt>
      <trkpt lat="45.30453" lon="3.98338">
        <ele>868</ele>
        <time>2021-04-15T09:47:32Z</time>
      </trkpt>
      <trkpt lat="45.30451" lon="3.98346">
        <ele>868</ele>
        <time>2021-04-15T09:47:33Z</time>
      </trkpt>
      <trkpt lat="45.30449" lon="3.98354">
        <ele>868</ele>
        <time>2021-04-15T09:47:34Z</time>
      </trkpt>
      <trkpt lat="45.30446" lon="3.98361">
        <ele>868</ele>
        <time>2021-04-15T09:47:35Z</time>
      </trkpt>
      <trkpt lat="45.30443" lon="3.98369">
        <ele>868</ele>
        <time>2021-04-15T09:47:36Z</time>
      </trkpt>
      <trkpt lat="45.3044" lon="3.98376">
        <ele>868</ele>
        <time>2021-04-15T09:47:37Z</time>
      </trkpt>
      <trkpt lat="45.30435" lon="3.98391">
        <ele>868</ele>
        <time>2021-04-15T09:47:38Z</time>
      </trkpt>
      <trkpt lat="45.3043" lon="3.98406">
        <ele>868</ele>
        <time>2021-04-15T09:47:40Z</time>
      </trkpt>
      <trkpt lat="45.30428" lon="3.98414">
        <ele>868</ele>
        <time>2021-04-15T09:47:42Z</time>
      </trkpt>
      <trkpt lat="45.30427" lon="3.98422">
        <ele>869</ele>
        <time>2021-04-15T09:47:43Z</time>
      </trkpt>
      <trkpt lat="45.30426" lon="3.9843">
        <ele>869</ele>
        <time>2021-04-15T09:47:44Z</time>
      </trkpt>
      <trkpt lat="45.30426" lon="3.98438">
        <ele>869</ele>
        <time>2021-04-15T09:47:45Z</time>
      </trkpt>
      <trkpt lat="45.30425" lon="3.98446">
        <ele>869</ele>
        <time>2021-04-15T09:47:46Z</time>
      </trkpt>
      <trkpt lat="45.30425" lon="3.98454">
        <ele>869</ele>
        <time>2021-04-15T09:47:47Z</time>
      </trkpt>
      <trkpt lat="45.30424" lon="3.98462">
        <ele>870</ele>
        <time>2021-04-15T09:47:48Z</time>
      </trkpt>
      <trkpt lat="45.30422" lon="3.9847">
        <ele>870</ele>
        <time>2021-04-15T09:47:49Z</time>
      </trkpt>
      <trkpt lat="45.30421" lon="3.98478">
        <ele>870</ele>
        <time>2021-04-15T09:47:50Z</time>
      </trkpt>
      <trkpt lat="45.30419" lon="3.98486">
        <ele>870</ele>
        <time>2021-04-15T09:47:51Z</time>
      </trkpt>
      <trkpt lat="45.30418" lon="3.98494">
        <ele>870</ele>
        <time>2021-04-15T09:47:52Z</time>
      </trkpt>
      <trkpt lat="45.30416" lon="3.98502">
        <ele>870</ele>
        <time>2021-04-15T09:47:53Z</time>
      </trkpt>
      <trkpt lat="45.30413" lon="3.9851">
        <ele>870</ele>
        <time>2021-04-15T09:47:54Z</time>
      </trkpt>
      <trkpt lat="45.30411" lon="3.98518">
        <ele>870</ele>
        <time>2021-04-15T09:47:55Z</time>
      </trkpt>
      <trkpt lat="45.30409" lon="3.98525">
        <ele>870</ele>
        <time>2021-04-15T09:47:56Z</time>
      </trkpt>
      <trkpt lat="45.30406" lon="3.98533">
        <ele>870</ele>
        <time>2021-04-15T09:47:57Z</time>
      </trkpt>
      <trkpt lat="45.30404" lon="3.98541">
        <ele>870</ele>
        <time>2021-04-15T09:47:58Z</time>
      </trkpt>
      <trkpt lat="45.30402" lon="3.98549">
        <ele>870</ele>
        <time>2021-04-15T09:47:59Z</time>
      </trkpt>
      <trkpt lat="45.304" lon="3.98557">
        <ele>870</ele>
        <time>2021-04-15T09:48:00Z</time>
      </trkpt>
      <trkpt lat="45.30398" lon="3.98564">
        <ele>870</ele>
        <time>2021-04-15T09:48:01Z</time>
      </trkpt>
      <trkpt lat="45.30396" lon="3.98572">
        <ele>870</ele>
        <time>2021-04-15T09:48:02Z</time>
      </trkpt>
      <trkpt lat="45.30394" lon="3.98589">
        <ele>870</ele>
        <time>2021-04-15T09:48:03Z</time>
      </trkpt>
      <trkpt lat="45.30392" lon="3.98597">
        <ele>870</ele>
        <time>2021-04-15T09:48:05Z</time>
      </trkpt>
      <trkpt lat="45.30391" lon="3.98604">
        <ele>870</ele>
        <time>2021-04-15T09:48:06Z</time>
      </trkpt>
      <trkpt lat="45.30389" lon="3.98612">
        <ele>870</ele>
        <time>2021-04-15T09:48:07Z</time>
      </trkpt>
      <trkpt lat="45.30387" lon="3.98619">
        <ele>871</ele>
        <time>2021-04-15T09:48:08Z</time>
      </trkpt>
      <trkpt lat="45.30385" lon="3.98627">
        <ele>871</ele>
        <time>2021-04-15T09:48:09Z</time>
      </trkpt>
      <trkpt lat="45.30383" lon="3.98634">
        <ele>871</ele>
        <time>2021-04-15T09:48:10Z</time>
      </trkpt>
      <trkpt lat="45.3038" lon="3.98642">
        <ele>871</ele>
        <time>2021-04-15T09:48:11Z</time>
      </trkpt>
      <trkpt lat="45.30378" lon="3.98649">
        <ele>871</ele>
        <time>2021-04-15T09:48:12Z</time>
      </trkpt>
      <trkpt lat="45.30377" lon="3.98657">
        <ele>871</ele>
        <time>2021-04-15T09:48:13Z</time>
      </trkpt>
      <trkpt lat="45.30376" lon="3.98664">
        <ele>870</ele>
        <time>2021-04-15T09:48:14Z</time>
      </trkpt>
      <trkpt lat="45.30376" lon="3.98671">
        <ele>870</ele>
        <time>2021-04-15T09:48:15Z</time>
      </trkpt>
      <trkpt lat="45.30375" lon="3.98675">
        <ele>870</ele>
        <time>2021-04-15T09:48:16Z</time>
      </trkpt>
      <trkpt lat="45.30373" lon="3.98676">
        <ele>870</ele>
        <time>2021-04-15T09:48:17Z</time>
      </trkpt>
      <trkpt lat="45.30364" lon="3.98674">
        <ele>870</ele>
        <time>2021-04-15T09:48:18Z</time>
      </trkpt>
      <trkpt lat="45.3036" lon="3.98672">
        <ele>870</ele>
        <time>2021-04-15T09:48:20Z</time>
      </trkpt>
      <trkpt lat="45.30354" lon="3.9867">
        <ele>870</ele>
        <time>2021-04-15T09:48:21Z</time>
      </trkpt>
      <trkpt lat="45.30348" lon="3.98668">
        <ele>869</ele>
        <time>2021-04-15T09:48:22Z</time>
      </trkpt>
      <trkpt lat="45.30334" lon="3.98664">
        <ele>869</ele>
        <time>2021-04-15T09:48:23Z</time>
      </trkpt>
      <trkpt lat="45.30326" lon="3.98661">
        <ele>868</ele>
        <time>2021-04-15T09:48:25Z</time>
      </trkpt>
      <trkpt lat="45.30318" lon="3.98659">
        <ele>868</ele>
        <time>2021-04-15T09:48:26Z</time>
      </trkpt>
      <trkpt lat="45.30311" lon="3.98657">
        <ele>868</ele>
        <time>2021-04-15T09:48:27Z</time>
      </trkpt>
      <trkpt lat="45.30303" lon="3.98655">
        <ele>868</ele>
        <time>2021-04-15T09:48:28Z</time>
      </trkpt>
      <trkpt lat="45.3029" lon="3.98652">
        <ele>867</ele>
        <time>2021-04-15T09:48:29Z</time>
      </trkpt>
      <trkpt lat="45.30283" lon="3.98651">
        <ele>866</ele>
        <time>2021-04-15T09:48:31Z</time>
      </trkpt>
      <trkpt lat="45.30276" lon="3.98649">
        <ele>866</ele>
        <time>2021-04-15T09:48:32Z</time>
      </trkpt>
      <trkpt lat="45.30269" lon="3.98648">
        <ele>865</ele>
        <time>2021-04-15T09:48:33Z</time>
      </trkpt>
      <trkpt lat="45.30264" lon="3.98646">
        <ele>865</ele>
        <time>2021-04-15T09:48:34Z</time>
      </trkpt>
      <trkpt lat="45.30259" lon="3.98643">
        <ele>865</ele>
        <time>2021-04-15T09:48:35Z</time>
      </trkpt>
      <trkpt lat="45.30254" lon="3.98641">
        <ele>865</ele>
        <time>2021-04-15T09:48:36Z</time>
      </trkpt>
      <trkpt lat="45.30245" lon="3.98635">
        <ele>865</ele>
        <time>2021-04-15T09:48:37Z</time>
      </trkpt>
      <trkpt lat="45.3024" lon="3.98631">
        <ele>864</ele>
        <time>2021-04-15T09:48:39Z</time>
      </trkpt>
      <trkpt lat="45.30235" lon="3.98626">
        <ele>864</ele>
        <time>2021-04-15T09:48:40Z</time>
      </trkpt>
      <trkpt lat="45.30231" lon="3.98622">
        <ele>864</ele>
        <time>2021-04-15T09:48:41Z</time>
      </trkpt>
      <trkpt lat="45.30226" lon="3.98618">
        <ele>864</ele>
        <time>2021-04-15T09:48:42Z</time>
      </trkpt>
      <trkpt lat="45.30222" lon="3.98614">
        <ele>864</ele>
        <time>2021-04-15T09:48:43Z</time>
      </trkpt>
      <trkpt lat="45.30217" lon="3.98609">
        <ele>864</ele>
        <time>2021-04-15T09:48:44Z</time>
      </trkpt>
      <trkpt lat="45.30211" lon="3.98605">
        <ele>864</ele>
        <time>2021-04-15T09:48:45Z</time>
      </trkpt>
      <trkpt lat="45.30201" lon="3.98596">
        <ele>863</ele>
        <time>2021-04-15T09:48:46Z</time>
      </trkpt>
      <trkpt lat="45.30196" lon="3.98592">
        <ele>863</ele>
        <time>2021-04-15T09:48:48Z</time>
      </trkpt>
      <trkpt lat="45.30191" lon="3.98587">
        <ele>863</ele>
        <time>2021-04-15T09:48:49Z</time>
      </trkpt>
      <trkpt lat="45.30186" lon="3.98582">
        <ele>863</ele>
        <time>2021-04-15T09:48:50Z</time>
      </trkpt>
      <trkpt lat="45.30181" lon="3.98578">
        <ele>863</ele>
        <time>2021-04-15T09:48:51Z</time>
      </trkpt>
      <trkpt lat="45.30175" lon="3.98573">
        <ele>863</ele>
        <time>2021-04-15T09:48:52Z</time>
      </trkpt>
      <trkpt lat="45.3017" lon="3.98568">
        <ele>863</ele>
        <time>2021-04-15T09:48:53Z</time>
      </trkpt>
      <trkpt lat="45.3016" lon="3.98558">
        <ele>863</ele>
        <time>2021-04-15T09:48:54Z</time>
      </trkpt>
      <trkpt lat="45.30151" lon="3.98548">
        <ele>863</ele>
        <time>2021-04-15T09:48:56Z</time>
      </trkpt>
      <trkpt lat="45.30147" lon="3.98543">
        <ele>863</ele>
        <time>2021-04-15T09:48:58Z</time>
      </trkpt>
      <trkpt lat="45.30143" lon="3.98538">
        <ele>863</ele>
        <time>2021-04-15T09:48:59Z</time>
      </trkpt>
      <trkpt lat="45.30138" lon="3.98533">
        <ele>863</ele>
        <time>2021-04-15T09:49:00Z</time>
      </trkpt>
      <trkpt lat="45.30134" lon="3.98528">
        <ele>863</ele>
        <time>2021-04-15T09:49:01Z</time>
      </trkpt>
      <trkpt lat="45.30129" lon="3.98524">
        <ele>863</ele>
        <time>2021-04-15T09:49:02Z</time>
      </trkpt>
      <trkpt lat="45.30119" lon="3.98519">
        <ele>863</ele>
        <time>2021-04-15T09:49:03Z</time>
      </trkpt>
      <trkpt lat="45.30113" lon="3.98518">
        <ele>863</ele>
        <time>2021-04-15T09:49:05Z</time>
      </trkpt>
      <trkpt lat="45.30108" lon="3.98517">
        <ele>863</ele>
        <time>2021-04-15T09:49:06Z</time>
      </trkpt>
      <trkpt lat="45.30102" lon="3.98516">
        <ele>863</ele>
        <time>2021-04-15T09:49:07Z</time>
      </trkpt>
      <trkpt lat="45.30096" lon="3.98515">
        <ele>863</ele>
        <time>2021-04-15T09:49:08Z</time>
      </trkpt>
      <trkpt lat="45.30091" lon="3.98514">
        <ele>863</ele>
        <time>2021-04-15T09:49:09Z</time>
      </trkpt>
      <trkpt lat="45.30085" lon="3.98514">
        <ele>863</ele>
        <time>2021-04-15T09:49:10Z</time>
      </trkpt>
      <trkpt lat="45.3008" lon="3.98512">
        <ele>863</ele>
        <time>2021-04-15T09:49:11Z</time>
      </trkpt>
      <trkpt lat="45.30075" lon="3.98511">
        <ele>864</ele>
        <time>2021-04-15T09:49:12Z</time>
      </trkpt>
      <trkpt lat="45.30071" lon="3.9851">
        <ele>864</ele>
        <time>2021-04-15T09:49:13Z</time>
      </trkpt>
      <trkpt lat="45.30066" lon="3.98508">
        <ele>864</ele>
        <time>2021-04-15T09:49:14Z</time>
      </trkpt>
      <trkpt lat="45.30056" lon="3.98505">
        <ele>864</ele>
        <time>2021-04-15T09:49:15Z</time>
      </trkpt>
      <trkpt lat="45.3005" lon="3.98503">
        <ele>864</ele>
        <time>2021-04-15T09:49:17Z</time>
      </trkpt>
      <trkpt lat="45.30045" lon="3.98501">
        <ele>864</ele>
        <time>2021-04-15T09:49:18Z</time>
      </trkpt>
      <trkpt lat="45.30034" lon="3.98498">
        <ele>864</ele>
        <time>2021-04-15T09:49:19Z</time>
      </trkpt>
      <trkpt lat="45.30028" lon="3.98496">
        <ele>864</ele>
        <time>2021-04-15T09:49:21Z</time>
      </trkpt>
      <trkpt lat="45.30017" lon="3.98492">
        <ele>864</ele>
        <time>2021-04-15T09:49:22Z</time>
      </trkpt>
      <trkpt lat="45.30011" lon="3.98491">
        <ele>864</ele>
        <time>2021-04-15T09:49:24Z</time>
      </trkpt>
      <trkpt lat="45.30006" lon="3.9849">
        <ele>864</ele>
        <time>2021-04-15T09:49:25Z</time>
      </trkpt>
      <trkpt lat="45.3" lon="3.98489">
        <ele>864</ele>
        <time>2021-04-15T09:49:26Z</time>
      </trkpt>
      <trkpt lat="45.29994" lon="3.98487">
        <ele>863</ele>
        <time>2021-04-15T09:49:27Z</time>
      </trkpt>
      <trkpt lat="45.29976" lon="3.98462">
        <ele>859</ele>
        <time>2021-04-15T10:48:22Z</time>
      </trkpt>
      <trkpt lat="45.29973" lon="3.98459">
        <ele>859</ele>
        <time>2021-04-15T10:48:23Z</time>
      </trkpt>
      <trkpt lat="45.29969" lon="3.98456">
        <ele>859</ele>
        <time>2021-04-15T10:48:24Z</time>
      </trkpt>
      <trkpt lat="45.29965" lon="3.98452">
        <ele>859</ele>
        <time>2021-04-15T10:48:25Z</time>
      </trkpt>
      <trkpt lat="45.2996" lon="3.98448">
        <ele>859</ele>
        <time>2021-04-15T10:48:26Z</time>
      </trkpt>
      <trkpt lat="45.29955" lon="3.98444">
        <ele>859</ele>
        <time>2021-04-15T10:48:27Z</time>
      </trkpt>
      <trkpt lat="45.2995" lon="3.9844">
        <ele>859</ele>
        <time>2021-04-15T10:48:28Z</time>
      </trkpt>
      <trkpt lat="45.29939" lon="3.98433">
        <ele>859</ele>
        <time>2021-04-15T10:48:29Z</time>
      </trkpt>
      <trkpt lat="45.29933" lon="3.9843">
        <ele>859</ele>
        <time>2021-04-15T10:48:31Z</time>
      </trkpt>
      <trkpt lat="45.29927" lon="3.98426">
        <ele>859</ele>
        <time>2021-04-15T10:48:32Z</time>
      </trkpt>
      <trkpt lat="45.29921" lon="3.98422">
        <ele>859</ele>
        <time>2021-04-15T10:48:33Z</time>
      </trkpt>
      <trkpt lat="45.29915" lon="3.98418">
        <ele>859</ele>
        <time>2021-04-15T10:48:34Z</time>
      </trkpt>
      <trkpt lat="45.29909" lon="3.98413">
        <ele>859</ele>
        <time>2021-04-15T10:48:35Z</time>
      </trkpt>
      <trkpt lat="45.29904" lon="3.98408">
        <ele>859</ele>
        <time>2021-04-15T10:48:36Z</time>
      </trkpt>
      <trkpt lat="45.29899" lon="3.98403">
        <ele>859</ele>
        <time>2021-04-15T10:48:37Z</time>
      </trkpt>
      <trkpt lat="45.29894" lon="3.98398">
        <ele>859</ele>
        <time>2021-04-15T10:48:38Z</time>
      </trkpt>
      <trkpt lat="45.29888" lon="3.98395">
        <ele>859</ele>
        <time>2021-04-15T10:48:39Z</time>
      </trkpt>
      <trkpt lat="45.29883" lon="3.98392">
        <ele>859</ele>
        <time>2021-04-15T10:48:40Z</time>
      </trkpt>
      <trkpt lat="45.29878" lon="3.98389">
        <ele>859</ele>
        <time>2021-04-15T10:48:41Z</time>
      </trkpt>
      <trkpt lat="45.29873" lon="3.98387">
        <ele>859</ele>
        <time>2021-04-15T10:48:42Z</time>
      </trkpt>
      <trkpt lat="45.29867" lon="3.98384">
        <ele>859</ele>
        <time>2021-04-15T10:48:43Z</time>
      </trkpt>
      <trkpt lat="45.29862" lon="3.98381">
        <ele>859</ele>
        <time>2021-04-15T10:48:44Z</time>
      </trkpt>
      <trkpt lat="45.29856" lon="3.98379">
        <ele>859</ele>
        <time>2021-04-15T10:48:45Z</time>
      </trkpt>
      <trkpt lat="45.29851" lon="3.98377">
        <ele>858</ele>
        <time>2021-04-15T10:48:46Z</time>
      </trkpt>
      <trkpt lat="45.29845" lon="3.98374">
        <ele>858</ele>
        <time>2021-04-15T10:48:47Z</time>
      </trkpt>
      <trkpt lat="45.29839" lon="3.98372">
        <ele>858</ele>
        <time>2021-04-15T10:48:48Z</time>
      </trkpt>
      <trkpt lat="45.29833" lon="3.98369">
        <ele>858</ele>
        <time>2021-04-15T10:48:49Z</time>
      </trkpt>
      <trkpt lat="45.29827" lon="3.98365">
        <ele>857</ele>
        <time>2021-04-15T10:48:50Z</time>
      </trkpt>
      <trkpt lat="45.29822" lon="3.98359">
        <ele>857</ele>
        <time>2021-04-15T10:48:51Z</time>
      </trkpt>
      <trkpt lat="45.29817" lon="3.98352">
        <ele>857</ele>
        <time>2021-04-15T10:48:52Z</time>
      </trkpt>
      <trkpt lat="45.29813" lon="3.98344">
        <ele>857</ele>
        <time>2021-04-15T10:48:53Z</time>
      </trkpt>
      <trkpt lat="45.29808" lon="3.98337">
        <ele>856</ele>
        <time>2021-04-15T10:48:54Z</time>
      </trkpt>
      <trkpt lat="45.29804" lon="3.98329">
        <ele>856</ele>
        <time>2021-04-15T10:48:55Z</time>
      </trkpt>
      <trkpt lat="45.29794" lon="3.98312">
        <ele>856</ele>
        <time>2021-04-15T10:48:56Z</time>
      </trkpt>
      <trkpt lat="45.29789" lon="3.98304">
        <ele>856</ele>
        <time>2021-04-15T10:48:58Z</time>
      </trkpt>
      <trkpt lat="45.29785" lon="3.98295">
        <ele>855</ele>
        <time>2021-04-15T10:48:59Z</time>
      </trkpt>
      <trkpt lat="45.2978" lon="3.98286">
        <ele>855</ele>
        <time>2021-04-15T10:49:00Z</time>
      </trkpt>
      <trkpt lat="45.29776" lon="3.98276">
        <ele>854</ele>
        <time>2021-04-15T10:49:01Z</time>
      </trkpt>
      <trkpt lat="45.29774" lon="3.98265">
        <ele>854</ele>
        <time>2021-04-15T10:49:02Z</time>
      </trkpt>
      <trkpt lat="45.29771" lon="3.98254">
        <ele>854</ele>
        <time>2021-04-15T10:49:03Z</time>
      </trkpt>
      <trkpt lat="45.29769" lon="3.98243">
        <ele>853</ele>
        <time>2021-04-15T10:49:04Z</time>
      </trkpt>
      <trkpt lat="45.29767" lon="3.98233">
        <ele>853</ele>
        <time>2021-04-15T10:49:05Z</time>
      </trkpt>
      <trkpt lat="45.29765" lon="3.98226">
        <ele>853</ele>
        <time>2021-04-15T10:49:06Z</time>
      </trkpt>
      <trkpt lat="45.29764" lon="3.98221">
        <ele>852</ele>
        <time>2021-04-15T10:49:07Z</time>
      </trkpt>
      <trkpt lat="45.29763" lon="3.98218">
        <ele>852</ele>
        <time>2021-04-15T10:49:08Z</time>
      </trkpt>
      <trkpt lat="45.29763" lon="3.98219">
        <ele>852</ele>
        <time>2021-04-15T10:49:11Z</time>
      </trkpt>
      <trkpt lat="45.2976" lon="3.98213">
        <ele>851</ele>
        <time>2021-04-15T10:49:16Z</time>
      </trkpt>
      <trkpt lat="45.29754" lon="3.98203">
        <ele>851</ele>
        <time>2021-04-15T10:49:17Z</time>
      </trkpt>
      <trkpt lat="45.29749" lon="3.98198">
        <ele>851</ele>
        <time>2021-04-15T10:49:19Z</time>
      </trkpt>
      <trkpt lat="45.29744" lon="3.98195">
        <ele>851</ele>
        <time>2021-04-15T10:49:20Z</time>
      </trkpt>
      <trkpt lat="45.29738" lon="3.98193">
        <ele>850</ele>
        <time>2021-04-15T10:49:21Z</time>
      </trkpt>
      <trkpt lat="45.29732" lon="3.98191">
        <ele>850</ele>
        <time>2021-04-15T10:49:22Z</time>
      </trkpt>
      <trkpt lat="45.29725" lon="3.9819">
        <ele>850</ele>
        <time>2021-04-15T10:49:23Z</time>
      </trkpt>
      <trkpt lat="45.29719" lon="3.98187">
        <ele>850</ele>
        <time>2021-04-15T10:49:24Z</time>
      </trkpt>
      <trkpt lat="45.29712" lon="3.98184">
        <ele>850</ele>
        <time>2021-04-15T10:49:25Z</time>
      </trkpt>
      <trkpt lat="45.29705" lon="3.9818">
        <ele>849</ele>
        <time>2021-04-15T10:49:26Z</time>
      </trkpt>
      <trkpt lat="45.29699" lon="3.98176">
        <ele>849</ele>
        <time>2021-04-15T10:49:27Z</time>
      </trkpt>
      <trkpt lat="45.29692" lon="3.9817">
        <ele>848</ele>
        <time>2021-04-15T10:49:28Z</time>
      </trkpt>
      <trkpt lat="45.29685" lon="3.98162">
        <ele>848</ele>
        <time>2021-04-15T10:49:29Z</time>
      </trkpt>
      <trkpt lat="45.29678" lon="3.98155">
        <ele>847</ele>
        <time>2021-04-15T10:49:30Z</time>
      </trkpt>
      <trkpt lat="45.29671" lon="3.98148">
        <ele>847</ele>
        <time>2021-04-15T10:49:31Z</time>
      </trkpt>
      <trkpt lat="45.29663" lon="3.98142">
        <ele>846</ele>
        <time>2021-04-15T10:49:32Z</time>
      </trkpt>
      <trkpt lat="45.29654" lon="3.98136">
        <ele>846</ele>
        <time>2021-04-15T10:49:33Z</time>
      </trkpt>
      <trkpt lat="45.29645" lon="3.98131">
        <ele>844</ele>
        <time>2021-04-15T10:49:34Z</time>
      </trkpt>
      <trkpt lat="45.29636" lon="3.98126">
        <ele>843</ele>
        <time>2021-04-15T10:49:35Z</time>
      </trkpt>
      <trkpt lat="45.29627" lon="3.98123">
        <ele>843</ele>
        <time>2021-04-15T10:49:36Z</time>
      </trkpt>
      <trkpt lat="45.29607" lon="3.98115">
        <ele>842</ele>
        <time>2021-04-15T10:49:37Z</time>
      </trkpt>
      <trkpt lat="45.29598" lon="3.98112">
        <ele>840</ele>
        <time>2021-04-15T10:49:39Z</time>
      </trkpt>
      <trkpt lat="45.29588" lon="3.98111">
        <ele>840</ele>
        <time>2021-04-15T10:49:40Z</time>
      </trkpt>
      <trkpt lat="45.29579" lon="3.9811">
        <ele>838</ele>
        <time>2021-04-15T10:49:41Z</time>
      </trkpt>
      <trkpt lat="45.29569" lon="3.98108">
        <ele>837</ele>
        <time>2021-04-15T10:49:42Z</time>
      </trkpt>
      <trkpt lat="45.2956" lon="3.98106">
        <ele>835</ele>
        <time>2021-04-15T10:49:43Z</time>
      </trkpt>
      <trkpt lat="45.29551" lon="3.98103">
        <ele>835</ele>
        <time>2021-04-15T10:49:44Z</time>
      </trkpt>
      <trkpt lat="45.29542" lon="3.98098">
        <ele>834</ele>
        <time>2021-04-15T10:49:45Z</time>
      </trkpt>
      <trkpt lat="45.29534" lon="3.9809">
        <ele>834</ele>
        <time>2021-04-15T10:49:46Z</time>
      </trkpt>
      <trkpt lat="45.29526" lon="3.98083">
        <ele>832</ele>
        <time>2021-04-15T10:49:47Z</time>
      </trkpt>
      <trkpt lat="45.29517" lon="3.98079">
        <ele>831</ele>
        <time>2021-04-15T10:49:48Z</time>
      </trkpt>
      <trkpt lat="45.29508" lon="3.98076">
        <ele>831</ele>
        <time>2021-04-15T10:49:49Z</time>
      </trkpt>
      <trkpt lat="45.29499" lon="3.98074">
        <ele>830</ele>
        <time>2021-04-15T10:49:50Z</time>
      </trkpt>
      <trkpt lat="45.2949" lon="3.98074">
        <ele>829</ele>
        <time>2021-04-15T10:49:51Z</time>
      </trkpt>
      <trkpt lat="45.29482" lon="3.98075">
        <ele>828</ele>
        <time>2021-04-15T10:49:52Z</time>
      </trkpt>
      <trkpt lat="45.29475" lon="3.98077">
        <ele>827</ele>
        <time>2021-04-15T10:49:53Z</time>
      </trkpt>
      <trkpt lat="45.2947" lon="3.98081">
        <ele>826</ele>
        <time>2021-04-15T10:49:54Z</time>
      </trkpt>
      <trkpt lat="45.29463" lon="3.98089">
        <ele>825</ele>
        <time>2021-04-15T10:49:55Z</time>
      </trkpt>
      <trkpt lat="45.2946" lon="3.98092">
        <ele>824</ele>
        <time>2021-04-15T10:49:57Z</time>
      </trkpt>
      <trkpt lat="45.29457" lon="3.98093">
        <ele>822</ele>
        <time>2021-04-15T10:49:59Z</time>
      </trkpt>
      <trkpt lat="45.29455" lon="3.98089">
        <ele>821</ele>
        <time>2021-04-15T10:50:01Z</time>
      </trkpt>
      <trkpt lat="45.29454" lon="3.98085">
        <ele>821</ele>
        <time>2021-04-15T10:50:02Z</time>
      </trkpt>
      <trkpt lat="45.29454" lon="3.98082">
        <ele>820</ele>
        <time>2021-04-15T10:50:03Z</time>
      </trkpt>
      <trkpt lat="45.29454" lon="3.98078">
        <ele>820</ele>
        <time>2021-04-15T10:50:04Z</time>
      </trkpt>
      <trkpt lat="45.29454" lon="3.98073">
        <ele>819</ele>
        <time>2021-04-15T10:50:05Z</time>
      </trkpt>
      <trkpt lat="45.29454" lon="3.98068">
        <ele>819</ele>
        <time>2021-04-15T10:50:06Z</time>
      </trkpt>
      <trkpt lat="45.29453" lon="3.98062">
        <ele>818</ele>
        <time>2021-04-15T10:50:07Z</time>
      </trkpt>
      <trkpt lat="45.29451" lon="3.98055">
        <ele>818</ele>
        <time>2021-04-15T10:50:08Z</time>
      </trkpt>
      <trkpt lat="45.29451" lon="3.98048">
        <ele>817</ele>
        <time>2021-04-15T10:50:09Z</time>
      </trkpt>
      <trkpt lat="45.2945" lon="3.9804">
        <ele>817</ele>
        <time>2021-04-15T10:50:10Z</time>
      </trkpt>
      <trkpt lat="45.2945" lon="3.98032">
        <ele>816</ele>
        <time>2021-04-15T10:50:11Z</time>
      </trkpt>
      <trkpt lat="45.29449" lon="3.98025">
        <ele>816</ele>
        <time>2021-04-15T10:50:12Z</time>
      </trkpt>
      <trkpt lat="45.29446" lon="3.98018">
        <ele>816</ele>
        <time>2021-04-15T10:50:13Z</time>
      </trkpt>
      <trkpt lat="45.29443" lon="3.98012">
        <ele>815</ele>
        <time>2021-04-15T10:50:14Z</time>
      </trkpt>
      <trkpt lat="45.29438" lon="3.98007">
        <ele>814</ele>
        <time>2021-04-15T10:50:15Z</time>
      </trkpt>
      <trkpt lat="45.29433" lon="3.98002">
        <ele>814</ele>
        <time>2021-04-15T10:50:16Z</time>
      </trkpt>
      <trkpt lat="45.29427" lon="3.97997">
        <ele>813</ele>
        <time>2021-04-15T10:50:17Z</time>
      </trkpt>
      <trkpt lat="45.2942" lon="3.97992">
        <ele>812</ele>
        <time>2021-04-15T10:50:18Z</time>
      </trkpt>
      <trkpt lat="45.29412" lon="3.97989">
        <ele>811</ele>
        <time>2021-04-15T10:50:19Z</time>
      </trkpt>
      <trkpt lat="45.29404" lon="3.97988">
        <ele>810</ele>
        <time>2021-04-15T10:50:20Z</time>
      </trkpt>
      <trkpt lat="45.29396" lon="3.97986">
        <ele>810</ele>
        <time>2021-04-15T10:50:21Z</time>
      </trkpt>
      <trkpt lat="45.29387" lon="3.97984">
        <ele>809</ele>
        <time>2021-04-15T10:50:22Z</time>
      </trkpt>
      <trkpt lat="45.29378" lon="3.97981">
        <ele>807</ele>
        <time>2021-04-15T10:50:23Z</time>
      </trkpt>
      <trkpt lat="45.2937" lon="3.97976">
        <ele>806</ele>
        <time>2021-04-15T10:50:24Z</time>
      </trkpt>
      <trkpt lat="45.29361" lon="3.97971">
        <ele>806</ele>
        <time>2021-04-15T10:50:25Z</time>
      </trkpt>
      <trkpt lat="45.29352" lon="3.97967">
        <ele>805</ele>
        <time>2021-04-15T10:50:26Z</time>
      </trkpt>
      <trkpt lat="45.29343" lon="3.97964">
        <ele>805</ele>
        <time>2021-04-15T10:50:27Z</time>
      </trkpt>
      <trkpt lat="45.29333" lon="3.9796">
        <ele>804</ele>
        <time>2021-04-15T10:50:28Z</time>
      </trkpt>
      <trkpt lat="45.29324" lon="3.97956">
        <ele>803</ele>
        <time>2021-04-15T10:50:29Z</time>
      </trkpt>
      <trkpt lat="45.29314" lon="3.97954">
        <ele>803</ele>
        <time>2021-04-15T10:50:30Z</time>
      </trkpt>
      <trkpt lat="45.29304" lon="3.97951">
        <ele>802</ele>
        <time>2021-04-15T10:50:31Z</time>
      </trkpt>
      <trkpt lat="45.29294" lon="3.97949">
        <ele>802</ele>
        <time>2021-04-15T10:50:32Z</time>
      </trkpt>
      <trkpt lat="45.29274" lon="3.97946">
        <ele>802</ele>
        <time>2021-04-15T10:50:33Z</time>
      </trkpt>
      <trkpt lat="45.29257" lon="3.97944">
        <ele>800</ele>
        <time>2021-04-15T10:50:36Z</time>
      </trkpt>
      <trkpt lat="45.29243" lon="3.97941">
        <ele>799</ele>
        <time>2021-04-15T10:50:38Z</time>
      </trkpt>
      <trkpt lat="45.29236" lon="3.97943">
        <ele>798</ele>
        <time>2021-04-15T10:50:39Z</time>
      </trkpt>
      <trkpt lat="45.29228" lon="3.97946">
        <ele>797</ele>
        <time>2021-04-15T10:50:40Z</time>
      </trkpt>
      <trkpt lat="45.29221" lon="3.97948">
        <ele>797</ele>
        <time>2021-04-15T10:50:41Z</time>
      </trkpt>
      <trkpt lat="45.29204" lon="3.97946">
        <ele>796</ele>
        <time>2021-04-15T10:50:43Z</time>
      </trkpt>
      <trkpt lat="45.29186" lon="3.97938">
        <ele>795</ele>
        <time>2021-04-15T10:50:45Z</time>
      </trkpt>
      <trkpt lat="45.29178" lon="3.97933">
        <ele>794</ele>
        <time>2021-04-15T10:50:46Z</time>
      </trkpt>
      <trkpt lat="45.29162" lon="3.97935">
        <ele>792</ele>
        <time>2021-04-15T10:50:48Z</time>
      </trkpt>
      <trkpt lat="45.29147" lon="3.97949">
        <ele>791</ele>
        <time>2021-04-15T10:50:50Z</time>
      </trkpt>
      <trkpt lat="45.29139" lon="3.97958">
        <ele>791</ele>
        <time>2021-04-15T10:50:51Z</time>
      </trkpt>
      <trkpt lat="45.29131" lon="3.97968">
        <ele>790</ele>
        <time>2021-04-15T10:50:52Z</time>
      </trkpt>
      <trkpt lat="45.29123" lon="3.97974">
        <ele>790</ele>
        <time>2021-04-15T10:50:53Z</time>
      </trkpt>
      <trkpt lat="45.29107" lon="3.97975">
        <ele>788</ele>
        <time>2021-04-15T10:50:55Z</time>
      </trkpt>
      <trkpt lat="45.29092" lon="3.97966">
        <ele>787</ele>
        <time>2021-04-15T10:50:57Z</time>
      </trkpt>
      <trkpt lat="45.29083" lon="3.97961">
        <ele>786</ele>
        <time>2021-04-15T10:50:59Z</time>
      </trkpt>
      <trkpt lat="45.2908" lon="3.97961">
        <ele>785</ele>
        <time>2021-04-15T10:51:00Z</time>
      </trkpt>
      <trkpt lat="45.29077" lon="3.9796">
        <ele>784</ele>
        <time>2021-04-15T10:51:01Z</time>
      </trkpt>
      <trkpt lat="45.29072" lon="3.97958">
        <ele>783</ele>
        <time>2021-04-15T10:51:02Z</time>
      </trkpt>
      <trkpt lat="45.29069" lon="3.97953">
        <ele>782</ele>
        <time>2021-04-15T10:51:03Z</time>
      </trkpt>
      <trkpt lat="45.29065" lon="3.97947">
        <ele>781</ele>
        <time>2021-04-15T10:51:04Z</time>
      </trkpt>
      <trkpt lat="45.29062" lon="3.97943">
        <ele>780</ele>
        <time>2021-04-15T10:51:05Z</time>
      </trkpt>
      <trkpt lat="45.29061" lon="3.9794">
        <ele>778</ele>
        <time>2021-04-15T10:51:07Z</time>
      </trkpt>
      <trkpt lat="45.2906" lon="3.97937">
        <ele>774</ele>
        <time>2021-04-15T10:51:13Z</time>
      </trkpt>
      <trkpt lat="45.29057" lon="3.97933">
        <ele>774</ele>
        <time>2021-04-15T10:51:14Z</time>
      </trkpt>
      <trkpt lat="45.29054" lon="3.9793">
        <ele>773</ele>
        <time>2021-04-15T10:51:15Z</time>
      </trkpt>
      <trkpt lat="45.29051" lon="3.97926">
        <ele>773</ele>
        <time>2021-04-15T10:51:16Z</time>
      </trkpt>
      <trkpt lat="45.29046" lon="3.97921">
        <ele>772</ele>
        <time>2021-04-15T10:51:17Z</time>
      </trkpt>
      <trkpt lat="45.29041" lon="3.97917">
        <ele>772</ele>
        <time>2021-04-15T10:51:18Z</time>
      </trkpt>
      <trkpt lat="45.29035" lon="3.97912">
        <ele>772</ele>
        <time>2021-04-15T10:51:19Z</time>
      </trkpt>
      <trkpt lat="45.29029" lon="3.97907">
        <ele>771</ele>
        <time>2021-04-15T10:51:20Z</time>
      </trkpt>
      <trkpt lat="45.29023" lon="3.97902">
        <ele>771</ele>
        <time>2021-04-15T10:51:21Z</time>
      </trkpt>
      <trkpt lat="45.29008" lon="3.97896">
        <ele>771</ele>
        <time>2021-04-15T10:51:22Z</time>
      </trkpt>
      <trkpt lat="45.28999" lon="3.97895">
        <ele>769</ele>
        <time>2021-04-15T10:51:24Z</time>
      </trkpt>
      <trkpt lat="45.28991" lon="3.97894">
        <ele>769</ele>
        <time>2021-04-15T10:51:25Z</time>
      </trkpt>
      <trkpt lat="45.28981" lon="3.97892">
        <ele>768</ele>
        <time>2021-04-15T10:51:26Z</time>
      </trkpt>
      <trkpt lat="45.28963" lon="3.9789">
        <ele>767</ele>
        <time>2021-04-15T10:51:27Z</time>
      </trkpt>
      <trkpt lat="45.28937" lon="3.97893">
        <ele>765</ele>
        <time>2021-04-15T10:51:30Z</time>
      </trkpt>
      <trkpt lat="45.28921" lon="3.97901">
        <ele>763</ele>
        <time>2021-04-15T10:51:33Z</time>
      </trkpt>
      <trkpt lat="45.28911" lon="3.97912">
        <ele>761</ele>
        <time>2021-04-15T10:51:35Z</time>
      </trkpt>
      <trkpt lat="45.28901" lon="3.97917">
        <ele>758</ele>
        <time>2021-04-15T10:51:38Z</time>
      </trkpt>
      <trkpt lat="45.28899" lon="3.97917">
        <ele>757</ele>
        <time>2021-04-15T10:51:39Z</time>
      </trkpt>
      <trkpt lat="45.28896" lon="3.97919">
        <ele>756</ele>
        <time>2021-04-15T10:51:40Z</time>
      </trkpt>
      <trkpt lat="45.28894" lon="3.9792">
        <ele>755</ele>
        <time>2021-04-15T10:51:41Z</time>
      </trkpt>
      <trkpt lat="45.28892" lon="3.97921">
        <ele>754</ele>
        <time>2021-04-15T10:51:42Z</time>
      </trkpt>
      <trkpt lat="45.2889" lon="3.97923">
        <ele>753</ele>
        <time>2021-04-15T10:51:43Z</time>
      </trkpt>
      <trkpt lat="45.28887" lon="3.97925">
        <ele>753</ele>
        <time>2021-04-15T10:51:44Z</time>
      </trkpt>
      <trkpt lat="45.28876" lon="3.97933">
        <ele>751</ele>
        <time>2021-04-15T10:51:46Z</time>
      </trkpt>
      <trkpt lat="45.28874" lon="3.97935">
        <ele>750</ele>
        <time>2021-04-15T10:51:48Z</time>
      </trkpt>
      <trkpt lat="45.28871" lon="3.97936">
        <ele>750</ele>
        <time>2021-04-15T10:51:49Z</time>
      </trkpt>
      <trkpt lat="45.28864" lon="3.9794">
        <ele>749</ele>
        <time>2021-04-15T10:51:51Z</time>
      </trkpt>
      <trkpt lat="45.28862" lon="3.97941">
        <ele>749</ele>
        <time>2021-04-15T10:51:52Z</time>
      </trkpt>
      <trkpt lat="45.2886" lon="3.97946">
        <ele>744</ele>
        <time>2021-04-15T10:52:02Z</time>
      </trkpt>
      <trkpt lat="45.28856" lon="3.97946">
        <ele>739</ele>
        <time>2021-04-15T10:55:38Z</time>
      </trkpt>
      <trkpt lat="45.28851" lon="3.97949">
        <ele>739</ele>
        <time>2021-04-15T10:55:39Z</time>
      </trkpt>
      <trkpt lat="45.28847" lon="3.97951">
        <ele>738</ele>
        <time>2021-04-15T10:55:41Z</time>
      </trkpt>
      <trkpt lat="45.28842" lon="3.97954">
        <ele>738</ele>
        <time>2021-04-15T10:55:42Z</time>
      </trkpt>
      <trkpt lat="45.28837" lon="3.97957">
        <ele>738</ele>
        <time>2021-04-15T10:55:43Z</time>
      </trkpt>
      <trkpt lat="45.28825" lon="3.97959">
        <ele>737</ele>
        <time>2021-04-15T10:55:45Z</time>
      </trkpt>
      <trkpt lat="45.28811" lon="3.97956">
        <ele>737</ele>
        <time>2021-04-15T10:55:47Z</time>
      </trkpt>
      <trkpt lat="45.28796" lon="3.97955">
        <ele>736</ele>
        <time>2021-04-15T10:55:49Z</time>
      </trkpt>
      <trkpt lat="45.28789" lon="3.97954">
        <ele>736</ele>
        <time>2021-04-15T10:55:50Z</time>
      </trkpt>
      <trkpt lat="45.28782" lon="3.97956">
        <ele>736</ele>
        <time>2021-04-15T10:55:51Z</time>
      </trkpt>
      <trkpt lat="45.28776" lon="3.97968">
        <ele>735</ele>
        <time>2021-04-15T10:55:52Z</time>
      </trkpt>
      <trkpt lat="45.28775" lon="3.97975">
        <ele>733</ele>
        <time>2021-04-15T10:55:54Z</time>
      </trkpt>
      <trkpt lat="45.28773" lon="3.97982">
        <ele>732</ele>
        <time>2021-04-15T10:55:55Z</time>
      </trkpt>
      <trkpt lat="45.2877" lon="3.97985">
        <ele>732</ele>
        <time>2021-04-15T10:55:56Z</time>
      </trkpt>
      <trkpt lat="45.28767" lon="3.97985">
        <ele>731</ele>
        <time>2021-04-15T10:55:57Z</time>
      </trkpt>
      <trkpt lat="45.28764" lon="3.97984">
        <ele>730</ele>
        <time>2021-04-15T10:55:58Z</time>
      </trkpt>
      <trkpt lat="45.28758" lon="3.97979">
        <ele>730</ele>
        <time>2021-04-15T10:55:59Z</time>
      </trkpt>
      <trkpt lat="45.28754" lon="3.97976">
        <ele>729</ele>
        <time>2021-04-15T10:56:01Z</time>
      </trkpt>
      <trkpt lat="45.28751" lon="3.97973">
        <ele>729</ele>
        <time>2021-04-15T10:56:02Z</time>
      </trkpt>
      <trkpt lat="45.28746" lon="3.9797">
        <ele>729</ele>
        <time>2021-04-15T10:56:03Z</time>
      </trkpt>
      <trkpt lat="45.28742" lon="3.97967">
        <ele>729</ele>
        <time>2021-04-15T10:56:04Z</time>
      </trkpt>
      <trkpt lat="45.28738" lon="3.97963">
        <ele>727</ele>
        <time>2021-04-15T10:56:05Z</time>
      </trkpt>
      <trkpt lat="45.28736" lon="3.97956">
        <ele>726</ele>
        <time>2021-04-15T10:56:06Z</time>
      </trkpt>
      <trkpt lat="45.28735" lon="3.97949">
        <ele>725</ele>
        <time>2021-04-15T10:56:07Z</time>
      </trkpt>
      <trkpt lat="45.28734" lon="3.97942">
        <ele>724</ele>
        <time>2021-04-15T10:56:08Z</time>
      </trkpt>
      <trkpt lat="45.28734" lon="3.97935">
        <ele>723</ele>
        <time>2021-04-15T10:56:09Z</time>
      </trkpt>
      <trkpt lat="45.28733" lon="3.9793">
        <ele>723</ele>
        <time>2021-04-15T10:56:10Z</time>
      </trkpt>
      <trkpt lat="45.2873" lon="3.9793">
        <ele>721</ele>
        <time>2021-04-15T10:56:11Z</time>
      </trkpt>
      <trkpt lat="45.28727" lon="3.97933">
        <ele>720</ele>
        <time>2021-04-15T10:56:12Z</time>
      </trkpt>
      <trkpt lat="45.28725" lon="3.97939">
        <ele>720</ele>
        <time>2021-04-15T10:56:13Z</time>
      </trkpt>
      <trkpt lat="45.28723" lon="3.97944">
        <ele>719</ele>
        <time>2021-04-15T10:56:14Z</time>
      </trkpt>
      <trkpt lat="45.28723" lon="3.97947">
        <ele>719</ele>
        <time>2021-04-15T10:56:15Z</time>
      </trkpt>
      <trkpt lat="45.28721" lon="3.97949">
        <ele>718</ele>
        <time>2021-04-15T10:56:16Z</time>
      </trkpt>
      <trkpt lat="45.28717" lon="3.97947">
        <ele>718</ele>
        <time>2021-04-15T10:56:17Z</time>
      </trkpt>
      <trkpt lat="45.28716" lon="3.97944">
        <ele>716</ele>
        <time>2021-04-15T10:56:19Z</time>
      </trkpt>
      <trkpt lat="45.28715" lon="3.9794">
        <ele>716</ele>
        <time>2021-04-15T10:56:20Z</time>
      </trkpt>
      <trkpt lat="45.28715" lon="3.97936">
        <ele>716</ele>
        <time>2021-04-15T10:56:21Z</time>
      </trkpt>
      <trkpt lat="45.28714" lon="3.97931">
        <ele>715</ele>
        <time>2021-04-15T10:56:22Z</time>
      </trkpt>
      <trkpt lat="45.28715" lon="3.97925">
        <ele>714</ele>
        <time>2021-04-15T10:56:23Z</time>
      </trkpt>
      <trkpt lat="45.28715" lon="3.97919">
        <ele>713</ele>
        <time>2021-04-15T10:56:24Z</time>
      </trkpt>
      <trkpt lat="45.28716" lon="3.97912">
        <ele>713</ele>
        <time>2021-04-15T10:56:25Z</time>
      </trkpt>
      <trkpt lat="45.28717" lon="3.97904">
        <ele>712</ele>
        <time>2021-04-15T10:56:26Z</time>
      </trkpt>
      <trkpt lat="45.28719" lon="3.97897">
        <ele>711</ele>
        <time>2021-04-15T10:56:27Z</time>
      </trkpt>
      <trkpt lat="45.28723" lon="3.97889">
        <ele>711</ele>
        <time>2021-04-15T10:56:28Z</time>
      </trkpt>
      <trkpt lat="45.28727" lon="3.97881">
        <ele>710</ele>
        <time>2021-04-15T10:56:29Z</time>
      </trkpt>
      <trkpt lat="45.28731" lon="3.97873">
        <ele>709</ele>
        <time>2021-04-15T10:56:30Z</time>
      </trkpt>
      <trkpt lat="45.28736" lon="3.97866">
        <ele>709</ele>
        <time>2021-04-15T10:56:31Z</time>
      </trkpt>
      <trkpt lat="45.28741" lon="3.97858">
        <ele>708</ele>
        <time>2021-04-15T10:56:32Z</time>
      </trkpt>
      <trkpt lat="45.28746" lon="3.97851">
        <ele>708</ele>
        <time>2021-04-15T10:56:33Z</time>
      </trkpt>
      <trkpt lat="45.28751" lon="3.97846">
        <ele>706</ele>
        <time>2021-04-15T10:56:34Z</time>
      </trkpt>
      <trkpt lat="45.28753" lon="3.9784">
        <ele>706</ele>
        <time>2021-04-15T10:56:35Z</time>
      </trkpt>
      <trkpt lat="45.28746" lon="3.97837">
        <ele>705</ele>
        <time>2021-04-15T10:56:36Z</time>
      </trkpt>
      <trkpt lat="45.28742" lon="3.97837">
        <ele>705</ele>
        <time>2021-04-15T10:56:37Z</time>
      </trkpt>
      <trkpt lat="45.2874" lon="3.97833">
        <ele>704</ele>
        <time>2021-04-15T10:56:39Z</time>
      </trkpt>
      <trkpt lat="45.28741" lon="3.97827">
        <ele>703</ele>
        <time>2021-04-15T10:56:40Z</time>
      </trkpt>
      <trkpt lat="45.28744" lon="3.97822">
        <ele>702</ele>
        <time>2021-04-15T10:56:41Z</time>
      </trkpt>
      <trkpt lat="45.28749" lon="3.97818">
        <ele>701</ele>
        <time>2021-04-15T10:56:42Z</time>
      </trkpt>
      <trkpt lat="45.28755" lon="3.97813">
        <ele>701</ele>
        <time>2021-04-15T10:56:43Z</time>
      </trkpt>
      <trkpt lat="45.28761" lon="3.97808">
        <ele>701</ele>
        <time>2021-04-15T10:56:44Z</time>
      </trkpt>
      <trkpt lat="45.28768" lon="3.97804">
        <ele>700</ele>
        <time>2021-04-15T10:56:45Z</time>
      </trkpt>
      <trkpt lat="45.28781" lon="3.97797">
        <ele>700</ele>
        <time>2021-04-15T10:56:46Z</time>
      </trkpt>
      <trkpt lat="45.28793" lon="3.97791">
        <ele>698</ele>
        <time>2021-04-15T10:56:49Z</time>
      </trkpt>
      <trkpt lat="45.28808" lon="3.97783">
        <ele>698</ele>
        <time>2021-04-15T10:56:51Z</time>
      </trkpt>
      <trkpt lat="45.28817" lon="3.97778">
        <ele>697</ele>
        <time>2021-04-15T10:56:52Z</time>
      </trkpt>
      <trkpt lat="45.28833" lon="3.97768">
        <ele>696</ele>
        <time>2021-04-15T10:56:54Z</time>
      </trkpt>
      <trkpt lat="45.28846" lon="3.97758">
        <ele>695</ele>
        <time>2021-04-15T10:56:55Z</time>
      </trkpt>
      <trkpt lat="45.28857" lon="3.97746">
        <ele>694</ele>
        <time>2021-04-15T10:56:58Z</time>
      </trkpt>
      <trkpt lat="45.2886" lon="3.97738">
        <ele>693</ele>
        <time>2021-04-15T10:56:59Z</time>
      </trkpt>
      <trkpt lat="45.28864" lon="3.97729">
        <ele>692</ele>
        <time>2021-04-15T10:57:00Z</time>
      </trkpt>
      <trkpt lat="45.28868" lon="3.97721">
        <ele>691</ele>
        <time>2021-04-15T10:57:01Z</time>
      </trkpt>
      <trkpt lat="45.28872" lon="3.97713">
        <ele>691</ele>
        <time>2021-04-15T10:57:02Z</time>
      </trkpt>
      <trkpt lat="45.28877" lon="3.97704">
        <ele>690</ele>
        <time>2021-04-15T10:57:03Z</time>
      </trkpt>
      <trkpt lat="45.28883" lon="3.97696">
        <ele>689</ele>
        <time>2021-04-15T10:57:04Z</time>
      </trkpt>
      <trkpt lat="45.28889" lon="3.97688">
        <ele>688</ele>
        <time>2021-04-15T10:57:05Z</time>
      </trkpt>
      <trkpt lat="45.28895" lon="3.9768">
        <ele>688</ele>
        <time>2021-04-15T10:57:06Z</time>
      </trkpt>
      <trkpt lat="45.28899" lon="3.9767">
        <ele>686</ele>
        <time>2021-04-15T10:57:07Z</time>
      </trkpt>
      <trkpt lat="45.28903" lon="3.9766">
        <ele>685</ele>
        <time>2021-04-15T10:57:08Z</time>
      </trkpt>
      <trkpt lat="45.28906" lon="3.97652">
        <ele>685</ele>
        <time>2021-04-15T10:57:09Z</time>
      </trkpt>
      <trkpt lat="45.28909" lon="3.97646">
        <ele>683</ele>
        <time>2021-04-15T10:57:10Z</time>
      </trkpt>
      <trkpt lat="45.28912" lon="3.97642">
        <ele>682</ele>
        <time>2021-04-15T10:57:11Z</time>
      </trkpt>
      <trkpt lat="45.28913" lon="3.9764">
        <ele>680</ele>
        <time>2021-04-15T10:57:12Z</time>
      </trkpt>
      <trkpt lat="45.28913" lon="3.97637">
        <ele>679</ele>
        <time>2021-04-15T10:57:13Z</time>
      </trkpt>
      <trkpt lat="45.28912" lon="3.97634">
        <ele>679</ele>
        <time>2021-04-15T10:57:14Z</time>
      </trkpt>
      <trkpt lat="45.28913" lon="3.97633">
        <ele>677</ele>
        <time>2021-04-15T10:57:21Z</time>
      </trkpt>
      <trkpt lat="45.28909" lon="3.97634">
        <ele>673</ele>
        <time>2021-04-15T10:57:38Z</time>
      </trkpt>
      <trkpt lat="45.28904" lon="3.97641">
        <ele>672</ele>
        <time>2021-04-15T10:57:39Z</time>
      </trkpt>
      <trkpt lat="45.28897" lon="3.97651">
        <ele>671</ele>
        <time>2021-04-15T10:57:41Z</time>
      </trkpt>
      <trkpt lat="45.28893" lon="3.97657">
        <ele>670</ele>
        <time>2021-04-15T10:57:43Z</time>
      </trkpt>
      <trkpt lat="45.28889" lon="3.97662">
        <ele>669</ele>
        <time>2021-04-15T10:57:44Z</time>
      </trkpt>
      <trkpt lat="45.28879" lon="3.97673">
        <ele>668</ele>
        <time>2021-04-15T10:57:46Z</time>
      </trkpt>
      <trkpt lat="45.28868" lon="3.97683">
        <ele>667</ele>
        <time>2021-04-15T10:57:48Z</time>
      </trkpt>
      <trkpt lat="45.28858" lon="3.97692">
        <ele>667</ele>
        <time>2021-04-15T10:57:50Z</time>
      </trkpt>
      <trkpt lat="45.28846" lon="3.97699">
        <ele>667</ele>
        <time>2021-04-15T10:57:52Z</time>
      </trkpt>
      <trkpt lat="45.28832" lon="3.97704">
        <ele>666</ele>
        <time>2021-04-15T10:57:54Z</time>
      </trkpt>
      <trkpt lat="45.28816" lon="3.97709">
        <ele>666</ele>
        <time>2021-04-15T10:57:56Z</time>
      </trkpt>
      <trkpt lat="45.28803" lon="3.97714">
        <ele>665</ele>
        <time>2021-04-15T10:57:58Z</time>
      </trkpt>
      <trkpt lat="45.28791" lon="3.97715">
        <ele>665</ele>
        <time>2021-04-15T10:57:59Z</time>
      </trkpt>
      <trkpt lat="45.28781" lon="3.97716">
        <ele>665</ele>
        <time>2021-04-15T10:58:02Z</time>
      </trkpt>
      <trkpt lat="45.28778" lon="3.97717">
        <ele>664</ele>
        <time>2021-04-15T10:58:03Z</time>
      </trkpt>
      <trkpt lat="45.28775" lon="3.97719">
        <ele>664</ele>
        <time>2021-04-15T10:58:04Z</time>
      </trkpt>
      <trkpt lat="45.28772" lon="3.97721">
        <ele>664</ele>
        <time>2021-04-15T10:58:05Z</time>
      </trkpt>
      <trkpt lat="45.28768" lon="3.97724">
        <ele>663</ele>
        <time>2021-04-15T10:58:06Z</time>
      </trkpt>
      <trkpt lat="45.28762" lon="3.97727">
        <ele>663</ele>
        <time>2021-04-15T10:58:07Z</time>
      </trkpt>
      <trkpt lat="45.28751" lon="3.97732">
        <ele>662</ele>
        <time>2021-04-15T10:58:09Z</time>
      </trkpt>
      <trkpt lat="45.28737" lon="3.97732">
        <ele>661</ele>
        <time>2021-04-15T10:58:11Z</time>
      </trkpt>
      <trkpt lat="45.28728" lon="3.97728">
        <ele>660</ele>
        <time>2021-04-15T10:58:12Z</time>
      </trkpt>
      <trkpt lat="45.28718" lon="3.97725">
        <ele>659</ele>
        <time>2021-04-15T10:58:13Z</time>
      </trkpt>
      <trkpt lat="45.28711" lon="3.97723">
        <ele>659</ele>
        <time>2021-04-15T10:58:14Z</time>
      </trkpt>
      <trkpt lat="45.28704" lon="3.97725">
        <ele>658</ele>
        <time>2021-04-15T10:58:15Z</time>
      </trkpt>
      <trkpt lat="45.28699" lon="3.97729">
        <ele>658</ele>
        <time>2021-04-15T10:58:16Z</time>
      </trkpt>
      <trkpt lat="45.28695" lon="3.97734">
        <ele>657</ele>
        <time>2021-04-15T10:58:17Z</time>
      </trkpt>
      <trkpt lat="45.28687" lon="3.97753">
        <ele>655</ele>
        <time>2021-04-15T10:58:19Z</time>
      </trkpt>
      <trkpt lat="45.28683" lon="3.97763">
        <ele>654</ele>
        <time>2021-04-15T10:58:20Z</time>
      </trkpt>
      <trkpt lat="45.28679" lon="3.97774">
        <ele>654</ele>
        <time>2021-04-15T10:58:21Z</time>
      </trkpt>
      <trkpt lat="45.28674" lon="3.97783">
        <ele>653</ele>
        <time>2021-04-15T10:58:22Z</time>
      </trkpt>
      <trkpt lat="45.28668" lon="3.9779">
        <ele>652</ele>
        <time>2021-04-15T10:58:23Z</time>
      </trkpt>
      <trkpt lat="45.28657" lon="3.978">
        <ele>651</ele>
        <time>2021-04-15T10:58:25Z</time>
      </trkpt>
      <trkpt lat="45.28646" lon="3.97807">
        <ele>651</ele>
        <time>2021-04-15T10:58:27Z</time>
      </trkpt>
      <trkpt lat="45.28635" lon="3.97812">
        <ele>649</ele>
        <time>2021-04-15T10:58:29Z</time>
      </trkpt>
      <trkpt lat="45.28626" lon="3.97822">
        <ele>648</ele>
        <time>2021-04-15T10:58:32Z</time>
      </trkpt>
      <trkpt lat="45.28617" lon="3.97827">
        <ele>647</ele>
        <time>2021-04-15T10:58:35Z</time>
      </trkpt>
      <trkpt lat="45.28609" lon="3.97833">
        <ele>645</ele>
        <time>2021-04-15T10:58:38Z</time>
      </trkpt>
      <trkpt lat="45.28602" lon="3.97841">
        <ele>643</ele>
        <time>2021-04-15T10:58:43Z</time>
      </trkpt>
      <trkpt lat="45.28593" lon="3.97846">
        <ele>639</ele>
        <time>2021-04-15T10:58:47Z</time>
      </trkpt>
      <trkpt lat="45.2859" lon="3.9785">
        <ele>635</ele>
        <time>2021-04-15T10:58:50Z</time>
      </trkpt>
      <trkpt lat="45.28587" lon="3.9785">
        <ele>632</ele>
        <time>2021-04-15T10:58:53Z</time>
      </trkpt>
      <trkpt lat="45.28585" lon="3.9785">
        <ele>631</ele>
        <time>2021-04-15T10:58:55Z</time>
      </trkpt>
      <trkpt lat="45.28581" lon="3.97843">
        <ele>629</ele>
        <time>2021-04-15T10:59:02Z</time>
      </trkpt>
      <trkpt lat="45.28579" lon="3.97842">
        <ele>627</ele>
        <time>2021-04-15T10:59:06Z</time>
      </trkpt>
      <trkpt lat="45.28577" lon="3.97839">
        <ele>625</ele>
        <time>2021-04-15T10:59:10Z</time>
      </trkpt>
      <trkpt lat="45.28576" lon="3.97838">
        <ele>624</ele>
        <time>2021-04-15T10:59:15Z</time>
      </trkpt>
      <trkpt lat="45.28573" lon="3.97834">
        <ele>623</ele>
        <time>2021-04-15T10:59:30Z</time>
      </trkpt>
      <trkpt lat="45.28573" lon="3.97833">
        <ele>623</ele>
        <time>2021-04-15T10:59:31Z</time>
      </trkpt>
      <trkpt lat="45.28571" lon="3.97828">
        <ele>623</ele>
        <time>2021-04-15T10:59:33Z</time>
      </trkpt>
      <trkpt lat="45.2857" lon="3.97826">
        <ele>623</ele>
        <time>2021-04-15T10:59:34Z</time>
      </trkpt>
      <trkpt lat="45.28569" lon="3.97822">
        <ele>622</ele>
        <time>2021-04-15T10:59:36Z</time>
      </trkpt>
      <trkpt lat="45.28568" lon="3.97821">
        <ele>623</ele>
        <time>2021-04-15T10:59:41Z</time>
      </trkpt>
      <trkpt lat="45.28565" lon="3.97823">
        <ele>622</ele>
        <time>2021-04-15T11:00:02Z</time>
      </trkpt>
      <trkpt lat="45.28564" lon="3.97822">
        <ele>622</ele>
        <time>2021-04-15T11:00:03Z</time>
      </trkpt>
      <trkpt lat="45.28562" lon="3.97821">
        <ele>622</ele>
        <time>2021-04-15T11:00:09Z</time>
      </trkpt>
      <trkpt lat="45.28561" lon="3.97825">
        <ele>623</ele>
        <time>2021-04-15T11:00:16Z</time>
      </trkpt>
      <trkpt lat="45.28558" lon="3.97824">
        <ele>623</ele>
        <time>2021-04-15T11:00:17Z</time>
      </trkpt>
      <trkpt lat="45.28556" lon="3.97823">
        <ele>623</ele>
        <time>2021-04-15T11:00:19Z</time>
      </trkpt>
      <trkpt lat="45.28553" lon="3.97823">
        <ele>623</ele>
        <time>2021-04-15T11:00:20Z</time>
      </trkpt>
      <trkpt lat="45.28547" lon="3.97824">
        <ele>623</ele>
        <time>2021-04-15T11:00:21Z</time>
      </trkpt>
      <trkpt lat="45.28545" lon="3.97825">
        <ele>623</ele>
        <time>2021-04-15T11:00:23Z</time>
      </trkpt>
      <trkpt lat="45.28543" lon="3.97826">
        <ele>623</ele>
        <time>2021-04-15T11:00:24Z</time>
      </trkpt>
      <trkpt lat="45.28541" lon="3.97825">
        <ele>623</ele>
        <time>2021-04-15T11:00:27Z</time>
      </trkpt>
      <trkpt lat="45.28538" lon="3.97826">
        <ele>623</ele>
        <time>2021-04-15T11:00:29Z</time>
      </trkpt>
      <trkpt lat="45.28529" lon="3.9783">
        <ele>623</ele>
        <time>2021-04-15T11:00:34Z</time>
      </trkpt>
      <trkpt lat="45.28519" lon="3.97835">
        <ele>623</ele>
        <time>2021-04-15T11:00:38Z</time>
      </trkpt>
      <trkpt lat="45.28509" lon="3.97842">
        <ele>623</ele>
        <time>2021-04-15T11:00:43Z</time>
      </trkpt>
      <trkpt lat="45.28501" lon="3.97849">
        <ele>624</ele>
        <time>2021-04-15T11:00:47Z</time>
      </trkpt>
      <trkpt lat="45.2849" lon="3.97851">
        <ele>625</ele>
        <time>2021-04-15T11:00:52Z</time>
      </trkpt>
      <trkpt lat="45.28483" lon="3.9784">
        <ele>627</ele>
        <time>2021-04-15T11:00:57Z</time>
      </trkpt>
      <trkpt lat="45.28488" lon="3.97829">
        <ele>629</ele>
        <time>2021-04-15T11:01:02Z</time>
      </trkpt>
      <trkpt lat="45.28495" lon="3.97818">
        <ele>631</ele>
        <time>2021-04-15T11:01:06Z</time>
      </trkpt>
      <trkpt lat="45.28497" lon="3.97814">
        <ele>631</ele>
        <time>2021-04-15T11:01:07Z</time>
      </trkpt>
      <trkpt lat="45.285" lon="3.97811">
        <ele>631</ele>
        <time>2021-04-15T11:01:08Z</time>
      </trkpt>
      <trkpt lat="45.28503" lon="3.97807">
        <ele>631</ele>
        <time>2021-04-15T11:01:09Z</time>
      </trkpt>
      <trkpt lat="45.28506" lon="3.97803">
        <ele>631</ele>
        <time>2021-04-15T11:01:10Z</time>
      </trkpt>
      <trkpt lat="45.28508" lon="3.97799">
        <ele>632</ele>
        <time>2021-04-15T11:01:11Z</time>
      </trkpt>
      <trkpt lat="45.2851" lon="3.97796">
        <ele>631</ele>
        <time>2021-04-15T11:01:12Z</time>
      </trkpt>
      <trkpt lat="45.28512" lon="3.97793">
        <ele>632</ele>
        <time>2021-04-15T11:01:13Z</time>
      </trkpt>
      <trkpt lat="45.28516" lon="3.97787">
        <ele>632</ele>
        <time>2021-04-15T11:01:14Z</time>
      </trkpt>
      <trkpt lat="45.28517" lon="3.97784">
        <ele>632</ele>
        <time>2021-04-15T11:01:16Z</time>
      </trkpt>
      <trkpt lat="45.28519" lon="3.97781">
        <ele>633</ele>
        <time>2021-04-15T11:01:17Z</time>
      </trkpt>
      <trkpt lat="45.2852" lon="3.97778">
        <ele>633</ele>
        <time>2021-04-15T11:01:18Z</time>
      </trkpt>
      <trkpt lat="45.28521" lon="3.97775">
        <ele>634</ele>
        <time>2021-04-15T11:01:19Z</time>
      </trkpt>
      <trkpt lat="45.28522" lon="3.97772">
        <ele>634</ele>
        <time>2021-04-15T11:01:20Z</time>
      </trkpt>
      <trkpt lat="45.28523" lon="3.97768">
        <ele>634</ele>
        <time>2021-04-15T11:01:21Z</time>
      </trkpt>
      <trkpt lat="45.28524" lon="3.97765">
        <ele>635</ele>
        <time>2021-04-15T11:01:22Z</time>
      </trkpt>
      <trkpt lat="45.28525" lon="3.97762">
        <ele>635</ele>
        <time>2021-04-15T11:01:23Z</time>
      </trkpt>
      <trkpt lat="45.28526" lon="3.97759">
        <ele>635</ele>
        <time>2021-04-15T11:01:24Z</time>
      </trkpt>
      <trkpt lat="45.28528" lon="3.97756">
        <ele>635</ele>
        <time>2021-04-15T11:01:25Z</time>
      </trkpt>
      <trkpt lat="45.28532" lon="3.97749">
        <ele>636</ele>
        <time>2021-04-15T11:01:26Z</time>
      </trkpt>
      <trkpt lat="45.28533" lon="3.97746">
        <ele>636</ele>
        <time>2021-04-15T11:01:28Z</time>
      </trkpt>
      <trkpt lat="45.28535" lon="3.97743">
        <ele>636</ele>
        <time>2021-04-15T11:01:29Z</time>
      </trkpt>
      <trkpt lat="45.28537" lon="3.97739">
        <ele>636</ele>
        <time>2021-04-15T11:01:30Z</time>
      </trkpt>
      <trkpt lat="45.28538" lon="3.97736">
        <ele>636</ele>
        <time>2021-04-15T11:01:31Z</time>
      </trkpt>
      <trkpt lat="45.2854" lon="3.97734">
        <ele>637</ele>
        <time>2021-04-15T11:01:32Z</time>
      </trkpt>
      <trkpt lat="45.28542" lon="3.97729">
        <ele>637</ele>
        <time>2021-04-15T11:01:33Z</time>
      </trkpt>
      <trkpt lat="45.28544" lon="3.97727">
        <ele>637</ele>
        <time>2021-04-15T11:01:35Z</time>
      </trkpt>
      <trkpt lat="45.28545" lon="3.97724">
        <ele>637</ele>
        <time>2021-04-15T11:01:36Z</time>
      </trkpt>
      <trkpt lat="45.28547" lon="3.97719">
        <ele>638</ele>
        <time>2021-04-15T11:01:38Z</time>
      </trkpt>
      <trkpt lat="45.28548" lon="3.97714">
        <ele>638</ele>
        <time>2021-04-15T11:01:40Z</time>
      </trkpt>
      <trkpt lat="45.28547" lon="3.97708">
        <ele>639</ele>
        <time>2021-04-15T11:01:42Z</time>
      </trkpt>
      <trkpt lat="45.28547" lon="3.97705">
        <ele>639</ele>
        <time>2021-04-15T11:01:43Z</time>
      </trkpt>
      <trkpt lat="45.28547" lon="3.97702">
        <ele>639</ele>
        <time>2021-04-15T11:01:44Z</time>
      </trkpt>
      <trkpt lat="45.28547" lon="3.97699">
        <ele>640</ele>
        <time>2021-04-15T11:01:45Z</time>
      </trkpt>
      <trkpt lat="45.28546" lon="3.97696">
        <ele>640</ele>
        <time>2021-04-15T11:01:46Z</time>
      </trkpt>
      <trkpt lat="45.28544" lon="3.97694">
        <ele>640</ele>
        <time>2021-04-15T11:01:48Z</time>
      </trkpt>
      <trkpt lat="45.28541" lon="3.97693">
        <ele>641</ele>
        <time>2021-04-15T11:01:50Z</time>
      </trkpt>
      <trkpt lat="45.28537" lon="3.97697">
        <ele>643</ele>
        <time>2021-04-15T11:01:52Z</time>
      </trkpt>
      <trkpt lat="45.28535" lon="3.97698">
        <ele>643</ele>
        <time>2021-04-15T11:01:54Z</time>
      </trkpt>
      <trkpt lat="45.28532" lon="3.97698">
        <ele>644</ele>
        <time>2021-04-15T11:01:55Z</time>
      </trkpt>
      <trkpt lat="45.2853" lon="3.977">
        <ele>644</ele>
        <time>2021-04-15T11:01:56Z</time>
      </trkpt>
      <trkpt lat="45.28528" lon="3.977">
        <ele>645</ele>
        <time>2021-04-15T11:01:57Z</time>
      </trkpt>
      <trkpt lat="45.28526" lon="3.97701">
        <ele>645</ele>
        <time>2021-04-15T11:01:58Z</time>
      </trkpt>
      <trkpt lat="45.28518" lon="3.97705">
        <ele>645</ele>
        <time>2021-04-15T11:02:01Z</time>
      </trkpt>
      <trkpt lat="45.28511" lon="3.97714">
        <ele>647</ele>
        <time>2021-04-15T11:02:05Z</time>
      </trkpt>
      <trkpt lat="45.28503" lon="3.97721">
        <ele>649</ele>
        <time>2021-04-15T11:02:08Z</time>
      </trkpt>
      <trkpt lat="45.28501" lon="3.97724">
        <ele>649</ele>
        <time>2021-04-15T11:02:09Z</time>
      </trkpt>
      <trkpt lat="45.28499" lon="3.97727">
        <ele>649</ele>
        <time>2021-04-15T11:02:10Z</time>
      </trkpt>
      <trkpt lat="45.28494" lon="3.97732">
        <ele>649</ele>
        <time>2021-04-15T11:02:11Z</time>
      </trkpt>
      <trkpt lat="45.28491" lon="3.97734">
        <ele>650</ele>
        <time>2021-04-15T11:02:13Z</time>
      </trkpt>
      <trkpt lat="45.28489" lon="3.97736">
        <ele>650</ele>
        <time>2021-04-15T11:02:14Z</time>
      </trkpt>
      <trkpt lat="45.28487" lon="3.97739">
        <ele>651</ele>
        <time>2021-04-15T11:02:15Z</time>
      </trkpt>
      <trkpt lat="45.28483" lon="3.97745">
        <ele>651</ele>
        <time>2021-04-15T11:02:16Z</time>
      </trkpt>
      <trkpt lat="45.28481" lon="3.97748">
        <ele>651</ele>
        <time>2021-04-15T11:02:18Z</time>
      </trkpt>
      <trkpt lat="45.28474" lon="3.97757">
        <ele>653</ele>
        <time>2021-04-15T11:02:21Z</time>
      </trkpt>
      <trkpt lat="45.28466" lon="3.97766">
        <ele>654</ele>
        <time>2021-04-15T11:02:24Z</time>
      </trkpt>
      <trkpt lat="45.28459" lon="3.97774">
        <ele>655</ele>
        <time>2021-04-15T11:02:27Z</time>
      </trkpt>
      <trkpt lat="45.2845" lon="3.97783">
        <ele>656</ele>
        <time>2021-04-15T11:02:30Z</time>
      </trkpt>
      <trkpt lat="45.28438" lon="3.97787">
        <ele>657</ele>
        <time>2021-04-15T11:02:35Z</time>
      </trkpt>
      <trkpt lat="45.28427" lon="3.97796">
        <ele>659</ele>
        <time>2021-04-15T11:02:39Z</time>
      </trkpt>
      <trkpt lat="45.28425" lon="3.97798">
        <ele>659</ele>
        <time>2021-04-15T11:02:40Z</time>
      </trkpt>
      <trkpt lat="45.28423" lon="3.978">
        <ele>660</ele>
        <time>2021-04-15T11:02:41Z</time>
      </trkpt>
      <trkpt lat="45.28415" lon="3.97812">
        <ele>662</ele>
        <time>2021-04-15T11:02:45Z</time>
      </trkpt>
      <trkpt lat="45.28407" lon="3.97823">
        <ele>663</ele>
        <time>2021-04-15T11:02:49Z</time>
      </trkpt>
      <trkpt lat="45.28401" lon="3.97837">
        <ele>665</ele>
        <time>2021-04-15T11:02:53Z</time>
      </trkpt>
      <trkpt lat="45.28401" lon="3.97851">
        <ele>667</ele>
        <time>2021-04-15T11:02:57Z</time>
      </trkpt>
      <trkpt lat="45.284" lon="3.97855">
        <ele>668</ele>
        <time>2021-04-15T11:02:58Z</time>
      </trkpt>
      <trkpt lat="45.28399" lon="3.97858">
        <ele>668</ele>
        <time>2021-04-15T11:02:59Z</time>
      </trkpt>
      <trkpt lat="45.28398" lon="3.97861">
        <ele>668</ele>
        <time>2021-04-15T11:03:00Z</time>
      </trkpt>
      <trkpt lat="45.28392" lon="3.97872">
        <ele>670</ele>
        <time>2021-04-15T11:03:04Z</time>
      </trkpt>
      <trkpt lat="45.28385" lon="3.97888">
        <ele>671</ele>
        <time>2021-04-15T11:03:07Z</time>
      </trkpt>
      <trkpt lat="45.28383" lon="3.97904">
        <ele>673</ele>
        <time>2021-04-15T11:03:10Z</time>
      </trkpt>
      <trkpt lat="45.28383" lon="3.97908">
        <ele>673</ele>
        <time>2021-04-15T11:03:11Z</time>
      </trkpt>
      <trkpt lat="45.28383" lon="3.97911">
        <ele>674</ele>
        <time>2021-04-15T11:03:12Z</time>
      </trkpt>
      <trkpt lat="45.28384" lon="3.97919">
        <ele>674</ele>
        <time>2021-04-15T11:03:14Z</time>
      </trkpt>
      <trkpt lat="45.28384" lon="3.97923">
        <ele>675</ele>
        <time>2021-04-15T11:03:15Z</time>
      </trkpt>
      <trkpt lat="45.28383" lon="3.97932">
        <ele>675</ele>
        <time>2021-04-15T11:03:16Z</time>
      </trkpt>
      <trkpt lat="45.28383" lon="3.97935">
        <ele>675</ele>
        <time>2021-04-15T11:03:18Z</time>
      </trkpt>
      <trkpt lat="45.28382" lon="3.97938">
        <ele>676</ele>
        <time>2021-04-15T11:03:19Z</time>
      </trkpt>
      <trkpt lat="45.28381" lon="3.9794">
        <ele>676</ele>
        <time>2021-04-15T11:03:21Z</time>
      </trkpt>
      <trkpt lat="45.2838" lon="3.97944">
        <ele>677</ele>
        <time>2021-04-15T11:03:23Z</time>
      </trkpt>
      <trkpt lat="45.2838" lon="3.97949">
        <ele>678</ele>
        <time>2021-04-15T11:03:25Z</time>
      </trkpt>
      <trkpt lat="45.2838" lon="3.97953">
        <ele>678</ele>
        <time>2021-04-15T11:03:27Z</time>
      </trkpt>
      <trkpt lat="45.28381" lon="3.97957">
        <ele>679</ele>
        <time>2021-04-15T11:03:29Z</time>
      </trkpt>
      <trkpt lat="45.28382" lon="3.9796">
        <ele>679</ele>
        <time>2021-04-15T11:03:30Z</time>
      </trkpt>
      <trkpt lat="45.28383" lon="3.97964">
        <ele>679</ele>
        <time>2021-04-15T11:03:31Z</time>
      </trkpt>
      <trkpt lat="45.28383" lon="3.97967">
        <ele>680</ele>
        <time>2021-04-15T11:03:32Z</time>
      </trkpt>
      <trkpt lat="45.28383" lon="3.97969">
        <ele>680</ele>
        <time>2021-04-15T11:03:33Z</time>
      </trkpt>
      <trkpt lat="45.28383" lon="3.97974">
        <ele>680</ele>
        <time>2021-04-15T11:03:35Z</time>
      </trkpt>
      <trkpt lat="45.28383" lon="3.97977">
        <ele>680</ele>
        <time>2021-04-15T11:03:36Z</time>
      </trkpt>
      <trkpt lat="45.28383" lon="3.97981">
        <ele>680</ele>
        <time>2021-04-15T11:03:37Z</time>
      </trkpt>
      <trkpt lat="45.28382" lon="3.97984">
        <ele>680</ele>
        <time>2021-04-15T11:03:38Z</time>
      </trkpt>
      <trkpt lat="45.28381" lon="3.97987">
        <ele>680</ele>
        <time>2021-04-15T11:03:39Z</time>
      </trkpt>
      <trkpt lat="45.2838" lon="3.97989">
        <ele>680</ele>
        <time>2021-04-15T11:03:40Z</time>
      </trkpt>
      <trkpt lat="45.28378" lon="3.9799">
        <ele>680</ele>
        <time>2021-04-15T11:03:41Z</time>
      </trkpt>
      <trkpt lat="45.28375" lon="3.97992">
        <ele>680</ele>
        <time>2021-04-15T11:03:42Z</time>
      </trkpt>
      <trkpt lat="45.28372" lon="3.97996">
        <ele>680</ele>
        <time>2021-04-15T11:03:43Z</time>
      </trkpt>
      <trkpt lat="45.2837" lon="3.98002">
        <ele>680</ele>
        <time>2021-04-15T11:03:44Z</time>
      </trkpt>
      <trkpt lat="45.28367" lon="3.98008">
        <ele>680</ele>
        <time>2021-04-15T11:03:45Z</time>
      </trkpt>
      <trkpt lat="45.2836" lon="3.98017">
        <ele>680</ele>
        <time>2021-04-15T11:03:46Z</time>
      </trkpt>
      <trkpt lat="45.28357" lon="3.98021">
        <ele>680</ele>
        <time>2021-04-15T11:03:48Z</time>
      </trkpt>
      <trkpt lat="45.28355" lon="3.98024">
        <ele>680</ele>
        <time>2021-04-15T11:03:49Z</time>
      </trkpt>
      <trkpt lat="45.28354" lon="3.98027">
        <ele>680</ele>
        <time>2021-04-15T11:03:50Z</time>
      </trkpt>
      <trkpt lat="45.28352" lon="3.98031">
        <ele>679</ele>
        <time>2021-04-15T11:03:51Z</time>
      </trkpt>
      <trkpt lat="45.2835" lon="3.98034">
        <ele>679</ele>
        <time>2021-04-15T11:03:52Z</time>
      </trkpt>
      <trkpt lat="45.28347" lon="3.98038">
        <ele>679</ele>
        <time>2021-04-15T11:03:53Z</time>
      </trkpt>
      <trkpt lat="45.28344" lon="3.98043">
        <ele>678</ele>
        <time>2021-04-15T11:03:54Z</time>
      </trkpt>
      <trkpt lat="45.28342" lon="3.98057">
        <ele>678</ele>
        <time>2021-04-15T11:03:55Z</time>
      </trkpt>
      <trkpt lat="45.28344" lon="3.98066">
        <ele>678</ele>
        <time>2021-04-15T11:03:57Z</time>
      </trkpt>
      <trkpt lat="45.28346" lon="3.98074">
        <ele>677</ele>
        <time>2021-04-15T11:03:58Z</time>
      </trkpt>
      <trkpt lat="45.28345" lon="3.98082">
        <ele>677</ele>
        <time>2021-04-15T11:03:59Z</time>
      </trkpt>
      <trkpt lat="45.28343" lon="3.98089">
        <ele>676</ele>
        <time>2021-04-15T11:04:00Z</time>
      </trkpt>
      <trkpt lat="45.2834" lon="3.98096">
        <ele>675</ele>
        <time>2021-04-15T11:04:01Z</time>
      </trkpt>
      <trkpt lat="45.28337" lon="3.98101">
        <ele>675</ele>
        <time>2021-04-15T11:04:02Z</time>
      </trkpt>
      <trkpt lat="45.28335" lon="3.98105">
        <ele>674</ele>
        <time>2021-04-15T11:04:03Z</time>
      </trkpt>
      <trkpt lat="45.28332" lon="3.98114">
        <ele>674</ele>
        <time>2021-04-15T11:04:04Z</time>
      </trkpt>
      <trkpt lat="45.28328" lon="3.98114">
        <ele>670.3</ele>
      </trkpt>
      <trkpt lat="45.28328" lon="3.98116">
        <ele>670</ele>
      </trkpt>
      <trkpt lat="45.28328" lon="3.98128">
        <ele>668.1</ele>
      </trkpt>
      <trkpt lat="45.28328" lon="3.98136">
        <ele>666.9</ele>
      </trkpt>
      <trkpt lat="45.28331" lon="3.98145">
        <ele>665.8</ele>
      </trkpt>
      <trkpt lat="45.2833" lon="3.98156">
        <ele>664.2</ele>
      </trkpt>
      <trkpt lat="45.2833" lon="3.98162">
        <ele>663.2</ele>
      </trkpt>
      <trkpt lat="45.28327" lon="3.98171">
        <ele>661.7</ele>
      </trkpt>
      <trkpt lat="45.28321" lon="3.98186">
        <ele>659.5</ele>
      </trkpt>
      <trkpt lat="45.28318" lon="3.98195">
        <ele>658.1</ele>
      </trkpt>
      <trkpt lat="45.28318" lon="3.98202">
        <ele>657.3</ele>
      </trkpt>
      <trkpt lat="45.28318" lon="3.98208">
        <ele>656.7</ele>
      </trkpt>
      <trkpt lat="45.2832" lon="3.9822">
        <ele>656</ele>
      </trkpt>
      <trkpt lat="45.28323" lon="3.98226">
        <ele>655.8</ele>
      </trkpt>
      <trkpt lat="45.28326" lon="3.98231">
        <ele>656.1</ele>
      </trkpt>
      <trkpt lat="45.28331" lon="3.98235">
        <ele>656.8</ele>
      </trkpt>
      <trkpt lat="45.28342" lon="3.9824">
        <ele>656</ele>
      </trkpt>
      <trkpt lat="45.28345" lon="3.98241">
        <ele>655.6</ele>
      </trkpt>
      <trkpt lat="45.28348" lon="3.98247">
        <ele>655</ele>
      </trkpt>
      <trkpt lat="45.28349" lon="3.98255">
        <ele>653.8</ele>
      </trkpt>
      <trkpt lat="45.28349" lon="3.98259">
        <ele>653.3</ele>
      </trkpt>
      <trkpt lat="45.28349" lon="3.9826">
        <ele>653.1</ele>
      </trkpt>
      <trkpt lat="45.2835" lon="3.98265">
        <ele>652.3</ele>
      </trkpt>
      <trkpt lat="45.28351" lon="3.98269">
        <ele>651.7</ele>
      </trkpt>
      <trkpt lat="45.28352" lon="3.98274">
        <ele>650.9</ele>
      </trkpt>
      <trkpt lat="45.28353" lon="3.9828">
        <ele>650.1</ele>
      </trkpt>
      <trkpt lat="45.28353" lon="3.98285">
        <ele>649.3</ele>
      </trkpt>
      <trkpt lat="45.28353" lon="3.9829">
        <ele>648.6</ele>
      </trkpt>
      <trkpt lat="45.28352" lon="3.98303">
        <ele>660</ele>
        <time>2021-04-15T11:13:10Z</time>
      </trkpt>
      <trkpt lat="45.28351" lon="3.98309">
        <ele>660</ele>
        <time>2021-04-15T11:13:11Z</time>
      </trkpt>
      <trkpt lat="45.2835" lon="3.98314">
        <ele>659</ele>
        <time>2021-04-15T11:13:12Z</time>
      </trkpt>
      <trkpt lat="45.28349" lon="3.98319">
        <ele>659</ele>
        <time>2021-04-15T11:13:13Z</time>
      </trkpt>
      <trkpt lat="45.28348" lon="3.98322">
        <ele>659</ele>
        <time>2021-04-15T11:13:14Z</time>
      </trkpt>
      <trkpt lat="45.28345" lon="3.98321">
        <ele>659</ele>
        <time>2021-04-15T11:13:15Z</time>
      </trkpt>
      <trkpt lat="45.28342" lon="3.98318">
        <ele>659</ele>
        <time>2021-04-15T11:13:16Z</time>
      </trkpt>
      <trkpt lat="45.28339" lon="3.98315">
        <ele>659</ele>
        <time>2021-04-15T11:13:17Z</time>
      </trkpt>
      <trkpt lat="45.28335" lon="3.98311">
        <ele>658</ele>
        <time>2021-04-15T11:13:18Z</time>
      </trkpt>
      <trkpt lat="45.28332" lon="3.98306">
        <ele>658</ele>
        <time>2021-04-15T11:13:19Z</time>
      </trkpt>
      <trkpt lat="45.28328" lon="3.983">
        <ele>658</ele>
        <time>2021-04-15T11:13:20Z</time>
      </trkpt>
      <trkpt lat="45.28325" lon="3.98296">
        <ele>657</ele>
        <time>2021-04-15T11:13:21Z</time>
      </trkpt>
      <trkpt lat="45.28321" lon="3.98294">
        <ele>657</ele>
        <time>2021-04-15T11:13:22Z</time>
      </trkpt>
      <trkpt lat="45.28317" lon="3.98293">
        <ele>657</ele>
        <time>2021-04-15T11:13:23Z</time>
      </trkpt>
      <trkpt lat="45.28313" lon="3.98292">
        <ele>657</ele>
        <time>2021-04-15T11:13:24Z</time>
      </trkpt>
      <trkpt lat="45.28309" lon="3.98292">
        <ele>657</ele>
        <time>2021-04-15T11:13:25Z</time>
      </trkpt>
      <trkpt lat="45.28305" lon="3.98292">
        <ele>656</ele>
        <time>2021-04-15T11:13:26Z</time>
      </trkpt>
      <trkpt lat="45.283" lon="3.98292">
        <ele>656</ele>
        <time>2021-04-15T11:13:27Z</time>
      </trkpt>
      <trkpt lat="45.28288" lon="3.9829">
        <ele>656</ele>
        <time>2021-04-15T11:13:29Z</time>
      </trkpt>
      <trkpt lat="45.28278" lon="3.9829">
        <ele>655</ele>
        <time>2021-04-15T11:13:31Z</time>
      </trkpt>
      <trkpt lat="45.28267" lon="3.98286">
        <ele>654</ele>
        <time>2021-04-15T11:13:34Z</time>
      </trkpt>
      <trkpt lat="45.28259" lon="3.98288">
        <ele>652</ele>
        <time>2021-04-15T11:13:38Z</time>
      </trkpt>
      <trkpt lat="45.28259" lon="3.98302">
        <ele>651</ele>
        <time>2021-04-15T11:13:40Z</time>
      </trkpt>
      <trkpt lat="45.28262" lon="3.98314">
        <ele>649</ele>
        <time>2021-04-15T11:13:42Z</time>
      </trkpt>
      <trkpt lat="45.28266" lon="3.98331">
        <ele>647</ele>
        <time>2021-04-15T11:13:45Z</time>
      </trkpt>
      <trkpt lat="45.28264" lon="3.98347">
        <ele>645</ele>
        <time>2021-04-15T11:13:48Z</time>
      </trkpt>
      <trkpt lat="45.28273" lon="3.98361">
        <ele>642</ele>
        <time>2021-04-15T11:13:52Z</time>
      </trkpt>
      <trkpt lat="45.28281" lon="3.98376">
        <ele>641</ele>
        <time>2021-04-15T11:13:54Z</time>
      </trkpt>
      <trkpt lat="45.28286" lon="3.9839">
        <ele>639</ele>
        <time>2021-04-15T11:13:56Z</time>
      </trkpt>
      <trkpt lat="45.28291" lon="3.98404">
        <ele>636</ele>
        <time>2021-04-15T11:13:58Z</time>
      </trkpt>
      <trkpt lat="45.28301" lon="3.98411">
        <ele>633</ele>
        <time>2021-04-15T11:14:01Z</time>
      </trkpt>
      <trkpt lat="45.28309" lon="3.98414">
        <ele>626</ele>
        <time>2021-04-15T11:14:05Z</time>
      </trkpt>
      <trkpt lat="45.28315" lon="3.98424">
        <ele>623</ele>
        <time>2021-04-15T11:14:08Z</time>
      </trkpt>
      <trkpt lat="45.28319" lon="3.98439">
        <ele>622</ele>
        <time>2021-04-15T11:14:10Z</time>
      </trkpt>
      <trkpt lat="45.28317" lon="3.98456">
        <ele>620</ele>
        <time>2021-04-15T11:14:14Z</time>
      </trkpt>
      <trkpt lat="45.28317" lon="3.98459">
        <ele>618</ele>
        <time>2021-04-15T11:14:17Z</time>
      </trkpt>
      <trkpt lat="45.28317" lon="3.98461">
        <ele>614</ele>
        <time>2021-04-15T11:14:19Z</time>
      </trkpt>
      <trkpt lat="45.28318" lon="3.98465">
        <ele>609</ele>
        <time>2021-04-15T11:14:26Z</time>
      </trkpt>
      <trkpt lat="45.28316" lon="3.98479">
        <ele>603</ele>
        <time>2021-04-15T11:15:07Z</time>
      </trkpt>
      <trkpt lat="45.28314" lon="3.98473">
        <ele>603</ele>
        <time>2021-04-15T11:15:32Z</time>
      </trkpt>
      <trkpt lat="45.28313" lon="3.98479">
        <ele>603</ele>
        <time>2021-04-15T11:15:49Z</time>
      </trkpt>
      <trkpt lat="45.28313" lon="3.98477">
        <ele>603</ele>
        <time>2021-04-15T11:15:54Z</time>
      </trkpt>
      <trkpt lat="45.28312" lon="3.98486">
        <ele>599</ele>
        <time>2021-04-15T11:15:57Z</time>
      </trkpt>
      <trkpt lat="45.28309" lon="3.98504">
        <ele>597</ele>
        <time>2021-04-15T11:15:59Z</time>
      </trkpt>
      <trkpt lat="45.28307" lon="3.98508">
        <ele>595</ele>
        <time>2021-04-15T11:16:01Z</time>
      </trkpt>
      <trkpt lat="45.28301" lon="3.98507">
        <ele>594</ele>
        <time>2021-04-15T11:16:03Z</time>
      </trkpt>
      <trkpt lat="45.28298" lon="3.98505">
        <ele>594</ele>
        <time>2021-04-15T11:16:04Z</time>
      </trkpt>
      <trkpt lat="45.28294" lon="3.98504">
        <ele>594</ele>
        <time>2021-04-15T11:16:05Z</time>
      </trkpt>
      <trkpt lat="45.28288" lon="3.98503">
        <ele>594</ele>
        <time>2021-04-15T11:16:06Z</time>
      </trkpt>
      <trkpt lat="45.28283" lon="3.98501">
        <ele>594</ele>
        <time>2021-04-15T11:16:07Z</time>
      </trkpt>
      <trkpt lat="45.28272" lon="3.98499">
        <ele>594</ele>
        <time>2021-04-15T11:16:09Z</time>
      </trkpt>
      <trkpt lat="45.28261" lon="3.98498">
        <ele>594</ele>
        <time>2021-04-15T11:16:13Z</time>
      </trkpt>
      <trkpt lat="45.2825" lon="3.98498">
        <ele>595</ele>
        <time>2021-04-15T11:16:16Z</time>
      </trkpt>
      <trkpt lat="45.28239" lon="3.98498">
        <ele>596</ele>
        <time>2021-04-15T11:16:20Z</time>
      </trkpt>
      <trkpt lat="45.2823" lon="3.98501">
        <ele>597</ele>
        <time>2021-04-15T11:16:23Z</time>
      </trkpt>
      <trkpt lat="45.28219" lon="3.98506">
        <ele>598</ele>
        <time>2021-04-15T11:16:27Z</time>
      </trkpt>
      <trkpt lat="45.2821" lon="3.98508">
        <ele>598</ele>
        <time>2021-04-15T11:16:30Z</time>
      </trkpt>
      <trkpt lat="45.28199" lon="3.98508">
        <ele>599</ele>
        <time>2021-04-15T11:16:34Z</time>
      </trkpt>
      <trkpt lat="45.28189" lon="3.98509">
        <ele>600</ele>
        <time>2021-04-15T11:16:37Z</time>
      </trkpt>
      <trkpt lat="45.28178" lon="3.98509">
        <ele>601</ele>
        <time>2021-04-15T11:16:41Z</time>
      </trkpt>
      <trkpt lat="45.28169" lon="3.98512">
        <ele>603</ele>
        <time>2021-04-15T11:16:45Z</time>
      </trkpt>
      <trkpt lat="45.28161" lon="3.98521">
        <ele>605</ele>
        <time>2021-04-15T11:16:49Z</time>
      </trkpt>
      <trkpt lat="45.28152" lon="3.98524">
        <ele>606</ele>
        <time>2021-04-15T11:16:52Z</time>
      </trkpt>
      <trkpt lat="45.28142" lon="3.98519">
        <ele>607</ele>
        <time>2021-04-15T11:16:55Z</time>
      </trkpt>
      <trkpt lat="45.28132" lon="3.9851">
        <ele>609</ele>
        <time>2021-04-15T11:16:59Z</time>
      </trkpt>
      <trkpt lat="45.28124" lon="3.98499">
        <ele>611</ele>
        <time>2021-04-15T11:17:04Z</time>
      </trkpt>
      <trkpt lat="45.28115" lon="3.98495">
        <ele>612</ele>
        <time>2021-04-15T11:17:08Z</time>
      </trkpt>
      <trkpt lat="45.28113" lon="3.98495">
        <ele>612</ele>
        <time>2021-04-15T11:17:09Z</time>
      </trkpt>
      <trkpt lat="45.28111" lon="3.98495">
        <ele>613</ele>
        <time>2021-04-15T11:17:10Z</time>
      </trkpt>
      <trkpt lat="45.28109" lon="3.98494">
        <ele>613</ele>
        <time>2021-04-15T11:17:11Z</time>
      </trkpt>
      <trkpt lat="45.28107" lon="3.98492">
        <ele>614</ele>
        <time>2021-04-15T11:17:12Z</time>
      </trkpt>
      <trkpt lat="45.28105" lon="3.98491">
        <ele>614</ele>
        <time>2021-04-15T11:17:13Z</time>
      </trkpt>
      <trkpt lat="45.28103" lon="3.98491">
        <ele>614</ele>
        <time>2021-04-15T11:17:14Z</time>
      </trkpt>
      <trkpt lat="45.281" lon="3.98491">
        <ele>615</ele>
        <time>2021-04-15T11:17:16Z</time>
      </trkpt>
      <trkpt lat="45.28098" lon="3.98491">
        <ele>615</ele>
        <time>2021-04-15T11:17:17Z</time>
      </trkpt>
      <trkpt lat="45.28095" lon="3.98492">
        <ele>616</ele>
        <time>2021-04-15T11:17:20Z</time>
      </trkpt>
      <trkpt lat="45.28092" lon="3.98495">
        <ele>617</ele>
        <time>2021-04-15T11:17:22Z</time>
      </trkpt>
      <trkpt lat="45.2809" lon="3.98497">
        <ele>617</ele>
        <time>2021-04-15T11:17:24Z</time>
      </trkpt>
      <trkpt lat="45.28082" lon="3.98498">
        <ele>619</ele>
        <time>2021-04-15T11:17:29Z</time>
      </trkpt>
      <trkpt lat="45.2808" lon="3.98498">
        <ele>620</ele>
        <time>2021-04-15T11:17:31Z</time>
      </trkpt>
      <trkpt lat="45.28078" lon="3.98497">
        <ele>620</ele>
        <time>2021-04-15T11:17:32Z</time>
      </trkpt>
      <trkpt lat="45.28073" lon="3.98495">
        <ele>621</ele>
        <time>2021-04-15T11:17:34Z</time>
      </trkpt>
      <trkpt lat="45.2807" lon="3.98493">
        <ele>621</ele>
        <time>2021-04-15T11:17:35Z</time>
      </trkpt>
      <trkpt lat="45.28067" lon="3.98492">
        <ele>621</ele>
        <time>2021-04-15T11:17:36Z</time>
      </trkpt>
      <trkpt lat="45.28064" lon="3.98491">
        <ele>621</ele>
        <time>2021-04-15T11:17:37Z</time>
      </trkpt>
      <trkpt lat="45.28061" lon="3.9849">
        <ele>622</ele>
        <time>2021-04-15T11:17:38Z</time>
      </trkpt>
      <trkpt lat="45.28058" lon="3.98488">
        <ele>622</ele>
        <time>2021-04-15T11:17:39Z</time>
      </trkpt>
      <trkpt lat="45.28055" lon="3.98486">
        <ele>622</ele>
        <time>2021-04-15T11:17:40Z</time>
      </trkpt>
      <trkpt lat="45.28052" lon="3.98484">
        <ele>622</ele>
        <time>2021-04-15T11:17:41Z</time>
      </trkpt>
      <trkpt lat="45.28049" lon="3.98483">
        <ele>623</ele>
        <time>2021-04-15T11:17:42Z</time>
      </trkpt>
      <trkpt lat="45.28046" lon="3.98482">
        <ele>623</ele>
        <time>2021-04-15T11:17:43Z</time>
      </trkpt>
      <trkpt lat="45.28044" lon="3.98481">
        <ele>623</ele>
        <time>2021-04-15T11:17:44Z</time>
      </trkpt>
      <trkpt lat="45.28041" lon="3.98481">
        <ele>623</ele>
        <time>2021-04-15T11:17:45Z</time>
      </trkpt>
      <trkpt lat="45.28037" lon="3.98481">
        <ele>624</ele>
        <time>2021-04-15T11:17:46Z</time>
      </trkpt>
      <trkpt lat="45.28035" lon="3.9848">
        <ele>624</ele>
        <time>2021-04-15T11:17:47Z</time>
      </trkpt>
      <trkpt lat="45.28032" lon="3.98479">
        <ele>624</ele>
        <time>2021-04-15T11:17:48Z</time>
      </trkpt>
      <trkpt lat="45.28029" lon="3.98479">
        <ele>625</ele>
        <time>2021-04-15T11:17:49Z</time>
      </trkpt>
      <trkpt lat="45.28027" lon="3.98478">
        <ele>625</ele>
        <time>2021-04-15T11:17:50Z</time>
      </trkpt>
      <trkpt lat="45.28024" lon="3.98477">
        <ele>625</ele>
        <time>2021-04-15T11:17:51Z</time>
      </trkpt>
      <trkpt lat="45.28019" lon="3.98476">
        <ele>625</ele>
        <time>2021-04-15T11:17:52Z</time>
      </trkpt>
      <trkpt lat="45.28017" lon="3.98476">
        <ele>626</ele>
        <time>2021-04-15T11:17:55Z</time>
      </trkpt>
      <trkpt lat="45.28013" lon="3.98478">
        <ele>628</ele>
        <time>2021-04-15T11:18:09Z</time>
      </trkpt>
      <trkpt lat="45.28009" lon="3.9848">
        <ele>628</ele>
        <time>2021-04-15T11:18:10Z</time>
      </trkpt>
      <trkpt lat="45.28007" lon="3.98481">
        <ele>628</ele>
        <time>2021-04-15T11:18:12Z</time>
      </trkpt>
      <trkpt lat="45.28005" lon="3.98482">
        <ele>629</ele>
        <time>2021-04-15T11:18:13Z</time>
      </trkpt>
      <trkpt lat="45.28003" lon="3.98483">
        <ele>629</ele>
        <time>2021-04-15T11:18:14Z</time>
      </trkpt>
      <trkpt lat="45.28001" lon="3.98484">
        <ele>629</ele>
        <time>2021-04-15T11:18:15Z</time>
      </trkpt>
      <trkpt lat="45.27999" lon="3.98484">
        <ele>630</ele>
        <time>2021-04-15T11:18:16Z</time>
      </trkpt>
      <trkpt lat="45.27997" lon="3.98485">
        <ele>630</ele>
        <time>2021-04-15T11:18:17Z</time>
      </trkpt>
      <trkpt lat="45.27995" lon="3.98486">
        <ele>630</ele>
        <time>2021-04-15T11:18:18Z</time>
      </trkpt>
      <trkpt lat="45.27994" lon="3.98488">
        <ele>630</ele>
        <time>2021-04-15T11:18:19Z</time>
      </trkpt>
      <trkpt lat="45.27992" lon="3.98489">
        <ele>631</ele>
        <time>2021-04-15T11:18:20Z</time>
      </trkpt>
      <trkpt lat="45.2799" lon="3.98491">
        <ele>631</ele>
        <time>2021-04-15T11:18:21Z</time>
      </trkpt>
      <trkpt lat="45.27987" lon="3.98492">
        <ele>631</ele>
        <time>2021-04-15T11:18:22Z</time>
      </trkpt>
      <trkpt lat="45.27985" lon="3.98493">
        <ele>631</ele>
        <time>2021-04-15T11:18:23Z</time>
      </trkpt>
      <trkpt lat="45.27983" lon="3.98494">
        <ele>632</ele>
        <time>2021-04-15T11:18:24Z</time>
      </trkpt>
      <trkpt lat="45.27981" lon="3.98496">
        <ele>632</ele>
        <time>2021-04-15T11:18:25Z</time>
      </trkpt>
      <trkpt lat="45.27978" lon="3.98497">
        <ele>632</ele>
        <time>2021-04-15T11:18:26Z</time>
      </trkpt>
      <trkpt lat="45.27976" lon="3.98497">
        <ele>632</ele>
        <time>2021-04-15T11:18:27Z</time>
      </trkpt>
      <trkpt lat="45.27973" lon="3.98498">
        <ele>632</ele>
        <time>2021-04-15T11:18:28Z</time>
      </trkpt>
      <trkpt lat="45.2797" lon="3.985">
        <ele>633</ele>
        <time>2021-04-15T11:18:29Z</time>
      </trkpt>
      <trkpt lat="45.27967" lon="3.98501">
        <ele>633</ele>
        <time>2021-04-15T11:18:30Z</time>
      </trkpt>
      <trkpt lat="45.27963" lon="3.98501">
        <ele>633</ele>
        <time>2021-04-15T11:18:31Z</time>
      </trkpt>
      <trkpt lat="45.2796" lon="3.98502">
        <ele>633</ele>
        <time>2021-04-15T11:18:32Z</time>
      </trkpt>
      <trkpt lat="45.27957" lon="3.98503">
        <ele>633</ele>
        <time>2021-04-15T11:18:33Z</time>
      </trkpt>
      <trkpt lat="45.27954" lon="3.98504">
        <ele>633</ele>
        <time>2021-04-15T11:18:34Z</time>
      </trkpt>
      <trkpt lat="45.2795" lon="3.98505">
        <ele>633</ele>
        <time>2021-04-15T11:18:35Z</time>
      </trkpt>
      <trkpt lat="45.27947" lon="3.98507">
        <ele>633</ele>
        <time>2021-04-15T11:18:36Z</time>
      </trkpt>
      <trkpt lat="45.27944" lon="3.98509">
        <ele>634</ele>
        <time>2021-04-15T11:18:37Z</time>
      </trkpt>
      <trkpt lat="45.27941" lon="3.98511">
        <ele>634</ele>
        <time>2021-04-15T11:18:38Z</time>
      </trkpt>
      <trkpt lat="45.27938" lon="3.98514">
        <ele>634</ele>
        <time>2021-04-15T11:18:39Z</time>
      </trkpt>
      <trkpt lat="45.27935" lon="3.98518">
        <ele>634</ele>
        <time>2021-04-15T11:18:40Z</time>
      </trkpt>
      <trkpt lat="45.27933" lon="3.98521">
        <ele>634</ele>
        <time>2021-04-15T11:18:41Z</time>
      </trkpt>
      <trkpt lat="45.27931" lon="3.98524">
        <ele>635</ele>
        <time>2021-04-15T11:18:42Z</time>
      </trkpt>
      <trkpt lat="45.27928" lon="3.98527">
        <ele>635</ele>
        <time>2021-04-15T11:18:43Z</time>
      </trkpt>
      <trkpt lat="45.27926" lon="3.9853">
        <ele>635</ele>
        <time>2021-04-15T11:18:44Z</time>
      </trkpt>
      <trkpt lat="45.27923" lon="3.98534">
        <ele>635</ele>
        <time>2021-04-15T11:18:45Z</time>
      </trkpt>
      <trkpt lat="45.2792" lon="3.98537">
        <ele>635</ele>
        <time>2021-04-15T11:18:46Z</time>
      </trkpt>
      <trkpt lat="45.27917" lon="3.98539">
        <ele>635</ele>
        <time>2021-04-15T11:18:47Z</time>
      </trkpt>
      <trkpt lat="45.27909" lon="3.98544">
        <ele>635</ele>
        <time>2021-04-15T11:18:48Z</time>
      </trkpt>
      <trkpt lat="45.27906" lon="3.98545">
        <ele>635</ele>
        <time>2021-04-15T11:18:50Z</time>
      </trkpt>
      <trkpt lat="45.27902" lon="3.98546">
        <ele>636</ele>
        <time>2021-04-15T11:18:51Z</time>
      </trkpt>
      <trkpt lat="45.27898" lon="3.98546">
        <ele>636</ele>
        <time>2021-04-15T11:18:52Z</time>
      </trkpt>
      <trkpt lat="45.27895" lon="3.98546">
        <ele>636</ele>
        <time>2021-04-15T11:18:53Z</time>
      </trkpt>
      <trkpt lat="45.27891" lon="3.98545">
        <ele>636</ele>
        <time>2021-04-15T11:18:54Z</time>
      </trkpt>
      <trkpt lat="45.27888" lon="3.98545">
        <ele>636</ele>
        <time>2021-04-15T11:18:55Z</time>
      </trkpt>
      <trkpt lat="45.27885" lon="3.98544">
        <ele>637</ele>
        <time>2021-04-15T11:18:56Z</time>
      </trkpt>
      <trkpt lat="45.27882" lon="3.98543">
        <ele>637</ele>
        <time>2021-04-15T11:18:57Z</time>
      </trkpt>
      <trkpt lat="45.27879" lon="3.98542">
        <ele>637</ele>
        <time>2021-04-15T11:18:58Z</time>
      </trkpt>
      <trkpt lat="45.27876" lon="3.98541">
        <ele>637</ele>
        <time>2021-04-15T11:18:59Z</time>
      </trkpt>
      <trkpt lat="45.27873" lon="3.9854">
        <ele>637</ele>
        <time>2021-04-15T11:19:00Z</time>
      </trkpt>
      <trkpt lat="45.27871" lon="3.98539">
        <ele>637</ele>
        <time>2021-04-15T11:19:01Z</time>
      </trkpt>
      <trkpt lat="45.27868" lon="3.98538">
        <ele>638</ele>
        <time>2021-04-15T11:19:02Z</time>
      </trkpt>
      <trkpt lat="45.27865" lon="3.98537">
        <ele>638</ele>
        <time>2021-04-15T11:19:03Z</time>
      </trkpt>
      <trkpt lat="45.27863" lon="3.98537">
        <ele>638</ele>
        <time>2021-04-15T11:19:04Z</time>
      </trkpt>
      <trkpt lat="45.2786" lon="3.98538">
        <ele>638</ele>
        <time>2021-04-15T11:19:05Z</time>
      </trkpt>
      <trkpt lat="45.27857" lon="3.98538">
        <ele>638</ele>
        <time>2021-04-15T11:19:06Z</time>
      </trkpt>
      <trkpt lat="45.27855" lon="3.98539">
        <ele>639</ele>
        <time>2021-04-15T11:19:07Z</time>
      </trkpt>
      <trkpt lat="45.27852" lon="3.9854">
        <ele>639</ele>
        <time>2021-04-15T11:19:09Z</time>
      </trkpt>
      <trkpt lat="45.27849" lon="3.9854">
        <ele>640</ele>
        <time>2021-04-15T11:19:18Z</time>
      </trkpt>
      <trkpt lat="45.27845" lon="3.98545">
        <ele>642</ele>
        <time>2021-04-15T11:19:29Z</time>
      </trkpt>
      <trkpt lat="45.27844" lon="3.98547">
        <ele>642</ele>
        <time>2021-04-15T11:19:30Z</time>
      </trkpt>
      <trkpt lat="45.27843" lon="3.98551">
        <ele>643</ele>
        <time>2021-04-15T11:19:32Z</time>
      </trkpt>
      <trkpt lat="45.27844" lon="3.98557">
        <ele>643</ele>
        <time>2021-04-15T11:19:34Z</time>
      </trkpt>
      <trkpt lat="45.27845" lon="3.9856">
        <ele>643</ele>
        <time>2021-04-15T11:19:35Z</time>
      </trkpt>
      <trkpt lat="45.27846" lon="3.98563">
        <ele>643</ele>
        <time>2021-04-15T11:19:36Z</time>
      </trkpt>
      <trkpt lat="45.27848" lon="3.9857">
        <ele>643</ele>
        <time>2021-04-15T11:19:37Z</time>
      </trkpt>
      <trkpt lat="45.2785" lon="3.98573">
        <ele>644</ele>
        <time>2021-04-15T11:19:39Z</time>
      </trkpt>
      <trkpt lat="45.27851" lon="3.98577">
        <ele>644</ele>
        <time>2021-04-15T11:19:40Z</time>
      </trkpt>
      <trkpt lat="45.27853" lon="3.98581">
        <ele>644</ele>
        <time>2021-04-15T11:19:41Z</time>
      </trkpt>
      <trkpt lat="45.27854" lon="3.98586">
        <ele>644</ele>
        <time>2021-04-15T11:19:42Z</time>
      </trkpt>
      <trkpt lat="45.27856" lon="3.9859">
        <ele>644</ele>
        <time>2021-04-15T11:19:43Z</time>
      </trkpt>
      <trkpt lat="45.27857" lon="3.98595">
        <ele>645</ele>
        <time>2021-04-15T11:19:44Z</time>
      </trkpt>
      <trkpt lat="45.27859" lon="3.98599">
        <ele>645</ele>
        <time>2021-04-15T11:19:45Z</time>
      </trkpt>
      <trkpt lat="45.2786" lon="3.98603">
        <ele>645</ele>
        <time>2021-04-15T11:19:46Z</time>
      </trkpt>
      <trkpt lat="45.27861" lon="3.98607">
        <ele>645</ele>
        <time>2021-04-15T11:19:47Z</time>
      </trkpt>
      <trkpt lat="45.27863" lon="3.98612">
        <ele>645</ele>
        <time>2021-04-15T11:19:48Z</time>
      </trkpt>
      <trkpt lat="45.27864" lon="3.98617">
        <ele>646</ele>
        <time>2021-04-15T11:19:49Z</time>
      </trkpt>
      <trkpt lat="45.27865" lon="3.98622">
        <ele>646</ele>
        <time>2021-04-15T11:19:50Z</time>
      </trkpt>
      <trkpt lat="45.27866" lon="3.98627">
        <ele>646</ele>
        <time>2021-04-15T11:19:51Z</time>
      </trkpt>
      <trkpt lat="45.27868" lon="3.98632">
        <ele>646</ele>
        <time>2021-04-15T11:19:52Z</time>
      </trkpt>
      <trkpt lat="45.27869" lon="3.98637">
        <ele>647</ele>
        <time>2021-04-15T11:19:53Z</time>
      </trkpt>
      <trkpt lat="45.2787" lon="3.98642">
        <ele>647</ele>
        <time>2021-04-15T11:19:54Z</time>
      </trkpt>
      <trkpt lat="45.27872" lon="3.98646">
        <ele>647</ele>
        <time>2021-04-15T11:19:55Z</time>
      </trkpt>
      <trkpt lat="45.27874" lon="3.9865">
        <ele>647</ele>
        <time>2021-04-15T11:19:56Z</time>
      </trkpt>
      <trkpt lat="45.27876" lon="3.98654">
        <ele>648</ele>
        <time>2021-04-15T11:19:57Z</time>
      </trkpt>
      <trkpt lat="45.27878" lon="3.98657">
        <ele>649</ele>
        <time>2021-04-15T11:19:58Z</time>
      </trkpt>
      <trkpt lat="45.27881" lon="3.98661">
        <ele>649</ele>
        <time>2021-04-15T11:19:59Z</time>
      </trkpt>
      <trkpt lat="45.27883" lon="3.98664">
        <ele>649</ele>
        <time>2021-04-15T11:20:00Z</time>
      </trkpt>
      <trkpt lat="45.27885" lon="3.98667">
        <ele>650</ele>
        <time>2021-04-15T11:20:01Z</time>
      </trkpt>
      <trkpt lat="45.27886" lon="3.98671">
        <ele>650</ele>
        <time>2021-04-15T11:20:02Z</time>
      </trkpt>
      <trkpt lat="45.27888" lon="3.98674">
        <ele>650</ele>
        <time>2021-04-15T11:20:03Z</time>
      </trkpt>
      <trkpt lat="45.27889" lon="3.98678">
        <ele>650</ele>
        <time>2021-04-15T11:20:04Z</time>
      </trkpt>
      <trkpt lat="45.27891" lon="3.98683">
        <ele>651</ele>
        <time>2021-04-15T11:20:05Z</time>
      </trkpt>
      <trkpt lat="45.27893" lon="3.98686">
        <ele>651</ele>
        <time>2021-04-15T11:20:06Z</time>
      </trkpt>
      <trkpt lat="45.27895" lon="3.98689">
        <ele>651</ele>
        <time>2021-04-15T11:20:07Z</time>
      </trkpt>
      <trkpt lat="45.279" lon="3.98696">
        <ele>652</ele>
        <time>2021-04-15T11:20:08Z</time>
      </trkpt>
      <trkpt lat="45.27902" lon="3.98699">
        <ele>652</ele>
        <time>2021-04-15T11:20:10Z</time>
      </trkpt>
      <trkpt lat="45.27904" lon="3.98703">
        <ele>653</ele>
        <time>2021-04-15T11:20:11Z</time>
      </trkpt>
      <trkpt lat="45.27906" lon="3.98707">
        <ele>653</ele>
        <time>2021-04-15T11:20:12Z</time>
      </trkpt>
      <trkpt lat="45.27908" lon="3.9871">
        <ele>653</ele>
        <time>2021-04-15T11:20:13Z</time>
      </trkpt>
      <trkpt lat="45.2791" lon="3.98713">
        <ele>654</ele>
        <time>2021-04-15T11:20:14Z</time>
      </trkpt>
      <trkpt lat="45.27913" lon="3.98717">
        <ele>654</ele>
        <time>2021-04-15T11:20:15Z</time>
      </trkpt>
      <trkpt lat="45.27915" lon="3.9872">
        <ele>655</ele>
        <time>2021-04-15T11:20:16Z</time>
      </trkpt>
      <trkpt lat="45.27917" lon="3.98723">
        <ele>655</ele>
        <time>2021-04-15T11:20:17Z</time>
      </trkpt>
      <trkpt lat="45.2792" lon="3.98727">
        <ele>655</ele>
        <time>2021-04-15T11:20:18Z</time>
      </trkpt>
      <trkpt lat="45.27922" lon="3.9873">
        <ele>656</ele>
        <time>2021-04-15T11:20:19Z</time>
      </trkpt>
      <trkpt lat="45.27924" lon="3.98733">
        <ele>656</ele>
        <time>2021-04-15T11:20:20Z</time>
      </trkpt>
      <trkpt lat="45.27927" lon="3.98737">
        <ele>656</ele>
        <time>2021-04-15T11:20:21Z</time>
      </trkpt>
      <trkpt lat="45.2793" lon="3.98741">
        <ele>657</ele>
        <time>2021-04-15T11:20:22Z</time>
      </trkpt>
      <trkpt lat="45.27935" lon="3.98747">
        <ele>657</ele>
        <time>2021-04-15T11:20:24Z</time>
      </trkpt>
      <trkpt lat="45.27937" lon="3.9875">
        <ele>658</ele>
        <time>2021-04-15T11:20:25Z</time>
      </trkpt>
      <trkpt lat="45.2794" lon="3.98753">
        <ele>658</ele>
        <time>2021-04-15T11:20:26Z</time>
      </trkpt>
      <trkpt lat="45.27946" lon="3.98758">
        <ele>659</ele>
        <time>2021-04-15T11:20:28Z</time>
      </trkpt>
      <trkpt lat="45.27948" lon="3.98761">
        <ele>659</ele>
        <time>2021-04-15T11:20:29Z</time>
      </trkpt>
      <trkpt lat="45.27951" lon="3.98764">
        <ele>659</ele>
        <time>2021-04-15T11:20:30Z</time>
      </trkpt>
      <trkpt lat="45.27954" lon="3.98767">
        <ele>660</ele>
        <time>2021-04-15T11:20:31Z</time>
      </trkpt>
      <trkpt lat="45.27957" lon="3.9877">
        <ele>660</ele>
        <time>2021-04-15T11:20:32Z</time>
      </trkpt>
      <trkpt lat="45.2796" lon="3.98773">
        <ele>661</ele>
        <time>2021-04-15T11:20:33Z</time>
      </trkpt>
      <trkpt lat="45.27963" lon="3.98776">
        <ele>661</ele>
        <time>2021-04-15T11:20:34Z</time>
      </trkpt>
      <trkpt lat="45.27966" lon="3.98778">
        <ele>662</ele>
        <time>2021-04-15T11:20:35Z</time>
      </trkpt>
      <trkpt lat="45.27969" lon="3.98781">
        <ele>662</ele>
        <time>2021-04-15T11:20:36Z</time>
      </trkpt>
      <trkpt lat="45.27972" lon="3.98783">
        <ele>662</ele>
        <time>2021-04-15T11:20:37Z</time>
      </trkpt>
      <trkpt lat="45.27975" lon="3.98785">
        <ele>663</ele>
        <time>2021-04-15T11:20:38Z</time>
      </trkpt>
      <trkpt lat="45.27978" lon="3.98787">
        <ele>664</ele>
        <time>2021-04-15T11:20:39Z</time>
      </trkpt>
      <trkpt lat="45.2798" lon="3.98789">
        <ele>665</ele>
        <time>2021-04-15T11:20:40Z</time>
      </trkpt>
      <trkpt lat="45.27983" lon="3.98791">
        <ele>665</ele>
        <time>2021-04-15T11:20:41Z</time>
      </trkpt>
      <trkpt lat="45.27987" lon="3.98793">
        <ele>666</ele>
        <time>2021-04-15T11:20:42Z</time>
      </trkpt>
      <trkpt lat="45.2799" lon="3.98794">
        <ele>666</ele>
        <time>2021-04-15T11:20:43Z</time>
      </trkpt>
      <trkpt lat="45.27993" lon="3.98796">
        <ele>667</ele>
        <time>2021-04-15T11:20:44Z</time>
      </trkpt>
      <trkpt lat="45.27996" lon="3.98797">
        <ele>667</ele>
        <time>2021-04-15T11:20:45Z</time>
      </trkpt>
      <trkpt lat="45.27999" lon="3.98799">
        <ele>668</ele>
        <time>2021-04-15T11:20:46Z</time>
      </trkpt>
      <trkpt lat="45.28001" lon="3.98801">
        <ele>668</ele>
        <time>2021-04-15T11:20:47Z</time>
      </trkpt>
      <trkpt lat="45.28004" lon="3.98804">
        <ele>669</ele>
        <time>2021-04-15T11:20:48Z</time>
      </trkpt>
      <trkpt lat="45.28005" lon="3.98808">
        <ele>669</ele>
        <time>2021-04-15T11:20:49Z</time>
      </trkpt>
      <trkpt lat="45.28006" lon="3.98812">
        <ele>670</ele>
        <time>2021-04-15T11:20:50Z</time>
      </trkpt>
      <trkpt lat="45.28005" lon="3.98816">
        <ele>670</ele>
        <time>2021-04-15T11:20:51Z</time>
      </trkpt>
      <trkpt lat="45.28003" lon="3.98819">
        <ele>670</ele>
        <time>2021-04-15T11:20:52Z</time>
      </trkpt>
      <trkpt lat="45.27999" lon="3.9882">
        <ele>671</ele>
        <time>2021-04-15T11:20:53Z</time>
      </trkpt>
      <trkpt lat="45.27995" lon="3.98821">
        <ele>671</ele>
        <time>2021-04-15T11:20:54Z</time>
      </trkpt>
      <trkpt lat="45.27991" lon="3.98822">
        <ele>672</ele>
        <time>2021-04-15T11:20:55Z</time>
      </trkpt>
      <trkpt lat="45.27987" lon="3.98822">
        <ele>672</ele>
        <time>2021-04-15T11:20:56Z</time>
      </trkpt>
      <trkpt lat="45.27984" lon="3.98822">
        <ele>672</ele>
        <time>2021-04-15T11:20:57Z</time>
      </trkpt>
      <trkpt lat="45.2798" lon="3.98823">
        <ele>672</ele>
        <time>2021-04-15T11:20:58Z</time>
      </trkpt>
      <trkpt lat="45.27978" lon="3.98824">
        <ele>673</ele>
        <time>2021-04-15T11:20:59Z</time>
      </trkpt>
      <trkpt lat="45.27975" lon="3.98825">
        <ele>673</ele>
        <time>2021-04-15T11:21:00Z</time>
      </trkpt>
      <trkpt lat="45.27972" lon="3.98827">
        <ele>674</ele>
        <time>2021-04-15T11:21:01Z</time>
      </trkpt>
      <trkpt lat="45.27969" lon="3.98828">
        <ele>674</ele>
        <time>2021-04-15T11:21:02Z</time>
      </trkpt>
      <trkpt lat="45.27966" lon="3.98828">
        <ele>674</ele>
        <time>2021-04-15T11:21:03Z</time>
      </trkpt>
      <trkpt lat="45.27963" lon="3.98829">
        <ele>675</ele>
        <time>2021-04-15T11:21:04Z</time>
      </trkpt>
      <trkpt lat="45.27959" lon="3.9883">
        <ele>675</ele>
        <time>2021-04-15T11:21:05Z</time>
      </trkpt>
      <trkpt lat="45.27956" lon="3.98831">
        <ele>675</ele>
        <time>2021-04-15T11:21:06Z</time>
      </trkpt>
      <trkpt lat="45.27946" lon="3.98838">
        <ele>676</ele>
        <time>2021-04-15T11:21:10Z</time>
      </trkpt>
      <trkpt lat="45.27936" lon="3.98846">
        <ele>678</ele>
        <time>2021-04-15T11:21:14Z</time>
      </trkpt>
      <trkpt lat="45.27927" lon="3.98853">
        <ele>680</ele>
        <time>2021-04-15T11:21:17Z</time>
      </trkpt>
      <trkpt lat="45.27918" lon="3.98862">
        <ele>681</ele>
        <time>2021-04-15T11:21:20Z</time>
      </trkpt>
      <trkpt lat="45.27912" lon="3.98868">
        <ele>682</ele>
        <time>2021-04-15T11:21:22Z</time>
      </trkpt>
      <trkpt lat="45.27904" lon="3.98877">
        <ele>683</ele>
        <time>2021-04-15T11:21:24Z</time>
      </trkpt>
      <trkpt lat="45.27896" lon="3.98885">
        <ele>686</ele>
        <time>2021-04-15T11:21:28Z</time>
      </trkpt>
      <trkpt lat="45.27888" lon="3.98893">
        <ele>687</ele>
        <time>2021-04-15T11:21:31Z</time>
      </trkpt>
      <trkpt lat="45.2788" lon="3.98901">
        <ele>689</ele>
        <time>2021-04-15T11:21:34Z</time>
      </trkpt>
      <trkpt lat="45.27873" lon="3.98909">
        <ele>691</ele>
        <time>2021-04-15T11:21:37Z</time>
      </trkpt>
      <trkpt lat="45.27871" lon="3.98912">
        <ele>691</ele>
        <time>2021-04-15T11:21:38Z</time>
      </trkpt>
      <trkpt lat="45.27869" lon="3.98915">
        <ele>691</ele>
        <time>2021-04-15T11:21:39Z</time>
      </trkpt>
      <trkpt lat="45.27867" lon="3.98917">
        <ele>693</ele>
        <time>2021-04-15T11:21:40Z</time>
      </trkpt>
      <trkpt lat="45.27865" lon="3.98919">
        <ele>693</ele>
        <time>2021-04-15T11:21:41Z</time>
      </trkpt>
      <trkpt lat="45.27863" lon="3.9892">
        <ele>694</ele>
        <time>2021-04-15T11:21:42Z</time>
      </trkpt>
      <trkpt lat="45.27863" lon="3.98923">
        <ele>695</ele>
        <time>2021-04-15T11:21:45Z</time>
      </trkpt>
      <trkpt lat="45.27865" lon="3.98922">
        <ele>695</ele>
        <time>2021-04-15T11:21:46Z</time>
      </trkpt>
      <trkpt lat="45.27868" lon="3.98921">
        <ele>696</ele>
        <time>2021-04-15T11:21:47Z</time>
      </trkpt>
      <trkpt lat="45.27871" lon="3.9892">
        <ele>696</ele>
        <time>2021-04-15T11:21:48Z</time>
      </trkpt>
      <trkpt lat="45.27879" lon="3.98916">
        <ele>697</ele>
        <time>2021-04-15T11:21:51Z</time>
      </trkpt>
      <trkpt lat="45.27881" lon="3.98914">
        <ele>697</ele>
        <time>2021-04-15T11:21:52Z</time>
      </trkpt>
      <trkpt lat="45.27884" lon="3.98913">
        <ele>698</ele>
        <time>2021-04-15T11:21:53Z</time>
      </trkpt>
      <trkpt lat="45.27887" lon="3.98913">
        <ele>698</ele>
        <time>2021-04-15T11:21:54Z</time>
      </trkpt>
      <trkpt lat="45.27893" lon="3.9891">
        <ele>699</ele>
        <time>2021-04-15T11:21:56Z</time>
      </trkpt>
      <trkpt lat="45.27895" lon="3.98909">
        <ele>699</ele>
        <time>2021-04-15T11:21:57Z</time>
      </trkpt>
      <trkpt lat="45.27898" lon="3.98909">
        <ele>700</ele>
        <time>2021-04-15T11:21:58Z</time>
      </trkpt>
      <trkpt lat="45.27901" lon="3.98909">
        <ele>701</ele>
        <time>2021-04-15T11:21:59Z</time>
      </trkpt>
      <trkpt lat="45.27904" lon="3.98909">
        <ele>701</ele>
        <time>2021-04-15T11:22:00Z</time>
      </trkpt>
      <trkpt lat="45.27907" lon="3.98909">
        <ele>701</ele>
        <time>2021-04-15T11:22:01Z</time>
      </trkpt>
      <trkpt lat="45.2791" lon="3.98909">
        <ele>701</ele>
        <time>2021-04-15T11:22:02Z</time>
      </trkpt>
      <trkpt lat="45.27913" lon="3.98909">
        <ele>702</ele>
        <time>2021-04-15T11:22:03Z</time>
      </trkpt>
      <trkpt lat="45.27916" lon="3.98909">
        <ele>702</ele>
        <time>2021-04-15T11:22:04Z</time>
      </trkpt>
      <trkpt lat="45.27919" lon="3.9891">
        <ele>702</ele>
        <time>2021-04-15T11:22:05Z</time>
      </trkpt>
      <trkpt lat="45.27922" lon="3.98911">
        <ele>702</ele>
        <time>2021-04-15T11:22:06Z</time>
      </trkpt>
      <trkpt lat="45.27925" lon="3.98911">
        <ele>703</ele>
        <time>2021-04-15T11:22:07Z</time>
      </trkpt>
      <trkpt lat="45.27928" lon="3.98911">
        <ele>703</ele>
        <time>2021-04-15T11:22:08Z</time>
      </trkpt>
      <trkpt lat="45.27931" lon="3.98912">
        <ele>704</ele>
        <time>2021-04-15T11:22:09Z</time>
      </trkpt>
      <trkpt lat="45.27934" lon="3.98912">
        <ele>704</ele>
        <time>2021-04-15T11:22:10Z</time>
      </trkpt>
      <trkpt lat="45.27937" lon="3.98913">
        <ele>704</ele>
        <time>2021-04-15T11:22:11Z</time>
      </trkpt>
      <trkpt lat="45.27941" lon="3.98913">
        <ele>705</ele>
        <time>2021-04-15T11:22:12Z</time>
      </trkpt>
      <trkpt lat="45.27948" lon="3.98914">
        <ele>705</ele>
        <time>2021-04-15T11:22:14Z</time>
      </trkpt>
      <trkpt lat="45.27951" lon="3.98915">
        <ele>706</ele>
        <time>2021-04-15T11:22:15Z</time>
      </trkpt>
      <trkpt lat="45.27954" lon="3.98916">
        <ele>706</ele>
        <time>2021-04-15T11:22:16Z</time>
      </trkpt>
      <trkpt lat="45.27958" lon="3.98917">
        <ele>706</ele>
        <time>2021-04-15T11:22:17Z</time>
      </trkpt>
      <trkpt lat="45.27962" lon="3.98918">
        <ele>706</ele>
        <time>2021-04-15T11:22:18Z</time>
      </trkpt>
      <trkpt lat="45.27966" lon="3.98919">
        <ele>707</ele>
        <time>2021-04-15T11:22:19Z</time>
      </trkpt>
      <trkpt lat="45.2797" lon="3.9892">
        <ele>707</ele>
        <time>2021-04-15T11:22:20Z</time>
      </trkpt>
      <trkpt lat="45.27978" lon="3.98922">
        <ele>707</ele>
        <time>2021-04-15T11:22:21Z</time>
      </trkpt>
      <trkpt lat="45.27981" lon="3.98922">
        <ele>708</ele>
        <time>2021-04-15T11:22:23Z</time>
      </trkpt>
      <trkpt lat="45.27985" lon="3.98923">
        <ele>708</ele>
        <time>2021-04-15T11:22:24Z</time>
      </trkpt>
      <trkpt lat="45.27988" lon="3.98923">
        <ele>708</ele>
        <time>2021-04-15T11:22:25Z</time>
      </trkpt>
      <trkpt lat="45.27991" lon="3.98924">
        <ele>709</ele>
        <time>2021-04-15T11:22:26Z</time>
      </trkpt>
      <trkpt lat="45.27994" lon="3.98925">
        <ele>709</ele>
        <time>2021-04-15T11:22:27Z</time>
      </trkpt>
      <trkpt lat="45.27997" lon="3.98927">
        <ele>710</ele>
        <time>2021-04-15T11:22:28Z</time>
      </trkpt>
      <trkpt lat="45.28" lon="3.9893">
        <ele>710</ele>
        <time>2021-04-15T11:22:29Z</time>
      </trkpt>
      <trkpt lat="45.28005" lon="3.98935">
        <ele>711</ele>
        <time>2021-04-15T11:22:31Z</time>
      </trkpt>
      <trkpt lat="45.28008" lon="3.98937">
        <ele>711</ele>
        <time>2021-04-15T11:22:32Z</time>
      </trkpt>
      <trkpt lat="45.28017" lon="3.98941">
        <ele>711</ele>
        <time>2021-04-15T11:22:35Z</time>
      </trkpt>
      <trkpt lat="45.28019" lon="3.98942">
        <ele>712</ele>
        <time>2021-04-15T11:22:36Z</time>
      </trkpt>
      <trkpt lat="45.28022" lon="3.98944">
        <ele>712</ele>
        <time>2021-04-15T11:22:37Z</time>
      </trkpt>
      <trkpt lat="45.28025" lon="3.98945">
        <ele>712</ele>
        <time>2021-04-15T11:22:38Z</time>
      </trkpt>
      <trkpt lat="45.28028" lon="3.98947">
        <ele>712</ele>
        <time>2021-04-15T11:22:39Z</time>
      </trkpt>
      <trkpt lat="45.28033" lon="3.9895">
        <ele>712</ele>
        <time>2021-04-15T11:22:40Z</time>
      </trkpt>
      <trkpt lat="45.28036" lon="3.98951">
        <ele>713</ele>
        <time>2021-04-15T11:22:42Z</time>
      </trkpt>
      <trkpt lat="45.28042" lon="3.98954">
        <ele>713</ele>
        <time>2021-04-15T11:22:44Z</time>
      </trkpt>
      <trkpt lat="45.28047" lon="3.98957">
        <ele>713</ele>
        <time>2021-04-15T11:22:46Z</time>
      </trkpt>
      <trkpt lat="45.2805" lon="3.98958">
        <ele>714</ele>
        <time>2021-04-15T11:22:47Z</time>
      </trkpt>
      <trkpt lat="45.28053" lon="3.98959">
        <ele>714</ele>
        <time>2021-04-15T11:22:48Z</time>
      </trkpt>
      <trkpt lat="45.28061" lon="3.98963">
        <ele>715</ele>
        <time>2021-04-15T11:22:51Z</time>
      </trkpt>
      <trkpt lat="45.28063" lon="3.98964">
        <ele>715</ele>
        <time>2021-04-15T11:22:52Z</time>
      </trkpt>
      <trkpt lat="45.2807" lon="3.98969">
        <ele>717</ele>
        <time>2021-04-15T11:22:55Z</time>
      </trkpt>
      <trkpt lat="45.28072" lon="3.98971">
        <ele>717</ele>
        <time>2021-04-15T11:22:56Z</time>
      </trkpt>
      <trkpt lat="45.28073" lon="3.98973">
        <ele>718</ele>
        <time>2021-04-15T11:22:57Z</time>
      </trkpt>
      <trkpt lat="45.28074" lon="3.98976">
        <ele>718</ele>
        <time>2021-04-15T11:22:58Z</time>
      </trkpt>
      <trkpt lat="45.28072" lon="3.98985">
        <ele>719</ele>
        <time>2021-04-15T11:23:01Z</time>
      </trkpt>
      <trkpt lat="45.28063" lon="3.98991">
        <ele>722</ele>
        <time>2021-04-15T11:23:05Z</time>
      </trkpt>
      <trkpt lat="45.28054" lon="3.98997">
        <ele>724</ele>
        <time>2021-04-15T11:23:09Z</time>
      </trkpt>
      <trkpt lat="45.28051" lon="3.98998">
        <ele>725</ele>
        <time>2021-04-15T11:23:10Z</time>
      </trkpt>
      <trkpt lat="45.28043" lon="3.99004">
        <ele>727</ele>
        <time>2021-04-15T11:23:14Z</time>
      </trkpt>
      <trkpt lat="45.28034" lon="3.99011">
        <ele>729</ele>
        <time>2021-04-15T11:23:18Z</time>
      </trkpt>
      <trkpt lat="45.28026" lon="3.99018">
        <ele>732</ele>
        <time>2021-04-15T11:23:22Z</time>
      </trkpt>
      <trkpt lat="45.28018" lon="3.99023">
        <ele>734</ele>
        <time>2021-04-15T11:23:25Z</time>
      </trkpt>
      <trkpt lat="45.28007" lon="3.99028">
        <ele>737</ele>
        <time>2021-04-15T11:23:29Z</time>
      </trkpt>
      <trkpt lat="45.27997" lon="3.99033">
        <ele>739</ele>
        <time>2021-04-15T11:23:33Z</time>
      </trkpt>
      <trkpt lat="45.27987" lon="3.99037">
        <ele>741</ele>
        <time>2021-04-15T11:23:36Z</time>
      </trkpt>
      <trkpt lat="45.27979" lon="3.9904">
        <ele>741</ele>
        <time>2021-04-15T11:23:39Z</time>
      </trkpt>
      <trkpt lat="45.27976" lon="3.99042">
        <ele>742</ele>
        <time>2021-04-15T11:23:40Z</time>
      </trkpt>
      <trkpt lat="45.27974" lon="3.99044">
        <ele>742</ele>
        <time>2021-04-15T11:23:41Z</time>
      </trkpt>
      <trkpt lat="45.2797" lon="3.9905">
        <ele>744</ele>
        <time>2021-04-15T11:23:43Z</time>
      </trkpt>
      <trkpt lat="45.2797" lon="3.99053">
        <ele>744</ele>
        <time>2021-04-15T11:23:44Z</time>
      </trkpt>
      <trkpt lat="45.27973" lon="3.9906">
        <ele>745</ele>
        <time>2021-04-15T11:23:46Z</time>
      </trkpt>
      <trkpt lat="45.27975" lon="3.99062">
        <ele>746</ele>
        <time>2021-04-15T11:23:47Z</time>
      </trkpt>
      <trkpt lat="45.27977" lon="3.99064">
        <ele>746</ele>
        <time>2021-04-15T11:23:48Z</time>
      </trkpt>
      <trkpt lat="45.2798" lon="3.99066">
        <ele>746</ele>
        <time>2021-04-15T11:23:49Z</time>
      </trkpt>
      <trkpt lat="45.27983" lon="3.99068">
        <ele>747</ele>
        <time>2021-04-15T11:23:50Z</time>
      </trkpt>
      <trkpt lat="45.27991" lon="3.99073">
        <ele>748</ele>
        <time>2021-04-15T11:23:53Z</time>
      </trkpt>
      <trkpt lat="45.28001" lon="3.99075">
        <ele>749</ele>
        <time>2021-04-15T11:23:56Z</time>
      </trkpt>
      <trkpt lat="45.28005" lon="3.99087">
        <ele>754</ele>
        <time>2021-04-15T11:24:03Z</time>
      </trkpt>
      <trkpt lat="45.27996" lon="3.99095">
        <ele>755</ele>
        <time>2021-04-15T11:24:07Z</time>
      </trkpt>
      <trkpt lat="45.27987" lon="3.99102">
        <ele>757</ele>
        <time>2021-04-15T11:24:10Z</time>
      </trkpt>
      <trkpt lat="45.27979" lon="3.99111">
        <ele>759</ele>
        <time>2021-04-15T11:24:16Z</time>
      </trkpt>
      <trkpt lat="45.27968" lon="3.99117">
        <ele>762</ele>
        <time>2021-04-15T11:24:20Z</time>
      </trkpt>
      <trkpt lat="45.27957" lon="3.99122">
        <ele>764</ele>
        <time>2021-04-15T11:24:24Z</time>
      </trkpt>
      <trkpt lat="45.27945" lon="3.99124">
        <ele>767</ele>
        <time>2021-04-15T11:24:28Z</time>
      </trkpt>
      <trkpt lat="45.27933" lon="3.99128">
        <ele>769</ele>
        <time>2021-04-15T11:24:32Z</time>
      </trkpt>
      <trkpt lat="45.27922" lon="3.99135">
        <ele>770</ele>
        <time>2021-04-15T11:24:34Z</time>
      </trkpt>
      <trkpt lat="45.27915" lon="3.99149">
        <ele>773</ele>
        <time>2021-04-15T11:24:38Z</time>
      </trkpt>
      <trkpt lat="45.27915" lon="3.99153">
        <ele>773</ele>
        <time>2021-04-15T11:24:39Z</time>
      </trkpt>
      <trkpt lat="45.27918" lon="3.99158">
        <ele>774</ele>
        <time>2021-04-15T11:24:41Z</time>
      </trkpt>
      <trkpt lat="45.27921" lon="3.99158">
        <ele>774</ele>
        <time>2021-04-15T11:24:42Z</time>
      </trkpt>
      <trkpt lat="45.27923" lon="3.99157">
        <ele>775</ele>
        <time>2021-04-15T11:24:43Z</time>
      </trkpt>
      <trkpt lat="45.27926" lon="3.99155">
        <ele>775</ele>
        <time>2021-04-15T11:24:44Z</time>
      </trkpt>
      <trkpt lat="45.27929" lon="3.99154">
        <ele>775</ele>
        <time>2021-04-15T11:24:45Z</time>
      </trkpt>
      <trkpt lat="45.27932" lon="3.99155">
        <ele>775</ele>
        <time>2021-04-15T11:24:46Z</time>
      </trkpt>
      <trkpt lat="45.27935" lon="3.99157">
        <ele>776</ele>
        <time>2021-04-15T11:24:47Z</time>
      </trkpt>
      <trkpt lat="45.27936" lon="3.9916">
        <ele>776</ele>
        <time>2021-04-15T11:24:48Z</time>
      </trkpt>
      <trkpt lat="45.27937" lon="3.99163">
        <ele>776</ele>
        <time>2021-04-15T11:24:49Z</time>
      </trkpt>
      <trkpt lat="45.27937" lon="3.99167">
        <ele>776</ele>
        <time>2021-04-15T11:24:50Z</time>
      </trkpt>
      <trkpt lat="45.27937" lon="3.99171">
        <ele>777</ele>
        <time>2021-04-15T11:24:51Z</time>
      </trkpt>
      <trkpt lat="45.27936" lon="3.99175">
        <ele>777</ele>
        <time>2021-04-15T11:24:52Z</time>
      </trkpt>
      <trkpt lat="45.27936" lon="3.99182">
        <ele>778</ele>
        <time>2021-04-15T11:24:53Z</time>
      </trkpt>
      <trkpt lat="45.27936" lon="3.99187">
        <ele>778</ele>
        <time>2021-04-15T11:24:55Z</time>
      </trkpt>
      <trkpt lat="45.27935" lon="3.99191">
        <ele>779</ele>
        <time>2021-04-15T11:24:56Z</time>
      </trkpt>
      <trkpt lat="45.27934" lon="3.99194">
        <ele>780</ele>
        <time>2021-04-15T11:24:57Z</time>
      </trkpt>
      <trkpt lat="45.27933" lon="3.99198">
        <ele>780</ele>
        <time>2021-04-15T11:24:58Z</time>
      </trkpt>
      <trkpt lat="45.27933" lon="3.99203">
        <ele>781</ele>
        <time>2021-04-15T11:24:59Z</time>
      </trkpt>
      <trkpt lat="45.27933" lon="3.99207">
        <ele>782</ele>
        <time>2021-04-15T11:25:00Z</time>
      </trkpt>
      <trkpt lat="45.27928" lon="3.99221">
        <ele>784</ele>
        <time>2021-04-15T11:25:04Z</time>
      </trkpt>
      <trkpt lat="45.27925" lon="3.99232">
        <ele>786</ele>
        <time>2021-04-15T11:25:07Z</time>
      </trkpt>
      <trkpt lat="45.27924" lon="3.99236">
        <ele>786</ele>
        <time>2021-04-15T11:25:08Z</time>
      </trkpt>
      <trkpt lat="45.27922" lon="3.99239">
        <ele>787</ele>
        <time>2021-04-15T11:25:09Z</time>
      </trkpt>
      <trkpt lat="45.2792" lon="3.99243">
        <ele>787</ele>
        <time>2021-04-15T11:25:10Z</time>
      </trkpt>
      <trkpt lat="45.27918" lon="3.99247">
        <ele>788</ele>
        <time>2021-04-15T11:25:11Z</time>
      </trkpt>
      <trkpt lat="45.27915" lon="3.99254">
        <ele>788</ele>
        <time>2021-04-15T11:25:12Z</time>
      </trkpt>
      <trkpt lat="45.27913" lon="3.99257">
        <ele>789</ele>
        <time>2021-04-15T11:25:14Z</time>
      </trkpt>
      <trkpt lat="45.27911" lon="3.99261">
        <ele>790</ele>
        <time>2021-04-15T11:25:15Z</time>
      </trkpt>
      <trkpt lat="45.27909" lon="3.99264">
        <ele>790</ele>
        <time>2021-04-15T11:25:16Z</time>
      </trkpt>
      <trkpt lat="45.27907" lon="3.99267">
        <ele>791</ele>
        <time>2021-04-15T11:25:17Z</time>
      </trkpt>
      <trkpt lat="45.27906" lon="3.9927">
        <ele>791</ele>
        <time>2021-04-15T11:25:18Z</time>
      </trkpt>
      <trkpt lat="45.27904" lon="3.99273">
        <ele>792</ele>
        <time>2021-04-15T11:25:19Z</time>
      </trkpt>
      <trkpt lat="45.27902" lon="3.99276">
        <ele>792</ele>
        <time>2021-04-15T11:25:20Z</time>
      </trkpt>
      <trkpt lat="45.279" lon="3.99279">
        <ele>793</ele>
        <time>2021-04-15T11:25:21Z</time>
      </trkpt>
      <trkpt lat="45.27898" lon="3.99282">
        <ele>793</ele>
        <time>2021-04-15T11:25:22Z</time>
      </trkpt>
      <trkpt lat="45.27896" lon="3.99285">
        <ele>793</ele>
        <time>2021-04-15T11:25:23Z</time>
      </trkpt>
      <trkpt lat="45.27893" lon="3.99288">
        <ele>794</ele>
        <time>2021-04-15T11:25:24Z</time>
      </trkpt>
      <trkpt lat="45.27891" lon="3.99291">
        <ele>795</ele>
        <time>2021-04-15T11:25:25Z</time>
      </trkpt>
      <trkpt lat="45.27889" lon="3.99295">
        <ele>795</ele>
        <time>2021-04-15T11:25:26Z</time>
      </trkpt>
      <trkpt lat="45.27887" lon="3.99298">
        <ele>796</ele>
        <time>2021-04-15T11:25:27Z</time>
      </trkpt>
      <trkpt lat="45.27885" lon="3.99301">
        <ele>796</ele>
        <time>2021-04-15T11:25:28Z</time>
      </trkpt>
      <trkpt lat="45.27883" lon="3.99304">
        <ele>797</ele>
        <time>2021-04-15T11:25:29Z</time>
      </trkpt>
      <trkpt lat="45.27881" lon="3.99308">
        <ele>797</ele>
        <time>2021-04-15T11:25:30Z</time>
      </trkpt>
      <trkpt lat="45.27879" lon="3.99311">
        <ele>797</ele>
        <time>2021-04-15T11:25:31Z</time>
      </trkpt>
      <trkpt lat="45.27878" lon="3.99314">
        <ele>797</ele>
        <time>2021-04-15T11:25:32Z</time>
      </trkpt>
      <trkpt lat="45.27876" lon="3.99318">
        <ele>798</ele>
        <time>2021-04-15T11:25:33Z</time>
      </trkpt>
      <trkpt lat="45.27874" lon="3.99321">
        <ele>798</ele>
        <time>2021-04-15T11:25:34Z</time>
      </trkpt>
      <trkpt lat="45.27872" lon="3.99324">
        <ele>799</ele>
        <time>2021-04-15T11:25:35Z</time>
      </trkpt>
      <trkpt lat="45.2787" lon="3.99328">
        <ele>799</ele>
        <time>2021-04-15T11:25:36Z</time>
      </trkpt>
      <trkpt lat="45.27869" lon="3.99331">
        <ele>799</ele>
        <time>2021-04-15T11:25:37Z</time>
      </trkpt>
      <trkpt lat="45.27868" lon="3.99334">
        <ele>800</ele>
        <time>2021-04-15T11:25:38Z</time>
      </trkpt>
      <trkpt lat="45.27868" lon="3.99337">
        <ele>800</ele>
        <time>2021-04-15T11:25:39Z</time>
      </trkpt>
      <trkpt lat="45.27868" lon="3.9934">
        <ele>801</ele>
        <time>2021-04-15T11:25:40Z</time>
      </trkpt>
      <trkpt lat="45.27868" lon="3.99344">
        <ele>801</ele>
        <time>2021-04-15T11:25:41Z</time>
      </trkpt>
      <trkpt lat="45.27869" lon="3.99347">
        <ele>802</ele>
        <time>2021-04-15T11:25:42Z</time>
      </trkpt>
      <trkpt lat="45.2787" lon="3.99351">
        <ele>802</ele>
        <time>2021-04-15T11:25:43Z</time>
      </trkpt>
      <trkpt lat="45.27871" lon="3.99354">
        <ele>802</ele>
        <time>2021-04-15T11:25:44Z</time>
      </trkpt>
      <trkpt lat="45.27871" lon="3.99358">
        <ele>803</ele>
        <time>2021-04-15T11:25:45Z</time>
      </trkpt>
      <trkpt lat="45.27872" lon="3.99362">
        <ele>803</ele>
        <time>2021-04-15T11:25:46Z</time>
      </trkpt>
      <trkpt lat="45.27873" lon="3.99365">
        <ele>804</ele>
        <time>2021-04-15T11:25:47Z</time>
      </trkpt>
      <trkpt lat="45.27874" lon="3.99369">
        <ele>804</ele>
        <time>2021-04-15T11:25:48Z</time>
      </trkpt>
      <trkpt lat="45.27875" lon="3.99372">
        <ele>805</ele>
        <time>2021-04-15T11:25:49Z</time>
      </trkpt>
      <trkpt lat="45.27876" lon="3.99379">
        <ele>805</ele>
        <time>2021-04-15T11:25:50Z</time>
      </trkpt>
      <trkpt lat="45.27876" lon="3.99382">
        <ele>807</ele>
        <time>2021-04-15T11:25:52Z</time>
      </trkpt>
      <trkpt lat="45.27877" lon="3.99386">
        <ele>807</ele>
        <time>2021-04-15T11:25:53Z</time>
      </trkpt>
      <trkpt lat="45.27877" lon="3.99389">
        <ele>808</ele>
        <time>2021-04-15T11:25:54Z</time>
      </trkpt>
      <trkpt lat="45.27878" lon="3.99392">
        <ele>808</ele>
        <time>2021-04-15T11:25:55Z</time>
      </trkpt>
      <trkpt lat="45.27879" lon="3.99395">
        <ele>808</ele>
        <time>2021-04-15T11:25:56Z</time>
      </trkpt>
      <trkpt lat="45.27879" lon="3.99398">
        <ele>808</ele>
        <time>2021-04-15T11:25:57Z</time>
      </trkpt>
      <trkpt lat="45.2788" lon="3.994">
        <ele>809</ele>
        <time>2021-04-15T11:25:58Z</time>
      </trkpt>
      <trkpt lat="45.27881" lon="3.99403">
        <ele>810</ele>
        <time>2021-04-15T11:25:59Z</time>
      </trkpt>
      <trkpt lat="45.27882" lon="3.99406">
        <ele>810</ele>
        <time>2021-04-15T11:26:00Z</time>
      </trkpt>
      <trkpt lat="45.27883" lon="3.99409">
        <ele>811</ele>
        <time>2021-04-15T11:26:01Z</time>
      </trkpt>
      <trkpt lat="45.27884" lon="3.99411">
        <ele>811</ele>
        <time>2021-04-15T11:26:02Z</time>
      </trkpt>
      <trkpt lat="45.27884" lon="3.99414">
        <ele>811</ele>
        <time>2021-04-15T11:26:03Z</time>
      </trkpt>
      <trkpt lat="45.27885" lon="3.99417">
        <ele>812</ele>
        <time>2021-04-15T11:26:04Z</time>
      </trkpt>
      <trkpt lat="45.27886" lon="3.9942">
        <ele>813</ele>
        <time>2021-04-15T11:26:05Z</time>
      </trkpt>
      <trkpt lat="45.27886" lon="3.99423">
        <ele>813</ele>
        <time>2021-04-15T11:26:06Z</time>
      </trkpt>
      <trkpt lat="45.27888" lon="3.99425">
        <ele>813</ele>
        <time>2021-04-15T11:26:07Z</time>
      </trkpt>
      <trkpt lat="45.27889" lon="3.99427">
        <ele>814</ele>
        <time>2021-04-15T11:26:08Z</time>
      </trkpt>
      <trkpt lat="45.27891" lon="3.99429">
        <ele>814</ele>
        <time>2021-04-15T11:26:09Z</time>
      </trkpt>
      <trkpt lat="45.27892" lon="3.99432">
        <ele>814</ele>
        <time>2021-04-15T11:26:10Z</time>
      </trkpt>
      <trkpt lat="45.27894" lon="3.99434">
        <ele>815</ele>
        <time>2021-04-15T11:26:11Z</time>
      </trkpt>
      <trkpt lat="45.27896" lon="3.99436">
        <ele>816</ele>
        <time>2021-04-15T11:26:12Z</time>
      </trkpt>
      <trkpt lat="45.27897" lon="3.99438">
        <ele>816</ele>
        <time>2021-04-15T11:26:13Z</time>
      </trkpt>
      <trkpt lat="45.27899" lon="3.9944">
        <ele>817</ele>
        <time>2021-04-15T11:26:14Z</time>
      </trkpt>
      <trkpt lat="45.279" lon="3.99443">
        <ele>817</ele>
        <time>2021-04-15T11:26:15Z</time>
      </trkpt>
      <trkpt lat="45.27902" lon="3.99445">
        <ele>818</ele>
        <time>2021-04-15T11:26:16Z</time>
      </trkpt>
      <trkpt lat="45.27903" lon="3.99447">
        <ele>818</ele>
        <time>2021-04-15T11:26:17Z</time>
      </trkpt>
      <trkpt lat="45.27904" lon="3.9945">
        <ele>819</ele>
        <time>2021-04-15T11:26:18Z</time>
      </trkpt>
      <trkpt lat="45.27905" lon="3.99452">
        <ele>819</ele>
        <time>2021-04-15T11:26:19Z</time>
      </trkpt>
      <trkpt lat="45.27907" lon="3.99455">
        <ele>820</ele>
        <time>2021-04-15T11:26:20Z</time>
      </trkpt>
      <trkpt lat="45.27908" lon="3.99457">
        <ele>821</ele>
        <time>2021-04-15T11:26:21Z</time>
      </trkpt>
      <trkpt lat="45.27908" lon="3.9946">
        <ele>821</ele>
        <time>2021-04-15T11:26:22Z</time>
      </trkpt>
      <trkpt lat="45.27909" lon="3.99462">
        <ele>822</ele>
        <time>2021-04-15T11:26:23Z</time>
      </trkpt>
      <trkpt lat="45.2791" lon="3.99465">
        <ele>822</ele>
        <time>2021-04-15T11:26:24Z</time>
      </trkpt>
      <trkpt lat="45.2791" lon="3.99468">
        <ele>823</ele>
        <time>2021-04-15T11:26:25Z</time>
      </trkpt>
      <trkpt lat="45.27911" lon="3.99472">
        <ele>823</ele>
        <time>2021-04-15T11:26:26Z</time>
      </trkpt>
      <trkpt lat="45.27911" lon="3.99476">
        <ele>823</ele>
        <time>2021-04-15T11:26:27Z</time>
      </trkpt>
      <trkpt lat="45.2791" lon="3.9948">
        <ele>824</ele>
        <time>2021-04-15T11:26:28Z</time>
      </trkpt>
      <trkpt lat="45.2791" lon="3.99484">
        <ele>824</ele>
        <time>2021-04-15T11:26:29Z</time>
      </trkpt>
      <trkpt lat="45.27909" lon="3.99488">
        <ele>825</ele>
        <time>2021-04-15T11:26:30Z</time>
      </trkpt>
      <trkpt lat="45.27908" lon="3.99492">
        <ele>825</ele>
        <time>2021-04-15T11:26:31Z</time>
      </trkpt>
      <trkpt lat="45.27907" lon="3.99495">
        <ele>826</ele>
        <time>2021-04-15T11:26:32Z</time>
      </trkpt>
      <trkpt lat="45.27906" lon="3.995">
        <ele>826</ele>
        <time>2021-04-15T11:26:33Z</time>
      </trkpt>
      <trkpt lat="45.27905" lon="3.99504">
        <ele>827</ele>
        <time>2021-04-15T11:26:34Z</time>
      </trkpt>
      <trkpt lat="45.27904" lon="3.99508">
        <ele>827</ele>
        <time>2021-04-15T11:26:35Z</time>
      </trkpt>
      <trkpt lat="45.27903" lon="3.99513">
        <ele>828</ele>
        <time>2021-04-15T11:26:36Z</time>
      </trkpt>
      <trkpt lat="45.27902" lon="3.99517">
        <ele>828</ele>
        <time>2021-04-15T11:26:37Z</time>
      </trkpt>
      <trkpt lat="45.27901" lon="3.99521">
        <ele>829</ele>
        <time>2021-04-15T11:26:38Z</time>
      </trkpt>
      <trkpt lat="45.279" lon="3.99525">
        <ele>829</ele>
        <time>2021-04-15T11:26:39Z</time>
      </trkpt>
      <trkpt lat="45.279" lon="3.99528">
        <ele>830</ele>
        <time>2021-04-15T11:26:40Z</time>
      </trkpt>
      <trkpt lat="45.27893" lon="3.99543">
        <ele>832</ele>
        <time>2021-04-15T11:27:09Z</time>
      </trkpt>
      <trkpt lat="45.27888" lon="3.99551">
        <ele>832</ele>
        <time>2021-04-15T11:27:10Z</time>
      </trkpt>
      <trkpt lat="45.27886" lon="3.99555">
        <ele>833</ele>
        <time>2021-04-15T11:27:12Z</time>
      </trkpt>
      <trkpt lat="45.27885" lon="3.99559">
        <ele>833</ele>
        <time>2021-04-15T11:27:13Z</time>
      </trkpt>
      <trkpt lat="45.27883" lon="3.99562">
        <ele>834</ele>
        <time>2021-04-15T11:27:14Z</time>
      </trkpt>
      <trkpt lat="45.27882" lon="3.99565">
        <ele>834</ele>
        <time>2021-04-15T11:27:15Z</time>
      </trkpt>
      <trkpt lat="45.27879" lon="3.99567">
        <ele>834</ele>
        <time>2021-04-15T11:27:17Z</time>
      </trkpt>
      <trkpt lat="45.27877" lon="3.99569">
        <ele>835</ele>
        <time>2021-04-15T11:27:19Z</time>
      </trkpt>
      <trkpt lat="45.27875" lon="3.9957">
        <ele>835</ele>
        <time>2021-04-15T11:27:21Z</time>
      </trkpt>
      <trkpt lat="45.27873" lon="3.99571">
        <ele>835</ele>
        <time>2021-04-15T11:27:22Z</time>
      </trkpt>
      <trkpt lat="45.2787" lon="3.99571">
        <ele>835</ele>
        <time>2021-04-15T11:27:23Z</time>
      </trkpt>
      <trkpt lat="45.27867" lon="3.99571">
        <ele>835</ele>
        <time>2021-04-15T11:27:24Z</time>
      </trkpt>
      <trkpt lat="45.27864" lon="3.99572">
        <ele>836</ele>
        <time>2021-04-15T11:27:25Z</time>
      </trkpt>
      <trkpt lat="45.27861" lon="3.99573">
        <ele>836</ele>
        <time>2021-04-15T11:27:26Z</time>
      </trkpt>
      <trkpt lat="45.27857" lon="3.99573">
        <ele>836</ele>
        <time>2021-04-15T11:27:27Z</time>
      </trkpt>
      <trkpt lat="45.27853" lon="3.99574">
        <ele>836</ele>
        <time>2021-04-15T11:27:28Z</time>
      </trkpt>
      <trkpt lat="45.27845" lon="3.99575">
        <ele>836</ele>
        <time>2021-04-15T11:27:29Z</time>
      </trkpt>
      <trkpt lat="45.27842" lon="3.99577">
        <ele>836</ele>
        <time>2021-04-15T11:27:31Z</time>
      </trkpt>
      <trkpt lat="45.27839" lon="3.99579">
        <ele>836</ele>
        <time>2021-04-15T11:27:32Z</time>
      </trkpt>
      <trkpt lat="45.27836" lon="3.99581">
        <ele>836</ele>
        <time>2021-04-15T11:27:33Z</time>
      </trkpt>
      <trkpt lat="45.27833" lon="3.99584">
        <ele>837</ele>
        <time>2021-04-15T11:27:34Z</time>
      </trkpt>
      <trkpt lat="45.2783" lon="3.99588">
        <ele>837</ele>
        <time>2021-04-15T11:27:35Z</time>
      </trkpt>
      <trkpt lat="45.27826" lon="3.99591">
        <ele>837</ele>
        <time>2021-04-15T11:27:36Z</time>
      </trkpt>
      <trkpt lat="45.27823" lon="3.99595">
        <ele>837</ele>
        <time>2021-04-15T11:27:37Z</time>
      </trkpt>
      <trkpt lat="45.27819" lon="3.99599">
        <ele>837</ele>
        <time>2021-04-15T11:27:38Z</time>
      </trkpt>
      <trkpt lat="45.27816" lon="3.99604">
        <ele>837</ele>
        <time>2021-04-15T11:27:39Z</time>
      </trkpt>
      <trkpt lat="45.27812" lon="3.99609">
        <ele>837</ele>
        <time>2021-04-15T11:27:40Z</time>
      </trkpt>
      <trkpt lat="45.27808" lon="3.99614">
        <ele>837</ele>
        <time>2021-04-15T11:27:41Z</time>
      </trkpt>
      <trkpt lat="45.27804" lon="3.99619">
        <ele>837</ele>
        <time>2021-04-15T11:27:42Z</time>
      </trkpt>
      <trkpt lat="45.278" lon="3.99624">
        <ele>837</ele>
        <time>2021-04-15T11:27:43Z</time>
      </trkpt>
      <trkpt lat="45.27795" lon="3.99628">
        <ele>837</ele>
        <time>2021-04-15T11:27:44Z</time>
      </trkpt>
      <trkpt lat="45.27791" lon="3.99632">
        <ele>837</ele>
        <time>2021-04-15T11:27:45Z</time>
      </trkpt>
      <trkpt lat="45.27787" lon="3.99636">
        <ele>837</ele>
        <time>2021-04-15T11:27:46Z</time>
      </trkpt>
      <trkpt lat="45.27783" lon="3.99641">
        <ele>838</ele>
        <time>2021-04-15T11:27:47Z</time>
      </trkpt>
      <trkpt lat="45.27774" lon="3.99649">
        <ele>838</ele>
        <time>2021-04-15T11:27:48Z</time>
      </trkpt>
      <trkpt lat="45.2777" lon="3.99653">
        <ele>838</ele>
        <time>2021-04-15T11:27:50Z</time>
      </trkpt>
      <trkpt lat="45.27765" lon="3.99657">
        <ele>838</ele>
        <time>2021-04-15T11:27:51Z</time>
      </trkpt>
      <trkpt lat="45.27761" lon="3.99661">
        <ele>838</ele>
        <time>2021-04-15T11:27:52Z</time>
      </trkpt>
      <trkpt lat="45.27757" lon="3.99665">
        <ele>838</ele>
        <time>2021-04-15T11:27:53Z</time>
      </trkpt>
      <trkpt lat="45.27752" lon="3.99669">
        <ele>838</ele>
        <time>2021-04-15T11:27:54Z</time>
      </trkpt>
      <trkpt lat="45.27748" lon="3.99673">
        <ele>838</ele>
        <time>2021-04-15T11:27:55Z</time>
      </trkpt>
      <trkpt lat="45.27744" lon="3.99677">
        <ele>838</ele>
        <time>2021-04-15T11:27:56Z</time>
      </trkpt>
      <trkpt lat="45.2774" lon="3.99681">
        <ele>838</ele>
        <time>2021-04-15T11:27:57Z</time>
      </trkpt>
      <trkpt lat="45.27736" lon="3.99685">
        <ele>838</ele>
        <time>2021-04-15T11:27:58Z</time>
      </trkpt>
      <trkpt lat="45.27732" lon="3.99689">
        <ele>838</ele>
        <time>2021-04-15T11:27:59Z</time>
      </trkpt>
      <trkpt lat="45.27728" lon="3.99693">
        <ele>838</ele>
        <time>2021-04-15T11:28:00Z</time>
      </trkpt>
      <trkpt lat="45.27724" lon="3.99697">
        <ele>838</ele>
        <time>2021-04-15T11:28:01Z</time>
      </trkpt>
      <trkpt lat="45.27719" lon="3.99701">
        <ele>838</ele>
        <time>2021-04-15T11:28:02Z</time>
      </trkpt>
      <trkpt lat="45.27715" lon="3.99704">
        <ele>838</ele>
        <time>2021-04-15T11:28:03Z</time>
      </trkpt>
      <trkpt lat="45.2771" lon="3.99706">
        <ele>838</ele>
        <time>2021-04-15T11:28:04Z</time>
      </trkpt>
      <trkpt lat="45.27705" lon="3.99707">
        <ele>838</ele>
        <time>2021-04-15T11:28:05Z</time>
      </trkpt>
      <trkpt lat="45.27701" lon="3.99709">
        <ele>837</ele>
        <time>2021-04-15T11:28:06Z</time>
      </trkpt>
      <trkpt lat="45.27696" lon="3.99719">
        <ele>837</ele>
        <time>2021-04-15T11:28:07Z</time>
      </trkpt>
      <trkpt lat="45.27695" lon="3.99725">
        <ele>838</ele>
        <time>2021-04-15T11:28:09Z</time>
      </trkpt>
      <trkpt lat="45.27696" lon="3.9973">
        <ele>838</ele>
        <time>2021-04-15T11:28:10Z</time>
      </trkpt>
      <trkpt lat="45.27697" lon="3.99736">
        <ele>838</ele>
        <time>2021-04-15T11:28:11Z</time>
      </trkpt>
      <trkpt lat="45.27698" lon="3.99741">
        <ele>838</ele>
        <time>2021-04-15T11:28:12Z</time>
      </trkpt>
      <trkpt lat="45.277" lon="3.99745">
        <ele>838</ele>
        <time>2021-04-15T11:28:13Z</time>
      </trkpt>
      <trkpt lat="45.27703" lon="3.99748">
        <ele>838</ele>
        <time>2021-04-15T11:28:14Z</time>
      </trkpt>
      <trkpt lat="45.27705" lon="3.99751">
        <ele>838</ele>
        <time>2021-04-15T11:28:15Z</time>
      </trkpt>
      <trkpt lat="45.27706" lon="3.99753">
        <ele>838</ele>
        <time>2021-04-15T11:28:16Z</time>
      </trkpt>
      <trkpt lat="45.27708" lon="3.99756">
        <ele>838</ele>
        <time>2021-04-15T11:28:17Z</time>
      </trkpt>
      <trkpt lat="45.2771" lon="3.99758">
        <ele>838</ele>
        <time>2021-04-15T11:28:18Z</time>
      </trkpt>
      <trkpt lat="45.27711" lon="3.9976">
        <ele>838</ele>
        <time>2021-04-15T11:28:19Z</time>
      </trkpt>
      <trkpt lat="45.27713" lon="3.99763">
        <ele>838</ele>
        <time>2021-04-15T11:28:20Z</time>
      </trkpt>
      <trkpt lat="45.27714" lon="3.99766">
        <ele>838</ele>
        <time>2021-04-15T11:28:21Z</time>
      </trkpt>
      <trkpt lat="45.27716" lon="3.99769">
        <ele>838</ele>
        <time>2021-04-15T11:28:22Z</time>
      </trkpt>
      <trkpt lat="45.27717" lon="3.99771">
        <ele>838</ele>
        <time>2021-04-15T11:28:23Z</time>
      </trkpt>
      <trkpt lat="45.27719" lon="3.99774">
        <ele>838</ele>
        <time>2021-04-15T11:28:24Z</time>
      </trkpt>
      <trkpt lat="45.2772" lon="3.99776">
        <ele>838</ele>
        <time>2021-04-15T11:28:25Z</time>
      </trkpt>
      <trkpt lat="45.27721" lon="3.99779">
        <ele>838</ele>
        <time>2021-04-15T11:28:26Z</time>
      </trkpt>
      <trkpt lat="45.27722" lon="3.99781">
        <ele>838</ele>
        <time>2021-04-15T11:28:27Z</time>
      </trkpt>
      <trkpt lat="45.27723" lon="3.99784">
        <ele>838</ele>
        <time>2021-04-15T11:28:28Z</time>
      </trkpt>
      <trkpt lat="45.27724" lon="3.99788">
        <ele>838</ele>
        <time>2021-04-15T11:28:29Z</time>
      </trkpt>
      <trkpt lat="45.27725" lon="3.99792">
        <ele>838</ele>
        <time>2021-04-15T11:28:30Z</time>
      </trkpt>
      <trkpt lat="45.27726" lon="3.99795">
        <ele>838</ele>
        <time>2021-04-15T11:28:31Z</time>
      </trkpt>
      <trkpt lat="45.27727" lon="3.99799">
        <ele>838</ele>
        <time>2021-04-15T11:28:32Z</time>
      </trkpt>
      <trkpt lat="45.27727" lon="3.99802">
        <ele>838</ele>
        <time>2021-04-15T11:28:33Z</time>
      </trkpt>
      <trkpt lat="45.27728" lon="3.99805">
        <ele>838</ele>
        <time>2021-04-15T11:28:34Z</time>
      </trkpt>
      <trkpt lat="45.27729" lon="3.99808">
        <ele>838</ele>
        <time>2021-04-15T11:28:35Z</time>
      </trkpt>
      <trkpt lat="45.27729" lon="3.9981">
        <ele>837</ele>
        <time>2021-04-15T11:28:36Z</time>
      </trkpt>
      <trkpt lat="45.2773" lon="3.99813">
        <ele>837</ele>
        <time>2021-04-15T11:28:37Z</time>
      </trkpt>
      <trkpt lat="45.2773" lon="3.99817">
        <ele>837</ele>
        <time>2021-04-15T11:28:38Z</time>
      </trkpt>
      <trkpt lat="45.27731" lon="3.99821">
        <ele>837</ele>
        <time>2021-04-15T11:28:39Z</time>
      </trkpt>
      <trkpt lat="45.27731" lon="3.99824">
        <ele>837</ele>
        <time>2021-04-15T11:28:40Z</time>
      </trkpt>
      <trkpt lat="45.27732" lon="3.99828">
        <ele>837</ele>
        <time>2021-04-15T11:28:41Z</time>
      </trkpt>
      <trkpt lat="45.27732" lon="3.99831">
        <ele>837</ele>
        <time>2021-04-15T11:28:42Z</time>
      </trkpt>
      <trkpt lat="45.27732" lon="3.99834">
        <ele>837</ele>
        <time>2021-04-15T11:28:43Z</time>
      </trkpt>
      <trkpt lat="45.27733" lon="3.99837">
        <ele>837</ele>
        <time>2021-04-15T11:28:44Z</time>
      </trkpt>
      <trkpt lat="45.27733" lon="3.9984">
        <ele>837</ele>
        <time>2021-04-15T11:28:45Z</time>
      </trkpt>
      <trkpt lat="45.27734" lon="3.99843">
        <ele>837</ele>
        <time>2021-04-15T11:28:46Z</time>
      </trkpt>
      <trkpt lat="45.27734" lon="3.99846">
        <ele>837</ele>
        <time>2021-04-15T11:28:47Z</time>
      </trkpt>
      <trkpt lat="45.27735" lon="3.99849">
        <ele>837</ele>
        <time>2021-04-15T11:28:48Z</time>
      </trkpt>
      <trkpt lat="45.27735" lon="3.99852">
        <ele>837</ele>
        <time>2021-04-15T11:28:49Z</time>
      </trkpt>
      <trkpt lat="45.27736" lon="3.99856">
        <ele>837</ele>
        <time>2021-04-15T11:28:50Z</time>
      </trkpt>
      <trkpt lat="45.27736" lon="3.99859">
        <ele>837</ele>
        <time>2021-04-15T11:28:51Z</time>
      </trkpt>
      <trkpt lat="45.27737" lon="3.99862">
        <ele>837</ele>
        <time>2021-04-15T11:28:52Z</time>
      </trkpt>
      <trkpt lat="45.27737" lon="3.99866">
        <ele>837</ele>
        <time>2021-04-15T11:28:53Z</time>
      </trkpt>
      <trkpt lat="45.27738" lon="3.9987">
        <ele>837</ele>
        <time>2021-04-15T11:28:54Z</time>
      </trkpt>
      <trkpt lat="45.27739" lon="3.99874">
        <ele>837</ele>
        <time>2021-04-15T11:28:55Z</time>
      </trkpt>
      <trkpt lat="45.2774" lon="3.99879">
        <ele>837</ele>
        <time>2021-04-15T11:28:56Z</time>
      </trkpt>
      <trkpt lat="45.2774" lon="3.99883">
        <ele>837</ele>
        <time>2021-04-15T11:28:57Z</time>
      </trkpt>
      <trkpt lat="45.27741" lon="3.99888">
        <ele>837</ele>
        <time>2021-04-15T11:28:58Z</time>
      </trkpt>
      <trkpt lat="45.27742" lon="3.99893">
        <ele>836</ele>
        <time>2021-04-15T11:28:59Z</time>
      </trkpt>
      <trkpt lat="45.27743" lon="3.99898">
        <ele>836</ele>
        <time>2021-04-15T11:29:00Z</time>
      </trkpt>
      <trkpt lat="45.27743" lon="3.99903">
        <ele>836</ele>
        <time>2021-04-15T11:29:01Z</time>
      </trkpt>
      <trkpt lat="45.27744" lon="3.99908">
        <ele>836</ele>
        <time>2021-04-15T11:29:02Z</time>
      </trkpt>
      <trkpt lat="45.27745" lon="3.99914">
        <ele>836</ele>
        <time>2021-04-15T11:29:03Z</time>
      </trkpt>
      <trkpt lat="45.27746" lon="3.99919">
        <ele>836</ele>
        <time>2021-04-15T11:29:04Z</time>
      </trkpt>
      <trkpt lat="45.27747" lon="3.99925">
        <ele>836</ele>
        <time>2021-04-15T11:29:05Z</time>
      </trkpt>
      <trkpt lat="45.27748" lon="3.99931">
        <ele>835</ele>
        <time>2021-04-15T11:29:06Z</time>
      </trkpt>
      <trkpt lat="45.27749" lon="3.99938">
        <ele>835</ele>
        <time>2021-04-15T11:29:07Z</time>
      </trkpt>
      <trkpt lat="45.27749" lon="3.99944">
        <ele>835</ele>
        <time>2021-04-15T11:29:08Z</time>
      </trkpt>
      <trkpt lat="45.2775" lon="3.99951">
        <ele>835</ele>
        <time>2021-04-15T11:29:09Z</time>
      </trkpt>
      <trkpt lat="45.2775" lon="3.99958">
        <ele>835</ele>
        <time>2021-04-15T11:29:10Z</time>
      </trkpt>
      <trkpt lat="45.2775" lon="3.99966">
        <ele>834</ele>
        <time>2021-04-15T11:29:11Z</time>
      </trkpt>
      <trkpt lat="45.27751" lon="3.99974">
        <ele>834</ele>
        <time>2021-04-15T11:29:12Z</time>
      </trkpt>
      <trkpt lat="45.2775" lon="3.99982">
        <ele>834</ele>
        <time>2021-04-15T11:29:13Z</time>
      </trkpt>
      <trkpt lat="45.2775" lon="3.99991">
        <ele>834</ele>
        <time>2021-04-15T11:29:14Z</time>
      </trkpt>
      <trkpt lat="45.27749" lon="3.99999">
        <ele>833</ele>
        <time>2021-04-15T11:29:15Z</time>
      </trkpt>
      <trkpt lat="45.27748" lon="4.00008">
        <ele>833</ele>
        <time>2021-04-15T11:29:16Z</time>
      </trkpt>
      <trkpt lat="45.27747" lon="4.00018">
        <ele>832</ele>
        <time>2021-04-15T11:29:17Z</time>
      </trkpt>
      <trkpt lat="45.27746" lon="4.00027">
        <ele>832</ele>
        <time>2021-04-15T11:29:18Z</time>
      </trkpt>
      <trkpt lat="45.27745" lon="4.00037">
        <ele>831</ele>
        <time>2021-04-15T11:29:19Z</time>
      </trkpt>
      <trkpt lat="45.27743" lon="4.00047">
        <ele>831</ele>
        <time>2021-04-15T11:29:20Z</time>
      </trkpt>
      <trkpt lat="45.27742" lon="4.00058">
        <ele>830</ele>
        <time>2021-04-15T11:29:21Z</time>
      </trkpt>
      <trkpt lat="45.2774" lon="4.00068">
        <ele>830</ele>
        <time>2021-04-15T11:29:22Z</time>
      </trkpt>
      <trkpt lat="45.27738" lon="4.00079">
        <ele>829</ele>
        <time>2021-04-15T11:29:23Z</time>
      </trkpt>
      <trkpt lat="45.27736" lon="4.00089">
        <ele>829</ele>
        <time>2021-04-15T11:29:24Z</time>
      </trkpt>
      <trkpt lat="45.27734" lon="4.001">
        <ele>828</ele>
        <time>2021-04-15T11:29:25Z</time>
      </trkpt>
      <trkpt lat="45.27731" lon="4.00112">
        <ele>826</ele>
        <time>2021-04-15T11:29:26Z</time>
      </trkpt>
      <trkpt lat="45.27729" lon="4.00124">
        <ele>825</ele>
        <time>2021-04-15T11:29:27Z</time>
      </trkpt>
      <trkpt lat="45.27727" lon="4.00137">
        <ele>824</ele>
        <time>2021-04-15T11:29:28Z</time>
      </trkpt>
      <trkpt lat="45.27728" lon="4.0015">
        <ele>824</ele>
        <time>2021-04-15T11:29:29Z</time>
      </trkpt>
      <trkpt lat="45.2773" lon="4.00161">
        <ele>824</ele>
        <time>2021-04-15T11:29:30Z</time>
      </trkpt>
      <trkpt lat="45.27732" lon="4.0017">
        <ele>822</ele>
        <time>2021-04-15T11:29:31Z</time>
      </trkpt>
      <trkpt lat="45.27735" lon="4.00177">
        <ele>822</ele>
        <time>2021-04-15T11:29:32Z</time>
      </trkpt>
      <trkpt lat="45.27739" lon="4.00183">
        <ele>822</ele>
        <time>2021-04-15T11:29:33Z</time>
      </trkpt>
      <trkpt lat="45.27742" lon="4.00187">
        <ele>822</ele>
        <time>2021-04-15T11:29:34Z</time>
      </trkpt>
      <trkpt lat="45.27747" lon="4.00188">
        <ele>821</ele>
        <time>2021-04-15T11:29:35Z</time>
      </trkpt>
      <trkpt lat="45.2775" lon="4.00187">
        <ele>821</ele>
        <time>2021-04-15T11:29:36Z</time>
      </trkpt>
      <trkpt lat="45.27753" lon="4.00185">
        <ele>821</ele>
        <time>2021-04-15T11:29:37Z</time>
      </trkpt>
      <trkpt lat="45.27757" lon="4.00183">
        <ele>821</ele>
        <time>2021-04-15T11:29:38Z</time>
      </trkpt>
      <trkpt lat="45.27761" lon="4.0018">
        <ele>821</ele>
        <time>2021-04-15T11:29:39Z</time>
      </trkpt>
      <trkpt lat="45.27765" lon="4.00177">
        <ele>821</ele>
        <time>2021-04-15T11:29:40Z</time>
      </trkpt>
      <trkpt lat="45.27769" lon="4.00173">
        <ele>821</ele>
        <time>2021-04-15T11:29:41Z</time>
      </trkpt>
      <trkpt lat="45.27773" lon="4.0017">
        <ele>821</ele>
        <time>2021-04-15T11:29:42Z</time>
      </trkpt>
      <trkpt lat="45.27777" lon="4.00166">
        <ele>821</ele>
        <time>2021-04-15T11:29:43Z</time>
      </trkpt>
      <trkpt lat="45.27781" lon="4.00162">
        <ele>821</ele>
        <time>2021-04-15T11:29:44Z</time>
      </trkpt>
      <trkpt lat="45.27785" lon="4.00158">
        <ele>821</ele>
        <time>2021-04-15T11:29:45Z</time>
      </trkpt>
      <trkpt lat="45.27789" lon="4.00154">
        <ele>822</ele>
        <time>2021-04-15T11:29:46Z</time>
      </trkpt>
      <trkpt lat="45.27793" lon="4.0015">
        <ele>822</ele>
        <time>2021-04-15T11:29:47Z</time>
      </trkpt>
      <trkpt lat="45.27797" lon="4.00146">
        <ele>822</ele>
        <time>2021-04-15T11:29:48Z</time>
      </trkpt>
      <trkpt lat="45.278" lon="4.00142">
        <ele>822</ele>
        <time>2021-04-15T11:29:49Z</time>
      </trkpt>
      <trkpt lat="45.27803" lon="4.00137">
        <ele>823</ele>
        <time>2021-04-15T11:29:50Z</time>
      </trkpt>
      <trkpt lat="45.27806" lon="4.00132">
        <ele>823</ele>
        <time>2021-04-15T11:29:51Z</time>
      </trkpt>
      <trkpt lat="45.27808" lon="4.00128">
        <ele>824</ele>
        <time>2021-04-15T11:29:52Z</time>
      </trkpt>
      <trkpt lat="45.27811" lon="4.00124">
        <ele>824</ele>
        <time>2021-04-15T11:29:53Z</time>
      </trkpt>
      <trkpt lat="45.27814" lon="4.00119">
        <ele>824</ele>
        <time>2021-04-15T11:29:54Z</time>
      </trkpt>
      <trkpt lat="45.27816" lon="4.00114">
        <ele>825</ele>
        <time>2021-04-15T11:29:55Z</time>
      </trkpt>
      <trkpt lat="45.27817" lon="4.00108">
        <ele>825</ele>
        <time>2021-04-15T11:29:56Z</time>
      </trkpt>
      <trkpt lat="45.27819" lon="4.00103">
        <ele>825</ele>
        <time>2021-04-15T11:29:57Z</time>
      </trkpt>
      <trkpt lat="45.27821" lon="4.00097">
        <ele>826</ele>
        <time>2021-04-15T11:29:58Z</time>
      </trkpt>
      <trkpt lat="45.27825" lon="4.00088">
        <ele>826</ele>
        <time>2021-04-15T11:29:59Z</time>
      </trkpt>
      <trkpt lat="45.27829" lon="4.00079">
        <ele>827</ele>
        <time>2021-04-15T11:30:01Z</time>
      </trkpt>
      <trkpt lat="45.27832" lon="4.00075">
        <ele>827</ele>
        <time>2021-04-15T11:30:03Z</time>
      </trkpt>
      <trkpt lat="45.27835" lon="4.00072">
        <ele>828</ele>
        <time>2021-04-15T11:30:04Z</time>
      </trkpt>
      <trkpt lat="45.27838" lon="4.00069">
        <ele>828</ele>
        <time>2021-04-15T11:30:05Z</time>
      </trkpt>
      <trkpt lat="45.27841" lon="4.00066">
        <ele>829</ele>
        <time>2021-04-15T11:30:06Z</time>
      </trkpt>
      <trkpt lat="45.27845" lon="4.00065">
        <ele>829</ele>
        <time>2021-04-15T11:30:07Z</time>
      </trkpt>
      <trkpt lat="45.27848" lon="4.00063">
        <ele>830</ele>
        <time>2021-04-15T11:30:08Z</time>
      </trkpt>
      <trkpt lat="45.27852" lon="4.00062">
        <ele>830</ele>
        <time>2021-04-15T11:30:09Z</time>
      </trkpt>
      <trkpt lat="45.27855" lon="4.00062">
        <ele>831</ele>
        <time>2021-04-15T11:30:10Z</time>
      </trkpt>
      <trkpt lat="45.27859" lon="4.00061">
        <ele>831</ele>
        <time>2021-04-15T11:30:11Z</time>
      </trkpt>
      <trkpt lat="45.27862" lon="4.00061">
        <ele>831</ele>
        <time>2021-04-15T11:30:12Z</time>
      </trkpt>
      <trkpt lat="45.27865" lon="4.0006">
        <ele>832</ele>
        <time>2021-04-15T11:30:13Z</time>
      </trkpt>
      <trkpt lat="45.27869" lon="4.0006">
        <ele>832</ele>
        <time>2021-04-15T11:30:14Z</time>
      </trkpt>
      <trkpt lat="45.27873" lon="4.0006">
        <ele>833</ele>
        <time>2021-04-15T11:30:15Z</time>
      </trkpt>
      <trkpt lat="45.27876" lon="4.00059">
        <ele>833</ele>
        <time>2021-04-15T11:30:16Z</time>
      </trkpt>
      <trkpt lat="45.2788" lon="4.00059">
        <ele>833</ele>
        <time>2021-04-15T11:30:17Z</time>
      </trkpt>
      <trkpt lat="45.27883" lon="4.00059">
        <ele>833</ele>
        <time>2021-04-15T11:30:18Z</time>
      </trkpt>
      <trkpt lat="45.27887" lon="4.00058">
        <ele>834</ele>
        <time>2021-04-15T11:30:19Z</time>
      </trkpt>
      <trkpt lat="45.2789" lon="4.00057">
        <ele>834</ele>
        <time>2021-04-15T11:30:20Z</time>
      </trkpt>
      <trkpt lat="45.27893" lon="4.00056">
        <ele>834</ele>
        <time>2021-04-15T11:30:21Z</time>
      </trkpt>
      <trkpt lat="45.27896" lon="4.00055">
        <ele>835</ele>
        <time>2021-04-15T11:30:22Z</time>
      </trkpt>
      <trkpt lat="45.279" lon="4.00054">
        <ele>835</ele>
        <time>2021-04-15T11:30:23Z</time>
      </trkpt>
      <trkpt lat="45.27903" lon="4.00054">
        <ele>835</ele>
        <time>2021-04-15T11:30:24Z</time>
      </trkpt>
      <trkpt lat="45.27906" lon="4.00052">
        <ele>836</ele>
        <time>2021-04-15T11:30:25Z</time>
      </trkpt>
      <trkpt lat="45.27909" lon="4.00051">
        <ele>836</ele>
        <time>2021-04-15T11:30:26Z</time>
      </trkpt>
      <trkpt lat="45.27912" lon="4.00049">
        <ele>836</ele>
        <time>2021-04-15T11:30:27Z</time>
      </trkpt>
      <trkpt lat="45.27915" lon="4.00048">
        <ele>837</ele>
        <time>2021-04-15T11:30:28Z</time>
      </trkpt>
      <trkpt lat="45.27918" lon="4.00046">
        <ele>837</ele>
        <time>2021-04-15T11:30:29Z</time>
      </trkpt>
      <trkpt lat="45.27921" lon="4.00044">
        <ele>838</ele>
        <time>2021-04-15T11:30:30Z</time>
      </trkpt>
      <trkpt lat="45.27924" lon="4.00043">
        <ele>838</ele>
        <time>2021-04-15T11:30:31Z</time>
      </trkpt>
      <trkpt lat="45.27928" lon="4.00042">
        <ele>838</ele>
        <time>2021-04-15T11:30:32Z</time>
      </trkpt>
      <trkpt lat="45.27931" lon="4.0004">
        <ele>839</ele>
        <time>2021-04-15T11:30:33Z</time>
      </trkpt>
      <trkpt lat="45.27934" lon="4.00038">
        <ele>839</ele>
        <time>2021-04-15T11:30:34Z</time>
      </trkpt>
      <trkpt lat="45.27937" lon="4.00036">
        <ele>840</ele>
        <time>2021-04-15T11:30:35Z</time>
      </trkpt>
      <trkpt lat="45.2794" lon="4.00034">
        <ele>840</ele>
        <time>2021-04-15T11:30:36Z</time>
      </trkpt>
      <trkpt lat="45.27942" lon="4.00032">
        <ele>841</ele>
        <time>2021-04-15T11:30:37Z</time>
      </trkpt>
      <trkpt lat="45.27945" lon="4.0003">
        <ele>841</ele>
        <time>2021-04-15T11:30:38Z</time>
      </trkpt>
      <trkpt lat="45.27948" lon="4.00028">
        <ele>842</ele>
        <time>2021-04-15T11:30:39Z</time>
      </trkpt>
      <trkpt lat="45.27951" lon="4.00026">
        <ele>842</ele>
        <time>2021-04-15T11:30:40Z</time>
      </trkpt>
      <trkpt lat="45.27954" lon="4.00023">
        <ele>842</ele>
        <time>2021-04-15T11:30:41Z</time>
      </trkpt>
      <trkpt lat="45.27957" lon="4.0002">
        <ele>843</ele>
        <time>2021-04-15T11:30:42Z</time>
      </trkpt>
      <trkpt lat="45.2796" lon="4.00018">
        <ele>843</ele>
        <time>2021-04-15T11:30:43Z</time>
      </trkpt>
      <trkpt lat="45.27963" lon="4.00015">
        <ele>844</ele>
        <time>2021-04-15T11:30:44Z</time>
      </trkpt>
      <trkpt lat="45.27966" lon="4.00012">
        <ele>844</ele>
        <time>2021-04-15T11:30:45Z</time>
      </trkpt>
      <trkpt lat="45.27969" lon="4.00009">
        <ele>844</ele>
        <time>2021-04-15T11:30:46Z</time>
      </trkpt>
      <trkpt lat="45.27972" lon="4.00005">
        <ele>845</ele>
        <time>2021-04-15T11:30:47Z</time>
      </trkpt>
      <trkpt lat="45.27975" lon="4.00002">
        <ele>845</ele>
        <time>2021-04-15T11:30:48Z</time>
      </trkpt>
      <trkpt lat="45.27978" lon="3.99998">
        <ele>845</ele>
        <time>2021-04-15T11:30:49Z</time>
      </trkpt>
      <trkpt lat="45.27981" lon="3.99994">
        <ele>846</ele>
        <time>2021-04-15T11:30:50Z</time>
      </trkpt>
      <trkpt lat="45.27984" lon="3.9999">
        <ele>846</ele>
        <time>2021-04-15T11:30:51Z</time>
      </trkpt>
      <trkpt lat="45.27987" lon="3.99986">
        <ele>846</ele>
        <time>2021-04-15T11:30:52Z</time>
      </trkpt>
      <trkpt lat="45.2799" lon="3.99983">
        <ele>846</ele>
        <time>2021-04-15T11:30:53Z</time>
      </trkpt>
      <trkpt lat="45.27993" lon="3.99979">
        <ele>846</ele>
        <time>2021-04-15T11:30:54Z</time>
      </trkpt>
      <trkpt lat="45.27996" lon="3.99976">
        <ele>846</ele>
        <time>2021-04-15T11:30:55Z</time>
      </trkpt>
      <trkpt lat="45.27999" lon="3.99972">
        <ele>847</ele>
        <time>2021-04-15T11:30:56Z</time>
      </trkpt>
      <trkpt lat="45.28002" lon="3.99968">
        <ele>847</ele>
        <time>2021-04-15T11:30:57Z</time>
      </trkpt>
      <trkpt lat="45.28005" lon="3.99963">
        <ele>847</ele>
        <time>2021-04-15T11:30:58Z</time>
      </trkpt>
      <trkpt lat="45.28007" lon="3.99959">
        <ele>847</ele>
        <time>2021-04-15T11:30:59Z</time>
      </trkpt>
      <trkpt lat="45.2801" lon="3.99955">
        <ele>848</ele>
        <time>2021-04-15T11:31:00Z</time>
      </trkpt>
      <trkpt lat="45.28012" lon="3.9995">
        <ele>848</ele>
        <time>2021-04-15T11:31:01Z</time>
      </trkpt>
      <trkpt lat="45.28015" lon="3.99945">
        <ele>848</ele>
        <time>2021-04-15T11:31:02Z</time>
      </trkpt>
      <trkpt lat="45.28017" lon="3.99941">
        <ele>849</ele>
        <time>2021-04-15T11:31:03Z</time>
      </trkpt>
      <trkpt lat="45.28019" lon="3.99936">
        <ele>849</ele>
        <time>2021-04-15T11:31:04Z</time>
      </trkpt>
      <trkpt lat="45.28022" lon="3.99931">
        <ele>849</ele>
        <time>2021-04-15T11:31:05Z</time>
      </trkpt>
      <trkpt lat="45.28024" lon="3.99926">
        <ele>849</ele>
        <time>2021-04-15T11:31:06Z</time>
      </trkpt>
      <trkpt lat="45.28027" lon="3.99922">
        <ele>850</ele>
        <time>2021-04-15T11:31:07Z</time>
      </trkpt>
      <trkpt lat="45.2803" lon="3.99917">
        <ele>850</ele>
        <time>2021-04-15T11:31:08Z</time>
      </trkpt>
      <trkpt lat="45.28032" lon="3.99912">
        <ele>850</ele>
        <time>2021-04-15T11:31:09Z</time>
      </trkpt>
      <trkpt lat="45.28035" lon="3.99906">
        <ele>850</ele>
        <time>2021-04-15T11:31:10Z</time>
      </trkpt>
      <trkpt lat="45.28037" lon="3.99902">
        <ele>850</ele>
        <time>2021-04-15T11:31:11Z</time>
      </trkpt>
      <trkpt lat="45.2804" lon="3.99897">
        <ele>851</ele>
        <time>2021-04-15T11:31:12Z</time>
      </trkpt>
      <trkpt lat="45.28043" lon="3.99892">
        <ele>851</ele>
        <time>2021-04-15T11:31:13Z</time>
      </trkpt>
      <trkpt lat="45.28047" lon="3.99887">
        <ele>851</ele>
        <time>2021-04-15T11:31:14Z</time>
      </trkpt>
      <trkpt lat="45.2805" lon="3.99883">
        <ele>851</ele>
        <time>2021-04-15T11:31:15Z</time>
      </trkpt>
      <trkpt lat="45.28053" lon="3.99878">
        <ele>851</ele>
        <time>2021-04-15T11:31:16Z</time>
      </trkpt>
      <trkpt lat="45.28056" lon="3.99873">
        <ele>852</ele>
        <time>2021-04-15T11:31:17Z</time>
      </trkpt>
      <trkpt lat="45.2806" lon="3.99868">
        <ele>852</ele>
        <time>2021-04-15T11:31:18Z</time>
      </trkpt>
      <trkpt lat="45.28063" lon="3.99863">
        <ele>852</ele>
        <time>2021-04-15T11:31:19Z</time>
      </trkpt>
      <trkpt lat="45.28067" lon="3.99858">
        <ele>852</ele>
        <time>2021-04-15T11:31:20Z</time>
      </trkpt>
      <trkpt lat="45.28071" lon="3.99853">
        <ele>852</ele>
        <time>2021-04-15T11:31:21Z</time>
      </trkpt>
      <trkpt lat="45.28074" lon="3.99848">
        <ele>852</ele>
        <time>2021-04-15T11:31:22Z</time>
      </trkpt>
      <trkpt lat="45.28078" lon="3.99843">
        <ele>853</ele>
        <time>2021-04-15T11:31:23Z</time>
      </trkpt>
      <trkpt lat="45.28082" lon="3.99839">
        <ele>853</ele>
        <time>2021-04-15T11:31:24Z</time>
      </trkpt>
      <trkpt lat="45.28086" lon="3.99834">
        <ele>853</ele>
        <time>2021-04-15T11:31:25Z</time>
      </trkpt>
      <trkpt lat="45.2809" lon="3.99829">
        <ele>853</ele>
        <time>2021-04-15T11:31:26Z</time>
      </trkpt>
      <trkpt lat="45.28094" lon="3.99824">
        <ele>854</ele>
        <time>2021-04-15T11:31:27Z</time>
      </trkpt>
      <trkpt lat="45.28098" lon="3.9982">
        <ele>854</ele>
        <time>2021-04-15T11:31:28Z</time>
      </trkpt>
      <trkpt lat="45.28102" lon="3.99816">
        <ele>854</ele>
        <time>2021-04-15T11:31:29Z</time>
      </trkpt>
      <trkpt lat="45.28106" lon="3.99811">
        <ele>854</ele>
        <time>2021-04-15T11:31:30Z</time>
      </trkpt>
      <trkpt lat="45.28111" lon="3.99807">
        <ele>854</ele>
        <time>2021-04-15T11:31:31Z</time>
      </trkpt>
      <trkpt lat="45.28115" lon="3.99802">
        <ele>854</ele>
        <time>2021-04-15T11:31:32Z</time>
      </trkpt>
      <trkpt lat="45.28119" lon="3.99798">
        <ele>855</ele>
        <time>2021-04-15T11:31:33Z</time>
      </trkpt>
      <trkpt lat="45.28123" lon="3.99794">
        <ele>855</ele>
        <time>2021-04-15T11:31:34Z</time>
      </trkpt>
      <trkpt lat="45.28127" lon="3.9979">
        <ele>855</ele>
        <time>2021-04-15T11:31:35Z</time>
      </trkpt>
      <trkpt lat="45.28131" lon="3.99785">
        <ele>855</ele>
        <time>2021-04-15T11:31:36Z</time>
      </trkpt>
      <trkpt lat="45.28135" lon="3.99781">
        <ele>856</ele>
        <time>2021-04-15T11:31:37Z</time>
      </trkpt>
      <trkpt lat="45.28139" lon="3.99777">
        <ele>856</ele>
        <time>2021-04-15T11:31:38Z</time>
      </trkpt>
      <trkpt lat="45.28143" lon="3.99773">
        <ele>856</ele>
        <time>2021-04-15T11:31:39Z</time>
      </trkpt>
      <trkpt lat="45.28147" lon="3.99769">
        <ele>857</ele>
        <time>2021-04-15T11:31:40Z</time>
      </trkpt>
      <trkpt lat="45.28151" lon="3.99765">
        <ele>857</ele>
        <time>2021-04-15T11:31:41Z</time>
      </trkpt>
      <trkpt lat="45.28154" lon="3.99761">
        <ele>858</ele>
        <time>2021-04-15T11:31:42Z</time>
      </trkpt>
      <trkpt lat="45.28158" lon="3.99757">
        <ele>858</ele>
        <time>2021-04-15T11:31:43Z</time>
      </trkpt>
      <trkpt lat="45.28161" lon="3.99753">
        <ele>858</ele>
        <time>2021-04-15T11:31:44Z</time>
      </trkpt>
      <trkpt lat="45.28165" lon="3.99749">
        <ele>859</ele>
        <time>2021-04-15T11:31:45Z</time>
      </trkpt>
      <trkpt lat="45.28169" lon="3.99745">
        <ele>859</ele>
        <time>2021-04-15T11:31:46Z</time>
      </trkpt>
      <trkpt lat="45.28172" lon="3.99741">
        <ele>859</ele>
        <time>2021-04-15T11:31:47Z</time>
      </trkpt>
      <trkpt lat="45.28176" lon="3.99738">
        <ele>860</ele>
        <time>2021-04-15T11:31:48Z</time>
      </trkpt>
      <trkpt lat="45.2818" lon="3.99734">
        <ele>860</ele>
        <time>2021-04-15T11:31:49Z</time>
      </trkpt>
      <trkpt lat="45.28184" lon="3.9973">
        <ele>860</ele>
        <time>2021-04-15T11:31:50Z</time>
      </trkpt>
      <trkpt lat="45.28187" lon="3.99726">
        <ele>860</ele>
        <time>2021-04-15T11:31:51Z</time>
      </trkpt>
      <trkpt lat="45.28191" lon="3.99723">
        <ele>861</ele>
        <time>2021-04-15T11:31:52Z</time>
      </trkpt>
      <trkpt lat="45.28195" lon="3.99721">
        <ele>861</ele>
        <time>2021-04-15T11:31:53Z</time>
      </trkpt>
      <trkpt lat="45.28199" lon="3.99719">
        <ele>861</ele>
        <time>2021-04-15T11:31:54Z</time>
      </trkpt>
      <trkpt lat="45.28207" lon="3.99717">
        <ele>862</ele>
        <time>2021-04-15T11:31:55Z</time>
      </trkpt>
      <trkpt lat="45.28211" lon="3.99715">
        <ele>862</ele>
        <time>2021-04-15T11:31:57Z</time>
      </trkpt>
      <trkpt lat="45.28215" lon="3.99714">
        <ele>862</ele>
        <time>2021-04-15T11:31:58Z</time>
      </trkpt>
      <trkpt lat="45.2822" lon="3.99712">
        <ele>862</ele>
        <time>2021-04-15T11:31:59Z</time>
      </trkpt>
      <trkpt lat="45.28224" lon="3.9971">
        <ele>862</ele>
        <time>2021-04-15T11:32:00Z</time>
      </trkpt>
      <trkpt lat="45.28228" lon="3.99708">
        <ele>862</ele>
        <time>2021-04-15T11:32:01Z</time>
      </trkpt>
      <trkpt lat="45.28233" lon="3.99706">
        <ele>862</ele>
        <time>2021-04-15T11:32:02Z</time>
      </trkpt>
      <trkpt lat="45.28237" lon="3.99704">
        <ele>862</ele>
        <time>2021-04-15T11:32:03Z</time>
      </trkpt>
      <trkpt lat="45.28242" lon="3.99704">
        <ele>862</ele>
        <time>2021-04-15T11:32:04Z</time>
      </trkpt>
      <trkpt lat="45.28247" lon="3.99704">
        <ele>862</ele>
        <time>2021-04-15T11:32:05Z</time>
      </trkpt>
      <trkpt lat="45.28252" lon="3.99705">
        <ele>862</ele>
        <time>2021-04-15T11:32:06Z</time>
      </trkpt>
      <trkpt lat="45.28258" lon="3.99706">
        <ele>862</ele>
        <time>2021-04-15T11:32:07Z</time>
      </trkpt>
      <trkpt lat="45.28264" lon="3.99706">
        <ele>862</ele>
        <time>2021-04-15T11:32:08Z</time>
      </trkpt>
      <trkpt lat="45.2827" lon="3.99706">
        <ele>862</ele>
        <time>2021-04-15T11:32:09Z</time>
      </trkpt>
      <trkpt lat="45.28276" lon="3.99706">
        <ele>862</ele>
        <time>2021-04-15T11:32:10Z</time>
      </trkpt>
      <trkpt lat="45.28282" lon="3.99705">
        <ele>861</ele>
        <time>2021-04-15T11:32:11Z</time>
      </trkpt>
      <trkpt lat="45.28287" lon="3.99704">
        <ele>861</ele>
        <time>2021-04-15T11:32:12Z</time>
      </trkpt>
      <trkpt lat="45.28293" lon="3.99702">
        <ele>861</ele>
        <time>2021-04-15T11:32:13Z</time>
      </trkpt>
      <trkpt lat="45.28303" lon="3.99699">
        <ele>861</ele>
        <time>2021-04-15T11:32:14Z</time>
      </trkpt>
      <trkpt lat="45.28308" lon="3.99697">
        <ele>861</ele>
        <time>2021-04-15T11:32:16Z</time>
      </trkpt>
      <trkpt lat="45.28313" lon="3.99695">
        <ele>861</ele>
        <time>2021-04-15T11:32:17Z</time>
      </trkpt>
      <trkpt lat="45.28318" lon="3.99694">
        <ele>861</ele>
        <time>2021-04-15T11:32:18Z</time>
      </trkpt>
      <trkpt lat="45.28323" lon="3.99692">
        <ele>861</ele>
        <time>2021-04-15T11:32:19Z</time>
      </trkpt>
      <trkpt lat="45.28327" lon="3.9969">
        <ele>861</ele>
        <time>2021-04-15T11:32:20Z</time>
      </trkpt>
      <trkpt lat="45.28332" lon="3.99688">
        <ele>861</ele>
        <time>2021-04-15T11:32:21Z</time>
      </trkpt>
      <trkpt lat="45.28337" lon="3.99686">
        <ele>861</ele>
        <time>2021-04-15T11:32:22Z</time>
      </trkpt>
      <trkpt lat="45.28342" lon="3.99684">
        <ele>861</ele>
        <time>2021-04-15T11:32:23Z</time>
      </trkpt>
      <trkpt lat="45.28347" lon="3.99682">
        <ele>861</ele>
        <time>2021-04-15T11:32:24Z</time>
      </trkpt>
      <trkpt lat="45.28352" lon="3.99679">
        <ele>861</ele>
        <time>2021-04-15T11:32:25Z</time>
      </trkpt>
      <trkpt lat="45.28357" lon="3.99677">
        <ele>861</ele>
        <time>2021-04-15T11:32:26Z</time>
      </trkpt>
      <trkpt lat="45.28362" lon="3.99675">
        <ele>861</ele>
        <time>2021-04-15T11:32:27Z</time>
      </trkpt>
      <trkpt lat="45.28368" lon="3.99675">
        <ele>861</ele>
        <time>2021-04-15T11:32:28Z</time>
      </trkpt>
      <trkpt lat="45.28373" lon="3.99675">
        <ele>861</ele>
        <time>2021-04-15T11:32:29Z</time>
      </trkpt>
      <trkpt lat="45.28378" lon="3.99678">
        <ele>861</ele>
        <time>2021-04-15T11:32:30Z</time>
      </trkpt>
      <trkpt lat="45.28383" lon="3.99682">
        <ele>861</ele>
        <time>2021-04-15T11:32:31Z</time>
      </trkpt>
      <trkpt lat="45.28387" lon="3.99687">
        <ele>861</ele>
        <time>2021-04-15T11:32:32Z</time>
      </trkpt>
      <trkpt lat="45.28393" lon="3.997">
        <ele>861</ele>
        <time>2021-04-15T11:32:33Z</time>
      </trkpt>
      <trkpt lat="45.28396" lon="3.99707">
        <ele>861</ele>
        <time>2021-04-15T11:32:35Z</time>
      </trkpt>
      <trkpt lat="45.28399" lon="3.99713">
        <ele>861</ele>
        <time>2021-04-15T11:32:36Z</time>
      </trkpt>
      <trkpt lat="45.28402" lon="3.9972">
        <ele>861</ele>
        <time>2021-04-15T11:32:37Z</time>
      </trkpt>
      <trkpt lat="45.28408" lon="3.99733">
        <ele>861</ele>
        <time>2021-04-15T11:32:38Z</time>
      </trkpt>
      <trkpt lat="45.28412" lon="3.99739">
        <ele>861</ele>
        <time>2021-04-15T11:32:40Z</time>
      </trkpt>
      <trkpt lat="45.28416" lon="3.99745">
        <ele>861</ele>
        <time>2021-04-15T11:32:41Z</time>
      </trkpt>
      <trkpt lat="45.2842" lon="3.9975">
        <ele>861</ele>
        <time>2021-04-15T11:32:42Z</time>
      </trkpt>
      <trkpt lat="45.28424" lon="3.99755">
        <ele>861</ele>
        <time>2021-04-15T11:32:43Z</time>
      </trkpt>
      <trkpt lat="45.28428" lon="3.9976">
        <ele>861</ele>
        <time>2021-04-15T11:32:44Z</time>
      </trkpt>
      <trkpt lat="45.28433" lon="3.99764">
        <ele>861</ele>
        <time>2021-04-15T11:32:45Z</time>
      </trkpt>
      <trkpt lat="45.28438" lon="3.99769">
        <ele>861</ele>
        <time>2021-04-15T11:32:46Z</time>
      </trkpt>
      <trkpt lat="45.28442" lon="3.99773">
        <ele>861</ele>
        <time>2021-04-15T11:32:47Z</time>
      </trkpt>
      <trkpt lat="45.28447" lon="3.99778">
        <ele>862</ele>
        <time>2021-04-15T11:32:48Z</time>
      </trkpt>
      <trkpt lat="45.28451" lon="3.99782">
        <ele>862</ele>
        <time>2021-04-15T11:32:49Z</time>
      </trkpt>
      <trkpt lat="45.28456" lon="3.99787">
        <ele>862</ele>
        <time>2021-04-15T11:32:50Z</time>
      </trkpt>
      <trkpt lat="45.2846" lon="3.99791">
        <ele>862</ele>
        <time>2021-04-15T11:32:51Z</time>
      </trkpt>
      <trkpt lat="45.28468" lon="3.998">
        <ele>862</ele>
        <time>2021-04-15T11:32:52Z</time>
      </trkpt>
      <trkpt lat="45.28473" lon="3.99805">
        <ele>862</ele>
        <time>2021-04-15T11:32:54Z</time>
      </trkpt>
      <trkpt lat="45.28477" lon="3.99809">
        <ele>862</ele>
        <time>2021-04-15T11:32:55Z</time>
      </trkpt>
      <trkpt lat="45.28481" lon="3.99813">
        <ele>862</ele>
        <time>2021-04-15T11:32:56Z</time>
      </trkpt>
      <trkpt lat="45.28485" lon="3.99817">
        <ele>862</ele>
        <time>2021-04-15T11:32:57Z</time>
      </trkpt>
      <trkpt lat="45.2849" lon="3.9982">
        <ele>863</ele>
        <time>2021-04-15T11:32:58Z</time>
      </trkpt>
      <trkpt lat="45.28494" lon="3.99822">
        <ele>863</ele>
        <time>2021-04-15T11:32:59Z</time>
      </trkpt>
      <trkpt lat="45.28499" lon="3.99824">
        <ele>863</ele>
        <time>2021-04-15T11:33:00Z</time>
      </trkpt>
      <trkpt lat="45.28503" lon="3.99826">
        <ele>863</ele>
        <time>2021-04-15T11:33:01Z</time>
      </trkpt>
      <trkpt lat="45.28508" lon="3.99829">
        <ele>863</ele>
        <time>2021-04-15T11:33:02Z</time>
      </trkpt>
      <trkpt lat="45.28512" lon="3.99831">
        <ele>863</ele>
        <time>2021-04-15T11:33:03Z</time>
      </trkpt>
      <trkpt lat="45.28517" lon="3.99833">
        <ele>863</ele>
        <time>2021-04-15T11:33:04Z</time>
      </trkpt>
      <trkpt lat="45.28522" lon="3.99834">
        <ele>863</ele>
        <time>2021-04-15T11:33:05Z</time>
      </trkpt>
      <trkpt lat="45.28526" lon="3.99836">
        <ele>863</ele>
        <time>2021-04-15T11:33:06Z</time>
      </trkpt>
      <trkpt lat="45.28531" lon="3.99837">
        <ele>864</ele>
        <time>2021-04-15T11:33:07Z</time>
      </trkpt>
      <trkpt lat="45.28536" lon="3.99839">
        <ele>864</ele>
        <time>2021-04-15T11:33:08Z</time>
      </trkpt>
      <trkpt lat="45.2854" lon="3.9984">
        <ele>864</ele>
        <time>2021-04-15T11:33:09Z</time>
      </trkpt>
      <trkpt lat="45.28545" lon="3.99841">
        <ele>864</ele>
        <time>2021-04-15T11:33:10Z</time>
      </trkpt>
      <trkpt lat="45.2855" lon="3.99842">
        <ele>864</ele>
        <time>2021-04-15T11:33:11Z</time>
      </trkpt>
      <trkpt lat="45.28555" lon="3.99842">
        <ele>864</ele>
        <time>2021-04-15T11:33:12Z</time>
      </trkpt>
      <trkpt lat="45.28559" lon="3.99843">
        <ele>864</ele>
        <time>2021-04-15T11:33:13Z</time>
      </trkpt>
      <trkpt lat="45.28564" lon="3.99843">
        <ele>864</ele>
        <time>2021-04-15T11:33:14Z</time>
      </trkpt>
      <trkpt lat="45.28569" lon="3.99843">
        <ele>864</ele>
        <time>2021-04-15T11:33:15Z</time>
      </trkpt>
      <trkpt lat="45.28574" lon="3.99843">
        <ele>864</ele>
        <time>2021-04-15T11:33:16Z</time>
      </trkpt>
      <trkpt lat="45.28579" lon="3.99844">
        <ele>864</ele>
        <time>2021-04-15T11:33:17Z</time>
      </trkpt>
      <trkpt lat="45.28584" lon="3.99844">
        <ele>864</ele>
        <time>2021-04-15T11:33:18Z</time>
      </trkpt>
      <trkpt lat="45.2859" lon="3.99844">
        <ele>864</ele>
        <time>2021-04-15T11:33:19Z</time>
      </trkpt>
      <trkpt lat="45.28595" lon="3.99844">
        <ele>864</ele>
        <time>2021-04-15T11:33:20Z</time>
      </trkpt>
      <trkpt lat="45.286" lon="3.99843">
        <ele>864</ele>
        <time>2021-04-15T11:33:21Z</time>
      </trkpt>
      <trkpt lat="45.28606" lon="3.99842">
        <ele>864</ele>
        <time>2021-04-15T11:33:22Z</time>
      </trkpt>
      <trkpt lat="45.28611" lon="3.99841">
        <ele>864</ele>
        <time>2021-04-15T11:33:23Z</time>
      </trkpt>
      <trkpt lat="45.28617" lon="3.99839">
        <ele>864</ele>
        <time>2021-04-15T11:33:24Z</time>
      </trkpt>
      <trkpt lat="45.28622" lon="3.99837">
        <ele>864</ele>
        <time>2021-04-15T11:33:25Z</time>
      </trkpt>
      <trkpt lat="45.28628" lon="3.99835">
        <ele>864</ele>
        <time>2021-04-15T11:33:26Z</time>
      </trkpt>
      <trkpt lat="45.28634" lon="3.99832">
        <ele>864</ele>
        <time>2021-04-15T11:33:27Z</time>
      </trkpt>
      <trkpt lat="45.28639" lon="3.9983">
        <ele>864</ele>
        <time>2021-04-15T11:33:28Z</time>
      </trkpt>
      <trkpt lat="45.28645" lon="3.99828">
        <ele>864</ele>
        <time>2021-04-15T11:33:29Z</time>
      </trkpt>
      <trkpt lat="45.28657" lon="3.99825">
        <ele>864</ele>
        <time>2021-04-15T11:33:30Z</time>
      </trkpt>
      <trkpt lat="45.28663" lon="3.99823">
        <ele>863</ele>
        <time>2021-04-15T11:33:32Z</time>
      </trkpt>
      <trkpt lat="45.28668" lon="3.99821">
        <ele>863</ele>
        <time>2021-04-15T11:33:33Z</time>
      </trkpt>
      <trkpt lat="45.28674" lon="3.9982">
        <ele>863</ele>
        <time>2021-04-15T11:33:34Z</time>
      </trkpt>
      <trkpt lat="45.2868" lon="3.9982">
        <ele>863</ele>
        <time>2021-04-15T11:33:35Z</time>
      </trkpt>
      <trkpt lat="45.28686" lon="3.99819">
        <ele>863</ele>
        <time>2021-04-15T11:33:36Z</time>
      </trkpt>
      <trkpt lat="45.28692" lon="3.99818">
        <ele>863</ele>
        <time>2021-04-15T11:33:37Z</time>
      </trkpt>
      <trkpt lat="45.28698" lon="3.99818">
        <ele>863</ele>
        <time>2021-04-15T11:33:38Z</time>
      </trkpt>
      <trkpt lat="45.28704" lon="3.99818">
        <ele>863</ele>
        <time>2021-04-15T11:33:39Z</time>
      </trkpt>
      <trkpt lat="45.2871" lon="3.99817">
        <ele>863</ele>
        <time>2021-04-15T11:33:40Z</time>
      </trkpt>
      <trkpt lat="45.28716" lon="3.99817">
        <ele>863</ele>
        <time>2021-04-15T11:33:41Z</time>
      </trkpt>
      <trkpt lat="45.28722" lon="3.99816">
        <ele>863</ele>
        <time>2021-04-15T11:33:42Z</time>
      </trkpt>
      <trkpt lat="45.28727" lon="3.99815">
        <ele>863</ele>
        <time>2021-04-15T11:33:43Z</time>
      </trkpt>
      <trkpt lat="45.28733" lon="3.99814">
        <ele>863</ele>
        <time>2021-04-15T11:33:44Z</time>
      </trkpt>
      <trkpt lat="45.28739" lon="3.99813">
        <ele>863</ele>
        <time>2021-04-15T11:33:45Z</time>
      </trkpt>
      <trkpt lat="45.28745" lon="3.99811">
        <ele>863</ele>
        <time>2021-04-15T11:33:46Z</time>
      </trkpt>
      <trkpt lat="45.28751" lon="3.99809">
        <ele>863</ele>
        <time>2021-04-15T11:33:47Z</time>
      </trkpt>
      <trkpt lat="45.28757" lon="3.99806">
        <ele>863</ele>
        <time>2021-04-15T11:33:48Z</time>
      </trkpt>
      <trkpt lat="45.28768" lon="3.998">
        <ele>863</ele>
        <time>2021-04-15T11:33:49Z</time>
      </trkpt>
      <trkpt lat="45.28774" lon="3.99796">
        <ele>862</ele>
        <time>2021-04-15T11:33:51Z</time>
      </trkpt>
      <trkpt lat="45.2878" lon="3.99793">
        <ele>862</ele>
        <time>2021-04-15T11:33:52Z</time>
      </trkpt>
      <trkpt lat="45.28787" lon="3.9979">
        <ele>862</ele>
        <time>2021-04-15T11:33:53Z</time>
      </trkpt>
      <trkpt lat="45.28793" lon="3.99787">
        <ele>862</ele>
        <time>2021-04-15T11:33:54Z</time>
      </trkpt>
      <trkpt lat="45.288" lon="3.99785">
        <ele>862</ele>
        <time>2021-04-15T11:33:55Z</time>
      </trkpt>
      <trkpt lat="45.28806" lon="3.99784">
        <ele>861</ele>
        <time>2021-04-15T11:33:56Z</time>
      </trkpt>
      <trkpt lat="45.28812" lon="3.99782">
        <ele>861</ele>
        <time>2021-04-15T11:33:57Z</time>
      </trkpt>
      <trkpt lat="45.28818" lon="3.99781">
        <ele>861</ele>
        <time>2021-04-15T11:33:58Z</time>
      </trkpt>
      <trkpt lat="45.28825" lon="3.9978">
        <ele>861</ele>
        <time>2021-04-15T11:33:59Z</time>
      </trkpt>
      <trkpt lat="45.28831" lon="3.99779">
        <ele>861</ele>
        <time>2021-04-15T11:34:00Z</time>
      </trkpt>
      <trkpt lat="45.28837" lon="3.99778">
        <ele>861</ele>
        <time>2021-04-15T11:34:01Z</time>
      </trkpt>
      <trkpt lat="45.28843" lon="3.99777">
        <ele>861</ele>
        <time>2021-04-15T11:34:02Z</time>
      </trkpt>
      <trkpt lat="45.28849" lon="3.99776">
        <ele>861</ele>
        <time>2021-04-15T11:34:03Z</time>
      </trkpt>
      <trkpt lat="45.28855" lon="3.99775">
        <ele>861</ele>
        <time>2021-04-15T11:34:04Z</time>
      </trkpt>
      <trkpt lat="45.28861" lon="3.99775">
        <ele>861</ele>
        <time>2021-04-15T11:34:05Z</time>
      </trkpt>
      <trkpt lat="45.28867" lon="3.99774">
        <ele>861</ele>
        <time>2021-04-15T11:34:06Z</time>
      </trkpt>
      <trkpt lat="45.28873" lon="3.99773">
        <ele>861</ele>
        <time>2021-04-15T11:34:07Z</time>
      </trkpt>
      <trkpt lat="45.28884" lon="3.99772">
        <ele>861</ele>
        <time>2021-04-15T11:34:08Z</time>
      </trkpt>
      <trkpt lat="45.28889" lon="3.99772">
        <ele>861</ele>
        <time>2021-04-15T11:34:10Z</time>
      </trkpt>
      <trkpt lat="45.28894" lon="3.99771">
        <ele>861</ele>
        <time>2021-04-15T11:34:11Z</time>
      </trkpt>
      <trkpt lat="45.289" lon="3.99771">
        <ele>860</ele>
        <time>2021-04-15T11:34:12Z</time>
      </trkpt>
      <trkpt lat="45.28906" lon="3.99771">
        <ele>860</ele>
        <time>2021-04-15T11:34:13Z</time>
      </trkpt>
      <trkpt lat="45.28911" lon="3.9977">
        <ele>860</ele>
        <time>2021-04-15T11:34:14Z</time>
      </trkpt>
      <trkpt lat="45.28917" lon="3.99769">
        <ele>860</ele>
        <time>2021-04-15T11:34:15Z</time>
      </trkpt>
      <trkpt lat="45.28923" lon="3.99769">
        <ele>860</ele>
        <time>2021-04-15T11:34:16Z</time>
      </trkpt>
      <trkpt lat="45.28928" lon="3.99767">
        <ele>860</ele>
        <time>2021-04-15T11:34:17Z</time>
      </trkpt>
      <trkpt lat="45.28934" lon="3.99766">
        <ele>860</ele>
        <time>2021-04-15T11:34:18Z</time>
      </trkpt>
      <trkpt lat="45.2894" lon="3.99765">
        <ele>860</ele>
        <time>2021-04-15T11:34:19Z</time>
      </trkpt>
      <trkpt lat="45.28946" lon="3.99763">
        <ele>860</ele>
        <time>2021-04-15T11:34:20Z</time>
      </trkpt>
      <trkpt lat="45.28952" lon="3.99762">
        <ele>860</ele>
        <time>2021-04-15T11:34:21Z</time>
      </trkpt>
      <trkpt lat="45.28957" lon="3.99761">
        <ele>860</ele>
        <time>2021-04-15T11:34:22Z</time>
      </trkpt>
      <trkpt lat="45.28963" lon="3.9976">
        <ele>860</ele>
        <time>2021-04-15T11:34:23Z</time>
      </trkpt>
      <trkpt lat="45.28969" lon="3.99759">
        <ele>860</ele>
        <time>2021-04-15T11:34:24Z</time>
      </trkpt>
      <trkpt lat="45.28974" lon="3.99759">
        <ele>859</ele>
        <time>2021-04-15T11:34:25Z</time>
      </trkpt>
      <trkpt lat="45.2898" lon="3.99758">
        <ele>859</ele>
        <time>2021-04-15T11:34:26Z</time>
      </trkpt>
      <trkpt lat="45.28985" lon="3.99758">
        <ele>860</ele>
        <time>2021-04-15T11:34:27Z</time>
      </trkpt>
      <trkpt lat="45.2899" lon="3.99758">
        <ele>860</ele>
        <time>2021-04-15T11:34:28Z</time>
      </trkpt>
      <trkpt lat="45.28995" lon="3.99757">
        <ele>860</ele>
        <time>2021-04-15T11:34:29Z</time>
      </trkpt>
      <trkpt lat="45.29" lon="3.99758">
        <ele>860</ele>
        <time>2021-04-15T11:34:30Z</time>
      </trkpt>
      <trkpt lat="45.29005" lon="3.99759">
        <ele>860</ele>
        <time>2021-04-15T11:34:31Z</time>
      </trkpt>
      <trkpt lat="45.29009" lon="3.99761">
        <ele>860</ele>
        <time>2021-04-15T11:34:32Z</time>
      </trkpt>
      <trkpt lat="45.29012" lon="3.99766">
        <ele>860</ele>
        <time>2021-04-15T11:34:33Z</time>
      </trkpt>
      <trkpt lat="45.29014" lon="3.99771">
        <ele>860</ele>
        <time>2021-04-15T11:34:34Z</time>
      </trkpt>
      <trkpt lat="45.29015" lon="3.99778">
        <ele>860</ele>
        <time>2021-04-15T11:34:35Z</time>
      </trkpt>
      <trkpt lat="45.29016" lon="3.99784">
        <ele>860</ele>
        <time>2021-04-15T11:34:36Z</time>
      </trkpt>
      <trkpt lat="45.29017" lon="3.99791">
        <ele>860</ele>
        <time>2021-04-15T11:34:37Z</time>
      </trkpt>
      <trkpt lat="45.29018" lon="3.99797">
        <ele>860</ele>
        <time>2021-04-15T11:34:38Z</time>
      </trkpt>
      <trkpt lat="45.29018" lon="3.99804">
        <ele>860</ele>
        <time>2021-04-15T11:34:39Z</time>
      </trkpt>
      <trkpt lat="45.29019" lon="3.99811">
        <ele>860</ele>
        <time>2021-04-15T11:34:40Z</time>
      </trkpt>
      <trkpt lat="45.29019" lon="3.99818">
        <ele>860</ele>
        <time>2021-04-15T11:34:41Z</time>
      </trkpt>
      <trkpt lat="45.29019" lon="3.99826">
        <ele>860</ele>
        <time>2021-04-15T11:34:42Z</time>
      </trkpt>
      <trkpt lat="45.2902" lon="3.99833">
        <ele>860</ele>
        <time>2021-04-15T11:34:43Z</time>
      </trkpt>
      <trkpt lat="45.2902" lon="3.9984">
        <ele>860</ele>
        <time>2021-04-15T11:34:44Z</time>
      </trkpt>
      <trkpt lat="45.2902" lon="3.99847">
        <ele>860</ele>
        <time>2021-04-15T11:34:45Z</time>
      </trkpt>
      <trkpt lat="45.2902" lon="3.99861">
        <ele>860</ele>
        <time>2021-04-15T11:34:46Z</time>
      </trkpt>
      <trkpt lat="45.2902" lon="3.99868">
        <ele>860</ele>
        <time>2021-04-15T11:34:48Z</time>
      </trkpt>
      <trkpt lat="45.2902" lon="3.99874">
        <ele>860</ele>
        <time>2021-04-15T11:34:49Z</time>
      </trkpt>
      <trkpt lat="45.2902" lon="3.99881">
        <ele>860</ele>
        <time>2021-04-15T11:34:50Z</time>
      </trkpt>
      <trkpt lat="45.29019" lon="3.99887">
        <ele>861</ele>
        <time>2021-04-15T11:34:51Z</time>
      </trkpt>
      <trkpt lat="45.29019" lon="3.99894">
        <ele>861</ele>
        <time>2021-04-15T11:34:52Z</time>
      </trkpt>
      <trkpt lat="45.29019" lon="3.99901">
        <ele>861</ele>
        <time>2021-04-15T11:34:53Z</time>
      </trkpt>
      <trkpt lat="45.29019" lon="3.99908">
        <ele>861</ele>
        <time>2021-04-15T11:34:54Z</time>
      </trkpt>
      <trkpt lat="45.29019" lon="3.99916">
        <ele>861</ele>
        <time>2021-04-15T11:34:55Z</time>
      </trkpt>
      <trkpt lat="45.2902" lon="3.99923">
        <ele>861</ele>
        <time>2021-04-15T11:34:56Z</time>
      </trkpt>
      <trkpt lat="45.29021" lon="3.9993">
        <ele>861</ele>
        <time>2021-04-15T11:34:57Z</time>
      </trkpt>
      <trkpt lat="45.29022" lon="3.99938">
        <ele>861</ele>
        <time>2021-04-15T11:34:58Z</time>
      </trkpt>
      <trkpt lat="45.29023" lon="3.99945">
        <ele>861</ele>
        <time>2021-04-15T11:34:59Z</time>
      </trkpt>
      <trkpt lat="45.29025" lon="3.99952">
        <ele>861</ele>
        <time>2021-04-15T11:35:00Z</time>
      </trkpt>
      <trkpt lat="45.29026" lon="3.99959">
        <ele>861</ele>
        <time>2021-04-15T11:35:01Z</time>
      </trkpt>
      <trkpt lat="45.29028" lon="3.99966">
        <ele>861</ele>
        <time>2021-04-15T11:35:02Z</time>
      </trkpt>
      <trkpt lat="45.2903" lon="3.99974">
        <ele>861</ele>
        <time>2021-04-15T11:35:03Z</time>
      </trkpt>
      <trkpt lat="45.29032" lon="3.99981">
        <ele>861</ele>
        <time>2021-04-15T11:35:04Z</time>
      </trkpt>
      <trkpt lat="45.29036" lon="3.99995">
        <ele>861</ele>
        <time>2021-04-15T11:35:05Z</time>
      </trkpt>
      <trkpt lat="45.29038" lon="4.00002">
        <ele>861</ele>
        <time>2021-04-15T11:35:07Z</time>
      </trkpt>
      <trkpt lat="45.2904" lon="4.0001">
        <ele>861</ele>
        <time>2021-04-15T11:35:08Z</time>
      </trkpt>
      <trkpt lat="45.29042" lon="4.00017">
        <ele>861</ele>
        <time>2021-04-15T11:35:09Z</time>
      </trkpt>
      <trkpt lat="45.29044" lon="4.00025">
        <ele>860</ele>
        <time>2021-04-15T11:35:10Z</time>
      </trkpt>
      <trkpt lat="45.29046" lon="4.00033">
        <ele>860</ele>
        <time>2021-04-15T11:35:11Z</time>
      </trkpt>
      <trkpt lat="45.29048" lon="4.0004">
        <ele>860</ele>
        <time>2021-04-15T11:35:12Z</time>
      </trkpt>
      <trkpt lat="45.2905" lon="4.00048">
        <ele>860</ele>
        <time>2021-04-15T11:35:13Z</time>
      </trkpt>
      <trkpt lat="45.29051" lon="4.00056">
        <ele>860</ele>
        <time>2021-04-15T11:35:14Z</time>
      </trkpt>
      <trkpt lat="45.29053" lon="4.00064">
        <ele>860</ele>
        <time>2021-04-15T11:35:15Z</time>
      </trkpt>
      <trkpt lat="45.29053" lon="4.00072">
        <ele>860</ele>
        <time>2021-04-15T11:35:16Z</time>
      </trkpt>
      <trkpt lat="45.29054" lon="4.00079">
        <ele>860</ele>
        <time>2021-04-15T11:35:17Z</time>
      </trkpt>
      <trkpt lat="45.29054" lon="4.00087">
        <ele>860</ele>
        <time>2021-04-15T11:35:18Z</time>
      </trkpt>
      <trkpt lat="45.29053" lon="4.00094">
        <ele>860</ele>
        <time>2021-04-15T11:35:19Z</time>
      </trkpt>
      <trkpt lat="45.29052" lon="4.00102">
        <ele>860</ele>
        <time>2021-04-15T11:35:20Z</time>
      </trkpt>
      <trkpt lat="45.29051" lon="4.00109">
        <ele>859</ele>
        <time>2021-04-15T11:35:21Z</time>
      </trkpt>
      <trkpt lat="45.29049" lon="4.00117">
        <ele>859</ele>
        <time>2021-04-15T11:35:22Z</time>
      </trkpt>
      <trkpt lat="45.29048" lon="4.00126">
        <ele>859</ele>
        <time>2021-04-15T11:35:23Z</time>
      </trkpt>
      <trkpt lat="45.29047" lon="4.00143">
        <ele>859</ele>
        <time>2021-04-15T11:35:24Z</time>
      </trkpt>
      <trkpt lat="45.29049" lon="4.0015">
        <ele>859</ele>
        <time>2021-04-15T11:35:26Z</time>
      </trkpt>
      <trkpt lat="45.29053" lon="4.00155">
        <ele>859</ele>
        <time>2021-04-15T11:35:27Z</time>
      </trkpt>
      <trkpt lat="45.29058" lon="4.00159">
        <ele>859</ele>
        <time>2021-04-15T11:35:28Z</time>
      </trkpt>
      <trkpt lat="45.29064" lon="4.00161">
        <ele>859</ele>
        <time>2021-04-15T11:35:29Z</time>
      </trkpt>
      <trkpt lat="45.2907" lon="4.00164">
        <ele>859</ele>
        <time>2021-04-15T11:35:30Z</time>
      </trkpt>
      <trkpt lat="45.29075" lon="4.00169">
        <ele>858</ele>
        <time>2021-04-15T11:35:31Z</time>
      </trkpt>
      <trkpt lat="45.2908" lon="4.00175">
        <ele>858</ele>
        <time>2021-04-15T11:35:32Z</time>
      </trkpt>
      <trkpt lat="45.29083" lon="4.00183">
        <ele>858</ele>
        <time>2021-04-15T11:35:33Z</time>
      </trkpt>
      <trkpt lat="45.29085" lon="4.00191">
        <ele>858</ele>
        <time>2021-04-15T11:35:34Z</time>
      </trkpt>
      <trkpt lat="45.29086" lon="4.00199">
        <ele>858</ele>
        <time>2021-04-15T11:35:35Z</time>
      </trkpt>
      <trkpt lat="45.29088" lon="4.00207">
        <ele>858</ele>
        <time>2021-04-15T11:35:36Z</time>
      </trkpt>
      <trkpt lat="45.29089" lon="4.00214">
        <ele>858</ele>
        <time>2021-04-15T11:35:37Z</time>
      </trkpt>
      <trkpt lat="45.29091" lon="4.00223">
        <ele>857</ele>
        <time>2021-04-15T11:35:38Z</time>
      </trkpt>
      <trkpt lat="45.29092" lon="4.00232">
        <ele>857</ele>
        <time>2021-04-15T11:35:39Z</time>
      </trkpt>
      <trkpt lat="45.29092" lon="4.00241">
        <ele>856</ele>
        <time>2021-04-15T11:35:40Z</time>
      </trkpt>
      <trkpt lat="45.29093" lon="4.00251">
        <ele>856</ele>
        <time>2021-04-15T11:35:41Z</time>
      </trkpt>
      <trkpt lat="45.29092" lon="4.00261">
        <ele>856</ele>
        <time>2021-04-15T11:35:42Z</time>
      </trkpt>
      <trkpt lat="45.29091" lon="4.00283">
        <ele>855</ele>
        <time>2021-04-15T11:35:43Z</time>
      </trkpt>
      <trkpt lat="45.2909" lon="4.00294">
        <ele>855</ele>
        <time>2021-04-15T11:35:45Z</time>
      </trkpt>
      <trkpt lat="45.29088" lon="4.00306">
        <ele>853</ele>
        <time>2021-04-15T11:35:46Z</time>
      </trkpt>
      <trkpt lat="45.29086" lon="4.00317">
        <ele>853</ele>
        <time>2021-04-15T11:35:47Z</time>
      </trkpt>
      <trkpt lat="45.29084" lon="4.00328">
        <ele>853</ele>
        <time>2021-04-15T11:35:48Z</time>
      </trkpt>
      <trkpt lat="45.2908" lon="4.00339">
        <ele>852</ele>
        <time>2021-04-15T11:35:49Z</time>
      </trkpt>
      <trkpt lat="45.29075" lon="4.00345">
        <ele>852</ele>
        <time>2021-04-15T11:35:50Z</time>
      </trkpt>
      <trkpt lat="45.29068" lon="4.00349">
        <ele>851</ele>
        <time>2021-04-15T11:35:51Z</time>
      </trkpt>
      <trkpt lat="45.29062" lon="4.00349">
        <ele>851</ele>
        <time>2021-04-15T11:35:52Z</time>
      </trkpt>
      <trkpt lat="45.29057" lon="4.00349">
        <ele>851</ele>
        <time>2021-04-15T11:35:53Z</time>
      </trkpt>
      <trkpt lat="45.29052" lon="4.0035">
        <ele>851</ele>
        <time>2021-04-15T11:35:54Z</time>
      </trkpt>
      <trkpt lat="45.29048" lon="4.0035">
        <ele>851</ele>
        <time>2021-04-15T11:35:55Z</time>
      </trkpt>
      <trkpt lat="45.29044" lon="4.00351">
        <ele>851</ele>
        <time>2021-04-15T11:35:56Z</time>
      </trkpt>
      <trkpt lat="45.2904" lon="4.00353">
        <ele>852</ele>
        <time>2021-04-15T11:35:57Z</time>
      </trkpt>
      <trkpt lat="45.29035" lon="4.00354">
        <ele>852</ele>
        <time>2021-04-15T11:35:58Z</time>
      </trkpt>
      <trkpt lat="45.29031" lon="4.00356">
        <ele>852</ele>
        <time>2021-04-15T11:35:59Z</time>
      </trkpt>
      <trkpt lat="45.29026" lon="4.00358">
        <ele>852</ele>
        <time>2021-04-15T11:36:00Z</time>
      </trkpt>
      <trkpt lat="45.29021" lon="4.0036">
        <ele>852</ele>
        <time>2021-04-15T11:36:01Z</time>
      </trkpt>
      <trkpt lat="45.29013" lon="4.00365">
        <ele>852</ele>
        <time>2021-04-15T11:36:02Z</time>
      </trkpt>
      <trkpt lat="45.29008" lon="4.00368">
        <ele>852</ele>
        <time>2021-04-15T11:36:04Z</time>
      </trkpt>
      <trkpt lat="45.29004" lon="4.00371">
        <ele>852</ele>
        <time>2021-04-15T11:36:05Z</time>
      </trkpt>
      <trkpt lat="45.28999" lon="4.00374">
        <ele>853</ele>
        <time>2021-04-15T11:36:06Z</time>
      </trkpt>
      <trkpt lat="45.28995" lon="4.00377">
        <ele>853</ele>
        <time>2021-04-15T11:36:07Z</time>
      </trkpt>
      <trkpt lat="45.28991" lon="4.0038">
        <ele>853</ele>
        <time>2021-04-15T11:36:08Z</time>
      </trkpt>
      <trkpt lat="45.28986" lon="4.00383">
        <ele>854</ele>
        <time>2021-04-15T11:36:09Z</time>
      </trkpt>
      <trkpt lat="45.28982" lon="4.00386">
        <ele>854</ele>
        <time>2021-04-15T11:36:10Z</time>
      </trkpt>
      <trkpt lat="45.28978" lon="4.00389">
        <ele>854</ele>
        <time>2021-04-15T11:36:11Z</time>
      </trkpt>
      <trkpt lat="45.28973" lon="4.00392">
        <ele>855</ele>
        <time>2021-04-15T11:36:12Z</time>
      </trkpt>
      <trkpt lat="45.28969" lon="4.00395">
        <ele>855</ele>
        <time>2021-04-15T11:36:13Z</time>
      </trkpt>
      <trkpt lat="45.28965" lon="4.00398">
        <ele>855</ele>
        <time>2021-04-15T11:36:14Z</time>
      </trkpt>
      <trkpt lat="45.2896" lon="4.00401">
        <ele>856</ele>
        <time>2021-04-15T11:36:15Z</time>
      </trkpt>
      <trkpt lat="45.28956" lon="4.00403">
        <ele>856</ele>
        <time>2021-04-15T11:36:16Z</time>
      </trkpt>
      <trkpt lat="45.28952" lon="4.00406">
        <ele>856</ele>
        <time>2021-04-15T11:36:17Z</time>
      </trkpt>
      <trkpt lat="45.28948" lon="4.00408">
        <ele>857</ele>
        <time>2021-04-15T11:36:18Z</time>
      </trkpt>
      <trkpt lat="45.28944" lon="4.00411">
        <ele>857</ele>
        <time>2021-04-15T11:36:19Z</time>
      </trkpt>
      <trkpt lat="45.2894" lon="4.00413">
        <ele>857</ele>
        <time>2021-04-15T11:36:20Z</time>
      </trkpt>
      <trkpt lat="45.28932" lon="4.0042">
        <ele>857</ele>
        <time>2021-04-15T11:36:21Z</time>
      </trkpt>
      <trkpt lat="45.28929" lon="4.00423">
        <ele>858</ele>
        <time>2021-04-15T11:36:23Z</time>
      </trkpt>
      <trkpt lat="45.28925" lon="4.00427">
        <ele>858</ele>
        <time>2021-04-15T11:36:24Z</time>
      </trkpt>
      <trkpt lat="45.28922" lon="4.00431">
        <ele>859</ele>
        <time>2021-04-15T11:36:25Z</time>
      </trkpt>
      <trkpt lat="45.28919" lon="4.00435">
        <ele>859</ele>
        <time>2021-04-15T11:36:26Z</time>
      </trkpt>
      <trkpt lat="45.28916" lon="4.00439">
        <ele>859</ele>
        <time>2021-04-15T11:36:27Z</time>
      </trkpt>
      <trkpt lat="45.28913" lon="4.00443">
        <ele>859</ele>
        <time>2021-04-15T11:36:28Z</time>
      </trkpt>
      <trkpt lat="45.2891" lon="4.00447">
        <ele>860</ele>
        <time>2021-04-15T11:36:29Z</time>
      </trkpt>
      <trkpt lat="45.28907" lon="4.00452">
        <ele>860</ele>
        <time>2021-04-15T11:36:30Z</time>
      </trkpt>
      <trkpt lat="45.28904" lon="4.00457">
        <ele>860</ele>
        <time>2021-04-15T11:36:31Z</time>
      </trkpt>
      <trkpt lat="45.28901" lon="4.00463">
        <ele>860</ele>
        <time>2021-04-15T11:36:32Z</time>
      </trkpt>
      <trkpt lat="45.28898" lon="4.00469">
        <ele>860</ele>
        <time>2021-04-15T11:36:33Z</time>
      </trkpt>
      <trkpt lat="45.28895" lon="4.00475">
        <ele>860</ele>
        <time>2021-04-15T11:36:34Z</time>
      </trkpt>
      <trkpt lat="45.2889" lon="4.00487">
        <ele>860</ele>
        <time>2021-04-15T11:36:35Z</time>
      </trkpt>
      <trkpt lat="45.28887" lon="4.00493">
        <ele>860</ele>
        <time>2021-04-15T11:36:37Z</time>
      </trkpt>
      <trkpt lat="45.28884" lon="4.00499">
        <ele>860</ele>
        <time>2021-04-15T11:36:38Z</time>
      </trkpt>
      <trkpt lat="45.28882" lon="4.00503">
        <ele>860</ele>
        <time>2021-04-15T11:36:39Z</time>
      </trkpt>
      <trkpt lat="45.28878" lon="4.0051">
        <ele>860</ele>
        <time>2021-04-15T11:37:58Z</time>
      </trkpt>
      <trkpt lat="45.28877" lon="4.00513">
        <ele>860</ele>
        <time>2021-04-15T11:37:59Z</time>
      </trkpt>
      <trkpt lat="45.28875" lon="4.00517">
        <ele>860</ele>
        <time>2021-04-15T11:38:00Z</time>
      </trkpt>
      <trkpt lat="45.28873" lon="4.00521">
        <ele>860</ele>
        <time>2021-04-15T11:38:01Z</time>
      </trkpt>
      <trkpt lat="45.28871" lon="4.00526">
        <ele>860</ele>
        <time>2021-04-15T11:38:02Z</time>
      </trkpt>
      <trkpt lat="45.28869" lon="4.00531">
        <ele>860</ele>
        <time>2021-04-15T11:38:03Z</time>
      </trkpt>
      <trkpt lat="45.28866" lon="4.00536">
        <ele>860</ele>
        <time>2021-04-15T11:38:04Z</time>
      </trkpt>
      <trkpt lat="45.28864" lon="4.00541">
        <ele>860</ele>
        <time>2021-04-15T11:38:05Z</time>
      </trkpt>
      <trkpt lat="45.28861" lon="4.00546">
        <ele>860</ele>
        <time>2021-04-15T11:38:06Z</time>
      </trkpt>
      <trkpt lat="45.28858" lon="4.00552">
        <ele>860</ele>
        <time>2021-04-15T11:38:07Z</time>
      </trkpt>
      <trkpt lat="45.28856" lon="4.00557">
        <ele>860</ele>
        <time>2021-04-15T11:38:08Z</time>
      </trkpt>
      <trkpt lat="45.28853" lon="4.00563">
        <ele>860</ele>
        <time>2021-04-15T11:38:09Z</time>
      </trkpt>
      <trkpt lat="45.2885" lon="4.00568">
        <ele>860</ele>
        <time>2021-04-15T11:38:10Z</time>
      </trkpt>
      <trkpt lat="45.28847" lon="4.00573">
        <ele>860</ele>
        <time>2021-04-15T11:38:11Z</time>
      </trkpt>
      <trkpt lat="45.28845" lon="4.00578">
        <ele>861</ele>
        <time>2021-04-15T11:38:12Z</time>
      </trkpt>
      <trkpt lat="45.28842" lon="4.00583">
        <ele>861</ele>
        <time>2021-04-15T11:38:13Z</time>
      </trkpt>
      <trkpt lat="45.28839" lon="4.00587">
        <ele>860</ele>
        <time>2021-04-15T11:38:14Z</time>
      </trkpt>
      <trkpt lat="45.28836" lon="4.00592">
        <ele>860</ele>
        <time>2021-04-15T11:38:15Z</time>
      </trkpt>
      <trkpt lat="45.28833" lon="4.00598">
        <ele>860</ele>
        <time>2021-04-15T11:38:16Z</time>
      </trkpt>
      <trkpt lat="45.2883" lon="4.00603">
        <ele>860</ele>
        <time>2021-04-15T11:38:17Z</time>
      </trkpt>
      <trkpt lat="45.28827" lon="4.00608">
        <ele>860</ele>
        <time>2021-04-15T11:38:18Z</time>
      </trkpt>
      <trkpt lat="45.28824" lon="4.00614">
        <ele>860</ele>
        <time>2021-04-15T11:38:19Z</time>
      </trkpt>
      <trkpt lat="45.28822" lon="4.0062">
        <ele>860</ele>
        <time>2021-04-15T11:38:20Z</time>
      </trkpt>
      <trkpt lat="45.28819" lon="4.00626">
        <ele>860</ele>
        <time>2021-04-15T11:38:21Z</time>
      </trkpt>
      <trkpt lat="45.28817" lon="4.00632">
        <ele>860</ele>
        <time>2021-04-15T11:38:22Z</time>
      </trkpt>
      <trkpt lat="45.28815" lon="4.00639">
        <ele>860</ele>
        <time>2021-04-15T11:38:23Z</time>
      </trkpt>
      <trkpt lat="45.28813" lon="4.00646">
        <ele>860</ele>
        <time>2021-04-15T11:38:24Z</time>
      </trkpt>
      <trkpt lat="45.28811" lon="4.00652">
        <ele>860</ele>
        <time>2021-04-15T11:38:25Z</time>
      </trkpt>
      <trkpt lat="45.28809" lon="4.00659">
        <ele>860</ele>
        <time>2021-04-15T11:38:26Z</time>
      </trkpt>
      <trkpt lat="45.28806" lon="4.00666">
        <ele>860</ele>
        <time>2021-04-15T11:38:27Z</time>
      </trkpt>
      <trkpt lat="45.28803" lon="4.00672">
        <ele>860</ele>
        <time>2021-04-15T11:38:28Z</time>
      </trkpt>
      <trkpt lat="45.288" lon="4.00679">
        <ele>860</ele>
        <time>2021-04-15T11:38:29Z</time>
      </trkpt>
      <trkpt lat="45.28797" lon="4.00686">
        <ele>861</ele>
        <time>2021-04-15T11:38:30Z</time>
      </trkpt>
      <trkpt lat="45.28794" lon="4.00693">
        <ele>861</ele>
        <time>2021-04-15T11:38:31Z</time>
      </trkpt>
      <trkpt lat="45.2879" lon="4.00699">
        <ele>861</ele>
        <time>2021-04-15T11:38:32Z</time>
      </trkpt>
      <trkpt lat="45.28787" lon="4.00704">
        <ele>861</ele>
        <time>2021-04-15T11:38:33Z</time>
      </trkpt>
      <trkpt lat="45.28783" lon="4.0071">
        <ele>861</ele>
        <time>2021-04-15T11:38:34Z</time>
      </trkpt>
      <trkpt lat="45.28779" lon="4.00714">
        <ele>861</ele>
        <time>2021-04-15T11:38:35Z</time>
      </trkpt>
      <trkpt lat="45.28774" lon="4.00719">
        <ele>861</ele>
        <time>2021-04-15T11:38:36Z</time>
      </trkpt>
      <trkpt lat="45.2877" lon="4.00723">
        <ele>862</ele>
        <time>2021-04-15T11:38:37Z</time>
      </trkpt>
      <trkpt lat="45.28766" lon="4.00727">
        <ele>862</ele>
        <time>2021-04-15T11:38:38Z</time>
      </trkpt>
      <trkpt lat="45.28762" lon="4.00731">
        <ele>862</ele>
        <time>2021-04-15T11:38:39Z</time>
      </trkpt>
      <trkpt lat="45.28758" lon="4.00735">
        <ele>862</ele>
        <time>2021-04-15T11:38:40Z</time>
      </trkpt>
      <trkpt lat="45.28754" lon="4.00739">
        <ele>862</ele>
        <time>2021-04-15T11:38:41Z</time>
      </trkpt>
      <trkpt lat="45.2875" lon="4.00743">
        <ele>863</ele>
        <time>2021-04-15T11:38:42Z</time>
      </trkpt>
      <trkpt lat="45.28746" lon="4.00747">
        <ele>863</ele>
        <time>2021-04-15T11:38:43Z</time>
      </trkpt>
      <trkpt lat="45.28742" lon="4.00752">
        <ele>863</ele>
        <time>2021-04-15T11:38:44Z</time>
      </trkpt>
      <trkpt lat="45.28739" lon="4.00756">
        <ele>863</ele>
        <time>2021-04-15T11:38:45Z</time>
      </trkpt>
      <trkpt lat="45.28735" lon="4.00761">
        <ele>863</ele>
        <time>2021-04-15T11:38:46Z</time>
      </trkpt>
      <trkpt lat="45.28731" lon="4.00766">
        <ele>863</ele>
        <time>2021-04-15T11:38:47Z</time>
      </trkpt>
      <trkpt lat="45.28727" lon="4.00771">
        <ele>863</ele>
        <time>2021-04-15T11:38:48Z</time>
      </trkpt>
      <trkpt lat="45.28723" lon="4.00776">
        <ele>864</ele>
        <time>2021-04-15T11:38:49Z</time>
      </trkpt>
      <trkpt lat="45.28719" lon="4.00781">
        <ele>864</ele>
        <time>2021-04-15T11:38:50Z</time>
      </trkpt>
      <trkpt lat="45.28715" lon="4.00786">
        <ele>864</ele>
        <time>2021-04-15T11:38:51Z</time>
      </trkpt>
      <trkpt lat="45.28711" lon="4.00791">
        <ele>864</ele>
        <time>2021-04-15T11:38:52Z</time>
      </trkpt>
      <trkpt lat="45.28706" lon="4.00796">
        <ele>864</ele>
        <time>2021-04-15T11:38:53Z</time>
      </trkpt>
      <trkpt lat="45.28702" lon="4.00801">
        <ele>864</ele>
        <time>2021-04-15T11:38:54Z</time>
      </trkpt>
      <trkpt lat="45.28697" lon="4.00806">
        <ele>864</ele>
        <time>2021-04-15T11:38:55Z</time>
      </trkpt>
      <trkpt lat="45.28688" lon="4.00815">
        <ele>864</ele>
        <time>2021-04-15T11:38:56Z</time>
      </trkpt>
      <trkpt lat="45.28684" lon="4.0082">
        <ele>864</ele>
        <time>2021-04-15T11:38:58Z</time>
      </trkpt>
      <trkpt lat="45.28679" lon="4.00824">
        <ele>864</ele>
        <time>2021-04-15T11:38:59Z</time>
      </trkpt>
      <trkpt lat="45.28675" lon="4.00828">
        <ele>864</ele>
        <time>2021-04-15T11:39:00Z</time>
      </trkpt>
      <trkpt lat="45.2867" lon="4.00833">
        <ele>864</ele>
        <time>2021-04-15T11:39:01Z</time>
      </trkpt>
      <trkpt lat="45.28666" lon="4.00837">
        <ele>864</ele>
        <time>2021-04-15T11:39:02Z</time>
      </trkpt>
      <trkpt lat="45.28662" lon="4.00841">
        <ele>864</ele>
        <time>2021-04-15T11:39:03Z</time>
      </trkpt>
      <trkpt lat="45.28657" lon="4.00845">
        <ele>864</ele>
        <time>2021-04-15T11:39:04Z</time>
      </trkpt>
      <trkpt lat="45.28653" lon="4.00849">
        <ele>864</ele>
        <time>2021-04-15T11:39:05Z</time>
      </trkpt>
      <trkpt lat="45.28648" lon="4.00854">
        <ele>864</ele>
        <time>2021-04-15T11:39:06Z</time>
      </trkpt>
      <trkpt lat="45.28644" lon="4.00858">
        <ele>864</ele>
        <time>2021-04-15T11:39:07Z</time>
      </trkpt>
      <trkpt lat="45.28639" lon="4.00862">
        <ele>864</ele>
        <time>2021-04-15T11:39:08Z</time>
      </trkpt>
      <trkpt lat="45.28634" lon="4.00866">
        <ele>864</ele>
        <time>2021-04-15T11:39:09Z</time>
      </trkpt>
      <trkpt lat="45.2863" lon="4.0087">
        <ele>864</ele>
        <time>2021-04-15T11:39:10Z</time>
      </trkpt>
      <trkpt lat="45.28626" lon="4.00874">
        <ele>864</ele>
        <time>2021-04-15T11:39:11Z</time>
      </trkpt>
      <trkpt lat="45.28622" lon="4.00879">
        <ele>864</ele>
        <time>2021-04-15T11:39:12Z</time>
      </trkpt>
      <trkpt lat="45.28618" lon="4.00884">
        <ele>864</ele>
        <time>2021-04-15T11:39:13Z</time>
      </trkpt>
      <trkpt lat="45.28614" lon="4.0089">
        <ele>864</ele>
        <time>2021-04-15T11:39:14Z</time>
      </trkpt>
      <trkpt lat="45.28608" lon="4.00902">
        <ele>864</ele>
        <time>2021-04-15T11:39:15Z</time>
      </trkpt>
      <trkpt lat="45.28605" lon="4.00908">
        <ele>863</ele>
        <time>2021-04-15T11:39:17Z</time>
      </trkpt>
      <trkpt lat="45.28601" lon="4.00913">
        <ele>864</ele>
        <time>2021-04-15T11:39:18Z</time>
      </trkpt>
      <trkpt lat="45.28597" lon="4.00919">
        <ele>864</ele>
        <time>2021-04-15T11:39:19Z</time>
      </trkpt>
      <trkpt lat="45.28593" lon="4.00924">
        <ele>864</ele>
        <time>2021-04-15T11:39:20Z</time>
      </trkpt>
      <trkpt lat="45.2859" lon="4.00929">
        <ele>864</ele>
        <time>2021-04-15T11:39:21Z</time>
      </trkpt>
      <trkpt lat="45.28586" lon="4.00933">
        <ele>864</ele>
        <time>2021-04-15T11:39:22Z</time>
      </trkpt>
      <trkpt lat="45.28582" lon="4.00937">
        <ele>864</ele>
        <time>2021-04-15T11:39:23Z</time>
      </trkpt>
      <trkpt lat="45.28579" lon="4.00941">
        <ele>863</ele>
        <time>2021-04-15T11:39:24Z</time>
      </trkpt>
      <trkpt lat="45.28575" lon="4.00945">
        <ele>863</ele>
        <time>2021-04-15T11:39:25Z</time>
      </trkpt>
      <trkpt lat="45.28572" lon="4.00949">
        <ele>863</ele>
        <time>2021-04-15T11:39:26Z</time>
      </trkpt>
      <trkpt lat="45.28569" lon="4.00953">
        <ele>863</ele>
        <time>2021-04-15T11:39:27Z</time>
      </trkpt>
      <trkpt lat="45.28566" lon="4.00957">
        <ele>863</ele>
        <time>2021-04-15T11:39:28Z</time>
      </trkpt>
      <trkpt lat="45.28563" lon="4.00962">
        <ele>863</ele>
        <time>2021-04-15T11:39:29Z</time>
      </trkpt>
      <trkpt lat="45.2856" lon="4.00967">
        <ele>863</ele>
        <time>2021-04-15T11:39:30Z</time>
      </trkpt>
      <trkpt lat="45.28557" lon="4.00972">
        <ele>863</ele>
        <time>2021-04-15T11:39:31Z</time>
      </trkpt>
      <trkpt lat="45.28554" lon="4.00977">
        <ele>863</ele>
        <time>2021-04-15T11:39:32Z</time>
      </trkpt>
      <trkpt lat="45.28551" lon="4.00983">
        <ele>862</ele>
        <time>2021-04-15T11:39:33Z</time>
      </trkpt>
      <trkpt lat="45.28546" lon="4.00995">
        <ele>862</ele>
        <time>2021-04-15T11:39:34Z</time>
      </trkpt>
      <trkpt lat="45.28543" lon="4.01001">
        <ele>862</ele>
        <time>2021-04-15T11:39:36Z</time>
      </trkpt>
      <trkpt lat="45.28541" lon="4.01008">
        <ele>862</ele>
        <time>2021-04-15T11:39:37Z</time>
      </trkpt>
      <trkpt lat="45.2854" lon="4.01014">
        <ele>862</ele>
        <time>2021-04-15T11:39:38Z</time>
      </trkpt>
      <trkpt lat="45.28538" lon="4.0102">
        <ele>862</ele>
        <time>2021-04-15T11:39:39Z</time>
      </trkpt>
      <trkpt lat="45.28534" lon="4.01033">
        <ele>861</ele>
        <time>2021-04-15T11:39:40Z</time>
      </trkpt>
      <trkpt lat="45.28532" lon="4.0104">
        <ele>861</ele>
        <time>2021-04-15T11:39:42Z</time>
      </trkpt>
      <trkpt lat="45.2853" lon="4.01047">
        <ele>861</ele>
        <time>2021-04-15T11:39:43Z</time>
      </trkpt>
      <trkpt lat="45.28527" lon="4.01053">
        <ele>861</ele>
        <time>2021-04-15T11:39:44Z</time>
      </trkpt>
      <trkpt lat="45.28525" lon="4.01059">
        <ele>861</ele>
        <time>2021-04-15T11:39:45Z</time>
      </trkpt>
      <trkpt lat="45.28522" lon="4.01065">
        <ele>861</ele>
        <time>2021-04-15T11:39:46Z</time>
      </trkpt>
      <trkpt lat="45.28519" lon="4.01071">
        <ele>861</ele>
        <time>2021-04-15T11:39:47Z</time>
      </trkpt>
      <trkpt lat="45.28516" lon="4.01077">
        <ele>861</ele>
        <time>2021-04-15T11:39:48Z</time>
      </trkpt>
      <trkpt lat="45.28513" lon="4.01083">
        <ele>861</ele>
        <time>2021-04-15T11:39:49Z</time>
      </trkpt>
      <trkpt lat="45.28512" lon="4.01089">
        <ele>861</ele>
        <time>2021-04-15T11:39:50Z</time>
      </trkpt>
      <trkpt lat="45.28511" lon="4.01096">
        <ele>860</ele>
        <time>2021-04-15T11:39:51Z</time>
      </trkpt>
      <trkpt lat="45.28512" lon="4.01103">
        <ele>860</ele>
        <time>2021-04-15T11:39:52Z</time>
      </trkpt>
      <trkpt lat="45.28513" lon="4.01109">
        <ele>860</ele>
        <time>2021-04-15T11:39:53Z</time>
      </trkpt>
      <trkpt lat="45.28515" lon="4.01116">
        <ele>860</ele>
        <time>2021-04-15T11:39:54Z</time>
      </trkpt>
      <trkpt lat="45.28517" lon="4.01122">
        <ele>860</ele>
        <time>2021-04-15T11:39:55Z</time>
      </trkpt>
      <trkpt lat="45.28519" lon="4.01128">
        <ele>860</ele>
        <time>2021-04-15T11:39:56Z</time>
      </trkpt>
      <trkpt lat="45.2852" lon="4.01134">
        <ele>860</ele>
        <time>2021-04-15T11:39:57Z</time>
      </trkpt>
      <trkpt lat="45.28521" lon="4.01139">
        <ele>860</ele>
        <time>2021-04-15T11:39:58Z</time>
      </trkpt>
      <trkpt lat="45.28522" lon="4.01145">
        <ele>859</ele>
        <time>2021-04-15T11:39:59Z</time>
      </trkpt>
      <trkpt lat="45.28522" lon="4.01151">
        <ele>859</ele>
        <time>2021-04-15T11:40:00Z</time>
      </trkpt>
      <trkpt lat="45.28521" lon="4.01156">
        <ele>859</ele>
        <time>2021-04-15T11:40:01Z</time>
      </trkpt>
      <trkpt lat="45.28519" lon="4.01161">
        <ele>859</ele>
        <time>2021-04-15T11:40:02Z</time>
      </trkpt>
      <trkpt lat="45.28517" lon="4.01165">
        <ele>859</ele>
        <time>2021-04-15T11:40:03Z</time>
      </trkpt>
      <trkpt lat="45.28514" lon="4.0117">
        <ele>859</ele>
        <time>2021-04-15T11:40:04Z</time>
      </trkpt>
      <trkpt lat="45.28512" lon="4.01175">
        <ele>859</ele>
        <time>2021-04-15T11:40:05Z</time>
      </trkpt>
      <trkpt lat="45.2851" lon="4.0118">
        <ele>859</ele>
        <time>2021-04-15T11:40:06Z</time>
      </trkpt>
      <trkpt lat="45.28508" lon="4.01186">
        <ele>859</ele>
        <time>2021-04-15T11:40:07Z</time>
      </trkpt>
      <trkpt lat="45.28507" lon="4.01192">
        <ele>858</ele>
        <time>2021-04-15T11:40:08Z</time>
      </trkpt>
      <trkpt lat="45.28505" lon="4.01197">
        <ele>858</ele>
        <time>2021-04-15T11:40:09Z</time>
      </trkpt>
      <trkpt lat="45.28503" lon="4.01203">
        <ele>858</ele>
        <time>2021-04-15T11:40:10Z</time>
      </trkpt>
      <trkpt lat="45.28501" lon="4.01209">
        <ele>858</ele>
        <time>2021-04-15T11:40:11Z</time>
      </trkpt>
      <trkpt lat="45.28498" lon="4.0122">
        <ele>858</ele>
        <time>2021-04-15T11:40:12Z</time>
      </trkpt>
      <trkpt lat="45.28496" lon="4.01226">
        <ele>857</ele>
        <time>2021-04-15T11:40:14Z</time>
      </trkpt>
      <trkpt lat="45.28495" lon="4.01232">
        <ele>857</ele>
        <time>2021-04-15T11:40:15Z</time>
      </trkpt>
      <trkpt lat="45.28493" lon="4.01237">
        <ele>857</ele>
        <time>2021-04-15T11:40:16Z</time>
      </trkpt>
      <trkpt lat="45.28491" lon="4.01242">
        <ele>857</ele>
        <time>2021-04-15T11:40:17Z</time>
      </trkpt>
      <trkpt lat="45.2849" lon="4.01248">
        <ele>857</ele>
        <time>2021-04-15T11:40:18Z</time>
      </trkpt>
      <trkpt lat="45.28488" lon="4.01254">
        <ele>856</ele>
        <time>2021-04-15T11:40:19Z</time>
      </trkpt>
      <trkpt lat="45.28487" lon="4.0126">
        <ele>856</ele>
        <time>2021-04-15T11:40:20Z</time>
      </trkpt>
      <trkpt lat="45.28486" lon="4.01266">
        <ele>857</ele>
        <time>2021-04-15T11:40:21Z</time>
      </trkpt>
      <trkpt lat="45.28486" lon="4.01272">
        <ele>856</ele>
        <time>2021-04-15T11:40:22Z</time>
      </trkpt>
      <trkpt lat="45.28487" lon="4.01279">
        <ele>856</ele>
        <time>2021-04-15T11:40:23Z</time>
      </trkpt>
      <trkpt lat="45.28489" lon="4.01285">
        <ele>856</ele>
        <time>2021-04-15T11:40:24Z</time>
      </trkpt>
      <trkpt lat="45.28492" lon="4.01291">
        <ele>856</ele>
        <time>2021-04-15T11:40:25Z</time>
      </trkpt>
      <trkpt lat="45.28494" lon="4.01297">
        <ele>856</ele>
        <time>2021-04-15T11:40:26Z</time>
      </trkpt>
      <trkpt lat="45.28495" lon="4.01303">
        <ele>856</ele>
        <time>2021-04-15T11:40:27Z</time>
      </trkpt>
      <trkpt lat="45.28497" lon="4.01309">
        <ele>856</ele>
        <time>2021-04-15T11:40:28Z</time>
      </trkpt>
      <trkpt lat="45.28498" lon="4.01315">
        <ele>856</ele>
        <time>2021-04-15T11:40:29Z</time>
      </trkpt>
      <trkpt lat="45.28499" lon="4.01319">
        <ele>856</ele>
        <time>2021-04-15T11:40:30Z</time>
      </trkpt>
      <trkpt lat="45.285" lon="4.01323">
        <ele>856</ele>
        <time>2021-04-15T11:40:31Z</time>
      </trkpt>
      <trkpt lat="45.28502" lon="4.01324">
        <ele>856</ele>
        <time>2021-04-15T11:40:32Z</time>
      </trkpt>
      <trkpt lat="45.28504" lon="4.01325">
        <ele>856</ele>
        <time>2021-04-15T11:40:33Z</time>
      </trkpt>
      <trkpt lat="45.28508" lon="4.01324">
        <ele>856</ele>
        <time>2021-04-15T11:40:34Z</time>
      </trkpt>
      <trkpt lat="45.28511" lon="4.01322">
        <ele>856</ele>
        <time>2021-04-15T11:40:35Z</time>
      </trkpt>
      <trkpt lat="45.28516" lon="4.0132">
        <ele>856</ele>
        <time>2021-04-15T11:40:36Z</time>
      </trkpt>
      <trkpt lat="45.2852" lon="4.01318">
        <ele>855</ele>
        <time>2021-04-15T11:40:37Z</time>
      </trkpt>
      <trkpt lat="45.28525" lon="4.01315">
        <ele>855</ele>
        <time>2021-04-15T11:40:38Z</time>
      </trkpt>
      <trkpt lat="45.2853" lon="4.01311">
        <ele>855</ele>
        <time>2021-04-15T11:40:39Z</time>
      </trkpt>
      <trkpt lat="45.28535" lon="4.01307">
        <ele>855</ele>
        <time>2021-04-15T11:40:40Z</time>
      </trkpt>
      <trkpt lat="45.28539" lon="4.01303">
        <ele>855</ele>
        <time>2021-04-15T11:40:41Z</time>
      </trkpt>
      <trkpt lat="45.28542" lon="4.013">
        <ele>855</ele>
        <time>2021-04-15T11:40:42Z</time>
      </trkpt>
      <trkpt lat="45.28543" lon="4.01297">
        <ele>855</ele>
        <time>2021-04-15T11:40:43Z</time>
      </trkpt>
      <trkpt lat="45.28544" lon="4.01295">
        <ele>855</ele>
        <time>2021-04-15T11:40:44Z</time>
      </trkpt>
      <trkpt lat="45.28546" lon="4.01292">
        <ele>854</ele>
        <time>2021-04-15T11:40:45Z</time>
      </trkpt>
      <trkpt lat="45.28548" lon="4.0129">
        <ele>854</ele>
        <time>2021-04-15T11:40:46Z</time>
      </trkpt>
      <trkpt lat="45.2855" lon="4.01287">
        <ele>854</ele>
        <time>2021-04-15T11:40:47Z</time>
      </trkpt>
      <trkpt lat="45.28551" lon="4.01285">
        <ele>854</ele>
        <time>2021-04-15T11:40:48Z</time>
      </trkpt>
      <trkpt lat="45.28553" lon="4.01282">
        <ele>854</ele>
        <time>2021-04-15T11:40:49Z</time>
      </trkpt>
      <trkpt lat="45.28556" lon="4.01277">
        <ele>854</ele>
        <time>2021-04-15T11:40:50Z</time>
      </trkpt>
      <trkpt lat="45.28558" lon="4.01274">
        <ele>854</ele>
        <time>2021-04-15T11:40:52Z</time>
      </trkpt>
      <trkpt lat="45.2856" lon="4.0127">
        <ele>854</ele>
        <time>2021-04-15T11:40:53Z</time>
      </trkpt>
      <trkpt lat="45.28562" lon="4.01267">
        <ele>854</ele>
        <time>2021-04-15T11:40:54Z</time>
      </trkpt>
      <trkpt lat="45.28565" lon="4.01265">
        <ele>854</ele>
        <time>2021-04-15T11:40:55Z</time>
      </trkpt>
      <trkpt lat="45.28568" lon="4.01264">
        <ele>854</ele>
        <time>2021-04-15T11:40:56Z</time>
      </trkpt>
      <trkpt lat="45.2857" lon="4.01266">
        <ele>854</ele>
        <time>2021-04-15T11:40:57Z</time>
      </trkpt>
      <trkpt lat="45.28572" lon="4.01269">
        <ele>853</ele>
        <time>2021-04-15T11:40:58Z</time>
      </trkpt>
      <trkpt lat="45.28574" lon="4.01273">
        <ele>853</ele>
        <time>2021-04-15T11:40:59Z</time>
      </trkpt>
      <trkpt lat="45.28576" lon="4.01277">
        <ele>853</ele>
        <time>2021-04-15T11:41:00Z</time>
      </trkpt>
      <trkpt lat="45.28578" lon="4.01283">
        <ele>853</ele>
        <time>2021-04-15T11:41:01Z</time>
      </trkpt>
      <trkpt lat="45.2858" lon="4.01289">
        <ele>852</ele>
        <time>2021-04-15T11:41:02Z</time>
      </trkpt>
      <trkpt lat="45.28581" lon="4.01296">
        <ele>852</ele>
        <time>2021-04-15T11:41:03Z</time>
      </trkpt>
      <trkpt lat="45.28582" lon="4.01303">
        <ele>852</ele>
        <time>2021-04-15T11:41:04Z</time>
      </trkpt>
      <trkpt lat="45.28584" lon="4.0131">
        <ele>851</ele>
        <time>2021-04-15T11:41:05Z</time>
      </trkpt>
      <trkpt lat="45.28585" lon="4.01317">
        <ele>851</ele>
        <time>2021-04-15T11:41:06Z</time>
      </trkpt>
      <trkpt lat="45.28587" lon="4.01324">
        <ele>851</ele>
        <time>2021-04-15T11:41:07Z</time>
      </trkpt>
      <trkpt lat="45.2859" lon="4.01331">
        <ele>850</ele>
        <time>2021-04-15T11:41:08Z</time>
      </trkpt>
      <trkpt lat="45.28596" lon="4.01344">
        <ele>850</ele>
        <time>2021-04-15T11:41:09Z</time>
      </trkpt>
      <trkpt lat="45.28601" lon="4.0135">
        <ele>849</ele>
        <time>2021-04-15T11:41:11Z</time>
      </trkpt>
      <trkpt lat="45.28606" lon="4.01357">
        <ele>849</ele>
        <time>2021-04-15T11:41:12Z</time>
      </trkpt>
      <trkpt lat="45.28612" lon="4.01361">
        <ele>849</ele>
        <time>2021-04-15T11:41:13Z</time>
      </trkpt>
      <trkpt lat="45.28619" lon="4.01365">
        <ele>848</ele>
        <time>2021-04-15T11:41:14Z</time>
      </trkpt>
      <trkpt lat="45.28626" lon="4.01368">
        <ele>848</ele>
        <time>2021-04-15T11:41:15Z</time>
      </trkpt>
      <trkpt lat="45.28633" lon="4.01371">
        <ele>848</ele>
        <time>2021-04-15T11:41:16Z</time>
      </trkpt>
      <trkpt lat="45.28641" lon="4.01374">
        <ele>848</ele>
        <time>2021-04-15T11:41:17Z</time>
      </trkpt>
      <trkpt lat="45.28648" lon="4.01377">
        <ele>848</ele>
        <time>2021-04-15T11:41:18Z</time>
      </trkpt>
      <trkpt lat="45.28655" lon="4.01381">
        <ele>848</ele>
        <time>2021-04-15T11:41:19Z</time>
      </trkpt>
      <trkpt lat="45.28661" lon="4.01387">
        <ele>847</ele>
        <time>2021-04-15T11:41:20Z</time>
      </trkpt>
      <trkpt lat="45.28663" lon="4.01396">
        <ele>847</ele>
        <time>2021-04-15T11:41:21Z</time>
      </trkpt>
      <trkpt lat="45.28665" lon="4.01405">
        <ele>847</ele>
        <time>2021-04-15T11:41:22Z</time>
      </trkpt>
      <trkpt lat="45.28667" lon="4.01412">
        <ele>847</ele>
        <time>2021-04-15T11:41:23Z</time>
      </trkpt>
      <trkpt lat="45.28672" lon="4.01426">
        <ele>845</ele>
        <time>2021-04-15T11:41:25Z</time>
      </trkpt>
      <trkpt lat="45.28679" lon="4.01437">
        <ele>845</ele>
        <time>2021-04-15T11:41:27Z</time>
      </trkpt>
      <trkpt lat="45.28685" lon="4.01448">
        <ele>844</ele>
        <time>2021-04-15T11:41:29Z</time>
      </trkpt>
      <trkpt lat="45.28688" lon="4.01453">
        <ele>844</ele>
        <time>2021-04-15T11:41:30Z</time>
      </trkpt>
      <trkpt lat="45.2869" lon="4.01457">
        <ele>844</ele>
        <time>2021-04-15T11:41:31Z</time>
      </trkpt>
      <trkpt lat="45.28691" lon="4.01462">
        <ele>844</ele>
        <time>2021-04-15T11:41:32Z</time>
      </trkpt>
      <trkpt lat="45.28693" lon="4.01466">
        <ele>843</ele>
        <time>2021-04-15T11:41:33Z</time>
      </trkpt>
      <trkpt lat="45.28696" lon="4.0147">
        <ele>843</ele>
        <time>2021-04-15T11:41:34Z</time>
      </trkpt>
      <trkpt lat="45.28698" lon="4.01474">
        <ele>843</ele>
        <time>2021-04-15T11:41:35Z</time>
      </trkpt>
      <trkpt lat="45.28706" lon="4.01488">
        <ele>842</ele>
        <time>2021-04-15T11:41:38Z</time>
      </trkpt>
      <trkpt lat="45.28708" lon="4.01493">
        <ele>842</ele>
        <time>2021-04-15T11:41:39Z</time>
      </trkpt>
      <trkpt lat="45.28711" lon="4.01498">
        <ele>842</ele>
        <time>2021-04-15T11:41:40Z</time>
      </trkpt>
      <trkpt lat="45.28714" lon="4.01503">
        <ele>841</ele>
        <time>2021-04-15T11:41:41Z</time>
      </trkpt>
      <trkpt lat="45.2872" lon="4.01514">
        <ele>840</ele>
        <time>2021-04-15T11:41:43Z</time>
      </trkpt>
      <trkpt lat="45.28724" lon="4.01519">
        <ele>840</ele>
        <time>2021-04-15T11:41:44Z</time>
      </trkpt>
      <trkpt lat="45.28728" lon="4.01524">
        <ele>839</ele>
        <time>2021-04-15T11:41:45Z</time>
      </trkpt>
      <trkpt lat="45.28732" lon="4.01528">
        <ele>838</ele>
        <time>2021-04-15T11:41:46Z</time>
      </trkpt>
      <trkpt lat="45.28742" lon="4.01536">
        <ele>838</ele>
        <time>2021-04-15T11:41:47Z</time>
      </trkpt>
      <trkpt lat="45.28747" lon="4.0154">
        <ele>836</ele>
        <time>2021-04-15T11:41:49Z</time>
      </trkpt>
      <trkpt lat="45.28752" lon="4.01543">
        <ele>836</ele>
        <time>2021-04-15T11:41:50Z</time>
      </trkpt>
      <trkpt lat="45.28757" lon="4.01546">
        <ele>835</ele>
        <time>2021-04-15T11:41:51Z</time>
      </trkpt>
      <trkpt lat="45.28763" lon="4.01549">
        <ele>835</ele>
        <time>2021-04-15T11:41:52Z</time>
      </trkpt>
      <trkpt lat="45.28768" lon="4.01551">
        <ele>834</ele>
        <time>2021-04-15T11:41:53Z</time>
      </trkpt>
      <trkpt lat="45.28774" lon="4.01552">
        <ele>834</ele>
        <time>2021-04-15T11:41:54Z</time>
      </trkpt>
      <trkpt lat="45.28779" lon="4.01554">
        <ele>833</ele>
        <time>2021-04-15T11:41:55Z</time>
      </trkpt>
      <trkpt lat="45.28785" lon="4.01555">
        <ele>833</ele>
        <time>2021-04-15T11:41:56Z</time>
      </trkpt>
      <trkpt lat="45.2879" lon="4.01557">
        <ele>832</ele>
        <time>2021-04-15T11:41:57Z</time>
      </trkpt>
      <trkpt lat="45.28796" lon="4.01559">
        <ele>832</ele>
        <time>2021-04-15T11:41:58Z</time>
      </trkpt>
      <trkpt lat="45.28802" lon="4.01561">
        <ele>832</ele>
        <time>2021-04-15T11:41:59Z</time>
      </trkpt>
      <trkpt lat="45.28808" lon="4.01563">
        <ele>832</ele>
        <time>2021-04-15T11:42:00Z</time>
      </trkpt>
      <trkpt lat="45.28814" lon="4.01566">
        <ele>831</ele>
        <time>2021-04-15T11:42:01Z</time>
      </trkpt>
      <trkpt lat="45.2882" lon="4.01568">
        <ele>831</ele>
        <time>2021-04-15T11:42:02Z</time>
      </trkpt>
      <trkpt lat="45.28825" lon="4.0157">
        <ele>831</ele>
        <time>2021-04-15T11:42:03Z</time>
      </trkpt>
      <trkpt lat="45.2883" lon="4.01573">
        <ele>831</ele>
        <time>2021-04-15T11:42:04Z</time>
      </trkpt>
      <trkpt lat="45.28835" lon="4.01576">
        <ele>830</ele>
        <time>2021-04-15T11:42:05Z</time>
      </trkpt>
      <trkpt lat="45.28845" lon="4.01582">
        <ele>830</ele>
        <time>2021-04-15T11:42:06Z</time>
      </trkpt>
      <trkpt lat="45.2885" lon="4.01586">
        <ele>828</ele>
        <time>2021-04-15T11:42:08Z</time>
      </trkpt>
      <trkpt lat="45.28855" lon="4.01589">
        <ele>828</ele>
        <time>2021-04-15T11:42:09Z</time>
      </trkpt>
      <trkpt lat="45.2886" lon="4.01592">
        <ele>828</ele>
        <time>2021-04-15T11:42:10Z</time>
      </trkpt>
      <trkpt lat="45.28865" lon="4.01595">
        <ele>827</ele>
        <time>2021-04-15T11:42:11Z</time>
      </trkpt>
      <trkpt lat="45.2887" lon="4.01598">
        <ele>827</ele>
        <time>2021-04-15T11:42:12Z</time>
      </trkpt>
      <trkpt lat="45.28875" lon="4.016">
        <ele>826</ele>
        <time>2021-04-15T11:42:13Z</time>
      </trkpt>
      <trkpt lat="45.28881" lon="4.01601">
        <ele>826</ele>
        <time>2021-04-15T11:42:14Z</time>
      </trkpt>
      <trkpt lat="45.28888" lon="4.01601">
        <ele>825</ele>
        <time>2021-04-15T11:42:15Z</time>
      </trkpt>
      <trkpt lat="45.28894" lon="4.01599">
        <ele>824</ele>
        <time>2021-04-15T11:42:16Z</time>
      </trkpt>
      <trkpt lat="45.28901" lon="4.01597">
        <ele>824</ele>
        <time>2021-04-15T11:42:17Z</time>
      </trkpt>
      <trkpt lat="45.28907" lon="4.01594">
        <ele>824</ele>
        <time>2021-04-15T11:42:18Z</time>
      </trkpt>
      <trkpt lat="45.28915" lon="4.01589">
        <ele>824</ele>
        <time>2021-04-15T11:42:19Z</time>
      </trkpt>
      <trkpt lat="45.28923" lon="4.01583">
        <ele>823</ele>
        <time>2021-04-15T11:42:20Z</time>
      </trkpt>
      <trkpt lat="45.2893" lon="4.01579">
        <ele>823</ele>
        <time>2021-04-15T11:42:21Z</time>
      </trkpt>
      <trkpt lat="45.28936" lon="4.01578">
        <ele>823</ele>
        <time>2021-04-15T11:42:22Z</time>
      </trkpt>
      <trkpt lat="45.2894" lon="4.01581">
        <ele>823</ele>
        <time>2021-04-15T11:42:23Z</time>
      </trkpt>
      <trkpt lat="45.28943" lon="4.01585">
        <ele>823</ele>
        <time>2021-04-15T11:42:24Z</time>
      </trkpt>
      <trkpt lat="45.28943" lon="4.01591">
        <ele>822</ele>
        <time>2021-04-15T11:42:25Z</time>
      </trkpt>
      <trkpt lat="45.28942" lon="4.01597">
        <ele>822</ele>
        <time>2021-04-15T11:42:26Z</time>
      </trkpt>
      <trkpt lat="45.28941" lon="4.01604">
        <ele>822</ele>
        <time>2021-04-15T11:42:27Z</time>
      </trkpt>
      <trkpt lat="45.2894" lon="4.01612">
        <ele>821</ele>
        <time>2021-04-15T11:42:28Z</time>
      </trkpt>
      <trkpt lat="45.28939" lon="4.01619">
        <ele>821</ele>
        <time>2021-04-15T11:42:29Z</time>
      </trkpt>
      <trkpt lat="45.28938" lon="4.01626">
        <ele>821</ele>
        <time>2021-04-15T11:42:30Z</time>
      </trkpt>
      <trkpt lat="45.28937" lon="4.01632">
        <ele>821</ele>
        <time>2021-04-15T11:42:31Z</time>
      </trkpt>
      <trkpt lat="45.28935" lon="4.01638">
        <ele>821</ele>
        <time>2021-04-15T11:42:32Z</time>
      </trkpt>
      <trkpt lat="45.28933" lon="4.01645">
        <ele>821</ele>
        <time>2021-04-15T11:42:33Z</time>
      </trkpt>
      <trkpt lat="45.2893" lon="4.01651">
        <ele>821</ele>
        <time>2021-04-15T11:42:34Z</time>
      </trkpt>
      <trkpt lat="45.28928" lon="4.01657">
        <ele>821</ele>
        <time>2021-04-15T11:42:35Z</time>
      </trkpt>
      <trkpt lat="45.28926" lon="4.01663">
        <ele>821</ele>
        <time>2021-04-15T11:42:36Z</time>
      </trkpt>
      <trkpt lat="45.28925" lon="4.01669">
        <ele>822</ele>
        <time>2021-04-15T11:42:37Z</time>
      </trkpt>
      <trkpt lat="45.28923" lon="4.01675">
        <ele>822</ele>
        <time>2021-04-15T11:42:38Z</time>
      </trkpt>
      <trkpt lat="45.28921" lon="4.01681">
        <ele>822</ele>
        <time>2021-04-15T11:42:39Z</time>
      </trkpt>
      <trkpt lat="45.28919" lon="4.01687">
        <ele>822</ele>
        <time>2021-04-15T11:42:40Z</time>
      </trkpt>
      <trkpt lat="45.28917" lon="4.01694">
        <ele>822</ele>
        <time>2021-04-15T11:42:41Z</time>
      </trkpt>
      <trkpt lat="45.28915" lon="4.017">
        <ele>823</ele>
        <time>2021-04-15T11:42:42Z</time>
      </trkpt>
      <trkpt lat="45.28913" lon="4.01707">
        <ele>823</ele>
        <time>2021-04-15T11:42:43Z</time>
      </trkpt>
      <trkpt lat="45.28911" lon="4.01714">
        <ele>823</ele>
        <time>2021-04-15T11:42:44Z</time>
      </trkpt>
      <trkpt lat="45.2891" lon="4.01721">
        <ele>824</ele>
        <time>2021-04-15T11:42:45Z</time>
      </trkpt>
      <trkpt lat="45.28908" lon="4.01727">
        <ele>824</ele>
        <time>2021-04-15T11:42:46Z</time>
      </trkpt>
      <trkpt lat="45.28907" lon="4.01734">
        <ele>824</ele>
        <time>2021-04-15T11:42:47Z</time>
      </trkpt>
      <trkpt lat="45.28906" lon="4.0174">
        <ele>825</ele>
        <time>2021-04-15T11:42:48Z</time>
      </trkpt>
      <trkpt lat="45.28905" lon="4.01746">
        <ele>825</ele>
        <time>2021-04-15T11:42:49Z</time>
      </trkpt>
      <trkpt lat="45.28903" lon="4.01753">
        <ele>825</ele>
        <time>2021-04-15T11:42:50Z</time>
      </trkpt>
      <trkpt lat="45.28902" lon="4.01759">
        <ele>826</ele>
        <time>2021-04-15T11:42:51Z</time>
      </trkpt>
      <trkpt lat="45.28901" lon="4.01766">
        <ele>826</ele>
        <time>2021-04-15T11:42:52Z</time>
      </trkpt>
      <trkpt lat="45.289" lon="4.01773">
        <ele>826</ele>
        <time>2021-04-15T11:42:53Z</time>
      </trkpt>
      <trkpt lat="45.28898" lon="4.01781">
        <ele>827</ele>
        <time>2021-04-15T11:42:54Z</time>
      </trkpt>
      <trkpt lat="45.28897" lon="4.01788">
        <ele>827</ele>
        <time>2021-04-15T11:42:55Z</time>
      </trkpt>
      <trkpt lat="45.28896" lon="4.01796">
        <ele>827</ele>
        <time>2021-04-15T11:42:56Z</time>
      </trkpt>
      <trkpt lat="45.28895" lon="4.01804">
        <ele>828</ele>
        <time>2021-04-15T11:42:57Z</time>
      </trkpt>
      <trkpt lat="45.28894" lon="4.01812">
        <ele>828</ele>
        <time>2021-04-15T11:42:58Z</time>
      </trkpt>
      <trkpt lat="45.28893" lon="4.0182">
        <ele>830</ele>
        <time>2021-04-15T11:42:59Z</time>
      </trkpt>
      <trkpt lat="45.28891" lon="4.01827">
        <ele>830</ele>
        <time>2021-04-15T11:43:00Z</time>
      </trkpt>
      <trkpt lat="45.28891" lon="4.01834">
        <ele>831</ele>
        <time>2021-04-15T11:43:01Z</time>
      </trkpt>
      <trkpt lat="45.2889" lon="4.01841">
        <ele>831</ele>
        <time>2021-04-15T11:43:02Z</time>
      </trkpt>
      <trkpt lat="45.28889" lon="4.01848">
        <ele>832</ele>
        <time>2021-04-15T11:43:03Z</time>
      </trkpt>
      <trkpt lat="45.28889" lon="4.01855">
        <ele>832</ele>
        <time>2021-04-15T11:43:04Z</time>
      </trkpt>
      <trkpt lat="45.2889" lon="4.01862">
        <ele>832</ele>
        <time>2021-04-15T11:43:05Z</time>
      </trkpt>
      <trkpt lat="45.28891" lon="4.01868">
        <ele>833</ele>
        <time>2021-04-15T11:43:06Z</time>
      </trkpt>
      <trkpt lat="45.28892" lon="4.01875">
        <ele>834</ele>
        <time>2021-04-15T11:43:07Z</time>
      </trkpt>
      <trkpt lat="45.28893" lon="4.01881">
        <ele>834</ele>
        <time>2021-04-15T11:43:08Z</time>
      </trkpt>
      <trkpt lat="45.28894" lon="4.01887">
        <ele>834</ele>
        <time>2021-04-15T11:43:09Z</time>
      </trkpt>
      <trkpt lat="45.28894" lon="4.01893">
        <ele>835</ele>
        <time>2021-04-15T11:43:10Z</time>
      </trkpt>
      <trkpt lat="45.28894" lon="4.01898">
        <ele>835</ele>
        <time>2021-04-15T11:43:11Z</time>
      </trkpt>
      <trkpt lat="45.28893" lon="4.01903">
        <ele>835</ele>
        <time>2021-04-15T11:43:12Z</time>
      </trkpt>
      <trkpt lat="45.28892" lon="4.01909">
        <ele>835</ele>
        <time>2021-04-15T11:43:13Z</time>
      </trkpt>
      <trkpt lat="45.28891" lon="4.01914">
        <ele>835</ele>
        <time>2021-04-15T11:43:14Z</time>
      </trkpt>
      <trkpt lat="45.2889" lon="4.01919">
        <ele>836</ele>
        <time>2021-04-15T11:43:15Z</time>
      </trkpt>
      <trkpt lat="45.28888" lon="4.01925">
        <ele>836</ele>
        <time>2021-04-15T11:43:16Z</time>
      </trkpt>
      <trkpt lat="45.28887" lon="4.01931">
        <ele>836</ele>
        <time>2021-04-15T11:43:17Z</time>
      </trkpt>
      <trkpt lat="45.28886" lon="4.01937">
        <ele>836</ele>
        <time>2021-04-15T11:43:18Z</time>
      </trkpt>
      <trkpt lat="45.28884" lon="4.01942">
        <ele>836</ele>
        <time>2021-04-15T11:43:19Z</time>
      </trkpt>
      <trkpt lat="45.28883" lon="4.01949">
        <ele>836</ele>
        <time>2021-04-15T11:43:20Z</time>
      </trkpt>
      <trkpt lat="45.28882" lon="4.01955">
        <ele>835</ele>
        <time>2021-04-15T11:43:21Z</time>
      </trkpt>
      <trkpt lat="45.28879" lon="4.01968">
        <ele>835</ele>
        <time>2021-04-15T11:43:22Z</time>
      </trkpt>
      <trkpt lat="45.28879" lon="4.01975">
        <ele>835</ele>
        <time>2021-04-15T11:43:24Z</time>
      </trkpt>
      <trkpt lat="45.28878" lon="4.01981">
        <ele>835</ele>
        <time>2021-04-15T11:43:25Z</time>
      </trkpt>
      <trkpt lat="45.28878" lon="4.01987">
        <ele>835</ele>
        <time>2021-04-15T11:43:26Z</time>
      </trkpt>
      <trkpt lat="45.28877" lon="4.01993">
        <ele>835</ele>
        <time>2021-04-15T11:43:27Z</time>
      </trkpt>
      <trkpt lat="45.28876" lon="4.01999">
        <ele>835</ele>
        <time>2021-04-15T11:43:28Z</time>
      </trkpt>
      <trkpt lat="45.28874" lon="4.02006">
        <ele>835</ele>
        <time>2021-04-15T11:43:29Z</time>
      </trkpt>
      <trkpt lat="45.28873" lon="4.02012">
        <ele>834</ele>
        <time>2021-04-15T11:43:30Z</time>
      </trkpt>
      <trkpt lat="45.28871" lon="4.02019">
        <ele>834</ele>
        <time>2021-04-15T11:43:31Z</time>
      </trkpt>
      <trkpt lat="45.2887" lon="4.02027">
        <ele>834</ele>
        <time>2021-04-15T11:43:32Z</time>
      </trkpt>
      <trkpt lat="45.28868" lon="4.02034">
        <ele>834</ele>
        <time>2021-04-15T11:43:33Z</time>
      </trkpt>
      <trkpt lat="45.28867" lon="4.02041">
        <ele>834</ele>
        <time>2021-04-15T11:43:34Z</time>
      </trkpt>
      <trkpt lat="45.28866" lon="4.02049">
        <ele>834</ele>
        <time>2021-04-15T11:43:35Z</time>
      </trkpt>
      <trkpt lat="45.28865" lon="4.02056">
        <ele>833</ele>
        <time>2021-04-15T11:43:36Z</time>
      </trkpt>
      <trkpt lat="45.28864" lon="4.02064">
        <ele>833</ele>
        <time>2021-04-15T11:43:37Z</time>
      </trkpt>
      <trkpt lat="45.28863" lon="4.02071">
        <ele>833</ele>
        <time>2021-04-15T11:43:38Z</time>
      </trkpt>
      <trkpt lat="45.28862" lon="4.0208">
        <ele>833</ele>
        <time>2021-04-15T11:43:39Z</time>
      </trkpt>
      <trkpt lat="45.28862" lon="4.02088">
        <ele>833</ele>
        <time>2021-04-15T11:43:40Z</time>
      </trkpt>
      <trkpt lat="45.28862" lon="4.02104">
        <ele>832</ele>
        <time>2021-04-15T11:43:42Z</time>
      </trkpt>
      <trkpt lat="45.28861" lon="4.02112">
        <ele>832</ele>
        <time>2021-04-15T11:43:43Z</time>
      </trkpt>
      <trkpt lat="45.2886" lon="4.02119">
        <ele>832</ele>
        <time>2021-04-15T11:43:44Z</time>
      </trkpt>
      <trkpt lat="45.28859" lon="4.02126">
        <ele>831</ele>
        <time>2021-04-15T11:43:45Z</time>
      </trkpt>
      <trkpt lat="45.28857" lon="4.02132">
        <ele>831</ele>
        <time>2021-04-15T11:43:46Z</time>
      </trkpt>
      <trkpt lat="45.28854" lon="4.02138">
        <ele>831</ele>
        <time>2021-04-15T11:43:47Z</time>
      </trkpt>
      <trkpt lat="45.28851" lon="4.02143">
        <ele>831</ele>
        <time>2021-04-15T11:43:48Z</time>
      </trkpt>
      <trkpt lat="45.28848" lon="4.02148">
        <ele>831</ele>
        <time>2021-04-15T11:43:49Z</time>
      </trkpt>
      <trkpt lat="45.28844" lon="4.02154">
        <ele>830</ele>
        <time>2021-04-15T11:43:50Z</time>
      </trkpt>
      <trkpt lat="45.28841" lon="4.02161">
        <ele>830</ele>
        <time>2021-04-15T11:43:51Z</time>
      </trkpt>
      <trkpt lat="45.28838" lon="4.02167">
        <ele>830</ele>
        <time>2021-04-15T11:43:52Z</time>
      </trkpt>
      <trkpt lat="45.28835" lon="4.02174">
        <ele>830</ele>
        <time>2021-04-15T11:43:53Z</time>
      </trkpt>
      <trkpt lat="45.28832" lon="4.02181">
        <ele>830</ele>
        <time>2021-04-15T11:43:54Z</time>
      </trkpt>
      <trkpt lat="45.28829" lon="4.02187">
        <ele>829</ele>
        <time>2021-04-15T11:43:55Z</time>
      </trkpt>
      <trkpt lat="45.28826" lon="4.02195">
        <ele>829</ele>
        <time>2021-04-15T11:43:56Z</time>
      </trkpt>
      <trkpt lat="45.28822" lon="4.02202">
        <ele>829</ele>
        <time>2021-04-15T11:43:57Z</time>
      </trkpt>
      <trkpt lat="45.28819" lon="4.02211">
        <ele>829</ele>
        <time>2021-04-15T11:43:58Z</time>
      </trkpt>
      <trkpt lat="45.28814" lon="4.02219">
        <ele>827</ele>
        <time>2021-04-15T11:43:59Z</time>
      </trkpt>
      <trkpt lat="45.28804" lon="4.02237">
        <ele>827</ele>
        <time>2021-04-15T11:44:00Z</time>
      </trkpt>
      <trkpt lat="45.28799" lon="4.02246">
        <ele>826</ele>
        <time>2021-04-15T11:44:02Z</time>
      </trkpt>
      <trkpt lat="45.28793" lon="4.02255">
        <ele>825</ele>
        <time>2021-04-15T11:44:03Z</time>
      </trkpt>
      <trkpt lat="45.28789" lon="4.02264">
        <ele>824</ele>
        <time>2021-04-15T11:44:04Z</time>
      </trkpt>
      <trkpt lat="45.28784" lon="4.02274">
        <ele>824</ele>
        <time>2021-04-15T11:44:05Z</time>
      </trkpt>
      <trkpt lat="45.2878" lon="4.02284">
        <ele>823</ele>
        <time>2021-04-15T11:44:06Z</time>
      </trkpt>
      <trkpt lat="45.28776" lon="4.02295">
        <ele>823</ele>
        <time>2021-04-15T11:44:07Z</time>
      </trkpt>
      <trkpt lat="45.28773" lon="4.02306">
        <ele>822</ele>
        <time>2021-04-15T11:44:08Z</time>
      </trkpt>
      <trkpt lat="45.28769" lon="4.02317">
        <ele>822</ele>
        <time>2021-04-15T11:44:09Z</time>
      </trkpt>
      <trkpt lat="45.28766" lon="4.02327">
        <ele>821</ele>
        <time>2021-04-15T11:44:10Z</time>
      </trkpt>
      <trkpt lat="45.28763" lon="4.02338">
        <ele>821</ele>
        <time>2021-04-15T11:44:11Z</time>
      </trkpt>
      <trkpt lat="45.2876" lon="4.02349">
        <ele>820</ele>
        <time>2021-04-15T11:44:12Z</time>
      </trkpt>
      <trkpt lat="45.28757" lon="4.02359">
        <ele>820</ele>
        <time>2021-04-15T11:44:13Z</time>
      </trkpt>
      <trkpt lat="45.28754" lon="4.02369">
        <ele>819</ele>
        <time>2021-04-15T11:44:14Z</time>
      </trkpt>
      <trkpt lat="45.2875" lon="4.02379">
        <ele>819</ele>
        <time>2021-04-15T11:44:15Z</time>
      </trkpt>
      <trkpt lat="45.28746" lon="4.02388">
        <ele>818</ele>
        <time>2021-04-15T11:44:16Z</time>
      </trkpt>
      <trkpt lat="45.28742" lon="4.02397">
        <ele>817</ele>
        <time>2021-04-15T11:44:17Z</time>
      </trkpt>
      <trkpt lat="45.28738" lon="4.02407">
        <ele>817</ele>
        <time>2021-04-15T11:44:18Z</time>
      </trkpt>
      <trkpt lat="45.28728" lon="4.02426">
        <ele>817</ele>
        <time>2021-04-15T11:44:19Z</time>
      </trkpt>
      <trkpt lat="45.28723" lon="4.02435">
        <ele>814</ele>
        <time>2021-04-15T11:44:21Z</time>
      </trkpt>
      <trkpt lat="45.28717" lon="4.02444">
        <ele>813</ele>
        <time>2021-04-15T11:44:22Z</time>
      </trkpt>
      <trkpt lat="45.28711" lon="4.02455">
        <ele>811</ele>
        <time>2021-04-15T11:44:23Z</time>
      </trkpt>
      <trkpt lat="45.28705" lon="4.02467">
        <ele>810</ele>
        <time>2021-04-15T11:44:24Z</time>
      </trkpt>
      <trkpt lat="45.28701" lon="4.02479">
        <ele>810</ele>
        <time>2021-04-15T11:44:25Z</time>
      </trkpt>
      <trkpt lat="45.28697" lon="4.0249">
        <ele>808</ele>
        <time>2021-04-15T11:44:26Z</time>
      </trkpt>
      <trkpt lat="45.28692" lon="4.02501">
        <ele>807</ele>
        <time>2021-04-15T11:44:27Z</time>
      </trkpt>
      <trkpt lat="45.28686" lon="4.02512">
        <ele>805</ele>
        <time>2021-04-15T11:44:28Z</time>
      </trkpt>
      <trkpt lat="45.2868" lon="4.02523">
        <ele>804</ele>
        <time>2021-04-15T11:44:29Z</time>
      </trkpt>
      <trkpt lat="45.28672" lon="4.02533">
        <ele>803</ele>
        <time>2021-04-15T11:44:30Z</time>
      </trkpt>
      <trkpt lat="45.28665" lon="4.02544">
        <ele>803</ele>
        <time>2021-04-15T11:44:31Z</time>
      </trkpt>
      <trkpt lat="45.28658" lon="4.02555">
        <ele>801</ele>
        <time>2021-04-15T11:44:32Z</time>
      </trkpt>
      <trkpt lat="45.28651" lon="4.02565">
        <ele>801</ele>
        <time>2021-04-15T11:44:33Z</time>
      </trkpt>
      <trkpt lat="45.28644" lon="4.02576">
        <ele>800</ele>
        <time>2021-04-15T11:44:34Z</time>
      </trkpt>
      <trkpt lat="45.28637" lon="4.02586">
        <ele>799</ele>
        <time>2021-04-15T11:44:35Z</time>
      </trkpt>
      <trkpt lat="45.28629" lon="4.02595">
        <ele>799</ele>
        <time>2021-04-15T11:44:36Z</time>
      </trkpt>
      <trkpt lat="45.2862" lon="4.02603">
        <ele>799</ele>
        <time>2021-04-15T11:44:37Z</time>
      </trkpt>
      <trkpt lat="45.28603" lon="4.02616">
        <ele>798</ele>
        <time>2021-04-15T11:44:38Z</time>
      </trkpt>
      <trkpt lat="45.28595" lon="4.02622">
        <ele>797</ele>
        <time>2021-04-15T11:44:40Z</time>
      </trkpt>
      <trkpt lat="45.28587" lon="4.02627">
        <ele>797</ele>
        <time>2021-04-15T11:44:41Z</time>
      </trkpt>
      <trkpt lat="45.28579" lon="4.02631">
        <ele>797</ele>
        <time>2021-04-15T11:44:42Z</time>
      </trkpt>
      <trkpt lat="45.28572" lon="4.02635">
        <ele>797</ele>
        <time>2021-04-15T11:44:43Z</time>
      </trkpt>
      <trkpt lat="45.28565" lon="4.02639">
        <ele>797</ele>
        <time>2021-04-15T11:44:44Z</time>
      </trkpt>
      <trkpt lat="45.28558" lon="4.02643">
        <ele>797</ele>
        <time>2021-04-15T11:44:45Z</time>
      </trkpt>
      <trkpt lat="45.28551" lon="4.02646">
        <ele>797</ele>
        <time>2021-04-15T11:44:46Z</time>
      </trkpt>
      <trkpt lat="45.28545" lon="4.02649">
        <ele>797</ele>
        <time>2021-04-15T11:44:47Z</time>
      </trkpt>
      <trkpt lat="45.28539" lon="4.02653">
        <ele>797</ele>
        <time>2021-04-15T11:44:48Z</time>
      </trkpt>
      <trkpt lat="45.28534" lon="4.02656">
        <ele>796</ele>
        <time>2021-04-15T11:44:49Z</time>
      </trkpt>
      <trkpt lat="45.28528" lon="4.02659">
        <ele>796</ele>
        <time>2021-04-15T11:44:50Z</time>
      </trkpt>
      <trkpt lat="45.28522" lon="4.02662">
        <ele>796</ele>
        <time>2021-04-15T11:44:51Z</time>
      </trkpt>
      <trkpt lat="45.28517" lon="4.02666">
        <ele>796</ele>
        <time>2021-04-15T11:44:52Z</time>
      </trkpt>
      <trkpt lat="45.28512" lon="4.0267">
        <ele>796</ele>
        <time>2021-04-15T11:44:53Z</time>
      </trkpt>
      <trkpt lat="45.28507" lon="4.02675">
        <ele>796</ele>
        <time>2021-04-15T11:44:54Z</time>
      </trkpt>
      <trkpt lat="45.28502" lon="4.0268">
        <ele>796</ele>
        <time>2021-04-15T11:44:55Z</time>
      </trkpt>
      <trkpt lat="45.28497" lon="4.02685">
        <ele>796</ele>
        <time>2021-04-15T11:44:56Z</time>
      </trkpt>
      <trkpt lat="45.28487" lon="4.02695">
        <ele>797</ele>
        <time>2021-04-15T11:44:57Z</time>
      </trkpt>
      <trkpt lat="45.28482" lon="4.027">
        <ele>797</ele>
        <time>2021-04-15T11:44:59Z</time>
      </trkpt>
      <trkpt lat="45.28477" lon="4.02705">
        <ele>797</ele>
        <time>2021-04-15T11:45:00Z</time>
      </trkpt>
      <trkpt lat="45.28472" lon="4.02709">
        <ele>797</ele>
        <time>2021-04-15T11:45:01Z</time>
      </trkpt>
      <trkpt lat="45.28468" lon="4.02714">
        <ele>798</ele>
        <time>2021-04-15T11:45:02Z</time>
      </trkpt>
      <trkpt lat="45.28463" lon="4.02719">
        <ele>798</ele>
        <time>2021-04-15T11:45:03Z</time>
      </trkpt>
      <trkpt lat="45.28458" lon="4.02724">
        <ele>798</ele>
        <time>2021-04-15T11:45:04Z</time>
      </trkpt>
      <trkpt lat="45.28453" lon="4.02729">
        <ele>798</ele>
        <time>2021-04-15T11:45:05Z</time>
      </trkpt>
      <trkpt lat="45.28449" lon="4.02733">
        <ele>798</ele>
        <time>2021-04-15T11:45:06Z</time>
      </trkpt>
      <trkpt lat="45.28444" lon="4.02738">
        <ele>799</ele>
        <time>2021-04-15T11:45:07Z</time>
      </trkpt>
      <trkpt lat="45.28439" lon="4.02742">
        <ele>799</ele>
        <time>2021-04-15T11:45:08Z</time>
      </trkpt>
      <trkpt lat="45.28435" lon="4.02747">
        <ele>799</ele>
        <time>2021-04-15T11:45:09Z</time>
      </trkpt>
      <trkpt lat="45.2843" lon="4.02753">
        <ele>799</ele>
        <time>2021-04-15T11:45:10Z</time>
      </trkpt>
      <trkpt lat="45.28426" lon="4.02758">
        <ele>799</ele>
        <time>2021-04-15T11:45:11Z</time>
      </trkpt>
      <trkpt lat="45.28421" lon="4.02763">
        <ele>800</ele>
        <time>2021-04-15T11:45:12Z</time>
      </trkpt>
      <trkpt lat="45.28417" lon="4.02768">
        <ele>800</ele>
        <time>2021-04-15T11:45:13Z</time>
      </trkpt>
      <trkpt lat="45.28414" lon="4.02774">
        <ele>800</ele>
        <time>2021-04-15T11:45:14Z</time>
      </trkpt>
      <trkpt lat="45.2841" lon="4.02779">
        <ele>800</ele>
        <time>2021-04-15T11:45:15Z</time>
      </trkpt>
      <trkpt lat="45.28401" lon="4.02789">
        <ele>800</ele>
        <time>2021-04-15T11:45:16Z</time>
      </trkpt>
      <trkpt lat="45.28396" lon="4.02795">
        <ele>800</ele>
        <time>2021-04-15T11:45:18Z</time>
      </trkpt>
      <trkpt lat="45.28391" lon="4.028">
        <ele>800</ele>
        <time>2021-04-15T11:45:19Z</time>
      </trkpt>
      <trkpt lat="45.28386" lon="4.02806">
        <ele>800</ele>
        <time>2021-04-15T11:45:20Z</time>
      </trkpt>
      <trkpt lat="45.28381" lon="4.02812">
        <ele>800</ele>
        <time>2021-04-15T11:45:21Z</time>
      </trkpt>
      <trkpt lat="45.28376" lon="4.02817">
        <ele>800</ele>
        <time>2021-04-15T11:45:22Z</time>
      </trkpt>
      <trkpt lat="45.28371" lon="4.02822">
        <ele>800</ele>
        <time>2021-04-15T11:45:23Z</time>
      </trkpt>
      <trkpt lat="45.28365" lon="4.02827">
        <ele>800</ele>
        <time>2021-04-15T11:45:24Z</time>
      </trkpt>
      <trkpt lat="45.2836" lon="4.02832">
        <ele>801</ele>
        <time>2021-04-15T11:45:25Z</time>
      </trkpt>
      <trkpt lat="45.28355" lon="4.02837">
        <ele>801</ele>
        <time>2021-04-15T11:45:26Z</time>
      </trkpt>
      <trkpt lat="45.2835" lon="4.02842">
        <ele>801</ele>
        <time>2021-04-15T11:45:27Z</time>
      </trkpt>
      <trkpt lat="45.28345" lon="4.02847">
        <ele>801</ele>
        <time>2021-04-15T11:45:28Z</time>
      </trkpt>
      <trkpt lat="45.28341" lon="4.02853">
        <ele>801</ele>
        <time>2021-04-15T11:45:29Z</time>
      </trkpt>
      <trkpt lat="45.28336" lon="4.02858">
        <ele>801</ele>
        <time>2021-04-15T11:45:30Z</time>
      </trkpt>
      <trkpt lat="45.28332" lon="4.02863">
        <ele>801</ele>
        <time>2021-04-15T11:45:31Z</time>
      </trkpt>
      <trkpt lat="45.28327" lon="4.02868">
        <ele>801</ele>
        <time>2021-04-15T11:45:32Z</time>
      </trkpt>
      <trkpt lat="45.28322" lon="4.02873">
        <ele>801</ele>
        <time>2021-04-15T11:45:33Z</time>
      </trkpt>
      <trkpt lat="45.28317" lon="4.02878">
        <ele>801</ele>
        <time>2021-04-15T11:45:34Z</time>
      </trkpt>
      <trkpt lat="45.28307" lon="4.02889">
        <ele>800</ele>
        <time>2021-04-15T11:45:35Z</time>
      </trkpt>
      <trkpt lat="45.28303" lon="4.02894">
        <ele>800</ele>
        <time>2021-04-15T11:45:37Z</time>
      </trkpt>
      <trkpt lat="45.28299" lon="4.02899">
        <ele>800</ele>
        <time>2021-04-15T11:45:38Z</time>
      </trkpt>
      <trkpt lat="45.28295" lon="4.02906">
        <ele>800</ele>
        <time>2021-04-15T11:45:39Z</time>
      </trkpt>
      <trkpt lat="45.28293" lon="4.02913">
        <ele>800</ele>
        <time>2021-04-15T11:45:40Z</time>
      </trkpt>
      <trkpt lat="45.28291" lon="4.0292">
        <ele>800</ele>
        <time>2021-04-15T11:45:41Z</time>
      </trkpt>
      <trkpt lat="45.2829" lon="4.02929">
        <ele>799</ele>
        <time>2021-04-15T11:45:42Z</time>
      </trkpt>
      <trkpt lat="45.2829" lon="4.02939">
        <ele>799</ele>
        <time>2021-04-15T11:45:43Z</time>
      </trkpt>
      <trkpt lat="45.2829" lon="4.02949">
        <ele>798</ele>
        <time>2021-04-15T11:45:44Z</time>
      </trkpt>
      <trkpt lat="45.2829" lon="4.02959">
        <ele>798</ele>
        <time>2021-04-15T11:45:45Z</time>
      </trkpt>
      <trkpt lat="45.28289" lon="4.0297">
        <ele>797</ele>
        <time>2021-04-15T11:45:46Z</time>
      </trkpt>
      <trkpt lat="45.28288" lon="4.02981">
        <ele>797</ele>
        <time>2021-04-15T11:45:47Z</time>
      </trkpt>
      <trkpt lat="45.28286" lon="4.02991">
        <ele>796</ele>
        <time>2021-04-15T11:45:48Z</time>
      </trkpt>
      <trkpt lat="45.28285" lon="4.03002">
        <ele>796</ele>
        <time>2021-04-15T11:45:49Z</time>
      </trkpt>
      <trkpt lat="45.28284" lon="4.03013">
        <ele>795</ele>
        <time>2021-04-15T11:45:50Z</time>
      </trkpt>
      <trkpt lat="45.28282" lon="4.03024">
        <ele>795</ele>
        <time>2021-04-15T11:45:51Z</time>
      </trkpt>
      <trkpt lat="45.28279" lon="4.03034">
        <ele>794</ele>
        <time>2021-04-15T11:45:52Z</time>
      </trkpt>
      <trkpt lat="45.28276" lon="4.03045">
        <ele>794</ele>
        <time>2021-04-15T11:45:53Z</time>
      </trkpt>
      <trkpt lat="45.28271" lon="4.03066">
        <ele>794</ele>
        <time>2021-04-15T11:45:54Z</time>
      </trkpt>
      <trkpt lat="45.28269" lon="4.03077">
        <ele>793</ele>
        <time>2021-04-15T11:45:56Z</time>
      </trkpt>
      <trkpt lat="45.28267" lon="4.03087">
        <ele>793</ele>
        <time>2021-04-15T11:45:57Z</time>
      </trkpt>
      <trkpt lat="45.28264" lon="4.03097">
        <ele>793</ele>
        <time>2021-04-15T11:45:58Z</time>
      </trkpt>
      <trkpt lat="45.28262" lon="4.03107">
        <ele>793</ele>
        <time>2021-04-15T11:45:59Z</time>
      </trkpt>
      <trkpt lat="45.28259" lon="4.03116">
        <ele>793</ele>
        <time>2021-04-15T11:46:00Z</time>
      </trkpt>
      <trkpt lat="45.28256" lon="4.03124">
        <ele>793</ele>
        <time>2021-04-15T11:46:01Z</time>
      </trkpt>
      <trkpt lat="45.28253" lon="4.03132">
        <ele>793</ele>
        <time>2021-04-15T11:46:02Z</time>
      </trkpt>
      <trkpt lat="45.2825" lon="4.0314">
        <ele>793</ele>
        <time>2021-04-15T11:46:03Z</time>
      </trkpt>
      <trkpt lat="45.28247" lon="4.03148">
        <ele>793</ele>
        <time>2021-04-15T11:46:04Z</time>
      </trkpt>
      <trkpt lat="45.28243" lon="4.03154">
        <ele>792</ele>
        <time>2021-04-15T11:46:05Z</time>
      </trkpt>
      <trkpt lat="45.2824" lon="4.03161">
        <ele>792</ele>
        <time>2021-04-15T11:46:06Z</time>
      </trkpt>
      <trkpt lat="45.28237" lon="4.03168">
        <ele>792</ele>
        <time>2021-04-15T11:46:07Z</time>
      </trkpt>
      <trkpt lat="45.28234" lon="4.03175">
        <ele>792</ele>
        <time>2021-04-15T11:46:08Z</time>
      </trkpt>
      <trkpt lat="45.28232" lon="4.03183">
        <ele>792</ele>
        <time>2021-04-15T11:46:09Z</time>
      </trkpt>
      <trkpt lat="45.28231" lon="4.03191">
        <ele>791</ele>
        <time>2021-04-15T11:46:10Z</time>
      </trkpt>
      <trkpt lat="45.28231" lon="4.032">
        <ele>791</ele>
        <time>2021-04-15T11:46:11Z</time>
      </trkpt>
      <trkpt lat="45.2823" lon="4.03209">
        <ele>791</ele>
        <time>2021-04-15T11:46:12Z</time>
      </trkpt>
      <trkpt lat="45.28229" lon="4.03225">
        <ele>790</ele>
        <time>2021-04-15T11:46:13Z</time>
      </trkpt>
      <trkpt lat="45.2823" lon="4.03233">
        <ele>789</ele>
        <time>2021-04-15T11:46:15Z</time>
      </trkpt>
      <trkpt lat="45.28231" lon="4.03241">
        <ele>789</ele>
        <time>2021-04-15T11:46:16Z</time>
      </trkpt>
      <trkpt lat="45.2823" lon="4.03248">
        <ele>789</ele>
        <time>2021-04-15T11:46:17Z</time>
      </trkpt>
      <trkpt lat="45.2823" lon="4.03254">
        <ele>788</ele>
        <time>2021-04-15T11:46:18Z</time>
      </trkpt>
      <trkpt lat="45.28229" lon="4.03258">
        <ele>788</ele>
        <time>2021-04-15T11:46:19Z</time>
      </trkpt>
      <trkpt lat="45.28228" lon="4.03262">
        <ele>788</ele>
        <time>2021-04-15T11:46:20Z</time>
      </trkpt>
      <trkpt lat="45.28227" lon="4.03266">
        <ele>788</ele>
        <time>2021-04-15T11:46:21Z</time>
      </trkpt>
      <trkpt lat="45.28227" lon="4.0327">
        <ele>787</ele>
        <time>2021-04-15T11:46:22Z</time>
      </trkpt>
      <trkpt lat="45.28226" lon="4.03273">
        <ele>787</ele>
        <time>2021-04-15T11:46:23Z</time>
      </trkpt>
      <trkpt lat="45.28225" lon="4.03277">
        <ele>787</ele>
        <time>2021-04-15T11:46:24Z</time>
      </trkpt>
      <trkpt lat="45.28225" lon="4.03281">
        <ele>787</ele>
        <time>2021-04-15T11:46:25Z</time>
      </trkpt>
      <trkpt lat="45.28224" lon="4.03285">
        <ele>787</ele>
        <time>2021-04-15T11:46:26Z</time>
      </trkpt>
      <trkpt lat="45.28224" lon="4.03289">
        <ele>787</ele>
        <time>2021-04-15T11:46:27Z</time>
      </trkpt>
      <trkpt lat="45.28223" lon="4.03294">
        <ele>787</ele>
        <time>2021-04-15T11:46:28Z</time>
      </trkpt>
      <trkpt lat="45.28223" lon="4.03299">
        <ele>787</ele>
        <time>2021-04-15T11:46:29Z</time>
      </trkpt>
      <trkpt lat="45.28224" lon="4.03304">
        <ele>787</ele>
        <time>2021-04-15T11:46:30Z</time>
      </trkpt>
      <trkpt lat="45.28226" lon="4.03308">
        <ele>787</ele>
        <time>2021-04-15T11:46:31Z</time>
      </trkpt>
      <trkpt lat="45.28229" lon="4.03317">
        <ele>787</ele>
        <time>2021-04-15T11:46:32Z</time>
      </trkpt>
      <trkpt lat="45.28231" lon="4.03321">
        <ele>787</ele>
        <time>2021-04-15T11:46:34Z</time>
      </trkpt>
      <trkpt lat="45.28233" lon="4.03325">
        <ele>786</ele>
        <time>2021-04-15T11:46:35Z</time>
      </trkpt>
      <trkpt lat="45.28235" lon="4.03329">
        <ele>786</ele>
        <time>2021-04-15T11:46:36Z</time>
      </trkpt>
      <trkpt lat="45.28237" lon="4.03333">
        <ele>786</ele>
        <time>2021-04-15T11:46:37Z</time>
      </trkpt>
      <trkpt lat="45.28239" lon="4.03337">
        <ele>786</ele>
        <time>2021-04-15T11:46:38Z</time>
      </trkpt>
      <trkpt lat="45.28241" lon="4.0334">
        <ele>786</ele>
        <time>2021-04-15T11:46:39Z</time>
      </trkpt>
      <trkpt lat="45.28242" lon="4.03343">
        <ele>786</ele>
        <time>2021-04-15T11:46:40Z</time>
      </trkpt>
      <trkpt lat="45.28242" lon="4.03346">
        <ele>786</ele>
        <time>2021-04-15T11:46:41Z</time>
      </trkpt>
      <trkpt lat="45.28241" lon="4.0335">
        <ele>786</ele>
        <time>2021-04-15T11:46:43Z</time>
      </trkpt>
      <trkpt lat="45.2824" lon="4.03354">
        <ele>785</ele>
        <time>2021-04-15T11:46:45Z</time>
      </trkpt>
      <trkpt lat="45.28238" lon="4.03355">
        <ele>785</ele>
        <time>2021-04-15T11:46:46Z</time>
      </trkpt>
      <trkpt lat="45.28236" lon="4.03356">
        <ele>785</ele>
        <time>2021-04-15T11:46:47Z</time>
      </trkpt>
      <trkpt lat="45.28234" lon="4.03357">
        <ele>785</ele>
        <time>2021-04-15T11:46:48Z</time>
      </trkpt>
      <trkpt lat="45.28232" lon="4.03358">
        <ele>785</ele>
        <time>2021-04-15T11:46:49Z</time>
      </trkpt>
      <trkpt lat="45.2823" lon="4.03359">
        <ele>785</ele>
        <time>2021-04-15T11:46:50Z</time>
      </trkpt>
      <trkpt lat="45.28227" lon="4.0336">
        <ele>785</ele>
        <time>2021-04-15T11:46:51Z</time>
      </trkpt>
      <trkpt lat="45.28224" lon="4.03361">
        <ele>784</ele>
        <time>2021-04-15T11:46:53Z</time>
      </trkpt>
      <trkpt lat="45.28222" lon="4.03361">
        <ele>784</ele>
        <time>2021-04-15T11:46:54Z</time>
      </trkpt>
      <trkpt lat="45.28219" lon="4.03361">
        <ele>784</ele>
        <time>2021-04-15T11:46:55Z</time>
      </trkpt>
      <trkpt lat="45.28216" lon="4.03361">
        <ele>784</ele>
        <time>2021-04-15T11:46:56Z</time>
      </trkpt>
      <trkpt lat="45.28213" lon="4.03361">
        <ele>784</ele>
        <time>2021-04-15T11:46:57Z</time>
      </trkpt>
      <trkpt lat="45.28209" lon="4.03361">
        <ele>784</ele>
        <time>2021-04-15T11:46:58Z</time>
      </trkpt>
      <trkpt lat="45.28205" lon="4.03362">
        <ele>784</ele>
        <time>2021-04-15T11:46:59Z</time>
      </trkpt>
      <trkpt lat="45.28201" lon="4.03362">
        <ele>783</ele>
        <time>2021-04-15T11:47:00Z</time>
      </trkpt>
      <trkpt lat="45.28197" lon="4.03361">
        <ele>783</ele>
        <time>2021-04-15T11:47:01Z</time>
      </trkpt>
      <trkpt lat="45.28193" lon="4.03361">
        <ele>782</ele>
        <time>2021-04-15T11:47:02Z</time>
      </trkpt>
      <trkpt lat="45.28189" lon="4.03361">
        <ele>782</ele>
        <time>2021-04-15T11:47:03Z</time>
      </trkpt>
      <trkpt lat="45.28185" lon="4.0336">
        <ele>782</ele>
        <time>2021-04-15T11:47:04Z</time>
      </trkpt>
      <trkpt lat="45.28181" lon="4.0336">
        <ele>782</ele>
        <time>2021-04-15T11:47:05Z</time>
      </trkpt>
      <trkpt lat="45.28178" lon="4.03359">
        <ele>782</ele>
        <time>2021-04-15T11:47:06Z</time>
      </trkpt>
      <trkpt lat="45.28175" lon="4.03359">
        <ele>782</ele>
        <time>2021-04-15T11:47:07Z</time>
      </trkpt>
      <trkpt lat="45.28171" lon="4.03359">
        <ele>781</ele>
        <time>2021-04-15T11:47:08Z</time>
      </trkpt>
      <trkpt lat="45.28168" lon="4.03359">
        <ele>781</ele>
        <time>2021-04-15T11:47:09Z</time>
      </trkpt>
      <trkpt lat="45.28161" lon="4.03359">
        <ele>781</ele>
        <time>2021-04-15T11:47:10Z</time>
      </trkpt>
      <trkpt lat="45.28157" lon="4.03359">
        <ele>780</ele>
        <time>2021-04-15T11:47:12Z</time>
      </trkpt>
      <trkpt lat="45.28154" lon="4.0336">
        <ele>780</ele>
        <time>2021-04-15T11:47:13Z</time>
      </trkpt>
      <trkpt lat="45.28151" lon="4.0336">
        <ele>780</ele>
        <time>2021-04-15T11:47:14Z</time>
      </trkpt>
      <trkpt lat="45.28149" lon="4.03362">
        <ele>780</ele>
        <time>2021-04-15T11:47:15Z</time>
      </trkpt>
      <trkpt lat="45.28146" lon="4.03364">
        <ele>780</ele>
        <time>2021-04-15T11:47:16Z</time>
      </trkpt>
      <trkpt lat="45.28144" lon="4.03367">
        <ele>780</ele>
        <time>2021-04-15T11:47:17Z</time>
      </trkpt>
      <trkpt lat="45.28142" lon="4.03368">
        <ele>780</ele>
        <time>2021-04-15T11:47:18Z</time>
      </trkpt>
      <trkpt lat="45.28142" lon="4.0337">
        <ele>779</ele>
        <time>2021-04-15T11:47:25Z</time>
      </trkpt>
      <trkpt lat="45.28145" lon="4.03372">
        <ele>779</ele>
        <time>2021-04-15T11:51:36Z</time>
      </trkpt>
      <trkpt lat="45.28145" lon="4.03373">
        <ele>779</ele>
        <time>2021-04-15T11:51:39Z</time>
      </trkpt>
      <trkpt lat="45.28147" lon="4.03392">
        <ele>779</ele>
        <time>2021-04-15T11:51:46Z</time>
      </trkpt>
      <trkpt lat="45.28149" lon="4.03403">
        <ele>778</ele>
        <time>2021-04-15T11:51:47Z</time>
      </trkpt>
      <trkpt lat="45.28149" lon="4.03407">
        <ele>778</ele>
        <time>2021-04-15T11:51:49Z</time>
      </trkpt>
      <trkpt lat="45.28149" lon="4.03408">
        <ele>778</ele>
        <time>2021-04-15T11:51:55Z</time>
      </trkpt>
      <trkpt lat="45.28153" lon="4.03425">
        <ele>778</ele>
        <time>2021-04-15T11:52:08Z</time>
      </trkpt>
      <trkpt lat="45.28154" lon="4.03432">
        <ele>778</ele>
        <time>2021-04-15T11:52:09Z</time>
      </trkpt>
      <trkpt lat="45.28155" lon="4.0344">
        <ele>777</ele>
        <time>2021-04-15T11:52:10Z</time>
      </trkpt>
      <trkpt lat="45.28156" lon="4.0345">
        <ele>777</ele>
        <time>2021-04-15T11:52:11Z</time>
      </trkpt>
      <trkpt lat="45.28159" lon="4.03459">
        <ele>777</ele>
        <time>2021-04-15T11:52:12Z</time>
      </trkpt>
      <trkpt lat="45.28161" lon="4.03469">
        <ele>776</ele>
        <time>2021-04-15T11:52:13Z</time>
      </trkpt>
      <trkpt lat="45.28163" lon="4.0348">
        <ele>775</ele>
        <time>2021-04-15T11:52:14Z</time>
      </trkpt>
      <trkpt lat="45.28166" lon="4.0349">
        <ele>774</ele>
        <time>2021-04-15T11:52:15Z</time>
      </trkpt>
      <trkpt lat="45.28169" lon="4.03501">
        <ele>773</ele>
        <time>2021-04-15T11:52:16Z</time>
      </trkpt>
      <trkpt lat="45.28173" lon="4.03511">
        <ele>771</ele>
        <time>2021-04-15T11:52:17Z</time>
      </trkpt>
      <trkpt lat="45.28178" lon="4.03521">
        <ele>770</ele>
        <time>2021-04-15T11:52:18Z</time>
      </trkpt>
      <trkpt lat="45.28181" lon="4.03532">
        <ele>769</ele>
        <time>2021-04-15T11:52:19Z</time>
      </trkpt>
      <trkpt lat="45.28181" lon="4.03542">
        <ele>768</ele>
        <time>2021-04-15T11:52:20Z</time>
      </trkpt>
      <trkpt lat="45.28179" lon="4.03552">
        <ele>768</ele>
        <time>2021-04-15T11:52:21Z</time>
      </trkpt>
      <trkpt lat="45.28174" lon="4.03561">
        <ele>767</ele>
        <time>2021-04-15T11:52:22Z</time>
      </trkpt>
      <trkpt lat="45.28167" lon="4.0357">
        <ele>765</ele>
        <time>2021-04-15T11:52:23Z</time>
      </trkpt>
      <trkpt lat="45.2816" lon="4.0358">
        <ele>764</ele>
        <time>2021-04-15T11:52:24Z</time>
      </trkpt>
      <trkpt lat="45.28152" lon="4.03588">
        <ele>763</ele>
        <time>2021-04-15T11:52:25Z</time>
      </trkpt>
      <trkpt lat="45.28144" lon="4.03597">
        <ele>762</ele>
        <time>2021-04-15T11:52:26Z</time>
      </trkpt>
      <trkpt lat="45.28135" lon="4.03604">
        <ele>760</ele>
        <time>2021-04-15T11:52:27Z</time>
      </trkpt>
      <trkpt lat="45.28119" lon="4.03622">
        <ele>759</ele>
        <time>2021-04-15T11:52:28Z</time>
      </trkpt>
      <trkpt lat="45.28113" lon="4.03632">
        <ele>756</ele>
        <time>2021-04-15T11:52:30Z</time>
      </trkpt>
      <trkpt lat="45.2811" lon="4.03644">
        <ele>755</ele>
        <time>2021-04-15T11:52:31Z</time>
      </trkpt>
      <trkpt lat="45.2811" lon="4.03656">
        <ele>755</ele>
        <time>2021-04-15T11:52:32Z</time>
      </trkpt>
      <trkpt lat="45.28112" lon="4.03668">
        <ele>754</ele>
        <time>2021-04-15T11:52:33Z</time>
      </trkpt>
      <trkpt lat="45.28115" lon="4.03679">
        <ele>754</ele>
        <time>2021-04-15T11:52:34Z</time>
      </trkpt>
      <trkpt lat="45.28118" lon="4.03688">
        <ele>754</ele>
        <time>2021-04-15T11:52:35Z</time>
      </trkpt>
      <trkpt lat="45.28122" lon="4.03697">
        <ele>754</ele>
        <time>2021-04-15T11:52:36Z</time>
      </trkpt>
      <trkpt lat="45.28125" lon="4.03706">
        <ele>753</ele>
        <time>2021-04-15T11:52:37Z</time>
      </trkpt>
      <trkpt lat="45.28129" lon="4.03714">
        <ele>753</ele>
        <time>2021-04-15T11:52:38Z</time>
      </trkpt>
      <trkpt lat="45.28132" lon="4.03722">
        <ele>753</ele>
        <time>2021-04-15T11:52:39Z</time>
      </trkpt>
      <trkpt lat="45.28134" lon="4.0373">
        <ele>752</ele>
        <time>2021-04-15T11:52:40Z</time>
      </trkpt>
      <trkpt lat="45.28138" lon="4.0374">
        <ele>752</ele>
        <time>2021-04-15T11:52:41Z</time>
      </trkpt>
      <trkpt lat="45.2814" lon="4.03749">
        <ele>751</ele>
        <time>2021-04-15T11:52:42Z</time>
      </trkpt>
      <trkpt lat="45.28142" lon="4.03759">
        <ele>751</ele>
        <time>2021-04-15T11:52:43Z</time>
      </trkpt>
      <trkpt lat="45.28144" lon="4.03769">
        <ele>749</ele>
        <time>2021-04-15T11:52:44Z</time>
      </trkpt>
      <trkpt lat="45.28145" lon="4.03778">
        <ele>749</ele>
        <time>2021-04-15T11:52:45Z</time>
      </trkpt>
      <trkpt lat="45.28145" lon="4.03787">
        <ele>748</ele>
        <time>2021-04-15T11:52:46Z</time>
      </trkpt>
      <trkpt lat="45.28143" lon="4.03807">
        <ele>747</ele>
        <time>2021-04-15T11:52:47Z</time>
      </trkpt>
      <trkpt lat="45.28141" lon="4.03818">
        <ele>746</ele>
        <time>2021-04-15T11:52:49Z</time>
      </trkpt>
      <trkpt lat="45.28139" lon="4.03829">
        <ele>745</ele>
        <time>2021-04-15T11:52:50Z</time>
      </trkpt>
      <trkpt lat="45.28135" lon="4.03839">
        <ele>744</ele>
        <time>2021-04-15T11:52:51Z</time>
      </trkpt>
      <trkpt lat="45.2813" lon="4.03849">
        <ele>743</ele>
        <time>2021-04-15T11:52:52Z</time>
      </trkpt>
      <trkpt lat="45.28126" lon="4.03859">
        <ele>742</ele>
        <time>2021-04-15T11:52:53Z</time>
      </trkpt>
      <trkpt lat="45.28121" lon="4.0387">
        <ele>742</ele>
        <time>2021-04-15T11:52:54Z</time>
      </trkpt>
      <trkpt lat="45.28115" lon="4.03881">
        <ele>741</ele>
        <time>2021-04-15T11:52:55Z</time>
      </trkpt>
      <trkpt lat="45.28109" lon="4.03892">
        <ele>741</ele>
        <time>2021-04-15T11:52:56Z</time>
      </trkpt>
      <trkpt lat="45.28104" lon="4.03903">
        <ele>741</ele>
        <time>2021-04-15T11:52:57Z</time>
      </trkpt>
      <trkpt lat="45.281" lon="4.03916">
        <ele>740</ele>
        <time>2021-04-15T11:52:58Z</time>
      </trkpt>
      <trkpt lat="45.281" lon="4.03929">
        <ele>740</ele>
        <time>2021-04-15T11:52:59Z</time>
      </trkpt>
      <trkpt lat="45.28101" lon="4.03941">
        <ele>739</ele>
        <time>2021-04-15T11:53:00Z</time>
      </trkpt>
      <trkpt lat="45.28103" lon="4.03953">
        <ele>739</ele>
        <time>2021-04-15T11:53:01Z</time>
      </trkpt>
      <trkpt lat="45.28103" lon="4.03979">
        <ele>738</ele>
        <time>2021-04-15T11:53:03Z</time>
      </trkpt>
      <trkpt lat="45.28102" lon="4.03991">
        <ele>738</ele>
        <time>2021-04-15T11:53:04Z</time>
      </trkpt>
      <trkpt lat="45.28106" lon="4.04013">
        <ele>737</ele>
        <time>2021-04-15T11:53:06Z</time>
      </trkpt>
      <trkpt lat="45.28117" lon="4.04028">
        <ele>737</ele>
        <time>2021-04-15T11:53:08Z</time>
      </trkpt>
      <trkpt lat="45.2813" lon="4.0404">
        <ele>737</ele>
        <time>2021-04-15T11:53:10Z</time>
      </trkpt>
      <trkpt lat="45.28143" lon="4.0405">
        <ele>736</ele>
        <time>2021-04-15T11:53:12Z</time>
      </trkpt>
      <trkpt lat="45.28152" lon="4.04064">
        <ele>736</ele>
        <time>2021-04-15T11:53:14Z</time>
      </trkpt>
      <trkpt lat="45.2816" lon="4.04078">
        <ele>734</ele>
        <time>2021-04-15T11:53:16Z</time>
      </trkpt>
      <trkpt lat="45.28163" lon="4.04094">
        <ele>733</ele>
        <time>2021-04-15T11:53:18Z</time>
      </trkpt>
      <trkpt lat="45.28164" lon="4.04102">
        <ele>732</ele>
        <time>2021-04-15T11:53:19Z</time>
      </trkpt>
      <trkpt lat="45.28164" lon="4.04111">
        <ele>731</ele>
        <time>2021-04-15T11:53:20Z</time>
      </trkpt>
      <trkpt lat="45.28165" lon="4.04119">
        <ele>731</ele>
        <time>2021-04-15T11:53:21Z</time>
      </trkpt>
      <trkpt lat="45.28164" lon="4.04127">
        <ele>731</ele>
        <time>2021-04-15T11:53:22Z</time>
      </trkpt>
      <trkpt lat="45.28161" lon="4.04136">
        <ele>730</ele>
        <time>2021-04-15T11:53:23Z</time>
      </trkpt>
      <trkpt lat="45.28157" lon="4.04144">
        <ele>730</ele>
        <time>2021-04-15T11:53:24Z</time>
      </trkpt>
      <trkpt lat="45.28149" lon="4.04159">
        <ele>730</ele>
        <time>2021-04-15T11:53:25Z</time>
      </trkpt>
      <trkpt lat="45.28142" lon="4.04168">
        <ele>729</ele>
        <time>2021-04-15T11:53:27Z</time>
      </trkpt>
      <trkpt lat="45.28136" lon="4.04177">
        <ele>728</ele>
        <time>2021-04-15T11:53:28Z</time>
      </trkpt>
      <trkpt lat="45.28132" lon="4.04183">
        <ele>728</ele>
        <time>2021-04-15T11:53:29Z</time>
      </trkpt>
      <trkpt lat="45.28128" lon="4.04189">
        <ele>728</ele>
        <time>2021-04-15T11:53:30Z</time>
      </trkpt>
      <trkpt lat="45.28124" lon="4.04201">
        <ele>728</ele>
        <time>2021-04-15T11:53:32Z</time>
      </trkpt>
      <trkpt lat="45.28129" lon="4.04217">
        <ele>728</ele>
        <time>2021-04-15T11:53:35Z</time>
      </trkpt>
      <trkpt lat="45.28135" lon="4.04227">
        <ele>728</ele>
        <time>2021-04-15T11:53:37Z</time>
      </trkpt>
      <trkpt lat="45.28138" lon="4.0423">
        <ele>727</ele>
        <time>2021-04-15T11:53:38Z</time>
      </trkpt>
      <trkpt lat="45.2814" lon="4.04235">
        <ele>727</ele>
        <time>2021-04-15T11:53:39Z</time>
      </trkpt>
      <trkpt lat="45.28143" lon="4.04239">
        <ele>728</ele>
        <time>2021-04-15T11:53:40Z</time>
      </trkpt>
      <trkpt lat="45.28146" lon="4.04244">
        <ele>727</ele>
        <time>2021-04-15T11:53:41Z</time>
      </trkpt>
      <trkpt lat="45.2815" lon="4.04248">
        <ele>727</ele>
        <time>2021-04-15T11:53:42Z</time>
      </trkpt>
      <trkpt lat="45.28153" lon="4.04253">
        <ele>728</ele>
        <time>2021-04-15T11:53:43Z</time>
      </trkpt>
      <trkpt lat="45.28162" lon="4.04262">
        <ele>728</ele>
        <time>2021-04-15T11:53:44Z</time>
      </trkpt>
      <trkpt lat="45.28168" lon="4.04274">
        <ele>727</ele>
        <time>2021-04-15T11:53:47Z</time>
      </trkpt>
      <trkpt lat="45.28172" lon="4.04289">
        <ele>727</ele>
        <time>2021-04-15T11:53:49Z</time>
      </trkpt>
      <trkpt lat="45.28174" lon="4.04306">
        <ele>727</ele>
        <time>2021-04-15T11:53:51Z</time>
      </trkpt>
      <trkpt lat="45.28175" lon="4.04323">
        <ele>726</ele>
        <time>2021-04-15T11:53:53Z</time>
      </trkpt>
      <trkpt lat="45.28172" lon="4.04339">
        <ele>725</ele>
        <time>2021-04-15T11:53:55Z</time>
      </trkpt>
      <trkpt lat="45.28165" lon="4.04356">
        <ele>724</ele>
        <time>2021-04-15T11:53:57Z</time>
      </trkpt>
      <trkpt lat="45.28155" lon="4.04369">
        <ele>724</ele>
        <time>2021-04-15T11:53:59Z</time>
      </trkpt>
      <trkpt lat="45.2815" lon="4.04373">
        <ele>724</ele>
        <time>2021-04-15T11:54:00Z</time>
      </trkpt>
      <trkpt lat="45.28138" lon="4.0438">
        <ele>724</ele>
        <time>2021-04-15T11:54:01Z</time>
      </trkpt>
      <trkpt lat="45.28124" lon="4.04388">
        <ele>724</ele>
        <time>2021-04-15T11:54:04Z</time>
      </trkpt>
      <trkpt lat="45.28115" lon="4.04398">
        <ele>724</ele>
        <time>2021-04-15T11:54:06Z</time>
      </trkpt>
      <trkpt lat="45.28108" lon="4.0441">
        <ele>724</ele>
        <time>2021-04-15T11:54:08Z</time>
      </trkpt>
      <trkpt lat="45.28103" lon="4.04425">
        <ele>724</ele>
        <time>2021-04-15T11:54:10Z</time>
      </trkpt>
      <trkpt lat="45.28101" lon="4.04441">
        <ele>724</ele>
        <time>2021-04-15T11:54:12Z</time>
      </trkpt>
      <trkpt lat="45.281" lon="4.04455">
        <ele>724</ele>
        <time>2021-04-15T11:54:14Z</time>
      </trkpt>
      <trkpt lat="45.28097" lon="4.04469">
        <ele>723</ele>
        <time>2021-04-15T11:54:16Z</time>
      </trkpt>
      <trkpt lat="45.28092" lon="4.04485">
        <ele>723</ele>
        <time>2021-04-15T11:54:18Z</time>
      </trkpt>
      <trkpt lat="45.28088" lon="4.04499">
        <ele>722</ele>
        <time>2021-04-15T11:54:20Z</time>
      </trkpt>
      <trkpt lat="45.28085" lon="4.04505">
        <ele>722</ele>
        <time>2021-04-15T11:54:21Z</time>
      </trkpt>
      <trkpt lat="45.28078" lon="4.04517">
        <ele>721</ele>
        <time>2021-04-15T11:54:22Z</time>
      </trkpt>
      <trkpt lat="45.2807" lon="4.04527">
        <ele>720</ele>
        <time>2021-04-15T11:54:25Z</time>
      </trkpt>
      <trkpt lat="45.28065" lon="4.04531">
        <ele>720</ele>
        <time>2021-04-15T11:54:26Z</time>
      </trkpt>
      <trkpt lat="45.28059" lon="4.04536">
        <ele>720</ele>
        <time>2021-04-15T11:54:27Z</time>
      </trkpt>
      <trkpt lat="45.28054" lon="4.0454">
        <ele>719</ele>
        <time>2021-04-15T11:54:28Z</time>
      </trkpt>
      <trkpt lat="45.28048" lon="4.04544">
        <ele>719</ele>
        <time>2021-04-15T11:54:29Z</time>
      </trkpt>
      <trkpt lat="45.28042" lon="4.04547">
        <ele>719</ele>
        <time>2021-04-15T11:54:30Z</time>
      </trkpt>
      <trkpt lat="45.28036" lon="4.04549">
        <ele>718</ele>
        <time>2021-04-15T11:54:31Z</time>
      </trkpt>
      <trkpt lat="45.28031" lon="4.04549">
        <ele>718</ele>
        <time>2021-04-15T11:54:32Z</time>
      </trkpt>
      <trkpt lat="45.28026" lon="4.04548">
        <ele>718</ele>
        <time>2021-04-15T11:54:33Z</time>
      </trkpt>
      <trkpt lat="45.2802" lon="4.04545">
        <ele>718</ele>
        <time>2021-04-15T11:54:34Z</time>
      </trkpt>
      <trkpt lat="45.28014" lon="4.04542">
        <ele>718</ele>
        <time>2021-04-15T11:54:35Z</time>
      </trkpt>
      <trkpt lat="45.28008" lon="4.04539">
        <ele>718</ele>
        <time>2021-04-15T11:54:36Z</time>
      </trkpt>
      <trkpt lat="45.28002" lon="4.04537">
        <ele>718</ele>
        <time>2021-04-15T11:54:37Z</time>
      </trkpt>
      <trkpt lat="45.27996" lon="4.04536">
        <ele>718</ele>
        <time>2021-04-15T11:54:38Z</time>
      </trkpt>
      <trkpt lat="45.27985" lon="4.04538">
        <ele>717</ele>
        <time>2021-04-15T11:54:40Z</time>
      </trkpt>
      <trkpt lat="45.27979" lon="4.04548">
        <ele>717</ele>
        <time>2021-04-15T11:54:41Z</time>
      </trkpt>
      <trkpt lat="45.27976" lon="4.04561">
        <ele>717</ele>
        <time>2021-04-15T11:54:44Z</time>
      </trkpt>
      <trkpt lat="45.27974" lon="4.04579">
        <ele>716</ele>
        <time>2021-04-15T11:54:47Z</time>
      </trkpt>
      <trkpt lat="45.27966" lon="4.04597">
        <ele>716</ele>
        <time>2021-04-15T11:54:49Z</time>
      </trkpt>
      <trkpt lat="45.27961" lon="4.04611">
        <ele>715</ele>
        <time>2021-04-15T11:54:51Z</time>
      </trkpt>
      <trkpt lat="45.27958" lon="4.04624">
        <ele>715</ele>
        <time>2021-04-15T11:54:53Z</time>
      </trkpt>
      <trkpt lat="45.27956" lon="4.04639">
        <ele>716</ele>
        <time>2021-04-15T11:54:56Z</time>
      </trkpt>
      <trkpt lat="45.27957" lon="4.04654">
        <ele>716</ele>
        <time>2021-04-15T11:54:59Z</time>
      </trkpt>
      <trkpt lat="45.27966" lon="4.04662">
        <ele>715</ele>
        <time>2021-04-15T11:55:02Z</time>
      </trkpt>
      <trkpt lat="45.27969" lon="4.04666">
        <ele>715</ele>
        <time>2021-04-15T11:55:03Z</time>
      </trkpt>
      <trkpt lat="45.27973" lon="4.04669">
        <ele>715</ele>
        <time>2021-04-15T11:55:04Z</time>
      </trkpt>
      <trkpt lat="45.27978" lon="4.04673">
        <ele>715</ele>
        <time>2021-04-15T11:55:05Z</time>
      </trkpt>
      <trkpt lat="45.27982" lon="4.04677">
        <ele>715</ele>
        <time>2021-04-15T11:55:06Z</time>
      </trkpt>
      <trkpt lat="45.27986" lon="4.04681">
        <ele>715</ele>
        <time>2021-04-15T11:55:07Z</time>
      </trkpt>
      <trkpt lat="45.27989" lon="4.04685">
        <ele>715</ele>
        <time>2021-04-15T11:55:08Z</time>
      </trkpt>
      <trkpt lat="45.27993" lon="4.04688">
        <ele>715</ele>
        <time>2021-04-15T11:55:09Z</time>
      </trkpt>
      <trkpt lat="45.27997" lon="4.04692">
        <ele>716</ele>
        <time>2021-04-15T11:55:10Z</time>
      </trkpt>
      <trkpt lat="45.28001" lon="4.04696">
        <ele>716</ele>
        <time>2021-04-15T11:55:11Z</time>
      </trkpt>
      <trkpt lat="45.28006" lon="4.047">
        <ele>716</ele>
        <time>2021-04-15T11:55:12Z</time>
      </trkpt>
      <trkpt lat="45.2801" lon="4.04704">
        <ele>716</ele>
        <time>2021-04-15T11:55:13Z</time>
      </trkpt>
      <trkpt lat="45.28014" lon="4.04708">
        <ele>716</ele>
        <time>2021-04-15T11:55:14Z</time>
      </trkpt>
      <trkpt lat="45.28018" lon="4.04712">
        <ele>716</ele>
        <time>2021-04-15T11:55:15Z</time>
      </trkpt>
      <trkpt lat="45.28022" lon="4.04715">
        <ele>716</ele>
        <time>2021-04-15T11:55:16Z</time>
      </trkpt>
      <trkpt lat="45.28026" lon="4.04718">
        <ele>717</ele>
        <time>2021-04-15T11:55:17Z</time>
      </trkpt>
      <trkpt lat="45.2803" lon="4.04721">
        <ele>717</ele>
        <time>2021-04-15T11:55:18Z</time>
      </trkpt>
      <trkpt lat="45.28035" lon="4.04724">
        <ele>717</ele>
        <time>2021-04-15T11:55:19Z</time>
      </trkpt>
      <trkpt lat="45.28039" lon="4.04727">
        <ele>717</ele>
        <time>2021-04-15T11:55:20Z</time>
      </trkpt>
      <trkpt lat="45.28044" lon="4.0473">
        <ele>717</ele>
        <time>2021-04-15T11:55:21Z</time>
      </trkpt>
      <trkpt lat="45.28048" lon="4.04731">
        <ele>718</ele>
        <time>2021-04-15T11:55:22Z</time>
      </trkpt>
      <trkpt lat="45.28053" lon="4.04734">
        <ele>718</ele>
        <time>2021-04-15T11:55:23Z</time>
      </trkpt>
      <trkpt lat="45.28057" lon="4.04737">
        <ele>717</ele>
        <time>2021-04-15T11:55:24Z</time>
      </trkpt>
      <trkpt lat="45.28062" lon="4.0474">
        <ele>717</ele>
        <time>2021-04-15T11:55:25Z</time>
      </trkpt>
      <trkpt lat="45.28071" lon="4.04746">
        <ele>717</ele>
        <time>2021-04-15T11:55:27Z</time>
      </trkpt>
      <trkpt lat="45.2808" lon="4.04752">
        <ele>717</ele>
        <time>2021-04-15T11:55:29Z</time>
      </trkpt>
      <trkpt lat="45.28085" lon="4.04754">
        <ele>717</ele>
        <time>2021-04-15T11:55:30Z</time>
      </trkpt>
      <trkpt lat="45.28093" lon="4.0476">
        <ele>717</ele>
        <time>2021-04-15T11:55:32Z</time>
      </trkpt>
      <trkpt lat="45.28102" lon="4.04766">
        <ele>717</ele>
        <time>2021-04-15T11:55:34Z</time>
      </trkpt>
      <trkpt lat="45.28106" lon="4.04768">
        <ele>717</ele>
        <time>2021-04-15T11:55:35Z</time>
      </trkpt>
      <trkpt lat="45.2811" lon="4.04771">
        <ele>717</ele>
        <time>2021-04-15T11:55:36Z</time>
      </trkpt>
      <trkpt lat="45.28114" lon="4.04773">
        <ele>717</ele>
        <time>2021-04-15T11:55:37Z</time>
      </trkpt>
      <trkpt lat="45.28122" lon="4.04776">
        <ele>717</ele>
        <time>2021-04-15T11:55:38Z</time>
      </trkpt>
      <trkpt lat="45.28132" lon="4.04779">
        <ele>717</ele>
        <time>2021-04-15T11:55:41Z</time>
      </trkpt>
      <trkpt lat="45.28142" lon="4.04784">
        <ele>718</ele>
        <time>2021-04-15T11:55:43Z</time>
      </trkpt>
      <trkpt lat="45.28153" lon="4.04792">
        <ele>718</ele>
        <time>2021-04-15T11:55:45Z</time>
      </trkpt>
      <trkpt lat="45.28164" lon="4.04805">
        <ele>717</ele>
        <time>2021-04-15T11:55:47Z</time>
      </trkpt>
      <trkpt lat="45.28169" lon="4.04811">
        <ele>717</ele>
        <time>2021-04-15T11:55:48Z</time>
      </trkpt>
      <trkpt lat="45.28173" lon="4.04817">
        <ele>716</ele>
        <time>2021-04-15T11:55:49Z</time>
      </trkpt>
      <trkpt lat="45.28177" lon="4.04823">
        <ele>716</ele>
        <time>2021-04-15T11:55:50Z</time>
      </trkpt>
      <trkpt lat="45.2818" lon="4.04828">
        <ele>716</ele>
        <time>2021-04-15T11:55:51Z</time>
      </trkpt>
      <trkpt lat="45.28184" lon="4.04834">
        <ele>716</ele>
        <time>2021-04-15T11:55:52Z</time>
      </trkpt>
      <trkpt lat="45.28187" lon="4.04841">
        <ele>716</ele>
        <time>2021-04-15T11:55:53Z</time>
      </trkpt>
      <trkpt lat="45.28189" lon="4.04847">
        <ele>716</ele>
        <time>2021-04-15T11:55:54Z</time>
      </trkpt>
      <trkpt lat="45.28193" lon="4.04854">
        <ele>715</ele>
        <time>2021-04-15T11:55:55Z</time>
      </trkpt>
      <trkpt lat="45.28197" lon="4.04861">
        <ele>715</ele>
        <time>2021-04-15T11:55:56Z</time>
      </trkpt>
      <trkpt lat="45.28206" lon="4.04874">
        <ele>714</ele>
        <time>2021-04-15T11:55:57Z</time>
      </trkpt>
      <trkpt lat="45.2821" lon="4.04881">
        <ele>713</ele>
        <time>2021-04-15T11:55:59Z</time>
      </trkpt>
      <trkpt lat="45.28214" lon="4.04889">
        <ele>713</ele>
        <time>2021-04-15T11:56:00Z</time>
      </trkpt>
      <trkpt lat="45.28218" lon="4.04896">
        <ele>713</ele>
        <time>2021-04-15T11:56:01Z</time>
      </trkpt>
      <trkpt lat="45.28221" lon="4.04904">
        <ele>712</ele>
        <time>2021-04-15T11:56:02Z</time>
      </trkpt>
      <trkpt lat="45.28223" lon="4.04911">
        <ele>712</ele>
        <time>2021-04-15T11:56:03Z</time>
      </trkpt>
      <trkpt lat="45.28224" lon="4.0492">
        <ele>711</ele>
        <time>2021-04-15T11:56:04Z</time>
      </trkpt>
      <trkpt lat="45.28225" lon="4.04928">
        <ele>711</ele>
        <time>2021-04-15T11:56:05Z</time>
      </trkpt>
      <trkpt lat="45.28225" lon="4.04934">
        <ele>711</ele>
        <time>2021-04-15T11:56:06Z</time>
      </trkpt>
      <trkpt lat="45.28225" lon="4.04939">
        <ele>711</ele>
        <time>2021-04-15T11:56:07Z</time>
      </trkpt>
      <trkpt lat="45.28224" lon="4.04945">
        <ele>710</ele>
        <time>2021-04-15T11:56:08Z</time>
      </trkpt>
      <trkpt lat="45.28222" lon="4.04952">
        <ele>710</ele>
        <time>2021-04-15T11:56:09Z</time>
      </trkpt>
      <trkpt lat="45.28219" lon="4.04959">
        <ele>710</ele>
        <time>2021-04-15T11:56:10Z</time>
      </trkpt>
      <trkpt lat="45.28216" lon="4.04966">
        <ele>709</ele>
        <time>2021-04-15T11:56:11Z</time>
      </trkpt>
      <trkpt lat="45.28212" lon="4.04973">
        <ele>709</ele>
        <time>2021-04-15T11:56:12Z</time>
      </trkpt>
      <trkpt lat="45.28209" lon="4.04978">
        <ele>709</ele>
        <time>2021-04-15T11:56:13Z</time>
      </trkpt>
      <trkpt lat="45.28205" lon="4.04984">
        <ele>708</ele>
        <time>2021-04-15T11:56:14Z</time>
      </trkpt>
      <trkpt lat="45.28193" lon="4.04995">
        <ele>708</ele>
        <time>2021-04-15T11:56:15Z</time>
      </trkpt>
      <trkpt lat="45.28187" lon="4.05">
        <ele>708</ele>
        <time>2021-04-15T11:56:16Z</time>
      </trkpt>
      <trkpt lat="45.2818" lon="4.05006">
        <ele>707</ele>
        <time>2021-04-15T11:56:18Z</time>
      </trkpt>
      <trkpt lat="45.28176" lon="4.05012">
        <ele>707</ele>
        <time>2021-04-15T11:56:19Z</time>
      </trkpt>
      <trkpt lat="45.28172" lon="4.0502">
        <ele>706</ele>
        <time>2021-04-15T11:56:20Z</time>
      </trkpt>
      <trkpt lat="45.28169" lon="4.05028">
        <ele>706</ele>
        <time>2021-04-15T11:56:21Z</time>
      </trkpt>
      <trkpt lat="45.28169" lon="4.05047">
        <ele>706</ele>
        <time>2021-04-15T11:56:23Z</time>
      </trkpt>
      <trkpt lat="45.2817" lon="4.05066">
        <ele>705</ele>
        <time>2021-04-15T11:56:25Z</time>
      </trkpt>
      <trkpt lat="45.28173" lon="4.05081">
        <ele>705</ele>
        <time>2021-04-15T11:56:27Z</time>
      </trkpt>
      <trkpt lat="45.28177" lon="4.05098">
        <ele>704</ele>
        <time>2021-04-15T11:56:29Z</time>
      </trkpt>
      <trkpt lat="45.28178" lon="4.05115">
        <ele>704</ele>
        <time>2021-04-15T11:56:31Z</time>
      </trkpt>
      <trkpt lat="45.28176" lon="4.0513">
        <ele>703</ele>
        <time>2021-04-15T11:56:33Z</time>
      </trkpt>
      <trkpt lat="45.28171" lon="4.05144">
        <ele>702</ele>
        <time>2021-04-15T11:56:35Z</time>
      </trkpt>
      <trkpt lat="45.28164" lon="4.05159">
        <ele>702</ele>
        <time>2021-04-15T11:56:37Z</time>
      </trkpt>
      <trkpt lat="45.28162" lon="4.05176">
        <ele>701</ele>
        <time>2021-04-15T11:56:39Z</time>
      </trkpt>
      <trkpt lat="45.28159" lon="4.05198">
        <ele>699</ele>
        <time>2021-04-15T11:56:41Z</time>
      </trkpt>
      <trkpt lat="45.28159" lon="4.05215">
        <ele>699</ele>
        <time>2021-04-15T11:56:43Z</time>
      </trkpt>
      <trkpt lat="45.28168" lon="4.05225">
        <ele>698</ele>
        <time>2021-04-15T11:56:47Z</time>
      </trkpt>
      <trkpt lat="45.28178" lon="4.05227">
        <ele>698</ele>
        <time>2021-04-15T11:56:50Z</time>
      </trkpt>
      <trkpt lat="45.28191" lon="4.05234">
        <ele>698</ele>
        <time>2021-04-15T11:56:53Z</time>
      </trkpt>
      <trkpt lat="45.28199" lon="4.05239">
        <ele>697</ele>
        <time>2021-04-15T11:56:55Z</time>
      </trkpt>
      <trkpt lat="45.28208" lon="4.05247">
        <ele>697</ele>
        <time>2021-04-15T11:56:57Z</time>
      </trkpt>
      <trkpt lat="45.28218" lon="4.05257">
        <ele>697</ele>
        <time>2021-04-15T11:56:59Z</time>
      </trkpt>
      <trkpt lat="45.28225" lon="4.05267">
        <ele>696</ele>
        <time>2021-04-15T11:57:01Z</time>
      </trkpt>
      <trkpt lat="45.2823" lon="4.05281">
        <ele>695</ele>
        <time>2021-04-15T11:57:03Z</time>
      </trkpt>
      <trkpt lat="45.28233" lon="4.05296">
        <ele>693</ele>
        <time>2021-04-15T11:57:05Z</time>
      </trkpt>
      <trkpt lat="45.28232" lon="4.05307">
        <ele>693</ele>
        <time>2021-04-15T11:57:06Z</time>
      </trkpt>
      <trkpt lat="45.28232" lon="4.05317">
        <ele>691</ele>
        <time>2021-04-15T11:57:07Z</time>
      </trkpt>
      <trkpt lat="45.28232" lon="4.05327">
        <ele>690</ele>
        <time>2021-04-15T11:57:08Z</time>
      </trkpt>
      <trkpt lat="45.28232" lon="4.05347">
        <ele>690</ele>
        <time>2021-04-15T11:57:10Z</time>
      </trkpt>
      <trkpt lat="45.28233" lon="4.0537">
        <ele>689</ele>
        <time>2021-04-15T11:57:12Z</time>
      </trkpt>
      <trkpt lat="45.28235" lon="4.05391">
        <ele>688</ele>
        <time>2021-04-15T11:57:14Z</time>
      </trkpt>
      <trkpt lat="45.28234" lon="4.05404">
        <ele>687</ele>
        <time>2021-04-15T11:57:15Z</time>
      </trkpt>
      <trkpt lat="45.28235" lon="4.05429">
        <ele>686</ele>
        <time>2021-04-15T11:57:17Z</time>
      </trkpt>
      <trkpt lat="45.28235" lon="4.05455">
        <ele>685</ele>
        <time>2021-04-15T11:57:19Z</time>
      </trkpt>
      <trkpt lat="45.28235" lon="4.05469">
        <ele>684</ele>
        <time>2021-04-15T11:57:20Z</time>
      </trkpt>
      <trkpt lat="45.28236" lon="4.05494">
        <ele>682</ele>
        <time>2021-04-15T11:57:22Z</time>
      </trkpt>
      <trkpt lat="45.28236" lon="4.05519">
        <ele>681</ele>
        <time>2021-04-15T11:57:24Z</time>
      </trkpt>
      <trkpt lat="45.28238" lon="4.0554">
        <ele>679</ele>
        <time>2021-04-15T11:57:26Z</time>
      </trkpt>
      <trkpt lat="45.28239" lon="4.05557">
        <ele>676</ele>
        <time>2021-04-15T11:57:28Z</time>
      </trkpt>
      <trkpt lat="45.28233" lon="4.05571">
        <ele>674</ele>
        <time>2021-04-15T11:57:31Z</time>
      </trkpt>
      <trkpt lat="45.28224" lon="4.05578">
        <ele>673</ele>
        <time>2021-04-15T11:57:32Z</time>
      </trkpt>
      <trkpt lat="45.28215" lon="4.05592">
        <ele>671</ele>
        <time>2021-04-15T11:57:36Z</time>
      </trkpt>
      <trkpt lat="45.28221" lon="4.0561">
        <ele>670</ele>
        <time>2021-04-15T11:57:39Z</time>
      </trkpt>
      <trkpt lat="45.28232" lon="4.05625">
        <ele>670</ele>
        <time>2021-04-15T11:57:41Z</time>
      </trkpt>
      <trkpt lat="45.28241" lon="4.05638">
        <ele>669</ele>
        <time>2021-04-15T11:57:43Z</time>
      </trkpt>
      <trkpt lat="45.28248" lon="4.05654">
        <ele>668</ele>
        <time>2021-04-15T11:57:45Z</time>
      </trkpt>
      <trkpt lat="45.28246" lon="4.05671">
        <ele>667</ele>
        <time>2021-04-15T11:57:47Z</time>
      </trkpt>
      <trkpt lat="45.28244" lon="4.05687">
        <ele>667</ele>
        <time>2021-04-15T11:57:49Z</time>
      </trkpt>
      <trkpt lat="45.28242" lon="4.05703">
        <ele>666</ele>
        <time>2021-04-15T11:57:51Z</time>
      </trkpt>
      <trkpt lat="45.28248" lon="4.05715">
        <ele>665</ele>
        <time>2021-04-15T11:57:53Z</time>
      </trkpt>
      <trkpt lat="45.28262" lon="4.05716">
        <ele>665</ele>
        <time>2021-04-15T11:57:56Z</time>
      </trkpt>
      <trkpt lat="45.28273" lon="4.05712">
        <ele>664</ele>
        <time>2021-04-15T11:57:58Z</time>
      </trkpt>
      <trkpt lat="45.28283" lon="4.05708">
        <ele>664</ele>
        <time>2021-04-15T11:57:59Z</time>
      </trkpt>
      <trkpt lat="45.28293" lon="4.05702">
        <ele>663</ele>
        <time>2021-04-15T11:58:02Z</time>
      </trkpt>
      <trkpt lat="45.28306" lon="4.05699">
        <ele>662</ele>
        <time>2021-04-15T11:58:04Z</time>
      </trkpt>
      <trkpt lat="45.28323" lon="4.05694">
        <ele>660</ele>
        <time>2021-04-15T11:58:06Z</time>
      </trkpt>
      <trkpt lat="45.2834" lon="4.05691">
        <ele>658</ele>
        <time>2021-04-15T11:58:08Z</time>
      </trkpt>
      <trkpt lat="45.28353" lon="4.05685">
        <ele>657</ele>
        <time>2021-04-15T11:58:10Z</time>
      </trkpt>
      <trkpt lat="45.28364" lon="4.05682">
        <ele>655</ele>
        <time>2021-04-15T11:58:12Z</time>
      </trkpt>
      <trkpt lat="45.28374" lon="4.05681">
        <ele>654</ele>
        <time>2021-04-15T11:58:14Z</time>
      </trkpt>
      <trkpt lat="45.28384" lon="4.05681">
        <ele>652</ele>
        <time>2021-04-15T11:58:16Z</time>
      </trkpt>
      <trkpt lat="45.28395" lon="4.05682">
        <ele>651</ele>
        <time>2021-04-15T11:58:18Z</time>
      </trkpt>
      <trkpt lat="45.28407" lon="4.05683">
        <ele>649</ele>
        <time>2021-04-15T11:58:20Z</time>
      </trkpt>
      <trkpt lat="45.28423" lon="4.05689">
        <ele>646</ele>
        <time>2021-04-15T11:58:22Z</time>
      </trkpt>
      <trkpt lat="45.28438" lon="4.05694">
        <ele>643</ele>
        <time>2021-04-15T11:58:24Z</time>
      </trkpt>
      <trkpt lat="45.28451" lon="4.05703">
        <ele>642</ele>
        <time>2021-04-15T11:58:26Z</time>
      </trkpt>
      <trkpt lat="45.2846" lon="4.05705">
        <ele>639</ele>
        <time>2021-04-15T11:58:28Z</time>
      </trkpt>
      <trkpt lat="45.28459" lon="4.05691">
        <ele>635</ele>
        <time>2021-04-15T11:58:31Z</time>
      </trkpt>
      <trkpt lat="45.28449" lon="4.05678">
        <ele>630</ele>
        <time>2021-04-15T11:58:34Z</time>
      </trkpt>
      <trkpt lat="45.2844" lon="4.05667">
        <ele>628</ele>
        <time>2021-04-15T11:58:36Z</time>
      </trkpt>
      <trkpt lat="45.28431" lon="4.05653">
        <ele>627</ele>
        <time>2021-04-15T11:58:38Z</time>
      </trkpt>
      <trkpt lat="45.28419" lon="4.05638">
        <ele>626</ele>
        <time>2021-04-15T11:58:40Z</time>
      </trkpt>
      <trkpt lat="45.28415" lon="4.05621">
        <ele>625</ele>
        <time>2021-04-15T11:58:42Z</time>
      </trkpt>
      <trkpt lat="45.28423" lon="4.05614">
        <ele>624</ele>
        <time>2021-04-15T11:58:44Z</time>
      </trkpt>
      <trkpt lat="45.28435" lon="4.0562">
        <ele>624</ele>
        <time>2021-04-15T11:58:46Z</time>
      </trkpt>
      <trkpt lat="45.28444" lon="4.05627">
        <ele>623</ele>
        <time>2021-04-15T11:58:48Z</time>
      </trkpt>
      <trkpt lat="45.28456" lon="4.05633">
        <ele>622</ele>
        <time>2021-04-15T11:58:50Z</time>
      </trkpt>
      <trkpt lat="45.28467" lon="4.0564">
        <ele>622</ele>
        <time>2021-04-15T11:58:52Z</time>
      </trkpt>
      <trkpt lat="45.28479" lon="4.05645">
        <ele>619</ele>
        <time>2021-04-15T11:58:54Z</time>
      </trkpt>
      <trkpt lat="45.28493" lon="4.05648">
        <ele>618</ele>
        <time>2021-04-15T11:58:56Z</time>
      </trkpt>
      <trkpt lat="45.28508" lon="4.05661">
        <ele>617</ele>
        <time>2021-04-15T11:58:58Z</time>
      </trkpt>
      <trkpt lat="45.28516" lon="4.05681">
        <ele>614</ele>
        <time>2021-04-15T11:59:00Z</time>
      </trkpt>
      <trkpt lat="45.28521" lon="4.05703">
        <ele>613</ele>
        <time>2021-04-15T11:59:02Z</time>
      </trkpt>
      <trkpt lat="45.28524" lon="4.05715">
        <ele>612</ele>
        <time>2021-04-15T11:59:03Z</time>
      </trkpt>
      <trkpt lat="45.28527" lon="4.0574">
        <ele>610</ele>
        <time>2021-04-15T11:59:05Z</time>
      </trkpt>
      <trkpt lat="45.28528" lon="4.05764">
        <ele>608</ele>
        <time>2021-04-15T11:59:07Z</time>
      </trkpt>
      <trkpt lat="45.28527" lon="4.0579">
        <ele>607</ele>
        <time>2021-04-15T11:59:09Z</time>
      </trkpt>
      <trkpt lat="45.28516" lon="4.05811">
        <ele>605</ele>
        <time>2021-04-15T11:59:11Z</time>
      </trkpt>
      <trkpt lat="45.285" lon="4.0582">
        <ele>604</ele>
        <time>2021-04-15T11:59:13Z</time>
      </trkpt>
      <trkpt lat="45.28484" lon="4.05822">
        <ele>604</ele>
        <time>2021-04-15T11:59:15Z</time>
      </trkpt>
      <trkpt lat="45.28474" lon="4.05824">
        <ele>603</ele>
        <time>2021-04-15T11:59:16Z</time>
      </trkpt>
      <trkpt lat="45.28464" lon="4.05827">
        <ele>603</ele>
        <time>2021-04-15T11:59:17Z</time>
      </trkpt>
      <trkpt lat="45.28456" lon="4.05831">
        <ele>602</ele>
        <time>2021-04-15T11:59:18Z</time>
      </trkpt>
      <trkpt lat="45.28443" lon="4.05846">
        <ele>602</ele>
        <time>2021-04-15T11:59:20Z</time>
      </trkpt>
      <trkpt lat="45.28439" lon="4.05858">
        <ele>600</ele>
        <time>2021-04-15T11:59:21Z</time>
      </trkpt>
      <trkpt lat="45.28434" lon="4.05872">
        <ele>600</ele>
        <time>2021-04-15T11:59:22Z</time>
      </trkpt>
      <trkpt lat="45.28429" lon="4.05885">
        <ele>599</ele>
        <time>2021-04-15T11:59:23Z</time>
      </trkpt>
      <trkpt lat="45.28417" lon="4.05899">
        <ele>596</ele>
        <time>2021-04-15T11:59:25Z</time>
      </trkpt>
      <trkpt lat="45.28402" lon="4.05905">
        <ele>594</ele>
        <time>2021-04-15T11:59:27Z</time>
      </trkpt>
      <trkpt lat="45.28392" lon="4.0592">
        <ele>593</ele>
        <time>2021-04-15T11:59:29Z</time>
      </trkpt>
      <trkpt lat="45.28386" lon="4.05936">
        <ele>591</ele>
        <time>2021-04-15T11:59:31Z</time>
      </trkpt>
      <trkpt lat="45.28385" lon="4.05959">
        <ele>591</ele>
        <time>2021-04-15T11:59:33Z</time>
      </trkpt>
      <trkpt lat="45.28383" lon="4.05974">
        <ele>589</ele>
        <time>2021-04-15T11:59:35Z</time>
      </trkpt>
      <trkpt lat="45.28375" lon="4.0599">
        <ele>588</ele>
        <time>2021-04-15T11:59:37Z</time>
      </trkpt>
      <trkpt lat="45.28366" lon="4.0601">
        <ele>587</ele>
        <time>2021-04-15T11:59:39Z</time>
      </trkpt>
      <trkpt lat="45.28365" lon="4.06033">
        <ele>585</ele>
        <time>2021-04-15T11:59:41Z</time>
      </trkpt>
      <trkpt lat="45.28366" lon="4.06056">
        <ele>584</ele>
        <time>2021-04-15T11:59:43Z</time>
      </trkpt>
      <trkpt lat="45.28361" lon="4.06077">
        <ele>583</ele>
        <time>2021-04-15T11:59:45Z</time>
      </trkpt>
      <trkpt lat="45.28352" lon="4.06099">
        <ele>581</ele>
        <time>2021-04-15T11:59:47Z</time>
      </trkpt>
      <trkpt lat="45.2835" lon="4.06118">
        <ele>580</ele>
        <time>2021-04-15T11:59:49Z</time>
      </trkpt>
      <trkpt lat="45.28357" lon="4.06135">
        <ele>578</ele>
        <time>2021-04-15T11:59:52Z</time>
      </trkpt>
      <trkpt lat="45.28359" lon="4.06149">
        <ele>574</ele>
        <time>2021-04-15T11:59:55Z</time>
      </trkpt>
      <trkpt lat="45.28359" lon="4.06163">
        <ele>572</ele>
        <time>2021-04-15T11:59:58Z</time>
      </trkpt>
      <trkpt lat="45.2836" lon="4.0618">
        <ele>569</ele>
        <time>2021-04-15T12:00:01Z</time>
      </trkpt>
      <trkpt lat="45.28362" lon="4.06196">
        <ele>566</ele>
        <time>2021-04-15T12:00:03Z</time>
      </trkpt>
      <trkpt lat="45.28363" lon="4.06214">
        <ele>566</ele>
        <time>2021-04-15T12:00:04Z</time>
      </trkpt>
      <trkpt lat="45.28364" lon="4.06224">
        <ele>562</ele>
        <time>2021-04-15T12:00:06Z</time>
      </trkpt>
      <trkpt lat="45.28366" lon="4.06234">
        <ele>562</ele>
        <time>2021-04-15T12:00:07Z</time>
      </trkpt>
      <trkpt lat="45.28369" lon="4.06253">
        <ele>559</ele>
        <time>2021-04-15T12:00:09Z</time>
      </trkpt>
      <trkpt lat="45.28366" lon="4.06269">
        <ele>558</ele>
        <time>2021-04-15T12:00:11Z</time>
      </trkpt>
      <trkpt lat="45.2836" lon="4.06284">
        <ele>557</ele>
        <time>2021-04-15T12:00:13Z</time>
      </trkpt>
      <trkpt lat="45.28355" lon="4.063">
        <ele>557</ele>
        <time>2021-04-15T12:00:15Z</time>
      </trkpt>
      <trkpt lat="45.28348" lon="4.06316">
        <ele>556</ele>
        <time>2021-04-15T12:00:17Z</time>
      </trkpt>
      <trkpt lat="45.28339" lon="4.06329">
        <ele>555</ele>
        <time>2021-04-15T12:00:19Z</time>
      </trkpt>
      <trkpt lat="45.28333" lon="4.06347">
        <ele>554</ele>
        <time>2021-04-15T12:00:21Z</time>
      </trkpt>
      <trkpt lat="45.28332" lon="4.06364">
        <ele>554</ele>
        <time>2021-04-15T12:00:23Z</time>
      </trkpt>
      <trkpt lat="45.28329" lon="4.06384">
        <ele>553</ele>
        <time>2021-04-15T12:00:25Z</time>
      </trkpt>
      <trkpt lat="45.28321" lon="4.06405">
        <ele>551</ele>
        <time>2021-04-15T12:00:27Z</time>
      </trkpt>
      <trkpt lat="45.28313" lon="4.06422">
        <ele>550</ele>
        <time>2021-04-15T12:00:29Z</time>
      </trkpt>
      <trkpt lat="45.28305" lon="4.06437">
        <ele>549</ele>
        <time>2021-04-15T12:00:31Z</time>
      </trkpt>
      <trkpt lat="45.283" lon="4.06443">
        <ele>548</ele>
        <time>2021-04-15T12:00:32Z</time>
      </trkpt>
      <trkpt lat="45.28292" lon="4.06454">
        <ele>547</ele>
        <time>2021-04-15T12:00:34Z</time>
      </trkpt>
      <trkpt lat="45.28283" lon="4.06464">
        <ele>546</ele>
        <time>2021-04-15T12:00:36Z</time>
      </trkpt>
      <trkpt lat="45.28273" lon="4.06477">
        <ele>545</ele>
        <time>2021-04-15T12:00:38Z</time>
      </trkpt>
      <trkpt lat="45.28265" lon="4.06489">
        <ele>544</ele>
        <time>2021-04-15T12:00:40Z</time>
      </trkpt>
      <trkpt lat="45.28256" lon="4.06501">
        <ele>544</ele>
        <time>2021-04-15T12:00:42Z</time>
      </trkpt>
      <trkpt lat="45.28246" lon="4.06507">
        <ele>543</ele>
        <time>2021-04-15T12:00:44Z</time>
      </trkpt>
      <trkpt lat="45.28234" lon="4.0651">
        <ele>543</ele>
        <time>2021-04-15T12:00:46Z</time>
      </trkpt>
      <trkpt lat="45.28223" lon="4.06512">
        <ele>542</ele>
        <time>2021-04-15T12:00:48Z</time>
      </trkpt>
      <trkpt lat="45.28212" lon="4.06516">
        <ele>542</ele>
        <time>2021-04-15T12:00:50Z</time>
      </trkpt>
      <trkpt lat="45.28203" lon="4.06528">
        <ele>541</ele>
        <time>2021-04-15T12:00:52Z</time>
      </trkpt>
      <trkpt lat="45.28204" lon="4.06544">
        <ele>541</ele>
        <time>2021-04-15T12:00:54Z</time>
      </trkpt>
      <trkpt lat="45.28206" lon="4.06562">
        <ele>540</ele>
        <time>2021-04-15T12:00:56Z</time>
      </trkpt>
      <trkpt lat="45.28203" lon="4.06586">
        <ele>539</ele>
        <time>2021-04-15T12:00:58Z</time>
      </trkpt>
      <trkpt lat="45.282" lon="4.06606">
        <ele>537</ele>
        <time>2021-04-15T12:01:00Z</time>
      </trkpt>
      <trkpt lat="45.28195" lon="4.06621">
        <ele>536</ele>
        <time>2021-04-15T12:01:03Z</time>
      </trkpt>
      <trkpt lat="45.28187" lon="4.06631">
        <ele>534</ele>
        <time>2021-04-15T12:01:06Z</time>
      </trkpt>
      <trkpt lat="45.2818" lon="4.06642">
        <ele>531</ele>
        <time>2021-04-15T12:01:10Z</time>
      </trkpt>
      <trkpt lat="45.28172" lon="4.06653">
        <ele>530</ele>
        <time>2021-04-15T12:01:13Z</time>
      </trkpt>
      <trkpt lat="45.28168" lon="4.06667">
        <ele>529</ele>
        <time>2021-04-15T12:01:15Z</time>
      </trkpt>
      <trkpt lat="45.28163" lon="4.06682">
        <ele>528</ele>
        <time>2021-04-15T12:01:17Z</time>
      </trkpt>
      <trkpt lat="45.28158" lon="4.06699">
        <ele>527</ele>
        <time>2021-04-15T12:01:19Z</time>
      </trkpt>
      <trkpt lat="45.28151" lon="4.06714">
        <ele>525</ele>
        <time>2021-04-15T12:01:21Z</time>
      </trkpt>
      <trkpt lat="45.28144" lon="4.06728">
        <ele>524</ele>
        <time>2021-04-15T12:01:23Z</time>
      </trkpt>
      <trkpt lat="45.28136" lon="4.06741">
        <ele>524</ele>
        <time>2021-04-15T12:01:25Z</time>
      </trkpt>
      <trkpt lat="45.2813" lon="4.06752">
        <ele>523</ele>
        <time>2021-04-15T12:01:26Z</time>
      </trkpt>
      <trkpt lat="45.28126" lon="4.06763">
        <ele>522</ele>
        <time>2021-04-15T12:01:27Z</time>
      </trkpt>
      <trkpt lat="45.28123" lon="4.06775">
        <ele>522</ele>
        <time>2021-04-15T12:01:28Z</time>
      </trkpt>
      <trkpt lat="45.28119" lon="4.06787">
        <ele>521</ele>
        <time>2021-04-15T12:01:29Z</time>
      </trkpt>
      <trkpt lat="45.28114" lon="4.06799">
        <ele>520</ele>
        <time>2021-04-15T12:01:30Z</time>
      </trkpt>
      <trkpt lat="45.28109" lon="4.0681">
        <ele>519</ele>
        <time>2021-04-15T12:01:31Z</time>
      </trkpt>
      <trkpt lat="45.28102" lon="4.06835">
        <ele>518</ele>
        <time>2021-04-15T12:01:33Z</time>
      </trkpt>
      <trkpt lat="45.28099" lon="4.06849">
        <ele>518</ele>
        <time>2021-04-15T12:01:34Z</time>
      </trkpt>
      <trkpt lat="45.28097" lon="4.06863">
        <ele>516</ele>
        <time>2021-04-15T12:01:35Z</time>
      </trkpt>
      <trkpt lat="45.28093" lon="4.06874">
        <ele>515</ele>
        <time>2021-04-15T12:01:36Z</time>
      </trkpt>
      <trkpt lat="45.28081" lon="4.06888">
        <ele>513</ele>
        <time>2021-04-15T12:01:38Z</time>
      </trkpt>
      <trkpt lat="45.2807" lon="4.06904">
        <ele>513</ele>
        <time>2021-04-15T12:01:39Z</time>
      </trkpt>
      <trkpt lat="45.28066" lon="4.06916">
        <ele>511</ele>
        <time>2021-04-15T12:01:41Z</time>
      </trkpt>
      <trkpt lat="45.28061" lon="4.06928">
        <ele>511</ele>
        <time>2021-04-15T12:01:42Z</time>
      </trkpt>
      <trkpt lat="45.28057" lon="4.06941">
        <ele>510</ele>
        <time>2021-04-15T12:01:43Z</time>
      </trkpt>
      <trkpt lat="45.28052" lon="4.06954">
        <ele>508</ele>
        <time>2021-04-15T12:01:44Z</time>
      </trkpt>
      <trkpt lat="45.28047" lon="4.06967">
        <ele>507</ele>
        <time>2021-04-15T12:01:45Z</time>
      </trkpt>
      <trkpt lat="45.28043" lon="4.06979">
        <ele>506</ele>
        <time>2021-04-15T12:01:46Z</time>
      </trkpt>
      <trkpt lat="45.28038" lon="4.0699">
        <ele>505</ele>
        <time>2021-04-15T12:01:47Z</time>
      </trkpt>
      <trkpt lat="45.28029" lon="4.07011">
        <ele>504</ele>
        <time>2021-04-15T12:01:49Z</time>
      </trkpt>
      <trkpt lat="45.28022" lon="4.07023">
        <ele>502</ele>
        <time>2021-04-15T12:01:50Z</time>
      </trkpt>
      <trkpt lat="45.28015" lon="4.07034">
        <ele>501</ele>
        <time>2021-04-15T12:01:51Z</time>
      </trkpt>
      <trkpt lat="45.28008" lon="4.07046">
        <ele>500</ele>
        <time>2021-04-15T12:01:52Z</time>
      </trkpt>
      <trkpt lat="45.28" lon="4.07056">
        <ele>498</ele>
        <time>2021-04-15T12:01:53Z</time>
      </trkpt>
      <trkpt lat="45.27993" lon="4.07066">
        <ele>497</ele>
        <time>2021-04-15T12:01:54Z</time>
      </trkpt>
      <trkpt lat="45.27982" lon="4.07081">
        <ele>493</ele>
        <time>2021-04-15T12:01:56Z</time>
      </trkpt>
      <trkpt lat="45.2798" lon="4.07082">
        <ele>475.6</ele>
      </trkpt>
      <trkpt lat="45.27979" lon="4.07075">
        <ele>476.8</ele>
      </trkpt>
      <trkpt lat="45.27973" lon="4.07084">
        <ele>475.1</ele>
      </trkpt>
      <trkpt lat="45.27973" lon="4.07087">
        <ele>475.5</ele>
      </trkpt>
      <trkpt lat="45.2797" lon="4.07096">
        <ele>484</ele>
        <time>2021-04-15T12:02:58Z</time>
      </trkpt>
      <trkpt lat="45.27969" lon="4.071">
        <ele>483</ele>
        <time>2021-04-15T12:02:59Z</time>
      </trkpt>
      <trkpt lat="45.27968" lon="4.07104">
        <ele>483</ele>
        <time>2021-04-15T12:03:00Z</time>
      </trkpt>
      <trkpt lat="45.27967" lon="4.07109">
        <ele>483</ele>
        <time>2021-04-15T12:03:01Z</time>
      </trkpt>
      <trkpt lat="45.27965" lon="4.07113">
        <ele>483</ele>
        <time>2021-04-15T12:03:02Z</time>
      </trkpt>
      <trkpt lat="45.27964" lon="4.07117">
        <ele>482</ele>
        <time>2021-04-15T12:03:03Z</time>
      </trkpt>
      <trkpt lat="45.27963" lon="4.07121">
        <ele>482</ele>
        <time>2021-04-15T12:03:04Z</time>
      </trkpt>
      <trkpt lat="45.27962" lon="4.07125">
        <ele>482</ele>
        <time>2021-04-15T12:03:05Z</time>
      </trkpt>
      <trkpt lat="45.27961" lon="4.07129">
        <ele>482</ele>
        <time>2021-04-15T12:03:06Z</time>
      </trkpt>
      <trkpt lat="45.27959" lon="4.07134">
        <ele>482</ele>
        <time>2021-04-15T12:03:07Z</time>
      </trkpt>
      <trkpt lat="45.27958" lon="4.07138">
        <ele>482</ele>
        <time>2021-04-15T12:03:08Z</time>
      </trkpt>
      <trkpt lat="45.27957" lon="4.07143">
        <ele>482</ele>
        <time>2021-04-15T12:03:09Z</time>
      </trkpt>
      <trkpt lat="45.27956" lon="4.07147">
        <ele>482</ele>
        <time>2021-04-15T12:03:10Z</time>
      </trkpt>
      <trkpt lat="45.27954" lon="4.07152">
        <ele>482</ele>
        <time>2021-04-15T12:03:11Z</time>
      </trkpt>
      <trkpt lat="45.27952" lon="4.07157">
        <ele>482</ele>
        <time>2021-04-15T12:03:12Z</time>
      </trkpt>
      <trkpt lat="45.2795" lon="4.07162">
        <ele>482</ele>
        <time>2021-04-15T12:03:13Z</time>
      </trkpt>
      <trkpt lat="45.27948" lon="4.07166">
        <ele>482</ele>
        <time>2021-04-15T12:03:14Z</time>
      </trkpt>
      <trkpt lat="45.27944" lon="4.07169">
        <ele>482</ele>
        <time>2021-04-15T12:03:15Z</time>
      </trkpt>
      <trkpt lat="45.2794" lon="4.07171">
        <ele>482</ele>
        <time>2021-04-15T12:03:16Z</time>
      </trkpt>
      <trkpt lat="45.27936" lon="4.07173">
        <ele>482</ele>
        <time>2021-04-15T12:03:17Z</time>
      </trkpt>
      <trkpt lat="45.27933" lon="4.07173">
        <ele>481</ele>
        <time>2021-04-15T12:03:18Z</time>
      </trkpt>
      <trkpt lat="45.27929" lon="4.07174">
        <ele>481</ele>
        <time>2021-04-15T12:03:19Z</time>
      </trkpt>
      <trkpt lat="45.27925" lon="4.07175">
        <ele>481</ele>
        <time>2021-04-15T12:03:20Z</time>
      </trkpt>
      <trkpt lat="45.27921" lon="4.07176">
        <ele>481</ele>
        <time>2021-04-15T12:03:21Z</time>
      </trkpt>
      <trkpt lat="45.27917" lon="4.07177">
        <ele>481</ele>
        <time>2021-04-15T12:03:22Z</time>
      </trkpt>
      <trkpt lat="45.27914" lon="4.07178">
        <ele>481</ele>
        <time>2021-04-15T12:03:23Z</time>
      </trkpt>
      <trkpt lat="45.2791" lon="4.0718">
        <ele>481</ele>
        <time>2021-04-15T12:03:24Z</time>
      </trkpt>
      <trkpt lat="45.27906" lon="4.07182">
        <ele>481</ele>
        <time>2021-04-15T12:03:25Z</time>
      </trkpt>
      <trkpt lat="45.27899" lon="4.07187">
        <ele>481</ele>
        <time>2021-04-15T12:03:26Z</time>
      </trkpt>
      <trkpt lat="45.27896" lon="4.07189">
        <ele>481</ele>
        <time>2021-04-15T12:03:28Z</time>
      </trkpt>
      <trkpt lat="45.27893" lon="4.07192">
        <ele>481</ele>
        <time>2021-04-15T12:03:29Z</time>
      </trkpt>
      <trkpt lat="45.2789" lon="4.07194">
        <ele>481</ele>
        <time>2021-04-15T12:03:30Z</time>
      </trkpt>
      <trkpt lat="45.27886" lon="4.07196">
        <ele>481</ele>
        <time>2021-04-15T12:03:31Z</time>
      </trkpt>
      <trkpt lat="45.27884" lon="4.07199">
        <ele>481</ele>
        <time>2021-04-15T12:03:32Z</time>
      </trkpt>
      <trkpt lat="45.27881" lon="4.072">
        <ele>481</ele>
        <time>2021-04-15T12:03:33Z</time>
      </trkpt>
      <trkpt lat="45.27879" lon="4.07202">
        <ele>480</ele>
        <time>2021-04-15T12:03:34Z</time>
      </trkpt>
      <trkpt lat="45.27876" lon="4.07204">
        <ele>480</ele>
        <time>2021-04-15T12:03:35Z</time>
      </trkpt>
      <trkpt lat="45.27872" lon="4.07205">
        <ele>480</ele>
        <time>2021-04-15T12:03:36Z</time>
      </trkpt>
      <trkpt lat="45.27869" lon="4.07207">
        <ele>480</ele>
        <time>2021-04-15T12:03:37Z</time>
      </trkpt>
      <trkpt lat="45.27866" lon="4.07209">
        <ele>480</ele>
        <time>2021-04-15T12:03:38Z</time>
      </trkpt>
      <trkpt lat="45.27863" lon="4.07212">
        <ele>480</ele>
        <time>2021-04-15T12:03:39Z</time>
      </trkpt>
      <trkpt lat="45.27861" lon="4.07216">
        <ele>480</ele>
        <time>2021-04-15T12:03:40Z</time>
      </trkpt>
      <trkpt lat="45.2786" lon="4.07219">
        <ele>480</ele>
        <time>2021-04-15T12:03:41Z</time>
      </trkpt>
      <trkpt lat="45.27858" lon="4.07224">
        <ele>481</ele>
        <time>2021-04-15T12:03:42Z</time>
      </trkpt>
      <trkpt lat="45.27857" lon="4.07229">
        <ele>481</ele>
        <time>2021-04-15T12:03:43Z</time>
      </trkpt>
      <trkpt lat="45.27855" lon="4.07234">
        <ele>481</ele>
        <time>2021-04-15T12:03:44Z</time>
      </trkpt>
      <trkpt lat="45.27853" lon="4.07239">
        <ele>481</ele>
        <time>2021-04-15T12:03:45Z</time>
      </trkpt>
      <trkpt lat="45.27852" lon="4.07245">
        <ele>481</ele>
        <time>2021-04-15T12:03:46Z</time>
      </trkpt>
      <trkpt lat="45.2785" lon="4.07251">
        <ele>480</ele>
        <time>2021-04-15T12:03:47Z</time>
      </trkpt>
      <trkpt lat="45.27847" lon="4.07257">
        <ele>480</ele>
        <time>2021-04-15T12:03:48Z</time>
      </trkpt>
      <trkpt lat="45.27846" lon="4.07262">
        <ele>479</ele>
        <time>2021-04-15T12:03:49Z</time>
      </trkpt>
      <trkpt lat="45.27845" lon="4.07267">
        <ele>479</ele>
        <time>2021-04-15T12:03:50Z</time>
      </trkpt>
      <trkpt lat="45.27843" lon="4.07273">
        <ele>479</ele>
        <time>2021-04-15T12:03:51Z</time>
      </trkpt>
      <trkpt lat="45.27842" lon="4.07279">
        <ele>479</ele>
        <time>2021-04-15T12:03:52Z</time>
      </trkpt>
      <trkpt lat="45.27841" lon="4.07285">
        <ele>479</ele>
        <time>2021-04-15T12:03:53Z</time>
      </trkpt>
      <trkpt lat="45.2784" lon="4.07291">
        <ele>479</ele>
        <time>2021-04-15T12:03:54Z</time>
      </trkpt>
      <trkpt lat="45.2784" lon="4.07297">
        <ele>479</ele>
        <time>2021-04-15T12:03:55Z</time>
      </trkpt>
      <trkpt lat="45.27839" lon="4.07303">
        <ele>479</ele>
        <time>2021-04-15T12:03:56Z</time>
      </trkpt>
      <trkpt lat="45.27838" lon="4.07309">
        <ele>479</ele>
        <time>2021-04-15T12:03:57Z</time>
      </trkpt>
      <trkpt lat="45.27836" lon="4.07316">
        <ele>478</ele>
        <time>2021-04-15T12:03:58Z</time>
      </trkpt>
      <trkpt lat="45.27835" lon="4.07322">
        <ele>478</ele>
        <time>2021-04-15T12:03:59Z</time>
      </trkpt>
      <trkpt lat="45.27833" lon="4.07335">
        <ele>478</ele>
        <time>2021-04-15T12:04:00Z</time>
      </trkpt>
      <trkpt lat="45.27832" lon="4.07342">
        <ele>478</ele>
        <time>2021-04-15T12:04:02Z</time>
      </trkpt>
      <trkpt lat="45.2783" lon="4.07349">
        <ele>477</ele>
        <time>2021-04-15T12:04:03Z</time>
      </trkpt>
      <trkpt lat="45.27829" lon="4.07355">
        <ele>477</ele>
        <time>2021-04-15T12:04:04Z</time>
      </trkpt>
      <trkpt lat="45.27828" lon="4.07362">
        <ele>477</ele>
        <time>2021-04-15T12:04:05Z</time>
      </trkpt>
      <trkpt lat="45.27827" lon="4.07369">
        <ele>477</ele>
        <time>2021-04-15T12:04:06Z</time>
      </trkpt>
      <trkpt lat="45.27826" lon="4.07376">
        <ele>477</ele>
        <time>2021-04-15T12:04:07Z</time>
      </trkpt>
      <trkpt lat="45.27825" lon="4.07384">
        <ele>477</ele>
        <time>2021-04-15T12:04:08Z</time>
      </trkpt>
      <trkpt lat="45.27824" lon="4.07391">
        <ele>476</ele>
        <time>2021-04-15T12:04:09Z</time>
      </trkpt>
      <trkpt lat="45.27822" lon="4.07399">
        <ele>476</ele>
        <time>2021-04-15T12:04:10Z</time>
      </trkpt>
      <trkpt lat="45.27821" lon="4.07408">
        <ele>476</ele>
        <time>2021-04-15T12:04:11Z</time>
      </trkpt>
      <trkpt lat="45.27819" lon="4.07417">
        <ele>476</ele>
        <time>2021-04-15T12:04:12Z</time>
      </trkpt>
      <trkpt lat="45.27818" lon="4.07426">
        <ele>476</ele>
        <time>2021-04-15T12:04:13Z</time>
      </trkpt>
      <trkpt lat="45.27817" lon="4.07435">
        <ele>476</ele>
        <time>2021-04-15T12:04:14Z</time>
      </trkpt>
      <trkpt lat="45.27816" lon="4.07445">
        <ele>475</ele>
        <time>2021-04-15T12:04:15Z</time>
      </trkpt>
      <trkpt lat="45.27815" lon="4.07454">
        <ele>475</ele>
        <time>2021-04-15T12:04:16Z</time>
      </trkpt>
      <trkpt lat="45.27815" lon="4.07464">
        <ele>475</ele>
        <time>2021-04-15T12:04:17Z</time>
      </trkpt>
      <trkpt lat="45.27814" lon="4.07473">
        <ele>475</ele>
        <time>2021-04-15T12:04:18Z</time>
      </trkpt>
      <trkpt lat="45.27813" lon="4.07482">
        <ele>475</ele>
        <time>2021-04-15T12:04:19Z</time>
      </trkpt>
      <trkpt lat="45.27813" lon="4.07491">
        <ele>475</ele>
        <time>2021-04-15T12:04:20Z</time>
      </trkpt>
      <trkpt lat="45.27812" lon="4.075">
        <ele>474</ele>
        <time>2021-04-15T12:04:21Z</time>
      </trkpt>
      <trkpt lat="45.27812" lon="4.07509">
        <ele>474</ele>
        <time>2021-04-15T12:04:22Z</time>
      </trkpt>
      <trkpt lat="45.27812" lon="4.07526">
        <ele>474</ele>
        <time>2021-04-15T12:04:23Z</time>
      </trkpt>
      <trkpt lat="45.27813" lon="4.07534">
        <ele>474</ele>
        <time>2021-04-15T12:04:25Z</time>
      </trkpt>
      <trkpt lat="45.27814" lon="4.07543">
        <ele>474</ele>
        <time>2021-04-15T12:04:26Z</time>
      </trkpt>
      <trkpt lat="45.27815" lon="4.0755">
        <ele>474</ele>
        <time>2021-04-15T12:04:27Z</time>
      </trkpt>
      <trkpt lat="45.27817" lon="4.07558">
        <ele>474</ele>
        <time>2021-04-15T12:04:28Z</time>
      </trkpt>
      <trkpt lat="45.27819" lon="4.07566">
        <ele>473</ele>
        <time>2021-04-15T12:04:29Z</time>
      </trkpt>
      <trkpt lat="45.27822" lon="4.07574">
        <ele>473</ele>
        <time>2021-04-15T12:04:30Z</time>
      </trkpt>
      <trkpt lat="45.27824" lon="4.07582">
        <ele>473</ele>
        <time>2021-04-15T12:04:31Z</time>
      </trkpt>
      <trkpt lat="45.27826" lon="4.0759">
        <ele>473</ele>
        <time>2021-04-15T12:04:32Z</time>
      </trkpt>
      <trkpt lat="45.27828" lon="4.07598">
        <ele>473</ele>
        <time>2021-04-15T12:04:33Z</time>
      </trkpt>
      <trkpt lat="45.2783" lon="4.07606">
        <ele>473</ele>
        <time>2021-04-15T12:04:34Z</time>
      </trkpt>
      <trkpt lat="45.27831" lon="4.07613">
        <ele>473</ele>
        <time>2021-04-15T12:04:35Z</time>
      </trkpt>
      <trkpt lat="45.27833" lon="4.0762">
        <ele>473</ele>
        <time>2021-04-15T12:04:36Z</time>
      </trkpt>
      <trkpt lat="45.27834" lon="4.07627">
        <ele>473</ele>
        <time>2021-04-15T12:04:37Z</time>
      </trkpt>
      <trkpt lat="45.27835" lon="4.07634">
        <ele>473</ele>
        <time>2021-04-15T12:04:38Z</time>
      </trkpt>
      <trkpt lat="45.27837" lon="4.07641">
        <ele>473</ele>
        <time>2021-04-15T12:04:39Z</time>
      </trkpt>
      <trkpt lat="45.27839" lon="4.07647">
        <ele>473</ele>
        <time>2021-04-15T12:04:40Z</time>
      </trkpt>
      <trkpt lat="45.27841" lon="4.07653">
        <ele>473</ele>
        <time>2021-04-15T12:04:41Z</time>
      </trkpt>
      <trkpt lat="45.27845" lon="4.07665">
        <ele>473</ele>
        <time>2021-04-15T12:04:42Z</time>
      </trkpt>
      <trkpt lat="45.27848" lon="4.07672">
        <ele>473</ele>
        <time>2021-04-15T12:04:44Z</time>
      </trkpt>
      <trkpt lat="45.27851" lon="4.07678">
        <ele>473</ele>
        <time>2021-04-15T12:04:45Z</time>
      </trkpt>
      <trkpt lat="45.27854" lon="4.07685">
        <ele>473</ele>
        <time>2021-04-15T12:04:46Z</time>
      </trkpt>
      <trkpt lat="45.27856" lon="4.07692">
        <ele>474</ele>
        <time>2021-04-15T12:04:47Z</time>
      </trkpt>
      <trkpt lat="45.27859" lon="4.07699">
        <ele>474</ele>
        <time>2021-04-15T12:04:48Z</time>
      </trkpt>
      <trkpt lat="45.27861" lon="4.07706">
        <ele>474</ele>
        <time>2021-04-15T12:04:49Z</time>
      </trkpt>
      <trkpt lat="45.27863" lon="4.07713">
        <ele>474</ele>
        <time>2021-04-15T12:04:50Z</time>
      </trkpt>
      <trkpt lat="45.27863" lon="4.0772">
        <ele>474</ele>
        <time>2021-04-15T12:04:51Z</time>
      </trkpt>
      <trkpt lat="45.27863" lon="4.07727">
        <ele>474</ele>
        <time>2021-04-15T12:04:52Z</time>
      </trkpt>
      <trkpt lat="45.27862" lon="4.07735">
        <ele>474</ele>
        <time>2021-04-15T12:04:53Z</time>
      </trkpt>
      <trkpt lat="45.2786" lon="4.07742">
        <ele>474</ele>
        <time>2021-04-15T12:04:54Z</time>
      </trkpt>
      <trkpt lat="45.27859" lon="4.0775">
        <ele>474</ele>
        <time>2021-04-15T12:04:55Z</time>
      </trkpt>
      <trkpt lat="45.27857" lon="4.07757">
        <ele>474</ele>
        <time>2021-04-15T12:04:56Z</time>
      </trkpt>
      <trkpt lat="45.27855" lon="4.07764">
        <ele>474</ele>
        <time>2021-04-15T12:04:57Z</time>
      </trkpt>
      <trkpt lat="45.27853" lon="4.07771">
        <ele>474</ele>
        <time>2021-04-15T12:04:58Z</time>
      </trkpt>
      <trkpt lat="45.2785" lon="4.07779">
        <ele>474</ele>
        <time>2021-04-15T12:04:59Z</time>
      </trkpt>
      <trkpt lat="45.27848" lon="4.07786">
        <ele>474</ele>
        <time>2021-04-15T12:05:00Z</time>
      </trkpt>
      <trkpt lat="45.27846" lon="4.07793">
        <ele>474</ele>
        <time>2021-04-15T12:05:01Z</time>
      </trkpt>
      <trkpt lat="45.27843" lon="4.078">
        <ele>474</ele>
        <time>2021-04-15T12:05:02Z</time>
      </trkpt>
      <trkpt lat="45.27841" lon="4.07807">
        <ele>474</ele>
        <time>2021-04-15T12:05:03Z</time>
      </trkpt>
      <trkpt lat="45.27838" lon="4.07814">
        <ele>475</ele>
        <time>2021-04-15T12:05:04Z</time>
      </trkpt>
      <trkpt lat="45.27835" lon="4.0782">
        <ele>475</ele>
        <time>2021-04-15T12:05:05Z</time>
      </trkpt>
      <trkpt lat="45.27833" lon="4.07827">
        <ele>475</ele>
        <time>2021-04-15T12:05:06Z</time>
      </trkpt>
      <trkpt lat="45.2783" lon="4.07833">
        <ele>475</ele>
        <time>2021-04-15T12:05:07Z</time>
      </trkpt>
      <trkpt lat="45.27827" lon="4.07839">
        <ele>475</ele>
        <time>2021-04-15T12:05:08Z</time>
      </trkpt>
      <trkpt lat="45.27824" lon="4.07845">
        <ele>475</ele>
        <time>2021-04-15T12:05:09Z</time>
      </trkpt>
      <trkpt lat="45.27821" lon="4.07851">
        <ele>475</ele>
        <time>2021-04-15T12:05:10Z</time>
      </trkpt>
      <trkpt lat="45.27818" lon="4.07857">
        <ele>475</ele>
        <time>2021-04-15T12:05:11Z</time>
      </trkpt>
      <trkpt lat="45.27815" lon="4.07863">
        <ele>475</ele>
        <time>2021-04-15T12:05:12Z</time>
      </trkpt>
      <trkpt lat="45.27812" lon="4.07869">
        <ele>475</ele>
        <time>2021-04-15T12:05:13Z</time>
      </trkpt>
      <trkpt lat="45.27809" lon="4.07875">
        <ele>475</ele>
        <time>2021-04-15T12:05:14Z</time>
      </trkpt>
      <trkpt lat="45.27806" lon="4.07881">
        <ele>475</ele>
        <time>2021-04-15T12:05:15Z</time>
      </trkpt>
      <trkpt lat="45.27803" lon="4.07887">
        <ele>475</ele>
        <time>2021-04-15T12:05:16Z</time>
      </trkpt>
      <trkpt lat="45.278" lon="4.07893">
        <ele>475</ele>
        <time>2021-04-15T12:05:17Z</time>
      </trkpt>
      <trkpt lat="45.27796" lon="4.07899">
        <ele>475</ele>
        <time>2021-04-15T12:05:18Z</time>
      </trkpt>
      <trkpt lat="45.27793" lon="4.07905">
        <ele>475</ele>
        <time>2021-04-15T12:05:19Z</time>
      </trkpt>
      <trkpt lat="45.27787" lon="4.07918">
        <ele>475</ele>
        <time>2021-04-15T12:05:20Z</time>
      </trkpt>
      <trkpt lat="45.27784" lon="4.07924">
        <ele>475</ele>
        <time>2021-04-15T12:05:22Z</time>
      </trkpt>
      <trkpt lat="45.27781" lon="4.07931">
        <ele>475</ele>
        <time>2021-04-15T12:05:23Z</time>
      </trkpt>
      <trkpt lat="45.27778" lon="4.07938">
        <ele>475</ele>
        <time>2021-04-15T12:05:24Z</time>
      </trkpt>
      <trkpt lat="45.27775" lon="4.07944">
        <ele>475</ele>
        <time>2021-04-15T12:05:25Z</time>
      </trkpt>
      <trkpt lat="45.27772" lon="4.0795">
        <ele>475</ele>
        <time>2021-04-15T12:05:26Z</time>
      </trkpt>
      <trkpt lat="45.27769" lon="4.07957">
        <ele>475</ele>
        <time>2021-04-15T12:05:27Z</time>
      </trkpt>
      <trkpt lat="45.27766" lon="4.07963">
        <ele>475</ele>
        <time>2021-04-15T12:05:28Z</time>
      </trkpt>
      <trkpt lat="45.27763" lon="4.0797">
        <ele>475</ele>
        <time>2021-04-15T12:05:29Z</time>
      </trkpt>
      <trkpt lat="45.27759" lon="4.07976">
        <ele>476</ele>
        <time>2021-04-15T12:05:30Z</time>
      </trkpt>
      <trkpt lat="45.27756" lon="4.07983">
        <ele>476</ele>
        <time>2021-04-15T12:05:31Z</time>
      </trkpt>
      <trkpt lat="45.27753" lon="4.07989">
        <ele>476</ele>
        <time>2021-04-15T12:05:32Z</time>
      </trkpt>
      <trkpt lat="45.27749" lon="4.07996">
        <ele>476</ele>
        <time>2021-04-15T12:05:33Z</time>
      </trkpt>
      <trkpt lat="45.27746" lon="4.08003">
        <ele>476</ele>
        <time>2021-04-15T12:05:34Z</time>
      </trkpt>
      <trkpt lat="45.27743" lon="4.0801">
        <ele>476</ele>
        <time>2021-04-15T12:05:35Z</time>
      </trkpt>
      <trkpt lat="45.2774" lon="4.08017">
        <ele>476</ele>
        <time>2021-04-15T12:05:36Z</time>
      </trkpt>
      <trkpt lat="45.27737" lon="4.08024">
        <ele>476</ele>
        <time>2021-04-15T12:05:37Z</time>
      </trkpt>
      <trkpt lat="45.27734" lon="4.0803">
        <ele>476</ele>
        <time>2021-04-15T12:05:38Z</time>
      </trkpt>
      <trkpt lat="45.2773" lon="4.08037">
        <ele>476</ele>
        <time>2021-04-15T12:05:39Z</time>
      </trkpt>
      <trkpt lat="45.27727" lon="4.08043">
        <ele>476</ele>
        <time>2021-04-15T12:05:40Z</time>
      </trkpt>
      <trkpt lat="45.27724" lon="4.08049">
        <ele>476</ele>
        <time>2021-04-15T12:05:41Z</time>
      </trkpt>
      <trkpt lat="45.27721" lon="4.08055">
        <ele>476</ele>
        <time>2021-04-15T12:05:42Z</time>
      </trkpt>
      <trkpt lat="45.27719" lon="4.0806">
        <ele>476</ele>
        <time>2021-04-15T12:05:43Z</time>
      </trkpt>
      <trkpt lat="45.27716" lon="4.08066">
        <ele>476</ele>
        <time>2021-04-15T12:05:44Z</time>
      </trkpt>
      <trkpt lat="45.27712" lon="4.08072">
        <ele>476</ele>
        <time>2021-04-15T12:05:45Z</time>
      </trkpt>
      <trkpt lat="45.27708" lon="4.08078">
        <ele>476</ele>
        <time>2021-04-15T12:05:46Z</time>
      </trkpt>
      <trkpt lat="45.27703" lon="4.08085">
        <ele>476</ele>
        <time>2021-04-15T12:05:47Z</time>
      </trkpt>
      <trkpt lat="45.27699" lon="4.08091">
        <ele>476</ele>
        <time>2021-04-15T12:05:48Z</time>
      </trkpt>
      <trkpt lat="45.27695" lon="4.08097">
        <ele>477</ele>
        <time>2021-04-15T12:05:49Z</time>
      </trkpt>
      <trkpt lat="45.27691" lon="4.08103">
        <ele>477</ele>
        <time>2021-04-15T12:05:50Z</time>
      </trkpt>
      <trkpt lat="45.27686" lon="4.08109">
        <ele>477</ele>
        <time>2021-04-15T12:05:51Z</time>
      </trkpt>
      <trkpt lat="45.27682" lon="4.08114">
        <ele>477</ele>
        <time>2021-04-15T12:05:52Z</time>
      </trkpt>
      <trkpt lat="45.27678" lon="4.08119">
        <ele>477</ele>
        <time>2021-04-15T12:05:53Z</time>
      </trkpt>
      <trkpt lat="45.27674" lon="4.08125">
        <ele>477</ele>
        <time>2021-04-15T12:05:54Z</time>
      </trkpt>
      <trkpt lat="45.2767" lon="4.0813">
        <ele>477</ele>
        <time>2021-04-15T12:05:55Z</time>
      </trkpt>
      <trkpt lat="45.27666" lon="4.08135">
        <ele>477</ele>
        <time>2021-04-15T12:05:56Z</time>
      </trkpt>
      <trkpt lat="45.27662" lon="4.0814">
        <ele>477</ele>
        <time>2021-04-15T12:05:57Z</time>
      </trkpt>
      <trkpt lat="45.27657" lon="4.08146">
        <ele>478</ele>
        <time>2021-04-15T12:05:58Z</time>
      </trkpt>
      <trkpt lat="45.27652" lon="4.08152">
        <ele>477</ele>
        <time>2021-04-15T12:05:59Z</time>
      </trkpt>
      <trkpt lat="45.27647" lon="4.08159">
        <ele>477</ele>
        <time>2021-04-15T12:06:00Z</time>
      </trkpt>
      <trkpt lat="45.27643" lon="4.08166">
        <ele>477</ele>
        <time>2021-04-15T12:06:01Z</time>
      </trkpt>
      <trkpt lat="45.27639" lon="4.08173">
        <ele>476</ele>
        <time>2021-04-15T12:06:02Z</time>
      </trkpt>
      <trkpt lat="45.27636" lon="4.08181">
        <ele>477</ele>
        <time>2021-04-15T12:06:03Z</time>
      </trkpt>
      <trkpt lat="45.27633" lon="4.08188">
        <ele>477</ele>
        <time>2021-04-15T12:06:04Z</time>
      </trkpt>
      <trkpt lat="45.2763" lon="4.08195">
        <ele>476</ele>
        <time>2021-04-15T12:06:05Z</time>
      </trkpt>
      <trkpt lat="45.27627" lon="4.08203">
        <ele>476</ele>
        <time>2021-04-15T12:06:06Z</time>
      </trkpt>
      <trkpt lat="45.27625" lon="4.08211">
        <ele>476</ele>
        <time>2021-04-15T12:06:07Z</time>
      </trkpt>
      <trkpt lat="45.27623" lon="4.0822">
        <ele>475</ele>
        <time>2021-04-15T12:06:08Z</time>
      </trkpt>
      <trkpt lat="45.2762" lon="4.08229">
        <ele>475</ele>
        <time>2021-04-15T12:06:09Z</time>
      </trkpt>
      <trkpt lat="45.27618" lon="4.08237">
        <ele>474</ele>
        <time>2021-04-15T12:06:10Z</time>
      </trkpt>
      <trkpt lat="45.27616" lon="4.08246">
        <ele>474</ele>
        <time>2021-04-15T12:06:11Z</time>
      </trkpt>
      <trkpt lat="45.27614" lon="4.08254">
        <ele>473</ele>
        <time>2021-04-15T12:06:12Z</time>
      </trkpt>
      <trkpt lat="45.27612" lon="4.08262">
        <ele>473</ele>
        <time>2021-04-15T12:06:13Z</time>
      </trkpt>
      <trkpt lat="45.2761" lon="4.08271">
        <ele>473</ele>
        <time>2021-04-15T12:06:14Z</time>
      </trkpt>
      <trkpt lat="45.27607" lon="4.08278">
        <ele>473</ele>
        <time>2021-04-15T12:06:15Z</time>
      </trkpt>
      <trkpt lat="45.27605" lon="4.08286">
        <ele>473</ele>
        <time>2021-04-15T12:06:16Z</time>
      </trkpt>
      <trkpt lat="45.276" lon="4.08301">
        <ele>473</ele>
        <time>2021-04-15T12:06:17Z</time>
      </trkpt>
      <trkpt lat="45.27598" lon="4.08309">
        <ele>473</ele>
        <time>2021-04-15T12:06:19Z</time>
      </trkpt>
      <trkpt lat="45.27596" lon="4.08316">
        <ele>473</ele>
        <time>2021-04-15T12:06:20Z</time>
      </trkpt>
      <trkpt lat="45.27594" lon="4.08324">
        <ele>473</ele>
        <time>2021-04-15T12:06:21Z</time>
      </trkpt>
      <trkpt lat="45.27592" lon="4.08331">
        <ele>473</ele>
        <time>2021-04-15T12:06:22Z</time>
      </trkpt>
      <trkpt lat="45.27589" lon="4.08339">
        <ele>473</ele>
        <time>2021-04-15T12:06:23Z</time>
      </trkpt>
      <trkpt lat="45.27586" lon="4.08346">
        <ele>473</ele>
        <time>2021-04-15T12:06:24Z</time>
      </trkpt>
      <trkpt lat="45.27584" lon="4.08353">
        <ele>473</ele>
        <time>2021-04-15T12:06:25Z</time>
      </trkpt>
      <trkpt lat="45.27581" lon="4.08361">
        <ele>473</ele>
        <time>2021-04-15T12:06:26Z</time>
      </trkpt>
      <trkpt lat="45.27579" lon="4.08368">
        <ele>473</ele>
        <time>2021-04-15T12:06:27Z</time>
      </trkpt>
      <trkpt lat="45.27577" lon="4.08376">
        <ele>473</ele>
        <time>2021-04-15T12:06:28Z</time>
      </trkpt>
      <trkpt lat="45.27575" lon="4.08383">
        <ele>473</ele>
        <time>2021-04-15T12:06:29Z</time>
      </trkpt>
      <trkpt lat="45.27572" lon="4.08391">
        <ele>473</ele>
        <time>2021-04-15T12:06:30Z</time>
      </trkpt>
      <trkpt lat="45.2757" lon="4.08398">
        <ele>473</ele>
        <time>2021-04-15T12:06:31Z</time>
      </trkpt>
      <trkpt lat="45.27568" lon="4.08406">
        <ele>473</ele>
        <time>2021-04-15T12:06:32Z</time>
      </trkpt>
      <trkpt lat="45.27566" lon="4.08413">
        <ele>473</ele>
        <time>2021-04-15T12:06:33Z</time>
      </trkpt>
      <trkpt lat="45.27565" lon="4.08419">
        <ele>473</ele>
        <time>2021-04-15T12:06:34Z</time>
      </trkpt>
      <trkpt lat="45.27563" lon="4.08426">
        <ele>473</ele>
        <time>2021-04-15T12:06:35Z</time>
      </trkpt>
      <trkpt lat="45.27562" lon="4.08432">
        <ele>473</ele>
        <time>2021-04-15T12:06:36Z</time>
      </trkpt>
      <trkpt lat="45.2756" lon="4.08439">
        <ele>473</ele>
        <time>2021-04-15T12:06:37Z</time>
      </trkpt>
      <trkpt lat="45.27558" lon="4.08445">
        <ele>473</ele>
        <time>2021-04-15T12:06:38Z</time>
      </trkpt>
      <trkpt lat="45.27556" lon="4.08451">
        <ele>473</ele>
        <time>2021-04-15T12:06:39Z</time>
      </trkpt>
      <trkpt lat="45.27553" lon="4.08458">
        <ele>474</ele>
        <time>2021-04-15T12:06:40Z</time>
      </trkpt>
      <trkpt lat="45.27551" lon="4.08464">
        <ele>474</ele>
        <time>2021-04-15T12:06:41Z</time>
      </trkpt>
      <trkpt lat="45.27547" lon="4.0847">
        <ele>474</ele>
        <time>2021-04-15T12:06:42Z</time>
      </trkpt>
      <trkpt lat="45.27543" lon="4.08476">
        <ele>474</ele>
        <time>2021-04-15T12:06:43Z</time>
      </trkpt>
      <trkpt lat="45.27539" lon="4.08483">
        <ele>474</ele>
        <time>2021-04-15T12:06:44Z</time>
      </trkpt>
      <trkpt lat="45.27535" lon="4.08489">
        <ele>474</ele>
        <time>2021-04-15T12:06:45Z</time>
      </trkpt>
      <trkpt lat="45.27531" lon="4.08496">
        <ele>474</ele>
        <time>2021-04-15T12:06:46Z</time>
      </trkpt>
      <trkpt lat="45.27527" lon="4.08504">
        <ele>473</ele>
        <time>2021-04-15T12:06:47Z</time>
      </trkpt>
      <trkpt lat="45.27524" lon="4.08512">
        <ele>473</ele>
        <time>2021-04-15T12:06:48Z</time>
      </trkpt>
      <trkpt lat="45.27521" lon="4.0852">
        <ele>473</ele>
        <time>2021-04-15T12:06:49Z</time>
      </trkpt>
      <trkpt lat="45.2752" lon="4.08529">
        <ele>473</ele>
        <time>2021-04-15T12:06:50Z</time>
      </trkpt>
      <trkpt lat="45.27519" lon="4.08538">
        <ele>472</ele>
        <time>2021-04-15T12:06:51Z</time>
      </trkpt>
      <trkpt lat="45.27518" lon="4.08546">
        <ele>472</ele>
        <time>2021-04-15T12:06:52Z</time>
      </trkpt>
      <trkpt lat="45.27518" lon="4.08555">
        <ele>472</ele>
        <time>2021-04-15T12:06:53Z</time>
      </trkpt>
      <trkpt lat="45.27516" lon="4.08563">
        <ele>472</ele>
        <time>2021-04-15T12:06:54Z</time>
      </trkpt>
      <trkpt lat="45.27515" lon="4.08571">
        <ele>472</ele>
        <time>2021-04-15T12:06:55Z</time>
      </trkpt>
      <trkpt lat="45.27513" lon="4.0858">
        <ele>472</ele>
        <time>2021-04-15T12:06:56Z</time>
      </trkpt>
      <trkpt lat="45.27511" lon="4.08588">
        <ele>472</ele>
        <time>2021-04-15T12:06:57Z</time>
      </trkpt>
      <trkpt lat="45.2751" lon="4.08596">
        <ele>471</ele>
        <time>2021-04-15T12:06:58Z</time>
      </trkpt>
      <trkpt lat="45.27509" lon="4.08604">
        <ele>471</ele>
        <time>2021-04-15T12:06:59Z</time>
      </trkpt>
      <trkpt lat="45.27508" lon="4.08612">
        <ele>471</ele>
        <time>2021-04-15T12:07:00Z</time>
      </trkpt>
      <trkpt lat="45.27507" lon="4.08621">
        <ele>471</ele>
        <time>2021-04-15T12:07:01Z</time>
      </trkpt>
      <trkpt lat="45.27505" lon="4.08628">
        <ele>471</ele>
        <time>2021-04-15T12:07:02Z</time>
      </trkpt>
      <trkpt lat="45.27504" lon="4.08636">
        <ele>471</ele>
        <time>2021-04-15T12:07:03Z</time>
      </trkpt>
      <trkpt lat="45.27503" lon="4.08644">
        <ele>471</ele>
        <time>2021-04-15T12:07:04Z</time>
      </trkpt>
      <trkpt lat="45.27502" lon="4.08651">
        <ele>470</ele>
        <time>2021-04-15T12:07:05Z</time>
      </trkpt>
      <trkpt lat="45.27501" lon="4.08659">
        <ele>470</ele>
        <time>2021-04-15T12:07:06Z</time>
      </trkpt>
      <trkpt lat="45.275" lon="4.08666">
        <ele>470</ele>
        <time>2021-04-15T12:07:07Z</time>
      </trkpt>
      <trkpt lat="45.27498" lon="4.08674">
        <ele>470</ele>
        <time>2021-04-15T12:07:08Z</time>
      </trkpt>
      <trkpt lat="45.27496" lon="4.08681">
        <ele>470</ele>
        <time>2021-04-15T12:07:09Z</time>
      </trkpt>
      <trkpt lat="45.27495" lon="4.08688">
        <ele>470</ele>
        <time>2021-04-15T12:07:10Z</time>
      </trkpt>
      <trkpt lat="45.27494" lon="4.08696">
        <ele>470</ele>
        <time>2021-04-15T12:07:11Z</time>
      </trkpt>
      <trkpt lat="45.27493" lon="4.08703">
        <ele>470</ele>
        <time>2021-04-15T12:07:12Z</time>
      </trkpt>
      <trkpt lat="45.27493" lon="4.0871">
        <ele>470</ele>
        <time>2021-04-15T12:07:13Z</time>
      </trkpt>
      <trkpt lat="45.27495" lon="4.08724">
        <ele>470</ele>
        <time>2021-04-15T12:07:14Z</time>
      </trkpt>
      <trkpt lat="45.27496" lon="4.08732">
        <ele>470</ele>
        <time>2021-04-15T12:07:16Z</time>
      </trkpt>
      <trkpt lat="45.27498" lon="4.08739">
        <ele>470</ele>
        <time>2021-04-15T12:07:17Z</time>
      </trkpt>
      <trkpt lat="45.27499" lon="4.08747">
        <ele>470</ele>
        <time>2021-04-15T12:07:18Z</time>
      </trkpt>
      <trkpt lat="45.27502" lon="4.08755">
        <ele>470</ele>
        <time>2021-04-15T12:07:19Z</time>
      </trkpt>
      <trkpt lat="45.27503" lon="4.08762">
        <ele>469</ele>
        <time>2021-04-15T12:07:20Z</time>
      </trkpt>
      <trkpt lat="45.27505" lon="4.08769">
        <ele>469</ele>
        <time>2021-04-15T12:07:21Z</time>
      </trkpt>
      <trkpt lat="45.27507" lon="4.08776">
        <ele>469</ele>
        <time>2021-04-15T12:07:22Z</time>
      </trkpt>
      <trkpt lat="45.27509" lon="4.08783">
        <ele>469</ele>
        <time>2021-04-15T12:07:23Z</time>
      </trkpt>
      <trkpt lat="45.2751" lon="4.0879">
        <ele>469</ele>
        <time>2021-04-15T12:07:24Z</time>
      </trkpt>
      <trkpt lat="45.27512" lon="4.08797">
        <ele>469</ele>
        <time>2021-04-15T12:07:25Z</time>
      </trkpt>
      <trkpt lat="45.27514" lon="4.08804">
        <ele>469</ele>
        <time>2021-04-15T12:07:26Z</time>
      </trkpt>
      <trkpt lat="45.27515" lon="4.08811">
        <ele>469</ele>
        <time>2021-04-15T12:07:27Z</time>
      </trkpt>
      <trkpt lat="45.27517" lon="4.08817">
        <ele>469</ele>
        <time>2021-04-15T12:07:28Z</time>
      </trkpt>
      <trkpt lat="45.27519" lon="4.08824">
        <ele>469</ele>
        <time>2021-04-15T12:07:29Z</time>
      </trkpt>
      <trkpt lat="45.27521" lon="4.0883">
        <ele>469</ele>
        <time>2021-04-15T12:07:30Z</time>
      </trkpt>
      <trkpt lat="45.27523" lon="4.08837">
        <ele>469</ele>
        <time>2021-04-15T12:07:31Z</time>
      </trkpt>
      <trkpt lat="45.27525" lon="4.08843">
        <ele>469</ele>
        <time>2021-04-15T12:07:32Z</time>
      </trkpt>
      <trkpt lat="45.27529" lon="4.08856">
        <ele>469</ele>
        <time>2021-04-15T12:07:33Z</time>
      </trkpt>
      <trkpt lat="45.27532" lon="4.08863">
        <ele>469</ele>
        <time>2021-04-15T12:07:35Z</time>
      </trkpt>
      <trkpt lat="45.27534" lon="4.08869">
        <ele>469</ele>
        <time>2021-04-15T12:07:36Z</time>
      </trkpt>
      <trkpt lat="45.27536" lon="4.08876">
        <ele>469</ele>
        <time>2021-04-15T12:07:37Z</time>
      </trkpt>
      <trkpt lat="45.27538" lon="4.08883">
        <ele>469</ele>
        <time>2021-04-15T12:07:38Z</time>
      </trkpt>
      <trkpt lat="45.2754" lon="4.0889">
        <ele>469</ele>
        <time>2021-04-15T12:07:39Z</time>
      </trkpt>
      <trkpt lat="45.27542" lon="4.08896">
        <ele>470</ele>
        <time>2021-04-15T12:07:40Z</time>
      </trkpt>
      <trkpt lat="45.27543" lon="4.08903">
        <ele>470</ele>
        <time>2021-04-15T12:07:41Z</time>
      </trkpt>
      <trkpt lat="45.27545" lon="4.0891">
        <ele>470</ele>
        <time>2021-04-15T12:07:42Z</time>
      </trkpt>
      <trkpt lat="45.27546" lon="4.08917">
        <ele>470</ele>
        <time>2021-04-15T12:07:43Z</time>
      </trkpt>
      <trkpt lat="45.27547" lon="4.08924">
        <ele>470</ele>
        <time>2021-04-15T12:07:44Z</time>
      </trkpt>
      <trkpt lat="45.27549" lon="4.08932">
        <ele>470</ele>
        <time>2021-04-15T12:07:45Z</time>
      </trkpt>
      <trkpt lat="45.2755" lon="4.08939">
        <ele>470</ele>
        <time>2021-04-15T12:07:46Z</time>
      </trkpt>
      <trkpt lat="45.27552" lon="4.08947">
        <ele>470</ele>
        <time>2021-04-15T12:07:47Z</time>
      </trkpt>
      <trkpt lat="45.27553" lon="4.08955">
        <ele>470</ele>
        <time>2021-04-15T12:07:48Z</time>
      </trkpt>
      <trkpt lat="45.27554" lon="4.08961">
        <ele>470</ele>
        <time>2021-04-15T12:07:49Z</time>
      </trkpt>
      <trkpt lat="45.27556" lon="4.08968">
        <ele>470</ele>
        <time>2021-04-15T12:07:50Z</time>
      </trkpt>
      <trkpt lat="45.27558" lon="4.08974">
        <ele>470</ele>
        <time>2021-04-15T12:07:51Z</time>
      </trkpt>
      <trkpt lat="45.2756" lon="4.08989">
        <ele>470</ele>
        <time>2021-04-15T12:07:52Z</time>
      </trkpt>
      <trkpt lat="45.27562" lon="4.08997">
        <ele>470</ele>
        <time>2021-04-15T12:07:54Z</time>
      </trkpt>
      <trkpt lat="45.27563" lon="4.09004">
        <ele>471</ele>
        <time>2021-04-15T12:07:55Z</time>
      </trkpt>
      <trkpt lat="45.27564" lon="4.09011">
        <ele>471</ele>
        <time>2021-04-15T12:07:56Z</time>
      </trkpt>
      <trkpt lat="45.27566" lon="4.09019">
        <ele>471</ele>
        <time>2021-04-15T12:07:57Z</time>
      </trkpt>
      <trkpt lat="45.27567" lon="4.09027">
        <ele>471</ele>
        <time>2021-04-15T12:07:58Z</time>
      </trkpt>
      <trkpt lat="45.27568" lon="4.09035">
        <ele>471</ele>
        <time>2021-04-15T12:07:59Z</time>
      </trkpt>
      <trkpt lat="45.2757" lon="4.09043">
        <ele>471</ele>
        <time>2021-04-15T12:08:00Z</time>
      </trkpt>
      <trkpt lat="45.27571" lon="4.09052">
        <ele>471</ele>
        <time>2021-04-15T12:08:01Z</time>
      </trkpt>
      <trkpt lat="45.27572" lon="4.09061">
        <ele>471</ele>
        <time>2021-04-15T12:08:02Z</time>
      </trkpt>
      <trkpt lat="45.27572" lon="4.0907">
        <ele>471</ele>
        <time>2021-04-15T12:08:03Z</time>
      </trkpt>
      <trkpt lat="45.27574" lon="4.09079">
        <ele>471</ele>
        <time>2021-04-15T12:08:04Z</time>
      </trkpt>
      <trkpt lat="45.27575" lon="4.09087">
        <ele>471</ele>
        <time>2021-04-15T12:08:05Z</time>
      </trkpt>
      <trkpt lat="45.27576" lon="4.09095">
        <ele>471</ele>
        <time>2021-04-15T12:08:06Z</time>
      </trkpt>
      <trkpt lat="45.27576" lon="4.09103">
        <ele>471</ele>
        <time>2021-04-15T12:08:07Z</time>
      </trkpt>
      <trkpt lat="45.27577" lon="4.09112">
        <ele>471</ele>
        <time>2021-04-15T12:08:08Z</time>
      </trkpt>
      <trkpt lat="45.27578" lon="4.09121">
        <ele>471</ele>
        <time>2021-04-15T12:08:09Z</time>
      </trkpt>
      <trkpt lat="45.27579" lon="4.09129">
        <ele>471</ele>
        <time>2021-04-15T12:08:10Z</time>
      </trkpt>
      <trkpt lat="45.2758" lon="4.09145">
        <ele>471</ele>
        <time>2021-04-15T12:08:11Z</time>
      </trkpt>
      <trkpt lat="45.2758" lon="4.09154">
        <ele>470</ele>
        <time>2021-04-15T12:08:13Z</time>
      </trkpt>
      <trkpt lat="45.2758" lon="4.09163">
        <ele>471</ele>
        <time>2021-04-15T12:08:14Z</time>
      </trkpt>
      <trkpt lat="45.2758" lon="4.09171">
        <ele>470</ele>
        <time>2021-04-15T12:08:15Z</time>
      </trkpt>
      <trkpt lat="45.27579" lon="4.0918">
        <ele>470</ele>
        <time>2021-04-15T12:08:16Z</time>
      </trkpt>
      <trkpt lat="45.27579" lon="4.09188">
        <ele>470</ele>
        <time>2021-04-15T12:08:17Z</time>
      </trkpt>
      <trkpt lat="45.27578" lon="4.09196">
        <ele>470</ele>
        <time>2021-04-15T12:08:18Z</time>
      </trkpt>
      <trkpt lat="45.27577" lon="4.09205">
        <ele>469</ele>
        <time>2021-04-15T12:08:19Z</time>
      </trkpt>
      <trkpt lat="45.27577" lon="4.09213">
        <ele>469</ele>
        <time>2021-04-15T12:08:20Z</time>
      </trkpt>
      <trkpt lat="45.27577" lon="4.09221">
        <ele>469</ele>
        <time>2021-04-15T12:08:21Z</time>
      </trkpt>
      <trkpt lat="45.27578" lon="4.09229">
        <ele>469</ele>
        <time>2021-04-15T12:08:22Z</time>
      </trkpt>
      <trkpt lat="45.27579" lon="4.09238">
        <ele>469</ele>
        <time>2021-04-15T12:08:23Z</time>
      </trkpt>
      <trkpt lat="45.2758" lon="4.09246">
        <ele>469</ele>
        <time>2021-04-15T12:08:24Z</time>
      </trkpt>
      <trkpt lat="45.27581" lon="4.09255">
        <ele>469</ele>
        <time>2021-04-15T12:08:25Z</time>
      </trkpt>
      <trkpt lat="45.27582" lon="4.09263">
        <ele>469</ele>
        <time>2021-04-15T12:08:26Z</time>
      </trkpt>
      <trkpt lat="45.27583" lon="4.09272">
        <ele>469</ele>
        <time>2021-04-15T12:08:27Z</time>
      </trkpt>
      <trkpt lat="45.27585" lon="4.0928">
        <ele>468</ele>
        <time>2021-04-15T12:08:28Z</time>
      </trkpt>
      <trkpt lat="45.27586" lon="4.09289">
        <ele>468</ele>
        <time>2021-04-15T12:08:29Z</time>
      </trkpt>
      <trkpt lat="45.27587" lon="4.09297">
        <ele>468</ele>
        <time>2021-04-15T12:08:30Z</time>
      </trkpt>
      <trkpt lat="45.27588" lon="4.09306">
        <ele>468</ele>
        <time>2021-04-15T12:08:31Z</time>
      </trkpt>
      <trkpt lat="45.2759" lon="4.09314">
        <ele>468</ele>
        <time>2021-04-15T12:08:32Z</time>
      </trkpt>
      <trkpt lat="45.27592" lon="4.09322">
        <ele>468</ele>
        <time>2021-04-15T12:08:33Z</time>
      </trkpt>
      <trkpt lat="45.27594" lon="4.09331">
        <ele>467</ele>
        <time>2021-04-15T12:08:34Z</time>
      </trkpt>
      <trkpt lat="45.27595" lon="4.09339">
        <ele>467</ele>
        <time>2021-04-15T12:08:35Z</time>
      </trkpt>
      <trkpt lat="45.27597" lon="4.09348">
        <ele>467</ele>
        <time>2021-04-15T12:08:36Z</time>
      </trkpt>
      <trkpt lat="45.27598" lon="4.09357">
        <ele>467</ele>
        <time>2021-04-15T12:08:37Z</time>
      </trkpt>
      <trkpt lat="45.27599" lon="4.09365">
        <ele>467</ele>
        <time>2021-04-15T12:08:38Z</time>
      </trkpt>
      <trkpt lat="45.27601" lon="4.09374">
        <ele>467</ele>
        <time>2021-04-15T12:08:39Z</time>
      </trkpt>
      <trkpt lat="45.27603" lon="4.09382">
        <ele>467</ele>
        <time>2021-04-15T12:08:40Z</time>
      </trkpt>
      <trkpt lat="45.27606" lon="4.0939">
        <ele>467</ele>
        <time>2021-04-15T12:08:41Z</time>
      </trkpt>
      <trkpt lat="45.27607" lon="4.09399">
        <ele>467</ele>
        <time>2021-04-15T12:08:42Z</time>
      </trkpt>
      <trkpt lat="45.27609" lon="4.09407">
        <ele>467</ele>
        <time>2021-04-15T12:08:43Z</time>
      </trkpt>
      <trkpt lat="45.2761" lon="4.09413">
        <ele>466</ele>
        <time>2021-04-15T12:08:44Z</time>
      </trkpt>
      <trkpt lat="45.27612" lon="4.0942">
        <ele>466</ele>
        <time>2021-04-15T12:08:45Z</time>
      </trkpt>
      <trkpt lat="45.27612" lon="4.09426">
        <ele>466</ele>
        <time>2021-04-15T12:08:46Z</time>
      </trkpt>
      <trkpt lat="45.27611" lon="4.09431">
        <ele>466</ele>
        <time>2021-04-15T12:08:47Z</time>
      </trkpt>
      <trkpt lat="45.2761" lon="4.09437">
        <ele>466</ele>
        <time>2021-04-15T12:08:48Z</time>
      </trkpt>
      <trkpt lat="45.27611" lon="4.09451">
        <ele>466</ele>
        <time>2021-04-15T12:08:49Z</time>
      </trkpt>
      <trkpt lat="45.27613" lon="4.09457">
        <ele>465</ele>
        <time>2021-04-15T12:08:51Z</time>
      </trkpt>
      <trkpt lat="45.27615" lon="4.09464">
        <ele>464</ele>
        <time>2021-04-15T12:08:52Z</time>
      </trkpt>
      <trkpt lat="45.27617" lon="4.0947">
        <ele>464</ele>
        <time>2021-04-15T12:08:53Z</time>
      </trkpt>
      <trkpt lat="45.27619" lon="4.09477">
        <ele>464</ele>
        <time>2021-04-15T12:08:54Z</time>
      </trkpt>
      <trkpt lat="45.27621" lon="4.09484">
        <ele>464</ele>
        <time>2021-04-15T12:08:55Z</time>
      </trkpt>
      <trkpt lat="45.27623" lon="4.09491">
        <ele>464</ele>
        <time>2021-04-15T12:08:56Z</time>
      </trkpt>
      <trkpt lat="45.27625" lon="4.09497">
        <ele>464</ele>
        <time>2021-04-15T12:08:57Z</time>
      </trkpt>
      <trkpt lat="45.27628" lon="4.09504">
        <ele>464</ele>
        <time>2021-04-15T12:08:58Z</time>
      </trkpt>
      <trkpt lat="45.27631" lon="4.0951">
        <ele>463</ele>
        <time>2021-04-15T12:08:59Z</time>
      </trkpt>
      <trkpt lat="45.27634" lon="4.09516">
        <ele>463</ele>
        <time>2021-04-15T12:09:00Z</time>
      </trkpt>
      <trkpt lat="45.27637" lon="4.09521">
        <ele>463</ele>
        <time>2021-04-15T12:09:01Z</time>
      </trkpt>
      <trkpt lat="45.2764" lon="4.09526">
        <ele>463</ele>
        <time>2021-04-15T12:09:02Z</time>
      </trkpt>
      <trkpt lat="45.27643" lon="4.09532">
        <ele>463</ele>
        <time>2021-04-15T12:09:03Z</time>
      </trkpt>
      <trkpt lat="45.27646" lon="4.09538">
        <ele>463</ele>
        <time>2021-04-15T12:09:04Z</time>
      </trkpt>
      <trkpt lat="45.27648" lon="4.09544">
        <ele>463</ele>
        <time>2021-04-15T12:09:05Z</time>
      </trkpt>
      <trkpt lat="45.27651" lon="4.0955">
        <ele>463</ele>
        <time>2021-04-15T12:09:06Z</time>
      </trkpt>
      <trkpt lat="45.27654" lon="4.09555">
        <ele>463</ele>
        <time>2021-04-15T12:09:07Z</time>
      </trkpt>
      <trkpt lat="45.27657" lon="4.09561">
        <ele>463</ele>
        <time>2021-04-15T12:09:08Z</time>
      </trkpt>
      <trkpt lat="45.27661" lon="4.09567">
        <ele>463</ele>
        <time>2021-04-15T12:09:09Z</time>
      </trkpt>
      <trkpt lat="45.27664" lon="4.09573">
        <ele>463</ele>
        <time>2021-04-15T12:09:10Z</time>
      </trkpt>
      <trkpt lat="45.27668" lon="4.09579">
        <ele>463</ele>
        <time>2021-04-15T12:09:11Z</time>
      </trkpt>
      <trkpt lat="45.27671" lon="4.09584">
        <ele>462</ele>
        <time>2021-04-15T12:09:12Z</time>
      </trkpt>
      <trkpt lat="45.27675" lon="4.0959">
        <ele>462</ele>
        <time>2021-04-15T12:09:13Z</time>
      </trkpt>
      <trkpt lat="45.27678" lon="4.09596">
        <ele>462</ele>
        <time>2021-04-15T12:09:14Z</time>
      </trkpt>
      <trkpt lat="45.27681" lon="4.09602">
        <ele>462</ele>
        <time>2021-04-15T12:09:15Z</time>
      </trkpt>
      <trkpt lat="45.27685" lon="4.09608">
        <ele>462</ele>
        <time>2021-04-15T12:09:16Z</time>
      </trkpt>
      <trkpt lat="45.27688" lon="4.09614">
        <ele>461</ele>
        <time>2021-04-15T12:09:17Z</time>
      </trkpt>
      <trkpt lat="45.27691" lon="4.09621">
        <ele>461</ele>
        <time>2021-04-15T12:09:18Z</time>
      </trkpt>
      <trkpt lat="45.27694" lon="4.09627">
        <ele>461</ele>
        <time>2021-04-15T12:09:19Z</time>
      </trkpt>
      <trkpt lat="45.27697" lon="4.09633">
        <ele>461</ele>
        <time>2021-04-15T12:09:20Z</time>
      </trkpt>
      <trkpt lat="45.277" lon="4.0964">
        <ele>460</ele>
        <time>2021-04-15T12:09:21Z</time>
      </trkpt>
      <trkpt lat="45.27702" lon="4.09647">
        <ele>460</ele>
        <time>2021-04-15T12:09:22Z</time>
      </trkpt>
      <trkpt lat="45.27705" lon="4.09653">
        <ele>460</ele>
        <time>2021-04-15T12:09:23Z</time>
      </trkpt>
      <trkpt lat="45.27708" lon="4.0966">
        <ele>460</ele>
        <time>2021-04-15T12:09:24Z</time>
      </trkpt>
      <trkpt lat="45.2771" lon="4.09667">
        <ele>460</ele>
        <time>2021-04-15T12:09:25Z</time>
      </trkpt>
      <trkpt lat="45.27713" lon="4.09674">
        <ele>459</ele>
        <time>2021-04-15T12:09:26Z</time>
      </trkpt>
      <trkpt lat="45.27719" lon="4.09686">
        <ele>459</ele>
        <time>2021-04-15T12:09:27Z</time>
      </trkpt>
      <trkpt lat="45.27722" lon="4.09692">
        <ele>459</ele>
        <time>2021-04-15T12:09:29Z</time>
      </trkpt>
      <trkpt lat="45.27726" lon="4.09697">
        <ele>459</ele>
        <time>2021-04-15T12:09:30Z</time>
      </trkpt>
      <trkpt lat="45.27729" lon="4.09703">
        <ele>459</ele>
        <time>2021-04-15T12:09:31Z</time>
      </trkpt>
      <trkpt lat="45.27733" lon="4.09708">
        <ele>459</ele>
        <time>2021-04-15T12:09:32Z</time>
      </trkpt>
      <trkpt lat="45.27736" lon="4.09713">
        <ele>459</ele>
        <time>2021-04-15T12:09:33Z</time>
      </trkpt>
      <trkpt lat="45.2774" lon="4.09719">
        <ele>459</ele>
        <time>2021-04-15T12:09:34Z</time>
      </trkpt>
      <trkpt lat="45.27743" lon="4.09724">
        <ele>459</ele>
        <time>2021-04-15T12:09:35Z</time>
      </trkpt>
      <trkpt lat="45.27746" lon="4.0973">
        <ele>459</ele>
        <time>2021-04-15T12:09:36Z</time>
      </trkpt>
      <trkpt lat="45.2775" lon="4.09736">
        <ele>459</ele>
        <time>2021-04-15T12:09:37Z</time>
      </trkpt>
      <trkpt lat="45.27754" lon="4.09741">
        <ele>459</ele>
        <time>2021-04-15T12:09:38Z</time>
      </trkpt>
      <trkpt lat="45.27758" lon="4.09747">
        <ele>459</ele>
        <time>2021-04-15T12:09:39Z</time>
      </trkpt>
      <trkpt lat="45.27761" lon="4.09753">
        <ele>459</ele>
        <time>2021-04-15T12:09:40Z</time>
      </trkpt>
      <trkpt lat="45.27765" lon="4.09758">
        <ele>459</ele>
        <time>2021-04-15T12:09:41Z</time>
      </trkpt>
      <trkpt lat="45.27769" lon="4.09763">
        <ele>459</ele>
        <time>2021-04-15T12:09:42Z</time>
      </trkpt>
      <trkpt lat="45.27773" lon="4.09768">
        <ele>459</ele>
        <time>2021-04-15T12:09:43Z</time>
      </trkpt>
      <trkpt lat="45.27778" lon="4.09773">
        <ele>459</ele>
        <time>2021-04-15T12:09:44Z</time>
      </trkpt>
      <trkpt lat="45.27781" lon="4.09777">
        <ele>459</ele>
        <time>2021-04-15T12:09:45Z</time>
      </trkpt>
      <trkpt lat="45.27789" lon="4.09788">
        <ele>459</ele>
        <time>2021-04-15T12:09:46Z</time>
      </trkpt>
      <trkpt lat="45.27793" lon="4.09793">
        <ele>459</ele>
        <time>2021-04-15T12:09:48Z</time>
      </trkpt>
      <trkpt lat="45.27796" lon="4.09798">
        <ele>459</ele>
        <time>2021-04-15T12:09:49Z</time>
      </trkpt>
      <trkpt lat="45.278" lon="4.09802">
        <ele>459</ele>
        <time>2021-04-15T12:09:50Z</time>
      </trkpt>
      <trkpt lat="45.27804" lon="4.09807">
        <ele>459</ele>
        <time>2021-04-15T12:09:51Z</time>
      </trkpt>
      <trkpt lat="45.27808" lon="4.09813">
        <ele>459</ele>
        <time>2021-04-15T12:09:52Z</time>
      </trkpt>
      <trkpt lat="45.27811" lon="4.09819">
        <ele>459</ele>
        <time>2021-04-15T12:09:53Z</time>
      </trkpt>
      <trkpt lat="45.27815" lon="4.09825">
        <ele>458</ele>
        <time>2021-04-15T12:09:54Z</time>
      </trkpt>
      <trkpt lat="45.27819" lon="4.09832">
        <ele>458</ele>
        <time>2021-04-15T12:09:55Z</time>
      </trkpt>
      <trkpt lat="45.27823" lon="4.09839">
        <ele>458</ele>
        <time>2021-04-15T12:09:56Z</time>
      </trkpt>
      <trkpt lat="45.27827" lon="4.09846">
        <ele>458</ele>
        <time>2021-04-15T12:09:57Z</time>
      </trkpt>
      <trkpt lat="45.2783" lon="4.09852">
        <ele>458</ele>
        <time>2021-04-15T12:09:58Z</time>
      </trkpt>
      <trkpt lat="45.27834" lon="4.09859">
        <ele>457</ele>
        <time>2021-04-15T12:09:59Z</time>
      </trkpt>
      <trkpt lat="45.27838" lon="4.09866">
        <ele>457</ele>
        <time>2021-04-15T12:10:00Z</time>
      </trkpt>
      <trkpt lat="45.27841" lon="4.09872">
        <ele>457</ele>
        <time>2021-04-15T12:10:01Z</time>
      </trkpt>
      <trkpt lat="45.27845" lon="4.09879">
        <ele>457</ele>
        <time>2021-04-15T12:10:02Z</time>
      </trkpt>
      <trkpt lat="45.27848" lon="4.09885">
        <ele>457</ele>
        <time>2021-04-15T12:10:03Z</time>
      </trkpt>
      <trkpt lat="45.27852" lon="4.09892">
        <ele>457</ele>
        <time>2021-04-15T12:10:04Z</time>
      </trkpt>
      <trkpt lat="45.27855" lon="4.09899">
        <ele>457</ele>
        <time>2021-04-15T12:10:05Z</time>
      </trkpt>
      <trkpt lat="45.27858" lon="4.09905">
        <ele>457</ele>
        <time>2021-04-15T12:10:06Z</time>
      </trkpt>
      <trkpt lat="45.27862" lon="4.09911">
        <ele>457</ele>
        <time>2021-04-15T12:10:07Z</time>
      </trkpt>
      <trkpt lat="45.27866" lon="4.09917">
        <ele>457</ele>
        <time>2021-04-15T12:10:08Z</time>
      </trkpt>
      <trkpt lat="45.2787" lon="4.09923">
        <ele>457</ele>
        <time>2021-04-15T12:10:09Z</time>
      </trkpt>
      <trkpt lat="45.27874" lon="4.09928">
        <ele>457</ele>
        <time>2021-04-15T12:10:10Z</time>
      </trkpt>
      <trkpt lat="45.27878" lon="4.09934">
        <ele>457</ele>
        <time>2021-04-15T12:10:11Z</time>
      </trkpt>
      <trkpt lat="45.27883" lon="4.09939">
        <ele>457</ele>
        <time>2021-04-15T12:10:12Z</time>
      </trkpt>
      <trkpt lat="45.27888" lon="4.09944">
        <ele>457</ele>
        <time>2021-04-15T12:10:13Z</time>
      </trkpt>
      <trkpt lat="45.27892" lon="4.0995">
        <ele>456</ele>
        <time>2021-04-15T12:10:14Z</time>
      </trkpt>
      <trkpt lat="45.27896" lon="4.09955">
        <ele>456</ele>
        <time>2021-04-15T12:10:15Z</time>
      </trkpt>
      <trkpt lat="45.27901" lon="4.0996">
        <ele>456</ele>
        <time>2021-04-15T12:10:16Z</time>
      </trkpt>
      <trkpt lat="45.27906" lon="4.09965">
        <ele>456</ele>
        <time>2021-04-15T12:10:17Z</time>
      </trkpt>
      <trkpt lat="45.2791" lon="4.09969">
        <ele>456</ele>
        <time>2021-04-15T12:10:18Z</time>
      </trkpt>
      <trkpt lat="45.27914" lon="4.09974">
        <ele>456</ele>
        <time>2021-04-15T12:10:19Z</time>
      </trkpt>
      <trkpt lat="45.27919" lon="4.09979">
        <ele>456</ele>
        <time>2021-04-15T12:10:20Z</time>
      </trkpt>
      <trkpt lat="45.27923" lon="4.09983">
        <ele>456</ele>
        <time>2021-04-15T12:10:21Z</time>
      </trkpt>
      <trkpt lat="45.27927" lon="4.09988">
        <ele>456</ele>
        <time>2021-04-15T12:10:22Z</time>
      </trkpt>
      <trkpt lat="45.27932" lon="4.09992">
        <ele>456</ele>
        <time>2021-04-15T12:10:23Z</time>
      </trkpt>
      <trkpt lat="45.2794" lon="4.10002">
        <ele>456</ele>
        <time>2021-04-15T12:10:24Z</time>
      </trkpt>
      <trkpt lat="45.27944" lon="4.10006">
        <ele>456</ele>
        <time>2021-04-15T12:10:26Z</time>
      </trkpt>
      <trkpt lat="45.27949" lon="4.10011">
        <ele>456</ele>
        <time>2021-04-15T12:10:27Z</time>
      </trkpt>
      <trkpt lat="45.27953" lon="4.10016">
        <ele>456</ele>
        <time>2021-04-15T12:10:28Z</time>
      </trkpt>
      <trkpt lat="45.27957" lon="4.10021">
        <ele>456</ele>
        <time>2021-04-15T12:10:29Z</time>
      </trkpt>
      <trkpt lat="45.27962" lon="4.10026">
        <ele>456</ele>
        <time>2021-04-15T12:10:30Z</time>
      </trkpt>
      <trkpt lat="45.27966" lon="4.10031">
        <ele>456</ele>
        <time>2021-04-15T12:10:31Z</time>
      </trkpt>
      <trkpt lat="45.27971" lon="4.10035">
        <ele>456</ele>
        <time>2021-04-15T12:10:32Z</time>
      </trkpt>
      <trkpt lat="45.27976" lon="4.10039">
        <ele>456</ele>
        <time>2021-04-15T12:10:33Z</time>
      </trkpt>
      <trkpt lat="45.27981" lon="4.10043">
        <ele>456</ele>
        <time>2021-04-15T12:10:34Z</time>
      </trkpt>
      <trkpt lat="45.27986" lon="4.10045">
        <ele>456</ele>
        <time>2021-04-15T12:10:35Z</time>
      </trkpt>
      <trkpt lat="45.27992" lon="4.10048">
        <ele>456</ele>
        <time>2021-04-15T12:10:36Z</time>
      </trkpt>
      <trkpt lat="45.27997" lon="4.1005">
        <ele>456</ele>
        <time>2021-04-15T12:10:37Z</time>
      </trkpt>
      <trkpt lat="45.28003" lon="4.10051">
        <ele>456</ele>
        <time>2021-04-15T12:10:38Z</time>
      </trkpt>
      <trkpt lat="45.28008" lon="4.10053">
        <ele>456</ele>
        <time>2021-04-15T12:10:39Z</time>
      </trkpt>
      <trkpt lat="45.28014" lon="4.10054">
        <ele>456</ele>
        <time>2021-04-15T12:10:40Z</time>
      </trkpt>
      <trkpt lat="45.28019" lon="4.10056">
        <ele>456</ele>
        <time>2021-04-15T12:10:41Z</time>
      </trkpt>
      <trkpt lat="45.28025" lon="4.10057">
        <ele>456</ele>
        <time>2021-04-15T12:10:42Z</time>
      </trkpt>
      <trkpt lat="45.2803" lon="4.10058">
        <ele>456</ele>
        <time>2021-04-15T12:10:43Z</time>
      </trkpt>
      <trkpt lat="45.28036" lon="4.1006">
        <ele>456</ele>
        <time>2021-04-15T12:10:44Z</time>
      </trkpt>
      <trkpt lat="45.28041" lon="4.10062">
        <ele>456</ele>
        <time>2021-04-15T12:10:45Z</time>
      </trkpt>
      <trkpt lat="45.28046" lon="4.10065">
        <ele>456</ele>
        <time>2021-04-15T12:10:46Z</time>
      </trkpt>
      <trkpt lat="45.28052" lon="4.10067">
        <ele>456</ele>
        <time>2021-04-15T12:10:47Z</time>
      </trkpt>
      <trkpt lat="45.28057" lon="4.10069">
        <ele>456</ele>
        <time>2021-04-15T12:10:48Z</time>
      </trkpt>
      <trkpt lat="45.28063" lon="4.10071">
        <ele>456</ele>
        <time>2021-04-15T12:10:49Z</time>
      </trkpt>
      <trkpt lat="45.28068" lon="4.10073">
        <ele>456</ele>
        <time>2021-04-15T12:10:50Z</time>
      </trkpt>
      <trkpt lat="45.28073" lon="4.10075">
        <ele>456</ele>
        <time>2021-04-15T12:10:51Z</time>
      </trkpt>
      <trkpt lat="45.28079" lon="4.10078">
        <ele>456</ele>
        <time>2021-04-15T12:10:52Z</time>
      </trkpt>
      <trkpt lat="45.28084" lon="4.1008">
        <ele>456</ele>
        <time>2021-04-15T12:10:53Z</time>
      </trkpt>
      <trkpt lat="45.28089" lon="4.10083">
        <ele>456</ele>
        <time>2021-04-15T12:10:54Z</time>
      </trkpt>
      <trkpt lat="45.28094" lon="4.10086">
        <ele>456</ele>
        <time>2021-04-15T12:10:55Z</time>
      </trkpt>
      <trkpt lat="45.28099" lon="4.10089">
        <ele>456</ele>
        <time>2021-04-15T12:10:56Z</time>
      </trkpt>
      <trkpt lat="45.28104" lon="4.10092">
        <ele>456</ele>
        <time>2021-04-15T12:10:57Z</time>
      </trkpt>
      <trkpt lat="45.28109" lon="4.10096">
        <ele>456</ele>
        <time>2021-04-15T12:10:58Z</time>
      </trkpt>
      <trkpt lat="45.28114" lon="4.10101">
        <ele>456</ele>
        <time>2021-04-15T12:10:59Z</time>
      </trkpt>
      <trkpt lat="45.28119" lon="4.10105">
        <ele>456</ele>
        <time>2021-04-15T12:11:00Z</time>
      </trkpt>
      <trkpt lat="45.28123" lon="4.10109">
        <ele>456</ele>
        <time>2021-04-15T12:11:01Z</time>
      </trkpt>
      <trkpt lat="45.28128" lon="4.10114">
        <ele>456</ele>
        <time>2021-04-15T12:11:02Z</time>
      </trkpt>
      <trkpt lat="45.28132" lon="4.10118">
        <ele>456</ele>
        <time>2021-04-15T12:11:03Z</time>
      </trkpt>
      <trkpt lat="45.28136" lon="4.10122">
        <ele>456</ele>
        <time>2021-04-15T12:11:04Z</time>
      </trkpt>
      <trkpt lat="45.28141" lon="4.10127">
        <ele>456</ele>
        <time>2021-04-15T12:11:05Z</time>
      </trkpt>
      <trkpt lat="45.28145" lon="4.10131">
        <ele>456</ele>
        <time>2021-04-15T12:11:06Z</time>
      </trkpt>
      <trkpt lat="45.2815" lon="4.10134">
        <ele>455</ele>
        <time>2021-04-15T12:11:07Z</time>
      </trkpt>
      <trkpt lat="45.28155" lon="4.10138">
        <ele>455</ele>
        <time>2021-04-15T12:11:08Z</time>
      </trkpt>
      <trkpt lat="45.28159" lon="4.1014">
        <ele>455</ele>
        <time>2021-04-15T12:11:09Z</time>
      </trkpt>
      <trkpt lat="45.28164" lon="4.10143">
        <ele>455</ele>
        <time>2021-04-15T12:11:10Z</time>
      </trkpt>
      <trkpt lat="45.28169" lon="4.10146">
        <ele>455</ele>
        <time>2021-04-15T12:11:11Z</time>
      </trkpt>
      <trkpt lat="45.28174" lon="4.10148">
        <ele>455</ele>
        <time>2021-04-15T12:11:12Z</time>
      </trkpt>
      <trkpt lat="45.28178" lon="4.1015">
        <ele>456</ele>
        <time>2021-04-15T12:11:13Z</time>
      </trkpt>
      <trkpt lat="45.28183" lon="4.10152">
        <ele>456</ele>
        <time>2021-04-15T12:11:14Z</time>
      </trkpt>
      <trkpt lat="45.28187" lon="4.10154">
        <ele>456</ele>
        <time>2021-04-15T12:11:15Z</time>
      </trkpt>
      <trkpt lat="45.28192" lon="4.10156">
        <ele>456</ele>
        <time>2021-04-15T12:11:16Z</time>
      </trkpt>
      <trkpt lat="45.28196" lon="4.10158">
        <ele>456</ele>
        <time>2021-04-15T12:11:17Z</time>
      </trkpt>
      <trkpt lat="45.282" lon="4.10159">
        <ele>456</ele>
        <time>2021-04-15T12:11:18Z</time>
      </trkpt>
      <trkpt lat="45.28204" lon="4.1016">
        <ele>456</ele>
        <time>2021-04-15T12:11:19Z</time>
      </trkpt>
      <trkpt lat="45.28208" lon="4.10161">
        <ele>456</ele>
        <time>2021-04-15T12:11:20Z</time>
      </trkpt>
      <trkpt lat="45.28212" lon="4.1016">
        <ele>456</ele>
        <time>2021-04-15T12:11:21Z</time>
      </trkpt>
      <trkpt lat="45.28215" lon="4.10158">
        <ele>457</ele>
        <time>2021-04-15T12:11:22Z</time>
      </trkpt>
      <trkpt lat="45.28218" lon="4.10155">
        <ele>457</ele>
        <time>2021-04-15T12:11:23Z</time>
      </trkpt>
      <trkpt lat="45.28222" lon="4.10152">
        <ele>457</ele>
        <time>2021-04-15T12:11:24Z</time>
      </trkpt>
      <trkpt lat="45.28225" lon="4.10149">
        <ele>457</ele>
        <time>2021-04-15T12:11:25Z</time>
      </trkpt>
      <trkpt lat="45.28228" lon="4.10145">
        <ele>457</ele>
        <time>2021-04-15T12:11:26Z</time>
      </trkpt>
      <trkpt lat="45.28231" lon="4.10141">
        <ele>457</ele>
        <time>2021-04-15T12:11:27Z</time>
      </trkpt>
      <trkpt lat="45.28234" lon="4.10137">
        <ele>457</ele>
        <time>2021-04-15T12:11:28Z</time>
      </trkpt>
      <trkpt lat="45.28237" lon="4.10132">
        <ele>458</ele>
        <time>2021-04-15T12:11:29Z</time>
      </trkpt>
      <trkpt lat="45.2824" lon="4.10128">
        <ele>458</ele>
        <time>2021-04-15T12:11:30Z</time>
      </trkpt>
      <trkpt lat="45.28242" lon="4.10124">
        <ele>458</ele>
        <time>2021-04-15T12:11:31Z</time>
      </trkpt>
      <trkpt lat="45.28245" lon="4.10119">
        <ele>458</ele>
        <time>2021-04-15T12:11:32Z</time>
      </trkpt>
      <trkpt lat="45.28248" lon="4.10115">
        <ele>458</ele>
        <time>2021-04-15T12:11:33Z</time>
      </trkpt>
      <trkpt lat="45.2825" lon="4.10111">
        <ele>458</ele>
        <time>2021-04-15T12:11:34Z</time>
      </trkpt>
      <trkpt lat="45.28253" lon="4.10107">
        <ele>458</ele>
        <time>2021-04-15T12:11:35Z</time>
      </trkpt>
      <trkpt lat="45.28256" lon="4.10102">
        <ele>458</ele>
        <time>2021-04-15T12:11:36Z</time>
      </trkpt>
      <trkpt lat="45.28259" lon="4.10098">
        <ele>458</ele>
        <time>2021-04-15T12:11:37Z</time>
      </trkpt>
      <trkpt lat="45.28262" lon="4.10095">
        <ele>458</ele>
        <time>2021-04-15T12:11:38Z</time>
      </trkpt>
      <trkpt lat="45.28266" lon="4.10091">
        <ele>458</ele>
        <time>2021-04-15T12:11:39Z</time>
      </trkpt>
      <trkpt lat="45.28268" lon="4.10088">
        <ele>458</ele>
        <time>2021-04-15T12:11:40Z</time>
      </trkpt>
      <trkpt lat="45.28272" lon="4.10084">
        <ele>458</ele>
        <time>2021-04-15T12:11:41Z</time>
      </trkpt>
      <trkpt lat="45.28275" lon="4.10081">
        <ele>458</ele>
        <time>2021-04-15T12:11:42Z</time>
      </trkpt>
      <trkpt lat="45.28278" lon="4.10077">
        <ele>459</ele>
        <time>2021-04-15T12:11:43Z</time>
      </trkpt>
      <trkpt lat="45.28281" lon="4.10074">
        <ele>459</ele>
        <time>2021-04-15T12:11:44Z</time>
      </trkpt>
      <trkpt lat="45.28284" lon="4.10071">
        <ele>459</ele>
        <time>2021-04-15T12:11:45Z</time>
      </trkpt>
      <trkpt lat="45.28287" lon="4.10068">
        <ele>459</ele>
        <time>2021-04-15T12:11:46Z</time>
      </trkpt>
      <trkpt lat="45.28289" lon="4.10065">
        <ele>460</ele>
        <time>2021-04-15T12:11:47Z</time>
      </trkpt>
      <trkpt lat="45.28292" lon="4.10062">
        <ele>460</ele>
        <time>2021-04-15T12:11:48Z</time>
      </trkpt>
      <trkpt lat="45.28295" lon="4.10059">
        <ele>460</ele>
        <time>2021-04-15T12:11:49Z</time>
      </trkpt>
      <trkpt lat="45.28297" lon="4.10056">
        <ele>460</ele>
        <time>2021-04-15T12:11:50Z</time>
      </trkpt>
      <trkpt lat="45.283" lon="4.10053">
        <ele>460</ele>
        <time>2021-04-15T12:11:51Z</time>
      </trkpt>
      <trkpt lat="45.28303" lon="4.1005">
        <ele>460</ele>
        <time>2021-04-15T12:11:52Z</time>
      </trkpt>
      <trkpt lat="45.28305" lon="4.10047">
        <ele>460</ele>
        <time>2021-04-15T12:11:53Z</time>
      </trkpt>
      <trkpt lat="45.28308" lon="4.10043">
        <ele>461</ele>
        <time>2021-04-15T12:11:54Z</time>
      </trkpt>
      <trkpt lat="45.2831" lon="4.10039">
        <ele>461</ele>
        <time>2021-04-15T12:11:55Z</time>
      </trkpt>
      <trkpt lat="45.28312" lon="4.10035">
        <ele>461</ele>
        <time>2021-04-15T12:11:56Z</time>
      </trkpt>
      <trkpt lat="45.28313" lon="4.10031">
        <ele>461</ele>
        <time>2021-04-15T12:11:57Z</time>
      </trkpt>
      <trkpt lat="45.28315" lon="4.10026">
        <ele>462</ele>
        <time>2021-04-15T12:11:58Z</time>
      </trkpt>
      <trkpt lat="45.28316" lon="4.10022">
        <ele>462</ele>
        <time>2021-04-15T12:11:59Z</time>
      </trkpt>
      <trkpt lat="45.28317" lon="4.10018">
        <ele>462</ele>
        <time>2021-04-15T12:12:00Z</time>
      </trkpt>
      <trkpt lat="45.28318" lon="4.10014">
        <ele>462</ele>
        <time>2021-04-15T12:12:01Z</time>
      </trkpt>
      <trkpt lat="45.28318" lon="4.1001">
        <ele>462</ele>
        <time>2021-04-15T12:12:02Z</time>
      </trkpt>
      <trkpt lat="45.28319" lon="4.10007">
        <ele>463</ele>
        <time>2021-04-15T12:12:03Z</time>
      </trkpt>
      <trkpt lat="45.2832" lon="4.10004">
        <ele>463</ele>
        <time>2021-04-15T12:12:04Z</time>
      </trkpt>
      <trkpt lat="45.28321" lon="4.1">
        <ele>463</ele>
        <time>2021-04-15T12:12:05Z</time>
      </trkpt>
      <trkpt lat="45.28322" lon="4.09997">
        <ele>463</ele>
        <time>2021-04-15T12:12:06Z</time>
      </trkpt>
      <trkpt lat="45.28324" lon="4.09993">
        <ele>463</ele>
        <time>2021-04-15T12:12:07Z</time>
      </trkpt>
      <trkpt lat="45.28326" lon="4.0999">
        <ele>464</ele>
        <time>2021-04-15T12:12:08Z</time>
      </trkpt>
      <trkpt lat="45.28328" lon="4.09987">
        <ele>464</ele>
        <time>2021-04-15T12:12:09Z</time>
      </trkpt>
      <trkpt lat="45.28329" lon="4.09983">
        <ele>464</ele>
        <time>2021-04-15T12:12:10Z</time>
      </trkpt>
      <trkpt lat="45.2833" lon="4.0998">
        <ele>464</ele>
        <time>2021-04-15T12:12:11Z</time>
      </trkpt>
      <trkpt lat="45.28331" lon="4.09977">
        <ele>464</ele>
        <time>2021-04-15T12:12:12Z</time>
      </trkpt>
      <trkpt lat="45.28332" lon="4.09974">
        <ele>465</ele>
        <time>2021-04-15T12:12:13Z</time>
      </trkpt>
      <trkpt lat="45.28334" lon="4.09971">
        <ele>465</ele>
        <time>2021-04-15T12:12:14Z</time>
      </trkpt>
      <trkpt lat="45.28335" lon="4.09968">
        <ele>465</ele>
        <time>2021-04-15T12:12:15Z</time>
      </trkpt>
      <trkpt lat="45.28337" lon="4.09964">
        <ele>465</ele>
        <time>2021-04-15T12:12:16Z</time>
      </trkpt>
      <trkpt lat="45.28338" lon="4.09961">
        <ele>465</ele>
        <time>2021-04-15T12:12:17Z</time>
      </trkpt>
      <trkpt lat="45.2834" lon="4.09957">
        <ele>465</ele>
        <time>2021-04-15T12:12:18Z</time>
      </trkpt>
      <trkpt lat="45.28342" lon="4.09953">
        <ele>466</ele>
        <time>2021-04-15T12:12:19Z</time>
      </trkpt>
      <trkpt lat="45.28343" lon="4.0995">
        <ele>466</ele>
        <time>2021-04-15T12:12:20Z</time>
      </trkpt>
      <trkpt lat="45.28345" lon="4.09946">
        <ele>466</ele>
        <time>2021-04-15T12:12:21Z</time>
      </trkpt>
      <trkpt lat="45.28347" lon="4.09943">
        <ele>466</ele>
        <time>2021-04-15T12:12:22Z</time>
      </trkpt>
      <trkpt lat="45.28349" lon="4.0994">
        <ele>466</ele>
        <time>2021-04-15T12:12:23Z</time>
      </trkpt>
      <trkpt lat="45.28352" lon="4.09938">
        <ele>467</ele>
        <time>2021-04-15T12:12:24Z</time>
      </trkpt>
      <trkpt lat="45.28354" lon="4.09935">
        <ele>467</ele>
        <time>2021-04-15T12:12:25Z</time>
      </trkpt>
      <trkpt lat="45.28357" lon="4.09932">
        <ele>467</ele>
        <time>2021-04-15T12:12:26Z</time>
      </trkpt>
      <trkpt lat="45.2836" lon="4.0993">
        <ele>467</ele>
        <time>2021-04-15T12:12:27Z</time>
      </trkpt>
      <trkpt lat="45.28362" lon="4.09928">
        <ele>467</ele>
        <time>2021-04-15T12:12:28Z</time>
      </trkpt>
      <trkpt lat="45.28365" lon="4.09926">
        <ele>468</ele>
        <time>2021-04-15T12:12:29Z</time>
      </trkpt>
      <trkpt lat="45.28367" lon="4.09923">
        <ele>468</ele>
        <time>2021-04-15T12:12:30Z</time>
      </trkpt>
      <trkpt lat="45.2837" lon="4.09921">
        <ele>468</ele>
        <time>2021-04-15T12:12:31Z</time>
      </trkpt>
      <trkpt lat="45.28373" lon="4.09918">
        <ele>468</ele>
        <time>2021-04-15T12:12:32Z</time>
      </trkpt>
      <trkpt lat="45.28376" lon="4.09916">
        <ele>469</ele>
        <time>2021-04-15T12:12:33Z</time>
      </trkpt>
      <trkpt lat="45.28378" lon="4.09912">
        <ele>469</ele>
        <time>2021-04-15T12:12:34Z</time>
      </trkpt>
      <trkpt lat="45.28381" lon="4.0991">
        <ele>469</ele>
        <time>2021-04-15T12:12:35Z</time>
      </trkpt>
      <trkpt lat="45.28384" lon="4.09907">
        <ele>470</ele>
        <time>2021-04-15T12:12:36Z</time>
      </trkpt>
      <trkpt lat="45.28386" lon="4.09904">
        <ele>470</ele>
        <time>2021-04-15T12:12:37Z</time>
      </trkpt>
      <trkpt lat="45.28389" lon="4.09902">
        <ele>470</ele>
        <time>2021-04-15T12:12:38Z</time>
      </trkpt>
      <trkpt lat="45.28392" lon="4.09899">
        <ele>470</ele>
        <time>2021-04-15T12:12:39Z</time>
      </trkpt>
      <trkpt lat="45.28395" lon="4.09897">
        <ele>470</ele>
        <time>2021-04-15T12:12:40Z</time>
      </trkpt>
      <trkpt lat="45.28398" lon="4.09895">
        <ele>470</ele>
        <time>2021-04-15T12:12:41Z</time>
      </trkpt>
      <trkpt lat="45.28401" lon="4.09893">
        <ele>471</ele>
        <time>2021-04-15T12:12:42Z</time>
      </trkpt>
      <trkpt lat="45.28405" lon="4.09891">
        <ele>471</ele>
        <time>2021-04-15T12:12:43Z</time>
      </trkpt>
      <trkpt lat="45.28408" lon="4.09889">
        <ele>471</ele>
        <time>2021-04-15T12:12:44Z</time>
      </trkpt>
      <trkpt lat="45.28411" lon="4.09887">
        <ele>472</ele>
        <time>2021-04-15T12:12:45Z</time>
      </trkpt>
      <trkpt lat="45.28414" lon="4.09886">
        <ele>472</ele>
        <time>2021-04-15T12:12:46Z</time>
      </trkpt>
      <trkpt lat="45.28417" lon="4.09884">
        <ele>472</ele>
        <time>2021-04-15T12:12:47Z</time>
      </trkpt>
      <trkpt lat="45.2842" lon="4.09883">
        <ele>472</ele>
        <time>2021-04-15T12:12:48Z</time>
      </trkpt>
      <trkpt lat="45.28423" lon="4.09882">
        <ele>473</ele>
        <time>2021-04-15T12:12:49Z</time>
      </trkpt>
      <trkpt lat="45.28426" lon="4.09881">
        <ele>473</ele>
        <time>2021-04-15T12:12:50Z</time>
      </trkpt>
      <trkpt lat="45.28429" lon="4.0988">
        <ele>473</ele>
        <time>2021-04-15T12:12:51Z</time>
      </trkpt>
      <trkpt lat="45.28432" lon="4.09878">
        <ele>474</ele>
        <time>2021-04-15T12:12:52Z</time>
      </trkpt>
      <trkpt lat="45.28435" lon="4.09877">
        <ele>474</ele>
        <time>2021-04-15T12:12:53Z</time>
      </trkpt>
      <trkpt lat="45.28438" lon="4.09875">
        <ele>474</ele>
        <time>2021-04-15T12:12:54Z</time>
      </trkpt>
      <trkpt lat="45.2844" lon="4.09873">
        <ele>475</ele>
        <time>2021-04-15T12:12:55Z</time>
      </trkpt>
      <trkpt lat="45.28443" lon="4.09871">
        <ele>475</ele>
        <time>2021-04-15T12:12:56Z</time>
      </trkpt>
      <trkpt lat="45.28446" lon="4.09869">
        <ele>475</ele>
        <time>2021-04-15T12:12:57Z</time>
      </trkpt>
      <trkpt lat="45.28449" lon="4.09867">
        <ele>475</ele>
        <time>2021-04-15T12:12:58Z</time>
      </trkpt>
      <trkpt lat="45.28452" lon="4.09866">
        <ele>476</ele>
        <time>2021-04-15T12:12:59Z</time>
      </trkpt>
      <trkpt lat="45.28454" lon="4.09865">
        <ele>476</ele>
        <time>2021-04-15T12:13:00Z</time>
      </trkpt>
      <trkpt lat="45.28458" lon="4.09865">
        <ele>477</ele>
        <time>2021-04-15T12:13:01Z</time>
      </trkpt>
      <trkpt lat="45.28461" lon="4.09864">
        <ele>478</ele>
        <time>2021-04-15T12:13:02Z</time>
      </trkpt>
      <trkpt lat="45.28463" lon="4.09863">
        <ele>478</ele>
        <time>2021-04-15T12:13:03Z</time>
      </trkpt>
      <trkpt lat="45.28466" lon="4.09862">
        <ele>478</ele>
        <time>2021-04-15T12:13:04Z</time>
      </trkpt>
      <trkpt lat="45.28469" lon="4.0986">
        <ele>479</ele>
        <time>2021-04-15T12:13:05Z</time>
      </trkpt>
      <trkpt lat="45.28472" lon="4.09859">
        <ele>479</ele>
        <time>2021-04-15T12:13:06Z</time>
      </trkpt>
      <trkpt lat="45.28474" lon="4.09857">
        <ele>479</ele>
        <time>2021-04-15T12:13:07Z</time>
      </trkpt>
      <trkpt lat="45.28477" lon="4.09855">
        <ele>480</ele>
        <time>2021-04-15T12:13:08Z</time>
      </trkpt>
      <trkpt lat="45.2848" lon="4.09852">
        <ele>480</ele>
        <time>2021-04-15T12:13:09Z</time>
      </trkpt>
      <trkpt lat="45.28482" lon="4.0985">
        <ele>480</ele>
        <time>2021-04-15T12:13:10Z</time>
      </trkpt>
      <trkpt lat="45.28484" lon="4.09847">
        <ele>481</ele>
        <time>2021-04-15T12:13:11Z</time>
      </trkpt>
      <trkpt lat="45.28487" lon="4.09845">
        <ele>481</ele>
        <time>2021-04-15T12:13:12Z</time>
      </trkpt>
      <trkpt lat="45.28489" lon="4.09842">
        <ele>481</ele>
        <time>2021-04-15T12:13:13Z</time>
      </trkpt>
      <trkpt lat="45.28491" lon="4.09839">
        <ele>482</ele>
        <time>2021-04-15T12:13:14Z</time>
      </trkpt>
      <trkpt lat="45.28492" lon="4.09836">
        <ele>482</ele>
        <time>2021-04-15T12:13:15Z</time>
      </trkpt>
      <trkpt lat="45.28495" lon="4.09833">
        <ele>483</ele>
        <time>2021-04-15T12:13:16Z</time>
      </trkpt>
      <trkpt lat="45.28498" lon="4.09831">
        <ele>483</ele>
        <time>2021-04-15T12:13:17Z</time>
      </trkpt>
      <trkpt lat="45.28501" lon="4.09829">
        <ele>484</ele>
        <time>2021-04-15T12:13:18Z</time>
      </trkpt>
      <trkpt lat="45.28503" lon="4.09833">
        <ele>484</ele>
        <time>2021-04-15T12:13:20Z</time>
      </trkpt>
      <trkpt lat="45.28503" lon="4.09836">
        <ele>485</ele>
        <time>2021-04-15T12:13:21Z</time>
      </trkpt>
      <trkpt lat="45.28502" lon="4.09839">
        <ele>486</ele>
        <time>2021-04-15T12:13:22Z</time>
      </trkpt>
      <trkpt lat="45.28501" lon="4.09843">
        <ele>486</ele>
        <time>2021-04-15T12:13:23Z</time>
      </trkpt>
      <trkpt lat="45.285" lon="4.09847">
        <ele>487</ele>
        <time>2021-04-15T12:13:24Z</time>
      </trkpt>
      <trkpt lat="45.28498" lon="4.0985">
        <ele>487</ele>
        <time>2021-04-15T12:13:25Z</time>
      </trkpt>
      <trkpt lat="45.28497" lon="4.09853">
        <ele>488</ele>
        <time>2021-04-15T12:13:26Z</time>
      </trkpt>
      <trkpt lat="45.28495" lon="4.09856">
        <ele>488</ele>
        <time>2021-04-15T12:13:27Z</time>
      </trkpt>
      <trkpt lat="45.28494" lon="4.09858">
        <ele>489</ele>
        <time>2021-04-15T12:13:28Z</time>
      </trkpt>
      <trkpt lat="45.28492" lon="4.09859">
        <ele>489</ele>
        <time>2021-04-15T12:13:29Z</time>
      </trkpt>
      <trkpt lat="45.28485" lon="4.09873">
        <ele>491</ele>
        <time>2021-04-15T12:13:32Z</time>
      </trkpt>
      <trkpt lat="45.28479" lon="4.09881">
        <ele>492</ele>
        <time>2021-04-15T12:13:34Z</time>
      </trkpt>
      <trkpt lat="45.28475" lon="4.0989">
        <ele>493</ele>
        <time>2021-04-15T12:13:36Z</time>
      </trkpt>
      <trkpt lat="45.28473" lon="4.09894">
        <ele>494</ele>
        <time>2021-04-15T12:13:37Z</time>
      </trkpt>
      <trkpt lat="45.28473" lon="4.09899">
        <ele>495</ele>
        <time>2021-04-15T12:13:38Z</time>
      </trkpt>
      <trkpt lat="45.28474" lon="4.09903">
        <ele>495</ele>
        <time>2021-04-15T12:13:39Z</time>
      </trkpt>
      <trkpt lat="45.28476" lon="4.09905">
        <ele>496</ele>
        <time>2021-04-15T12:13:40Z</time>
      </trkpt>
      <trkpt lat="45.28479" lon="4.09906">
        <ele>496</ele>
        <time>2021-04-15T12:13:41Z</time>
      </trkpt>
      <trkpt lat="45.28482" lon="4.09905">
        <ele>497</ele>
        <time>2021-04-15T12:13:42Z</time>
      </trkpt>
      <trkpt lat="45.28485" lon="4.09903">
        <ele>497</ele>
        <time>2021-04-15T12:13:43Z</time>
      </trkpt>
      <trkpt lat="45.28488" lon="4.099">
        <ele>498</ele>
        <time>2021-04-15T12:13:44Z</time>
      </trkpt>
      <trkpt lat="45.28491" lon="4.09898">
        <ele>498</ele>
        <time>2021-04-15T12:13:45Z</time>
      </trkpt>
      <trkpt lat="45.28494" lon="4.09897">
        <ele>498</ele>
        <time>2021-04-15T12:13:46Z</time>
      </trkpt>
      <trkpt lat="45.28497" lon="4.09895">
        <ele>499</ele>
        <time>2021-04-15T12:13:47Z</time>
      </trkpt>
      <trkpt lat="45.28501" lon="4.09894">
        <ele>499</ele>
        <time>2021-04-15T12:13:48Z</time>
      </trkpt>
      <trkpt lat="45.28504" lon="4.09893">
        <ele>499</ele>
        <time>2021-04-15T12:13:49Z</time>
      </trkpt>
      <trkpt lat="45.28506" lon="4.09891">
        <ele>500</ele>
        <time>2021-04-15T12:13:50Z</time>
      </trkpt>
      <trkpt lat="45.28509" lon="4.09889">
        <ele>500</ele>
        <time>2021-04-15T12:13:51Z</time>
      </trkpt>
      <trkpt lat="45.28512" lon="4.09887">
        <ele>500</ele>
        <time>2021-04-15T12:13:52Z</time>
      </trkpt>
      <trkpt lat="45.28515" lon="4.09885">
        <ele>501</ele>
        <time>2021-04-15T12:13:53Z</time>
      </trkpt>
      <trkpt lat="45.28517" lon="4.09883">
        <ele>501</ele>
        <time>2021-04-15T12:13:54Z</time>
      </trkpt>
      <trkpt lat="45.28521" lon="4.09882">
        <ele>502</ele>
        <time>2021-04-15T12:13:55Z</time>
      </trkpt>
      <trkpt lat="45.28523" lon="4.09881">
        <ele>503</ele>
        <time>2021-04-15T12:13:56Z</time>
      </trkpt>
      <trkpt lat="45.28526" lon="4.0988">
        <ele>503</ele>
        <time>2021-04-15T12:13:57Z</time>
      </trkpt>
      <trkpt lat="45.28529" lon="4.09881">
        <ele>504</ele>
        <time>2021-04-15T12:13:58Z</time>
      </trkpt>
      <trkpt lat="45.28531" lon="4.09883">
        <ele>504</ele>
        <time>2021-04-15T12:13:59Z</time>
      </trkpt>
      <trkpt lat="45.28533" lon="4.09886">
        <ele>505</ele>
        <time>2021-04-15T12:14:00Z</time>
      </trkpt>
      <trkpt lat="45.28535" lon="4.0989">
        <ele>505</ele>
        <time>2021-04-15T12:14:01Z</time>
      </trkpt>
      <trkpt lat="45.28536" lon="4.09894">
        <ele>506</ele>
        <time>2021-04-15T12:14:02Z</time>
      </trkpt>
      <trkpt lat="45.28539" lon="4.09898">
        <ele>506</ele>
        <time>2021-04-15T12:14:03Z</time>
      </trkpt>
      <trkpt lat="45.28541" lon="4.09901">
        <ele>507</ele>
        <time>2021-04-15T12:14:04Z</time>
      </trkpt>
      <trkpt lat="45.28542" lon="4.09905">
        <ele>507</ele>
        <time>2021-04-15T12:14:05Z</time>
      </trkpt>
      <trkpt lat="45.28544" lon="4.09909">
        <ele>508</ele>
        <time>2021-04-15T12:14:06Z</time>
      </trkpt>
      <trkpt lat="45.28545" lon="4.09912">
        <ele>508</ele>
        <time>2021-04-15T12:14:07Z</time>
      </trkpt>
      <trkpt lat="45.28547" lon="4.09915">
        <ele>509</ele>
        <time>2021-04-15T12:14:08Z</time>
      </trkpt>
      <trkpt lat="45.2855" lon="4.09917">
        <ele>509</ele>
        <time>2021-04-15T12:14:09Z</time>
      </trkpt>
      <trkpt lat="45.28553" lon="4.09918">
        <ele>510</ele>
        <time>2021-04-15T12:14:10Z</time>
      </trkpt>
      <trkpt lat="45.28555" lon="4.09918">
        <ele>510</ele>
        <time>2021-04-15T12:14:11Z</time>
      </trkpt>
      <trkpt lat="45.28558" lon="4.09917">
        <ele>510</ele>
        <time>2021-04-15T12:14:12Z</time>
      </trkpt>
      <trkpt lat="45.2856" lon="4.09916">
        <ele>511</ele>
        <time>2021-04-15T12:14:13Z</time>
      </trkpt>
      <trkpt lat="45.28562" lon="4.09913">
        <ele>511</ele>
        <time>2021-04-15T12:14:14Z</time>
      </trkpt>
      <trkpt lat="45.28563" lon="4.09909">
        <ele>512</ele>
        <time>2021-04-15T12:14:15Z</time>
      </trkpt>
      <trkpt lat="45.28565" lon="4.09905">
        <ele>512</ele>
        <time>2021-04-15T12:14:16Z</time>
      </trkpt>
      <trkpt lat="45.28566" lon="4.09901">
        <ele>513</ele>
        <time>2021-04-15T12:14:17Z</time>
      </trkpt>
      <trkpt lat="45.28566" lon="4.09897">
        <ele>513</ele>
        <time>2021-04-15T12:14:18Z</time>
      </trkpt>
      <trkpt lat="45.28567" lon="4.09893">
        <ele>513</ele>
        <time>2021-04-15T12:14:19Z</time>
      </trkpt>
      <trkpt lat="45.28568" lon="4.09888">
        <ele>514</ele>
        <time>2021-04-15T12:14:20Z</time>
      </trkpt>
      <trkpt lat="45.28569" lon="4.09883">
        <ele>514</ele>
        <time>2021-04-15T12:14:21Z</time>
      </trkpt>
      <trkpt lat="45.28569" lon="4.09878">
        <ele>514</ele>
        <time>2021-04-15T12:14:22Z</time>
      </trkpt>
      <trkpt lat="45.2857" lon="4.09873">
        <ele>515</ele>
        <time>2021-04-15T12:14:23Z</time>
      </trkpt>
      <trkpt lat="45.28571" lon="4.09867">
        <ele>515</ele>
        <time>2021-04-15T12:14:24Z</time>
      </trkpt>
      <trkpt lat="45.28572" lon="4.09862">
        <ele>515</ele>
        <time>2021-04-15T12:14:25Z</time>
      </trkpt>
      <trkpt lat="45.28573" lon="4.09856">
        <ele>515</ele>
        <time>2021-04-15T12:14:26Z</time>
      </trkpt>
      <trkpt lat="45.28573" lon="4.09851">
        <ele>516</ele>
        <time>2021-04-15T12:14:27Z</time>
      </trkpt>
      <trkpt lat="45.28573" lon="4.09845">
        <ele>516</ele>
        <time>2021-04-15T12:14:28Z</time>
      </trkpt>
      <trkpt lat="45.28574" lon="4.0984">
        <ele>516</ele>
        <time>2021-04-15T12:14:29Z</time>
      </trkpt>
      <trkpt lat="45.28574" lon="4.09834">
        <ele>517</ele>
        <time>2021-04-15T12:14:30Z</time>
      </trkpt>
      <trkpt lat="45.28574" lon="4.09829">
        <ele>517</ele>
        <time>2021-04-15T12:14:31Z</time>
      </trkpt>
      <trkpt lat="45.28573" lon="4.09823">
        <ele>517</ele>
        <time>2021-04-15T12:14:32Z</time>
      </trkpt>
      <trkpt lat="45.28572" lon="4.09817">
        <ele>517</ele>
        <time>2021-04-15T12:14:33Z</time>
      </trkpt>
      <trkpt lat="45.2857" lon="4.09811">
        <ele>518</ele>
        <time>2021-04-15T12:14:34Z</time>
      </trkpt>
      <trkpt lat="45.28569" lon="4.09806">
        <ele>518</ele>
        <time>2021-04-15T12:14:35Z</time>
      </trkpt>
      <trkpt lat="45.28567" lon="4.09801">
        <ele>518</ele>
        <time>2021-04-15T12:14:36Z</time>
      </trkpt>
      <trkpt lat="45.28565" lon="4.09795">
        <ele>519</ele>
        <time>2021-04-15T12:14:37Z</time>
      </trkpt>
      <trkpt lat="45.28563" lon="4.0979">
        <ele>519</ele>
        <time>2021-04-15T12:14:38Z</time>
      </trkpt>
      <trkpt lat="45.28562" lon="4.09784">
        <ele>519</ele>
        <time>2021-04-15T12:14:39Z</time>
      </trkpt>
      <trkpt lat="45.2856" lon="4.09779">
        <ele>520</ele>
        <time>2021-04-15T12:14:40Z</time>
      </trkpt>
      <trkpt lat="45.28558" lon="4.09774">
        <ele>520</ele>
        <time>2021-04-15T12:14:41Z</time>
      </trkpt>
      <trkpt lat="45.28557" lon="4.09769">
        <ele>520</ele>
        <time>2021-04-15T12:14:42Z</time>
      </trkpt>
      <trkpt lat="45.28555" lon="4.09763">
        <ele>521</ele>
        <time>2021-04-15T12:14:43Z</time>
      </trkpt>
      <trkpt lat="45.28554" lon="4.09758">
        <ele>521</ele>
        <time>2021-04-15T12:14:44Z</time>
      </trkpt>
      <trkpt lat="45.28553" lon="4.09753">
        <ele>521</ele>
        <time>2021-04-15T12:14:45Z</time>
      </trkpt>
      <trkpt lat="45.28551" lon="4.09748">
        <ele>522</ele>
        <time>2021-04-15T12:14:46Z</time>
      </trkpt>
      <trkpt lat="45.28549" lon="4.09743">
        <ele>522</ele>
        <time>2021-04-15T12:14:47Z</time>
      </trkpt>
      <trkpt lat="45.28548" lon="4.09737">
        <ele>522</ele>
        <time>2021-04-15T12:14:48Z</time>
      </trkpt>
      <trkpt lat="45.28547" lon="4.09732">
        <ele>522</ele>
        <time>2021-04-15T12:14:49Z</time>
      </trkpt>
      <trkpt lat="45.28545" lon="4.09726">
        <ele>523</ele>
        <time>2021-04-15T12:14:50Z</time>
      </trkpt>
      <trkpt lat="45.28544" lon="4.09721">
        <ele>523</ele>
        <time>2021-04-15T12:14:51Z</time>
      </trkpt>
      <trkpt lat="45.28543" lon="4.09715">
        <ele>523</ele>
        <time>2021-04-15T12:14:52Z</time>
      </trkpt>
      <trkpt lat="45.28542" lon="4.0971">
        <ele>523</ele>
        <time>2021-04-15T12:14:53Z</time>
      </trkpt>
      <trkpt lat="45.28541" lon="4.09704">
        <ele>524</ele>
        <time>2021-04-15T12:14:54Z</time>
      </trkpt>
      <trkpt lat="45.2854" lon="4.09698">
        <ele>524</ele>
        <time>2021-04-15T12:14:55Z</time>
      </trkpt>
      <trkpt lat="45.28539" lon="4.09692">
        <ele>524</ele>
        <time>2021-04-15T12:14:56Z</time>
      </trkpt>
      <trkpt lat="45.28538" lon="4.09686">
        <ele>524</ele>
        <time>2021-04-15T12:14:57Z</time>
      </trkpt>
      <trkpt lat="45.28537" lon="4.09679">
        <ele>524</ele>
        <time>2021-04-15T12:14:58Z</time>
      </trkpt>
      <trkpt lat="45.28536" lon="4.09673">
        <ele>524</ele>
        <time>2021-04-15T12:14:59Z</time>
      </trkpt>
      <trkpt lat="45.28534" lon="4.09667">
        <ele>525</ele>
        <time>2021-04-15T12:15:00Z</time>
      </trkpt>
      <trkpt lat="45.28533" lon="4.0966">
        <ele>525</ele>
        <time>2021-04-15T12:15:01Z</time>
      </trkpt>
      <trkpt lat="45.28533" lon="4.09654">
        <ele>525</ele>
        <time>2021-04-15T12:15:02Z</time>
      </trkpt>
      <trkpt lat="45.28532" lon="4.09648">
        <ele>525</ele>
        <time>2021-04-15T12:15:03Z</time>
      </trkpt>
      <trkpt lat="45.2853" lon="4.09642">
        <ele>525</ele>
        <time>2021-04-15T12:15:04Z</time>
      </trkpt>
      <trkpt lat="45.28529" lon="4.09635">
        <ele>525</ele>
        <time>2021-04-15T12:15:05Z</time>
      </trkpt>
      <trkpt lat="45.28528" lon="4.09629">
        <ele>526</ele>
        <time>2021-04-15T12:15:06Z</time>
      </trkpt>
      <trkpt lat="45.28527" lon="4.09622">
        <ele>526</ele>
        <time>2021-04-15T12:15:07Z</time>
      </trkpt>
      <trkpt lat="45.28526" lon="4.09616">
        <ele>526</ele>
        <time>2021-04-15T12:15:08Z</time>
      </trkpt>
      <trkpt lat="45.28525" lon="4.09609">
        <ele>526</ele>
        <time>2021-04-15T12:15:09Z</time>
      </trkpt>
      <trkpt lat="45.28524" lon="4.09603">
        <ele>526</ele>
        <time>2021-04-15T12:15:10Z</time>
      </trkpt>
      <trkpt lat="45.28523" lon="4.09596">
        <ele>527</ele>
        <time>2021-04-15T12:15:11Z</time>
      </trkpt>
      <trkpt lat="45.28521" lon="4.0959">
        <ele>527</ele>
        <time>2021-04-15T12:15:12Z</time>
      </trkpt>
      <trkpt lat="45.2852" lon="4.09584">
        <ele>527</ele>
        <time>2021-04-15T12:15:13Z</time>
      </trkpt>
      <trkpt lat="45.28519" lon="4.09578">
        <ele>527</ele>
        <time>2021-04-15T12:15:14Z</time>
      </trkpt>
      <trkpt lat="45.28518" lon="4.09573">
        <ele>527</ele>
        <time>2021-04-15T12:15:15Z</time>
      </trkpt>
      <trkpt lat="45.28516" lon="4.09568">
        <ele>528</ele>
        <time>2021-04-15T12:15:16Z</time>
      </trkpt>
      <trkpt lat="45.28515" lon="4.09563">
        <ele>528</ele>
        <time>2021-04-15T12:15:17Z</time>
      </trkpt>
      <trkpt lat="45.28514" lon="4.0956">
        <ele>528</ele>
        <time>2021-04-15T12:15:18Z</time>
      </trkpt>
      <trkpt lat="45.28513" lon="4.09556">
        <ele>528</ele>
        <time>2021-04-15T12:15:19Z</time>
      </trkpt>
      <trkpt lat="45.28513" lon="4.09553">
        <ele>528</ele>
        <time>2021-04-15T12:15:20Z</time>
      </trkpt>
      <trkpt lat="45.28514" lon="4.09551">
        <ele>528</ele>
        <time>2021-04-15T12:15:21Z</time>
      </trkpt>
      <trkpt lat="45.28515" lon="4.09549">
        <ele>528</ele>
        <time>2021-04-15T12:15:22Z</time>
      </trkpt>
      <trkpt lat="45.28517" lon="4.09547">
        <ele>528</ele>
        <time>2021-04-15T12:15:23Z</time>
      </trkpt>
      <trkpt lat="45.2852" lon="4.09547">
        <ele>528</ele>
        <time>2021-04-15T12:15:24Z</time>
      </trkpt>
      <trkpt lat="45.28523" lon="4.09547">
        <ele>528</ele>
        <time>2021-04-15T12:15:25Z</time>
      </trkpt>
      <trkpt lat="45.28526" lon="4.09546">
        <ele>528</ele>
        <time>2021-04-15T12:15:26Z</time>
      </trkpt>
      <trkpt lat="45.28529" lon="4.09546">
        <ele>528</ele>
        <time>2021-04-15T12:15:27Z</time>
      </trkpt>
      <trkpt lat="45.28532" lon="4.09545">
        <ele>528</ele>
        <time>2021-04-15T12:15:28Z</time>
      </trkpt>
      <trkpt lat="45.28536" lon="4.09543">
        <ele>528</ele>
        <time>2021-04-15T12:15:29Z</time>
      </trkpt>
      <trkpt lat="45.28539" lon="4.09541">
        <ele>528</ele>
        <time>2021-04-15T12:15:30Z</time>
      </trkpt>
      <trkpt lat="45.28543" lon="4.09539">
        <ele>528</ele>
        <time>2021-04-15T12:15:31Z</time>
      </trkpt>
      <trkpt lat="45.28546" lon="4.09537">
        <ele>528</ele>
        <time>2021-04-15T12:15:32Z</time>
      </trkpt>
      <trkpt lat="45.28551" lon="4.09534">
        <ele>528</ele>
        <time>2021-04-15T12:15:33Z</time>
      </trkpt>
      <trkpt lat="45.28556" lon="4.09532">
        <ele>528</ele>
        <time>2021-04-15T12:15:34Z</time>
      </trkpt>
      <trkpt lat="45.28561" lon="4.0953">
        <ele>528</ele>
        <time>2021-04-15T12:15:35Z</time>
      </trkpt>
      <trkpt lat="45.28566" lon="4.09527">
        <ele>528</ele>
        <time>2021-04-15T12:15:36Z</time>
      </trkpt>
      <trkpt lat="45.28571" lon="4.09525">
        <ele>528</ele>
        <time>2021-04-15T12:15:37Z</time>
      </trkpt>
      <trkpt lat="45.28576" lon="4.09522">
        <ele>528</ele>
        <time>2021-04-15T12:15:38Z</time>
      </trkpt>
      <trkpt lat="45.2858" lon="4.09518">
        <ele>528</ele>
        <time>2021-04-15T12:15:39Z</time>
      </trkpt>
      <trkpt lat="45.28585" lon="4.09514">
        <ele>528</ele>
        <time>2021-04-15T12:15:40Z</time>
      </trkpt>
      <trkpt lat="45.28589" lon="4.09512">
        <ele>528</ele>
        <time>2021-04-15T12:15:41Z</time>
      </trkpt>
      <trkpt lat="45.28593" lon="4.09514">
        <ele>528</ele>
        <time>2021-04-15T12:15:42Z</time>
      </trkpt>
      <trkpt lat="45.28596" lon="4.09517">
        <ele>527</ele>
        <time>2021-04-15T12:15:43Z</time>
      </trkpt>
      <trkpt lat="45.286" lon="4.0952">
        <ele>527</ele>
        <time>2021-04-15T12:15:44Z</time>
      </trkpt>
      <trkpt lat="45.28603" lon="4.09523">
        <ele>527</ele>
        <time>2021-04-15T12:15:45Z</time>
      </trkpt>
      <trkpt lat="45.28606" lon="4.09527">
        <ele>527</ele>
        <time>2021-04-15T12:15:46Z</time>
      </trkpt>
      <trkpt lat="45.28611" lon="4.09532">
        <ele>527</ele>
        <time>2021-04-15T12:15:47Z</time>
      </trkpt>
      <trkpt lat="45.28615" lon="4.09536">
        <ele>526</ele>
        <time>2021-04-15T12:15:48Z</time>
      </trkpt>
      <trkpt lat="45.28618" lon="4.09541">
        <ele>526</ele>
        <time>2021-04-15T12:15:49Z</time>
      </trkpt>
      <trkpt lat="45.28622" lon="4.09544">
        <ele>526</ele>
        <time>2021-04-15T12:15:50Z</time>
      </trkpt>
      <trkpt lat="45.28629" lon="4.09538">
        <ele>525</ele>
        <time>2021-04-15T12:15:53Z</time>
      </trkpt>
      <trkpt lat="45.28632" lon="4.09535">
        <ele>525</ele>
        <time>2021-04-15T12:15:54Z</time>
      </trkpt>
      <trkpt lat="45.28635" lon="4.09535">
        <ele>525</ele>
        <time>2021-04-15T12:15:55Z</time>
      </trkpt>
      <trkpt lat="45.28637" lon="4.09537">
        <ele>525</ele>
        <time>2021-04-15T12:15:56Z</time>
      </trkpt>
      <trkpt lat="45.28639" lon="4.09541">
        <ele>525</ele>
        <time>2021-04-15T12:15:57Z</time>
      </trkpt>
      <trkpt lat="45.28642" lon="4.09544">
        <ele>524</ele>
        <time>2021-04-15T12:15:58Z</time>
      </trkpt>
      <trkpt lat="45.28644" lon="4.09547">
        <ele>524</ele>
        <time>2021-04-15T12:15:59Z</time>
      </trkpt>
      <trkpt lat="45.28646" lon="4.0955">
        <ele>524</ele>
        <time>2021-04-15T12:16:00Z</time>
      </trkpt>
      <trkpt lat="45.28649" lon="4.09553">
        <ele>524</ele>
        <time>2021-04-15T12:16:01Z</time>
      </trkpt>
      <trkpt lat="45.28652" lon="4.09556">
        <ele>523</ele>
        <time>2021-04-15T12:16:02Z</time>
      </trkpt>
      <trkpt lat="45.28656" lon="4.09559">
        <ele>523</ele>
        <time>2021-04-15T12:16:03Z</time>
      </trkpt>
      <trkpt lat="45.2866" lon="4.09564">
        <ele>523</ele>
        <time>2021-04-15T12:16:04Z</time>
      </trkpt>
      <trkpt lat="45.28664" lon="4.09568">
        <ele>522</ele>
        <time>2021-04-15T12:16:05Z</time>
      </trkpt>
      <trkpt lat="45.28667" lon="4.09573">
        <ele>522</ele>
        <time>2021-04-15T12:16:06Z</time>
      </trkpt>
      <trkpt lat="45.2867" lon="4.09577">
        <ele>521</ele>
        <time>2021-04-15T12:16:07Z</time>
      </trkpt>
      <trkpt lat="45.28673" lon="4.09582">
        <ele>521</ele>
        <time>2021-04-15T12:16:08Z</time>
      </trkpt>
      <trkpt lat="45.28675" lon="4.09587">
        <ele>521</ele>
        <time>2021-04-15T12:16:09Z</time>
      </trkpt>
      <trkpt lat="45.28678" lon="4.09592">
        <ele>521</ele>
        <time>2021-04-15T12:16:10Z</time>
      </trkpt>
      <trkpt lat="45.2868" lon="4.09596">
        <ele>521</ele>
        <time>2021-04-15T12:16:11Z</time>
      </trkpt>
      <trkpt lat="45.28683" lon="4.096">
        <ele>521</ele>
        <time>2021-04-15T12:16:12Z</time>
      </trkpt>
      <trkpt lat="45.28686" lon="4.09604">
        <ele>521</ele>
        <time>2021-04-15T12:16:13Z</time>
      </trkpt>
      <trkpt lat="45.28689" lon="4.09608">
        <ele>521</ele>
        <time>2021-04-15T12:16:14Z</time>
      </trkpt>
      <trkpt lat="45.28692" lon="4.09613">
        <ele>520</ele>
        <time>2021-04-15T12:16:15Z</time>
      </trkpt>
      <trkpt lat="45.28694" lon="4.09618">
        <ele>520</ele>
        <time>2021-04-15T12:16:16Z</time>
      </trkpt>
      <trkpt lat="45.28696" lon="4.09622">
        <ele>520</ele>
        <time>2021-04-15T12:16:17Z</time>
      </trkpt>
      <trkpt lat="45.28699" lon="4.09627">
        <ele>520</ele>
        <time>2021-04-15T12:16:18Z</time>
      </trkpt>
      <trkpt lat="45.28702" lon="4.09633">
        <ele>520</ele>
        <time>2021-04-15T12:16:19Z</time>
      </trkpt>
      <trkpt lat="45.28705" lon="4.09638">
        <ele>520</ele>
        <time>2021-04-15T12:16:20Z</time>
      </trkpt>
      <trkpt lat="45.28708" lon="4.09643">
        <ele>520</ele>
        <time>2021-04-15T12:16:21Z</time>
      </trkpt>
      <trkpt lat="45.28712" lon="4.09647">
        <ele>520</ele>
        <time>2021-04-15T12:16:22Z</time>
      </trkpt>
      <trkpt lat="45.28714" lon="4.09652">
        <ele>520</ele>
        <time>2021-04-15T12:16:23Z</time>
      </trkpt>
      <trkpt lat="45.28716" lon="4.09656">
        <ele>520</ele>
        <time>2021-04-15T12:16:24Z</time>
      </trkpt>
      <trkpt lat="45.28718" lon="4.0966">
        <ele>520</ele>
        <time>2021-04-15T12:16:25Z</time>
      </trkpt>
      <trkpt lat="45.28719" lon="4.09663">
        <ele>520</ele>
        <time>2021-04-15T12:16:26Z</time>
      </trkpt>
      <trkpt lat="45.28721" lon="4.09667">
        <ele>520</ele>
        <time>2021-04-15T12:16:27Z</time>
      </trkpt>
      <trkpt lat="45.28723" lon="4.09671">
        <ele>521</ele>
        <time>2021-04-15T12:16:28Z</time>
      </trkpt>
      <trkpt lat="45.28725" lon="4.09675">
        <ele>521</ele>
        <time>2021-04-15T12:16:29Z</time>
      </trkpt>
      <trkpt lat="45.28727" lon="4.09678">
        <ele>521</ele>
        <time>2021-04-15T12:16:30Z</time>
      </trkpt>
      <trkpt lat="45.28729" lon="4.09681">
        <ele>521</ele>
        <time>2021-04-15T12:16:31Z</time>
      </trkpt>
      <trkpt lat="45.28731" lon="4.09684">
        <ele>521</ele>
        <time>2021-04-15T12:16:32Z</time>
      </trkpt>
      <trkpt lat="45.28734" lon="4.09686">
        <ele>521</ele>
        <time>2021-04-15T12:16:33Z</time>
      </trkpt>
      <trkpt lat="45.28737" lon="4.09687">
        <ele>522</ele>
        <time>2021-04-15T12:16:34Z</time>
      </trkpt>
      <trkpt lat="45.2874" lon="4.09689">
        <ele>522</ele>
        <time>2021-04-15T12:16:35Z</time>
      </trkpt>
      <trkpt lat="45.28743" lon="4.0969">
        <ele>522</ele>
        <time>2021-04-15T12:16:36Z</time>
      </trkpt>
      <trkpt lat="45.28746" lon="4.0969">
        <ele>522</ele>
        <time>2021-04-15T12:16:37Z</time>
      </trkpt>
      <trkpt lat="45.28749" lon="4.09691">
        <ele>522</ele>
        <time>2021-04-15T12:16:38Z</time>
      </trkpt>
      <trkpt lat="45.28753" lon="4.09692">
        <ele>522</ele>
        <time>2021-04-15T12:16:39Z</time>
      </trkpt>
      <trkpt lat="45.28756" lon="4.09692">
        <ele>523</ele>
        <time>2021-04-15T12:16:40Z</time>
      </trkpt>
      <trkpt lat="45.28759" lon="4.09691">
        <ele>523</ele>
        <time>2021-04-15T12:16:41Z</time>
      </trkpt>
      <trkpt lat="45.28761" lon="4.0969">
        <ele>523</ele>
        <time>2021-04-15T12:16:42Z</time>
      </trkpt>
      <trkpt lat="45.28764" lon="4.09689">
        <ele>523</ele>
        <time>2021-04-15T12:16:43Z</time>
      </trkpt>
      <trkpt lat="45.28767" lon="4.09688">
        <ele>524</ele>
        <time>2021-04-15T12:16:44Z</time>
      </trkpt>
      <trkpt lat="45.28769" lon="4.09687">
        <ele>524</ele>
        <time>2021-04-15T12:16:45Z</time>
      </trkpt>
      <trkpt lat="45.28772" lon="4.09685">
        <ele>524</ele>
        <time>2021-04-15T12:16:47Z</time>
      </trkpt>
      <trkpt lat="45.28774" lon="4.09683">
        <ele>525</ele>
        <time>2021-04-15T12:16:49Z</time>
      </trkpt>
      <trkpt lat="45.28776" lon="4.0968">
        <ele>525</ele>
        <time>2021-04-15T12:16:50Z</time>
      </trkpt>
      <trkpt lat="45.28779" lon="4.09677">
        <ele>526</ele>
        <time>2021-04-15T12:16:51Z</time>
      </trkpt>
      <trkpt lat="45.28781" lon="4.09674">
        <ele>526</ele>
        <time>2021-04-15T12:16:52Z</time>
      </trkpt>
      <trkpt lat="45.28783" lon="4.0967">
        <ele>526</ele>
        <time>2021-04-15T12:16:53Z</time>
      </trkpt>
      <trkpt lat="45.28784" lon="4.09665">
        <ele>527</ele>
        <time>2021-04-15T12:16:54Z</time>
      </trkpt>
      <trkpt lat="45.28784" lon="4.09661">
        <ele>527</ele>
        <time>2021-04-15T12:16:55Z</time>
      </trkpt>
      <trkpt lat="45.28787" lon="4.09648">
        <ele>528</ele>
        <time>2021-04-15T12:16:58Z</time>
      </trkpt>
      <trkpt lat="45.28791" lon="4.0964">
        <ele>529</ele>
        <time>2021-04-15T12:17:00Z</time>
      </trkpt>
      <trkpt lat="45.28794" lon="4.09638">
        <ele>529</ele>
        <time>2021-04-15T12:17:01Z</time>
      </trkpt>
      <trkpt lat="45.28796" lon="4.09638">
        <ele>529</ele>
        <time>2021-04-15T12:17:02Z</time>
      </trkpt>
      <trkpt lat="45.28798" lon="4.09639">
        <ele>529</ele>
        <time>2021-04-15T12:17:03Z</time>
      </trkpt>
      <trkpt lat="45.288" lon="4.09641">
        <ele>529</ele>
        <time>2021-04-15T12:17:04Z</time>
      </trkpt>
      <trkpt lat="45.28802" lon="4.09642">
        <ele>530</ele>
        <time>2021-04-15T12:17:05Z</time>
      </trkpt>
      <trkpt lat="45.28813" lon="4.09632">
        <ele>530</ele>
        <time>2021-04-15T12:17:09Z</time>
      </trkpt>
      <trkpt lat="45.28816" lon="4.09626">
        <ele>530</ele>
        <time>2021-04-15T12:17:10Z</time>
      </trkpt>
      <trkpt lat="45.28818" lon="4.09619">
        <ele>530</ele>
        <time>2021-04-15T12:17:11Z</time>
      </trkpt>
      <trkpt lat="45.28821" lon="4.09613">
        <ele>530</ele>
        <time>2021-04-15T12:17:12Z</time>
      </trkpt>
      <trkpt lat="45.28823" lon="4.09606">
        <ele>530</ele>
        <time>2021-04-15T12:17:13Z</time>
      </trkpt>
      <trkpt lat="45.28825" lon="4.096">
        <ele>530</ele>
        <time>2021-04-15T12:17:14Z</time>
      </trkpt>
      <trkpt lat="45.28831" lon="4.09589">
        <ele>531</ele>
        <time>2021-04-15T12:17:16Z</time>
      </trkpt>
      <trkpt lat="45.28836" lon="4.09577">
        <ele>531</ele>
        <time>2021-04-15T12:17:18Z</time>
      </trkpt>
      <trkpt lat="45.2884" lon="4.09564">
        <ele>531</ele>
        <time>2021-04-15T12:17:20Z</time>
      </trkpt>
      <trkpt lat="45.28846" lon="4.0955">
        <ele>532</ele>
        <time>2021-04-15T12:17:22Z</time>
      </trkpt>
      <trkpt lat="45.28849" lon="4.09537">
        <ele>532</ele>
        <time>2021-04-15T12:17:32Z</time>
      </trkpt>
      <trkpt lat="45.2885" lon="4.09533">
        <ele>533</ele>
        <time>2021-04-15T12:17:35Z</time>
      </trkpt>
      <trkpt lat="45.28851" lon="4.09528">
        <ele>533</ele>
        <time>2021-04-15T12:17:37Z</time>
      </trkpt>
      <trkpt lat="45.28852" lon="4.09523">
        <ele>533</ele>
        <time>2021-04-15T12:17:38Z</time>
      </trkpt>
      <trkpt lat="45.28854" lon="4.09519">
        <ele>534</ele>
        <time>2021-04-15T12:17:39Z</time>
      </trkpt>
      <trkpt lat="45.28855" lon="4.09514">
        <ele>534</ele>
        <time>2021-04-15T12:17:40Z</time>
      </trkpt>
      <trkpt lat="45.28856" lon="4.09509">
        <ele>534</ele>
        <time>2021-04-15T12:17:41Z</time>
      </trkpt>
      <trkpt lat="45.28856" lon="4.09505">
        <ele>534</ele>
        <time>2021-04-15T12:17:42Z</time>
      </trkpt>
      <trkpt lat="45.28857" lon="4.09501">
        <ele>534</ele>
        <time>2021-04-15T12:17:43Z</time>
      </trkpt>
      <trkpt lat="45.28857" lon="4.09497">
        <ele>534</ele>
        <time>2021-04-15T12:17:44Z</time>
      </trkpt>
      <trkpt lat="45.28859" lon="4.0949">
        <ele>535</ele>
        <time>2021-04-15T12:17:45Z</time>
      </trkpt>
      <trkpt lat="45.28862" lon="4.09476">
        <ele>535</ele>
        <time>2021-04-15T12:17:47Z</time>
      </trkpt>
      <trkpt lat="45.28864" lon="4.0947">
        <ele>535</ele>
        <time>2021-04-15T12:17:48Z</time>
      </trkpt>
      <trkpt lat="45.28866" lon="4.09464">
        <ele>535</ele>
        <time>2021-04-15T12:17:49Z</time>
      </trkpt>
      <trkpt lat="45.28869" lon="4.09459">
        <ele>535</ele>
        <time>2021-04-15T12:17:50Z</time>
      </trkpt>
      <trkpt lat="45.28876" lon="4.09446">
        <ele>535</ele>
        <time>2021-04-15T12:17:52Z</time>
      </trkpt>
      <trkpt lat="45.2888" lon="4.09444">
        <ele>535</ele>
        <time>2021-04-15T12:17:55Z</time>
      </trkpt>
      <trkpt lat="45.28882" lon="4.09445">
        <ele>535</ele>
        <time>2021-04-15T12:18:03Z</time>
      </trkpt>
      <trkpt lat="45.28881" lon="4.09455">
        <ele>535</ele>
        <time>2021-04-15T12:19:08Z</time>
      </trkpt>
      <trkpt lat="45.28879" lon="4.09463">
        <ele>535</ele>
        <time>2021-04-15T12:19:09Z</time>
      </trkpt>
      <trkpt lat="45.28878" lon="4.0947">
        <ele>534</ele>
        <time>2021-04-15T12:19:10Z</time>
      </trkpt>
      <trkpt lat="45.28877" lon="4.09478">
        <ele>534</ele>
        <time>2021-04-15T12:19:11Z</time>
      </trkpt>
      <trkpt lat="45.28876" lon="4.09486">
        <ele>534</ele>
        <time>2021-04-15T12:19:12Z</time>
      </trkpt>
      <trkpt lat="45.28876" lon="4.09493">
        <ele>533</ele>
        <time>2021-04-15T12:19:13Z</time>
      </trkpt>
      <trkpt lat="45.28875" lon="4.095">
        <ele>533</ele>
        <time>2021-04-15T12:19:14Z</time>
      </trkpt>
      <trkpt lat="45.28875" lon="4.09508">
        <ele>533</ele>
        <time>2021-04-15T12:19:15Z</time>
      </trkpt>
      <trkpt lat="45.28874" lon="4.09515">
        <ele>532</ele>
        <time>2021-04-15T12:19:16Z</time>
      </trkpt>
      <trkpt lat="45.28874" lon="4.09523">
        <ele>532</ele>
        <time>2021-04-15T12:19:17Z</time>
      </trkpt>
      <trkpt lat="45.28875" lon="4.09531">
        <ele>532</ele>
        <time>2021-04-15T12:19:18Z</time>
      </trkpt>
      <trkpt lat="45.28875" lon="4.09538">
        <ele>531</ele>
        <time>2021-04-15T12:19:19Z</time>
      </trkpt>
      <trkpt lat="45.28875" lon="4.09545">
        <ele>531</ele>
        <time>2021-04-15T12:19:20Z</time>
      </trkpt>
      <trkpt lat="45.28876" lon="4.09552">
        <ele>531</ele>
        <time>2021-04-15T12:19:21Z</time>
      </trkpt>
      <trkpt lat="45.28881" lon="4.09567">
        <ele>531</ele>
        <time>2021-04-15T12:19:23Z</time>
      </trkpt>
      <trkpt lat="45.28884" lon="4.09578">
        <ele>531</ele>
        <time>2021-04-15T12:19:24Z</time>
      </trkpt>
      <trkpt lat="45.2889" lon="4.09597">
        <ele>530</ele>
        <time>2021-04-15T12:19:26Z</time>
      </trkpt>
      <trkpt lat="45.28892" lon="4.09614">
        <ele>529</ele>
        <time>2021-04-15T12:19:28Z</time>
      </trkpt>
      <trkpt lat="45.28904" lon="4.09612">
        <ele>528</ele>
        <time>2021-04-15T12:19:31Z</time>
      </trkpt>
      <trkpt lat="45.28907" lon="4.09598">
        <ele>526</ele>
        <time>2021-04-15T12:19:33Z</time>
      </trkpt>
      <trkpt lat="45.28906" lon="4.09593">
        <ele>523</ele>
        <time>2021-04-15T12:19:38Z</time>
      </trkpt>
      <trkpt lat="45.28914" lon="4.09605">
        <ele>520</ele>
        <time>2021-04-15T12:19:42Z</time>
      </trkpt>
      <trkpt lat="45.28916" lon="4.09617">
        <ele>515</ele>
        <time>2021-04-15T12:19:52Z</time>
      </trkpt>
      <trkpt lat="45.28917" lon="4.0963">
        <ele>514</ele>
        <time>2021-04-15T12:19:55Z</time>
      </trkpt>
      <trkpt lat="45.2892" lon="4.09643">
        <ele>513</ele>
        <time>2021-04-15T12:19:58Z</time>
      </trkpt>
      <trkpt lat="45.28924" lon="4.09656">
        <ele>512</ele>
        <time>2021-04-15T12:20:01Z</time>
      </trkpt>
      <trkpt lat="45.28929" lon="4.0967">
        <ele>512</ele>
        <time>2021-04-15T12:20:04Z</time>
      </trkpt>
      <trkpt lat="45.28933" lon="4.09682">
        <ele>511</ele>
        <time>2021-04-15T12:20:07Z</time>
      </trkpt>
      <trkpt lat="45.28938" lon="4.09695">
        <ele>510</ele>
        <time>2021-04-15T12:20:10Z</time>
      </trkpt>
      <trkpt lat="45.28945" lon="4.09707">
        <ele>511</ele>
        <time>2021-04-15T12:20:13Z</time>
      </trkpt>
      <trkpt lat="45.28951" lon="4.09719">
        <ele>511</ele>
        <time>2021-04-15T12:20:16Z</time>
      </trkpt>
      <trkpt lat="45.28953" lon="4.09723">
        <ele>511</ele>
        <time>2021-04-15T12:20:17Z</time>
      </trkpt>
      <trkpt lat="45.28955" lon="4.09728">
        <ele>511</ele>
        <time>2021-04-15T12:20:18Z</time>
      </trkpt>
      <trkpt lat="45.28957" lon="4.09733">
        <ele>511</ele>
        <time>2021-04-15T12:20:19Z</time>
      </trkpt>
      <trkpt lat="45.28958" lon="4.09738">
        <ele>511</ele>
        <time>2021-04-15T12:20:20Z</time>
      </trkpt>
      <trkpt lat="45.2896" lon="4.09742">
        <ele>511</ele>
        <time>2021-04-15T12:20:21Z</time>
      </trkpt>
      <trkpt lat="45.28961" lon="4.09747">
        <ele>511</ele>
        <time>2021-04-15T12:20:22Z</time>
      </trkpt>
      <trkpt lat="45.28963" lon="4.09753">
        <ele>511</ele>
        <time>2021-04-15T12:20:23Z</time>
      </trkpt>
      <trkpt lat="45.28965" lon="4.09758">
        <ele>511</ele>
        <time>2021-04-15T12:20:24Z</time>
      </trkpt>
      <trkpt lat="45.28967" lon="4.09764">
        <ele>511</ele>
        <time>2021-04-15T12:20:25Z</time>
      </trkpt>
      <trkpt lat="45.28969" lon="4.09768">
        <ele>511</ele>
        <time>2021-04-15T12:20:26Z</time>
      </trkpt>
      <trkpt lat="45.28972" lon="4.09773">
        <ele>511</ele>
        <time>2021-04-15T12:20:27Z</time>
      </trkpt>
      <trkpt lat="45.28974" lon="4.09777">
        <ele>511</ele>
        <time>2021-04-15T12:20:28Z</time>
      </trkpt>
      <trkpt lat="45.28976" lon="4.09781">
        <ele>510</ele>
        <time>2021-04-15T12:20:29Z</time>
      </trkpt>
      <trkpt lat="45.28979" lon="4.09784">
        <ele>510</ele>
        <time>2021-04-15T12:20:30Z</time>
      </trkpt>
      <trkpt lat="45.28981" lon="4.09787">
        <ele>510</ele>
        <time>2021-04-15T12:20:31Z</time>
      </trkpt>
      <trkpt lat="45.28984" lon="4.09788">
        <ele>510</ele>
        <time>2021-04-15T12:20:32Z</time>
      </trkpt>
      <trkpt lat="45.28987" lon="4.09789">
        <ele>510</ele>
        <time>2021-04-15T12:20:33Z</time>
      </trkpt>
      <trkpt lat="45.2899" lon="4.09791">
        <ele>510</ele>
        <time>2021-04-15T12:20:34Z</time>
      </trkpt>
      <trkpt lat="45.28992" lon="4.09791">
        <ele>510</ele>
        <time>2021-04-15T12:20:35Z</time>
      </trkpt>
      <trkpt lat="45.28994" lon="4.09791">
        <ele>510</ele>
        <time>2021-04-15T12:20:36Z</time>
      </trkpt>
      <trkpt lat="45.28997" lon="4.0979">
        <ele>510</ele>
        <time>2021-04-15T12:20:37Z</time>
      </trkpt>
      <trkpt lat="45.28999" lon="4.09789">
        <ele>510</ele>
        <time>2021-04-15T12:20:38Z</time>
      </trkpt>
      <trkpt lat="45.29003" lon="4.09789">
        <ele>510</ele>
        <time>2021-04-15T12:20:39Z</time>
      </trkpt>
      <trkpt lat="45.29006" lon="4.09789">
        <ele>510</ele>
        <time>2021-04-15T12:20:40Z</time>
      </trkpt>
      <trkpt lat="45.2901" lon="4.09789">
        <ele>510</ele>
        <time>2021-04-15T12:20:41Z</time>
      </trkpt>
      <trkpt lat="45.29019" lon="4.09788">
        <ele>510</ele>
        <time>2021-04-15T12:20:44Z</time>
      </trkpt>
      <trkpt lat="45.29022" lon="4.09789">
        <ele>510</ele>
        <time>2021-04-15T12:20:45Z</time>
      </trkpt>
      <trkpt lat="45.2903" lon="4.0979">
        <ele>511</ele>
        <time>2021-04-15T12:20:47Z</time>
      </trkpt>
      <trkpt lat="45.29038" lon="4.0979">
        <ele>511</ele>
        <time>2021-04-15T12:20:49Z</time>
      </trkpt>
      <trkpt lat="45.29042" lon="4.09789">
        <ele>511</ele>
        <time>2021-04-15T12:20:50Z</time>
      </trkpt>
      <trkpt lat="45.29045" lon="4.09788">
        <ele>511</ele>
        <time>2021-04-15T12:20:51Z</time>
      </trkpt>
      <trkpt lat="45.29048" lon="4.09787">
        <ele>511</ele>
        <time>2021-04-15T12:20:52Z</time>
      </trkpt>
      <trkpt lat="45.29051" lon="4.09786">
        <ele>511</ele>
        <time>2021-04-15T12:20:53Z</time>
      </trkpt>
      <trkpt lat="45.29055" lon="4.09785">
        <ele>512</ele>
        <time>2021-04-15T12:20:54Z</time>
      </trkpt>
      <trkpt lat="45.29059" lon="4.09785">
        <ele>512</ele>
        <time>2021-04-15T12:20:55Z</time>
      </trkpt>
      <trkpt lat="45.29063" lon="4.09784">
        <ele>512</ele>
        <time>2021-04-15T12:20:56Z</time>
      </trkpt>
      <trkpt lat="45.29067" lon="4.09783">
        <ele>512</ele>
        <time>2021-04-15T12:20:57Z</time>
      </trkpt>
      <trkpt lat="45.29071" lon="4.09782">
        <ele>512</ele>
        <time>2021-04-15T12:20:58Z</time>
      </trkpt>
      <trkpt lat="45.29075" lon="4.09781">
        <ele>512</ele>
        <time>2021-04-15T12:20:59Z</time>
      </trkpt>
      <trkpt lat="45.29079" lon="4.09779">
        <ele>512</ele>
        <time>2021-04-15T12:21:00Z</time>
      </trkpt>
      <trkpt lat="45.29082" lon="4.09778">
        <ele>512</ele>
        <time>2021-04-15T12:21:01Z</time>
      </trkpt>
      <trkpt lat="45.29084" lon="4.09777">
        <ele>512</ele>
        <time>2021-04-15T12:21:02Z</time>
      </trkpt>
      <trkpt lat="45.29087" lon="4.09776">
        <ele>512</ele>
        <time>2021-04-15T12:21:03Z</time>
      </trkpt>
      <trkpt lat="45.2909" lon="4.09774">
        <ele>512</ele>
        <time>2021-04-15T12:21:04Z</time>
      </trkpt>
      <trkpt lat="45.29093" lon="4.09773">
        <ele>512</ele>
        <time>2021-04-15T12:21:05Z</time>
      </trkpt>
      <trkpt lat="45.29097" lon="4.0977">
        <ele>512</ele>
        <time>2021-04-15T12:21:06Z</time>
      </trkpt>
      <trkpt lat="45.29101" lon="4.09768">
        <ele>512</ele>
        <time>2021-04-15T12:21:07Z</time>
      </trkpt>
      <trkpt lat="45.29105" lon="4.09766">
        <ele>512</ele>
        <time>2021-04-15T12:21:08Z</time>
      </trkpt>
      <trkpt lat="45.29108" lon="4.09764">
        <ele>512</ele>
        <time>2021-04-15T12:21:09Z</time>
      </trkpt>
      <trkpt lat="45.29112" lon="4.09762">
        <ele>512</ele>
        <time>2021-04-15T12:21:10Z</time>
      </trkpt>
      <trkpt lat="45.29116" lon="4.09761">
        <ele>512</ele>
        <time>2021-04-15T12:21:11Z</time>
      </trkpt>
      <trkpt lat="45.29119" lon="4.09759">
        <ele>513</ele>
        <time>2021-04-15T12:21:12Z</time>
      </trkpt>
      <trkpt lat="45.29122" lon="4.09757">
        <ele>513</ele>
        <time>2021-04-15T12:21:13Z</time>
      </trkpt>
      <trkpt lat="45.29125" lon="4.09756">
        <ele>513</ele>
        <time>2021-04-15T12:21:14Z</time>
      </trkpt>
      <trkpt lat="45.29128" lon="4.09755">
        <ele>513</ele>
        <time>2021-04-15T12:21:15Z</time>
      </trkpt>
      <trkpt lat="45.2913" lon="4.09754">
        <ele>513</ele>
        <time>2021-04-15T12:21:16Z</time>
      </trkpt>
      <trkpt lat="45.29133" lon="4.09753">
        <ele>514</ele>
        <time>2021-04-15T12:21:17Z</time>
      </trkpt>
      <trkpt lat="45.29136" lon="4.09753">
        <ele>514</ele>
        <time>2021-04-15T12:21:18Z</time>
      </trkpt>
      <trkpt lat="45.29139" lon="4.09752">
        <ele>514</ele>
        <time>2021-04-15T12:21:19Z</time>
      </trkpt>
      <trkpt lat="45.29142" lon="4.09752">
        <ele>514</ele>
        <time>2021-04-15T12:21:20Z</time>
      </trkpt>
      <trkpt lat="45.29146" lon="4.09752">
        <ele>515</ele>
        <time>2021-04-15T12:21:21Z</time>
      </trkpt>
      <trkpt lat="45.29149" lon="4.09751">
        <ele>515</ele>
        <time>2021-04-15T12:21:22Z</time>
      </trkpt>
      <trkpt lat="45.29152" lon="4.09751">
        <ele>515</ele>
        <time>2021-04-15T12:21:23Z</time>
      </trkpt>
      <trkpt lat="45.29156" lon="4.09751">
        <ele>515</ele>
        <time>2021-04-15T12:21:24Z</time>
      </trkpt>
      <trkpt lat="45.29159" lon="4.09751">
        <ele>516</ele>
        <time>2021-04-15T12:21:25Z</time>
      </trkpt>
      <trkpt lat="45.29163" lon="4.0975">
        <ele>516</ele>
        <time>2021-04-15T12:21:26Z</time>
      </trkpt>
      <trkpt lat="45.29167" lon="4.0975">
        <ele>516</ele>
        <time>2021-04-15T12:21:27Z</time>
      </trkpt>
      <trkpt lat="45.2917" lon="4.09749">
        <ele>516</ele>
        <time>2021-04-15T12:21:28Z</time>
      </trkpt>
      <trkpt lat="45.29175" lon="4.09748">
        <ele>516</ele>
        <time>2021-04-15T12:21:29Z</time>
      </trkpt>
      <trkpt lat="45.29179" lon="4.09747">
        <ele>516</ele>
        <time>2021-04-15T12:21:30Z</time>
      </trkpt>
      <trkpt lat="45.29183" lon="4.09745">
        <ele>516</ele>
        <time>2021-04-15T12:21:31Z</time>
      </trkpt>
      <trkpt lat="45.29188" lon="4.09743">
        <ele>516</ele>
        <time>2021-04-15T12:21:32Z</time>
      </trkpt>
      <trkpt lat="45.29192" lon="4.0974">
        <ele>516</ele>
        <time>2021-04-15T12:21:33Z</time>
      </trkpt>
      <trkpt lat="45.29196" lon="4.09737">
        <ele>516</ele>
        <time>2021-04-15T12:21:34Z</time>
      </trkpt>
      <trkpt lat="45.292" lon="4.09733">
        <ele>516</ele>
        <time>2021-04-15T12:21:35Z</time>
      </trkpt>
      <trkpt lat="45.29204" lon="4.0973">
        <ele>516</ele>
        <time>2021-04-15T12:21:36Z</time>
      </trkpt>
      <trkpt lat="45.29208" lon="4.09726">
        <ele>516</ele>
        <time>2021-04-15T12:21:37Z</time>
      </trkpt>
      <trkpt lat="45.29212" lon="4.09723">
        <ele>516</ele>
        <time>2021-04-15T12:21:38Z</time>
      </trkpt>
      <trkpt lat="45.29216" lon="4.09719">
        <ele>516</ele>
        <time>2021-04-15T12:21:39Z</time>
      </trkpt>
      <trkpt lat="45.29221" lon="4.09715">
        <ele>516</ele>
        <time>2021-04-15T12:21:40Z</time>
      </trkpt>
      <trkpt lat="45.29225" lon="4.09711">
        <ele>516</ele>
        <time>2021-04-15T12:21:41Z</time>
      </trkpt>
      <trkpt lat="45.2923" lon="4.09707">
        <ele>516</ele>
        <time>2021-04-15T12:21:42Z</time>
      </trkpt>
      <trkpt lat="45.29235" lon="4.09703">
        <ele>516</ele>
        <time>2021-04-15T12:21:43Z</time>
      </trkpt>
      <trkpt lat="45.2924" lon="4.09701">
        <ele>516</ele>
        <time>2021-04-15T12:21:44Z</time>
      </trkpt>
      <trkpt lat="45.29245" lon="4.09699">
        <ele>517</ele>
        <time>2021-04-15T12:21:45Z</time>
      </trkpt>
      <trkpt lat="45.2925" lon="4.09698">
        <ele>517</ele>
        <time>2021-04-15T12:21:46Z</time>
      </trkpt>
      <trkpt lat="45.29256" lon="4.09696">
        <ele>517</ele>
        <time>2021-04-15T12:21:47Z</time>
      </trkpt>
      <trkpt lat="45.29262" lon="4.09695">
        <ele>517</ele>
        <time>2021-04-15T12:21:48Z</time>
      </trkpt>
      <trkpt lat="45.29268" lon="4.09694">
        <ele>517</ele>
        <time>2021-04-15T12:21:49Z</time>
      </trkpt>
      <trkpt lat="45.29274" lon="4.09693">
        <ele>517</ele>
        <time>2021-04-15T12:21:50Z</time>
      </trkpt>
      <trkpt lat="45.29279" lon="4.09693">
        <ele>517</ele>
        <time>2021-04-15T12:21:51Z</time>
      </trkpt>
      <trkpt lat="45.29283" lon="4.09692">
        <ele>517</ele>
        <time>2021-04-15T12:21:52Z</time>
      </trkpt>
      <trkpt lat="45.29288" lon="4.09691">
        <ele>517</ele>
        <time>2021-04-15T12:21:53Z</time>
      </trkpt>
      <trkpt lat="45.29293" lon="4.0969">
        <ele>517</ele>
        <time>2021-04-15T12:21:54Z</time>
      </trkpt>
      <trkpt lat="45.29298" lon="4.09689">
        <ele>518</ele>
        <time>2021-04-15T12:21:55Z</time>
      </trkpt>
      <trkpt lat="45.29303" lon="4.09688">
        <ele>518</ele>
        <time>2021-04-15T12:21:56Z</time>
      </trkpt>
      <trkpt lat="45.29308" lon="4.09687">
        <ele>518</ele>
        <time>2021-04-15T12:21:57Z</time>
      </trkpt>
      <trkpt lat="45.29316" lon="4.09689">
        <ele>518</ele>
        <time>2021-04-15T12:21:59Z</time>
      </trkpt>
      <trkpt lat="45.2932" lon="4.0969">
        <ele>518</ele>
        <time>2021-04-15T12:22:00Z</time>
      </trkpt>
      <trkpt lat="45.29323" lon="4.09692">
        <ele>519</ele>
        <time>2021-04-15T12:22:01Z</time>
      </trkpt>
      <trkpt lat="45.29326" lon="4.09694">
        <ele>519</ele>
        <time>2021-04-15T12:22:02Z</time>
      </trkpt>
      <trkpt lat="45.29329" lon="4.09697">
        <ele>519</ele>
        <time>2021-04-15T12:22:03Z</time>
      </trkpt>
      <trkpt lat="45.29334" lon="4.09701">
        <ele>520</ele>
        <time>2021-04-15T12:22:04Z</time>
      </trkpt>
      <trkpt lat="45.2934" lon="4.09705">
        <ele>520</ele>
        <time>2021-04-15T12:22:05Z</time>
      </trkpt>
      <trkpt lat="45.29345" lon="4.09708">
        <ele>520</ele>
        <time>2021-04-15T12:22:06Z</time>
      </trkpt>
      <trkpt lat="45.2935" lon="4.09712">
        <ele>520</ele>
        <time>2021-04-15T12:22:07Z</time>
      </trkpt>
      <trkpt lat="45.29357" lon="4.09717">
        <ele>521</ele>
        <time>2021-04-15T12:22:08Z</time>
      </trkpt>
      <trkpt lat="45.29363" lon="4.09721">
        <ele>521</ele>
        <time>2021-04-15T12:22:09Z</time>
      </trkpt>
      <trkpt lat="45.29368" lon="4.09727">
        <ele>522</ele>
        <time>2021-04-15T12:22:10Z</time>
      </trkpt>
      <trkpt lat="45.29373" lon="4.09732">
        <ele>522</ele>
        <time>2021-04-15T12:22:11Z</time>
      </trkpt>
      <trkpt lat="45.29379" lon="4.09737">
        <ele>522</ele>
        <time>2021-04-15T12:22:12Z</time>
      </trkpt>
      <trkpt lat="45.29384" lon="4.09743">
        <ele>523</ele>
        <time>2021-04-15T12:22:13Z</time>
      </trkpt>
      <trkpt lat="45.29389" lon="4.09748">
        <ele>523</ele>
        <time>2021-04-15T12:22:14Z</time>
      </trkpt>
      <trkpt lat="45.29394" lon="4.09753">
        <ele>523</ele>
        <time>2021-04-15T12:22:15Z</time>
      </trkpt>
      <trkpt lat="45.29398" lon="4.09758">
        <ele>524</ele>
        <time>2021-04-15T12:22:16Z</time>
      </trkpt>
      <trkpt lat="45.29402" lon="4.09763">
        <ele>524</ele>
        <time>2021-04-15T12:22:17Z</time>
      </trkpt>
      <trkpt lat="45.29407" lon="4.09768">
        <ele>524</ele>
        <time>2021-04-15T12:22:18Z</time>
      </trkpt>
      <trkpt lat="45.29411" lon="4.09773">
        <ele>524</ele>
        <time>2021-04-15T12:22:19Z</time>
      </trkpt>
      <trkpt lat="45.29415" lon="4.09778">
        <ele>525</ele>
        <time>2021-04-15T12:22:20Z</time>
      </trkpt>
      <trkpt lat="45.2942" lon="4.09782">
        <ele>525</ele>
        <time>2021-04-15T12:22:21Z</time>
      </trkpt>
      <trkpt lat="45.29424" lon="4.09786">
        <ele>525</ele>
        <time>2021-04-15T12:22:22Z</time>
      </trkpt>
      <trkpt lat="45.29429" lon="4.0979">
        <ele>525</ele>
        <time>2021-04-15T12:22:23Z</time>
      </trkpt>
      <trkpt lat="45.29433" lon="4.09794">
        <ele>526</ele>
        <time>2021-04-15T12:22:24Z</time>
      </trkpt>
      <trkpt lat="45.29438" lon="4.09797">
        <ele>526</ele>
        <time>2021-04-15T12:22:25Z</time>
      </trkpt>
      <trkpt lat="45.29442" lon="4.098">
        <ele>526</ele>
        <time>2021-04-15T12:22:26Z</time>
      </trkpt>
      <trkpt lat="45.29447" lon="4.09804">
        <ele>527</ele>
        <time>2021-04-15T12:22:27Z</time>
      </trkpt>
      <trkpt lat="45.29451" lon="4.09808">
        <ele>527</ele>
        <time>2021-04-15T12:22:28Z</time>
      </trkpt>
      <trkpt lat="45.29455" lon="4.09812">
        <ele>527</ele>
        <time>2021-04-15T12:22:29Z</time>
      </trkpt>
      <trkpt lat="45.29459" lon="4.09817">
        <ele>527</ele>
        <time>2021-04-15T12:22:30Z</time>
      </trkpt>
      <trkpt lat="45.29463" lon="4.09823">
        <ele>527</ele>
        <time>2021-04-15T12:22:31Z</time>
      </trkpt>
      <trkpt lat="45.29467" lon="4.09829">
        <ele>527</ele>
        <time>2021-04-15T12:22:32Z</time>
      </trkpt>
      <trkpt lat="45.29471" lon="4.09836">
        <ele>527</ele>
        <time>2021-04-15T12:22:33Z</time>
      </trkpt>
      <trkpt lat="45.29475" lon="4.09842">
        <ele>527</ele>
        <time>2021-04-15T12:22:34Z</time>
      </trkpt>
      <trkpt lat="45.2948" lon="4.09848">
        <ele>527</ele>
        <time>2021-04-15T12:22:35Z</time>
      </trkpt>
      <trkpt lat="45.29483" lon="4.09854">
        <ele>527</ele>
        <time>2021-04-15T12:22:36Z</time>
      </trkpt>
      <trkpt lat="45.29487" lon="4.09861">
        <ele>527</ele>
        <time>2021-04-15T12:22:37Z</time>
      </trkpt>
      <trkpt lat="45.29491" lon="4.09868">
        <ele>527</ele>
        <time>2021-04-15T12:22:38Z</time>
      </trkpt>
      <trkpt lat="45.29494" lon="4.09875">
        <ele>527</ele>
        <time>2021-04-15T12:22:39Z</time>
      </trkpt>
      <trkpt lat="45.29497" lon="4.09882">
        <ele>527</ele>
        <time>2021-04-15T12:22:40Z</time>
      </trkpt>
      <trkpt lat="45.295" lon="4.09889">
        <ele>527</ele>
        <time>2021-04-15T12:22:41Z</time>
      </trkpt>
      <trkpt lat="45.29503" lon="4.09896">
        <ele>527</ele>
        <time>2021-04-15T12:22:42Z</time>
      </trkpt>
      <trkpt lat="45.29506" lon="4.09903">
        <ele>527</ele>
        <time>2021-04-15T12:22:43Z</time>
      </trkpt>
      <trkpt lat="45.29508" lon="4.09911">
        <ele>527</ele>
        <time>2021-04-15T12:22:44Z</time>
      </trkpt>
      <trkpt lat="45.2951" lon="4.09919">
        <ele>527</ele>
        <time>2021-04-15T12:22:45Z</time>
      </trkpt>
      <trkpt lat="45.29512" lon="4.09927">
        <ele>528</ele>
        <time>2021-04-15T12:22:46Z</time>
      </trkpt>
      <trkpt lat="45.29513" lon="4.09935">
        <ele>528</ele>
        <time>2021-04-15T12:22:47Z</time>
      </trkpt>
      <trkpt lat="45.29515" lon="4.09943">
        <ele>528</ele>
        <time>2021-04-15T12:22:48Z</time>
      </trkpt>
      <trkpt lat="45.29517" lon="4.09951">
        <ele>528</ele>
        <time>2021-04-15T12:22:49Z</time>
      </trkpt>
      <trkpt lat="45.29519" lon="4.09958">
        <ele>528</ele>
        <time>2021-04-15T12:22:50Z</time>
      </trkpt>
      <trkpt lat="45.29521" lon="4.09965">
        <ele>528</ele>
        <time>2021-04-15T12:22:51Z</time>
      </trkpt>
      <trkpt lat="45.29523" lon="4.09972">
        <ele>528</ele>
        <time>2021-04-15T12:22:52Z</time>
      </trkpt>
      <trkpt lat="45.29525" lon="4.09978">
        <ele>528</ele>
        <time>2021-04-15T12:22:53Z</time>
      </trkpt>
      <trkpt lat="45.29527" lon="4.09984">
        <ele>528</ele>
        <time>2021-04-15T12:22:54Z</time>
      </trkpt>
      <trkpt lat="45.29529" lon="4.09989">
        <ele>528</ele>
        <time>2021-04-15T12:22:55Z</time>
      </trkpt>
      <trkpt lat="45.29532" lon="4.09995">
        <ele>528</ele>
        <time>2021-04-15T12:22:56Z</time>
      </trkpt>
      <trkpt lat="45.29534" lon="4.1">
        <ele>528</ele>
        <time>2021-04-15T12:22:57Z</time>
      </trkpt>
      <trkpt lat="45.29537" lon="4.10005">
        <ele>528</ele>
        <time>2021-04-15T12:22:58Z</time>
      </trkpt>
      <trkpt lat="45.29541" lon="4.10009">
        <ele>528</ele>
        <time>2021-04-15T12:22:59Z</time>
      </trkpt>
      <trkpt lat="45.29545" lon="4.10014">
        <ele>528</ele>
        <time>2021-04-15T12:23:00Z</time>
      </trkpt>
      <trkpt lat="45.29549" lon="4.10019">
        <ele>528</ele>
        <time>2021-04-15T12:23:01Z</time>
      </trkpt>
      <trkpt lat="45.29554" lon="4.10024">
        <ele>527</ele>
        <time>2021-04-15T12:23:02Z</time>
      </trkpt>
      <trkpt lat="45.2956" lon="4.1003">
        <ele>526</ele>
        <time>2021-04-15T12:23:03Z</time>
      </trkpt>
      <trkpt lat="45.29567" lon="4.10036">
        <ele>526</ele>
        <time>2021-04-15T12:23:04Z</time>
      </trkpt>
      <trkpt lat="45.29574" lon="4.10043">
        <ele>525</ele>
        <time>2021-04-15T12:23:05Z</time>
      </trkpt>
      <trkpt lat="45.29581" lon="4.1005">
        <ele>524</ele>
        <time>2021-04-15T12:23:06Z</time>
      </trkpt>
      <trkpt lat="45.29589" lon="4.10057">
        <ele>523</ele>
        <time>2021-04-15T12:23:07Z</time>
      </trkpt>
      <trkpt lat="45.29597" lon="4.10064">
        <ele>521</ele>
        <time>2021-04-15T12:23:08Z</time>
      </trkpt>
      <trkpt lat="45.29606" lon="4.10071">
        <ele>520</ele>
        <time>2021-04-15T12:23:09Z</time>
      </trkpt>
      <trkpt lat="45.29615" lon="4.10078">
        <ele>519</ele>
        <time>2021-04-15T12:23:10Z</time>
      </trkpt>
      <trkpt lat="45.29624" lon="4.10084">
        <ele>518</ele>
        <time>2021-04-15T12:23:11Z</time>
      </trkpt>
      <trkpt lat="45.29633" lon="4.10091">
        <ele>517</ele>
        <time>2021-04-15T12:23:12Z</time>
      </trkpt>
      <trkpt lat="45.29642" lon="4.10097">
        <ele>517</ele>
        <time>2021-04-15T12:23:13Z</time>
      </trkpt>
      <trkpt lat="45.29651" lon="4.10103">
        <ele>516</ele>
        <time>2021-04-15T12:23:14Z</time>
      </trkpt>
      <trkpt lat="45.2966" lon="4.10109">
        <ele>515</ele>
        <time>2021-04-15T12:23:15Z</time>
      </trkpt>
      <trkpt lat="45.29667" lon="4.10116">
        <ele>515</ele>
        <time>2021-04-15T12:23:16Z</time>
      </trkpt>
      <trkpt lat="45.29675" lon="4.10122">
        <ele>514</ele>
        <time>2021-04-15T12:23:17Z</time>
      </trkpt>
      <trkpt lat="45.29682" lon="4.10129">
        <ele>513</ele>
        <time>2021-04-15T12:23:18Z</time>
      </trkpt>
      <trkpt lat="45.2969" lon="4.10135">
        <ele>513</ele>
        <time>2021-04-15T12:23:19Z</time>
      </trkpt>
      <trkpt lat="45.29698" lon="4.10141">
        <ele>512</ele>
        <time>2021-04-15T12:23:20Z</time>
      </trkpt>
      <trkpt lat="45.29706" lon="4.10148">
        <ele>512</ele>
        <time>2021-04-15T12:23:21Z</time>
      </trkpt>
      <trkpt lat="45.29713" lon="4.10155">
        <ele>511</ele>
        <time>2021-04-15T12:23:22Z</time>
      </trkpt>
      <trkpt lat="45.29721" lon="4.10164">
        <ele>511</ele>
        <time>2021-04-15T12:23:23Z</time>
      </trkpt>
      <trkpt lat="45.29727" lon="4.10174">
        <ele>510</ele>
        <time>2021-04-15T12:23:24Z</time>
      </trkpt>
      <trkpt lat="45.29734" lon="4.10184">
        <ele>509</ele>
        <time>2021-04-15T12:23:25Z</time>
      </trkpt>
      <trkpt lat="45.29741" lon="4.10194">
        <ele>508</ele>
        <time>2021-04-15T12:23:26Z</time>
      </trkpt>
      <trkpt lat="45.29749" lon="4.10205">
        <ele>507</ele>
        <time>2021-04-15T12:23:27Z</time>
      </trkpt>
      <trkpt lat="45.29756" lon="4.10216">
        <ele>506</ele>
        <time>2021-04-15T12:23:28Z</time>
      </trkpt>
      <trkpt lat="45.29763" lon="4.10226">
        <ele>505</ele>
        <time>2021-04-15T12:23:29Z</time>
      </trkpt>
      <trkpt lat="45.2977" lon="4.10237">
        <ele>504</ele>
        <time>2021-04-15T12:23:30Z</time>
      </trkpt>
      <trkpt lat="45.29777" lon="4.10249">
        <ele>503</ele>
        <time>2021-04-15T12:23:31Z</time>
      </trkpt>
      <trkpt lat="45.29784" lon="4.1026">
        <ele>501</ele>
        <time>2021-04-15T12:23:32Z</time>
      </trkpt>
      <trkpt lat="45.2979" lon="4.10272">
        <ele>500</ele>
        <time>2021-04-15T12:23:33Z</time>
      </trkpt>
      <trkpt lat="45.29796" lon="4.10283">
        <ele>499</ele>
        <time>2021-04-15T12:23:34Z</time>
      </trkpt>
      <trkpt lat="45.29803" lon="4.10294">
        <ele>498</ele>
        <time>2021-04-15T12:23:35Z</time>
      </trkpt>
      <trkpt lat="45.29809" lon="4.10304">
        <ele>497</ele>
        <time>2021-04-15T12:23:36Z</time>
      </trkpt>
      <trkpt lat="45.29816" lon="4.10314">
        <ele>497</ele>
        <time>2021-04-15T12:23:37Z</time>
      </trkpt>
      <trkpt lat="45.29823" lon="4.10323">
        <ele>496</ele>
        <time>2021-04-15T12:23:38Z</time>
      </trkpt>
      <trkpt lat="45.2983" lon="4.1033">
        <ele>496</ele>
        <time>2021-04-15T12:23:39Z</time>
      </trkpt>
      <trkpt lat="45.29838" lon="4.10335">
        <ele>495</ele>
        <time>2021-04-15T12:23:40Z</time>
      </trkpt>
      <trkpt lat="45.29845" lon="4.10336">
        <ele>495</ele>
        <time>2021-04-15T12:23:41Z</time>
      </trkpt>
      <trkpt lat="45.29852" lon="4.10334">
        <ele>495</ele>
        <time>2021-04-15T12:23:42Z</time>
      </trkpt>
      <trkpt lat="45.29859" lon="4.10332">
        <ele>494</ele>
        <time>2021-04-15T12:23:43Z</time>
      </trkpt>
      <trkpt lat="45.29865" lon="4.10329">
        <ele>494</ele>
        <time>2021-04-15T12:23:44Z</time>
      </trkpt>
      <trkpt lat="45.29872" lon="4.10328">
        <ele>494</ele>
        <time>2021-04-15T12:23:45Z</time>
      </trkpt>
      <trkpt lat="45.29878" lon="4.10328">
        <ele>493</ele>
        <time>2021-04-15T12:23:46Z</time>
      </trkpt>
      <trkpt lat="45.29884" lon="4.10331">
        <ele>493</ele>
        <time>2021-04-15T12:23:47Z</time>
      </trkpt>
      <trkpt lat="45.29889" lon="4.10335">
        <ele>493</ele>
        <time>2021-04-15T12:23:48Z</time>
      </trkpt>
      <trkpt lat="45.29895" lon="4.1034">
        <ele>493</ele>
        <time>2021-04-15T12:23:49Z</time>
      </trkpt>
      <trkpt lat="45.299" lon="4.10346">
        <ele>493</ele>
        <time>2021-04-15T12:23:50Z</time>
      </trkpt>
      <trkpt lat="45.29905" lon="4.10351">
        <ele>493</ele>
        <time>2021-04-15T12:23:51Z</time>
      </trkpt>
      <trkpt lat="45.2991" lon="4.10356">
        <ele>492</ele>
        <time>2021-04-15T12:23:52Z</time>
      </trkpt>
      <trkpt lat="45.29915" lon="4.10361">
        <ele>492</ele>
        <time>2021-04-15T12:23:53Z</time>
      </trkpt>
      <trkpt lat="45.2992" lon="4.10366">
        <ele>492</ele>
        <time>2021-04-15T12:23:54Z</time>
      </trkpt>
      <trkpt lat="45.29925" lon="4.10371">
        <ele>492</ele>
        <time>2021-04-15T12:23:55Z</time>
      </trkpt>
      <trkpt lat="45.2993" lon="4.10375">
        <ele>492</ele>
        <time>2021-04-15T12:23:56Z</time>
      </trkpt>
      <trkpt lat="45.29936" lon="4.10378">
        <ele>492</ele>
        <time>2021-04-15T12:23:57Z</time>
      </trkpt>
      <trkpt lat="45.29941" lon="4.10381">
        <ele>492</ele>
        <time>2021-04-15T12:23:58Z</time>
      </trkpt>
      <trkpt lat="45.29947" lon="4.10383">
        <ele>492</ele>
        <time>2021-04-15T12:23:59Z</time>
      </trkpt>
      <trkpt lat="45.29953" lon="4.10384">
        <ele>492</ele>
        <time>2021-04-15T12:24:00Z</time>
      </trkpt>
      <trkpt lat="45.29958" lon="4.10384">
        <ele>492</ele>
        <time>2021-04-15T12:24:01Z</time>
      </trkpt>
      <trkpt lat="45.29963" lon="4.10384">
        <ele>492</ele>
        <time>2021-04-15T12:24:02Z</time>
      </trkpt>
      <trkpt lat="45.29969" lon="4.10384">
        <ele>492</ele>
        <time>2021-04-15T12:24:03Z</time>
      </trkpt>
      <trkpt lat="45.29974" lon="4.10385">
        <ele>492</ele>
        <time>2021-04-15T12:24:04Z</time>
      </trkpt>
      <trkpt lat="45.29979" lon="4.10386">
        <ele>492</ele>
        <time>2021-04-15T12:24:05Z</time>
      </trkpt>
      <trkpt lat="45.29984" lon="4.10387">
        <ele>492</ele>
        <time>2021-04-15T12:24:06Z</time>
      </trkpt>
      <trkpt lat="45.29989" lon="4.10388">
        <ele>492</ele>
        <time>2021-04-15T12:24:07Z</time>
      </trkpt>
      <trkpt lat="45.29995" lon="4.10389">
        <ele>492</ele>
        <time>2021-04-15T12:24:08Z</time>
      </trkpt>
      <trkpt lat="45.3" lon="4.10389">
        <ele>492</ele>
        <time>2021-04-15T12:24:09Z</time>
      </trkpt>
      <trkpt lat="45.30005" lon="4.10389">
        <ele>491</ele>
        <time>2021-04-15T12:24:10Z</time>
      </trkpt>
      <trkpt lat="45.30009" lon="4.10389">
        <ele>491</ele>
        <time>2021-04-15T12:24:11Z</time>
      </trkpt>
      <trkpt lat="45.30013" lon="4.1039">
        <ele>491</ele>
        <time>2021-04-15T12:24:12Z</time>
      </trkpt>
      <trkpt lat="45.30017" lon="4.10391">
        <ele>491</ele>
        <time>2021-04-15T12:24:13Z</time>
      </trkpt>
      <trkpt lat="45.30021" lon="4.10392">
        <ele>491</ele>
        <time>2021-04-15T12:24:14Z</time>
      </trkpt>
      <trkpt lat="45.30025" lon="4.10393">
        <ele>491</ele>
        <time>2021-04-15T12:24:15Z</time>
      </trkpt>
      <trkpt lat="45.30029" lon="4.10394">
        <ele>490</ele>
        <time>2021-04-15T12:24:16Z</time>
      </trkpt>
      <trkpt lat="45.30034" lon="4.10393">
        <ele>490</ele>
        <time>2021-04-15T12:24:17Z</time>
      </trkpt>
      <trkpt lat="45.30039" lon="4.10391">
        <ele>490</ele>
        <time>2021-04-15T12:24:18Z</time>
      </trkpt>
      <trkpt lat="45.30045" lon="4.10389">
        <ele>490</ele>
        <time>2021-04-15T12:24:19Z</time>
      </trkpt>
      <trkpt lat="45.30052" lon="4.10387">
        <ele>490</ele>
        <time>2021-04-15T12:24:20Z</time>
      </trkpt>
      <trkpt lat="45.3006" lon="4.10387">
        <ele>489</ele>
        <time>2021-04-15T12:24:21Z</time>
      </trkpt>
      <trkpt lat="45.30068" lon="4.10388">
        <ele>489</ele>
        <time>2021-04-15T12:24:22Z</time>
      </trkpt>
      <trkpt lat="45.30076" lon="4.10389">
        <ele>489</ele>
        <time>2021-04-15T12:24:23Z</time>
      </trkpt>
      <trkpt lat="45.30084" lon="4.10391">
        <ele>489</ele>
        <time>2021-04-15T12:24:24Z</time>
      </trkpt>
      <trkpt lat="45.30092" lon="4.10392">
        <ele>489</ele>
        <time>2021-04-15T12:24:25Z</time>
      </trkpt>
      <trkpt lat="45.30099" lon="4.10393">
        <ele>489</ele>
        <time>2021-04-15T12:24:26Z</time>
      </trkpt>
      <trkpt lat="45.30106" lon="4.10394">
        <ele>488</ele>
        <time>2021-04-15T12:24:27Z</time>
      </trkpt>
      <trkpt lat="45.30113" lon="4.10395">
        <ele>488</ele>
        <time>2021-04-15T12:24:28Z</time>
      </trkpt>
      <trkpt lat="45.3012" lon="4.10396">
        <ele>488</ele>
        <time>2021-04-15T12:24:29Z</time>
      </trkpt>
      <trkpt lat="45.30125" lon="4.10397">
        <ele>488</ele>
        <time>2021-04-15T12:24:30Z</time>
      </trkpt>
      <trkpt lat="45.3013" lon="4.10397">
        <ele>488</ele>
        <time>2021-04-15T12:24:31Z</time>
      </trkpt>
      <trkpt lat="45.30135" lon="4.10396">
        <ele>487</ele>
        <time>2021-04-15T12:24:32Z</time>
      </trkpt>
      <trkpt lat="45.3014" lon="4.10396">
        <ele>487</ele>
        <time>2021-04-15T12:24:33Z</time>
      </trkpt>
      <trkpt lat="45.30146" lon="4.10395">
        <ele>486</ele>
        <time>2021-04-15T12:24:34Z</time>
      </trkpt>
      <trkpt lat="45.30156" lon="4.10394">
        <ele>486</ele>
        <time>2021-04-15T12:24:36Z</time>
      </trkpt>
      <trkpt lat="45.30161" lon="4.10393">
        <ele>486</ele>
        <time>2021-04-15T12:24:37Z</time>
      </trkpt>
      <trkpt lat="45.30167" lon="4.10392">
        <ele>485</ele>
        <time>2021-04-15T12:24:38Z</time>
      </trkpt>
      <trkpt lat="45.30178" lon="4.10392">
        <ele>485</ele>
        <time>2021-04-15T12:24:40Z</time>
      </trkpt>
      <trkpt lat="45.30183" lon="4.10392">
        <ele>485</ele>
        <time>2021-04-15T12:24:41Z</time>
      </trkpt>
      <trkpt lat="45.30189" lon="4.10392">
        <ele>484</ele>
        <time>2021-04-15T12:24:42Z</time>
      </trkpt>
      <trkpt lat="45.30194" lon="4.10392">
        <ele>484</ele>
        <time>2021-04-15T12:24:43Z</time>
      </trkpt>
      <trkpt lat="45.30198" lon="4.10393">
        <ele>484</ele>
        <time>2021-04-15T12:24:44Z</time>
      </trkpt>
      <trkpt lat="45.30202" lon="4.10394">
        <ele>484</ele>
        <time>2021-04-15T12:24:45Z</time>
      </trkpt>
      <trkpt lat="45.30206" lon="4.10395">
        <ele>484</ele>
        <time>2021-04-15T12:24:46Z</time>
      </trkpt>
      <trkpt lat="45.30211" lon="4.10398">
        <ele>484</ele>
        <time>2021-04-15T12:24:47Z</time>
      </trkpt>
      <trkpt lat="45.30215" lon="4.10401">
        <ele>484</ele>
        <time>2021-04-15T12:24:48Z</time>
      </trkpt>
      <trkpt lat="45.30219" lon="4.10405">
        <ele>484</ele>
        <time>2021-04-15T12:24:49Z</time>
      </trkpt>
      <trkpt lat="45.30222" lon="4.1041">
        <ele>484</ele>
        <time>2021-04-15T12:24:50Z</time>
      </trkpt>
      <trkpt lat="45.30225" lon="4.10415">
        <ele>484</ele>
        <time>2021-04-15T12:24:51Z</time>
      </trkpt>
      <trkpt lat="45.30228" lon="4.10421">
        <ele>484</ele>
        <time>2021-04-15T12:24:52Z</time>
      </trkpt>
      <trkpt lat="45.30232" lon="4.10426">
        <ele>484</ele>
        <time>2021-04-15T12:24:53Z</time>
      </trkpt>
      <trkpt lat="45.30236" lon="4.10431">
        <ele>484</ele>
        <time>2021-04-15T12:24:54Z</time>
      </trkpt>
      <trkpt lat="45.30239" lon="4.10436">
        <ele>484</ele>
        <time>2021-04-15T12:24:55Z</time>
      </trkpt>
      <trkpt lat="45.30243" lon="4.1044">
        <ele>483</ele>
        <time>2021-04-15T12:24:56Z</time>
      </trkpt>
      <trkpt lat="45.30247" lon="4.10444">
        <ele>483</ele>
        <time>2021-04-15T12:24:57Z</time>
      </trkpt>
      <trkpt lat="45.3025" lon="4.10448">
        <ele>483</ele>
        <time>2021-04-15T12:24:58Z</time>
      </trkpt>
      <trkpt lat="45.30254" lon="4.10453">
        <ele>483</ele>
        <time>2021-04-15T12:24:59Z</time>
      </trkpt>
      <trkpt lat="45.30258" lon="4.10458">
        <ele>483</ele>
        <time>2021-04-15T12:25:00Z</time>
      </trkpt>
      <trkpt lat="45.30261" lon="4.10463">
        <ele>483</ele>
        <time>2021-04-15T12:25:01Z</time>
      </trkpt>
      <trkpt lat="45.30265" lon="4.10468">
        <ele>482</ele>
        <time>2021-04-15T12:25:02Z</time>
      </trkpt>
      <trkpt lat="45.30269" lon="4.10474">
        <ele>482</ele>
        <time>2021-04-15T12:25:03Z</time>
      </trkpt>
      <trkpt lat="45.30272" lon="4.10479">
        <ele>482</ele>
        <time>2021-04-15T12:25:04Z</time>
      </trkpt>
      <trkpt lat="45.30276" lon="4.10484">
        <ele>482</ele>
        <time>2021-04-15T12:25:05Z</time>
      </trkpt>
      <trkpt lat="45.3028" lon="4.10489">
        <ele>481</ele>
        <time>2021-04-15T12:25:06Z</time>
      </trkpt>
      <trkpt lat="45.30283" lon="4.10494">
        <ele>481</ele>
        <time>2021-04-15T12:25:07Z</time>
      </trkpt>
      <trkpt lat="45.30287" lon="4.10499">
        <ele>481</ele>
        <time>2021-04-15T12:25:08Z</time>
      </trkpt>
      <trkpt lat="45.3029" lon="4.10504">
        <ele>481</ele>
        <time>2021-04-15T12:25:09Z</time>
      </trkpt>
      <trkpt lat="45.30294" lon="4.10509">
        <ele>481</ele>
        <time>2021-04-15T12:25:10Z</time>
      </trkpt>
      <trkpt lat="45.30297" lon="4.10513">
        <ele>481</ele>
        <time>2021-04-15T12:25:11Z</time>
      </trkpt>
      <trkpt lat="45.30301" lon="4.10519">
        <ele>481</ele>
        <time>2021-04-15T12:25:12Z</time>
      </trkpt>
      <trkpt lat="45.30305" lon="4.10524">
        <ele>481</ele>
        <time>2021-04-15T12:25:13Z</time>
      </trkpt>
      <trkpt lat="45.30309" lon="4.10529">
        <ele>480</ele>
        <time>2021-04-15T12:25:14Z</time>
      </trkpt>
      <trkpt lat="45.30312" lon="4.10534">
        <ele>480</ele>
        <time>2021-04-15T12:25:15Z</time>
      </trkpt>
      <trkpt lat="45.30316" lon="4.10539">
        <ele>480</ele>
        <time>2021-04-15T12:25:16Z</time>
      </trkpt>
      <trkpt lat="45.3032" lon="4.10545">
        <ele>480</ele>
        <time>2021-04-15T12:25:17Z</time>
      </trkpt>
      <trkpt lat="45.30324" lon="4.1055">
        <ele>480</ele>
        <time>2021-04-15T12:25:18Z</time>
      </trkpt>
      <trkpt lat="45.30328" lon="4.10555">
        <ele>480</ele>
        <time>2021-04-15T12:25:19Z</time>
      </trkpt>
      <trkpt lat="45.30332" lon="4.10561">
        <ele>480</ele>
        <time>2021-04-15T12:25:20Z</time>
      </trkpt>
      <trkpt lat="45.30336" lon="4.10566">
        <ele>480</ele>
        <time>2021-04-15T12:25:21Z</time>
      </trkpt>
      <trkpt lat="45.3034" lon="4.10571">
        <ele>480</ele>
        <time>2021-04-15T12:25:22Z</time>
      </trkpt>
      <trkpt lat="45.30344" lon="4.10576">
        <ele>479</ele>
        <time>2021-04-15T12:25:23Z</time>
      </trkpt>
      <trkpt lat="45.30348" lon="4.10582">
        <ele>479</ele>
        <time>2021-04-15T12:25:24Z</time>
      </trkpt>
      <trkpt lat="45.30353" lon="4.10586">
        <ele>479</ele>
        <time>2021-04-15T12:25:25Z</time>
      </trkpt>
      <trkpt lat="45.30357" lon="4.10591">
        <ele>479</ele>
        <time>2021-04-15T12:25:26Z</time>
      </trkpt>
      <trkpt lat="45.30361" lon="4.10596">
        <ele>479</ele>
        <time>2021-04-15T12:25:27Z</time>
      </trkpt>
      <trkpt lat="45.30366" lon="4.106">
        <ele>479</ele>
        <time>2021-04-15T12:25:28Z</time>
      </trkpt>
      <trkpt lat="45.3037" lon="4.10605">
        <ele>478</ele>
        <time>2021-04-15T12:25:29Z</time>
      </trkpt>
      <trkpt lat="45.30374" lon="4.1061">
        <ele>478</ele>
        <time>2021-04-15T12:25:30Z</time>
      </trkpt>
      <trkpt lat="45.30378" lon="4.10614">
        <ele>478</ele>
        <time>2021-04-15T12:25:31Z</time>
      </trkpt>
      <trkpt lat="45.30381" lon="4.10618">
        <ele>478</ele>
        <time>2021-04-15T12:25:32Z</time>
      </trkpt>
      <trkpt lat="45.30384" lon="4.10622">
        <ele>478</ele>
        <time>2021-04-15T12:25:33Z</time>
      </trkpt>
      <trkpt lat="45.30388" lon="4.10625">
        <ele>477</ele>
        <time>2021-04-15T12:25:34Z</time>
      </trkpt>
      <trkpt lat="45.30391" lon="4.10628">
        <ele>477</ele>
        <time>2021-04-15T12:25:35Z</time>
      </trkpt>
      <trkpt lat="45.30394" lon="4.10632">
        <ele>477</ele>
        <time>2021-04-15T12:25:36Z</time>
      </trkpt>
      <trkpt lat="45.30397" lon="4.10635">
        <ele>477</ele>
        <time>2021-04-15T12:25:37Z</time>
      </trkpt>
      <trkpt lat="45.304" lon="4.10638">
        <ele>477</ele>
        <time>2021-04-15T12:25:38Z</time>
      </trkpt>
      <trkpt lat="45.30403" lon="4.10642">
        <ele>477</ele>
        <time>2021-04-15T12:25:39Z</time>
      </trkpt>
      <trkpt lat="45.30406" lon="4.10645">
        <ele>477</ele>
        <time>2021-04-15T12:25:40Z</time>
      </trkpt>
      <trkpt lat="45.3041" lon="4.10649">
        <ele>476</ele>
        <time>2021-04-15T12:25:41Z</time>
      </trkpt>
      <trkpt lat="45.30414" lon="4.10652">
        <ele>476</ele>
        <time>2021-04-15T12:25:42Z</time>
      </trkpt>
      <trkpt lat="45.30418" lon="4.10656">
        <ele>476</ele>
        <time>2021-04-15T12:25:43Z</time>
      </trkpt>
      <trkpt lat="45.30422" lon="4.10659">
        <ele>476</ele>
        <time>2021-04-15T12:25:44Z</time>
      </trkpt>
      <trkpt lat="45.30426" lon="4.10663">
        <ele>476</ele>
        <time>2021-04-15T12:25:45Z</time>
      </trkpt>
      <trkpt lat="45.3043" lon="4.10668">
        <ele>476</ele>
        <time>2021-04-15T12:25:46Z</time>
      </trkpt>
      <trkpt lat="45.30434" lon="4.10673">
        <ele>476</ele>
        <time>2021-04-15T12:25:47Z</time>
      </trkpt>
      <trkpt lat="45.30437" lon="4.10677">
        <ele>475</ele>
        <time>2021-04-15T12:25:48Z</time>
      </trkpt>
      <trkpt lat="45.30441" lon="4.10682">
        <ele>475</ele>
        <time>2021-04-15T12:25:49Z</time>
      </trkpt>
      <trkpt lat="45.30446" lon="4.10687">
        <ele>475</ele>
        <time>2021-04-15T12:25:50Z</time>
      </trkpt>
      <trkpt lat="45.3045" lon="4.10691">
        <ele>475</ele>
        <time>2021-04-15T12:25:51Z</time>
      </trkpt>
      <trkpt lat="45.30454" lon="4.10695">
        <ele>475</ele>
        <time>2021-04-15T12:25:52Z</time>
      </trkpt>
      <trkpt lat="45.30457" lon="4.10699">
        <ele>475</ele>
        <time>2021-04-15T12:25:53Z</time>
      </trkpt>
      <trkpt lat="45.30461" lon="4.10704">
        <ele>475</ele>
        <time>2021-04-15T12:25:54Z</time>
      </trkpt>
      <trkpt lat="45.30463" lon="4.1071">
        <ele>475</ele>
        <time>2021-04-15T12:25:55Z</time>
      </trkpt>
      <trkpt lat="45.30465" lon="4.10716">
        <ele>475</ele>
        <time>2021-04-15T12:25:56Z</time>
      </trkpt>
      <trkpt lat="45.30465" lon="4.10723">
        <ele>475</ele>
        <time>2021-04-15T12:25:57Z</time>
      </trkpt>
      <trkpt lat="45.30466" lon="4.1073">
        <ele>475</ele>
        <time>2021-04-15T12:25:58Z</time>
      </trkpt>
      <trkpt lat="45.30467" lon="4.10737">
        <ele>475</ele>
        <time>2021-04-15T12:25:59Z</time>
      </trkpt>
      <trkpt lat="45.30468" lon="4.10744">
        <ele>475</ele>
        <time>2021-04-15T12:26:00Z</time>
      </trkpt>
      <trkpt lat="45.3047" lon="4.10752">
        <ele>475</ele>
        <time>2021-04-15T12:26:01Z</time>
      </trkpt>
      <trkpt lat="45.30472" lon="4.10759">
        <ele>475</ele>
        <time>2021-04-15T12:26:02Z</time>
      </trkpt>
      <trkpt lat="45.30475" lon="4.10766">
        <ele>475</ele>
        <time>2021-04-15T12:26:03Z</time>
      </trkpt>
      <trkpt lat="45.30478" lon="4.10772">
        <ele>475</ele>
        <time>2021-04-15T12:26:04Z</time>
      </trkpt>
      <trkpt lat="45.30482" lon="4.10778">
        <ele>475</ele>
        <time>2021-04-15T12:26:05Z</time>
      </trkpt>
      <trkpt lat="45.30486" lon="4.10784">
        <ele>474</ele>
        <time>2021-04-15T12:26:06Z</time>
      </trkpt>
      <trkpt lat="45.3049" lon="4.10791">
        <ele>474</ele>
        <time>2021-04-15T12:26:07Z</time>
      </trkpt>
      <trkpt lat="45.30493" lon="4.10797">
        <ele>474</ele>
        <time>2021-04-15T12:26:08Z</time>
      </trkpt>
      <trkpt lat="45.30496" lon="4.10804">
        <ele>474</ele>
        <time>2021-04-15T12:26:09Z</time>
      </trkpt>
      <trkpt lat="45.305" lon="4.1081">
        <ele>474</ele>
        <time>2021-04-15T12:26:10Z</time>
      </trkpt>
      <trkpt lat="45.30504" lon="4.10816">
        <ele>474</ele>
        <time>2021-04-15T12:26:11Z</time>
      </trkpt>
      <trkpt lat="45.30509" lon="4.10821">
        <ele>474</ele>
        <time>2021-04-15T12:26:12Z</time>
      </trkpt>
      <trkpt lat="45.30513" lon="4.10828">
        <ele>474</ele>
        <time>2021-04-15T12:26:13Z</time>
      </trkpt>
      <trkpt lat="45.30516" lon="4.10834">
        <ele>474</ele>
        <time>2021-04-15T12:26:14Z</time>
      </trkpt>
      <trkpt lat="45.3052" lon="4.10848">
        <ele>474</ele>
        <time>2021-04-15T12:26:16Z</time>
      </trkpt>
      <trkpt lat="45.30525" lon="4.10864">
        <ele>474</ele>
        <time>2021-04-15T12:26:18Z</time>
      </trkpt>
      <trkpt lat="45.30527" lon="4.10871">
        <ele>474</ele>
        <time>2021-04-15T12:26:19Z</time>
      </trkpt>
      <trkpt lat="45.30529" lon="4.10879">
        <ele>474</ele>
        <time>2021-04-15T12:26:20Z</time>
      </trkpt>
      <trkpt lat="45.30531" lon="4.10887">
        <ele>474</ele>
        <time>2021-04-15T12:26:21Z</time>
      </trkpt>
      <trkpt lat="45.30531" lon="4.10894">
        <ele>474</ele>
        <time>2021-04-15T12:26:22Z</time>
      </trkpt>
      <trkpt lat="45.3053" lon="4.10901">
        <ele>474</ele>
        <time>2021-04-15T12:26:23Z</time>
      </trkpt>
      <trkpt lat="45.3053" lon="4.10907">
        <ele>474</ele>
        <time>2021-04-15T12:26:24Z</time>
      </trkpt>
      <trkpt lat="45.30531" lon="4.10913">
        <ele>474</ele>
        <time>2021-04-15T12:26:25Z</time>
      </trkpt>
      <trkpt lat="45.30532" lon="4.1092">
        <ele>474</ele>
        <time>2021-04-15T12:26:26Z</time>
      </trkpt>
      <trkpt lat="45.30534" lon="4.10925">
        <ele>474</ele>
        <time>2021-04-15T12:26:27Z</time>
      </trkpt>
      <trkpt lat="45.30537" lon="4.10931">
        <ele>474</ele>
        <time>2021-04-15T12:26:28Z</time>
      </trkpt>
      <trkpt lat="45.3054" lon="4.10937">
        <ele>474</ele>
        <time>2021-04-15T12:26:29Z</time>
      </trkpt>
      <trkpt lat="45.30543" lon="4.10942">
        <ele>474</ele>
        <time>2021-04-15T12:26:30Z</time>
      </trkpt>
      <trkpt lat="45.30548" lon="4.10948">
        <ele>474</ele>
        <time>2021-04-15T12:26:31Z</time>
      </trkpt>
      <trkpt lat="45.30553" lon="4.10954">
        <ele>474</ele>
        <time>2021-04-15T12:26:32Z</time>
      </trkpt>
      <trkpt lat="45.30557" lon="4.10961">
        <ele>474</ele>
        <time>2021-04-15T12:26:33Z</time>
      </trkpt>
      <trkpt lat="45.30562" lon="4.10975">
        <ele>474</ele>
        <time>2021-04-15T12:26:35Z</time>
      </trkpt>
      <trkpt lat="45.30562" lon="4.10989">
        <ele>473</ele>
        <time>2021-04-15T12:26:38Z</time>
      </trkpt>
      <trkpt lat="45.30562" lon="4.10996">
        <ele>473</ele>
        <time>2021-04-15T12:26:40Z</time>
      </trkpt>
      <trkpt lat="45.30561" lon="4.11">
        <ele>473</ele>
        <time>2021-04-15T12:26:42Z</time>
      </trkpt>
      <trkpt lat="45.3056" lon="4.11016">
        <ele>474</ele>
        <time>2021-04-15T12:26:46Z</time>
      </trkpt>
      <trkpt lat="45.30559" lon="4.11034">
        <ele>474</ele>
        <time>2021-04-15T12:26:49Z</time>
      </trkpt>
      <trkpt lat="45.30559" lon="4.1104">
        <ele>473</ele>
        <time>2021-04-15T12:26:50Z</time>
      </trkpt>
      <trkpt lat="45.30559" lon="4.11047">
        <ele>473</ele>
        <time>2021-04-15T12:26:51Z</time>
      </trkpt>
      <trkpt lat="45.30559" lon="4.11054">
        <ele>473</ele>
        <time>2021-04-15T12:26:52Z</time>
      </trkpt>
      <trkpt lat="45.30557" lon="4.11061">
        <ele>472</ele>
        <time>2021-04-15T12:26:53Z</time>
      </trkpt>
      <trkpt lat="45.30557" lon="4.11068">
        <ele>472</ele>
        <time>2021-04-15T12:26:54Z</time>
      </trkpt>
      <trkpt lat="45.30555" lon="4.11075">
        <ele>472</ele>
        <time>2021-04-15T12:26:55Z</time>
      </trkpt>
      <trkpt lat="45.30554" lon="4.11083">
        <ele>472</ele>
        <time>2021-04-15T12:26:56Z</time>
      </trkpt>
      <trkpt lat="45.30553" lon="4.1109">
        <ele>472</ele>
        <time>2021-04-15T12:26:57Z</time>
      </trkpt>
      <trkpt lat="45.30551" lon="4.11098">
        <ele>472</ele>
        <time>2021-04-15T12:26:58Z</time>
      </trkpt>
      <trkpt lat="45.3055" lon="4.11105">
        <ele>472</ele>
        <time>2021-04-15T12:26:59Z</time>
      </trkpt>
      <trkpt lat="45.30549" lon="4.11113">
        <ele>472</ele>
        <time>2021-04-15T12:27:00Z</time>
      </trkpt>
      <trkpt lat="45.30549" lon="4.11121">
        <ele>472</ele>
        <time>2021-04-15T12:27:01Z</time>
      </trkpt>
      <trkpt lat="45.30549" lon="4.11129">
        <ele>473</ele>
        <time>2021-04-15T12:27:02Z</time>
      </trkpt>
      <trkpt lat="45.30548" lon="4.11136">
        <ele>472</ele>
        <time>2021-04-15T12:27:03Z</time>
      </trkpt>
      <trkpt lat="45.30548" lon="4.11144">
        <ele>472</ele>
        <time>2021-04-15T12:27:04Z</time>
      </trkpt>
      <trkpt lat="45.30549" lon="4.11153">
        <ele>472</ele>
        <time>2021-04-15T12:27:05Z</time>
      </trkpt>
      <trkpt lat="45.30549" lon="4.11161">
        <ele>472</ele>
        <time>2021-04-15T12:27:06Z</time>
      </trkpt>
      <trkpt lat="45.30549" lon="4.11169">
        <ele>471</ele>
        <time>2021-04-15T12:27:07Z</time>
      </trkpt>
      <trkpt lat="45.30549" lon="4.11177">
        <ele>470</ele>
        <time>2021-04-15T12:27:08Z</time>
      </trkpt>
      <trkpt lat="45.30549" lon="4.11184">
        <ele>470</ele>
        <time>2021-04-15T12:27:09Z</time>
      </trkpt>
      <trkpt lat="45.30549" lon="4.11192">
        <ele>470</ele>
        <time>2021-04-15T12:27:10Z</time>
      </trkpt>
      <trkpt lat="45.30549" lon="4.112">
        <ele>471</ele>
        <time>2021-04-15T12:27:11Z</time>
      </trkpt>
      <trkpt lat="45.30548" lon="4.11208">
        <ele>471</ele>
        <time>2021-04-15T12:27:12Z</time>
      </trkpt>
      <trkpt lat="45.30547" lon="4.11216">
        <ele>471</ele>
        <time>2021-04-15T12:27:13Z</time>
      </trkpt>
      <trkpt lat="45.30547" lon="4.11224">
        <ele>471</ele>
        <time>2021-04-15T12:27:14Z</time>
      </trkpt>
      <trkpt lat="45.30546" lon="4.11233">
        <ele>471</ele>
        <time>2021-04-15T12:27:15Z</time>
      </trkpt>
      <trkpt lat="45.30543" lon="4.11241">
        <ele>471</ele>
        <time>2021-04-15T12:27:16Z</time>
      </trkpt>
      <trkpt lat="45.3054" lon="4.11249">
        <ele>471</ele>
        <time>2021-04-15T12:27:17Z</time>
      </trkpt>
      <trkpt lat="45.30538" lon="4.11257">
        <ele>470</ele>
        <time>2021-04-15T12:27:18Z</time>
      </trkpt>
      <trkpt lat="45.30536" lon="4.11266">
        <ele>469</ele>
        <time>2021-04-15T12:27:19Z</time>
      </trkpt>
      <trkpt lat="45.30534" lon="4.11275">
        <ele>468</ele>
        <time>2021-04-15T12:27:20Z</time>
      </trkpt>
      <trkpt lat="45.30533" lon="4.11284">
        <ele>467</ele>
        <time>2021-04-15T12:27:21Z</time>
      </trkpt>
      <trkpt lat="45.30533" lon="4.11293">
        <ele>466</ele>
        <time>2021-04-15T12:27:22Z</time>
      </trkpt>
      <trkpt lat="45.30532" lon="4.11303">
        <ele>465</ele>
        <time>2021-04-15T12:27:23Z</time>
      </trkpt>
      <trkpt lat="45.30531" lon="4.11313">
        <ele>464</ele>
        <time>2021-04-15T12:27:24Z</time>
      </trkpt>
      <trkpt lat="45.3053" lon="4.11323">
        <ele>463</ele>
        <time>2021-04-15T12:27:25Z</time>
      </trkpt>
      <trkpt lat="45.3053" lon="4.11333">
        <ele>463</ele>
        <time>2021-04-15T12:27:26Z</time>
      </trkpt>
      <trkpt lat="45.30529" lon="4.11343">
        <ele>462</ele>
        <time>2021-04-15T12:27:27Z</time>
      </trkpt>
      <trkpt lat="45.30528" lon="4.11353">
        <ele>462</ele>
        <time>2021-04-15T12:27:28Z</time>
      </trkpt>
      <trkpt lat="45.30527" lon="4.11364">
        <ele>461</ele>
        <time>2021-04-15T12:27:29Z</time>
      </trkpt>
      <trkpt lat="45.30527" lon="4.11375">
        <ele>460</ele>
        <time>2021-04-15T12:27:30Z</time>
      </trkpt>
      <trkpt lat="45.30528" lon="4.11385">
        <ele>460</ele>
        <time>2021-04-15T12:27:31Z</time>
      </trkpt>
      <trkpt lat="45.30528" lon="4.11396">
        <ele>459</ele>
        <time>2021-04-15T12:27:32Z</time>
      </trkpt>
      <trkpt lat="45.30529" lon="4.11406">
        <ele>459</ele>
        <time>2021-04-15T12:27:33Z</time>
      </trkpt>
      <trkpt lat="45.3053" lon="4.11417">
        <ele>459</ele>
        <time>2021-04-15T12:27:34Z</time>
      </trkpt>
      <trkpt lat="45.30531" lon="4.11427">
        <ele>458</ele>
        <time>2021-04-15T12:27:35Z</time>
      </trkpt>
      <trkpt lat="45.30531" lon="4.11437">
        <ele>458</ele>
        <time>2021-04-15T12:27:36Z</time>
      </trkpt>
      <trkpt lat="45.30531" lon="4.11448">
        <ele>457</ele>
        <time>2021-04-15T12:27:37Z</time>
      </trkpt>
      <trkpt lat="45.30531" lon="4.11458">
        <ele>456</ele>
        <time>2021-04-15T12:27:38Z</time>
      </trkpt>
      <trkpt lat="45.30531" lon="4.11467">
        <ele>456</ele>
        <time>2021-04-15T12:27:39Z</time>
      </trkpt>
      <trkpt lat="45.30533" lon="4.11475">
        <ele>455</ele>
        <time>2021-04-15T12:27:40Z</time>
      </trkpt>
      <trkpt lat="45.30536" lon="4.11481">
        <ele>455</ele>
        <time>2021-04-15T12:27:41Z</time>
      </trkpt>
      <trkpt lat="45.30539" lon="4.11487">
        <ele>455</ele>
        <time>2021-04-15T12:27:42Z</time>
      </trkpt>
      <trkpt lat="45.30542" lon="4.11493">
        <ele>454</ele>
        <time>2021-04-15T12:27:43Z</time>
      </trkpt>
      <trkpt lat="45.30545" lon="4.115">
        <ele>453</ele>
        <time>2021-04-15T12:27:44Z</time>
      </trkpt>
      <trkpt lat="45.30547" lon="4.11508">
        <ele>453</ele>
        <time>2021-04-15T12:27:45Z</time>
      </trkpt>
      <trkpt lat="45.30548" lon="4.11517">
        <ele>453</ele>
        <time>2021-04-15T12:27:46Z</time>
      </trkpt>
      <trkpt lat="45.30548" lon="4.11525">
        <ele>452</ele>
        <time>2021-04-15T12:27:47Z</time>
      </trkpt>
      <trkpt lat="45.30549" lon="4.11534">
        <ele>452</ele>
        <time>2021-04-15T12:27:48Z</time>
      </trkpt>
      <trkpt lat="45.3055" lon="4.11543">
        <ele>452</ele>
        <time>2021-04-15T12:27:49Z</time>
      </trkpt>
      <trkpt lat="45.30551" lon="4.11551">
        <ele>452</ele>
        <time>2021-04-15T12:27:50Z</time>
      </trkpt>
      <trkpt lat="45.30552" lon="4.11558">
        <ele>451</ele>
        <time>2021-04-15T12:27:51Z</time>
      </trkpt>
      <trkpt lat="45.30553" lon="4.11563">
        <ele>451</ele>
        <time>2021-04-15T12:27:52Z</time>
      </trkpt>
      <trkpt lat="45.30554" lon="4.11567">
        <ele>451</ele>
        <time>2021-04-15T12:27:53Z</time>
      </trkpt>
      <trkpt lat="45.30556" lon="4.11571">
        <ele>451</ele>
        <time>2021-04-15T12:27:54Z</time>
      </trkpt>
      <trkpt lat="45.30558" lon="4.11574">
        <ele>450</ele>
        <time>2021-04-15T12:27:55Z</time>
      </trkpt>
      <trkpt lat="45.30559" lon="4.11577">
        <ele>450</ele>
        <time>2021-04-15T12:27:56Z</time>
      </trkpt>
      <trkpt lat="45.30559" lon="4.1158">
        <ele>450</ele>
        <time>2021-04-15T12:27:57Z</time>
      </trkpt>
      <trkpt lat="45.30559" lon="4.11585">
        <ele>449</ele>
        <time>2021-04-15T12:27:59Z</time>
      </trkpt>
      <trkpt lat="45.3056" lon="4.11588">
        <ele>449</ele>
        <time>2021-04-15T12:28:01Z</time>
      </trkpt>
      <trkpt lat="45.30557" lon="4.11595">
        <ele>447</ele>
        <time>2021-04-15T12:28:13Z</time>
      </trkpt>
      <trkpt lat="45.30554" lon="4.11594">
        <ele>447</ele>
        <time>2021-04-15T12:28:14Z</time>
      </trkpt>
      <trkpt lat="45.3055" lon="4.11591">
        <ele>447</ele>
        <time>2021-04-15T12:28:15Z</time>
      </trkpt>
      <trkpt lat="45.30547" lon="4.11586">
        <ele>447</ele>
        <time>2021-04-15T12:28:16Z</time>
      </trkpt>
      <trkpt lat="45.30544" lon="4.11581">
        <ele>446</ele>
        <time>2021-04-15T12:28:17Z</time>
      </trkpt>
      <trkpt lat="45.30541" lon="4.11576">
        <ele>446</ele>
        <time>2021-04-15T12:28:18Z</time>
      </trkpt>
      <trkpt lat="45.30538" lon="4.11572">
        <ele>446</ele>
        <time>2021-04-15T12:28:19Z</time>
      </trkpt>
      <trkpt lat="45.30533" lon="4.11569">
        <ele>446</ele>
        <time>2021-04-15T12:28:20Z</time>
      </trkpt>
      <trkpt lat="45.30528" lon="4.11567">
        <ele>446</ele>
        <time>2021-04-15T12:28:21Z</time>
      </trkpt>
      <trkpt lat="45.30523" lon="4.11568">
        <ele>446</ele>
        <time>2021-04-15T12:28:22Z</time>
      </trkpt>
      <trkpt lat="45.30518" lon="4.1157">
        <ele>446</ele>
        <time>2021-04-15T12:28:23Z</time>
      </trkpt>
      <trkpt lat="45.30513" lon="4.11573">
        <ele>446</ele>
        <time>2021-04-15T12:28:24Z</time>
      </trkpt>
      <trkpt lat="45.30508" lon="4.11576">
        <ele>446</ele>
        <time>2021-04-15T12:28:25Z</time>
      </trkpt>
      <trkpt lat="45.30502" lon="4.11579">
        <ele>446</ele>
        <time>2021-04-15T12:28:26Z</time>
      </trkpt>
      <trkpt lat="45.30497" lon="4.11582">
        <ele>446</ele>
        <time>2021-04-15T12:28:27Z</time>
      </trkpt>
      <trkpt lat="45.30491" lon="4.11585">
        <ele>446</ele>
        <time>2021-04-15T12:28:28Z</time>
      </trkpt>
      <trkpt lat="45.30485" lon="4.11588">
        <ele>446</ele>
        <time>2021-04-15T12:28:29Z</time>
      </trkpt>
      <trkpt lat="45.30479" lon="4.11591">
        <ele>446</ele>
        <time>2021-04-15T12:28:30Z</time>
      </trkpt>
      <trkpt lat="45.30474" lon="4.11594">
        <ele>446</ele>
        <time>2021-04-15T12:28:31Z</time>
      </trkpt>
      <trkpt lat="45.30469" lon="4.11597">
        <ele>446</ele>
        <time>2021-04-15T12:28:32Z</time>
      </trkpt>
      <trkpt lat="45.30463" lon="4.11601">
        <ele>446</ele>
        <time>2021-04-15T12:28:33Z</time>
      </trkpt>
      <trkpt lat="45.30458" lon="4.11604">
        <ele>446</ele>
        <time>2021-04-15T12:28:34Z</time>
      </trkpt>
      <trkpt lat="45.30453" lon="4.11607">
        <ele>446</ele>
        <time>2021-04-15T12:28:35Z</time>
      </trkpt>
      <trkpt lat="45.30447" lon="4.1161">
        <ele>446</ele>
        <time>2021-04-15T12:28:36Z</time>
      </trkpt>
      <trkpt lat="45.30442" lon="4.11613">
        <ele>446</ele>
        <time>2021-04-15T12:28:37Z</time>
      </trkpt>
      <trkpt lat="45.30436" lon="4.11616">
        <ele>446</ele>
        <time>2021-04-15T12:28:38Z</time>
      </trkpt>
      <trkpt lat="45.30431" lon="4.1162">
        <ele>445</ele>
        <time>2021-04-15T12:28:39Z</time>
      </trkpt>
      <trkpt lat="45.30425" lon="4.11623">
        <ele>445</ele>
        <time>2021-04-15T12:28:40Z</time>
      </trkpt>
      <trkpt lat="45.30419" lon="4.11627">
        <ele>445</ele>
        <time>2021-04-15T12:28:41Z</time>
      </trkpt>
      <trkpt lat="45.30413" lon="4.1163">
        <ele>445</ele>
        <time>2021-04-15T12:28:42Z</time>
      </trkpt>
      <trkpt lat="45.30408" lon="4.11634">
        <ele>446</ele>
        <time>2021-04-15T12:28:43Z</time>
      </trkpt>
      <trkpt lat="45.30402" lon="4.11637">
        <ele>446</ele>
        <time>2021-04-15T12:28:44Z</time>
      </trkpt>
      <trkpt lat="45.30396" lon="4.11641">
        <ele>446</ele>
        <time>2021-04-15T12:28:45Z</time>
      </trkpt>
      <trkpt lat="45.30391" lon="4.11645">
        <ele>445</ele>
        <time>2021-04-15T12:28:46Z</time>
      </trkpt>
      <trkpt lat="45.30386" lon="4.11648">
        <ele>445</ele>
        <time>2021-04-15T12:28:47Z</time>
      </trkpt>
      <trkpt lat="45.30381" lon="4.11652">
        <ele>445</ele>
        <time>2021-04-15T12:28:48Z</time>
      </trkpt>
      <trkpt lat="45.30376" lon="4.11656">
        <ele>445</ele>
        <time>2021-04-15T12:28:49Z</time>
      </trkpt>
      <trkpt lat="45.30371" lon="4.11661">
        <ele>445</ele>
        <time>2021-04-15T12:28:50Z</time>
      </trkpt>
      <trkpt lat="45.30367" lon="4.11667">
        <ele>445</ele>
        <time>2021-04-15T12:28:51Z</time>
      </trkpt>
      <trkpt lat="45.30363" lon="4.11672">
        <ele>445</ele>
        <time>2021-04-15T12:28:52Z</time>
      </trkpt>
      <trkpt lat="45.30358" lon="4.11678">
        <ele>445</ele>
        <time>2021-04-15T12:28:53Z</time>
      </trkpt>
      <trkpt lat="45.30353" lon="4.11683">
        <ele>445</ele>
        <time>2021-04-15T12:28:54Z</time>
      </trkpt>
      <trkpt lat="45.30334" lon="4.11705">
        <ele>442.2</ele>
      </trkpt>
      <trkpt lat="45.30353" lon="4.11707">
        <ele>448</ele>
        <time>2021-04-15T12:29:48Z</time>
      </trkpt>
      <trkpt lat="45.30355" lon="4.11708">
        <ele>448</ele>
        <time>2021-04-15T12:29:49Z</time>
      </trkpt>
      <trkpt lat="45.30357" lon="4.11708">
        <ele>448</ele>
        <time>2021-04-15T12:29:50Z</time>
      </trkpt>
      <trkpt lat="45.3036" lon="4.11708">
        <ele>448</ele>
        <time>2021-04-15T12:29:51Z</time>
      </trkpt>
      <trkpt lat="45.30362" lon="4.11708">
        <ele>448</ele>
        <time>2021-04-15T12:29:52Z</time>
      </trkpt>
      <trkpt lat="45.30366" lon="4.11708">
        <ele>448</ele>
        <time>2021-04-15T12:29:53Z</time>
      </trkpt>
      <trkpt lat="45.3037" lon="4.11709">
        <ele>448</ele>
        <time>2021-04-15T12:29:54Z</time>
      </trkpt>
      <trkpt lat="45.30374" lon="4.11709">
        <ele>448</ele>
        <time>2021-04-15T12:29:55Z</time>
      </trkpt>
      <trkpt lat="45.30379" lon="4.1171">
        <ele>448</ele>
        <time>2021-04-15T12:29:56Z</time>
      </trkpt>
      <trkpt lat="45.30383" lon="4.11711">
        <ele>448</ele>
        <time>2021-04-15T12:29:57Z</time>
      </trkpt>
      <trkpt lat="45.30388" lon="4.11712">
        <ele>448</ele>
        <time>2021-04-15T12:29:58Z</time>
      </trkpt>
      <trkpt lat="45.30394" lon="4.11713">
        <ele>448</ele>
        <time>2021-04-15T12:29:59Z</time>
      </trkpt>
      <trkpt lat="45.30399" lon="4.11714">
        <ele>447</ele>
        <time>2021-04-15T12:30:00Z</time>
      </trkpt>
      <trkpt lat="45.30403" lon="4.11715">
        <ele>448</ele>
        <time>2021-04-15T12:30:01Z</time>
      </trkpt>
      <trkpt lat="45.30409" lon="4.11716">
        <ele>448</ele>
        <time>2021-04-15T12:30:02Z</time>
      </trkpt>
      <trkpt lat="45.30414" lon="4.11717">
        <ele>447</ele>
        <time>2021-04-15T12:30:03Z</time>
      </trkpt>
      <trkpt lat="45.3042" lon="4.11719">
        <ele>447</ele>
        <time>2021-04-15T12:30:04Z</time>
      </trkpt>
      <trkpt lat="45.30426" lon="4.1172">
        <ele>447</ele>
        <time>2021-04-15T12:30:05Z</time>
      </trkpt>
      <trkpt lat="45.30431" lon="4.11722">
        <ele>447</ele>
        <time>2021-04-15T12:30:06Z</time>
      </trkpt>
      <trkpt lat="45.30437" lon="4.11723">
        <ele>447</ele>
        <time>2021-04-15T12:30:07Z</time>
      </trkpt>
      <trkpt lat="45.30443" lon="4.11725">
        <ele>447</ele>
        <time>2021-04-15T12:30:08Z</time>
      </trkpt>
      <trkpt lat="45.30448" lon="4.11727">
        <ele>447</ele>
        <time>2021-04-15T12:30:09Z</time>
      </trkpt>
      <trkpt lat="45.30453" lon="4.11729">
        <ele>447</ele>
        <time>2021-04-15T12:30:10Z</time>
      </trkpt>
      <trkpt lat="45.30459" lon="4.11731">
        <ele>447</ele>
        <time>2021-04-15T12:30:11Z</time>
      </trkpt>
      <trkpt lat="45.30464" lon="4.11733">
        <ele>447</ele>
        <time>2021-04-15T12:30:12Z</time>
      </trkpt>
      <trkpt lat="45.3047" lon="4.11735">
        <ele>447</ele>
        <time>2021-04-15T12:30:13Z</time>
      </trkpt>
      <trkpt lat="45.30475" lon="4.11736">
        <ele>447</ele>
        <time>2021-04-15T12:30:14Z</time>
      </trkpt>
      <trkpt lat="45.30481" lon="4.11738">
        <ele>447</ele>
        <time>2021-04-15T12:30:15Z</time>
      </trkpt>
      <trkpt lat="45.30486" lon="4.11739">
        <ele>447</ele>
        <time>2021-04-15T12:30:16Z</time>
      </trkpt>
      <trkpt lat="45.30492" lon="4.11741">
        <ele>447</ele>
        <time>2021-04-15T12:30:17Z</time>
      </trkpt>
      <trkpt lat="45.30498" lon="4.11742">
        <ele>447</ele>
        <time>2021-04-15T12:30:18Z</time>
      </trkpt>
      <trkpt lat="45.30505" lon="4.11743">
        <ele>447</ele>
        <time>2021-04-15T12:30:19Z</time>
      </trkpt>
      <trkpt lat="45.30511" lon="4.11745">
        <ele>447</ele>
        <time>2021-04-15T12:30:20Z</time>
      </trkpt>
      <trkpt lat="45.30517" lon="4.11748">
        <ele>447</ele>
        <time>2021-04-15T12:30:21Z</time>
      </trkpt>
      <trkpt lat="45.30523" lon="4.11751">
        <ele>447</ele>
        <time>2021-04-15T12:30:22Z</time>
      </trkpt>
      <trkpt lat="45.30528" lon="4.11753">
        <ele>448</ele>
        <time>2021-04-15T12:30:23Z</time>
      </trkpt>
      <trkpt lat="45.30533" lon="4.11753">
        <ele>448</ele>
        <time>2021-04-15T12:30:24Z</time>
      </trkpt>
      <trkpt lat="45.30539" lon="4.11754">
        <ele>448</ele>
        <time>2021-04-15T12:30:25Z</time>
      </trkpt>
      <trkpt lat="45.30544" lon="4.11755">
        <ele>448</ele>
        <time>2021-04-15T12:30:26Z</time>
      </trkpt>
      <trkpt lat="45.3055" lon="4.11755">
        <ele>448</ele>
        <time>2021-04-15T12:30:27Z</time>
      </trkpt>
      <trkpt lat="45.30556" lon="4.11756">
        <ele>448</ele>
        <time>2021-04-15T12:30:28Z</time>
      </trkpt>
      <trkpt lat="45.30561" lon="4.11758">
        <ele>448</ele>
        <time>2021-04-15T12:30:29Z</time>
      </trkpt>
      <trkpt lat="45.30567" lon="4.11759">
        <ele>448</ele>
        <time>2021-04-15T12:30:30Z</time>
      </trkpt>
      <trkpt lat="45.30573" lon="4.11761">
        <ele>448</ele>
        <time>2021-04-15T12:30:31Z</time>
      </trkpt>
      <trkpt lat="45.30579" lon="4.11762">
        <ele>448</ele>
        <time>2021-04-15T12:30:32Z</time>
      </trkpt>
      <trkpt lat="45.30585" lon="4.11763">
        <ele>448</ele>
        <time>2021-04-15T12:30:33Z</time>
      </trkpt>
      <trkpt lat="45.30591" lon="4.11764">
        <ele>448</ele>
        <time>2021-04-15T12:30:34Z</time>
      </trkpt>
      <trkpt lat="45.30596" lon="4.11765">
        <ele>448</ele>
        <time>2021-04-15T12:30:35Z</time>
      </trkpt>
      <trkpt lat="45.30602" lon="4.11766">
        <ele>448</ele>
        <time>2021-04-15T12:30:36Z</time>
      </trkpt>
      <trkpt lat="45.30608" lon="4.11767">
        <ele>448</ele>
        <time>2021-04-15T12:30:37Z</time>
      </trkpt>
      <trkpt lat="45.30614" lon="4.11769">
        <ele>448</ele>
        <time>2021-04-15T12:30:38Z</time>
      </trkpt>
      <trkpt lat="45.3062" lon="4.11771">
        <ele>448</ele>
        <time>2021-04-15T12:30:39Z</time>
      </trkpt>
      <trkpt lat="45.30626" lon="4.11773">
        <ele>448</ele>
        <time>2021-04-15T12:30:40Z</time>
      </trkpt>
      <trkpt lat="45.30632" lon="4.11775">
        <ele>448</ele>
        <time>2021-04-15T12:30:41Z</time>
      </trkpt>
      <trkpt lat="45.30637" lon="4.11776">
        <ele>448</ele>
        <time>2021-04-15T12:30:42Z</time>
      </trkpt>
      <trkpt lat="45.30642" lon="4.11778">
        <ele>448</ele>
        <time>2021-04-15T12:30:43Z</time>
      </trkpt>
      <trkpt lat="45.30646" lon="4.1178">
        <ele>448</ele>
        <time>2021-04-15T12:30:44Z</time>
      </trkpt>
      <trkpt lat="45.30651" lon="4.11781">
        <ele>448</ele>
        <time>2021-04-15T12:30:45Z</time>
      </trkpt>
      <trkpt lat="45.30654" lon="4.11783">
        <ele>448</ele>
        <time>2021-04-15T12:30:46Z</time>
      </trkpt>
      <trkpt lat="45.30658" lon="4.11784">
        <ele>448</ele>
        <time>2021-04-15T12:30:47Z</time>
      </trkpt>
      <trkpt lat="45.30663" lon="4.11786">
        <ele>448</ele>
        <time>2021-04-15T12:30:48Z</time>
      </trkpt>
      <trkpt lat="45.30668" lon="4.11787">
        <ele>448</ele>
        <time>2021-04-15T12:30:49Z</time>
      </trkpt>
      <trkpt lat="45.30672" lon="4.11789">
        <ele>448</ele>
        <time>2021-04-15T12:30:50Z</time>
      </trkpt>
      <trkpt lat="45.30677" lon="4.1179">
        <ele>448</ele>
        <time>2021-04-15T12:30:51Z</time>
      </trkpt>
      <trkpt lat="45.30681" lon="4.11792">
        <ele>448</ele>
        <time>2021-04-15T12:30:52Z</time>
      </trkpt>
      <trkpt lat="45.30684" lon="4.11793">
        <ele>448</ele>
        <time>2021-04-15T12:30:53Z</time>
      </trkpt>
      <trkpt lat="45.30688" lon="4.11794">
        <ele>448</ele>
        <time>2021-04-15T12:30:54Z</time>
      </trkpt>
      <trkpt lat="45.30692" lon="4.11796">
        <ele>448</ele>
        <time>2021-04-15T12:30:55Z</time>
      </trkpt>
      <trkpt lat="45.30696" lon="4.11797">
        <ele>448</ele>
        <time>2021-04-15T12:30:56Z</time>
      </trkpt>
      <trkpt lat="45.307" lon="4.11799">
        <ele>448</ele>
        <time>2021-04-15T12:30:57Z</time>
      </trkpt>
      <trkpt lat="45.30704" lon="4.11801">
        <ele>448</ele>
        <time>2021-04-15T12:30:58Z</time>
      </trkpt>
      <trkpt lat="45.30709" lon="4.11803">
        <ele>448</ele>
        <time>2021-04-15T12:30:59Z</time>
      </trkpt>
      <trkpt lat="45.30713" lon="4.11806">
        <ele>448</ele>
        <time>2021-04-15T12:31:00Z</time>
      </trkpt>
      <trkpt lat="45.30718" lon="4.11808">
        <ele>448</ele>
        <time>2021-04-15T12:31:01Z</time>
      </trkpt>
      <trkpt lat="45.30722" lon="4.11811">
        <ele>448</ele>
        <time>2021-04-15T12:31:02Z</time>
      </trkpt>
      <trkpt lat="45.30726" lon="4.11813">
        <ele>448</ele>
        <time>2021-04-15T12:31:03Z</time>
      </trkpt>
      <trkpt lat="45.30729" lon="4.11816">
        <ele>448</ele>
        <time>2021-04-15T12:31:04Z</time>
      </trkpt>
      <trkpt lat="45.30732" lon="4.11818">
        <ele>447</ele>
        <time>2021-04-15T12:31:05Z</time>
      </trkpt>
      <trkpt lat="45.30735" lon="4.11821">
        <ele>447</ele>
        <time>2021-04-15T12:31:06Z</time>
      </trkpt>
      <trkpt lat="45.30738" lon="4.11823">
        <ele>447</ele>
        <time>2021-04-15T12:31:07Z</time>
      </trkpt>
      <trkpt lat="45.30741" lon="4.11826">
        <ele>447</ele>
        <time>2021-04-15T12:31:08Z</time>
      </trkpt>
      <trkpt lat="45.30743" lon="4.11828">
        <ele>447</ele>
        <time>2021-04-15T12:31:09Z</time>
      </trkpt>
      <trkpt lat="45.30746" lon="4.1183">
        <ele>447</ele>
        <time>2021-04-15T12:31:10Z</time>
      </trkpt>
      <trkpt lat="45.30748" lon="4.11832">
        <ele>447</ele>
        <time>2021-04-15T12:31:11Z</time>
      </trkpt>
      <trkpt lat="45.3075" lon="4.11834">
        <ele>447</ele>
        <time>2021-04-15T12:31:12Z</time>
      </trkpt>
      <trkpt lat="45.30753" lon="4.11836">
        <ele>447</ele>
        <time>2021-04-15T12:31:13Z</time>
      </trkpt>
      <trkpt lat="45.30755" lon="4.11838">
        <ele>447</ele>
        <time>2021-04-15T12:31:14Z</time>
      </trkpt>
      <trkpt lat="45.30757" lon="4.11839">
        <ele>447</ele>
        <time>2021-04-15T12:31:15Z</time>
      </trkpt>
      <trkpt lat="45.30758" lon="4.11841">
        <ele>447</ele>
        <time>2021-04-15T12:31:16Z</time>
      </trkpt>
      <trkpt lat="45.3076" lon="4.11843">
        <ele>447</ele>
        <time>2021-04-15T12:31:17Z</time>
      </trkpt>
      <trkpt lat="45.30762" lon="4.11845">
        <ele>447</ele>
        <time>2021-04-15T12:31:18Z</time>
      </trkpt>
      <trkpt lat="45.30784" lon="4.11867">
        <ele>447</ele>
        <time>2021-04-26T07:53:36Z</time>
      </trkpt>
      <trkpt lat="45.30788" lon="4.11871">
        <ele>447</ele>
        <time>2021-04-26T07:53:37Z</time>
      </trkpt>
      <trkpt lat="45.30791" lon="4.11874">
        <ele>447</ele>
        <time>2021-04-26T07:53:39Z</time>
      </trkpt>
      <trkpt lat="45.30797" lon="4.11882">
        <ele>447</ele>
        <time>2021-04-26T07:53:40Z</time>
      </trkpt>
      <trkpt lat="45.30801" lon="4.11885">
        <ele>447</ele>
        <time>2021-04-26T07:53:41Z</time>
      </trkpt>
      <trkpt lat="45.30805" lon="4.11889">
        <ele>447</ele>
        <time>2021-04-26T07:53:42Z</time>
      </trkpt>
      <trkpt lat="45.30809" lon="4.11893">
        <ele>447</ele>
        <time>2021-04-26T07:53:43Z</time>
      </trkpt>
      <trkpt lat="45.30812" lon="4.11896">
        <ele>447</ele>
        <time>2021-04-26T07:53:44Z</time>
      </trkpt>
      <trkpt lat="45.30816" lon="4.119">
        <ele>447</ele>
        <time>2021-04-26T07:53:45Z</time>
      </trkpt>
      <trkpt lat="45.3082" lon="4.11903">
        <ele>447</ele>
        <time>2021-04-26T07:53:46Z</time>
      </trkpt>
      <trkpt lat="45.30824" lon="4.11906">
        <ele>447</ele>
        <time>2021-04-26T07:53:47Z</time>
      </trkpt>
      <trkpt lat="45.30828" lon="4.11908">
        <ele>447</ele>
        <time>2021-04-26T07:53:48Z</time>
      </trkpt>
      <trkpt lat="45.30835" lon="4.11913">
        <ele>447</ele>
        <time>2021-04-26T07:53:50Z</time>
      </trkpt>
      <trkpt lat="45.30839" lon="4.11916">
        <ele>447</ele>
        <time>2021-04-26T07:53:51Z</time>
      </trkpt>
      <trkpt lat="45.30843" lon="4.11918">
        <ele>447</ele>
        <time>2021-04-26T07:53:52Z</time>
      </trkpt>
      <trkpt lat="45.30847" lon="4.11921">
        <ele>447</ele>
        <time>2021-04-26T07:53:53Z</time>
      </trkpt>
      <trkpt lat="45.3085" lon="4.11923">
        <ele>447</ele>
        <time>2021-04-26T07:53:54Z</time>
      </trkpt>
      <trkpt lat="45.30854" lon="4.11926">
        <ele>447</ele>
        <time>2021-04-26T07:53:55Z</time>
      </trkpt>
      <trkpt lat="45.30858" lon="4.11928">
        <ele>447</ele>
        <time>2021-04-26T07:53:56Z</time>
      </trkpt>
      <trkpt lat="45.30862" lon="4.1193">
        <ele>447</ele>
        <time>2021-04-26T07:53:57Z</time>
      </trkpt>
      <trkpt lat="45.30869" lon="4.11935">
        <ele>448</ele>
        <time>2021-04-26T07:53:59Z</time>
      </trkpt>
      <trkpt lat="45.30873" lon="4.11937">
        <ele>447</ele>
        <time>2021-04-26T07:54:00Z</time>
      </trkpt>
      <trkpt lat="45.30877" lon="4.11939">
        <ele>448</ele>
        <time>2021-04-26T07:54:02Z</time>
      </trkpt>
      <trkpt lat="45.30885" lon="4.11943">
        <ele>448</ele>
        <time>2021-04-26T07:54:03Z</time>
      </trkpt>
      <trkpt lat="45.30892" lon="4.11947">
        <ele>448</ele>
        <time>2021-04-26T07:54:05Z</time>
      </trkpt>
      <trkpt lat="45.30899" lon="4.11951">
        <ele>448</ele>
        <time>2021-04-26T07:54:07Z</time>
      </trkpt>
      <trkpt lat="45.30903" lon="4.11953">
        <ele>448</ele>
        <time>2021-04-26T07:54:08Z</time>
      </trkpt>
      <trkpt lat="45.30906" lon="4.11955">
        <ele>448</ele>
        <time>2021-04-26T07:54:10Z</time>
      </trkpt>
      <trkpt lat="45.3091" lon="4.11958">
        <ele>448</ele>
        <time>2021-04-26T07:54:11Z</time>
      </trkpt>
      <trkpt lat="45.30917" lon="4.11963">
        <ele>448</ele>
        <time>2021-04-26T07:54:12Z</time>
      </trkpt>
      <trkpt lat="45.30921" lon="4.11965">
        <ele>448</ele>
        <time>2021-04-26T07:54:13Z</time>
      </trkpt>
      <trkpt lat="45.30925" lon="4.11968">
        <ele>448</ele>
        <time>2021-04-26T07:54:15Z</time>
      </trkpt>
      <trkpt lat="45.30928" lon="4.11971">
        <ele>448</ele>
        <time>2021-04-26T07:54:16Z</time>
      </trkpt>
      <trkpt lat="45.30932" lon="4.11973">
        <ele>448</ele>
        <time>2021-04-26T07:54:17Z</time>
      </trkpt>
      <trkpt lat="45.30939" lon="4.11979">
        <ele>448</ele>
        <time>2021-04-26T07:54:18Z</time>
      </trkpt>
      <trkpt lat="45.30942" lon="4.11982">
        <ele>448</ele>
        <time>2021-04-26T07:54:19Z</time>
      </trkpt>
      <trkpt lat="45.30946" lon="4.11985">
        <ele>448</ele>
        <time>2021-04-26T07:54:20Z</time>
      </trkpt>
      <trkpt lat="45.3095" lon="4.11988">
        <ele>448</ele>
        <time>2021-04-26T07:54:21Z</time>
      </trkpt>
      <trkpt lat="45.30953" lon="4.11991">
        <ele>448</ele>
        <time>2021-04-26T07:54:22Z</time>
      </trkpt>
      <trkpt lat="45.30957" lon="4.11995">
        <ele>448</ele>
        <time>2021-04-26T07:54:23Z</time>
      </trkpt>
      <trkpt lat="45.3096" lon="4.11998">
        <ele>448</ele>
        <time>2021-04-26T07:54:24Z</time>
      </trkpt>
      <trkpt lat="45.30964" lon="4.12002">
        <ele>448</ele>
        <time>2021-04-26T07:54:25Z</time>
      </trkpt>
      <trkpt lat="45.3097" lon="4.12009">
        <ele>448</ele>
        <time>2021-04-26T07:54:27Z</time>
      </trkpt>
      <trkpt lat="45.30974" lon="4.12012">
        <ele>448</ele>
        <time>2021-04-26T07:54:28Z</time>
      </trkpt>
      <trkpt lat="45.30977" lon="4.12015">
        <ele>448</ele>
        <time>2021-04-26T07:54:29Z</time>
      </trkpt>
      <trkpt lat="45.3098" lon="4.12019">
        <ele>448</ele>
        <time>2021-04-26T07:54:30Z</time>
      </trkpt>
      <trkpt lat="45.30983" lon="4.12022">
        <ele>448</ele>
        <time>2021-04-26T07:54:31Z</time>
      </trkpt>
      <trkpt lat="45.30986" lon="4.12026">
        <ele>448</ele>
        <time>2021-04-26T07:54:32Z</time>
      </trkpt>
      <trkpt lat="45.30989" lon="4.12029">
        <ele>448</ele>
        <time>2021-04-26T07:54:33Z</time>
      </trkpt>
      <trkpt lat="45.30992" lon="4.12033">
        <ele>448</ele>
        <time>2021-04-26T07:54:34Z</time>
      </trkpt>
      <trkpt lat="45.30995" lon="4.12036">
        <ele>448</ele>
        <time>2021-04-26T07:54:35Z</time>
      </trkpt>
      <trkpt lat="45.31001" lon="4.12044">
        <ele>448</ele>
        <time>2021-04-26T07:54:37Z</time>
      </trkpt>
      <trkpt lat="45.31004" lon="4.12048">
        <ele>448</ele>
        <time>2021-04-26T07:54:39Z</time>
      </trkpt>
      <trkpt lat="45.31008" lon="4.12052">
        <ele>448</ele>
        <time>2021-04-26T07:54:40Z</time>
      </trkpt>
      <trkpt lat="45.31011" lon="4.12056">
        <ele>448</ele>
        <time>2021-04-26T07:54:41Z</time>
      </trkpt>
      <trkpt lat="45.31017" lon="4.12064">
        <ele>448</ele>
        <time>2021-04-26T07:54:42Z</time>
      </trkpt>
      <trkpt lat="45.3102" lon="4.12068">
        <ele>448</ele>
        <time>2021-04-26T07:54:43Z</time>
      </trkpt>
      <trkpt lat="45.31023" lon="4.12072">
        <ele>448</ele>
        <time>2021-04-26T07:54:45Z</time>
      </trkpt>
      <trkpt lat="45.31026" lon="4.12075">
        <ele>448</ele>
        <time>2021-04-26T07:54:46Z</time>
      </trkpt>
      <trkpt lat="45.31029" lon="4.12079">
        <ele>448</ele>
        <time>2021-04-26T07:54:47Z</time>
      </trkpt>
      <trkpt lat="45.31032" lon="4.12083">
        <ele>448</ele>
        <time>2021-04-26T07:54:48Z</time>
      </trkpt>
      <trkpt lat="45.31035" lon="4.12088">
        <ele>448</ele>
        <time>2021-04-26T07:54:49Z</time>
      </trkpt>
      <trkpt lat="45.31038" lon="4.12092">
        <ele>448</ele>
        <time>2021-04-26T07:54:50Z</time>
      </trkpt>
      <trkpt lat="45.31041" lon="4.12096">
        <ele>448</ele>
        <time>2021-04-26T07:54:51Z</time>
      </trkpt>
      <trkpt lat="45.31044" lon="4.121">
        <ele>448</ele>
        <time>2021-04-26T07:54:52Z</time>
      </trkpt>
      <trkpt lat="45.31047" lon="4.12104">
        <ele>447</ele>
        <time>2021-04-26T07:54:53Z</time>
      </trkpt>
      <trkpt lat="45.31052" lon="4.12113">
        <ele>448</ele>
        <time>2021-04-26T07:54:54Z</time>
      </trkpt>
      <trkpt lat="45.31058" lon="4.12122">
        <ele>448</ele>
        <time>2021-04-26T07:54:56Z</time>
      </trkpt>
      <trkpt lat="45.3106" lon="4.12127">
        <ele>448</ele>
        <time>2021-04-26T07:54:57Z</time>
      </trkpt>
      <trkpt lat="45.31065" lon="4.12136">
        <ele>448</ele>
        <time>2021-04-26T07:54:59Z</time>
      </trkpt>
      <trkpt lat="45.31068" lon="4.12141">
        <ele>448</ele>
        <time>2021-04-26T07:55:00Z</time>
      </trkpt>
      <trkpt lat="45.3107" lon="4.12146">
        <ele>448</ele>
        <time>2021-04-26T07:55:01Z</time>
      </trkpt>
      <trkpt lat="45.31074" lon="4.12156">
        <ele>448</ele>
        <time>2021-04-26T07:55:03Z</time>
      </trkpt>
      <trkpt lat="45.31075" lon="4.12161">
        <ele>448</ele>
        <time>2021-04-26T07:55:04Z</time>
      </trkpt>
      <trkpt lat="45.31077" lon="4.12166">
        <ele>448</ele>
        <time>2021-04-26T07:55:05Z</time>
      </trkpt>
      <trkpt lat="45.31079" lon="4.12171">
        <ele>448</ele>
        <time>2021-04-26T07:55:06Z</time>
      </trkpt>
      <trkpt lat="45.31081" lon="4.12176">
        <ele>448</ele>
        <time>2021-04-26T07:55:07Z</time>
      </trkpt>
      <trkpt lat="45.31082" lon="4.12181">
        <ele>447</ele>
        <time>2021-04-26T07:55:08Z</time>
      </trkpt>
      <trkpt lat="45.31083" lon="4.12185">
        <ele>447</ele>
        <time>2021-04-26T07:55:09Z</time>
      </trkpt>
      <trkpt lat="45.31085" lon="4.1219">
        <ele>447</ele>
        <time>2021-04-26T07:55:10Z</time>
      </trkpt>
      <trkpt lat="45.31086" lon="4.12194">
        <ele>447</ele>
        <time>2021-04-26T07:55:11Z</time>
      </trkpt>
      <trkpt lat="45.31087" lon="4.12199">
        <ele>447</ele>
        <time>2021-04-26T07:55:12Z</time>
      </trkpt>
      <trkpt lat="45.31089" lon="4.12204">
        <ele>447</ele>
        <time>2021-04-26T07:55:13Z</time>
      </trkpt>
      <trkpt lat="45.3109" lon="4.1221">
        <ele>447</ele>
        <time>2021-04-26T07:55:15Z</time>
      </trkpt>
      <trkpt lat="45.31092" lon="4.12216">
        <ele>447</ele>
        <time>2021-04-26T07:55:16Z</time>
      </trkpt>
      <trkpt lat="45.31093" lon="4.12222">
        <ele>447</ele>
        <time>2021-04-26T07:55:17Z</time>
      </trkpt>
      <trkpt lat="45.31094" lon="4.12228">
        <ele>447</ele>
        <time>2021-04-26T07:55:18Z</time>
      </trkpt>
      <trkpt lat="45.31096" lon="4.12233">
        <ele>447</ele>
        <time>2021-04-26T07:55:19Z</time>
      </trkpt>
      <trkpt lat="45.31097" lon="4.12239">
        <ele>447</ele>
        <time>2021-04-26T07:55:20Z</time>
      </trkpt>
      <trkpt lat="45.31098" lon="4.12244">
        <ele>447</ele>
        <time>2021-04-26T07:55:21Z</time>
      </trkpt>
      <trkpt lat="45.31099" lon="4.12249">
        <ele>447</ele>
        <time>2021-04-26T07:55:22Z</time>
      </trkpt>
      <trkpt lat="45.311" lon="4.12255">
        <ele>447</ele>
        <time>2021-04-26T07:55:23Z</time>
      </trkpt>
      <trkpt lat="45.31101" lon="4.1226">
        <ele>447</ele>
        <time>2021-04-26T07:55:24Z</time>
      </trkpt>
      <trkpt lat="45.31102" lon="4.12266">
        <ele>447</ele>
        <time>2021-04-26T07:55:25Z</time>
      </trkpt>
      <trkpt lat="45.31103" lon="4.12271">
        <ele>447</ele>
        <time>2021-04-26T07:55:26Z</time>
      </trkpt>
      <trkpt lat="45.31103" lon="4.12277">
        <ele>447</ele>
        <time>2021-04-26T07:55:27Z</time>
      </trkpt>
      <trkpt lat="45.31104" lon="4.12283">
        <ele>447</ele>
        <time>2021-04-26T07:55:28Z</time>
      </trkpt>
      <trkpt lat="45.31105" lon="4.1229">
        <ele>447</ele>
        <time>2021-04-26T07:55:29Z</time>
      </trkpt>
      <trkpt lat="45.31105" lon="4.12296">
        <ele>447</ele>
        <time>2021-04-26T07:55:30Z</time>
      </trkpt>
      <trkpt lat="45.31106" lon="4.12302">
        <ele>447</ele>
        <time>2021-04-26T07:55:31Z</time>
      </trkpt>
      <trkpt lat="45.31107" lon="4.12308">
        <ele>447</ele>
        <time>2021-04-26T07:55:32Z</time>
      </trkpt>
      <trkpt lat="45.31107" lon="4.12314">
        <ele>447</ele>
        <time>2021-04-26T07:55:33Z</time>
      </trkpt>
      <trkpt lat="45.31108" lon="4.12326">
        <ele>447</ele>
        <time>2021-04-26T07:55:34Z</time>
      </trkpt>
      <trkpt lat="45.31109" lon="4.12332">
        <ele>447</ele>
        <time>2021-04-26T07:55:35Z</time>
      </trkpt>
      <trkpt lat="45.31109" lon="4.12339">
        <ele>447</ele>
        <time>2021-04-26T07:55:36Z</time>
      </trkpt>
      <trkpt lat="45.31109" lon="4.12345">
        <ele>447</ele>
        <time>2021-04-26T07:55:37Z</time>
      </trkpt>
      <trkpt lat="45.31109" lon="4.12351">
        <ele>447</ele>
        <time>2021-04-26T07:55:38Z</time>
      </trkpt>
      <trkpt lat="45.31108" lon="4.12364">
        <ele>447</ele>
        <time>2021-04-26T07:55:40Z</time>
      </trkpt>
      <trkpt lat="45.31108" lon="4.1237">
        <ele>447</ele>
        <time>2021-04-26T07:55:41Z</time>
      </trkpt>
      <trkpt lat="45.31107" lon="4.12376">
        <ele>447</ele>
        <time>2021-04-26T07:55:42Z</time>
      </trkpt>
      <trkpt lat="45.31107" lon="4.12382">
        <ele>447</ele>
        <time>2021-04-26T07:55:43Z</time>
      </trkpt>
      <trkpt lat="45.31106" lon="4.12388">
        <ele>447</ele>
        <time>2021-04-26T07:55:44Z</time>
      </trkpt>
      <trkpt lat="45.31105" lon="4.12394">
        <ele>447</ele>
        <time>2021-04-26T07:55:45Z</time>
      </trkpt>
      <trkpt lat="45.31105" lon="4.12399">
        <ele>447</ele>
        <time>2021-04-26T07:55:46Z</time>
      </trkpt>
      <trkpt lat="45.31107" lon="4.12405">
        <ele>447</ele>
        <time>2021-04-26T07:55:47Z</time>
      </trkpt>
      <trkpt lat="45.31109" lon="4.12409">
        <ele>447</ele>
        <time>2021-04-26T07:55:48Z</time>
      </trkpt>
      <trkpt lat="45.31112" lon="4.12412">
        <ele>447</ele>
        <time>2021-04-26T07:55:49Z</time>
      </trkpt>
      <trkpt lat="45.31115" lon="4.12415">
        <ele>447</ele>
        <time>2021-04-26T07:55:50Z</time>
      </trkpt>
      <trkpt lat="45.31118" lon="4.12418">
        <ele>447</ele>
        <time>2021-04-26T07:55:52Z</time>
      </trkpt>
      <trkpt lat="45.31124" lon="4.12422">
        <ele>447</ele>
        <time>2021-04-26T07:55:53Z</time>
      </trkpt>
      <trkpt lat="45.31127" lon="4.12424">
        <ele>447</ele>
        <time>2021-04-26T07:55:55Z</time>
      </trkpt>
      <trkpt lat="45.31129" lon="4.12426">
        <ele>446</ele>
        <time>2021-04-26T07:55:56Z</time>
      </trkpt>
      <trkpt lat="45.3113" lon="4.12429">
        <ele>446</ele>
        <time>2021-04-26T07:55:57Z</time>
      </trkpt>
      <trkpt lat="45.3113" lon="4.12433">
        <ele>446</ele>
        <time>2021-04-26T07:55:58Z</time>
      </trkpt>
      <trkpt lat="45.31127" lon="4.12443">
        <ele>445</ele>
        <time>2021-04-26T07:55:59Z</time>
      </trkpt>
      <trkpt lat="45.31125" lon="4.1245">
        <ele>445</ele>
        <time>2021-04-26T07:56:00Z</time>
      </trkpt>
      <trkpt lat="45.31123" lon="4.12456">
        <ele>445</ele>
        <time>2021-04-26T07:56:01Z</time>
      </trkpt>
      <trkpt lat="45.31121" lon="4.12463">
        <ele>445</ele>
        <time>2021-04-26T07:56:02Z</time>
      </trkpt>
      <trkpt lat="45.31119" lon="4.1247">
        <ele>444</ele>
        <time>2021-04-26T07:56:03Z</time>
      </trkpt>
      <trkpt lat="45.31117" lon="4.12484">
        <ele>444</ele>
        <time>2021-04-26T07:56:05Z</time>
      </trkpt>
      <trkpt lat="45.31115" lon="4.12491">
        <ele>444</ele>
        <time>2021-04-26T07:56:06Z</time>
      </trkpt>
      <trkpt lat="45.31114" lon="4.12497">
        <ele>444</ele>
        <time>2021-04-26T07:56:07Z</time>
      </trkpt>
      <trkpt lat="45.31114" lon="4.12504">
        <ele>444</ele>
        <time>2021-04-26T07:56:08Z</time>
      </trkpt>
      <trkpt lat="45.31114" lon="4.12511">
        <ele>444</ele>
        <time>2021-04-26T07:56:09Z</time>
      </trkpt>
      <trkpt lat="45.31114" lon="4.12518">
        <ele>444</ele>
        <time>2021-04-26T07:56:10Z</time>
      </trkpt>
      <trkpt lat="45.31116" lon="4.12533">
        <ele>444</ele>
        <time>2021-04-26T07:56:12Z</time>
      </trkpt>
      <trkpt lat="45.31118" lon="4.1254">
        <ele>444</ele>
        <time>2021-04-26T07:56:14Z</time>
      </trkpt>
      <trkpt lat="45.3112" lon="4.12547">
        <ele>444</ele>
        <time>2021-04-26T07:56:15Z</time>
      </trkpt>
      <trkpt lat="45.31122" lon="4.12554">
        <ele>444</ele>
        <time>2021-04-26T07:56:16Z</time>
      </trkpt>
      <trkpt lat="45.31125" lon="4.1256">
        <ele>444</ele>
        <time>2021-04-26T07:56:17Z</time>
      </trkpt>
      <trkpt lat="45.31128" lon="4.12566">
        <ele>444</ele>
        <time>2021-04-26T07:56:18Z</time>
      </trkpt>
      <trkpt lat="45.31132" lon="4.12572">
        <ele>444</ele>
        <time>2021-04-26T07:56:19Z</time>
      </trkpt>
      <trkpt lat="45.31135" lon="4.12578">
        <ele>444</ele>
        <time>2021-04-26T07:56:20Z</time>
      </trkpt>
      <trkpt lat="45.31138" lon="4.12584">
        <ele>444</ele>
        <time>2021-04-26T07:56:21Z</time>
      </trkpt>
      <trkpt lat="45.31141" lon="4.12589">
        <ele>444</ele>
        <time>2021-04-26T07:56:22Z</time>
      </trkpt>
      <trkpt lat="45.31145" lon="4.12594">
        <ele>444</ele>
        <time>2021-04-26T07:56:23Z</time>
      </trkpt>
      <trkpt lat="45.31149" lon="4.12599">
        <ele>444</ele>
        <time>2021-04-26T07:56:24Z</time>
      </trkpt>
      <trkpt lat="45.31156" lon="4.1261">
        <ele>443</ele>
        <time>2021-04-26T07:56:25Z</time>
      </trkpt>
      <trkpt lat="45.3116" lon="4.12616">
        <ele>443</ele>
        <time>2021-04-26T07:56:27Z</time>
      </trkpt>
      <trkpt lat="45.31163" lon="4.12621">
        <ele>443</ele>
        <time>2021-04-26T07:56:28Z</time>
      </trkpt>
      <trkpt lat="45.31167" lon="4.12625">
        <ele>443</ele>
        <time>2021-04-26T07:56:29Z</time>
      </trkpt>
      <trkpt lat="45.3117" lon="4.1263">
        <ele>443</ele>
        <time>2021-04-26T07:56:30Z</time>
      </trkpt>
      <trkpt lat="45.31176" lon="4.1264">
        <ele>443</ele>
        <time>2021-04-26T07:56:31Z</time>
      </trkpt>
      <trkpt lat="45.3118" lon="4.12646">
        <ele>443</ele>
        <time>2021-04-26T07:56:32Z</time>
      </trkpt>
      <trkpt lat="45.31183" lon="4.12652">
        <ele>443</ele>
        <time>2021-04-26T07:56:33Z</time>
      </trkpt>
      <trkpt lat="45.3119" lon="4.12665">
        <ele>443</ele>
        <time>2021-04-26T07:56:35Z</time>
      </trkpt>
      <trkpt lat="45.31192" lon="4.12672">
        <ele>443</ele>
        <time>2021-04-26T07:56:36Z</time>
      </trkpt>
      <trkpt lat="45.31195" lon="4.12678">
        <ele>443</ele>
        <time>2021-04-26T07:56:37Z</time>
      </trkpt>
      <trkpt lat="45.31197" lon="4.12685">
        <ele>443</ele>
        <time>2021-04-26T07:56:38Z</time>
      </trkpt>
      <trkpt lat="45.312" lon="4.12692">
        <ele>443</ele>
        <time>2021-04-26T07:56:39Z</time>
      </trkpt>
      <trkpt lat="45.31202" lon="4.12698">
        <ele>443</ele>
        <time>2021-04-26T07:56:40Z</time>
      </trkpt>
      <trkpt lat="45.31205" lon="4.12704">
        <ele>443</ele>
        <time>2021-04-26T07:56:41Z</time>
      </trkpt>
      <trkpt lat="45.31208" lon="4.12709">
        <ele>443</ele>
        <time>2021-04-26T07:56:42Z</time>
      </trkpt>
      <trkpt lat="45.31215" lon="4.12719">
        <ele>443</ele>
        <time>2021-04-26T07:56:44Z</time>
      </trkpt>
      <trkpt lat="45.31218" lon="4.12723">
        <ele>443</ele>
        <time>2021-04-26T07:56:45Z</time>
      </trkpt>
      <trkpt lat="45.31222" lon="4.12728">
        <ele>443</ele>
        <time>2021-04-26T07:56:46Z</time>
      </trkpt>
      <trkpt lat="45.31226" lon="4.12732">
        <ele>443</ele>
        <time>2021-04-26T07:56:47Z</time>
      </trkpt>
      <trkpt lat="45.3123" lon="4.12736">
        <ele>443</ele>
        <time>2021-04-26T07:56:48Z</time>
      </trkpt>
      <trkpt lat="45.31238" lon="4.12745">
        <ele>443</ele>
        <time>2021-04-26T07:56:50Z</time>
      </trkpt>
      <trkpt lat="45.31241" lon="4.1275">
        <ele>442</ele>
        <time>2021-04-26T07:56:52Z</time>
      </trkpt>
      <trkpt lat="45.31245" lon="4.12755">
        <ele>442</ele>
        <time>2021-04-26T07:56:53Z</time>
      </trkpt>
      <trkpt lat="45.31249" lon="4.1276">
        <ele>443</ele>
        <time>2021-04-26T07:56:54Z</time>
      </trkpt>
      <trkpt lat="45.31253" lon="4.12765">
        <ele>443</ele>
        <time>2021-04-26T07:56:55Z</time>
      </trkpt>
      <trkpt lat="45.31258" lon="4.1277">
        <ele>443</ele>
        <time>2021-04-26T07:56:56Z</time>
      </trkpt>
      <trkpt lat="45.31262" lon="4.12774">
        <ele>443</ele>
        <time>2021-04-26T07:56:57Z</time>
      </trkpt>
      <trkpt lat="45.31267" lon="4.12778">
        <ele>443</ele>
        <time>2021-04-26T07:56:58Z</time>
      </trkpt>
      <trkpt lat="45.31276" lon="4.12786">
        <ele>442</ele>
        <time>2021-04-26T07:56:59Z</time>
      </trkpt>
      <trkpt lat="45.3128" lon="4.1279">
        <ele>442</ele>
        <time>2021-04-26T07:57:00Z</time>
      </trkpt>
      <trkpt lat="45.31284" lon="4.12794">
        <ele>442</ele>
        <time>2021-04-26T07:57:01Z</time>
      </trkpt>
      <trkpt lat="45.31288" lon="4.12799">
        <ele>442</ele>
        <time>2021-04-26T07:57:02Z</time>
      </trkpt>
      <trkpt lat="45.31295" lon="4.12809">
        <ele>442</ele>
        <time>2021-04-26T07:57:04Z</time>
      </trkpt>
      <trkpt lat="45.31298" lon="4.12815">
        <ele>442</ele>
        <time>2021-04-26T07:57:05Z</time>
      </trkpt>
      <trkpt lat="45.31301" lon="4.12821">
        <ele>442</ele>
        <time>2021-04-26T07:57:06Z</time>
      </trkpt>
      <trkpt lat="45.31304" lon="4.12828">
        <ele>442</ele>
        <time>2021-04-26T07:57:07Z</time>
      </trkpt>
      <trkpt lat="45.31309" lon="4.12841">
        <ele>442</ele>
        <time>2021-04-26T07:57:09Z</time>
      </trkpt>
      <trkpt lat="45.31312" lon="4.12847">
        <ele>442</ele>
        <time>2021-04-26T07:57:11Z</time>
      </trkpt>
      <trkpt lat="45.31315" lon="4.12854">
        <ele>442</ele>
        <time>2021-04-26T07:57:12Z</time>
      </trkpt>
      <trkpt lat="45.31318" lon="4.1286">
        <ele>442</ele>
        <time>2021-04-26T07:57:13Z</time>
      </trkpt>
      <trkpt lat="45.31321" lon="4.12867">
        <ele>442</ele>
        <time>2021-04-26T07:57:14Z</time>
      </trkpt>
      <trkpt lat="45.31324" lon="4.12873">
        <ele>442</ele>
        <time>2021-04-26T07:57:15Z</time>
      </trkpt>
      <trkpt lat="45.31327" lon="4.12879">
        <ele>442</ele>
        <time>2021-04-26T07:57:16Z</time>
      </trkpt>
      <trkpt lat="45.31329" lon="4.12886">
        <ele>441</ele>
        <time>2021-04-26T07:57:17Z</time>
      </trkpt>
      <trkpt lat="45.31331" lon="4.12892">
        <ele>441</ele>
        <time>2021-04-26T07:57:18Z</time>
      </trkpt>
      <trkpt lat="45.31334" lon="4.12898">
        <ele>441</ele>
        <time>2021-04-26T07:57:19Z</time>
      </trkpt>
      <trkpt lat="45.31337" lon="4.12903">
        <ele>441</ele>
        <time>2021-04-26T07:57:20Z</time>
      </trkpt>
      <trkpt lat="45.3134" lon="4.12908">
        <ele>441</ele>
        <time>2021-04-26T07:57:21Z</time>
      </trkpt>
      <trkpt lat="45.31343" lon="4.12913">
        <ele>441</ele>
        <time>2021-04-26T07:57:22Z</time>
      </trkpt>
      <trkpt lat="45.31346" lon="4.12918">
        <ele>441</ele>
        <time>2021-04-26T07:57:23Z</time>
      </trkpt>
      <trkpt lat="45.31349" lon="4.12923">
        <ele>441</ele>
        <time>2021-04-26T07:57:24Z</time>
      </trkpt>
      <trkpt lat="45.31352" lon="4.12928">
        <ele>441</ele>
        <time>2021-04-26T07:57:25Z</time>
      </trkpt>
      <trkpt lat="45.31355" lon="4.12933">
        <ele>441</ele>
        <time>2021-04-26T07:57:26Z</time>
      </trkpt>
      <trkpt lat="45.31359" lon="4.12937">
        <ele>441</ele>
        <time>2021-04-26T07:57:27Z</time>
      </trkpt>
      <trkpt lat="45.31362" lon="4.12942">
        <ele>441</ele>
        <time>2021-04-26T07:57:28Z</time>
      </trkpt>
      <trkpt lat="45.31366" lon="4.12947">
        <ele>441</ele>
        <time>2021-04-26T07:57:29Z</time>
      </trkpt>
      <trkpt lat="45.31368" lon="4.12952">
        <ele>441</ele>
        <time>2021-04-26T07:57:30Z</time>
      </trkpt>
      <trkpt lat="45.31371" lon="4.12956">
        <ele>441</ele>
        <time>2021-04-26T07:57:31Z</time>
      </trkpt>
      <trkpt lat="45.31374" lon="4.12961">
        <ele>441</ele>
        <time>2021-04-26T07:57:32Z</time>
      </trkpt>
      <trkpt lat="45.31378" lon="4.12966">
        <ele>441</ele>
        <time>2021-04-26T07:57:33Z</time>
      </trkpt>
      <trkpt lat="45.3138" lon="4.12971">
        <ele>441</ele>
        <time>2021-04-26T07:57:34Z</time>
      </trkpt>
      <trkpt lat="45.31383" lon="4.12976">
        <ele>441</ele>
        <time>2021-04-26T07:57:35Z</time>
      </trkpt>
      <trkpt lat="45.31386" lon="4.12981">
        <ele>441</ele>
        <time>2021-04-26T07:57:36Z</time>
      </trkpt>
      <trkpt lat="45.3139" lon="4.12994">
        <ele>441</ele>
        <time>2021-04-26T07:57:37Z</time>
      </trkpt>
      <trkpt lat="45.31392" lon="4.13">
        <ele>441</ele>
        <time>2021-04-26T07:57:39Z</time>
      </trkpt>
      <trkpt lat="45.31394" lon="4.13006">
        <ele>441</ele>
        <time>2021-04-26T07:57:40Z</time>
      </trkpt>
      <trkpt lat="45.31395" lon="4.13011">
        <ele>441</ele>
        <time>2021-04-26T07:57:41Z</time>
      </trkpt>
      <trkpt lat="45.31396" lon="4.13017">
        <ele>441</ele>
        <time>2021-04-26T07:57:42Z</time>
      </trkpt>
      <trkpt lat="45.31397" lon="4.13022">
        <ele>442</ele>
        <time>2021-04-26T07:57:43Z</time>
      </trkpt>
      <trkpt lat="45.31397" lon="4.13027">
        <ele>442</ele>
        <time>2021-04-26T07:57:44Z</time>
      </trkpt>
      <trkpt lat="45.31397" lon="4.13031">
        <ele>442</ele>
        <time>2021-04-26T07:57:45Z</time>
      </trkpt>
      <trkpt lat="45.31397" lon="4.13036">
        <ele>442</ele>
        <time>2021-04-26T07:57:46Z</time>
      </trkpt>
      <trkpt lat="45.31396" lon="4.13046">
        <ele>442</ele>
        <time>2021-04-26T07:57:47Z</time>
      </trkpt>
      <trkpt lat="45.31396" lon="4.1305">
        <ele>442</ele>
        <time>2021-04-26T07:57:48Z</time>
      </trkpt>
      <trkpt lat="45.31396" lon="4.13056">
        <ele>443</ele>
        <time>2021-04-26T07:57:49Z</time>
      </trkpt>
      <trkpt lat="45.31396" lon="4.13062">
        <ele>443</ele>
        <time>2021-04-26T07:57:50Z</time>
      </trkpt>
      <trkpt lat="45.31396" lon="4.13068">
        <ele>443</ele>
        <time>2021-04-26T07:57:51Z</time>
      </trkpt>
      <trkpt lat="45.31397" lon="4.13074">
        <ele>443</ele>
        <time>2021-04-26T07:57:52Z</time>
      </trkpt>
      <trkpt lat="45.31397" lon="4.1308">
        <ele>443</ele>
        <time>2021-04-26T07:57:53Z</time>
      </trkpt>
      <trkpt lat="45.31398" lon="4.13087">
        <ele>443</ele>
        <time>2021-04-26T07:57:54Z</time>
      </trkpt>
      <trkpt lat="45.31399" lon="4.13093">
        <ele>443</ele>
        <time>2021-04-26T07:57:55Z</time>
      </trkpt>
      <trkpt lat="45.314" lon="4.131">
        <ele>443</ele>
        <time>2021-04-26T07:57:56Z</time>
      </trkpt>
      <trkpt lat="45.31401" lon="4.13107">
        <ele>443</ele>
        <time>2021-04-26T07:57:58Z</time>
      </trkpt>
      <trkpt lat="45.31403" lon="4.13121">
        <ele>443</ele>
        <time>2021-04-26T07:57:59Z</time>
      </trkpt>
      <trkpt lat="45.31403" lon="4.13129">
        <ele>442</ele>
        <time>2021-04-26T07:58:00Z</time>
      </trkpt>
      <trkpt lat="45.31403" lon="4.13136">
        <ele>442</ele>
        <time>2021-04-26T07:58:01Z</time>
      </trkpt>
      <trkpt lat="45.31403" lon="4.13143">
        <ele>443</ele>
        <time>2021-04-26T07:58:02Z</time>
      </trkpt>
      <trkpt lat="45.31402" lon="4.13149">
        <ele>443</ele>
        <time>2021-04-26T07:58:03Z</time>
      </trkpt>
      <trkpt lat="45.31402" lon="4.13156">
        <ele>443</ele>
        <time>2021-04-26T07:58:04Z</time>
      </trkpt>
      <trkpt lat="45.31404" lon="4.1317">
        <ele>443</ele>
        <time>2021-04-26T07:58:06Z</time>
      </trkpt>
      <trkpt lat="45.31405" lon="4.13176">
        <ele>443</ele>
        <time>2021-04-26T07:58:08Z</time>
      </trkpt>
      <trkpt lat="45.31407" lon="4.13183">
        <ele>443</ele>
        <time>2021-04-26T07:58:09Z</time>
      </trkpt>
      <trkpt lat="45.31409" lon="4.13189">
        <ele>443</ele>
        <time>2021-04-26T07:58:10Z</time>
      </trkpt>
      <trkpt lat="45.31411" lon="4.13195">
        <ele>444</ele>
        <time>2021-04-26T07:58:11Z</time>
      </trkpt>
      <trkpt lat="45.31413" lon="4.13202">
        <ele>444</ele>
        <time>2021-04-26T07:58:12Z</time>
      </trkpt>
      <trkpt lat="45.31416" lon="4.13208">
        <ele>444</ele>
        <time>2021-04-26T07:58:13Z</time>
      </trkpt>
      <trkpt lat="45.31418" lon="4.13214">
        <ele>444</ele>
        <time>2021-04-26T07:58:14Z</time>
      </trkpt>
      <trkpt lat="45.31421" lon="4.1322">
        <ele>444</ele>
        <time>2021-04-26T07:58:15Z</time>
      </trkpt>
      <trkpt lat="45.31425" lon="4.13226">
        <ele>444</ele>
        <time>2021-04-26T07:58:16Z</time>
      </trkpt>
      <trkpt lat="45.31428" lon="4.13232">
        <ele>444</ele>
        <time>2021-04-26T07:58:17Z</time>
      </trkpt>
      <trkpt lat="45.31431" lon="4.13237">
        <ele>444</ele>
        <time>2021-04-26T07:58:18Z</time>
      </trkpt>
      <trkpt lat="45.31435" lon="4.13243">
        <ele>444</ele>
        <time>2021-04-26T07:58:19Z</time>
      </trkpt>
      <trkpt lat="45.31438" lon="4.13249">
        <ele>444</ele>
        <time>2021-04-26T07:58:20Z</time>
      </trkpt>
      <trkpt lat="45.3144" lon="4.13255">
        <ele>444</ele>
        <time>2021-04-26T07:58:21Z</time>
      </trkpt>
      <trkpt lat="45.31443" lon="4.13262">
        <ele>444</ele>
        <time>2021-04-26T07:58:22Z</time>
      </trkpt>
      <trkpt lat="45.31445" lon="4.13268">
        <ele>444</ele>
        <time>2021-04-26T07:58:23Z</time>
      </trkpt>
      <trkpt lat="45.31448" lon="4.13275">
        <ele>444</ele>
        <time>2021-04-26T07:58:24Z</time>
      </trkpt>
      <trkpt lat="45.31452" lon="4.13288">
        <ele>444</ele>
        <time>2021-04-26T07:58:25Z</time>
      </trkpt>
      <trkpt lat="45.31456" lon="4.13302">
        <ele>444</ele>
        <time>2021-04-26T07:58:27Z</time>
      </trkpt>
      <trkpt lat="45.31458" lon="4.13309">
        <ele>444</ele>
        <time>2021-04-26T07:58:28Z</time>
      </trkpt>
      <trkpt lat="45.31461" lon="4.13315">
        <ele>444</ele>
        <time>2021-04-26T07:58:29Z</time>
      </trkpt>
      <trkpt lat="45.31463" lon="4.13321">
        <ele>444</ele>
        <time>2021-04-26T07:58:30Z</time>
      </trkpt>
      <trkpt lat="45.31465" lon="4.13328">
        <ele>444</ele>
        <time>2021-04-26T07:58:31Z</time>
      </trkpt>
      <trkpt lat="45.31468" lon="4.13335">
        <ele>444</ele>
        <time>2021-04-26T07:58:32Z</time>
      </trkpt>
      <trkpt lat="45.31469" lon="4.13341">
        <ele>444</ele>
        <time>2021-04-26T07:58:33Z</time>
      </trkpt>
      <trkpt lat="45.31468" lon="4.13348">
        <ele>444</ele>
        <time>2021-04-26T07:58:34Z</time>
      </trkpt>
      <trkpt lat="45.31467" lon="4.13354">
        <ele>445</ele>
        <time>2021-04-26T07:58:35Z</time>
      </trkpt>
      <trkpt lat="45.31466" lon="4.13367">
        <ele>445</ele>
        <time>2021-04-26T07:58:37Z</time>
      </trkpt>
      <trkpt lat="45.31466" lon="4.13374">
        <ele>445</ele>
        <time>2021-04-26T07:58:38Z</time>
      </trkpt>
      <trkpt lat="45.31466" lon="4.13381">
        <ele>445</ele>
        <time>2021-04-26T07:58:39Z</time>
      </trkpt>
      <trkpt lat="45.31467" lon="4.13388">
        <ele>445</ele>
        <time>2021-04-26T07:58:40Z</time>
      </trkpt>
      <trkpt lat="45.31468" lon="4.13395">
        <ele>445</ele>
        <time>2021-04-26T07:58:41Z</time>
      </trkpt>
      <trkpt lat="45.3147" lon="4.13401">
        <ele>445</ele>
        <time>2021-04-26T07:58:42Z</time>
      </trkpt>
      <trkpt lat="45.31473" lon="4.13414">
        <ele>445</ele>
        <time>2021-04-26T07:58:44Z</time>
      </trkpt>
      <trkpt lat="45.31475" lon="4.13421">
        <ele>445</ele>
        <time>2021-04-26T07:58:46Z</time>
      </trkpt>
      <trkpt lat="45.31477" lon="4.13427">
        <ele>445</ele>
        <time>2021-04-26T07:58:47Z</time>
      </trkpt>
      <trkpt lat="45.31481" lon="4.1344">
        <ele>445</ele>
        <time>2021-04-26T07:58:48Z</time>
      </trkpt>
      <trkpt lat="45.31482" lon="4.13447">
        <ele>445</ele>
        <time>2021-04-26T07:58:49Z</time>
      </trkpt>
      <trkpt lat="45.31482" lon="4.13453">
        <ele>445</ele>
        <time>2021-04-26T07:58:50Z</time>
      </trkpt>
      <trkpt lat="45.31481" lon="4.1346">
        <ele>445</ele>
        <time>2021-04-26T07:58:51Z</time>
      </trkpt>
      <trkpt lat="45.3148" lon="4.13467">
        <ele>445</ele>
        <time>2021-04-26T07:58:52Z</time>
      </trkpt>
      <trkpt lat="45.31479" lon="4.13473">
        <ele>446</ele>
        <time>2021-04-26T07:58:53Z</time>
      </trkpt>
      <trkpt lat="45.31478" lon="4.13481">
        <ele>446</ele>
        <time>2021-04-26T07:58:54Z</time>
      </trkpt>
      <trkpt lat="45.31477" lon="4.13488">
        <ele>446</ele>
        <time>2021-04-26T07:58:55Z</time>
      </trkpt>
      <trkpt lat="45.31477" lon="4.13495">
        <ele>446</ele>
        <time>2021-04-26T07:58:56Z</time>
      </trkpt>
      <trkpt lat="45.31477" lon="4.13502">
        <ele>447</ele>
        <time>2021-04-26T07:58:58Z</time>
      </trkpt>
      <trkpt lat="45.31476" lon="4.13517">
        <ele>447</ele>
        <time>2021-04-26T07:58:59Z</time>
      </trkpt>
      <trkpt lat="45.31476" lon="4.13524">
        <ele>447</ele>
        <time>2021-04-26T07:59:00Z</time>
      </trkpt>
      <trkpt lat="45.31475" lon="4.13529">
        <ele>447</ele>
        <time>2021-04-26T07:59:01Z</time>
      </trkpt>
      <trkpt lat="45.31475" lon="4.13538">
        <ele>447</ele>
        <time>2021-04-26T07:59:03Z</time>
      </trkpt>
      <trkpt lat="45.31474" lon="4.13542">
        <ele>447</ele>
        <time>2021-04-26T07:59:05Z</time>
      </trkpt>
      <trkpt lat="45.31475" lon="4.13545">
        <ele>447</ele>
        <time>2021-04-26T07:59:06Z</time>
      </trkpt>
      <trkpt lat="45.31474" lon="4.13548">
        <ele>447</ele>
        <time>2021-04-26T07:59:08Z</time>
      </trkpt>
      <trkpt lat="45.31473" lon="4.13551">
        <ele>448</ele>
        <time>2021-04-26T07:59:10Z</time>
      </trkpt>
      <trkpt lat="45.31472" lon="4.13553">
        <ele>448</ele>
        <time>2021-04-26T07:59:12Z</time>
      </trkpt>
      <trkpt lat="45.31471" lon="4.13558">
        <ele>448</ele>
        <time>2021-04-26T07:59:14Z</time>
      </trkpt>
      <trkpt lat="45.3147" lon="4.13561">
        <ele>448</ele>
        <time>2021-04-26T07:59:15Z</time>
      </trkpt>
      <trkpt lat="45.3147" lon="4.13566">
        <ele>448</ele>
        <time>2021-04-26T07:59:16Z</time>
      </trkpt>
      <trkpt lat="45.3147" lon="4.1357">
        <ele>448</ele>
        <time>2021-04-26T07:59:17Z</time>
      </trkpt>
      <trkpt lat="45.3147" lon="4.13575">
        <ele>448</ele>
        <time>2021-04-26T07:59:18Z</time>
      </trkpt>
      <trkpt lat="45.31469" lon="4.1358">
        <ele>448</ele>
        <time>2021-04-26T07:59:19Z</time>
      </trkpt>
      <trkpt lat="45.31469" lon="4.13586">
        <ele>449</ele>
        <time>2021-04-26T07:59:20Z</time>
      </trkpt>
      <trkpt lat="45.31469" lon="4.13591">
        <ele>449</ele>
        <time>2021-04-26T07:59:21Z</time>
      </trkpt>
      <trkpt lat="45.31468" lon="4.13604">
        <ele>448</ele>
        <time>2021-04-26T07:59:22Z</time>
      </trkpt>
      <trkpt lat="45.31467" lon="4.1361">
        <ele>449</ele>
        <time>2021-04-26T07:59:23Z</time>
      </trkpt>
      <trkpt lat="45.31467" lon="4.13617">
        <ele>448</ele>
        <time>2021-04-26T07:59:24Z</time>
      </trkpt>
      <trkpt lat="45.31467" lon="4.13623">
        <ele>448</ele>
        <time>2021-04-26T07:59:25Z</time>
      </trkpt>
      <trkpt lat="45.31466" lon="4.1363">
        <ele>448</ele>
        <time>2021-04-26T07:59:26Z</time>
      </trkpt>
      <trkpt lat="45.31464" lon="4.13636">
        <ele>448</ele>
        <time>2021-04-26T07:59:27Z</time>
      </trkpt>
      <trkpt lat="45.31459" lon="4.13649">
        <ele>448</ele>
        <time>2021-04-26T07:59:29Z</time>
      </trkpt>
      <trkpt lat="45.31456" lon="4.13655">
        <ele>448</ele>
        <time>2021-04-26T07:59:30Z</time>
      </trkpt>
      <trkpt lat="45.31453" lon="4.13663">
        <ele>447</ele>
        <time>2021-04-26T07:59:31Z</time>
      </trkpt>
      <trkpt lat="45.31451" lon="4.13671">
        <ele>447</ele>
        <time>2021-04-26T07:59:32Z</time>
      </trkpt>
      <trkpt lat="45.31448" lon="4.1368">
        <ele>447</ele>
        <time>2021-04-26T07:59:33Z</time>
      </trkpt>
      <trkpt lat="45.31447" lon="4.13688">
        <ele>446</ele>
        <time>2021-04-26T07:59:34Z</time>
      </trkpt>
      <trkpt lat="45.31445" lon="4.13697">
        <ele>446</ele>
        <time>2021-04-26T07:59:35Z</time>
      </trkpt>
      <trkpt lat="45.31443" lon="4.13712">
        <ele>446</ele>
        <time>2021-04-26T07:59:37Z</time>
      </trkpt>
      <trkpt lat="45.31442" lon="4.13719">
        <ele>446</ele>
        <time>2021-04-26T07:59:38Z</time>
      </trkpt>
      <trkpt lat="45.3144" lon="4.13726">
        <ele>445</ele>
        <time>2021-04-26T07:59:39Z</time>
      </trkpt>
      <trkpt lat="45.31436" lon="4.13738">
        <ele>445</ele>
        <time>2021-04-26T07:59:41Z</time>
      </trkpt>
      <trkpt lat="45.31434" lon="4.13744">
        <ele>444</ele>
        <time>2021-04-26T07:59:43Z</time>
      </trkpt>
      <trkpt lat="45.31432" lon="4.1375">
        <ele>444</ele>
        <time>2021-04-26T07:59:44Z</time>
      </trkpt>
      <trkpt lat="45.3143" lon="4.13754">
        <ele>444</ele>
        <time>2021-04-26T07:59:45Z</time>
      </trkpt>
      <trkpt lat="45.31429" lon="4.13758">
        <ele>444</ele>
        <time>2021-04-26T07:59:46Z</time>
      </trkpt>
      <trkpt lat="45.31428" lon="4.13761">
        <ele>444</ele>
        <time>2021-04-26T07:59:47Z</time>
      </trkpt>
      <trkpt lat="45.31427" lon="4.13765">
        <ele>444</ele>
        <time>2021-04-26T07:59:48Z</time>
      </trkpt>
      <trkpt lat="45.31425" lon="4.13768">
        <ele>443</ele>
        <time>2021-04-26T07:59:49Z</time>
      </trkpt>
      <trkpt lat="45.31423" lon="4.13772">
        <ele>443</ele>
        <time>2021-04-26T07:59:50Z</time>
      </trkpt>
      <trkpt lat="45.3142" lon="4.13776">
        <ele>443</ele>
        <time>2021-04-26T07:59:51Z</time>
      </trkpt>
      <trkpt lat="45.31417" lon="4.1378">
        <ele>443</ele>
        <time>2021-04-26T07:59:52Z</time>
      </trkpt>
      <trkpt lat="45.31414" lon="4.13785">
        <ele>443</ele>
        <time>2021-04-26T07:59:53Z</time>
      </trkpt>
      <trkpt lat="45.3141" lon="4.13789">
        <ele>443</ele>
        <time>2021-04-26T07:59:54Z</time>
      </trkpt>
      <trkpt lat="45.31407" lon="4.13795">
        <ele>443</ele>
        <time>2021-04-26T07:59:55Z</time>
      </trkpt>
      <trkpt lat="45.31403" lon="4.138">
        <ele>443</ele>
        <time>2021-04-26T07:59:56Z</time>
      </trkpt>
      <trkpt lat="45.314" lon="4.13805">
        <ele>443</ele>
        <time>2021-04-26T07:59:57Z</time>
      </trkpt>
      <trkpt lat="45.31396" lon="4.1381">
        <ele>443</ele>
        <time>2021-04-26T07:59:58Z</time>
      </trkpt>
      <trkpt lat="45.31392" lon="4.13814">
        <ele>443</ele>
        <time>2021-04-26T07:59:59Z</time>
      </trkpt>
      <trkpt lat="45.31384" lon="4.13824">
        <ele>443</ele>
        <time>2021-04-26T08:00:00Z</time>
      </trkpt>
      <trkpt lat="45.31381" lon="4.1383">
        <ele>443</ele>
        <time>2021-04-26T08:00:01Z</time>
      </trkpt>
      <trkpt lat="45.31378" lon="4.13835">
        <ele>443</ele>
        <time>2021-04-26T08:00:02Z</time>
      </trkpt>
      <trkpt lat="45.31375" lon="4.13841">
        <ele>443</ele>
        <time>2021-04-26T08:00:03Z</time>
      </trkpt>
      <trkpt lat="45.31372" lon="4.13847">
        <ele>442</ele>
        <time>2021-04-26T08:00:04Z</time>
      </trkpt>
      <trkpt lat="45.31369" lon="4.13853">
        <ele>442</ele>
        <time>2021-04-26T08:00:05Z</time>
      </trkpt>
      <trkpt lat="45.31366" lon="4.13859">
        <ele>442</ele>
        <time>2021-04-26T08:00:06Z</time>
      </trkpt>
      <trkpt lat="45.31364" lon="4.13865">
        <ele>442</ele>
        <time>2021-04-26T08:00:07Z</time>
      </trkpt>
      <trkpt lat="45.31362" lon="4.13872">
        <ele>442</ele>
        <time>2021-04-26T08:00:08Z</time>
      </trkpt>
      <trkpt lat="45.31358" lon="4.13886">
        <ele>442</ele>
        <time>2021-04-26T08:00:10Z</time>
      </trkpt>
      <trkpt lat="45.31357" lon="4.13893">
        <ele>442</ele>
        <time>2021-04-26T08:00:11Z</time>
      </trkpt>
      <trkpt lat="45.31355" lon="4.13901">
        <ele>442</ele>
        <time>2021-04-26T08:00:12Z</time>
      </trkpt>
      <trkpt lat="45.31353" lon="4.13907">
        <ele>442</ele>
        <time>2021-04-26T08:00:13Z</time>
      </trkpt>
      <trkpt lat="45.31351" lon="4.13914">
        <ele>442</ele>
        <time>2021-04-26T08:00:14Z</time>
      </trkpt>
      <trkpt lat="45.31349" lon="4.13921">
        <ele>442</ele>
        <time>2021-04-26T08:00:15Z</time>
      </trkpt>
      <trkpt lat="45.31348" lon="4.13928">
        <ele>442</ele>
        <time>2021-04-26T08:00:16Z</time>
      </trkpt>
      <trkpt lat="45.31347" lon="4.13935">
        <ele>442</ele>
        <time>2021-04-26T08:00:17Z</time>
      </trkpt>
      <trkpt lat="45.31346" lon="4.13943">
        <ele>442</ele>
        <time>2021-04-26T08:00:19Z</time>
      </trkpt>
      <trkpt lat="45.31343" lon="4.1395">
        <ele>442</ele>
        <time>2021-04-26T08:00:20Z</time>
      </trkpt>
      <trkpt lat="45.31341" lon="4.13957">
        <ele>442</ele>
        <time>2021-04-26T08:00:21Z</time>
      </trkpt>
      <trkpt lat="45.31339" lon="4.13965">
        <ele>442</ele>
        <time>2021-04-26T08:00:22Z</time>
      </trkpt>
      <trkpt lat="45.31338" lon="4.13973">
        <ele>442</ele>
        <time>2021-04-26T08:00:23Z</time>
      </trkpt>
      <trkpt lat="45.31337" lon="4.1398">
        <ele>442</ele>
        <time>2021-04-26T08:00:24Z</time>
      </trkpt>
      <trkpt lat="45.31337" lon="4.13988">
        <ele>442</ele>
        <time>2021-04-26T08:00:25Z</time>
      </trkpt>
      <trkpt lat="45.31337" lon="4.13996">
        <ele>442</ele>
        <time>2021-04-26T08:00:26Z</time>
      </trkpt>
      <trkpt lat="45.3134" lon="4.14009">
        <ele>442</ele>
        <time>2021-04-26T08:00:27Z</time>
      </trkpt>
      <trkpt lat="45.31342" lon="4.14016">
        <ele>442</ele>
        <time>2021-04-26T08:00:29Z</time>
      </trkpt>
      <trkpt lat="45.31345" lon="4.14022">
        <ele>442</ele>
        <time>2021-04-26T08:00:30Z</time>
      </trkpt>
      <trkpt lat="45.31348" lon="4.14028">
        <ele>442</ele>
        <time>2021-04-26T08:00:31Z</time>
      </trkpt>
      <trkpt lat="45.31351" lon="4.14034">
        <ele>441</ele>
        <time>2021-04-26T08:00:32Z</time>
      </trkpt>
      <trkpt lat="45.31354" lon="4.1404">
        <ele>442</ele>
        <time>2021-04-26T08:00:33Z</time>
      </trkpt>
      <trkpt lat="45.31356" lon="4.14048">
        <ele>442</ele>
        <time>2021-04-26T08:00:34Z</time>
      </trkpt>
      <trkpt lat="45.31356" lon="4.14055">
        <ele>442</ele>
        <time>2021-04-26T08:00:35Z</time>
      </trkpt>
      <trkpt lat="45.31356" lon="4.14062">
        <ele>442</ele>
        <time>2021-04-26T08:00:36Z</time>
      </trkpt>
      <trkpt lat="45.31356" lon="4.1407">
        <ele>442</ele>
        <time>2021-04-26T08:00:37Z</time>
      </trkpt>
      <trkpt lat="45.31354" lon="4.14085">
        <ele>442</ele>
        <time>2021-04-26T08:00:38Z</time>
      </trkpt>
      <trkpt lat="45.31353" lon="4.14092">
        <ele>442</ele>
        <time>2021-04-26T08:00:39Z</time>
      </trkpt>
      <trkpt lat="45.31352" lon="4.14099">
        <ele>442</ele>
        <time>2021-04-26T08:00:40Z</time>
      </trkpt>
      <trkpt lat="45.31352" lon="4.14107">
        <ele>442</ele>
        <time>2021-04-26T08:00:41Z</time>
      </trkpt>
      <trkpt lat="45.31352" lon="4.14114">
        <ele>442</ele>
        <time>2021-04-26T08:00:42Z</time>
      </trkpt>
      <trkpt lat="45.31352" lon="4.14121">
        <ele>442</ele>
        <time>2021-04-26T08:00:43Z</time>
      </trkpt>
      <trkpt lat="45.31352" lon="4.14128">
        <ele>442</ele>
        <time>2021-04-26T08:00:44Z</time>
      </trkpt>
      <trkpt lat="45.31351" lon="4.14134">
        <ele>442</ele>
        <time>2021-04-26T08:00:45Z</time>
      </trkpt>
      <trkpt lat="45.31351" lon="4.14142">
        <ele>442</ele>
        <time>2021-04-26T08:00:47Z</time>
      </trkpt>
      <trkpt lat="45.31351" lon="4.1415">
        <ele>442</ele>
        <time>2021-04-26T08:00:48Z</time>
      </trkpt>
      <trkpt lat="45.31351" lon="4.14158">
        <ele>442</ele>
        <time>2021-04-26T08:00:49Z</time>
      </trkpt>
      <trkpt lat="45.31351" lon="4.14166">
        <ele>442</ele>
        <time>2021-04-26T08:00:50Z</time>
      </trkpt>
      <trkpt lat="45.31351" lon="4.14174">
        <ele>443</ele>
        <time>2021-04-26T08:00:51Z</time>
      </trkpt>
      <trkpt lat="45.31351" lon="4.14182">
        <ele>443</ele>
        <time>2021-04-26T08:00:52Z</time>
      </trkpt>
      <trkpt lat="45.31351" lon="4.1419">
        <ele>443</ele>
        <time>2021-04-26T08:00:53Z</time>
      </trkpt>
      <trkpt lat="45.31352" lon="4.14197">
        <ele>443</ele>
        <time>2021-04-26T08:00:54Z</time>
      </trkpt>
      <trkpt lat="45.31353" lon="4.14205">
        <ele>443</ele>
        <time>2021-04-26T08:00:55Z</time>
      </trkpt>
      <trkpt lat="45.31353" lon="4.14213">
        <ele>443</ele>
        <time>2021-04-26T08:00:56Z</time>
      </trkpt>
      <trkpt lat="45.31354" lon="4.14221">
        <ele>443</ele>
        <time>2021-04-26T08:00:57Z</time>
      </trkpt>
      <trkpt lat="45.31355" lon="4.14229">
        <ele>443</ele>
        <time>2021-04-26T08:00:58Z</time>
      </trkpt>
      <trkpt lat="45.31356" lon="4.14236">
        <ele>442</ele>
        <time>2021-04-26T08:00:59Z</time>
      </trkpt>
      <trkpt lat="45.31359" lon="4.14244">
        <ele>442</ele>
        <time>2021-04-26T08:01:00Z</time>
      </trkpt>
      <trkpt lat="45.31361" lon="4.14251">
        <ele>442</ele>
        <time>2021-04-26T08:01:01Z</time>
      </trkpt>
      <trkpt lat="45.31363" lon="4.14258">
        <ele>442</ele>
        <time>2021-04-26T08:01:02Z</time>
      </trkpt>
      <trkpt lat="45.31365" lon="4.14265">
        <ele>442</ele>
        <time>2021-04-26T08:01:03Z</time>
      </trkpt>
      <trkpt lat="45.31368" lon="4.14272">
        <ele>441</ele>
        <time>2021-04-26T08:01:04Z</time>
      </trkpt>
      <trkpt lat="45.3137" lon="4.14279">
        <ele>441</ele>
        <time>2021-04-26T08:01:05Z</time>
      </trkpt>
      <trkpt lat="45.31372" lon="4.14286">
        <ele>441</ele>
        <time>2021-04-26T08:01:06Z</time>
      </trkpt>
      <trkpt lat="45.31375" lon="4.14292">
        <ele>441</ele>
        <time>2021-04-26T08:01:07Z</time>
      </trkpt>
      <trkpt lat="45.31378" lon="4.14299">
        <ele>441</ele>
        <time>2021-04-26T08:01:08Z</time>
      </trkpt>
      <trkpt lat="45.31381" lon="4.14305">
        <ele>441</ele>
        <time>2021-04-26T08:01:09Z</time>
      </trkpt>
      <trkpt lat="45.31384" lon="4.14311">
        <ele>440</ele>
        <time>2021-04-26T08:01:10Z</time>
      </trkpt>
      <trkpt lat="45.31386" lon="4.14317">
        <ele>440</ele>
        <time>2021-04-26T08:01:11Z</time>
      </trkpt>
      <trkpt lat="45.31388" lon="4.14323">
        <ele>440</ele>
        <time>2021-04-26T08:01:12Z</time>
      </trkpt>
      <trkpt lat="45.31391" lon="4.14328">
        <ele>440</ele>
        <time>2021-04-26T08:01:13Z</time>
      </trkpt>
      <trkpt lat="45.31394" lon="4.14334">
        <ele>440</ele>
        <time>2021-04-26T08:01:14Z</time>
      </trkpt>
      <trkpt lat="45.31397" lon="4.1434">
        <ele>440</ele>
        <time>2021-04-26T08:01:15Z</time>
      </trkpt>
      <trkpt lat="45.314" lon="4.14346">
        <ele>441</ele>
        <time>2021-04-26T08:01:16Z</time>
      </trkpt>
      <trkpt lat="45.31402" lon="4.14353">
        <ele>441</ele>
        <time>2021-04-26T08:01:17Z</time>
      </trkpt>
      <trkpt lat="45.31406" lon="4.14359">
        <ele>441</ele>
        <time>2021-04-26T08:01:18Z</time>
      </trkpt>
      <trkpt lat="45.31409" lon="4.14365">
        <ele>440</ele>
        <time>2021-04-26T08:01:19Z</time>
      </trkpt>
      <trkpt lat="45.31413" lon="4.1437">
        <ele>440</ele>
        <time>2021-04-26T08:01:20Z</time>
      </trkpt>
      <trkpt lat="45.31417" lon="4.14374">
        <ele>440</ele>
        <time>2021-04-26T08:01:21Z</time>
      </trkpt>
      <trkpt lat="45.31421" lon="4.14379">
        <ele>440</ele>
        <time>2021-04-26T08:01:22Z</time>
      </trkpt>
      <trkpt lat="45.31426" lon="4.14383">
        <ele>440</ele>
        <time>2021-04-26T08:01:23Z</time>
      </trkpt>
      <trkpt lat="45.31431" lon="4.14387">
        <ele>440</ele>
        <time>2021-04-26T08:01:24Z</time>
      </trkpt>
      <trkpt lat="45.31435" lon="4.14391">
        <ele>440</ele>
        <time>2021-04-26T08:01:25Z</time>
      </trkpt>
      <trkpt lat="45.3144" lon="4.14395">
        <ele>440</ele>
        <time>2021-04-26T08:01:26Z</time>
      </trkpt>
      <trkpt lat="45.31444" lon="4.14399">
        <ele>440</ele>
        <time>2021-04-26T08:01:27Z</time>
      </trkpt>
      <trkpt lat="45.31448" lon="4.14403">
        <ele>440</ele>
        <time>2021-04-26T08:01:28Z</time>
      </trkpt>
      <trkpt lat="45.31453" lon="4.14408">
        <ele>440</ele>
        <time>2021-04-26T08:01:29Z</time>
      </trkpt>
      <trkpt lat="45.31457" lon="4.14412">
        <ele>440</ele>
        <time>2021-04-26T08:01:30Z</time>
      </trkpt>
      <trkpt lat="45.31462" lon="4.14416">
        <ele>439</ele>
        <time>2021-04-26T08:01:31Z</time>
      </trkpt>
      <trkpt lat="45.31467" lon="4.14419">
        <ele>439</ele>
        <time>2021-04-26T08:01:32Z</time>
      </trkpt>
      <trkpt lat="45.31471" lon="4.14424">
        <ele>439</ele>
        <time>2021-04-26T08:01:33Z</time>
      </trkpt>
      <trkpt lat="45.31476" lon="4.14428">
        <ele>439</ele>
        <time>2021-04-26T08:01:34Z</time>
      </trkpt>
      <trkpt lat="45.31484" lon="4.14438">
        <ele>439</ele>
        <time>2021-04-26T08:01:35Z</time>
      </trkpt>
      <trkpt lat="45.31487" lon="4.14444">
        <ele>439</ele>
        <time>2021-04-26T08:01:36Z</time>
      </trkpt>
      <trkpt lat="45.31491" lon="4.1445">
        <ele>440</ele>
        <time>2021-04-26T08:01:37Z</time>
      </trkpt>
      <trkpt lat="45.31495" lon="4.14455">
        <ele>440</ele>
        <time>2021-04-26T08:01:38Z</time>
      </trkpt>
      <trkpt lat="45.315" lon="4.14459">
        <ele>440</ele>
        <time>2021-04-26T08:01:39Z</time>
      </trkpt>
      <trkpt lat="45.31504" lon="4.14464">
        <ele>440</ele>
        <time>2021-04-26T08:01:40Z</time>
      </trkpt>
      <trkpt lat="45.31508" lon="4.1447">
        <ele>440</ele>
        <time>2021-04-26T08:01:41Z</time>
      </trkpt>
      <trkpt lat="45.31511" lon="4.14475">
        <ele>440</ele>
        <time>2021-04-26T08:01:42Z</time>
      </trkpt>
      <trkpt lat="45.31515" lon="4.14488">
        <ele>440</ele>
        <time>2021-04-26T08:01:44Z</time>
      </trkpt>
      <trkpt lat="45.31516" lon="4.14493">
        <ele>440</ele>
        <time>2021-04-26T08:01:45Z</time>
      </trkpt>
      <trkpt lat="45.31518" lon="4.14499">
        <ele>440</ele>
        <time>2021-04-26T08:01:46Z</time>
      </trkpt>
      <trkpt lat="45.31519" lon="4.14505">
        <ele>440</ele>
        <time>2021-04-26T08:01:47Z</time>
      </trkpt>
      <trkpt lat="45.31521" lon="4.14511">
        <ele>440</ele>
        <time>2021-04-26T08:01:48Z</time>
      </trkpt>
      <trkpt lat="45.31522" lon="4.14517">
        <ele>440</ele>
        <time>2021-04-26T08:01:49Z</time>
      </trkpt>
      <trkpt lat="45.31525" lon="4.14521">
        <ele>439</ele>
        <time>2021-04-26T08:01:50Z</time>
      </trkpt>
      <trkpt lat="45.31528" lon="4.14524">
        <ele>439</ele>
        <time>2021-04-26T08:01:51Z</time>
      </trkpt>
      <trkpt lat="45.31532" lon="4.14525">
        <ele>439</ele>
        <time>2021-04-26T08:01:52Z</time>
      </trkpt>
      <trkpt lat="45.31536" lon="4.14526">
        <ele>439</ele>
        <time>2021-04-26T08:01:54Z</time>
      </trkpt>
      <trkpt lat="45.31544" lon="4.14528">
        <ele>439</ele>
        <time>2021-04-26T08:01:55Z</time>
      </trkpt>
      <trkpt lat="45.31548" lon="4.1453">
        <ele>440</ele>
        <time>2021-04-26T08:01:56Z</time>
      </trkpt>
      <trkpt lat="45.31552" lon="4.14532">
        <ele>440</ele>
        <time>2021-04-26T08:01:57Z</time>
      </trkpt>
      <trkpt lat="45.31561" lon="4.14531">
        <ele>440</ele>
        <time>2021-04-26T08:01:59Z</time>
      </trkpt>
      <trkpt lat="45.31565" lon="4.1453">
        <ele>440</ele>
        <time>2021-04-26T08:02:00Z</time>
      </trkpt>
      <trkpt lat="45.3157" lon="4.14528">
        <ele>440</ele>
        <time>2021-04-26T08:02:01Z</time>
      </trkpt>
      <trkpt lat="45.31574" lon="4.14525">
        <ele>440</ele>
        <time>2021-04-26T08:02:02Z</time>
      </trkpt>
      <trkpt lat="45.31578" lon="4.14522">
        <ele>440</ele>
        <time>2021-04-26T08:02:03Z</time>
      </trkpt>
      <trkpt lat="45.31581" lon="4.14519">
        <ele>440</ele>
        <time>2021-04-26T08:02:04Z</time>
      </trkpt>
      <trkpt lat="45.31584" lon="4.14516">
        <ele>440</ele>
        <time>2021-04-26T08:02:05Z</time>
      </trkpt>
      <trkpt lat="45.3159" lon="4.14511">
        <ele>440</ele>
        <time>2021-04-26T08:02:07Z</time>
      </trkpt>
      <trkpt lat="45.31593" lon="4.14509">
        <ele>440</ele>
        <time>2021-04-26T08:02:08Z</time>
      </trkpt>
      <trkpt lat="45.31596" lon="4.14508">
        <ele>440</ele>
        <time>2021-04-26T08:02:09Z</time>
      </trkpt>
      <trkpt lat="45.31598" lon="4.14509">
        <ele>441</ele>
        <time>2021-04-26T08:02:10Z</time>
      </trkpt>
      <trkpt lat="45.316" lon="4.14513">
        <ele>441</ele>
        <time>2021-04-26T08:02:11Z</time>
      </trkpt>
      <trkpt lat="45.31603" lon="4.14522">
        <ele>441</ele>
        <time>2021-04-26T08:02:13Z</time>
      </trkpt>
      <trkpt lat="45.31606" lon="4.14526">
        <ele>441</ele>
        <time>2021-04-26T08:02:14Z</time>
      </trkpt>
      <trkpt lat="45.31609" lon="4.1453">
        <ele>441</ele>
        <time>2021-04-26T08:02:15Z</time>
      </trkpt>
      <trkpt lat="45.31612" lon="4.14534">
        <ele>441</ele>
        <time>2021-04-26T08:02:16Z</time>
      </trkpt>
      <trkpt lat="45.31616" lon="4.14538">
        <ele>441</ele>
        <time>2021-04-26T08:02:17Z</time>
      </trkpt>
      <trkpt lat="45.3162" lon="4.14541">
        <ele>441</ele>
        <time>2021-04-26T08:02:18Z</time>
      </trkpt>
      <trkpt lat="45.31627" lon="4.14545">
        <ele>441</ele>
        <time>2021-04-26T08:02:20Z</time>
      </trkpt>
      <trkpt lat="45.31632" lon="4.14547">
        <ele>442</ele>
        <time>2021-04-26T08:02:21Z</time>
      </trkpt>
      <trkpt lat="45.31636" lon="4.14548">
        <ele>442</ele>
        <time>2021-04-26T08:02:22Z</time>
      </trkpt>
      <trkpt lat="45.3164" lon="4.1455">
        <ele>442</ele>
        <time>2021-04-26T08:02:23Z</time>
      </trkpt>
      <trkpt lat="45.31644" lon="4.14551">
        <ele>442</ele>
        <time>2021-04-26T08:02:24Z</time>
      </trkpt>
      <trkpt lat="45.31649" lon="4.14552">
        <ele>443</ele>
        <time>2021-04-26T08:02:25Z</time>
      </trkpt>
      <trkpt lat="45.31653" lon="4.14553">
        <ele>443</ele>
        <time>2021-04-26T08:02:26Z</time>
      </trkpt>
      <trkpt lat="45.31658" lon="4.14554">
        <ele>443</ele>
        <time>2021-04-26T08:02:27Z</time>
      </trkpt>
      <trkpt lat="45.31662" lon="4.14555">
        <ele>443</ele>
        <time>2021-04-26T08:02:28Z</time>
      </trkpt>
      <trkpt lat="45.31667" lon="4.14556">
        <ele>443</ele>
        <time>2021-04-26T08:02:29Z</time>
      </trkpt>
      <trkpt lat="45.31672" lon="4.14557">
        <ele>443</ele>
        <time>2021-04-26T08:02:30Z</time>
      </trkpt>
      <trkpt lat="45.31681" lon="4.14559">
        <ele>443</ele>
        <time>2021-04-26T08:02:32Z</time>
      </trkpt>
      <trkpt lat="45.31685" lon="4.14561">
        <ele>443</ele>
        <time>2021-04-26T08:02:33Z</time>
      </trkpt>
      <trkpt lat="45.3169" lon="4.14563">
        <ele>443</ele>
        <time>2021-04-26T08:02:34Z</time>
      </trkpt>
      <trkpt lat="45.31694" lon="4.14566">
        <ele>443</ele>
        <time>2021-04-26T08:02:35Z</time>
      </trkpt>
      <trkpt lat="45.31698" lon="4.1457">
        <ele>443</ele>
        <time>2021-04-26T08:02:36Z</time>
      </trkpt>
      <trkpt lat="45.31702" lon="4.14574">
        <ele>443</ele>
        <time>2021-04-26T08:02:37Z</time>
      </trkpt>
      <trkpt lat="45.31705" lon="4.14578">
        <ele>444</ele>
        <time>2021-04-26T08:02:38Z</time>
      </trkpt>
      <trkpt lat="45.31709" lon="4.14583">
        <ele>444</ele>
        <time>2021-04-26T08:02:39Z</time>
      </trkpt>
      <trkpt lat="45.31712" lon="4.14588">
        <ele>444</ele>
        <time>2021-04-26T08:02:40Z</time>
      </trkpt>
      <trkpt lat="45.31719" lon="4.14598">
        <ele>444</ele>
        <time>2021-04-26T08:02:42Z</time>
      </trkpt>
      <trkpt lat="45.31722" lon="4.14604">
        <ele>444</ele>
        <time>2021-04-26T08:02:43Z</time>
      </trkpt>
      <trkpt lat="45.31725" lon="4.14609">
        <ele>444</ele>
        <time>2021-04-26T08:02:44Z</time>
      </trkpt>
      <trkpt lat="45.31728" lon="4.14614">
        <ele>444</ele>
        <time>2021-04-26T08:02:45Z</time>
      </trkpt>
      <trkpt lat="45.31731" lon="4.1462">
        <ele>444</ele>
        <time>2021-04-26T08:02:46Z</time>
      </trkpt>
      <trkpt lat="45.31734" lon="4.14625">
        <ele>444</ele>
        <time>2021-04-26T08:02:47Z</time>
      </trkpt>
      <trkpt lat="45.31737" lon="4.1463">
        <ele>444</ele>
        <time>2021-04-26T08:02:48Z</time>
      </trkpt>
      <trkpt lat="45.3174" lon="4.14635">
        <ele>444</ele>
        <time>2021-04-26T08:02:49Z</time>
      </trkpt>
      <trkpt lat="45.31746" lon="4.14645">
        <ele>444</ele>
        <time>2021-04-26T08:02:51Z</time>
      </trkpt>
      <trkpt lat="45.31749" lon="4.1465">
        <ele>445</ele>
        <time>2021-04-26T08:02:53Z</time>
      </trkpt>
      <trkpt lat="45.31752" lon="4.14654">
        <ele>445</ele>
        <time>2021-04-26T08:02:54Z</time>
      </trkpt>
      <trkpt lat="45.31756" lon="4.14659">
        <ele>445</ele>
        <time>2021-04-26T08:02:55Z</time>
      </trkpt>
      <trkpt lat="45.31759" lon="4.14663">
        <ele>445</ele>
        <time>2021-04-26T08:02:56Z</time>
      </trkpt>
      <trkpt lat="45.31763" lon="4.14667">
        <ele>445</ele>
        <time>2021-04-26T08:02:57Z</time>
      </trkpt>
      <trkpt lat="45.31767" lon="4.14671">
        <ele>445</ele>
        <time>2021-04-26T08:02:58Z</time>
      </trkpt>
      <trkpt lat="45.31775" lon="4.14679">
        <ele>445</ele>
        <time>2021-04-26T08:02:59Z</time>
      </trkpt>
      <trkpt lat="45.31779" lon="4.14682">
        <ele>445</ele>
        <time>2021-04-26T08:03:00Z</time>
      </trkpt>
      <trkpt lat="45.31784" lon="4.14686">
        <ele>445</ele>
        <time>2021-04-26T08:03:01Z</time>
      </trkpt>
      <trkpt lat="45.31792" lon="4.14692">
        <ele>445</ele>
        <time>2021-04-26T08:03:03Z</time>
      </trkpt>
      <trkpt lat="45.31797" lon="4.14695">
        <ele>445</ele>
        <time>2021-04-26T08:03:04Z</time>
      </trkpt>
      <trkpt lat="45.31801" lon="4.14699">
        <ele>445</ele>
        <time>2021-04-26T08:03:05Z</time>
      </trkpt>
      <trkpt lat="45.31806" lon="4.14702">
        <ele>445</ele>
        <time>2021-04-26T08:03:06Z</time>
      </trkpt>
      <trkpt lat="45.3181" lon="4.14705">
        <ele>445</ele>
        <time>2021-04-26T08:03:07Z</time>
      </trkpt>
      <trkpt lat="45.31814" lon="4.14709">
        <ele>445</ele>
        <time>2021-04-26T08:03:08Z</time>
      </trkpt>
      <trkpt lat="45.31822" lon="4.14715">
        <ele>445</ele>
        <time>2021-04-26T08:03:10Z</time>
      </trkpt>
      <trkpt lat="45.31826" lon="4.14718">
        <ele>445</ele>
        <time>2021-04-26T08:03:12Z</time>
      </trkpt>
      <trkpt lat="45.3183" lon="4.14719">
        <ele>445</ele>
        <time>2021-04-26T08:03:13Z</time>
      </trkpt>
      <trkpt lat="45.31834" lon="4.14719">
        <ele>445</ele>
        <time>2021-04-26T08:03:14Z</time>
      </trkpt>
      <trkpt lat="45.31838" lon="4.14716">
        <ele>445</ele>
        <time>2021-04-26T08:03:15Z</time>
      </trkpt>
      <trkpt lat="45.31842" lon="4.14712">
        <ele>445</ele>
        <time>2021-04-26T08:03:16Z</time>
      </trkpt>
      <trkpt lat="45.31845" lon="4.14708">
        <ele>445</ele>
        <time>2021-04-26T08:03:17Z</time>
      </trkpt>
      <trkpt lat="45.31847" lon="4.14702">
        <ele>445</ele>
        <time>2021-04-26T08:03:18Z</time>
      </trkpt>
      <trkpt lat="45.31849" lon="4.14696">
        <ele>445</ele>
        <time>2021-04-26T08:03:19Z</time>
      </trkpt>
      <trkpt lat="45.31851" lon="4.1469">
        <ele>445</ele>
        <time>2021-04-26T08:03:20Z</time>
      </trkpt>
      <trkpt lat="45.31853" lon="4.14683">
        <ele>445</ele>
        <time>2021-04-26T08:03:21Z</time>
      </trkpt>
      <trkpt lat="45.31855" lon="4.14677">
        <ele>446</ele>
        <time>2021-04-26T08:03:22Z</time>
      </trkpt>
      <trkpt lat="45.31857" lon="4.1467">
        <ele>446</ele>
        <time>2021-04-26T08:03:23Z</time>
      </trkpt>
      <trkpt lat="45.31859" lon="4.14663">
        <ele>446</ele>
        <time>2021-04-26T08:03:24Z</time>
      </trkpt>
      <trkpt lat="45.31861" lon="4.14657">
        <ele>446</ele>
        <time>2021-04-26T08:03:25Z</time>
      </trkpt>
      <trkpt lat="45.31863" lon="4.14651">
        <ele>446</ele>
        <time>2021-04-26T08:03:26Z</time>
      </trkpt>
      <trkpt lat="45.31865" lon="4.14645">
        <ele>446</ele>
        <time>2021-04-26T08:03:27Z</time>
      </trkpt>
      <trkpt lat="45.31869" lon="4.14639">
        <ele>446</ele>
        <time>2021-04-26T08:03:28Z</time>
      </trkpt>
      <trkpt lat="45.31876" lon="4.1463">
        <ele>446</ele>
        <time>2021-04-26T08:03:29Z</time>
      </trkpt>
      <trkpt lat="45.3188" lon="4.14625">
        <ele>446</ele>
        <time>2021-04-26T08:03:30Z</time>
      </trkpt>
      <trkpt lat="45.31883" lon="4.14621">
        <ele>446</ele>
        <time>2021-04-26T08:03:31Z</time>
      </trkpt>
      <trkpt lat="45.31887" lon="4.14617">
        <ele>446</ele>
        <time>2021-04-26T08:03:32Z</time>
      </trkpt>
      <trkpt lat="45.31891" lon="4.14612">
        <ele>446</ele>
        <time>2021-04-26T08:03:33Z</time>
      </trkpt>
      <trkpt lat="45.31899" lon="4.14604">
        <ele>446</ele>
        <time>2021-04-26T08:03:35Z</time>
      </trkpt>
      <trkpt lat="45.31902" lon="4.146">
        <ele>446</ele>
        <time>2021-04-26T08:03:36Z</time>
      </trkpt>
      <trkpt lat="45.31906" lon="4.14596">
        <ele>446</ele>
        <time>2021-04-26T08:03:37Z</time>
      </trkpt>
      <trkpt lat="45.3191" lon="4.14593">
        <ele>447</ele>
        <time>2021-04-26T08:03:38Z</time>
      </trkpt>
      <trkpt lat="45.31914" lon="4.14592">
        <ele>447</ele>
        <time>2021-04-26T08:03:39Z</time>
      </trkpt>
      <trkpt lat="45.31918" lon="4.14593">
        <ele>447</ele>
        <time>2021-04-26T08:03:40Z</time>
      </trkpt>
      <trkpt lat="45.31922" lon="4.14595">
        <ele>447</ele>
        <time>2021-04-26T08:03:41Z</time>
      </trkpt>
      <trkpt lat="45.31926" lon="4.14599">
        <ele>447</ele>
        <time>2021-04-26T08:03:42Z</time>
      </trkpt>
      <trkpt lat="45.31929" lon="4.14604">
        <ele>447</ele>
        <time>2021-04-26T08:03:43Z</time>
      </trkpt>
      <trkpt lat="45.31931" lon="4.1461">
        <ele>447</ele>
        <time>2021-04-26T08:03:44Z</time>
      </trkpt>
      <trkpt lat="45.31937" lon="4.14621">
        <ele>447</ele>
        <time>2021-04-26T08:03:46Z</time>
      </trkpt>
      <trkpt lat="45.31942" lon="4.14633">
        <ele>447</ele>
        <time>2021-04-26T08:03:48Z</time>
      </trkpt>
      <trkpt lat="45.31944" lon="4.14639">
        <ele>447</ele>
        <time>2021-04-26T08:03:50Z</time>
      </trkpt>
      <trkpt lat="45.31946" lon="4.14644">
        <ele>447</ele>
        <time>2021-04-26T08:03:51Z</time>
      </trkpt>
      <trkpt lat="45.31948" lon="4.1465">
        <ele>447</ele>
        <time>2021-04-26T08:03:52Z</time>
      </trkpt>
      <trkpt lat="45.31952" lon="4.14662">
        <ele>447</ele>
        <time>2021-04-26T08:03:53Z</time>
      </trkpt>
      <trkpt lat="45.31955" lon="4.14667">
        <ele>447</ele>
        <time>2021-04-26T08:03:55Z</time>
      </trkpt>
      <trkpt lat="45.31958" lon="4.14672">
        <ele>447</ele>
        <time>2021-04-26T08:03:56Z</time>
      </trkpt>
      <trkpt lat="45.31961" lon="4.14677">
        <ele>447</ele>
        <time>2021-04-26T08:03:57Z</time>
      </trkpt>
      <trkpt lat="45.31964" lon="4.14681">
        <ele>448</ele>
        <time>2021-04-26T08:03:58Z</time>
      </trkpt>
      <trkpt lat="45.3197" lon="4.14689">
        <ele>448</ele>
        <time>2021-04-26T08:03:59Z</time>
      </trkpt>
      <trkpt lat="45.31974" lon="4.14693">
        <ele>448</ele>
        <time>2021-04-26T08:04:00Z</time>
      </trkpt>
      <trkpt lat="45.31977" lon="4.14697">
        <ele>448</ele>
        <time>2021-04-26T08:04:01Z</time>
      </trkpt>
      <trkpt lat="45.3198" lon="4.14701">
        <ele>448</ele>
        <time>2021-04-26T08:04:02Z</time>
      </trkpt>
      <trkpt lat="45.31984" lon="4.14705">
        <ele>448</ele>
        <time>2021-04-26T08:04:03Z</time>
      </trkpt>
      <trkpt lat="45.31987" lon="4.14709">
        <ele>448</ele>
        <time>2021-04-26T08:04:04Z</time>
      </trkpt>
      <trkpt lat="45.31991" lon="4.14712">
        <ele>448</ele>
        <time>2021-04-26T08:04:05Z</time>
      </trkpt>
      <trkpt lat="45.31994" lon="4.14716">
        <ele>448</ele>
        <time>2021-04-26T08:04:07Z</time>
      </trkpt>
      <trkpt lat="45.31997" lon="4.1472">
        <ele>449</ele>
        <time>2021-04-26T08:04:08Z</time>
      </trkpt>
      <trkpt lat="45.32" lon="4.14724">
        <ele>449</ele>
        <time>2021-04-26T08:04:09Z</time>
      </trkpt>
      <trkpt lat="45.32003" lon="4.14728">
        <ele>449</ele>
        <time>2021-04-26T08:04:10Z</time>
      </trkpt>
      <trkpt lat="45.32006" lon="4.14731">
        <ele>449</ele>
        <time>2021-04-26T08:04:11Z</time>
      </trkpt>
      <trkpt lat="45.32009" lon="4.14735">
        <ele>450</ele>
        <time>2021-04-26T08:04:12Z</time>
      </trkpt>
      <trkpt lat="45.32012" lon="4.14739">
        <ele>450</ele>
        <time>2021-04-26T08:04:13Z</time>
      </trkpt>
      <trkpt lat="45.32015" lon="4.14743">
        <ele>450</ele>
        <time>2021-04-26T08:04:14Z</time>
      </trkpt>
      <trkpt lat="45.32018" lon="4.14747">
        <ele>450</ele>
        <time>2021-04-26T08:04:15Z</time>
      </trkpt>
      <trkpt lat="45.32021" lon="4.1475">
        <ele>450</ele>
        <time>2021-04-26T08:04:16Z</time>
      </trkpt>
      <trkpt lat="45.32024" lon="4.14754">
        <ele>451</ele>
        <time>2021-04-26T08:04:17Z</time>
      </trkpt>
      <trkpt lat="45.32027" lon="4.14757">
        <ele>451</ele>
        <time>2021-04-26T08:04:18Z</time>
      </trkpt>
      <trkpt lat="45.32029" lon="4.1476">
        <ele>451</ele>
        <time>2021-04-26T08:04:19Z</time>
      </trkpt>
      <trkpt lat="45.32032" lon="4.14764">
        <ele>452</ele>
        <time>2021-04-26T08:04:20Z</time>
      </trkpt>
      <trkpt lat="45.32035" lon="4.14767">
        <ele>452</ele>
        <time>2021-04-26T08:04:21Z</time>
      </trkpt>
      <trkpt lat="45.32039" lon="4.14776">
        <ele>452</ele>
        <time>2021-04-26T08:04:22Z</time>
      </trkpt>
      <trkpt lat="45.3204" lon="4.14781">
        <ele>453</ele>
        <time>2021-04-26T08:04:24Z</time>
      </trkpt>
      <trkpt lat="45.32041" lon="4.14786">
        <ele>453</ele>
        <time>2021-04-26T08:04:25Z</time>
      </trkpt>
      <trkpt lat="45.32042" lon="4.14796">
        <ele>454</ele>
        <time>2021-04-26T08:04:26Z</time>
      </trkpt>
      <trkpt lat="45.32042" lon="4.14801">
        <ele>454</ele>
        <time>2021-04-26T08:04:27Z</time>
      </trkpt>
      <trkpt lat="45.32042" lon="4.14806">
        <ele>454</ele>
        <time>2021-04-26T08:04:28Z</time>
      </trkpt>
      <trkpt lat="45.32042" lon="4.14811">
        <ele>455</ele>
        <time>2021-04-26T08:04:29Z</time>
      </trkpt>
      <trkpt lat="45.32043" lon="4.14815">
        <ele>455</ele>
        <time>2021-04-26T08:04:30Z</time>
      </trkpt>
      <trkpt lat="45.32043" lon="4.14819">
        <ele>456</ele>
        <time>2021-04-26T08:04:31Z</time>
      </trkpt>
      <trkpt lat="45.32045" lon="4.14822">
        <ele>456</ele>
        <time>2021-04-26T08:04:32Z</time>
      </trkpt>
      <trkpt lat="45.32047" lon="4.14825">
        <ele>456</ele>
        <time>2021-04-26T08:04:33Z</time>
      </trkpt>
      <trkpt lat="45.32051" lon="4.14826">
        <ele>457</ele>
        <time>2021-04-26T08:04:35Z</time>
      </trkpt>
      <trkpt lat="45.32053" lon="4.14823">
        <ele>457</ele>
        <time>2021-04-26T08:04:36Z</time>
      </trkpt>
      <trkpt lat="45.32055" lon="4.14819">
        <ele>457</ele>
        <time>2021-04-26T08:04:37Z</time>
      </trkpt>
      <trkpt lat="45.32057" lon="4.14815">
        <ele>458</ele>
        <time>2021-04-26T08:04:38Z</time>
      </trkpt>
      <trkpt lat="45.32059" lon="4.14811">
        <ele>458</ele>
        <time>2021-04-26T08:04:39Z</time>
      </trkpt>
      <trkpt lat="45.32061" lon="4.14806">
        <ele>458</ele>
        <time>2021-04-26T08:04:40Z</time>
      </trkpt>
      <trkpt lat="45.32063" lon="4.14802">
        <ele>458</ele>
        <time>2021-04-26T08:04:41Z</time>
      </trkpt>
      <trkpt lat="45.32066" lon="4.14799">
        <ele>458</ele>
        <time>2021-04-26T08:04:42Z</time>
      </trkpt>
      <trkpt lat="45.32069" lon="4.14796">
        <ele>458</ele>
        <time>2021-04-26T08:04:43Z</time>
      </trkpt>
      <trkpt lat="45.32075" lon="4.14791">
        <ele>459</ele>
        <time>2021-04-26T08:04:45Z</time>
      </trkpt>
      <trkpt lat="45.32079" lon="4.14787">
        <ele>459</ele>
        <time>2021-04-26T08:04:46Z</time>
      </trkpt>
      <trkpt lat="45.32082" lon="4.14784">
        <ele>459</ele>
        <time>2021-04-26T08:04:47Z</time>
      </trkpt>
      <trkpt lat="45.32085" lon="4.14781">
        <ele>459</ele>
        <time>2021-04-26T08:04:48Z</time>
      </trkpt>
      <trkpt lat="45.32092" lon="4.14776">
        <ele>460</ele>
        <time>2021-04-26T08:04:50Z</time>
      </trkpt>
      <trkpt lat="45.32095" lon="4.14775">
        <ele>460</ele>
        <time>2021-04-26T08:04:51Z</time>
      </trkpt>
      <trkpt lat="45.32097" lon="4.14775">
        <ele>460</ele>
        <time>2021-04-26T08:04:52Z</time>
      </trkpt>
      <trkpt lat="45.32099" lon="4.14776">
        <ele>461</ele>
        <time>2021-04-26T08:04:53Z</time>
      </trkpt>
      <trkpt lat="45.32102" lon="4.14778">
        <ele>461</ele>
        <time>2021-04-26T08:04:54Z</time>
      </trkpt>
      <trkpt lat="45.32104" lon="4.1478">
        <ele>461</ele>
        <time>2021-04-26T08:04:55Z</time>
      </trkpt>
      <trkpt lat="45.32106" lon="4.14782">
        <ele>461</ele>
        <time>2021-04-26T08:04:56Z</time>
      </trkpt>
      <trkpt lat="45.3211" lon="4.14783">
        <ele>461</ele>
        <time>2021-04-26T08:04:57Z</time>
      </trkpt>
      <trkpt lat="45.32118" lon="4.14788">
        <ele>461</ele>
        <time>2021-04-26T08:04:59Z</time>
      </trkpt>
      <trkpt lat="45.32122" lon="4.14791">
        <ele>461</ele>
        <time>2021-04-26T08:05:00Z</time>
      </trkpt>
      <trkpt lat="45.32126" lon="4.14794">
        <ele>461</ele>
        <time>2021-04-26T08:05:01Z</time>
      </trkpt>
      <trkpt lat="45.32131" lon="4.14798">
        <ele>462</ele>
        <time>2021-04-26T08:05:02Z</time>
      </trkpt>
      <trkpt lat="45.32135" lon="4.14801">
        <ele>462</ele>
        <time>2021-04-26T08:05:04Z</time>
      </trkpt>
      <trkpt lat="45.32139" lon="4.14804">
        <ele>462</ele>
        <time>2021-04-26T08:05:05Z</time>
      </trkpt>
      <trkpt lat="45.32143" lon="4.14808">
        <ele>462</ele>
        <time>2021-04-26T08:05:06Z</time>
      </trkpt>
      <trkpt lat="45.32147" lon="4.14812">
        <ele>463</ele>
        <time>2021-04-26T08:05:07Z</time>
      </trkpt>
      <trkpt lat="45.32152" lon="4.14816">
        <ele>463</ele>
        <time>2021-04-26T08:05:08Z</time>
      </trkpt>
      <trkpt lat="45.32156" lon="4.14819">
        <ele>463</ele>
        <time>2021-04-26T08:05:09Z</time>
      </trkpt>
      <trkpt lat="45.3216" lon="4.14823">
        <ele>463</ele>
        <time>2021-04-26T08:05:10Z</time>
      </trkpt>
      <trkpt lat="45.32165" lon="4.14826">
        <ele>463</ele>
        <time>2021-04-26T08:05:11Z</time>
      </trkpt>
      <trkpt lat="45.3217" lon="4.14828">
        <ele>463</ele>
        <time>2021-04-26T08:05:12Z</time>
      </trkpt>
      <trkpt lat="45.32175" lon="4.14831">
        <ele>463</ele>
        <time>2021-04-26T08:05:13Z</time>
      </trkpt>
      <trkpt lat="45.3218" lon="4.14833">
        <ele>463</ele>
        <time>2021-04-26T08:05:14Z</time>
      </trkpt>
      <trkpt lat="45.32185" lon="4.14834">
        <ele>464</ele>
        <time>2021-04-26T08:05:15Z</time>
      </trkpt>
      <trkpt lat="45.32191" lon="4.14836">
        <ele>464</ele>
        <time>2021-04-26T08:05:16Z</time>
      </trkpt>
      <trkpt lat="45.32196" lon="4.14837">
        <ele>464</ele>
        <time>2021-04-26T08:05:17Z</time>
      </trkpt>
      <trkpt lat="45.32202" lon="4.14838">
        <ele>464</ele>
        <time>2021-04-26T08:05:18Z</time>
      </trkpt>
      <trkpt lat="45.32207" lon="4.14838">
        <ele>464</ele>
        <time>2021-04-26T08:05:19Z</time>
      </trkpt>
      <trkpt lat="45.32212" lon="4.14839">
        <ele>464</ele>
        <time>2021-04-26T08:05:20Z</time>
      </trkpt>
      <trkpt lat="45.32218" lon="4.14839">
        <ele>464</ele>
        <time>2021-04-26T08:05:21Z</time>
      </trkpt>
      <trkpt lat="45.32223" lon="4.14839">
        <ele>464</ele>
        <time>2021-04-26T08:05:22Z</time>
      </trkpt>
      <trkpt lat="45.32228" lon="4.14839">
        <ele>464</ele>
        <time>2021-04-26T08:05:23Z</time>
      </trkpt>
      <trkpt lat="45.32233" lon="4.14838">
        <ele>464</ele>
        <time>2021-04-26T08:05:24Z</time>
      </trkpt>
      <trkpt lat="45.32238" lon="4.14837">
        <ele>464</ele>
        <time>2021-04-26T08:05:25Z</time>
      </trkpt>
      <trkpt lat="45.32243" lon="4.14834">
        <ele>464</ele>
        <time>2021-04-26T08:05:26Z</time>
      </trkpt>
      <trkpt lat="45.32248" lon="4.1483">
        <ele>465</ele>
        <time>2021-04-26T08:05:27Z</time>
      </trkpt>
      <trkpt lat="45.32252" lon="4.14825">
        <ele>465</ele>
        <time>2021-04-26T08:05:28Z</time>
      </trkpt>
      <trkpt lat="45.32257" lon="4.14821">
        <ele>465</ele>
        <time>2021-04-26T08:05:29Z</time>
      </trkpt>
      <trkpt lat="45.32261" lon="4.14816">
        <ele>465</ele>
        <time>2021-04-26T08:05:30Z</time>
      </trkpt>
      <trkpt lat="45.32266" lon="4.14811">
        <ele>465</ele>
        <time>2021-04-26T08:05:31Z</time>
      </trkpt>
      <trkpt lat="45.3227" lon="4.14806">
        <ele>465</ele>
        <time>2021-04-26T08:05:32Z</time>
      </trkpt>
      <trkpt lat="45.32275" lon="4.14801">
        <ele>465</ele>
        <time>2021-04-26T08:05:33Z</time>
      </trkpt>
      <trkpt lat="45.3228" lon="4.14795">
        <ele>465</ele>
        <time>2021-04-26T08:05:34Z</time>
      </trkpt>
      <trkpt lat="45.32284" lon="4.14791">
        <ele>465</ele>
        <time>2021-04-26T08:05:35Z</time>
      </trkpt>
      <trkpt lat="45.32289" lon="4.14786">
        <ele>466</ele>
        <time>2021-04-26T08:05:36Z</time>
      </trkpt>
      <trkpt lat="45.32294" lon="4.14781">
        <ele>466</ele>
        <time>2021-04-26T08:05:37Z</time>
      </trkpt>
      <trkpt lat="45.32298" lon="4.14776">
        <ele>466</ele>
        <time>2021-04-26T08:05:38Z</time>
      </trkpt>
      <trkpt lat="45.32303" lon="4.14771">
        <ele>466</ele>
        <time>2021-04-26T08:05:39Z</time>
      </trkpt>
      <trkpt lat="45.32308" lon="4.14767">
        <ele>466</ele>
        <time>2021-04-26T08:05:40Z</time>
      </trkpt>
      <trkpt lat="45.32312" lon="4.14762">
        <ele>466</ele>
        <time>2021-04-26T08:05:41Z</time>
      </trkpt>
      <trkpt lat="45.32321" lon="4.14753">
        <ele>466</ele>
        <time>2021-04-26T08:05:42Z</time>
      </trkpt>
      <trkpt lat="45.32325" lon="4.14748">
        <ele>466</ele>
        <time>2021-04-26T08:05:43Z</time>
      </trkpt>
      <trkpt lat="45.3233" lon="4.14743">
        <ele>466</ele>
        <time>2021-04-26T08:05:44Z</time>
      </trkpt>
      <trkpt lat="45.32335" lon="4.14738">
        <ele>466</ele>
        <time>2021-04-26T08:05:45Z</time>
      </trkpt>
      <trkpt lat="45.32339" lon="4.14733">
        <ele>466</ele>
        <time>2021-04-26T08:05:46Z</time>
      </trkpt>
      <trkpt lat="45.32343" lon="4.14728">
        <ele>466</ele>
        <time>2021-04-26T08:05:47Z</time>
      </trkpt>
      <trkpt lat="45.32348" lon="4.14722">
        <ele>466</ele>
        <time>2021-04-26T08:05:48Z</time>
      </trkpt>
      <trkpt lat="45.32357" lon="4.14712">
        <ele>466</ele>
        <time>2021-04-26T08:05:50Z</time>
      </trkpt>
      <trkpt lat="45.32361" lon="4.14706">
        <ele>466</ele>
        <time>2021-04-26T08:05:51Z</time>
      </trkpt>
      <trkpt lat="45.32366" lon="4.14701">
        <ele>466</ele>
        <time>2021-04-26T08:05:52Z</time>
      </trkpt>
      <trkpt lat="45.3237" lon="4.14696">
        <ele>467</ele>
        <time>2021-04-26T08:05:53Z</time>
      </trkpt>
      <trkpt lat="45.32374" lon="4.1469">
        <ele>467</ele>
        <time>2021-04-26T08:05:54Z</time>
      </trkpt>
      <trkpt lat="45.32379" lon="4.14685">
        <ele>467</ele>
        <time>2021-04-26T08:05:55Z</time>
      </trkpt>
      <trkpt lat="45.32383" lon="4.14679">
        <ele>467</ele>
        <time>2021-04-26T08:05:56Z</time>
      </trkpt>
      <trkpt lat="45.32388" lon="4.14674">
        <ele>467</ele>
        <time>2021-04-26T08:05:58Z</time>
      </trkpt>
      <trkpt lat="45.32396" lon="4.14662">
        <ele>467</ele>
        <time>2021-04-26T08:05:59Z</time>
      </trkpt>
      <trkpt lat="45.32405" lon="4.14651">
        <ele>467</ele>
        <time>2021-04-26T08:06:01Z</time>
      </trkpt>
      <trkpt lat="45.32409" lon="4.14645">
        <ele>467</ele>
        <time>2021-04-26T08:06:03Z</time>
      </trkpt>
      <trkpt lat="45.32414" lon="4.1464">
        <ele>467</ele>
        <time>2021-04-26T08:06:04Z</time>
      </trkpt>
      <trkpt lat="45.32418" lon="4.14634">
        <ele>467</ele>
        <time>2021-04-26T08:06:05Z</time>
      </trkpt>
      <trkpt lat="45.32422" lon="4.14628">
        <ele>467</ele>
        <time>2021-04-26T08:06:06Z</time>
      </trkpt>
      <trkpt lat="45.32426" lon="4.14623">
        <ele>467</ele>
        <time>2021-04-26T08:06:07Z</time>
      </trkpt>
      <trkpt lat="45.32431" lon="4.14617">
        <ele>467</ele>
        <time>2021-04-26T08:06:08Z</time>
      </trkpt>
      <trkpt lat="45.32435" lon="4.14612">
        <ele>467</ele>
        <time>2021-04-26T08:06:09Z</time>
      </trkpt>
      <trkpt lat="45.32439" lon="4.14607">
        <ele>467</ele>
        <time>2021-04-26T08:06:10Z</time>
      </trkpt>
      <trkpt lat="45.32443" lon="4.14601">
        <ele>467</ele>
        <time>2021-04-26T08:06:11Z</time>
      </trkpt>
      <trkpt lat="45.32447" lon="4.14596">
        <ele>467</ele>
        <time>2021-04-26T08:06:12Z</time>
      </trkpt>
      <trkpt lat="45.32451" lon="4.1459">
        <ele>467</ele>
        <time>2021-04-26T08:06:13Z</time>
      </trkpt>
      <trkpt lat="45.32456" lon="4.14586">
        <ele>467</ele>
        <time>2021-04-26T08:06:14Z</time>
      </trkpt>
      <trkpt lat="45.3246" lon="4.14581">
        <ele>467</ele>
        <time>2021-04-26T08:06:15Z</time>
      </trkpt>
      <trkpt lat="45.32464" lon="4.14577">
        <ele>467</ele>
        <time>2021-04-26T08:06:16Z</time>
      </trkpt>
      <trkpt lat="45.32469" lon="4.14573">
        <ele>467</ele>
        <time>2021-04-26T08:06:17Z</time>
      </trkpt>
      <trkpt lat="45.32473" lon="4.14569">
        <ele>467</ele>
        <time>2021-04-26T08:06:18Z</time>
      </trkpt>
      <trkpt lat="45.32478" lon="4.14566">
        <ele>467</ele>
        <time>2021-04-26T08:06:19Z</time>
      </trkpt>
      <trkpt lat="45.32487" lon="4.14561">
        <ele>467</ele>
        <time>2021-04-26T08:06:20Z</time>
      </trkpt>
      <trkpt lat="45.32492" lon="4.14558">
        <ele>467</ele>
        <time>2021-04-26T08:06:21Z</time>
      </trkpt>
      <trkpt lat="45.32497" lon="4.14556">
        <ele>467</ele>
        <time>2021-04-26T08:06:22Z</time>
      </trkpt>
      <trkpt lat="45.32502" lon="4.14554">
        <ele>467</ele>
        <time>2021-04-26T08:06:23Z</time>
      </trkpt>
      <trkpt lat="45.32512" lon="4.14552">
        <ele>468</ele>
        <time>2021-04-26T08:06:25Z</time>
      </trkpt>
      <trkpt lat="45.32518" lon="4.14551">
        <ele>468</ele>
        <time>2021-04-26T08:06:26Z</time>
      </trkpt>
      <trkpt lat="45.32523" lon="4.14551">
        <ele>468</ele>
        <time>2021-04-26T08:06:27Z</time>
      </trkpt>
      <trkpt lat="45.32528" lon="4.1455">
        <ele>468</ele>
        <time>2021-04-26T08:06:28Z</time>
      </trkpt>
      <trkpt lat="45.32533" lon="4.14549">
        <ele>468</ele>
        <time>2021-04-26T08:06:29Z</time>
      </trkpt>
      <trkpt lat="45.32538" lon="4.14548">
        <ele>468</ele>
        <time>2021-04-26T08:06:30Z</time>
      </trkpt>
      <trkpt lat="45.32544" lon="4.14547">
        <ele>468</ele>
        <time>2021-04-26T08:06:31Z</time>
      </trkpt>
      <trkpt lat="45.32549" lon="4.14546">
        <ele>468</ele>
        <time>2021-04-26T08:06:32Z</time>
      </trkpt>
      <trkpt lat="45.32554" lon="4.14545">
        <ele>468</ele>
        <time>2021-04-26T08:06:33Z</time>
      </trkpt>
      <trkpt lat="45.32565" lon="4.14544">
        <ele>468</ele>
        <time>2021-04-26T08:06:35Z</time>
      </trkpt>
      <trkpt lat="45.3257" lon="4.14543">
        <ele>468</ele>
        <time>2021-04-26T08:06:36Z</time>
      </trkpt>
      <trkpt lat="45.32575" lon="4.14543">
        <ele>468</ele>
        <time>2021-04-26T08:06:37Z</time>
      </trkpt>
      <trkpt lat="45.3258" lon="4.14542">
        <ele>468</ele>
        <time>2021-04-26T08:06:39Z</time>
      </trkpt>
      <trkpt lat="45.32585" lon="4.14542">
        <ele>468</ele>
        <time>2021-04-26T08:06:40Z</time>
      </trkpt>
      <trkpt lat="45.32591" lon="4.14541">
        <ele>468</ele>
        <time>2021-04-26T08:06:41Z</time>
      </trkpt>
      <trkpt lat="45.32596" lon="4.14541">
        <ele>468</ele>
        <time>2021-04-26T08:06:42Z</time>
      </trkpt>
      <trkpt lat="45.32601" lon="4.14542">
        <ele>468</ele>
        <time>2021-04-26T08:06:43Z</time>
      </trkpt>
      <trkpt lat="45.32606" lon="4.14543">
        <ele>468</ele>
        <time>2021-04-26T08:06:44Z</time>
      </trkpt>
      <trkpt lat="45.32611" lon="4.14544">
        <ele>468</ele>
        <time>2021-04-26T08:06:45Z</time>
      </trkpt>
      <trkpt lat="45.32616" lon="4.14546">
        <ele>468</ele>
        <time>2021-04-26T08:06:46Z</time>
      </trkpt>
      <trkpt lat="45.32621" lon="4.14548">
        <ele>468</ele>
        <time>2021-04-26T08:06:47Z</time>
      </trkpt>
      <trkpt lat="45.32626" lon="4.14551">
        <ele>468</ele>
        <time>2021-04-26T08:06:48Z</time>
      </trkpt>
      <trkpt lat="45.32631" lon="4.14553">
        <ele>468</ele>
        <time>2021-04-26T08:06:49Z</time>
      </trkpt>
      <trkpt lat="45.32637" lon="4.14554">
        <ele>468</ele>
        <time>2021-04-26T08:06:50Z</time>
      </trkpt>
      <trkpt lat="45.32642" lon="4.14554">
        <ele>468</ele>
        <time>2021-04-26T08:06:51Z</time>
      </trkpt>
      <trkpt lat="45.32648" lon="4.14554">
        <ele>468</ele>
        <time>2021-04-26T08:06:52Z</time>
      </trkpt>
      <trkpt lat="45.32653" lon="4.14554">
        <ele>468</ele>
        <time>2021-04-26T08:06:53Z</time>
      </trkpt>
      <trkpt lat="45.32659" lon="4.14552">
        <ele>469</ele>
        <time>2021-04-26T08:06:54Z</time>
      </trkpt>
      <trkpt lat="45.32664" lon="4.14551">
        <ele>469</ele>
        <time>2021-04-26T08:06:55Z</time>
      </trkpt>
      <trkpt lat="45.32669" lon="4.1455">
        <ele>469</ele>
        <time>2021-04-26T08:06:56Z</time>
      </trkpt>
      <trkpt lat="45.32675" lon="4.14549">
        <ele>469</ele>
        <time>2021-04-26T08:06:57Z</time>
      </trkpt>
      <trkpt lat="45.3268" lon="4.14547">
        <ele>469</ele>
        <time>2021-04-26T08:06:58Z</time>
      </trkpt>
      <trkpt lat="45.32691" lon="4.14544">
        <ele>469</ele>
        <time>2021-04-26T08:06:59Z</time>
      </trkpt>
      <trkpt lat="45.32696" lon="4.14542">
        <ele>469</ele>
        <time>2021-04-26T08:07:00Z</time>
      </trkpt>
      <trkpt lat="45.32701" lon="4.14541">
        <ele>469</ele>
        <time>2021-04-26T08:07:01Z</time>
      </trkpt>
      <trkpt lat="45.32712" lon="4.14537">
        <ele>469</ele>
        <time>2021-04-26T08:07:03Z</time>
      </trkpt>
      <trkpt lat="45.32717" lon="4.14535">
        <ele>469</ele>
        <time>2021-04-26T08:07:04Z</time>
      </trkpt>
      <trkpt lat="45.32723" lon="4.14532">
        <ele>468</ele>
        <time>2021-04-26T08:07:05Z</time>
      </trkpt>
      <trkpt lat="45.32728" lon="4.1453">
        <ele>469</ele>
        <time>2021-04-26T08:07:06Z</time>
      </trkpt>
      <trkpt lat="45.32734" lon="4.14528">
        <ele>469</ele>
        <time>2021-04-26T08:07:07Z</time>
      </trkpt>
      <trkpt lat="45.32739" lon="4.14526">
        <ele>469</ele>
        <time>2021-04-26T08:07:08Z</time>
      </trkpt>
      <trkpt lat="45.32744" lon="4.14524">
        <ele>469</ele>
        <time>2021-04-26T08:07:09Z</time>
      </trkpt>
      <trkpt lat="45.32749" lon="4.14522">
        <ele>469</ele>
        <time>2021-04-26T08:07:10Z</time>
      </trkpt>
      <trkpt lat="45.32759" lon="4.14518">
        <ele>469</ele>
        <time>2021-04-26T08:07:12Z</time>
      </trkpt>
      <trkpt lat="45.32764" lon="4.14516">
        <ele>469</ele>
        <time>2021-04-26T08:07:13Z</time>
      </trkpt>
      <trkpt lat="45.32769" lon="4.14514">
        <ele>469</ele>
        <time>2021-04-26T08:07:14Z</time>
      </trkpt>
      <trkpt lat="45.32774" lon="4.14512">
        <ele>469</ele>
        <time>2021-04-26T08:07:15Z</time>
      </trkpt>
      <trkpt lat="45.32784" lon="4.14508">
        <ele>469</ele>
        <time>2021-04-26T08:07:17Z</time>
      </trkpt>
      <trkpt lat="45.3279" lon="4.14505">
        <ele>469</ele>
        <time>2021-04-26T08:07:19Z</time>
      </trkpt>
      <trkpt lat="45.32795" lon="4.14502">
        <ele>469</ele>
        <time>2021-04-26T08:07:20Z</time>
      </trkpt>
      <trkpt lat="45.328" lon="4.14498">
        <ele>469</ele>
        <time>2021-04-26T08:07:21Z</time>
      </trkpt>
      <trkpt lat="45.32805" lon="4.14495">
        <ele>469</ele>
        <time>2021-04-26T08:07:22Z</time>
      </trkpt>
      <trkpt lat="45.32809" lon="4.14491">
        <ele>469</ele>
        <time>2021-04-26T08:07:23Z</time>
      </trkpt>
      <trkpt lat="45.32813" lon="4.14487">
        <ele>469</ele>
        <time>2021-04-26T08:07:24Z</time>
      </trkpt>
      <trkpt lat="45.32817" lon="4.14483">
        <ele>470</ele>
        <time>2021-04-26T08:07:25Z</time>
      </trkpt>
      <trkpt lat="45.32821" lon="4.14479">
        <ele>470</ele>
        <time>2021-04-26T08:07:26Z</time>
      </trkpt>
      <trkpt lat="45.32825" lon="4.14474">
        <ele>470</ele>
        <time>2021-04-26T08:07:27Z</time>
      </trkpt>
      <trkpt lat="45.32828" lon="4.1447">
        <ele>470</ele>
        <time>2021-04-26T08:07:28Z</time>
      </trkpt>
      <trkpt lat="45.32831" lon="4.14465">
        <ele>470</ele>
        <time>2021-04-26T08:07:29Z</time>
      </trkpt>
      <trkpt lat="45.32835" lon="4.1446">
        <ele>470</ele>
        <time>2021-04-26T08:07:30Z</time>
      </trkpt>
      <trkpt lat="45.32838" lon="4.14455">
        <ele>470</ele>
        <time>2021-04-26T08:07:31Z</time>
      </trkpt>
      <trkpt lat="45.32841" lon="4.1445">
        <ele>470</ele>
        <time>2021-04-26T08:07:32Z</time>
      </trkpt>
      <trkpt lat="45.32844" lon="4.14445">
        <ele>470</ele>
        <time>2021-04-26T08:07:33Z</time>
      </trkpt>
      <trkpt lat="45.32848" lon="4.14441">
        <ele>470</ele>
        <time>2021-04-26T08:07:34Z</time>
      </trkpt>
      <trkpt lat="45.32852" lon="4.14438">
        <ele>470</ele>
        <time>2021-04-26T08:07:35Z</time>
      </trkpt>
      <trkpt lat="45.32859" lon="4.1443">
        <ele>470</ele>
        <time>2021-04-26T08:07:36Z</time>
      </trkpt>
      <trkpt lat="45.32863" lon="4.14425">
        <ele>470</ele>
        <time>2021-04-26T08:07:37Z</time>
      </trkpt>
      <trkpt lat="45.32867" lon="4.14421">
        <ele>471</ele>
        <time>2021-04-26T08:07:38Z</time>
      </trkpt>
      <trkpt lat="45.32871" lon="4.14416">
        <ele>471</ele>
        <time>2021-04-26T08:07:39Z</time>
      </trkpt>
      <trkpt lat="45.32875" lon="4.14412">
        <ele>471</ele>
        <time>2021-04-26T08:07:40Z</time>
      </trkpt>
      <trkpt lat="45.32884" lon="4.14402">
        <ele>471</ele>
        <time>2021-04-26T08:07:42Z</time>
      </trkpt>
      <trkpt lat="45.32888" lon="4.14398">
        <ele>471</ele>
        <time>2021-04-26T08:07:43Z</time>
      </trkpt>
      <trkpt lat="45.32892" lon="4.14394">
        <ele>471</ele>
        <time>2021-04-26T08:07:44Z</time>
      </trkpt>
      <trkpt lat="45.32897" lon="4.1439">
        <ele>471</ele>
        <time>2021-04-26T08:07:45Z</time>
      </trkpt>
      <trkpt lat="45.32901" lon="4.14387">
        <ele>471</ele>
        <time>2021-04-26T08:07:46Z</time>
      </trkpt>
      <trkpt lat="45.32906" lon="4.14384">
        <ele>471</ele>
        <time>2021-04-26T08:07:47Z</time>
      </trkpt>
      <trkpt lat="45.3291" lon="4.14381">
        <ele>471</ele>
        <time>2021-04-26T08:07:48Z</time>
      </trkpt>
      <trkpt lat="45.32915" lon="4.14378">
        <ele>471</ele>
        <time>2021-04-26T08:07:49Z</time>
      </trkpt>
      <trkpt lat="45.3292" lon="4.14376">
        <ele>471</ele>
        <time>2021-04-26T08:07:50Z</time>
      </trkpt>
      <trkpt lat="45.3293" lon="4.14371">
        <ele>472</ele>
        <time>2021-04-26T08:07:52Z</time>
      </trkpt>
      <trkpt lat="45.32934" lon="4.14368">
        <ele>472</ele>
        <time>2021-04-26T08:07:53Z</time>
      </trkpt>
      <trkpt lat="45.32944" lon="4.14363">
        <ele>472</ele>
        <time>2021-04-26T08:07:55Z</time>
      </trkpt>
      <trkpt lat="45.32949" lon="4.1436">
        <ele>472</ele>
        <time>2021-04-26T08:07:57Z</time>
      </trkpt>
      <trkpt lat="45.32954" lon="4.14357">
        <ele>473</ele>
        <time>2021-04-26T08:07:58Z</time>
      </trkpt>
      <trkpt lat="45.32963" lon="4.14352">
        <ele>473</ele>
        <time>2021-04-26T08:07:59Z</time>
      </trkpt>
      <trkpt lat="45.32972" lon="4.14347">
        <ele>473</ele>
        <time>2021-04-26T08:08:01Z</time>
      </trkpt>
      <trkpt lat="45.32977" lon="4.14345">
        <ele>473</ele>
        <time>2021-04-26T08:08:02Z</time>
      </trkpt>
      <trkpt lat="45.32981" lon="4.14342">
        <ele>474</ele>
        <time>2021-04-26T08:08:03Z</time>
      </trkpt>
      <trkpt lat="45.32986" lon="4.1434">
        <ele>474</ele>
        <time>2021-04-26T08:08:04Z</time>
      </trkpt>
      <trkpt lat="45.3299" lon="4.14339">
        <ele>474</ele>
        <time>2021-04-26T08:08:05Z</time>
      </trkpt>
      <trkpt lat="45.32995" lon="4.14337">
        <ele>474</ele>
        <time>2021-04-26T08:08:06Z</time>
      </trkpt>
      <trkpt lat="45.33" lon="4.14335">
        <ele>474</ele>
        <time>2021-04-26T08:08:07Z</time>
      </trkpt>
      <trkpt lat="45.33004" lon="4.14334">
        <ele>475</ele>
        <time>2021-04-26T08:08:08Z</time>
      </trkpt>
      <trkpt lat="45.33009" lon="4.14332">
        <ele>475</ele>
        <time>2021-04-26T08:08:09Z</time>
      </trkpt>
      <trkpt lat="45.33014" lon="4.1433">
        <ele>475</ele>
        <time>2021-04-26T08:08:10Z</time>
      </trkpt>
      <trkpt lat="45.33023" lon="4.14327">
        <ele>475</ele>
        <time>2021-04-26T08:08:12Z</time>
      </trkpt>
      <trkpt lat="45.33028" lon="4.14325">
        <ele>475</ele>
        <time>2021-04-26T08:08:14Z</time>
      </trkpt>
      <trkpt lat="45.33033" lon="4.14322">
        <ele>476</ele>
        <time>2021-04-26T08:08:15Z</time>
      </trkpt>
      <trkpt lat="45.33038" lon="4.1432">
        <ele>476</ele>
        <time>2021-04-26T08:08:16Z</time>
      </trkpt>
      <trkpt lat="45.33047" lon="4.14315">
        <ele>476</ele>
        <time>2021-04-26T08:08:17Z</time>
      </trkpt>
      <trkpt lat="45.33052" lon="4.14312">
        <ele>476</ele>
        <time>2021-04-26T08:08:18Z</time>
      </trkpt>
      <trkpt lat="45.33057" lon="4.1431">
        <ele>476</ele>
        <time>2021-04-26T08:08:19Z</time>
      </trkpt>
      <trkpt lat="45.33061" lon="4.14308">
        <ele>476</ele>
        <time>2021-04-26T08:08:20Z</time>
      </trkpt>
      <trkpt lat="45.33067" lon="4.14305">
        <ele>476</ele>
        <time>2021-04-26T08:08:22Z</time>
      </trkpt>
      <trkpt lat="45.33073" lon="4.14303">
        <ele>476</ele>
        <time>2021-04-26T08:08:23Z</time>
      </trkpt>
      <trkpt lat="45.33079" lon="4.143">
        <ele>476</ele>
        <time>2021-04-26T08:08:24Z</time>
      </trkpt>
      <trkpt lat="45.33085" lon="4.14298">
        <ele>476</ele>
        <time>2021-04-26T08:08:25Z</time>
      </trkpt>
      <trkpt lat="45.33091" lon="4.14295">
        <ele>476</ele>
        <time>2021-04-26T08:08:26Z</time>
      </trkpt>
      <trkpt lat="45.33097" lon="4.14293">
        <ele>476</ele>
        <time>2021-04-26T08:08:27Z</time>
      </trkpt>
      <trkpt lat="45.33109" lon="4.14288">
        <ele>476</ele>
        <time>2021-04-26T08:08:28Z</time>
      </trkpt>
      <trkpt lat="45.33114" lon="4.14285">
        <ele>476</ele>
        <time>2021-04-26T08:08:30Z</time>
      </trkpt>
      <trkpt lat="45.3312" lon="4.14283">
        <ele>476</ele>
        <time>2021-04-26T08:08:31Z</time>
      </trkpt>
      <trkpt lat="45.33126" lon="4.1428">
        <ele>476</ele>
        <time>2021-04-26T08:08:32Z</time>
      </trkpt>
      <trkpt lat="45.33137" lon="4.14274">
        <ele>475</ele>
        <time>2021-04-26T08:08:33Z</time>
      </trkpt>
      <trkpt lat="45.33143" lon="4.14272">
        <ele>475</ele>
        <time>2021-04-26T08:08:34Z</time>
      </trkpt>
      <trkpt lat="45.3315" lon="4.1427">
        <ele>474</ele>
        <time>2021-04-26T08:08:35Z</time>
      </trkpt>
      <trkpt lat="45.33157" lon="4.14267">
        <ele>474</ele>
        <time>2021-04-26T08:08:36Z</time>
      </trkpt>
      <trkpt lat="45.33171" lon="4.1426">
        <ele>473</ele>
        <time>2021-04-26T08:08:38Z</time>
      </trkpt>
      <trkpt lat="45.33178" lon="4.14256">
        <ele>472</ele>
        <time>2021-04-26T08:08:39Z</time>
      </trkpt>
      <trkpt lat="45.33186" lon="4.14251">
        <ele>472</ele>
        <time>2021-04-26T08:08:40Z</time>
      </trkpt>
      <trkpt lat="45.33193" lon="4.14246">
        <ele>471</ele>
        <time>2021-04-26T08:08:41Z</time>
      </trkpt>
      <trkpt lat="45.33201" lon="4.1424">
        <ele>471</ele>
        <time>2021-04-26T08:08:42Z</time>
      </trkpt>
      <trkpt lat="45.33215" lon="4.1423">
        <ele>470</ele>
        <time>2021-04-26T08:08:44Z</time>
      </trkpt>
      <trkpt lat="45.33222" lon="4.14224">
        <ele>469</ele>
        <time>2021-04-26T08:08:45Z</time>
      </trkpt>
      <trkpt lat="45.33226" lon="4.14215">
        <ele>469</ele>
        <time>2021-04-26T08:08:46Z</time>
      </trkpt>
      <trkpt lat="45.33228" lon="4.14205">
        <ele>469</ele>
        <time>2021-04-26T08:08:47Z</time>
      </trkpt>
      <trkpt lat="45.33227" lon="4.14196">
        <ele>469</ele>
        <time>2021-04-26T08:08:48Z</time>
      </trkpt>
      <trkpt lat="45.33225" lon="4.14188">
        <ele>470</ele>
        <time>2021-04-26T08:08:49Z</time>
      </trkpt>
      <trkpt lat="45.33224" lon="4.14181">
        <ele>470</ele>
        <time>2021-04-26T08:08:51Z</time>
      </trkpt>
      <trkpt lat="45.3322" lon="4.14167">
        <ele>471</ele>
        <time>2021-04-26T08:08:52Z</time>
      </trkpt>
      <trkpt lat="45.33219" lon="4.14161">
        <ele>471</ele>
        <time>2021-04-26T08:08:54Z</time>
      </trkpt>
      <trkpt lat="45.33218" lon="4.14155">
        <ele>471</ele>
        <time>2021-04-26T08:08:55Z</time>
      </trkpt>
      <trkpt lat="45.33218" lon="4.1415">
        <ele>472</ele>
        <time>2021-04-26T08:08:56Z</time>
      </trkpt>
      <trkpt lat="45.33223" lon="4.14145">
        <ele>472</ele>
        <time>2021-04-26T08:08:57Z</time>
      </trkpt>
      <trkpt lat="45.33231" lon="4.14144">
        <ele>472</ele>
        <time>2021-04-26T08:08:59Z</time>
      </trkpt>
      <trkpt lat="45.33235" lon="4.14144">
        <ele>472</ele>
        <time>2021-04-26T08:09:00Z</time>
      </trkpt>
      <trkpt lat="45.33239" lon="4.14144">
        <ele>472</ele>
        <time>2021-04-26T08:09:01Z</time>
      </trkpt>
      <trkpt lat="45.33248" lon="4.14143">
        <ele>472</ele>
        <time>2021-04-26T08:09:03Z</time>
      </trkpt>
      <trkpt lat="45.33254" lon="4.14143">
        <ele>472</ele>
        <time>2021-04-26T08:09:04Z</time>
      </trkpt>
      <trkpt lat="45.33259" lon="4.14142">
        <ele>472</ele>
        <time>2021-04-26T08:09:05Z</time>
      </trkpt>
      <trkpt lat="45.33265" lon="4.14141">
        <ele>471</ele>
        <time>2021-04-26T08:09:06Z</time>
      </trkpt>
      <trkpt lat="45.33271" lon="4.14141">
        <ele>471</ele>
        <time>2021-04-26T08:09:07Z</time>
      </trkpt>
      <trkpt lat="45.33277" lon="4.1414">
        <ele>471</ele>
        <time>2021-04-26T08:09:08Z</time>
      </trkpt>
      <trkpt lat="45.33283" lon="4.14139">
        <ele>471</ele>
        <time>2021-04-26T08:09:09Z</time>
      </trkpt>
      <trkpt lat="45.3329" lon="4.14138">
        <ele>470</ele>
        <time>2021-04-26T08:09:11Z</time>
      </trkpt>
      <trkpt lat="45.33296" lon="4.14138">
        <ele>470</ele>
        <time>2021-04-26T08:09:12Z</time>
      </trkpt>
      <trkpt lat="45.33303" lon="4.14139">
        <ele>470</ele>
        <time>2021-04-26T08:09:13Z</time>
      </trkpt>
      <trkpt lat="45.33309" lon="4.14141">
        <ele>469</ele>
        <time>2021-04-26T08:09:14Z</time>
      </trkpt>
      <trkpt lat="45.33316" lon="4.14143">
        <ele>469</ele>
        <time>2021-04-26T08:09:15Z</time>
      </trkpt>
      <trkpt lat="45.33322" lon="4.14145">
        <ele>469</ele>
        <time>2021-04-26T08:09:16Z</time>
      </trkpt>
      <trkpt lat="45.33329" lon="4.14148">
        <ele>468</ele>
        <time>2021-04-26T08:09:17Z</time>
      </trkpt>
      <trkpt lat="45.33335" lon="4.1415">
        <ele>468</ele>
        <time>2021-04-26T08:09:18Z</time>
      </trkpt>
      <trkpt lat="45.33342" lon="4.14152">
        <ele>468</ele>
        <time>2021-04-26T08:09:19Z</time>
      </trkpt>
      <trkpt lat="45.33348" lon="4.14155">
        <ele>468</ele>
        <time>2021-04-26T08:09:20Z</time>
      </trkpt>
      <trkpt lat="45.33354" lon="4.14158">
        <ele>468</ele>
        <time>2021-04-26T08:09:21Z</time>
      </trkpt>
      <trkpt lat="45.3336" lon="4.14161">
        <ele>468</ele>
        <time>2021-04-26T08:09:22Z</time>
      </trkpt>
      <trkpt lat="45.33366" lon="4.14164">
        <ele>467</ele>
        <time>2021-04-26T08:09:23Z</time>
      </trkpt>
      <trkpt lat="45.33372" lon="4.14166">
        <ele>467</ele>
        <time>2021-04-26T08:09:24Z</time>
      </trkpt>
      <trkpt lat="45.33378" lon="4.14169">
        <ele>467</ele>
        <time>2021-04-26T08:09:25Z</time>
      </trkpt>
      <trkpt lat="45.33384" lon="4.14172">
        <ele>467</ele>
        <time>2021-04-26T08:09:26Z</time>
      </trkpt>
      <trkpt lat="45.3339" lon="4.14174">
        <ele>467</ele>
        <time>2021-04-26T08:09:27Z</time>
      </trkpt>
      <trkpt lat="45.33396" lon="4.14176">
        <ele>467</ele>
        <time>2021-04-26T08:09:28Z</time>
      </trkpt>
      <trkpt lat="45.33401" lon="4.14178">
        <ele>467</ele>
        <time>2021-04-26T08:09:29Z</time>
      </trkpt>
      <trkpt lat="45.33411" lon="4.14179">
        <ele>466</ele>
        <time>2021-04-26T08:09:30Z</time>
      </trkpt>
      <trkpt lat="45.33416" lon="4.14178">
        <ele>467</ele>
        <time>2021-04-26T08:09:31Z</time>
      </trkpt>
      <trkpt lat="45.3342" lon="4.14177">
        <ele>467</ele>
        <time>2021-04-26T08:09:32Z</time>
      </trkpt>
      <trkpt lat="45.33423" lon="4.14176">
        <ele>467</ele>
        <time>2021-04-26T08:09:33Z</time>
      </trkpt>
      <trkpt lat="45.33427" lon="4.14175">
        <ele>467</ele>
        <time>2021-04-26T08:09:34Z</time>
      </trkpt>
      <trkpt lat="45.33431" lon="4.14175">
        <ele>467</ele>
        <time>2021-04-26T08:09:35Z</time>
      </trkpt>
      <trkpt lat="45.33434" lon="4.14176">
        <ele>467</ele>
        <time>2021-04-26T08:09:36Z</time>
      </trkpt>
      <trkpt lat="45.33443" lon="4.14178">
        <ele>467</ele>
        <time>2021-04-26T08:09:38Z</time>
      </trkpt>
      <trkpt lat="45.33447" lon="4.1418">
        <ele>467</ele>
        <time>2021-04-26T08:09:39Z</time>
      </trkpt>
      <trkpt lat="45.33452" lon="4.14182">
        <ele>467</ele>
        <time>2021-04-26T08:09:40Z</time>
      </trkpt>
      <trkpt lat="45.33457" lon="4.14184">
        <ele>467</ele>
        <time>2021-04-26T08:09:41Z</time>
      </trkpt>
      <trkpt lat="45.33462" lon="4.14186">
        <ele>467</ele>
        <time>2021-04-26T08:09:42Z</time>
      </trkpt>
      <trkpt lat="45.33467" lon="4.14189">
        <ele>466</ele>
        <time>2021-04-26T08:09:43Z</time>
      </trkpt>
      <trkpt lat="45.33471" lon="4.14192">
        <ele>466</ele>
        <time>2021-04-26T08:09:44Z</time>
      </trkpt>
      <trkpt lat="45.33476" lon="4.14195">
        <ele>466</ele>
        <time>2021-04-26T08:09:45Z</time>
      </trkpt>
      <trkpt lat="45.33481" lon="4.14198">
        <ele>466</ele>
        <time>2021-04-26T08:09:46Z</time>
      </trkpt>
      <trkpt lat="45.33486" lon="4.14201">
        <ele>466</ele>
        <time>2021-04-26T08:09:48Z</time>
      </trkpt>
      <trkpt lat="45.3349" lon="4.14205">
        <ele>466</ele>
        <time>2021-04-26T08:09:49Z</time>
      </trkpt>
      <trkpt lat="45.33495" lon="4.14208">
        <ele>466</ele>
        <time>2021-04-26T08:09:50Z</time>
      </trkpt>
      <trkpt lat="45.33499" lon="4.14212">
        <ele>466</ele>
        <time>2021-04-26T08:09:51Z</time>
      </trkpt>
      <trkpt lat="45.33504" lon="4.14216">
        <ele>466</ele>
        <time>2021-04-26T08:09:52Z</time>
      </trkpt>
      <trkpt lat="45.33508" lon="4.14221">
        <ele>466</ele>
        <time>2021-04-26T08:09:53Z</time>
      </trkpt>
      <trkpt lat="45.33513" lon="4.14226">
        <ele>465</ele>
        <time>2021-04-26T08:09:54Z</time>
      </trkpt>
      <trkpt lat="45.33517" lon="4.14231">
        <ele>465</ele>
        <time>2021-04-26T08:09:55Z</time>
      </trkpt>
      <trkpt lat="45.33521" lon="4.14236">
        <ele>465</ele>
        <time>2021-04-26T08:09:56Z</time>
      </trkpt>
      <trkpt lat="45.3353" lon="4.14247">
        <ele>465</ele>
        <time>2021-04-26T08:09:57Z</time>
      </trkpt>
      <trkpt lat="45.33537" lon="4.14258">
        <ele>465</ele>
        <time>2021-04-26T08:09:59Z</time>
      </trkpt>
      <trkpt lat="45.3354" lon="4.14264">
        <ele>465</ele>
        <time>2021-04-26T08:10:00Z</time>
      </trkpt>
      <trkpt lat="45.33544" lon="4.1427">
        <ele>464</ele>
        <time>2021-04-26T08:10:01Z</time>
      </trkpt>
      <trkpt lat="45.33546" lon="4.14276">
        <ele>464</ele>
        <time>2021-04-26T08:10:02Z</time>
      </trkpt>
      <trkpt lat="45.33549" lon="4.14281">
        <ele>464</ele>
        <time>2021-04-26T08:10:03Z</time>
      </trkpt>
      <trkpt lat="45.33552" lon="4.14287">
        <ele>464</ele>
        <time>2021-04-26T08:10:04Z</time>
      </trkpt>
      <trkpt lat="45.33556" lon="4.1429">
        <ele>464</ele>
        <time>2021-04-26T08:10:05Z</time>
      </trkpt>
      <trkpt lat="45.3356" lon="4.14292">
        <ele>464</ele>
        <time>2021-04-26T08:10:07Z</time>
      </trkpt>
      <trkpt lat="45.33563" lon="4.14293">
        <ele>464</ele>
        <time>2021-04-26T08:10:08Z</time>
      </trkpt>
      <trkpt lat="45.33565" lon="4.14294">
        <ele>463</ele>
        <time>2021-04-26T08:10:10Z</time>
      </trkpt>
      <trkpt lat="45.33566" lon="4.14299">
        <ele>463</ele>
        <time>2021-04-26T08:10:12Z</time>
      </trkpt>
      <trkpt lat="45.33567" lon="4.14302">
        <ele>463</ele>
        <time>2021-04-26T08:10:13Z</time>
      </trkpt>
      <trkpt lat="45.33568" lon="4.14306">
        <ele>463</ele>
        <time>2021-04-26T08:10:14Z</time>
      </trkpt>
      <trkpt lat="45.3357" lon="4.14311">
        <ele>463</ele>
        <time>2021-04-26T08:10:15Z</time>
      </trkpt>
      <trkpt lat="45.33571" lon="4.14315">
        <ele>464</ele>
        <time>2021-04-26T08:10:16Z</time>
      </trkpt>
      <trkpt lat="45.33572" lon="4.1432">
        <ele>464</ele>
        <time>2021-04-26T08:10:17Z</time>
      </trkpt>
      <trkpt lat="45.33575" lon="4.1433">
        <ele>464</ele>
        <time>2021-04-26T08:10:18Z</time>
      </trkpt>
      <trkpt lat="45.33577" lon="4.14335">
        <ele>464</ele>
        <time>2021-04-26T08:10:19Z</time>
      </trkpt>
      <trkpt lat="45.33578" lon="4.14341">
        <ele>464</ele>
        <time>2021-04-26T08:10:21Z</time>
      </trkpt>
      <trkpt lat="45.33579" lon="4.14347">
        <ele>464</ele>
        <time>2021-04-26T08:10:22Z</time>
      </trkpt>
      <trkpt lat="45.3358" lon="4.14353">
        <ele>464</ele>
        <time>2021-04-26T08:10:23Z</time>
      </trkpt>
      <trkpt lat="45.33581" lon="4.14358">
        <ele>464</ele>
        <time>2021-04-26T08:10:24Z</time>
      </trkpt>
      <trkpt lat="45.33582" lon="4.14364">
        <ele>464</ele>
        <time>2021-04-26T08:10:25Z</time>
      </trkpt>
      <trkpt lat="45.33583" lon="4.1437">
        <ele>464</ele>
        <time>2021-04-26T08:10:26Z</time>
      </trkpt>
      <trkpt lat="45.33585" lon="4.14384">
        <ele>464</ele>
        <time>2021-04-26T08:10:27Z</time>
      </trkpt>
      <trkpt lat="45.33586" lon="4.1439">
        <ele>464</ele>
        <time>2021-04-26T08:10:28Z</time>
      </trkpt>
      <trkpt lat="45.33587" lon="4.14397">
        <ele>464</ele>
        <time>2021-04-26T08:10:29Z</time>
      </trkpt>
      <trkpt lat="45.33587" lon="4.14403">
        <ele>465</ele>
        <time>2021-04-26T08:10:30Z</time>
      </trkpt>
      <trkpt lat="45.33587" lon="4.1441">
        <ele>465</ele>
        <time>2021-04-26T08:10:31Z</time>
      </trkpt>
      <trkpt lat="45.33588" lon="4.14416">
        <ele>465</ele>
        <time>2021-04-26T08:10:32Z</time>
      </trkpt>
      <trkpt lat="45.3359" lon="4.14424">
        <ele>465</ele>
        <time>2021-04-26T08:10:34Z</time>
      </trkpt>
      <trkpt lat="45.33593" lon="4.14425">
        <ele>465</ele>
        <time>2021-04-26T08:10:35Z</time>
      </trkpt>
      <trkpt lat="45.33597" lon="4.14426">
        <ele>465</ele>
        <time>2021-04-26T08:10:36Z</time>
      </trkpt>
      <trkpt lat="45.33601" lon="4.14428">
        <ele>465</ele>
        <time>2021-04-26T08:10:37Z</time>
      </trkpt>
      <trkpt lat="45.33605" lon="4.14429">
        <ele>465</ele>
        <time>2021-04-26T08:10:38Z</time>
      </trkpt>
      <trkpt lat="45.33609" lon="4.14429">
        <ele>465</ele>
        <time>2021-04-26T08:10:39Z</time>
      </trkpt>
      <trkpt lat="45.33613" lon="4.14427">
        <ele>465</ele>
        <time>2021-04-26T08:10:40Z</time>
      </trkpt>
      <trkpt lat="45.33616" lon="4.14423">
        <ele>465</ele>
        <time>2021-04-26T08:10:41Z</time>
      </trkpt>
      <trkpt lat="45.33619" lon="4.14419">
        <ele>465</ele>
        <time>2021-04-26T08:10:42Z</time>
      </trkpt>
      <trkpt lat="45.33622" lon="4.14415">
        <ele>465</ele>
        <time>2021-04-26T08:10:43Z</time>
      </trkpt>
      <trkpt lat="45.33625" lon="4.14411">
        <ele>465</ele>
        <time>2021-04-26T08:10:44Z</time>
      </trkpt>
      <trkpt lat="45.33628" lon="4.14406">
        <ele>465</ele>
        <time>2021-04-26T08:10:46Z</time>
      </trkpt>
      <trkpt lat="45.33631" lon="4.14401">
        <ele>465</ele>
        <time>2021-04-26T08:10:47Z</time>
      </trkpt>
      <trkpt lat="45.33632" lon="4.14394">
        <ele>465</ele>
        <time>2021-04-26T08:10:48Z</time>
      </trkpt>
      <trkpt lat="45.33634" lon="4.14388">
        <ele>464</ele>
        <time>2021-04-26T08:10:49Z</time>
      </trkpt>
      <trkpt lat="45.33635" lon="4.14382">
        <ele>464</ele>
        <time>2021-04-26T08:10:50Z</time>
      </trkpt>
      <trkpt lat="45.33635" lon="4.14376">
        <ele>464</ele>
        <time>2021-04-26T08:10:51Z</time>
      </trkpt>
      <trkpt lat="45.33635" lon="4.14371">
        <ele>464</ele>
        <time>2021-04-26T08:10:52Z</time>
      </trkpt>
      <trkpt lat="45.33637" lon="4.14368">
        <ele>464</ele>
        <time>2021-04-26T08:10:53Z</time>
      </trkpt>
      <trkpt lat="45.3364" lon="4.14367">
        <ele>464</ele>
        <time>2021-04-26T08:10:54Z</time>
      </trkpt>
      <trkpt lat="45.33644" lon="4.14369">
        <ele>464</ele>
        <time>2021-04-26T08:10:55Z</time>
      </trkpt>
      <trkpt lat="45.33648" lon="4.14372">
        <ele>465</ele>
        <time>2021-04-26T08:10:56Z</time>
      </trkpt>
      <trkpt lat="45.33653" lon="4.14376">
        <ele>465</ele>
        <time>2021-04-26T08:10:57Z</time>
      </trkpt>
      <trkpt lat="45.33657" lon="4.14379">
        <ele>465</ele>
        <time>2021-04-26T08:10:58Z</time>
      </trkpt>
      <trkpt lat="45.33665" lon="4.14384">
        <ele>465</ele>
        <time>2021-04-26T08:10:59Z</time>
      </trkpt>
      <trkpt lat="45.33669" lon="4.14386">
        <ele>466</ele>
        <time>2021-04-26T08:11:01Z</time>
      </trkpt>
      <trkpt lat="45.33673" lon="4.14387">
        <ele>466</ele>
        <time>2021-04-26T08:11:02Z</time>
      </trkpt>
      <trkpt lat="45.33677" lon="4.14389">
        <ele>467</ele>
        <time>2021-04-26T08:11:03Z</time>
      </trkpt>
      <trkpt lat="45.33681" lon="4.1439">
        <ele>467</ele>
        <time>2021-04-26T08:11:04Z</time>
      </trkpt>
      <trkpt lat="45.33689" lon="4.14392">
        <ele>467</ele>
        <time>2021-04-26T08:11:05Z</time>
      </trkpt>
      <trkpt lat="45.33692" lon="4.14393">
        <ele>467</ele>
        <time>2021-04-26T08:11:06Z</time>
      </trkpt>
      <trkpt lat="45.33696" lon="4.14394">
        <ele>467</ele>
        <time>2021-04-26T08:11:07Z</time>
      </trkpt>
      <trkpt lat="45.337" lon="4.14394">
        <ele>468</ele>
        <time>2021-04-26T08:11:08Z</time>
      </trkpt>
      <trkpt lat="45.33704" lon="4.14395">
        <ele>468</ele>
        <time>2021-04-26T08:11:09Z</time>
      </trkpt>
      <trkpt lat="45.33713" lon="4.14395">
        <ele>468</ele>
        <time>2021-04-26T08:11:11Z</time>
      </trkpt>
      <trkpt lat="45.33717" lon="4.14396">
        <ele>469</ele>
        <time>2021-04-26T08:11:12Z</time>
      </trkpt>
      <trkpt lat="45.33721" lon="4.14396">
        <ele>469</ele>
        <time>2021-04-26T08:11:13Z</time>
      </trkpt>
      <trkpt lat="45.33725" lon="4.14397">
        <ele>469</ele>
        <time>2021-04-26T08:11:14Z</time>
      </trkpt>
      <trkpt lat="45.33729" lon="4.14397">
        <ele>470</ele>
        <time>2021-04-26T08:11:15Z</time>
      </trkpt>
      <trkpt lat="45.33734" lon="4.14398">
        <ele>470</ele>
        <time>2021-04-26T08:11:16Z</time>
      </trkpt>
      <trkpt lat="45.33738" lon="4.14398">
        <ele>470</ele>
        <time>2021-04-26T08:11:17Z</time>
      </trkpt>
      <trkpt lat="45.33742" lon="4.14398">
        <ele>471</ele>
        <time>2021-04-26T08:11:18Z</time>
      </trkpt>
      <trkpt lat="45.33746" lon="4.14398">
        <ele>471</ele>
        <time>2021-04-26T08:11:19Z</time>
      </trkpt>
      <trkpt lat="45.3375" lon="4.14397">
        <ele>471</ele>
        <time>2021-04-26T08:11:20Z</time>
      </trkpt>
      <trkpt lat="45.33753" lon="4.14396">
        <ele>472</ele>
        <time>2021-04-26T08:11:21Z</time>
      </trkpt>
      <trkpt lat="45.33757" lon="4.14395">
        <ele>472</ele>
        <time>2021-04-26T08:11:23Z</time>
      </trkpt>
      <trkpt lat="45.33761" lon="4.14393">
        <ele>473</ele>
        <time>2021-04-26T08:11:24Z</time>
      </trkpt>
      <trkpt lat="45.33765" lon="4.14391">
        <ele>473</ele>
        <time>2021-04-26T08:11:25Z</time>
      </trkpt>
      <trkpt lat="45.33769" lon="4.14389">
        <ele>474</ele>
        <time>2021-04-26T08:11:26Z</time>
      </trkpt>
      <trkpt lat="45.33773" lon="4.14388">
        <ele>474</ele>
        <time>2021-04-26T08:11:27Z</time>
      </trkpt>
      <trkpt lat="45.33778" lon="4.14386">
        <ele>474</ele>
        <time>2021-04-26T08:11:28Z</time>
      </trkpt>
      <trkpt lat="45.33782" lon="4.14384">
        <ele>475</ele>
        <time>2021-04-26T08:11:29Z</time>
      </trkpt>
      <trkpt lat="45.33786" lon="4.14383">
        <ele>475</ele>
        <time>2021-04-26T08:11:30Z</time>
      </trkpt>
      <trkpt lat="45.3379" lon="4.14381">
        <ele>476</ele>
        <time>2021-04-26T08:11:31Z</time>
      </trkpt>
      <trkpt lat="45.33794" lon="4.14379">
        <ele>476</ele>
        <time>2021-04-26T08:11:32Z</time>
      </trkpt>
      <trkpt lat="45.33798" lon="4.14378">
        <ele>476</ele>
        <time>2021-04-26T08:11:33Z</time>
      </trkpt>
      <trkpt lat="45.33802" lon="4.14376">
        <ele>476</ele>
        <time>2021-04-26T08:11:34Z</time>
      </trkpt>
      <trkpt lat="45.33805" lon="4.14374">
        <ele>477</ele>
        <time>2021-04-26T08:11:35Z</time>
      </trkpt>
      <trkpt lat="45.33809" lon="4.14373">
        <ele>478</ele>
        <time>2021-04-26T08:11:36Z</time>
      </trkpt>
      <trkpt lat="45.33814" lon="4.14372">
        <ele>478</ele>
        <time>2021-04-26T08:11:37Z</time>
      </trkpt>
      <trkpt lat="45.33818" lon="4.14371">
        <ele>479</ele>
        <time>2021-04-26T08:11:38Z</time>
      </trkpt>
      <trkpt lat="45.33822" lon="4.1437">
        <ele>479</ele>
        <time>2021-04-26T08:11:39Z</time>
      </trkpt>
      <trkpt lat="45.33826" lon="4.1437">
        <ele>479</ele>
        <time>2021-04-26T08:11:40Z</time>
      </trkpt>
      <trkpt lat="45.3383" lon="4.1437">
        <ele>479</ele>
        <time>2021-04-26T08:11:41Z</time>
      </trkpt>
      <trkpt lat="45.33834" lon="4.14369">
        <ele>479</ele>
        <time>2021-04-26T08:11:42Z</time>
      </trkpt>
      <trkpt lat="45.33843" lon="4.14369">
        <ele>480</ele>
        <time>2021-04-26T08:11:43Z</time>
      </trkpt>
      <trkpt lat="45.33847" lon="4.1437">
        <ele>480</ele>
        <time>2021-04-26T08:11:44Z</time>
      </trkpt>
      <trkpt lat="45.33852" lon="4.1437">
        <ele>480</ele>
        <time>2021-04-26T08:11:45Z</time>
      </trkpt>
      <trkpt lat="45.33861" lon="4.14372">
        <ele>481</ele>
        <time>2021-04-26T08:11:47Z</time>
      </trkpt>
      <trkpt lat="45.33865" lon="4.14373">
        <ele>481</ele>
        <time>2021-04-26T08:11:48Z</time>
      </trkpt>
      <trkpt lat="45.33869" lon="4.14375">
        <ele>482</ele>
        <time>2021-04-26T08:11:49Z</time>
      </trkpt>
      <trkpt lat="45.33873" lon="4.14376">
        <ele>482</ele>
        <time>2021-04-26T08:11:50Z</time>
      </trkpt>
      <trkpt lat="45.33877" lon="4.14378">
        <ele>482</ele>
        <time>2021-04-26T08:11:51Z</time>
      </trkpt>
      <trkpt lat="45.33881" lon="4.1438">
        <ele>483</ele>
        <time>2021-04-26T08:11:52Z</time>
      </trkpt>
      <trkpt lat="45.33885" lon="4.14381">
        <ele>483</ele>
        <time>2021-04-26T08:11:53Z</time>
      </trkpt>
      <trkpt lat="45.33889" lon="4.14384">
        <ele>484</ele>
        <time>2021-04-26T08:11:54Z</time>
      </trkpt>
      <trkpt lat="45.33893" lon="4.14386">
        <ele>484</ele>
        <time>2021-04-26T08:11:55Z</time>
      </trkpt>
      <trkpt lat="45.33897" lon="4.14388">
        <ele>484</ele>
        <time>2021-04-26T08:11:56Z</time>
      </trkpt>
      <trkpt lat="45.339" lon="4.1439">
        <ele>485</ele>
        <time>2021-04-26T08:11:57Z</time>
      </trkpt>
      <trkpt lat="45.33907" lon="4.14397">
        <ele>486</ele>
        <time>2021-04-26T08:11:59Z</time>
      </trkpt>
      <trkpt lat="45.3391" lon="4.144">
        <ele>486</ele>
        <time>2021-04-26T08:12:00Z</time>
      </trkpt>
      <trkpt lat="45.33916" lon="4.14406">
        <ele>487</ele>
        <time>2021-04-26T08:12:02Z</time>
      </trkpt>
      <trkpt lat="45.33919" lon="4.14409">
        <ele>487</ele>
        <time>2021-04-26T08:12:03Z</time>
      </trkpt>
      <trkpt lat="45.33922" lon="4.14412">
        <ele>488</ele>
        <time>2021-04-26T08:12:04Z</time>
      </trkpt>
      <trkpt lat="45.33926" lon="4.14414">
        <ele>488</ele>
        <time>2021-04-26T08:12:05Z</time>
      </trkpt>
      <trkpt lat="45.33929" lon="4.14416">
        <ele>489</ele>
        <time>2021-04-26T08:12:06Z</time>
      </trkpt>
      <trkpt lat="45.33933" lon="4.14418">
        <ele>489</ele>
        <time>2021-04-26T08:12:07Z</time>
      </trkpt>
      <trkpt lat="45.33936" lon="4.1442">
        <ele>490</ele>
        <time>2021-04-26T08:12:08Z</time>
      </trkpt>
      <trkpt lat="45.33939" lon="4.14422">
        <ele>490</ele>
        <time>2021-04-26T08:12:09Z</time>
      </trkpt>
      <trkpt lat="45.33942" lon="4.14425">
        <ele>491</ele>
        <time>2021-04-26T08:12:10Z</time>
      </trkpt>
      <trkpt lat="45.33944" lon="4.14434">
        <ele>492</ele>
        <time>2021-04-26T08:12:12Z</time>
      </trkpt>
      <trkpt lat="45.33944" lon="4.14439">
        <ele>492</ele>
        <time>2021-04-26T08:12:13Z</time>
      </trkpt>
      <trkpt lat="45.33943" lon="4.14443">
        <ele>493</ele>
        <time>2021-04-26T08:12:14Z</time>
      </trkpt>
      <trkpt lat="45.33942" lon="4.14448">
        <ele>493</ele>
        <time>2021-04-26T08:12:15Z</time>
      </trkpt>
      <trkpt lat="45.33941" lon="4.14453">
        <ele>494</ele>
        <time>2021-04-26T08:12:16Z</time>
      </trkpt>
      <trkpt lat="45.3394" lon="4.14458">
        <ele>494</ele>
        <time>2021-04-26T08:12:17Z</time>
      </trkpt>
      <trkpt lat="45.33939" lon="4.14463">
        <ele>495</ele>
        <time>2021-04-26T08:12:18Z</time>
      </trkpt>
      <trkpt lat="45.33938" lon="4.14467">
        <ele>495</ele>
        <time>2021-04-26T08:12:19Z</time>
      </trkpt>
      <trkpt lat="45.33936" lon="4.14478">
        <ele>496</ele>
        <time>2021-04-26T08:12:21Z</time>
      </trkpt>
      <trkpt lat="45.33935" lon="4.14483">
        <ele>497</ele>
        <time>2021-04-26T08:12:23Z</time>
      </trkpt>
      <trkpt lat="45.33935" lon="4.14489">
        <ele>497</ele>
        <time>2021-04-26T08:12:24Z</time>
      </trkpt>
      <trkpt lat="45.33934" lon="4.14494">
        <ele>497</ele>
        <time>2021-04-26T08:12:25Z</time>
      </trkpt>
      <trkpt lat="45.33934" lon="4.14499">
        <ele>498</ele>
        <time>2021-04-26T08:12:26Z</time>
      </trkpt>
      <trkpt lat="45.33934" lon="4.14504">
        <ele>499</ele>
        <time>2021-04-26T08:12:27Z</time>
      </trkpt>
      <trkpt lat="45.33933" lon="4.1451">
        <ele>499</ele>
        <time>2021-04-26T08:12:28Z</time>
      </trkpt>
      <trkpt lat="45.33932" lon="4.14515">
        <ele>500</ele>
        <time>2021-04-26T08:12:29Z</time>
      </trkpt>
      <trkpt lat="45.33932" lon="4.1452">
        <ele>500</ele>
        <time>2021-04-26T08:12:30Z</time>
      </trkpt>
      <trkpt lat="45.33931" lon="4.14525">
        <ele>501</ele>
        <time>2021-04-26T08:12:31Z</time>
      </trkpt>
      <trkpt lat="45.33931" lon="4.1453">
        <ele>501</ele>
        <time>2021-04-26T08:12:32Z</time>
      </trkpt>
      <trkpt lat="45.3393" lon="4.14536">
        <ele>502</ele>
        <time>2021-04-26T08:12:33Z</time>
      </trkpt>
      <trkpt lat="45.33929" lon="4.14541">
        <ele>502</ele>
        <time>2021-04-26T08:12:34Z</time>
      </trkpt>
      <trkpt lat="45.33929" lon="4.14546">
        <ele>503</ele>
        <time>2021-04-26T08:12:35Z</time>
      </trkpt>
      <trkpt lat="45.33928" lon="4.14551">
        <ele>503</ele>
        <time>2021-04-26T08:12:36Z</time>
      </trkpt>
      <trkpt lat="45.33928" lon="4.14557">
        <ele>504</ele>
        <time>2021-04-26T08:12:37Z</time>
      </trkpt>
      <trkpt lat="45.33929" lon="4.14562">
        <ele>504</ele>
        <time>2021-04-26T08:12:38Z</time>
      </trkpt>
      <trkpt lat="45.33929" lon="4.14568">
        <ele>504</ele>
        <time>2021-04-26T08:12:39Z</time>
      </trkpt>
      <trkpt lat="45.33931" lon="4.14578">
        <ele>505</ele>
        <time>2021-04-26T08:12:40Z</time>
      </trkpt>
      <trkpt lat="45.33932" lon="4.14584">
        <ele>506</ele>
        <time>2021-04-26T08:12:41Z</time>
      </trkpt>
      <trkpt lat="45.33933" lon="4.14589">
        <ele>506</ele>
        <time>2021-04-26T08:12:42Z</time>
      </trkpt>
      <trkpt lat="45.33934" lon="4.14594">
        <ele>506</ele>
        <time>2021-04-26T08:12:43Z</time>
      </trkpt>
      <trkpt lat="45.33935" lon="4.14598">
        <ele>507</ele>
        <time>2021-04-26T08:12:44Z</time>
      </trkpt>
      <trkpt lat="45.33936" lon="4.14603">
        <ele>507</ele>
        <time>2021-04-26T08:12:45Z</time>
      </trkpt>
      <trkpt lat="45.33938" lon="4.14608">
        <ele>507</ele>
        <time>2021-04-26T08:12:46Z</time>
      </trkpt>
      <trkpt lat="45.3394" lon="4.14612">
        <ele>508</ele>
        <time>2021-04-26T08:12:47Z</time>
      </trkpt>
      <trkpt lat="45.33942" lon="4.14616">
        <ele>508</ele>
        <time>2021-04-26T08:12:48Z</time>
      </trkpt>
      <trkpt lat="45.33944" lon="4.1462">
        <ele>509</ele>
        <time>2021-04-26T08:12:49Z</time>
      </trkpt>
      <trkpt lat="45.33946" lon="4.14624">
        <ele>509</ele>
        <time>2021-04-26T08:12:50Z</time>
      </trkpt>
      <trkpt lat="45.33948" lon="4.14627">
        <ele>510</ele>
        <time>2021-04-26T08:12:51Z</time>
      </trkpt>
      <trkpt lat="45.33952" lon="4.14634">
        <ele>510</ele>
        <time>2021-04-26T08:12:53Z</time>
      </trkpt>
      <trkpt lat="45.33954" lon="4.14637">
        <ele>511</ele>
        <time>2021-04-26T08:12:54Z</time>
      </trkpt>
      <trkpt lat="45.33956" lon="4.1464">
        <ele>511</ele>
        <time>2021-04-26T08:12:55Z</time>
      </trkpt>
      <trkpt lat="45.33958" lon="4.14643">
        <ele>512</ele>
        <time>2021-04-26T08:12:56Z</time>
      </trkpt>
      <trkpt lat="45.3396" lon="4.14646">
        <ele>512</ele>
        <time>2021-04-26T08:12:57Z</time>
      </trkpt>
      <trkpt lat="45.33965" lon="4.14652">
        <ele>513</ele>
        <time>2021-04-26T08:12:59Z</time>
      </trkpt>
      <trkpt lat="45.33967" lon="4.14655">
        <ele>514</ele>
        <time>2021-04-26T08:13:01Z</time>
      </trkpt>
      <trkpt lat="45.33969" lon="4.14658">
        <ele>514</ele>
        <time>2021-04-26T08:13:02Z</time>
      </trkpt>
      <trkpt lat="45.33971" lon="4.14661">
        <ele>514</ele>
        <time>2021-04-26T08:13:03Z</time>
      </trkpt>
      <trkpt lat="45.33972" lon="4.14663">
        <ele>514</ele>
        <time>2021-04-26T08:13:04Z</time>
      </trkpt>
      <trkpt lat="45.33973" lon="4.14667">
        <ele>515</ele>
        <time>2021-04-26T08:13:05Z</time>
      </trkpt>
      <trkpt lat="45.33974" lon="4.1467">
        <ele>515</ele>
        <time>2021-04-26T08:13:06Z</time>
      </trkpt>
      <trkpt lat="45.33974" lon="4.14673">
        <ele>515</ele>
        <time>2021-04-26T08:13:07Z</time>
      </trkpt>
      <trkpt lat="45.33975" lon="4.14676">
        <ele>515</ele>
        <time>2021-04-26T08:13:08Z</time>
      </trkpt>
      <trkpt lat="45.33974" lon="4.14679">
        <ele>516</ele>
        <time>2021-04-26T08:13:09Z</time>
      </trkpt>
      <trkpt lat="45.33974" lon="4.14682">
        <ele>516</ele>
        <time>2021-04-26T08:13:10Z</time>
      </trkpt>
      <trkpt lat="45.33973" lon="4.14686">
        <ele>517</ele>
        <time>2021-04-26T08:13:11Z</time>
      </trkpt>
      <trkpt lat="45.33973" lon="4.14689">
        <ele>517</ele>
        <time>2021-04-26T08:13:12Z</time>
      </trkpt>
      <trkpt lat="45.33972" lon="4.14692">
        <ele>518</ele>
        <time>2021-04-26T08:13:13Z</time>
      </trkpt>
      <trkpt lat="45.3397" lon="4.14695">
        <ele>518</ele>
        <time>2021-04-26T08:13:14Z</time>
      </trkpt>
      <trkpt lat="45.33969" lon="4.14698">
        <ele>518</ele>
        <time>2021-04-26T08:13:15Z</time>
      </trkpt>
      <trkpt lat="45.33967" lon="4.14701">
        <ele>519</ele>
        <time>2021-04-26T08:13:16Z</time>
      </trkpt>
      <trkpt lat="45.33965" lon="4.14704">
        <ele>519</ele>
        <time>2021-04-26T08:13:17Z</time>
      </trkpt>
      <trkpt lat="45.33962" lon="4.14711">
        <ele>520</ele>
        <time>2021-04-26T08:13:18Z</time>
      </trkpt>
      <trkpt lat="45.33961" lon="4.14714">
        <ele>520</ele>
        <time>2021-04-26T08:13:19Z</time>
      </trkpt>
      <trkpt lat="45.3396" lon="4.14718">
        <ele>521</ele>
        <time>2021-04-26T08:13:20Z</time>
      </trkpt>
      <trkpt lat="45.33959" lon="4.14722">
        <ele>521</ele>
        <time>2021-04-26T08:13:21Z</time>
      </trkpt>
      <trkpt lat="45.33958" lon="4.14726">
        <ele>521</ele>
        <time>2021-04-26T08:13:22Z</time>
      </trkpt>
      <trkpt lat="45.33958" lon="4.1473">
        <ele>522</ele>
        <time>2021-04-26T08:13:23Z</time>
      </trkpt>
      <trkpt lat="45.33957" lon="4.14735">
        <ele>522</ele>
        <time>2021-04-26T08:13:24Z</time>
      </trkpt>
      <trkpt lat="45.33957" lon="4.14739">
        <ele>522</ele>
        <time>2021-04-26T08:13:25Z</time>
      </trkpt>
      <trkpt lat="45.33956" lon="4.14742">
        <ele>522</ele>
        <time>2021-04-26T08:13:26Z</time>
      </trkpt>
      <trkpt lat="45.33956" lon="4.14746">
        <ele>523</ele>
        <time>2021-04-26T08:13:27Z</time>
      </trkpt>
      <trkpt lat="45.33956" lon="4.1475">
        <ele>523</ele>
        <time>2021-04-26T08:13:28Z</time>
      </trkpt>
      <trkpt lat="45.33956" lon="4.14759">
        <ele>523</ele>
        <time>2021-04-26T08:13:30Z</time>
      </trkpt>
      <trkpt lat="45.33957" lon="4.14764">
        <ele>523</ele>
        <time>2021-04-26T08:13:31Z</time>
      </trkpt>
      <trkpt lat="45.33959" lon="4.14768">
        <ele>524</ele>
        <time>2021-04-26T08:13:32Z</time>
      </trkpt>
      <trkpt lat="45.3396" lon="4.14772">
        <ele>524</ele>
        <time>2021-04-26T08:13:33Z</time>
      </trkpt>
      <trkpt lat="45.33962" lon="4.14776">
        <ele>524</ele>
        <time>2021-04-26T08:13:34Z</time>
      </trkpt>
      <trkpt lat="45.33964" lon="4.1478">
        <ele>524</ele>
        <time>2021-04-26T08:13:35Z</time>
      </trkpt>
      <trkpt lat="45.33969" lon="4.14786">
        <ele>525</ele>
        <time>2021-04-26T08:13:37Z</time>
      </trkpt>
      <trkpt lat="45.33971" lon="4.14788">
        <ele>525</ele>
        <time>2021-04-26T08:13:39Z</time>
      </trkpt>
      <trkpt lat="45.33973" lon="4.14789">
        <ele>525</ele>
        <time>2021-04-26T08:13:40Z</time>
      </trkpt>
      <trkpt lat="45.33975" lon="4.1479">
        <ele>525</ele>
        <time>2021-04-26T08:13:41Z</time>
      </trkpt>
      <trkpt lat="45.33978" lon="4.1479">
        <ele>525</ele>
        <time>2021-04-26T08:13:42Z</time>
      </trkpt>
      <trkpt lat="45.33981" lon="4.14791">
        <ele>525</ele>
        <time>2021-04-26T08:13:43Z</time>
      </trkpt>
      <trkpt lat="45.33983" lon="4.14793">
        <ele>525</ele>
        <time>2021-04-26T08:13:44Z</time>
      </trkpt>
      <trkpt lat="45.33985" lon="4.14796">
        <ele>525</ele>
        <time>2021-04-26T08:13:45Z</time>
      </trkpt>
      <trkpt lat="45.33986" lon="4.148">
        <ele>526</ele>
        <time>2021-04-26T08:13:46Z</time>
      </trkpt>
      <trkpt lat="45.33986" lon="4.14803">
        <ele>526</ele>
        <time>2021-04-26T08:13:47Z</time>
      </trkpt>
      <trkpt lat="45.33986" lon="4.14807">
        <ele>526</ele>
        <time>2021-04-26T08:13:48Z</time>
      </trkpt>
      <trkpt lat="45.33986" lon="4.14812">
        <ele>526</ele>
        <time>2021-04-26T08:13:49Z</time>
      </trkpt>
      <trkpt lat="45.33985" lon="4.14817">
        <ele>527</ele>
        <time>2021-04-26T08:13:50Z</time>
      </trkpt>
      <trkpt lat="45.33984" lon="4.14822">
        <ele>527</ele>
        <time>2021-04-26T08:13:51Z</time>
      </trkpt>
      <trkpt lat="45.33983" lon="4.14827">
        <ele>527</ele>
        <time>2021-04-26T08:13:52Z</time>
      </trkpt>
      <trkpt lat="45.33982" lon="4.14833">
        <ele>527</ele>
        <time>2021-04-26T08:13:53Z</time>
      </trkpt>
      <trkpt lat="45.33982" lon="4.14839">
        <ele>527</ele>
        <time>2021-04-26T08:13:54Z</time>
      </trkpt>
      <trkpt lat="45.33981" lon="4.14845">
        <ele>527</ele>
        <time>2021-04-26T08:13:55Z</time>
      </trkpt>
      <trkpt lat="45.33979" lon="4.14857">
        <ele>527</ele>
        <time>2021-04-26T08:13:56Z</time>
      </trkpt>
      <trkpt lat="45.33978" lon="4.14863">
        <ele>527</ele>
        <time>2021-04-26T08:13:57Z</time>
      </trkpt>
      <trkpt lat="45.33978" lon="4.1487">
        <ele>527</ele>
        <time>2021-04-26T08:13:59Z</time>
      </trkpt>
      <trkpt lat="45.33977" lon="4.14884">
        <ele>527</ele>
        <time>2021-04-26T08:14:00Z</time>
      </trkpt>
      <trkpt lat="45.33978" lon="4.1489">
        <ele>527</ele>
        <time>2021-04-26T08:14:01Z</time>
      </trkpt>
      <trkpt lat="45.33979" lon="4.14897">
        <ele>527</ele>
        <time>2021-04-26T08:14:02Z</time>
      </trkpt>
      <trkpt lat="45.33979" lon="4.14904">
        <ele>527</ele>
        <time>2021-04-26T08:14:03Z</time>
      </trkpt>
      <trkpt lat="45.3398" lon="4.14911">
        <ele>527</ele>
        <time>2021-04-26T08:14:04Z</time>
      </trkpt>
      <trkpt lat="45.33981" lon="4.14918">
        <ele>526</ele>
        <time>2021-04-26T08:14:05Z</time>
      </trkpt>
      <trkpt lat="45.33983" lon="4.14925">
        <ele>526</ele>
        <time>2021-04-26T08:14:06Z</time>
      </trkpt>
      <trkpt lat="45.33984" lon="4.14933">
        <ele>526</ele>
        <time>2021-04-26T08:14:07Z</time>
      </trkpt>
      <trkpt lat="45.33985" lon="4.1494">
        <ele>526</ele>
        <time>2021-04-26T08:14:08Z</time>
      </trkpt>
      <trkpt lat="45.33987" lon="4.14956">
        <ele>525</ele>
        <time>2021-04-26T08:14:10Z</time>
      </trkpt>
      <trkpt lat="45.33987" lon="4.14964">
        <ele>525</ele>
        <time>2021-04-26T08:14:11Z</time>
      </trkpt>
      <trkpt lat="45.33988" lon="4.14972">
        <ele>525</ele>
        <time>2021-04-26T08:14:12Z</time>
      </trkpt>
      <trkpt lat="45.33988" lon="4.14981">
        <ele>524</ele>
        <time>2021-04-26T08:14:13Z</time>
      </trkpt>
      <trkpt lat="45.33989" lon="4.14999">
        <ele>524</ele>
        <time>2021-04-26T08:14:15Z</time>
      </trkpt>
      <trkpt lat="45.33989" lon="4.15008">
        <ele>523</ele>
        <time>2021-04-26T08:14:16Z</time>
      </trkpt>
      <trkpt lat="45.3399" lon="4.15027">
        <ele>523</ele>
        <time>2021-04-26T08:14:18Z</time>
      </trkpt>
      <trkpt lat="45.33991" lon="4.15036">
        <ele>522</ele>
        <time>2021-04-26T08:14:19Z</time>
      </trkpt>
      <trkpt lat="45.33992" lon="4.15046">
        <ele>522</ele>
        <time>2021-04-26T08:14:20Z</time>
      </trkpt>
      <trkpt lat="45.33995" lon="4.15055">
        <ele>521</ele>
        <time>2021-04-26T08:14:21Z</time>
      </trkpt>
      <trkpt lat="45.33998" lon="4.15063">
        <ele>521</ele>
        <time>2021-04-26T08:14:22Z</time>
      </trkpt>
      <trkpt lat="45.34003" lon="4.1507">
        <ele>520</ele>
        <time>2021-04-26T08:14:23Z</time>
      </trkpt>
      <trkpt lat="45.34006" lon="4.15077">
        <ele>520</ele>
        <time>2021-04-26T08:14:24Z</time>
      </trkpt>
      <trkpt lat="45.3401" lon="4.15093">
        <ele>518</ele>
        <time>2021-04-26T08:14:26Z</time>
      </trkpt>
      <trkpt lat="45.3401" lon="4.15103">
        <ele>518</ele>
        <time>2021-04-26T08:14:27Z</time>
      </trkpt>
      <trkpt lat="45.34009" lon="4.15112">
        <ele>517</ele>
        <time>2021-04-26T08:14:28Z</time>
      </trkpt>
      <trkpt lat="45.34008" lon="4.15122">
        <ele>517</ele>
        <time>2021-04-26T08:14:29Z</time>
      </trkpt>
      <trkpt lat="45.34008" lon="4.15132">
        <ele>517</ele>
        <time>2021-04-26T08:14:30Z</time>
      </trkpt>
      <trkpt lat="45.34009" lon="4.15143">
        <ele>516</ele>
        <time>2021-04-26T08:14:31Z</time>
      </trkpt>
      <trkpt lat="45.34009" lon="4.15154">
        <ele>515</ele>
        <time>2021-04-26T08:14:33Z</time>
      </trkpt>
      <trkpt lat="45.34011" lon="4.15177">
        <ele>514</ele>
        <time>2021-04-26T08:14:34Z</time>
      </trkpt>
      <trkpt lat="45.34014" lon="4.15187">
        <ele>513</ele>
        <time>2021-04-26T08:14:35Z</time>
      </trkpt>
      <trkpt lat="45.3402" lon="4.15194">
        <ele>512</ele>
        <time>2021-04-26T08:14:36Z</time>
      </trkpt>
      <trkpt lat="45.34026" lon="4.15201">
        <ele>511</ele>
        <time>2021-04-26T08:14:37Z</time>
      </trkpt>
      <trkpt lat="45.34032" lon="4.15208">
        <ele>510</ele>
        <time>2021-04-26T08:14:38Z</time>
      </trkpt>
      <trkpt lat="45.34039" lon="4.15229">
        <ele>509</ele>
        <time>2021-04-26T08:14:40Z</time>
      </trkpt>
      <trkpt lat="45.3404" lon="4.1524">
        <ele>508</ele>
        <time>2021-04-26T08:14:41Z</time>
      </trkpt>
      <trkpt lat="45.34042" lon="4.15251">
        <ele>508</ele>
        <time>2021-04-26T08:14:42Z</time>
      </trkpt>
      <trkpt lat="45.34045" lon="4.15262">
        <ele>507</ele>
        <time>2021-04-26T08:14:43Z</time>
      </trkpt>
      <trkpt lat="45.34047" lon="4.15273">
        <ele>506</ele>
        <time>2021-04-26T08:14:44Z</time>
      </trkpt>
      <trkpt lat="45.34051" lon="4.15295">
        <ele>505</ele>
        <time>2021-04-26T08:14:46Z</time>
      </trkpt>
      <trkpt lat="45.34053" lon="4.15304">
        <ele>504</ele>
        <time>2021-04-26T08:14:47Z</time>
      </trkpt>
      <trkpt lat="45.34054" lon="4.15314">
        <ele>504</ele>
        <time>2021-04-26T08:14:48Z</time>
      </trkpt>
      <trkpt lat="45.34053" lon="4.15323">
        <ele>504</ele>
        <time>2021-04-26T08:14:49Z</time>
      </trkpt>
      <trkpt lat="45.34051" lon="4.15333">
        <ele>503</ele>
        <time>2021-04-26T08:14:50Z</time>
      </trkpt>
      <trkpt lat="45.34047" lon="4.15341">
        <ele>503</ele>
        <time>2021-04-26T08:14:51Z</time>
      </trkpt>
      <trkpt lat="45.3404" lon="4.15359">
        <ele>502</ele>
        <time>2021-04-26T08:14:53Z</time>
      </trkpt>
      <trkpt lat="45.34037" lon="4.15367">
        <ele>502</ele>
        <time>2021-04-26T08:14:54Z</time>
      </trkpt>
      <trkpt lat="45.34034" lon="4.15376">
        <ele>502</ele>
        <time>2021-04-26T08:14:55Z</time>
      </trkpt>
      <trkpt lat="45.34034" lon="4.15385">
        <ele>501</ele>
        <time>2021-04-26T08:14:56Z</time>
      </trkpt>
      <trkpt lat="45.34036" lon="4.15395">
        <ele>500</ele>
        <time>2021-04-26T08:14:57Z</time>
      </trkpt>
      <trkpt lat="45.34038" lon="4.15405">
        <ele>500</ele>
        <time>2021-04-26T08:14:59Z</time>
      </trkpt>
      <trkpt lat="45.34038" lon="4.15415">
        <ele>499</ele>
        <time>2021-04-26T08:15:00Z</time>
      </trkpt>
      <trkpt lat="45.34037" lon="4.15425">
        <ele>498</ele>
        <time>2021-04-26T08:15:01Z</time>
      </trkpt>
      <trkpt lat="45.34034" lon="4.15436">
        <ele>498</ele>
        <time>2021-04-26T08:15:02Z</time>
      </trkpt>
      <trkpt lat="45.34032" lon="4.15446">
        <ele>498</ele>
        <time>2021-04-26T08:15:03Z</time>
      </trkpt>
      <trkpt lat="45.34029" lon="4.15456">
        <ele>497</ele>
        <time>2021-04-26T08:15:04Z</time>
      </trkpt>
      <trkpt lat="45.34026" lon="4.15465">
        <ele>497</ele>
        <time>2021-04-26T08:15:05Z</time>
      </trkpt>
      <trkpt lat="45.34023" lon="4.15474">
        <ele>497</ele>
        <time>2021-04-26T08:15:06Z</time>
      </trkpt>
      <trkpt lat="45.34019" lon="4.15481">
        <ele>497</ele>
        <time>2021-04-26T08:15:07Z</time>
      </trkpt>
      <trkpt lat="45.34015" lon="4.15488">
        <ele>497</ele>
        <time>2021-04-26T08:15:08Z</time>
      </trkpt>
      <trkpt lat="45.34011" lon="4.15496">
        <ele>497</ele>
        <time>2021-04-26T08:15:09Z</time>
      </trkpt>
      <trkpt lat="45.34008" lon="4.15503">
        <ele>497</ele>
        <time>2021-04-26T08:15:10Z</time>
      </trkpt>
      <trkpt lat="45.34004" lon="4.15511">
        <ele>497</ele>
        <time>2021-04-26T08:15:11Z</time>
      </trkpt>
      <trkpt lat="45.34" lon="4.15517">
        <ele>496</ele>
        <time>2021-04-26T08:15:12Z</time>
      </trkpt>
      <trkpt lat="45.33995" lon="4.15524">
        <ele>496</ele>
        <time>2021-04-26T08:15:13Z</time>
      </trkpt>
      <trkpt lat="45.3399" lon="4.1553">
        <ele>496</ele>
        <time>2021-04-26T08:15:14Z</time>
      </trkpt>
      <trkpt lat="45.33985" lon="4.15536">
        <ele>496</ele>
        <time>2021-04-26T08:15:15Z</time>
      </trkpt>
      <trkpt lat="45.3398" lon="4.15542">
        <ele>496</ele>
        <time>2021-04-26T08:15:16Z</time>
      </trkpt>
      <trkpt lat="45.33976" lon="4.15548">
        <ele>496</ele>
        <time>2021-04-26T08:15:17Z</time>
      </trkpt>
      <trkpt lat="45.33971" lon="4.15555">
        <ele>496</ele>
        <time>2021-04-26T08:15:18Z</time>
      </trkpt>
      <trkpt lat="45.33967" lon="4.15561">
        <ele>495</ele>
        <time>2021-04-26T08:15:19Z</time>
      </trkpt>
      <trkpt lat="45.33962" lon="4.15567">
        <ele>495</ele>
        <time>2021-04-26T08:15:20Z</time>
      </trkpt>
      <trkpt lat="45.33958" lon="4.15573">
        <ele>495</ele>
        <time>2021-04-26T08:15:21Z</time>
      </trkpt>
      <trkpt lat="45.33953" lon="4.15579">
        <ele>495</ele>
        <time>2021-04-26T08:15:22Z</time>
      </trkpt>
      <trkpt lat="45.33949" lon="4.15585">
        <ele>495</ele>
        <time>2021-04-26T08:15:23Z</time>
      </trkpt>
      <trkpt lat="45.33945" lon="4.15591">
        <ele>495</ele>
        <time>2021-04-26T08:15:24Z</time>
      </trkpt>
      <trkpt lat="45.3394" lon="4.15597">
        <ele>495</ele>
        <time>2021-04-26T08:15:25Z</time>
      </trkpt>
      <trkpt lat="45.33936" lon="4.15603">
        <ele>495</ele>
        <time>2021-04-26T08:15:26Z</time>
      </trkpt>
      <trkpt lat="45.33932" lon="4.15609">
        <ele>494</ele>
        <time>2021-04-26T08:15:27Z</time>
      </trkpt>
      <trkpt lat="45.33927" lon="4.15616">
        <ele>494</ele>
        <time>2021-04-26T08:15:28Z</time>
      </trkpt>
      <trkpt lat="45.33923" lon="4.15623">
        <ele>494</ele>
        <time>2021-04-26T08:15:29Z</time>
      </trkpt>
      <trkpt lat="45.33919" lon="4.1563">
        <ele>494</ele>
        <time>2021-04-26T08:15:30Z</time>
      </trkpt>
      <trkpt lat="45.33909" lon="4.15639">
        <ele>493</ele>
        <time>2021-04-26T08:15:31Z</time>
      </trkpt>
      <trkpt lat="45.33905" lon="4.15642">
        <ele>493</ele>
        <time>2021-04-26T08:15:32Z</time>
      </trkpt>
      <trkpt lat="45.33903" lon="4.15644">
        <ele>492</ele>
        <time>2021-04-26T08:15:33Z</time>
      </trkpt>
      <trkpt lat="45.33901" lon="4.15647">
        <ele>492</ele>
        <time>2021-04-26T08:15:34Z</time>
      </trkpt>
      <trkpt lat="45.33901" lon="4.15651">
        <ele>491</ele>
        <time>2021-04-26T08:15:36Z</time>
      </trkpt>
      <trkpt lat="45.33899" lon="4.1565">
        <ele>490</ele>
        <time>2021-04-26T08:15:38Z</time>
      </trkpt>
      <trkpt lat="45.33897" lon="4.1565">
        <ele>490</ele>
        <time>2021-04-26T08:15:39Z</time>
      </trkpt>
      <trkpt lat="45.33895" lon="4.15652">
        <ele>490</ele>
        <time>2021-04-26T08:15:40Z</time>
      </trkpt>
      <trkpt lat="45.33895" lon="4.15655">
        <ele>490</ele>
        <time>2021-04-26T08:15:41Z</time>
      </trkpt>
      <trkpt lat="45.33896" lon="4.15659">
        <ele>489</ele>
        <time>2021-04-26T08:15:42Z</time>
      </trkpt>
      <trkpt lat="45.339" lon="4.15662">
        <ele>489</ele>
        <time>2021-04-26T08:15:43Z</time>
      </trkpt>
      <trkpt lat="45.33906" lon="4.15665">
        <ele>489</ele>
        <time>2021-04-26T08:15:44Z</time>
      </trkpt>
      <trkpt lat="45.33913" lon="4.15667">
        <ele>488</ele>
        <time>2021-04-26T08:15:46Z</time>
      </trkpt>
      <trkpt lat="45.33928" lon="4.15671">
        <ele>488</ele>
        <time>2021-04-26T08:15:47Z</time>
      </trkpt>
      <trkpt lat="45.33936" lon="4.15675">
        <ele>488</ele>
        <time>2021-04-26T08:15:49Z</time>
      </trkpt>
      <trkpt lat="45.33952" lon="4.1568">
        <ele>487</ele>
        <time>2021-04-26T08:15:50Z</time>
      </trkpt>
      <trkpt lat="45.33964" lon="4.15686">
        <ele>486</ele>
        <time>2021-04-26T08:15:52Z</time>
      </trkpt>
      <trkpt lat="45.33966" lon="4.15693">
        <ele>486</ele>
        <time>2021-04-26T08:15:53Z</time>
      </trkpt>
      <trkpt lat="45.33966" lon="4.15699">
        <ele>486</ele>
        <time>2021-04-26T08:15:54Z</time>
      </trkpt>
      <trkpt lat="45.33965" lon="4.15705">
        <ele>485</ele>
        <time>2021-04-26T08:15:55Z</time>
      </trkpt>
      <trkpt lat="45.33963" lon="4.15711">
        <ele>485</ele>
        <time>2021-04-26T08:15:56Z</time>
      </trkpt>
      <trkpt lat="45.3396" lon="4.15715">
        <ele>485</ele>
        <time>2021-04-26T08:15:57Z</time>
      </trkpt>
      <trkpt lat="45.33955" lon="4.15722">
        <ele>485</ele>
        <time>2021-04-26T08:15:59Z</time>
      </trkpt>
      <trkpt lat="45.33952" lon="4.15726">
        <ele>485</ele>
        <time>2021-04-26T08:16:00Z</time>
      </trkpt>
      <trkpt lat="45.33948" lon="4.1573">
        <ele>485</ele>
        <time>2021-04-26T08:16:01Z</time>
      </trkpt>
      <trkpt lat="45.3394" lon="4.15736">
        <ele>485</ele>
        <time>2021-04-26T08:16:03Z</time>
      </trkpt>
      <trkpt lat="45.33937" lon="4.15738">
        <ele>485</ele>
        <time>2021-04-26T08:16:04Z</time>
      </trkpt>
      <trkpt lat="45.33933" lon="4.15741">
        <ele>485</ele>
        <time>2021-04-26T08:16:05Z</time>
      </trkpt>
      <trkpt lat="45.33929" lon="4.15744">
        <ele>485</ele>
        <time>2021-04-26T08:16:06Z</time>
      </trkpt>
      <trkpt lat="45.33926" lon="4.15747">
        <ele>485</ele>
        <time>2021-04-26T08:16:07Z</time>
      </trkpt>
      <trkpt lat="45.33918" lon="4.15755">
        <ele>485</ele>
        <time>2021-04-26T08:16:09Z</time>
      </trkpt>
      <trkpt lat="45.33914" lon="4.15759">
        <ele>485</ele>
        <time>2021-04-26T08:16:11Z</time>
      </trkpt>
      <trkpt lat="45.33911" lon="4.15763">
        <ele>485</ele>
        <time>2021-04-26T08:16:12Z</time>
      </trkpt>
      <trkpt lat="45.33908" lon="4.15768">
        <ele>485</ele>
        <time>2021-04-26T08:16:13Z</time>
      </trkpt>
      <trkpt lat="45.33905" lon="4.15772">
        <ele>486</ele>
        <time>2021-04-26T08:16:14Z</time>
      </trkpt>
      <trkpt lat="45.33902" lon="4.15776">
        <ele>486</ele>
        <time>2021-04-26T08:16:15Z</time>
      </trkpt>
      <trkpt lat="45.33897" lon="4.15786">
        <ele>486</ele>
        <time>2021-04-26T08:16:16Z</time>
      </trkpt>
      <trkpt lat="45.33896" lon="4.15791">
        <ele>486</ele>
        <time>2021-04-26T08:16:17Z</time>
      </trkpt>
      <trkpt lat="45.33894" lon="4.15796">
        <ele>486</ele>
        <time>2021-04-26T08:16:18Z</time>
      </trkpt>
      <trkpt lat="45.33894" lon="4.15801">
        <ele>486</ele>
        <time>2021-04-26T08:16:19Z</time>
      </trkpt>
      <trkpt lat="45.33894" lon="4.15806">
        <ele>486</ele>
        <time>2021-04-26T08:16:20Z</time>
      </trkpt>
      <trkpt lat="45.33895" lon="4.15811">
        <ele>486</ele>
        <time>2021-04-26T08:16:21Z</time>
      </trkpt>
      <trkpt lat="45.33895" lon="4.15815">
        <ele>486</ele>
        <time>2021-04-26T08:16:22Z</time>
      </trkpt>
      <trkpt lat="45.33896" lon="4.15819">
        <ele>486</ele>
        <time>2021-04-26T08:16:23Z</time>
      </trkpt>
      <trkpt lat="45.33897" lon="4.15822">
        <ele>486</ele>
        <time>2021-04-26T08:16:24Z</time>
      </trkpt>
      <trkpt lat="45.33898" lon="4.15825">
        <ele>486</ele>
        <time>2021-04-26T08:16:25Z</time>
      </trkpt>
      <trkpt lat="45.33898" lon="4.15827">
        <ele>486</ele>
        <time>2021-04-26T08:16:26Z</time>
      </trkpt>
      <trkpt lat="45.33896" lon="4.15832">
        <ele>486</ele>
        <time>2021-04-26T08:16:28Z</time>
      </trkpt>
      <trkpt lat="45.33893" lon="4.15833">
        <ele>486</ele>
        <time>2021-04-26T08:16:29Z</time>
      </trkpt>
      <trkpt lat="45.33889" lon="4.15832">
        <ele>486</ele>
        <time>2021-04-26T08:16:30Z</time>
      </trkpt>
      <trkpt lat="45.33885" lon="4.15832">
        <ele>486</ele>
        <time>2021-04-26T08:16:31Z</time>
      </trkpt>
      <trkpt lat="45.3388" lon="4.15831">
        <ele>486</ele>
        <time>2021-04-26T08:16:32Z</time>
      </trkpt>
      <trkpt lat="45.33875" lon="4.1583">
        <ele>485</ele>
        <time>2021-04-26T08:16:33Z</time>
      </trkpt>
      <trkpt lat="45.33869" lon="4.15829">
        <ele>485</ele>
        <time>2021-04-26T08:16:34Z</time>
      </trkpt>
      <trkpt lat="45.33863" lon="4.15827">
        <ele>485</ele>
        <time>2021-04-26T08:16:35Z</time>
      </trkpt>
      <trkpt lat="45.33858" lon="4.15826">
        <ele>485</ele>
        <time>2021-04-26T08:16:36Z</time>
      </trkpt>
      <trkpt lat="45.33853" lon="4.15825">
        <ele>484</ele>
        <time>2021-04-26T08:16:37Z</time>
      </trkpt>
      <trkpt lat="45.33849" lon="4.15825">
        <ele>484</ele>
        <time>2021-04-26T08:16:38Z</time>
      </trkpt>
      <trkpt lat="45.33842" lon="4.15831">
        <ele>484</ele>
        <time>2021-04-26T08:16:40Z</time>
      </trkpt>
      <trkpt lat="45.3384" lon="4.15836">
        <ele>484</ele>
        <time>2021-04-26T08:16:41Z</time>
      </trkpt>
      <trkpt lat="45.33838" lon="4.15842">
        <ele>484</ele>
        <time>2021-04-26T08:16:42Z</time>
      </trkpt>
      <trkpt lat="45.33836" lon="4.15849">
        <ele>484</ele>
        <time>2021-04-26T08:16:43Z</time>
      </trkpt>
      <trkpt lat="45.33835" lon="4.15855">
        <ele>484</ele>
        <time>2021-04-26T08:16:44Z</time>
      </trkpt>
      <trkpt lat="45.33834" lon="4.15862">
        <ele>484</ele>
        <time>2021-04-26T08:16:45Z</time>
      </trkpt>
      <trkpt lat="45.33833" lon="4.15876">
        <ele>484</ele>
        <time>2021-04-26T08:16:47Z</time>
      </trkpt>
      <trkpt lat="45.33833" lon="4.15882">
        <ele>484</ele>
        <time>2021-04-26T08:16:49Z</time>
      </trkpt>
      <trkpt lat="45.33834" lon="4.15888">
        <ele>484</ele>
        <time>2021-04-26T08:16:50Z</time>
      </trkpt>
      <trkpt lat="45.33836" lon="4.15893">
        <ele>483</ele>
        <time>2021-04-26T08:16:51Z</time>
      </trkpt>
      <trkpt lat="45.33839" lon="4.15897">
        <ele>483</ele>
        <time>2021-04-26T08:16:52Z</time>
      </trkpt>
      <trkpt lat="45.33843" lon="4.15901">
        <ele>483</ele>
        <time>2021-04-26T08:16:53Z</time>
      </trkpt>
      <trkpt lat="45.33847" lon="4.15904">
        <ele>482</ele>
        <time>2021-04-26T08:16:54Z</time>
      </trkpt>
      <trkpt lat="45.33852" lon="4.15905">
        <ele>482</ele>
        <time>2021-04-26T08:16:55Z</time>
      </trkpt>
      <trkpt lat="45.33857" lon="4.15905">
        <ele>482</ele>
        <time>2021-04-26T08:16:56Z</time>
      </trkpt>
      <trkpt lat="45.33863" lon="4.15908">
        <ele>482</ele>
        <time>2021-04-26T08:16:57Z</time>
      </trkpt>
      <trkpt lat="45.33868" lon="4.15912">
        <ele>482</ele>
        <time>2021-04-26T08:16:58Z</time>
      </trkpt>
      <trkpt lat="45.33872" lon="4.15923">
        <ele>481</ele>
        <time>2021-04-26T08:16:59Z</time>
      </trkpt>
      <trkpt lat="45.33872" lon="4.15928">
        <ele>481</ele>
        <time>2021-04-26T08:17:00Z</time>
      </trkpt>
      <trkpt lat="45.33873" lon="4.15936">
        <ele>481</ele>
        <time>2021-04-26T08:17:02Z</time>
      </trkpt>
      <trkpt lat="45.33873" lon="4.1594">
        <ele>481</ele>
        <time>2021-04-26T08:17:03Z</time>
      </trkpt>
      <trkpt lat="45.33873" lon="4.15944">
        <ele>481</ele>
        <time>2021-04-26T08:17:04Z</time>
      </trkpt>
      <trkpt lat="45.33873" lon="4.15951">
        <ele>482</ele>
        <time>2021-04-26T08:17:06Z</time>
      </trkpt>
      <trkpt lat="45.33873" lon="4.15955">
        <ele>482</ele>
        <time>2021-04-26T08:17:08Z</time>
      </trkpt>
      <trkpt lat="45.33873" lon="4.15959">
        <ele>482</ele>
        <time>2021-04-26T08:17:09Z</time>
      </trkpt>
      <trkpt lat="45.33873" lon="4.15963">
        <ele>482</ele>
        <time>2021-04-26T08:17:10Z</time>
      </trkpt>
      <trkpt lat="45.33873" lon="4.15967">
        <ele>482</ele>
        <time>2021-04-26T08:17:11Z</time>
      </trkpt>
      <trkpt lat="45.33873" lon="4.15971">
        <ele>482</ele>
        <time>2021-04-26T08:17:12Z</time>
      </trkpt>
      <trkpt lat="45.33873" lon="4.15975">
        <ele>483</ele>
        <time>2021-04-26T08:17:13Z</time>
      </trkpt>
      <trkpt lat="45.33873" lon="4.15979">
        <ele>483</ele>
        <time>2021-04-26T08:17:14Z</time>
      </trkpt>
      <trkpt lat="45.33873" lon="4.15983">
        <ele>483</ele>
        <time>2021-04-26T08:17:15Z</time>
      </trkpt>
      <trkpt lat="45.33873" lon="4.15987">
        <ele>483</ele>
        <time>2021-04-26T08:17:16Z</time>
      </trkpt>
      <trkpt lat="45.33873" lon="4.15991">
        <ele>483</ele>
        <time>2021-04-26T08:17:17Z</time>
      </trkpt>
      <trkpt lat="45.33873" lon="4.15995">
        <ele>483</ele>
        <time>2021-04-26T08:17:18Z</time>
      </trkpt>
      <trkpt lat="45.33873" lon="4.15999">
        <ele>484</ele>
        <time>2021-04-26T08:17:19Z</time>
      </trkpt>
      <trkpt lat="45.33873" lon="4.16003">
        <ele>484</ele>
        <time>2021-04-26T08:17:20Z</time>
      </trkpt>
      <trkpt lat="45.33873" lon="4.16007">
        <ele>484</ele>
        <time>2021-04-26T08:17:21Z</time>
      </trkpt>
      <trkpt lat="45.33873" lon="4.16011">
        <ele>485</ele>
        <time>2021-04-26T08:17:22Z</time>
      </trkpt>
      <trkpt lat="45.33873" lon="4.16016">
        <ele>485</ele>
        <time>2021-04-26T08:17:23Z</time>
      </trkpt>
      <trkpt lat="45.33873" lon="4.1602">
        <ele>485</ele>
        <time>2021-04-26T08:17:24Z</time>
      </trkpt>
      <trkpt lat="45.33872" lon="4.16029">
        <ele>485</ele>
        <time>2021-04-26T08:17:25Z</time>
      </trkpt>
      <trkpt lat="45.33872" lon="4.16033">
        <ele>486</ele>
        <time>2021-04-26T08:17:26Z</time>
      </trkpt>
      <trkpt lat="45.33871" lon="4.16038">
        <ele>486</ele>
        <time>2021-04-26T08:17:27Z</time>
      </trkpt>
      <trkpt lat="45.33871" lon="4.16042">
        <ele>486</ele>
        <time>2021-04-26T08:17:28Z</time>
      </trkpt>
      <trkpt lat="45.33871" lon="4.16046">
        <ele>487</ele>
        <time>2021-04-26T08:17:29Z</time>
      </trkpt>
      <trkpt lat="45.33871" lon="4.16051">
        <ele>487</ele>
        <time>2021-04-26T08:17:30Z</time>
      </trkpt>
      <trkpt lat="45.3387" lon="4.16055">
        <ele>487</ele>
        <time>2021-04-26T08:17:31Z</time>
      </trkpt>
      <trkpt lat="45.3387" lon="4.1606">
        <ele>488</ele>
        <time>2021-04-26T08:17:32Z</time>
      </trkpt>
      <trkpt lat="45.3387" lon="4.16064">
        <ele>488</ele>
        <time>2021-04-26T08:17:33Z</time>
      </trkpt>
      <trkpt lat="45.3387" lon="4.16069">
        <ele>488</ele>
        <time>2021-04-26T08:17:34Z</time>
      </trkpt>
      <trkpt lat="45.33869" lon="4.16078">
        <ele>489</ele>
        <time>2021-04-26T08:17:36Z</time>
      </trkpt>
      <trkpt lat="45.33869" lon="4.16083">
        <ele>489</ele>
        <time>2021-04-26T08:17:37Z</time>
      </trkpt>
      <trkpt lat="45.33869" lon="4.16087">
        <ele>489</ele>
        <time>2021-04-26T08:17:38Z</time>
      </trkpt>
      <trkpt lat="45.33869" lon="4.16092">
        <ele>490</ele>
        <time>2021-04-26T08:17:39Z</time>
      </trkpt>
      <trkpt lat="45.33869" lon="4.16097">
        <ele>490</ele>
        <time>2021-04-26T08:17:40Z</time>
      </trkpt>
      <trkpt lat="45.33869" lon="4.16101">
        <ele>490</ele>
        <time>2021-04-26T08:17:41Z</time>
      </trkpt>
      <trkpt lat="45.33868" lon="4.16106">
        <ele>491</ele>
        <time>2021-04-26T08:17:42Z</time>
      </trkpt>
      <trkpt lat="45.33867" lon="4.16116">
        <ele>491</ele>
        <time>2021-04-26T08:17:44Z</time>
      </trkpt>
      <trkpt lat="45.33865" lon="4.1612">
        <ele>491</ele>
        <time>2021-04-26T08:17:46Z</time>
      </trkpt>
      <trkpt lat="45.33863" lon="4.16124">
        <ele>492</ele>
        <time>2021-04-26T08:17:47Z</time>
      </trkpt>
      <trkpt lat="45.3386" lon="4.16127">
        <ele>492</ele>
        <time>2021-04-26T08:17:48Z</time>
      </trkpt>
      <trkpt lat="45.33854" lon="4.16133">
        <ele>492</ele>
        <time>2021-04-26T08:17:49Z</time>
      </trkpt>
      <trkpt lat="45.33851" lon="4.16136">
        <ele>492</ele>
        <time>2021-04-26T08:17:51Z</time>
      </trkpt>
      <trkpt lat="45.33849" lon="4.16139">
        <ele>493</ele>
        <time>2021-04-26T08:17:52Z</time>
      </trkpt>
      <trkpt lat="45.33847" lon="4.16144">
        <ele>493</ele>
        <time>2021-04-26T08:17:53Z</time>
      </trkpt>
      <trkpt lat="45.33845" lon="4.16148">
        <ele>493</ele>
        <time>2021-04-26T08:17:54Z</time>
      </trkpt>
      <trkpt lat="45.33843" lon="4.16153">
        <ele>493</ele>
        <time>2021-04-26T08:17:55Z</time>
      </trkpt>
      <trkpt lat="45.33842" lon="4.16158">
        <ele>493</ele>
        <time>2021-04-26T08:17:56Z</time>
      </trkpt>
      <trkpt lat="45.33842" lon="4.16163">
        <ele>494</ele>
        <time>2021-04-26T08:17:57Z</time>
      </trkpt>
      <trkpt lat="45.33842" lon="4.16168">
        <ele>494</ele>
        <time>2021-04-26T08:17:58Z</time>
      </trkpt>
      <trkpt lat="45.33841" lon="4.16179">
        <ele>494</ele>
        <time>2021-04-26T08:17:59Z</time>
      </trkpt>
      <trkpt lat="45.3384" lon="4.16185">
        <ele>494</ele>
        <time>2021-04-26T08:18:00Z</time>
      </trkpt>
      <trkpt lat="45.3384" lon="4.1619">
        <ele>494</ele>
        <time>2021-04-26T08:18:01Z</time>
      </trkpt>
      <trkpt lat="45.33839" lon="4.16195">
        <ele>495</ele>
        <time>2021-04-26T08:18:03Z</time>
      </trkpt>
      <trkpt lat="45.33838" lon="4.16205">
        <ele>495</ele>
        <time>2021-04-26T08:18:04Z</time>
      </trkpt>
      <trkpt lat="45.33837" lon="4.16211">
        <ele>496</ele>
        <time>2021-04-26T08:18:05Z</time>
      </trkpt>
      <trkpt lat="45.33837" lon="4.16215">
        <ele>496</ele>
        <time>2021-04-26T08:18:06Z</time>
      </trkpt>
      <trkpt lat="45.33836" lon="4.1622">
        <ele>496</ele>
        <time>2021-04-26T08:18:07Z</time>
      </trkpt>
      <trkpt lat="45.33836" lon="4.16225">
        <ele>497</ele>
        <time>2021-04-26T08:18:08Z</time>
      </trkpt>
      <trkpt lat="45.33836" lon="4.1623">
        <ele>497</ele>
        <time>2021-04-26T08:18:09Z</time>
      </trkpt>
      <trkpt lat="45.33835" lon="4.16236">
        <ele>497</ele>
        <time>2021-04-26T08:18:10Z</time>
      </trkpt>
      <trkpt lat="45.33835" lon="4.16241">
        <ele>498</ele>
        <time>2021-04-26T08:18:11Z</time>
      </trkpt>
      <trkpt lat="45.33835" lon="4.16246">
        <ele>498</ele>
        <time>2021-04-26T08:18:12Z</time>
      </trkpt>
      <trkpt lat="45.33834" lon="4.1625">
        <ele>498</ele>
        <time>2021-04-26T08:18:13Z</time>
      </trkpt>
      <trkpt lat="45.33833" lon="4.16255">
        <ele>499</ele>
        <time>2021-04-26T08:18:14Z</time>
      </trkpt>
      <trkpt lat="45.33832" lon="4.1626">
        <ele>499</ele>
        <time>2021-04-26T08:18:15Z</time>
      </trkpt>
      <trkpt lat="45.33832" lon="4.16265">
        <ele>500</ele>
        <time>2021-04-26T08:18:16Z</time>
      </trkpt>
      <trkpt lat="45.33832" lon="4.16275">
        <ele>500</ele>
        <time>2021-04-26T08:18:18Z</time>
      </trkpt>
      <trkpt lat="45.33832" lon="4.16281">
        <ele>501</ele>
        <time>2021-04-26T08:18:19Z</time>
      </trkpt>
      <trkpt lat="45.33831" lon="4.16286">
        <ele>501</ele>
        <time>2021-04-26T08:18:20Z</time>
      </trkpt>
      <trkpt lat="45.3383" lon="4.16296">
        <ele>502</ele>
        <time>2021-04-26T08:18:22Z</time>
      </trkpt>
      <trkpt lat="45.3383" lon="4.16301">
        <ele>502</ele>
        <time>2021-04-26T08:18:24Z</time>
      </trkpt>
      <trkpt lat="45.33829" lon="4.16306">
        <ele>502</ele>
        <time>2021-04-26T08:18:25Z</time>
      </trkpt>
      <trkpt lat="45.33829" lon="4.16311">
        <ele>503</ele>
        <time>2021-04-26T08:18:26Z</time>
      </trkpt>
      <trkpt lat="45.33828" lon="4.16322">
        <ele>503</ele>
        <time>2021-04-26T08:18:27Z</time>
      </trkpt>
      <trkpt lat="45.33827" lon="4.16327">
        <ele>503</ele>
        <time>2021-04-26T08:18:29Z</time>
      </trkpt>
      <trkpt lat="45.33826" lon="4.16333">
        <ele>503</ele>
        <time>2021-04-26T08:18:30Z</time>
      </trkpt>
      <trkpt lat="45.33825" lon="4.16338">
        <ele>503</ele>
        <time>2021-04-26T08:18:31Z</time>
      </trkpt>
      <trkpt lat="45.33825" lon="4.16343">
        <ele>504</ele>
        <time>2021-04-26T08:18:32Z</time>
      </trkpt>
      <trkpt lat="45.33824" lon="4.16348">
        <ele>504</ele>
        <time>2021-04-26T08:18:33Z</time>
      </trkpt>
      <trkpt lat="45.33824" lon="4.16353">
        <ele>504</ele>
        <time>2021-04-26T08:18:34Z</time>
      </trkpt>
      <trkpt lat="45.33823" lon="4.16361">
        <ele>504</ele>
        <time>2021-04-26T08:18:35Z</time>
      </trkpt>
      <trkpt lat="45.33823" lon="4.16365">
        <ele>504</ele>
        <time>2021-04-26T08:18:37Z</time>
      </trkpt>
      <trkpt lat="45.33824" lon="4.16368">
        <ele>504</ele>
        <time>2021-04-26T08:18:38Z</time>
      </trkpt>
      <trkpt lat="45.33825" lon="4.16372">
        <ele>504</ele>
        <time>2021-04-26T08:18:39Z</time>
      </trkpt>
      <trkpt lat="45.33826" lon="4.16375">
        <ele>504</ele>
        <time>2021-04-26T08:18:40Z</time>
      </trkpt>
      <trkpt lat="45.33831" lon="4.16378">
        <ele>504</ele>
        <time>2021-04-26T08:18:41Z</time>
      </trkpt>
      <trkpt lat="45.33833" lon="4.16378">
        <ele>505</ele>
        <time>2021-04-26T08:18:43Z</time>
      </trkpt>
      <trkpt lat="45.33836" lon="4.16377">
        <ele>506</ele>
        <time>2021-04-26T08:18:48Z</time>
      </trkpt>
      <trkpt lat="45.33838" lon="4.16377">
        <ele>506</ele>
        <time>2021-04-26T08:18:50Z</time>
      </trkpt>
      <trkpt lat="45.33842" lon="4.16377">
        <ele>507</ele>
        <time>2021-04-26T08:18:52Z</time>
      </trkpt>
      <trkpt lat="45.33845" lon="4.16377">
        <ele>507</ele>
        <time>2021-04-26T08:18:53Z</time>
      </trkpt>
      <trkpt lat="45.33848" lon="4.16377">
        <ele>507</ele>
        <time>2021-04-26T08:18:54Z</time>
      </trkpt>
      <trkpt lat="45.33853" lon="4.16378">
        <ele>507</ele>
        <time>2021-04-26T08:18:56Z</time>
      </trkpt>
      <trkpt lat="45.33855" lon="4.16377">
        <ele>507</ele>
        <time>2021-04-26T08:18:59Z</time>
      </trkpt>
      <trkpt lat="45.33865" lon="4.16382">
        <ele>508</ele>
        <time>2021-04-26T08:20:34Z</time>
      </trkpt>
      <trkpt lat="45.33868" lon="4.16383">
        <ele>509</ele>
        <time>2021-04-26T08:20:35Z</time>
      </trkpt>
      <trkpt lat="45.33875" lon="4.16386">
        <ele>509</ele>
        <time>2021-04-26T08:20:36Z</time>
      </trkpt>
      <trkpt lat="45.33879" lon="4.16388">
        <ele>509</ele>
        <time>2021-04-26T08:20:37Z</time>
      </trkpt>
      <trkpt lat="45.33883" lon="4.1639">
        <ele>509</ele>
        <time>2021-04-26T08:20:38Z</time>
      </trkpt>
      <trkpt lat="45.33887" lon="4.16391">
        <ele>509</ele>
        <time>2021-04-26T08:20:39Z</time>
      </trkpt>
      <trkpt lat="45.33891" lon="4.16393">
        <ele>510</ele>
        <time>2021-04-26T08:20:40Z</time>
      </trkpt>
      <trkpt lat="45.33896" lon="4.16395">
        <ele>510</ele>
        <time>2021-04-26T08:20:41Z</time>
      </trkpt>
      <trkpt lat="45.339" lon="4.16396">
        <ele>510</ele>
        <time>2021-04-26T08:20:42Z</time>
      </trkpt>
      <trkpt lat="45.33904" lon="4.16397">
        <ele>510</ele>
        <time>2021-04-26T08:20:43Z</time>
      </trkpt>
      <trkpt lat="45.33912" lon="4.16398">
        <ele>511</ele>
        <time>2021-04-26T08:20:45Z</time>
      </trkpt>
      <trkpt lat="45.33916" lon="4.16397">
        <ele>511</ele>
        <time>2021-04-26T08:20:46Z</time>
      </trkpt>
      <trkpt lat="45.33921" lon="4.16397">
        <ele>511</ele>
        <time>2021-04-26T08:20:47Z</time>
      </trkpt>
      <trkpt lat="45.33925" lon="4.16397">
        <ele>512</ele>
        <time>2021-04-26T08:20:48Z</time>
      </trkpt>
      <trkpt lat="45.33929" lon="4.16397">
        <ele>512</ele>
        <time>2021-04-26T08:20:49Z</time>
      </trkpt>
      <trkpt lat="45.33933" lon="4.16398">
        <ele>512</ele>
        <time>2021-04-26T08:20:50Z</time>
      </trkpt>
      <trkpt lat="45.33937" lon="4.16398">
        <ele>513</ele>
        <time>2021-04-26T08:20:51Z</time>
      </trkpt>
      <trkpt lat="45.33942" lon="4.16399">
        <ele>513</ele>
        <time>2021-04-26T08:20:52Z</time>
      </trkpt>
      <trkpt lat="45.3395" lon="4.16399">
        <ele>514</ele>
        <time>2021-04-26T08:20:54Z</time>
      </trkpt>
      <trkpt lat="45.33955" lon="4.16399">
        <ele>514</ele>
        <time>2021-04-26T08:20:56Z</time>
      </trkpt>
      <trkpt lat="45.33959" lon="4.16399">
        <ele>514</ele>
        <time>2021-04-26T08:20:57Z</time>
      </trkpt>
      <trkpt lat="45.33963" lon="4.16398">
        <ele>515</ele>
        <time>2021-04-26T08:20:58Z</time>
      </trkpt>
      <trkpt lat="45.33971" lon="4.16397">
        <ele>515</ele>
        <time>2021-04-26T08:20:59Z</time>
      </trkpt>
      <trkpt lat="45.33975" lon="4.16396">
        <ele>515</ele>
        <time>2021-04-26T08:21:00Z</time>
      </trkpt>
      <trkpt lat="45.33979" lon="4.16394">
        <ele>516</ele>
        <time>2021-04-26T08:21:01Z</time>
      </trkpt>
      <trkpt lat="45.33984" lon="4.16392">
        <ele>516</ele>
        <time>2021-04-26T08:21:02Z</time>
      </trkpt>
      <trkpt lat="45.33988" lon="4.16389">
        <ele>516</ele>
        <time>2021-04-26T08:21:03Z</time>
      </trkpt>
      <trkpt lat="45.33993" lon="4.16386">
        <ele>516</ele>
        <time>2021-04-26T08:21:04Z</time>
      </trkpt>
      <trkpt lat="45.33998" lon="4.16383">
        <ele>517</ele>
        <time>2021-04-26T08:21:05Z</time>
      </trkpt>
      <trkpt lat="45.34002" lon="4.16381">
        <ele>517</ele>
        <time>2021-04-26T08:21:06Z</time>
      </trkpt>
      <trkpt lat="45.34007" lon="4.16378">
        <ele>518</ele>
        <time>2021-04-26T08:21:08Z</time>
      </trkpt>
      <trkpt lat="45.34012" lon="4.16376">
        <ele>518</ele>
        <time>2021-04-26T08:21:09Z</time>
      </trkpt>
      <trkpt lat="45.34017" lon="4.16373">
        <ele>518</ele>
        <time>2021-04-26T08:21:10Z</time>
      </trkpt>
      <trkpt lat="45.34022" lon="4.16371">
        <ele>519</ele>
        <time>2021-04-26T08:21:11Z</time>
      </trkpt>
      <trkpt lat="45.34027" lon="4.16369">
        <ele>519</ele>
        <time>2021-04-26T08:21:12Z</time>
      </trkpt>
      <trkpt lat="45.34036" lon="4.16364">
        <ele>519</ele>
        <time>2021-04-26T08:21:13Z</time>
      </trkpt>
      <trkpt lat="45.34041" lon="4.16361">
        <ele>519</ele>
        <time>2021-04-26T08:21:14Z</time>
      </trkpt>
      <trkpt lat="45.34045" lon="4.16358">
        <ele>519</ele>
        <time>2021-04-26T08:21:15Z</time>
      </trkpt>
      <trkpt lat="45.3405" lon="4.16356">
        <ele>519</ele>
        <time>2021-04-26T08:21:16Z</time>
      </trkpt>
      <trkpt lat="45.34058" lon="4.16351">
        <ele>520</ele>
        <time>2021-04-26T08:21:18Z</time>
      </trkpt>
      <trkpt lat="45.34062" lon="4.16349">
        <ele>520</ele>
        <time>2021-04-26T08:21:19Z</time>
      </trkpt>
      <trkpt lat="45.34067" lon="4.16347">
        <ele>521</ele>
        <time>2021-04-26T08:21:20Z</time>
      </trkpt>
      <trkpt lat="45.34071" lon="4.16345">
        <ele>521</ele>
        <time>2021-04-26T08:21:21Z</time>
      </trkpt>
      <trkpt lat="45.34075" lon="4.16344">
        <ele>521</ele>
        <time>2021-04-26T08:21:22Z</time>
      </trkpt>
      <trkpt lat="45.3408" lon="4.16344">
        <ele>522</ele>
        <time>2021-04-26T08:21:23Z</time>
      </trkpt>
      <trkpt lat="45.34084" lon="4.16344">
        <ele>522</ele>
        <time>2021-04-26T08:21:24Z</time>
      </trkpt>
      <trkpt lat="45.34088" lon="4.16345">
        <ele>522</ele>
        <time>2021-04-26T08:21:25Z</time>
      </trkpt>
      <trkpt lat="45.34092" lon="4.16346">
        <ele>523</ele>
        <time>2021-04-26T08:21:26Z</time>
      </trkpt>
      <trkpt lat="45.34097" lon="4.16346">
        <ele>523</ele>
        <time>2021-04-26T08:21:27Z</time>
      </trkpt>
      <trkpt lat="45.34102" lon="4.16347">
        <ele>524</ele>
        <time>2021-04-26T08:21:28Z</time>
      </trkpt>
      <trkpt lat="45.3411" lon="4.16347">
        <ele>524</ele>
        <time>2021-04-26T08:21:30Z</time>
      </trkpt>
      <trkpt lat="45.34119" lon="4.16346">
        <ele>525</ele>
        <time>2021-04-26T08:21:32Z</time>
      </trkpt>
      <trkpt lat="45.34124" lon="4.16346">
        <ele>525</ele>
        <time>2021-04-26T08:21:33Z</time>
      </trkpt>
      <trkpt lat="45.34129" lon="4.16345">
        <ele>525</ele>
        <time>2021-04-26T08:21:34Z</time>
      </trkpt>
      <trkpt lat="45.34135" lon="4.16345">
        <ele>525</ele>
        <time>2021-04-26T08:21:35Z</time>
      </trkpt>
      <trkpt lat="45.34141" lon="4.16344">
        <ele>525</ele>
        <time>2021-04-26T08:21:36Z</time>
      </trkpt>
      <trkpt lat="45.34147" lon="4.16342">
        <ele>526</ele>
        <time>2021-04-26T08:21:37Z</time>
      </trkpt>
      <trkpt lat="45.34157" lon="4.16339">
        <ele>526</ele>
        <time>2021-04-26T08:21:39Z</time>
      </trkpt>
      <trkpt lat="45.34162" lon="4.16338">
        <ele>526</ele>
        <time>2021-04-26T08:21:40Z</time>
      </trkpt>
      <trkpt lat="45.34166" lon="4.16337">
        <ele>526</ele>
        <time>2021-04-26T08:21:41Z</time>
      </trkpt>
      <trkpt lat="45.34171" lon="4.16337">
        <ele>526</ele>
        <time>2021-04-26T08:21:42Z</time>
      </trkpt>
      <trkpt lat="45.34176" lon="4.16336">
        <ele>527</ele>
        <time>2021-04-26T08:21:43Z</time>
      </trkpt>
      <trkpt lat="45.34181" lon="4.16335">
        <ele>527</ele>
        <time>2021-04-26T08:21:44Z</time>
      </trkpt>
      <trkpt lat="45.34185" lon="4.16335">
        <ele>527</ele>
        <time>2021-04-26T08:21:45Z</time>
      </trkpt>
      <trkpt lat="45.3419" lon="4.16335">
        <ele>527</ele>
        <time>2021-04-26T08:21:46Z</time>
      </trkpt>
      <trkpt lat="45.34195" lon="4.16335">
        <ele>527</ele>
        <time>2021-04-26T08:21:47Z</time>
      </trkpt>
      <trkpt lat="45.342" lon="4.16334">
        <ele>527</ele>
        <time>2021-04-26T08:21:48Z</time>
      </trkpt>
      <trkpt lat="45.34205" lon="4.16334">
        <ele>527</ele>
        <time>2021-04-26T08:21:50Z</time>
      </trkpt>
      <trkpt lat="45.34214" lon="4.16331">
        <ele>528</ele>
        <time>2021-04-26T08:21:51Z</time>
      </trkpt>
      <trkpt lat="45.34219" lon="4.1633">
        <ele>528</ele>
        <time>2021-04-26T08:21:53Z</time>
      </trkpt>
      <trkpt lat="45.34224" lon="4.16328">
        <ele>528</ele>
        <time>2021-04-26T08:21:54Z</time>
      </trkpt>
      <trkpt lat="45.3423" lon="4.16326">
        <ele>528</ele>
        <time>2021-04-26T08:21:55Z</time>
      </trkpt>
      <trkpt lat="45.34235" lon="4.16324">
        <ele>528</ele>
        <time>2021-04-26T08:21:56Z</time>
      </trkpt>
      <trkpt lat="45.3424" lon="4.16321">
        <ele>528</ele>
        <time>2021-04-26T08:21:57Z</time>
      </trkpt>
      <trkpt lat="45.34244" lon="4.16319">
        <ele>528</ele>
        <time>2021-04-26T08:21:58Z</time>
      </trkpt>
      <trkpt lat="45.34249" lon="4.16317">
        <ele>528</ele>
        <time>2021-04-26T08:21:59Z</time>
      </trkpt>
      <trkpt lat="45.34253" lon="4.16315">
        <ele>528</ele>
        <time>2021-04-26T08:22:00Z</time>
      </trkpt>
      <trkpt lat="45.34257" lon="4.16312">
        <ele>528</ele>
        <time>2021-04-26T08:22:01Z</time>
      </trkpt>
      <trkpt lat="45.34261" lon="4.1631">
        <ele>528</ele>
        <time>2021-04-26T08:22:02Z</time>
      </trkpt>
      <trkpt lat="45.34266" lon="4.16307">
        <ele>528</ele>
        <time>2021-04-26T08:22:03Z</time>
      </trkpt>
      <trkpt lat="45.3427" lon="4.16305">
        <ele>529</ele>
        <time>2021-04-26T08:22:04Z</time>
      </trkpt>
      <trkpt lat="45.34275" lon="4.16302">
        <ele>529</ele>
        <time>2021-04-26T08:22:05Z</time>
      </trkpt>
      <trkpt lat="45.34279" lon="4.163">
        <ele>529</ele>
        <time>2021-04-26T08:22:06Z</time>
      </trkpt>
      <trkpt lat="45.34283" lon="4.16297">
        <ele>529</ele>
        <time>2021-04-26T08:22:07Z</time>
      </trkpt>
      <trkpt lat="45.34288" lon="4.16293">
        <ele>529</ele>
        <time>2021-04-26T08:22:08Z</time>
      </trkpt>
      <trkpt lat="45.34292" lon="4.16289">
        <ele>529</ele>
        <time>2021-04-26T08:22:09Z</time>
      </trkpt>
      <trkpt lat="45.34301" lon="4.1628">
        <ele>529</ele>
        <time>2021-04-26T08:22:10Z</time>
      </trkpt>
      <trkpt lat="45.34305" lon="4.16275">
        <ele>528</ele>
        <time>2021-04-26T08:22:11Z</time>
      </trkpt>
      <trkpt lat="45.34309" lon="4.16269">
        <ele>528</ele>
        <time>2021-04-26T08:22:12Z</time>
      </trkpt>
      <trkpt lat="45.34313" lon="4.16264">
        <ele>528</ele>
        <time>2021-04-26T08:22:13Z</time>
      </trkpt>
      <trkpt lat="45.34317" lon="4.16258">
        <ele>528</ele>
        <time>2021-04-26T08:22:14Z</time>
      </trkpt>
      <trkpt lat="45.34321" lon="4.16253">
        <ele>528</ele>
        <time>2021-04-26T08:22:15Z</time>
      </trkpt>
      <trkpt lat="45.34325" lon="4.16247">
        <ele>528</ele>
        <time>2021-04-26T08:22:16Z</time>
      </trkpt>
      <trkpt lat="45.34328" lon="4.16241">
        <ele>528</ele>
        <time>2021-04-26T08:22:17Z</time>
      </trkpt>
      <trkpt lat="45.34336" lon="4.1623">
        <ele>528</ele>
        <time>2021-04-26T08:22:19Z</time>
      </trkpt>
      <trkpt lat="45.3434" lon="4.16225">
        <ele>528</ele>
        <time>2021-04-26T08:22:20Z</time>
      </trkpt>
      <trkpt lat="45.34345" lon="4.1622">
        <ele>527</ele>
        <time>2021-04-26T08:22:21Z</time>
      </trkpt>
      <trkpt lat="45.34349" lon="4.16216">
        <ele>527</ele>
        <time>2021-04-26T08:22:22Z</time>
      </trkpt>
      <trkpt lat="45.34354" lon="4.16211">
        <ele>527</ele>
        <time>2021-04-26T08:22:23Z</time>
      </trkpt>
      <trkpt lat="45.34359" lon="4.16208">
        <ele>527</ele>
        <time>2021-04-26T08:22:24Z</time>
      </trkpt>
      <trkpt lat="45.34364" lon="4.16204">
        <ele>527</ele>
        <time>2021-04-26T08:22:25Z</time>
      </trkpt>
      <trkpt lat="45.34368" lon="4.162">
        <ele>527</ele>
        <time>2021-04-26T08:22:26Z</time>
      </trkpt>
      <trkpt lat="45.34373" lon="4.16197">
        <ele>527</ele>
        <time>2021-04-26T08:22:28Z</time>
      </trkpt>
      <trkpt lat="45.34383" lon="4.16189">
        <ele>527</ele>
        <time>2021-04-26T08:22:29Z</time>
      </trkpt>
      <trkpt lat="45.34387" lon="4.16186">
        <ele>527</ele>
        <time>2021-04-26T08:22:31Z</time>
      </trkpt>
      <trkpt lat="45.34391" lon="4.16182">
        <ele>527</ele>
        <time>2021-04-26T08:22:32Z</time>
      </trkpt>
      <trkpt lat="45.34396" lon="4.16179">
        <ele>527</ele>
        <time>2021-04-26T08:22:33Z</time>
      </trkpt>
      <trkpt lat="45.344" lon="4.16176">
        <ele>527</ele>
        <time>2021-04-26T08:22:34Z</time>
      </trkpt>
      <trkpt lat="45.34404" lon="4.16173">
        <ele>528</ele>
        <time>2021-04-26T08:22:35Z</time>
      </trkpt>
      <trkpt lat="45.34408" lon="4.1617">
        <ele>528</ele>
        <time>2021-04-26T08:22:36Z</time>
      </trkpt>
      <trkpt lat="45.34412" lon="4.16168">
        <ele>528</ele>
        <time>2021-04-26T08:22:37Z</time>
      </trkpt>
      <trkpt lat="45.34416" lon="4.16166">
        <ele>528</ele>
        <time>2021-04-26T08:22:38Z</time>
      </trkpt>
      <trkpt lat="45.34421" lon="4.16163">
        <ele>528</ele>
        <time>2021-04-26T08:22:39Z</time>
      </trkpt>
      <trkpt lat="45.34425" lon="4.1616">
        <ele>528</ele>
        <time>2021-04-26T08:22:40Z</time>
      </trkpt>
      <trkpt lat="45.3443" lon="4.16158">
        <ele>528</ele>
        <time>2021-04-26T08:22:41Z</time>
      </trkpt>
      <trkpt lat="45.34435" lon="4.16155">
        <ele>528</ele>
        <time>2021-04-26T08:22:42Z</time>
      </trkpt>
      <trkpt lat="45.3444" lon="4.16152">
        <ele>528</ele>
        <time>2021-04-26T08:22:43Z</time>
      </trkpt>
      <trkpt lat="45.34445" lon="4.16149">
        <ele>528</ele>
        <time>2021-04-26T08:22:44Z</time>
      </trkpt>
      <trkpt lat="45.3445" lon="4.16147">
        <ele>529</ele>
        <time>2021-04-26T08:22:45Z</time>
      </trkpt>
      <trkpt lat="45.34455" lon="4.16144">
        <ele>529</ele>
        <time>2021-04-26T08:22:46Z</time>
      </trkpt>
      <trkpt lat="45.3446" lon="4.16141">
        <ele>529</ele>
        <time>2021-04-26T08:22:47Z</time>
      </trkpt>
      <trkpt lat="45.3447" lon="4.16135">
        <ele>529</ele>
        <time>2021-04-26T08:22:48Z</time>
      </trkpt>
      <trkpt lat="45.34475" lon="4.16133">
        <ele>529</ele>
        <time>2021-04-26T08:22:49Z</time>
      </trkpt>
      <trkpt lat="45.34479" lon="4.1613">
        <ele>530</ele>
        <time>2021-04-26T08:22:50Z</time>
      </trkpt>
      <trkpt lat="45.34484" lon="4.16127">
        <ele>530</ele>
        <time>2021-04-26T08:22:51Z</time>
      </trkpt>
      <trkpt lat="45.34489" lon="4.16124">
        <ele>530</ele>
        <time>2021-04-26T08:22:52Z</time>
      </trkpt>
      <trkpt lat="45.34494" lon="4.16122">
        <ele>530</ele>
        <time>2021-04-26T08:22:53Z</time>
      </trkpt>
      <trkpt lat="45.34499" lon="4.16119">
        <ele>530</ele>
        <time>2021-04-26T08:22:54Z</time>
      </trkpt>
      <trkpt lat="45.34504" lon="4.16116">
        <ele>531</ele>
        <time>2021-04-26T08:22:55Z</time>
      </trkpt>
      <trkpt lat="45.34508" lon="4.16113">
        <ele>531</ele>
        <time>2021-04-26T08:22:56Z</time>
      </trkpt>
      <trkpt lat="45.34512" lon="4.16111">
        <ele>532</ele>
        <time>2021-04-26T08:22:58Z</time>
      </trkpt>
      <trkpt lat="45.34522" lon="4.16106">
        <ele>532</ele>
        <time>2021-04-26T08:22:59Z</time>
      </trkpt>
      <trkpt lat="45.34527" lon="4.16104">
        <ele>533</ele>
        <time>2021-04-26T08:23:01Z</time>
      </trkpt>
      <trkpt lat="45.34533" lon="4.16102">
        <ele>533</ele>
        <time>2021-04-26T08:23:02Z</time>
      </trkpt>
      <trkpt lat="45.34539" lon="4.16099">
        <ele>533</ele>
        <time>2021-04-26T08:23:03Z</time>
      </trkpt>
      <trkpt lat="45.34544" lon="4.16097">
        <ele>533</ele>
        <time>2021-04-26T08:23:04Z</time>
      </trkpt>
      <trkpt lat="45.3455" lon="4.16095">
        <ele>533</ele>
        <time>2021-04-26T08:23:05Z</time>
      </trkpt>
      <trkpt lat="45.34556" lon="4.16093">
        <ele>533</ele>
        <time>2021-04-26T08:23:06Z</time>
      </trkpt>
      <trkpt lat="45.34562" lon="4.16091">
        <ele>534</ele>
        <time>2021-04-26T08:23:07Z</time>
      </trkpt>
      <trkpt lat="45.34567" lon="4.1609">
        <ele>534</ele>
        <time>2021-04-26T08:23:08Z</time>
      </trkpt>
      <trkpt lat="45.34572" lon="4.16088">
        <ele>534</ele>
        <time>2021-04-26T08:23:09Z</time>
      </trkpt>
      <trkpt lat="45.34577" lon="4.16087">
        <ele>534</ele>
        <time>2021-04-26T08:23:10Z</time>
      </trkpt>
      <trkpt lat="45.34582" lon="4.16086">
        <ele>534</ele>
        <time>2021-04-26T08:23:11Z</time>
      </trkpt>
      <trkpt lat="45.34589" lon="4.16085">
        <ele>534</ele>
        <time>2021-04-26T08:23:12Z</time>
      </trkpt>
      <trkpt lat="45.34595" lon="4.16084">
        <ele>534</ele>
        <time>2021-04-26T08:23:13Z</time>
      </trkpt>
      <trkpt lat="45.34601" lon="4.16083">
        <ele>534</ele>
        <time>2021-04-26T08:23:14Z</time>
      </trkpt>
      <trkpt lat="45.34607" lon="4.16083">
        <ele>534</ele>
        <time>2021-04-26T08:23:15Z</time>
      </trkpt>
      <trkpt lat="45.34613" lon="4.16082">
        <ele>534</ele>
        <time>2021-04-26T08:23:16Z</time>
      </trkpt>
      <trkpt lat="45.34618" lon="4.16081">
        <ele>534</ele>
        <time>2021-04-26T08:23:17Z</time>
      </trkpt>
      <trkpt lat="45.34625" lon="4.16081">
        <ele>534</ele>
        <time>2021-04-26T08:23:18Z</time>
      </trkpt>
      <trkpt lat="45.34631" lon="4.16081">
        <ele>535</ele>
        <time>2021-04-26T08:23:19Z</time>
      </trkpt>
      <trkpt lat="45.34639" lon="4.16081">
        <ele>534</ele>
        <time>2021-04-26T08:23:20Z</time>
      </trkpt>
      <trkpt lat="45.34646" lon="4.16081">
        <ele>534</ele>
        <time>2021-04-26T08:23:21Z</time>
      </trkpt>
      <trkpt lat="45.34652" lon="4.16082">
        <ele>534</ele>
        <time>2021-04-26T08:23:22Z</time>
      </trkpt>
      <trkpt lat="45.34659" lon="4.16082">
        <ele>534</ele>
        <time>2021-04-26T08:23:23Z</time>
      </trkpt>
      <trkpt lat="45.34664" lon="4.16083">
        <ele>534</ele>
        <time>2021-04-26T08:23:24Z</time>
      </trkpt>
      <trkpt lat="45.34671" lon="4.16084">
        <ele>534</ele>
        <time>2021-04-26T08:23:25Z</time>
      </trkpt>
      <trkpt lat="45.34677" lon="4.16085">
        <ele>534</ele>
        <time>2021-04-26T08:23:26Z</time>
      </trkpt>
      <trkpt lat="45.34684" lon="4.16087">
        <ele>533</ele>
        <time>2021-04-26T08:23:27Z</time>
      </trkpt>
      <trkpt lat="45.3469" lon="4.16088">
        <ele>533</ele>
        <time>2021-04-26T08:23:28Z</time>
      </trkpt>
      <trkpt lat="45.34696" lon="4.16089">
        <ele>533</ele>
        <time>2021-04-26T08:23:29Z</time>
      </trkpt>
      <trkpt lat="45.34703" lon="4.1609">
        <ele>533</ele>
        <time>2021-04-26T08:23:30Z</time>
      </trkpt>
      <trkpt lat="45.34709" lon="4.1609">
        <ele>532</ele>
        <time>2021-04-26T08:23:31Z</time>
      </trkpt>
      <trkpt lat="45.34715" lon="4.16091">
        <ele>532</ele>
        <time>2021-04-26T08:23:32Z</time>
      </trkpt>
      <trkpt lat="45.34722" lon="4.16092">
        <ele>532</ele>
        <time>2021-04-26T08:23:33Z</time>
      </trkpt>
      <trkpt lat="45.34728" lon="4.16093">
        <ele>532</ele>
        <time>2021-04-26T08:23:34Z</time>
      </trkpt>
      <trkpt lat="45.34734" lon="4.16094">
        <ele>532</ele>
        <time>2021-04-26T08:23:35Z</time>
      </trkpt>
      <trkpt lat="45.3474" lon="4.16094">
        <ele>531</ele>
        <time>2021-04-26T08:23:36Z</time>
      </trkpt>
      <trkpt lat="45.34746" lon="4.16095">
        <ele>531</ele>
        <time>2021-04-26T08:23:37Z</time>
      </trkpt>
      <trkpt lat="45.34752" lon="4.16096">
        <ele>531</ele>
        <time>2021-04-26T08:23:38Z</time>
      </trkpt>
      <trkpt lat="45.34764" lon="4.16098">
        <ele>531</ele>
        <time>2021-04-26T08:23:39Z</time>
      </trkpt>
      <trkpt lat="45.3477" lon="4.161">
        <ele>530</ele>
        <time>2021-04-26T08:23:41Z</time>
      </trkpt>
      <trkpt lat="45.34777" lon="4.16103">
        <ele>530</ele>
        <time>2021-04-26T08:23:42Z</time>
      </trkpt>
      <trkpt lat="45.34783" lon="4.16106">
        <ele>530</ele>
        <time>2021-04-26T08:23:43Z</time>
      </trkpt>
      <trkpt lat="45.34788" lon="4.1611">
        <ele>530</ele>
        <time>2021-04-26T08:23:44Z</time>
      </trkpt>
      <trkpt lat="45.34799" lon="4.16119">
        <ele>530</ele>
        <time>2021-04-26T08:23:45Z</time>
      </trkpt>
      <trkpt lat="45.34809" lon="4.16129">
        <ele>531</ele>
        <time>2021-04-26T08:23:47Z</time>
      </trkpt>
      <trkpt lat="45.34814" lon="4.16133">
        <ele>531</ele>
        <time>2021-04-26T08:23:48Z</time>
      </trkpt>
      <trkpt lat="45.34819" lon="4.16138">
        <ele>531</ele>
        <time>2021-04-26T08:23:49Z</time>
      </trkpt>
      <trkpt lat="45.34824" lon="4.16143">
        <ele>531</ele>
        <time>2021-04-26T08:23:50Z</time>
      </trkpt>
      <trkpt lat="45.34829" lon="4.16147">
        <ele>531</ele>
        <time>2021-04-26T08:23:51Z</time>
      </trkpt>
      <trkpt lat="45.34834" lon="4.16152">
        <ele>531</ele>
        <time>2021-04-26T08:23:52Z</time>
      </trkpt>
      <trkpt lat="45.34839" lon="4.16156">
        <ele>531</ele>
        <time>2021-04-26T08:23:53Z</time>
      </trkpt>
      <trkpt lat="45.34848" lon="4.16164">
        <ele>531</ele>
        <time>2021-04-26T08:23:55Z</time>
      </trkpt>
      <trkpt lat="45.34853" lon="4.16167">
        <ele>531</ele>
        <time>2021-04-26T08:23:56Z</time>
      </trkpt>
      <trkpt lat="45.34858" lon="4.16169">
        <ele>531</ele>
        <time>2021-04-26T08:23:57Z</time>
      </trkpt>
      <trkpt lat="45.34867" lon="4.16172">
        <ele>531</ele>
        <time>2021-04-26T08:23:59Z</time>
      </trkpt>
      <trkpt lat="45.34872" lon="4.16172">
        <ele>531</ele>
        <time>2021-04-26T08:24:00Z</time>
      </trkpt>
      <trkpt lat="45.34878" lon="4.16172">
        <ele>531</ele>
        <time>2021-04-26T08:24:01Z</time>
      </trkpt>
      <trkpt lat="45.34883" lon="4.16172">
        <ele>531</ele>
        <time>2021-04-26T08:24:02Z</time>
      </trkpt>
      <trkpt lat="45.34889" lon="4.16173">
        <ele>531</ele>
        <time>2021-04-26T08:24:04Z</time>
      </trkpt>
      <trkpt lat="45.34895" lon="4.16174">
        <ele>530</ele>
        <time>2021-04-26T08:24:05Z</time>
      </trkpt>
      <trkpt lat="45.349" lon="4.16178">
        <ele>529</ele>
        <time>2021-04-26T08:24:06Z</time>
      </trkpt>
      <trkpt lat="45.34906" lon="4.16183">
        <ele>529</ele>
        <time>2021-04-26T08:24:07Z</time>
      </trkpt>
      <trkpt lat="45.34912" lon="4.16185">
        <ele>528</ele>
        <time>2021-04-26T08:24:08Z</time>
      </trkpt>
      <trkpt lat="45.34919" lon="4.16186">
        <ele>527</ele>
        <time>2021-04-26T08:24:09Z</time>
      </trkpt>
      <trkpt lat="45.34926" lon="4.16187">
        <ele>527</ele>
        <time>2021-04-26T08:24:10Z</time>
      </trkpt>
      <trkpt lat="45.34935" lon="4.16186">
        <ele>526</ele>
        <time>2021-04-26T08:24:11Z</time>
      </trkpt>
      <trkpt lat="45.34943" lon="4.16185">
        <ele>526</ele>
        <time>2021-04-26T08:24:12Z</time>
      </trkpt>
      <trkpt lat="45.34952" lon="4.16184">
        <ele>525</ele>
        <time>2021-04-26T08:24:13Z</time>
      </trkpt>
      <trkpt lat="45.34962" lon="4.16183">
        <ele>524</ele>
        <time>2021-04-26T08:24:14Z</time>
      </trkpt>
      <trkpt lat="45.34973" lon="4.16184">
        <ele>524</ele>
        <time>2021-04-26T08:24:15Z</time>
      </trkpt>
      <trkpt lat="45.34984" lon="4.16185">
        <ele>523</ele>
        <time>2021-04-26T08:24:16Z</time>
      </trkpt>
      <trkpt lat="45.34996" lon="4.16188">
        <ele>523</ele>
        <time>2021-04-26T08:24:17Z</time>
      </trkpt>
      <trkpt lat="45.3502" lon="4.16193">
        <ele>521</ele>
        <time>2021-04-26T08:24:18Z</time>
      </trkpt>
      <trkpt lat="45.35031" lon="4.16197">
        <ele>521</ele>
        <time>2021-04-26T08:24:19Z</time>
      </trkpt>
      <trkpt lat="45.35042" lon="4.16203">
        <ele>520</ele>
        <time>2021-04-26T08:24:20Z</time>
      </trkpt>
      <trkpt lat="45.35052" lon="4.16209">
        <ele>518</ele>
        <time>2021-04-26T08:24:22Z</time>
      </trkpt>
      <trkpt lat="45.3506" lon="4.16216">
        <ele>516</ele>
        <time>2021-04-26T08:24:23Z</time>
      </trkpt>
      <trkpt lat="45.35067" lon="4.1622">
        <ele>515</ele>
        <time>2021-04-26T08:24:24Z</time>
      </trkpt>
      <trkpt lat="45.35074" lon="4.16222">
        <ele>514</ele>
        <time>2021-04-26T08:24:25Z</time>
      </trkpt>
      <trkpt lat="45.35084" lon="4.1623">
        <ele>514</ele>
        <time>2021-04-26T08:24:27Z</time>
      </trkpt>
      <trkpt lat="45.35086" lon="4.16237">
        <ele>512</ele>
        <time>2021-04-26T08:24:28Z</time>
      </trkpt>
      <trkpt lat="45.35088" lon="4.16245">
        <ele>512</ele>
        <time>2021-04-26T08:24:29Z</time>
      </trkpt>
      <trkpt lat="45.35092" lon="4.16252">
        <ele>512</ele>
        <time>2021-04-26T08:24:30Z</time>
      </trkpt>
      <trkpt lat="45.35097" lon="4.16257">
        <ele>512</ele>
        <time>2021-04-26T08:24:31Z</time>
      </trkpt>
      <trkpt lat="45.35105" lon="4.16261">
        <ele>512</ele>
        <time>2021-04-26T08:24:32Z</time>
      </trkpt>
      <trkpt lat="45.35112" lon="4.16264">
        <ele>511</ele>
        <time>2021-04-26T08:24:33Z</time>
      </trkpt>
      <trkpt lat="45.35118" lon="4.16264">
        <ele>511</ele>
        <time>2021-04-26T08:24:34Z</time>
      </trkpt>
      <trkpt lat="45.35121" lon="4.1626">
        <ele>510</ele>
        <time>2021-04-26T08:24:35Z</time>
      </trkpt>
      <trkpt lat="45.35124" lon="4.16257">
        <ele>510</ele>
        <time>2021-04-26T08:24:36Z</time>
      </trkpt>
      <trkpt lat="45.35127" lon="4.16254">
        <ele>510</ele>
        <time>2021-04-26T08:24:37Z</time>
      </trkpt>
      <trkpt lat="45.35129" lon="4.16251">
        <ele>509</ele>
        <time>2021-04-26T08:24:38Z</time>
      </trkpt>
      <trkpt lat="45.35132" lon="4.16248">
        <ele>509</ele>
        <time>2021-04-26T08:24:39Z</time>
      </trkpt>
      <trkpt lat="45.35133" lon="4.16245">
        <ele>509</ele>
        <time>2021-04-26T08:24:40Z</time>
      </trkpt>
      <trkpt lat="45.35135" lon="4.16243">
        <ele>509</ele>
        <time>2021-04-26T08:24:41Z</time>
      </trkpt>
      <trkpt lat="45.3514" lon="4.16236">
        <ele>509</ele>
        <time>2021-04-26T08:24:42Z</time>
      </trkpt>
      <trkpt lat="45.35142" lon="4.16233">
        <ele>508</ele>
        <time>2021-04-26T08:24:43Z</time>
      </trkpt>
      <trkpt lat="45.35143" lon="4.1623">
        <ele>508</ele>
        <time>2021-04-26T08:24:44Z</time>
      </trkpt>
      <trkpt lat="45.35145" lon="4.16226">
        <ele>508</ele>
        <time>2021-04-26T08:24:45Z</time>
      </trkpt>
      <trkpt lat="45.35148" lon="4.16222">
        <ele>508</ele>
        <time>2021-04-26T08:24:46Z</time>
      </trkpt>
      <trkpt lat="45.35151" lon="4.16218">
        <ele>508</ele>
        <time>2021-04-26T08:24:47Z</time>
      </trkpt>
      <trkpt lat="45.35153" lon="4.16213">
        <ele>508</ele>
        <time>2021-04-26T08:24:48Z</time>
      </trkpt>
      <trkpt lat="45.35158" lon="4.16205">
        <ele>507</ele>
        <time>2021-04-26T08:24:50Z</time>
      </trkpt>
      <trkpt lat="45.3516" lon="4.16205">
        <ele>507</ele>
        <time>2021-04-26T08:24:51Z</time>
      </trkpt>
      <trkpt lat="45.35161" lon="4.16208">
        <ele>507</ele>
        <time>2021-04-26T08:24:52Z</time>
      </trkpt>
      <trkpt lat="45.35161" lon="4.16213">
        <ele>507</ele>
        <time>2021-04-26T08:24:53Z</time>
      </trkpt>
      <trkpt lat="45.35162" lon="4.16217">
        <ele>507</ele>
        <time>2021-04-26T08:24:54Z</time>
      </trkpt>
      <trkpt lat="45.35163" lon="4.16221">
        <ele>508</ele>
        <time>2021-04-26T08:24:55Z</time>
      </trkpt>
      <trkpt lat="45.35165" lon="4.16224">
        <ele>508</ele>
        <time>2021-04-26T08:24:56Z</time>
      </trkpt>
      <trkpt lat="45.35168" lon="4.16226">
        <ele>508</ele>
        <time>2021-04-26T08:24:57Z</time>
      </trkpt>
      <trkpt lat="45.3517" lon="4.16227">
        <ele>508</ele>
        <time>2021-04-26T08:24:59Z</time>
      </trkpt>
      <trkpt lat="45.35173" lon="4.16228">
        <ele>508</ele>
        <time>2021-04-26T08:25:01Z</time>
      </trkpt>
      <trkpt lat="45.35176" lon="4.16232">
        <ele>508</ele>
        <time>2021-04-26T08:25:03Z</time>
      </trkpt>
      <trkpt lat="45.35178" lon="4.16235">
        <ele>508</ele>
        <time>2021-04-26T08:25:04Z</time>
      </trkpt>
      <trkpt lat="45.35181" lon="4.16238">
        <ele>507</ele>
        <time>2021-04-26T08:25:05Z</time>
      </trkpt>
      <trkpt lat="45.35185" lon="4.16241">
        <ele>507</ele>
        <time>2021-04-26T08:25:06Z</time>
      </trkpt>
      <trkpt lat="45.35188" lon="4.16244">
        <ele>507</ele>
        <time>2021-04-26T08:25:07Z</time>
      </trkpt>
      <trkpt lat="45.35192" lon="4.16246">
        <ele>507</ele>
        <time>2021-04-26T08:25:08Z</time>
      </trkpt>
      <trkpt lat="45.35196" lon="4.16248">
        <ele>507</ele>
        <time>2021-04-26T08:25:09Z</time>
      </trkpt>
      <trkpt lat="45.352" lon="4.1625">
        <ele>507</ele>
        <time>2021-04-26T08:25:10Z</time>
      </trkpt>
      <trkpt lat="45.35205" lon="4.16253">
        <ele>507</ele>
        <time>2021-04-26T08:25:11Z</time>
      </trkpt>
      <trkpt lat="45.3521" lon="4.16258">
        <ele>507</ele>
        <time>2021-04-26T08:25:12Z</time>
      </trkpt>
      <trkpt lat="45.35215" lon="4.16264">
        <ele>507</ele>
        <time>2021-04-26T08:25:13Z</time>
      </trkpt>
      <trkpt lat="45.35218" lon="4.16271">
        <ele>507</ele>
        <time>2021-04-26T08:25:14Z</time>
      </trkpt>
      <trkpt lat="45.3522" lon="4.16278">
        <ele>507</ele>
        <time>2021-04-26T08:25:15Z</time>
      </trkpt>
      <trkpt lat="45.35223" lon="4.16286">
        <ele>507</ele>
        <time>2021-04-26T08:25:16Z</time>
      </trkpt>
      <trkpt lat="45.35225" lon="4.16292">
        <ele>507</ele>
        <time>2021-04-26T08:25:17Z</time>
      </trkpt>
      <trkpt lat="45.35227" lon="4.16298">
        <ele>506</ele>
        <time>2021-04-26T08:25:18Z</time>
      </trkpt>
      <trkpt lat="45.35227" lon="4.16304">
        <ele>506</ele>
        <time>2021-04-26T08:25:19Z</time>
      </trkpt>
      <trkpt lat="45.35225" lon="4.16315">
        <ele>506</ele>
        <time>2021-04-26T08:25:20Z</time>
      </trkpt>
      <trkpt lat="45.35224" lon="4.1632">
        <ele>506</ele>
        <time>2021-04-26T08:25:21Z</time>
      </trkpt>
      <trkpt lat="45.35222" lon="4.16325">
        <ele>506</ele>
        <time>2021-04-26T08:25:22Z</time>
      </trkpt>
      <trkpt lat="45.3522" lon="4.1633">
        <ele>506</ele>
        <time>2021-04-26T08:25:23Z</time>
      </trkpt>
      <trkpt lat="45.35217" lon="4.16334">
        <ele>505</ele>
        <time>2021-04-26T08:25:24Z</time>
      </trkpt>
      <trkpt lat="45.35215" lon="4.16338">
        <ele>505</ele>
        <time>2021-04-26T08:25:25Z</time>
      </trkpt>
      <trkpt lat="45.35212" lon="4.16342">
        <ele>505</ele>
        <time>2021-04-26T08:25:26Z</time>
      </trkpt>
      <trkpt lat="45.35209" lon="4.16345">
        <ele>506</ele>
        <time>2021-04-26T08:25:27Z</time>
      </trkpt>
      <trkpt lat="45.35205" lon="4.16347">
        <ele>506</ele>
        <time>2021-04-26T08:25:28Z</time>
      </trkpt>
      <trkpt lat="45.35199" lon="4.16351">
        <ele>506</ele>
        <time>2021-04-26T08:25:30Z</time>
      </trkpt>
      <trkpt lat="45.35195" lon="4.16352">
        <ele>506</ele>
        <time>2021-04-26T08:25:31Z</time>
      </trkpt>
      <trkpt lat="45.35191" lon="4.16354">
        <ele>507</ele>
        <time>2021-04-26T08:25:32Z</time>
      </trkpt>
      <trkpt lat="45.35188" lon="4.16355">
        <ele>507</ele>
        <time>2021-04-26T08:25:33Z</time>
      </trkpt>
      <trkpt lat="45.35184" lon="4.16356">
        <ele>507</ele>
        <time>2021-04-26T08:25:34Z</time>
      </trkpt>
      <trkpt lat="45.35179" lon="4.16356">
        <ele>507</ele>
        <time>2021-04-26T08:25:35Z</time>
      </trkpt>
      <trkpt lat="45.35174" lon="4.16356">
        <ele>507</ele>
        <time>2021-04-26T08:25:36Z</time>
      </trkpt>
      <trkpt lat="45.3517" lon="4.16356">
        <ele>507</ele>
        <time>2021-04-26T08:25:37Z</time>
      </trkpt>
      <trkpt lat="45.35163" lon="4.16355">
        <ele>507</ele>
        <time>2021-04-26T08:25:39Z</time>
      </trkpt>
      <trkpt lat="45.35159" lon="4.16354">
        <ele>508</ele>
        <time>2021-04-26T08:25:41Z</time>
      </trkpt>
      <trkpt lat="45.35155" lon="4.16353">
        <ele>508</ele>
        <time>2021-04-26T08:25:42Z</time>
      </trkpt>
      <trkpt lat="45.35152" lon="4.16354">
        <ele>508</ele>
        <time>2021-04-26T08:25:43Z</time>
      </trkpt>
      <trkpt lat="45.35149" lon="4.16355">
        <ele>508</ele>
        <time>2021-04-26T08:25:44Z</time>
      </trkpt>
      <trkpt lat="45.3514" lon="4.16359">
        <ele>509</ele>
        <time>2021-04-26T08:25:46Z</time>
      </trkpt>
      <trkpt lat="45.35137" lon="4.16362">
        <ele>509</ele>
        <time>2021-04-26T08:25:47Z</time>
      </trkpt>
      <trkpt lat="45.35134" lon="4.16365">
        <ele>509</ele>
        <time>2021-04-26T08:25:48Z</time>
      </trkpt>
      <trkpt lat="45.3513" lon="4.16369">
        <ele>510</ele>
        <time>2021-04-26T08:25:49Z</time>
      </trkpt>
      <trkpt lat="45.35127" lon="4.16372">
        <ele>510</ele>
        <time>2021-04-26T08:25:50Z</time>
      </trkpt>
      <trkpt lat="45.35124" lon="4.16377">
        <ele>510</ele>
        <time>2021-04-26T08:25:51Z</time>
      </trkpt>
      <trkpt lat="45.35122" lon="4.16382">
        <ele>511</ele>
        <time>2021-04-26T08:25:52Z</time>
      </trkpt>
      <trkpt lat="45.35121" lon="4.16386">
        <ele>511</ele>
        <time>2021-04-26T08:25:53Z</time>
      </trkpt>
      <trkpt lat="45.3512" lon="4.16391">
        <ele>511</ele>
        <time>2021-04-26T08:25:54Z</time>
      </trkpt>
      <trkpt lat="45.35119" lon="4.16394">
        <ele>511</ele>
        <time>2021-04-26T08:25:55Z</time>
      </trkpt>
      <trkpt lat="45.35119" lon="4.16398">
        <ele>511</ele>
        <time>2021-04-26T08:25:56Z</time>
      </trkpt>
      <trkpt lat="45.35119" lon="4.164">
        <ele>511</ele>
        <time>2021-04-26T08:25:57Z</time>
      </trkpt>
      <trkpt lat="45.35121" lon="4.16403">
        <ele>512</ele>
        <time>2021-04-26T08:25:59Z</time>
      </trkpt>
      <trkpt lat="45.35123" lon="4.16405">
        <ele>512</ele>
        <time>2021-04-26T08:26:01Z</time>
      </trkpt>
      <trkpt lat="45.35125" lon="4.16405">
        <ele>512</ele>
        <time>2021-04-26T08:26:02Z</time>
      </trkpt>
      <trkpt lat="45.35128" lon="4.16405">
        <ele>512</ele>
        <time>2021-04-26T08:26:03Z</time>
      </trkpt>
      <trkpt lat="45.3513" lon="4.16405">
        <ele>512</ele>
        <time>2021-04-26T08:26:04Z</time>
      </trkpt>
      <trkpt lat="45.35132" lon="4.16404">
        <ele>512</ele>
        <time>2021-04-26T08:26:05Z</time>
      </trkpt>
      <trkpt lat="45.35134" lon="4.16402">
        <ele>512</ele>
        <time>2021-04-26T08:26:06Z</time>
      </trkpt>
      <trkpt lat="45.35137" lon="4.16402">
        <ele>513</ele>
        <time>2021-04-26T08:26:07Z</time>
      </trkpt>
      <trkpt lat="45.35139" lon="4.16402">
        <ele>513</ele>
        <time>2021-04-26T08:26:08Z</time>
      </trkpt>
      <trkpt lat="45.35142" lon="4.16403">
        <ele>513</ele>
        <time>2021-04-26T08:26:09Z</time>
      </trkpt>
      <trkpt lat="45.35145" lon="4.16404">
        <ele>513</ele>
        <time>2021-04-26T08:26:10Z</time>
      </trkpt>
      <trkpt lat="45.35148" lon="4.16405">
        <ele>514</ele>
        <time>2021-04-26T08:26:11Z</time>
      </trkpt>
      <trkpt lat="45.3515" lon="4.16407">
        <ele>514</ele>
        <time>2021-04-26T08:26:12Z</time>
      </trkpt>
      <trkpt lat="45.35151" lon="4.1641">
        <ele>514</ele>
        <time>2021-04-26T08:26:13Z</time>
      </trkpt>
      <trkpt lat="45.35152" lon="4.16413">
        <ele>515</ele>
        <time>2021-04-26T08:26:14Z</time>
      </trkpt>
      <trkpt lat="45.35154" lon="4.16417">
        <ele>515</ele>
        <time>2021-04-26T08:26:15Z</time>
      </trkpt>
      <trkpt lat="45.35155" lon="4.16421">
        <ele>515</ele>
        <time>2021-04-26T08:26:17Z</time>
      </trkpt>
      <trkpt lat="45.35156" lon="4.16424">
        <ele>516</ele>
        <time>2021-04-26T08:26:18Z</time>
      </trkpt>
      <trkpt lat="45.35157" lon="4.16426">
        <ele>516</ele>
        <time>2021-04-26T08:26:19Z</time>
      </trkpt>
      <trkpt lat="45.35159" lon="4.16429">
        <ele>516</ele>
        <time>2021-04-26T08:26:20Z</time>
      </trkpt>
      <trkpt lat="45.3516" lon="4.1643">
        <ele>517</ele>
        <time>2021-04-26T08:26:21Z</time>
      </trkpt>
      <trkpt lat="45.35165" lon="4.16433">
        <ele>517</ele>
        <time>2021-04-26T08:26:23Z</time>
      </trkpt>
      <trkpt lat="45.35167" lon="4.16436">
        <ele>518</ele>
        <time>2021-04-26T08:26:24Z</time>
      </trkpt>
      <trkpt lat="45.3517" lon="4.16437">
        <ele>518</ele>
        <time>2021-04-26T08:26:25Z</time>
      </trkpt>
      <trkpt lat="45.35172" lon="4.16438">
        <ele>519</ele>
        <time>2021-04-26T08:26:26Z</time>
      </trkpt>
      <trkpt lat="45.35174" lon="4.1644">
        <ele>520</ele>
        <time>2021-04-26T08:26:27Z</time>
      </trkpt>
      <trkpt lat="45.35177" lon="4.16441">
        <ele>520</ele>
        <time>2021-04-26T08:26:28Z</time>
      </trkpt>
      <trkpt lat="45.3518" lon="4.16443">
        <ele>521</ele>
        <time>2021-04-26T08:26:29Z</time>
      </trkpt>
      <trkpt lat="45.35183" lon="4.16444">
        <ele>521</ele>
        <time>2021-04-26T08:26:30Z</time>
      </trkpt>
      <trkpt lat="45.35186" lon="4.16445">
        <ele>522</ele>
        <time>2021-04-26T08:26:31Z</time>
      </trkpt>
      <trkpt lat="45.35189" lon="4.16446">
        <ele>522</ele>
        <time>2021-04-26T08:26:32Z</time>
      </trkpt>
      <trkpt lat="45.35192" lon="4.16448">
        <ele>523</ele>
        <time>2021-04-26T08:26:33Z</time>
      </trkpt>
      <trkpt lat="45.35195" lon="4.1645">
        <ele>523</ele>
        <time>2021-04-26T08:26:34Z</time>
      </trkpt>
      <trkpt lat="45.35198" lon="4.16451">
        <ele>523</ele>
        <time>2021-04-26T08:26:35Z</time>
      </trkpt>
      <trkpt lat="45.35202" lon="4.16453">
        <ele>525</ele>
        <time>2021-04-26T08:26:36Z</time>
      </trkpt>
      <trkpt lat="45.35205" lon="4.16454">
        <ele>525</ele>
        <time>2021-04-26T08:26:37Z</time>
      </trkpt>
      <trkpt lat="45.35208" lon="4.16457">
        <ele>525</ele>
        <time>2021-04-26T08:26:38Z</time>
      </trkpt>
      <trkpt lat="45.35211" lon="4.16459">
        <ele>526</ele>
        <time>2021-04-26T08:26:39Z</time>
      </trkpt>
      <trkpt lat="45.35213" lon="4.16461">
        <ele>526</ele>
        <time>2021-04-26T08:26:40Z</time>
      </trkpt>
      <trkpt lat="45.35216" lon="4.16463">
        <ele>527</ele>
        <time>2021-04-26T08:26:41Z</time>
      </trkpt>
      <trkpt lat="45.35218" lon="4.16466">
        <ele>527</ele>
        <time>2021-04-26T08:26:42Z</time>
      </trkpt>
      <trkpt lat="45.35221" lon="4.16469">
        <ele>527</ele>
        <time>2021-04-26T08:26:43Z</time>
      </trkpt>
      <trkpt lat="45.35224" lon="4.16473">
        <ele>527</ele>
        <time>2021-04-26T08:26:44Z</time>
      </trkpt>
      <trkpt lat="45.35227" lon="4.16477">
        <ele>528</ele>
        <time>2021-04-26T08:26:45Z</time>
      </trkpt>
      <trkpt lat="45.3523" lon="4.1648">
        <ele>528</ele>
        <time>2021-04-26T08:26:46Z</time>
      </trkpt>
      <trkpt lat="45.35232" lon="4.16483">
        <ele>529</ele>
        <time>2021-04-26T08:26:47Z</time>
      </trkpt>
      <trkpt lat="45.35235" lon="4.16486">
        <ele>529</ele>
        <time>2021-04-26T08:26:48Z</time>
      </trkpt>
      <trkpt lat="45.35239" lon="4.16492">
        <ele>529</ele>
        <time>2021-04-26T08:26:49Z</time>
      </trkpt>
      <trkpt lat="45.3524" lon="4.16496">
        <ele>531</ele>
        <time>2021-04-26T08:26:51Z</time>
      </trkpt>
      <trkpt lat="45.35242" lon="4.16499">
        <ele>531</ele>
        <time>2021-04-26T08:26:52Z</time>
      </trkpt>
      <trkpt lat="45.35244" lon="4.16503">
        <ele>532</ele>
        <time>2021-04-26T08:26:53Z</time>
      </trkpt>
      <trkpt lat="45.35246" lon="4.16507">
        <ele>532</ele>
        <time>2021-04-26T08:26:54Z</time>
      </trkpt>
      <trkpt lat="45.35246" lon="4.1651">
        <ele>533</ele>
        <time>2021-04-26T08:26:55Z</time>
      </trkpt>
      <trkpt lat="45.35247" lon="4.16515">
        <ele>534</ele>
        <time>2021-04-26T08:26:56Z</time>
      </trkpt>
      <trkpt lat="45.35246" lon="4.16518">
        <ele>534</ele>
        <time>2021-04-26T08:26:57Z</time>
      </trkpt>
      <trkpt lat="45.35245" lon="4.16521">
        <ele>535</ele>
        <time>2021-04-26T08:26:58Z</time>
      </trkpt>
      <trkpt lat="45.35241" lon="4.16525">
        <ele>535</ele>
        <time>2021-04-26T08:26:59Z</time>
      </trkpt>
      <trkpt lat="45.35237" lon="4.16526">
        <ele>535</ele>
        <time>2021-04-26T08:27:00Z</time>
      </trkpt>
      <trkpt lat="45.35235" lon="4.16526">
        <ele>536</ele>
        <time>2021-04-26T08:27:01Z</time>
      </trkpt>
      <trkpt lat="45.35232" lon="4.16529">
        <ele>537</ele>
        <time>2021-04-26T08:27:02Z</time>
      </trkpt>
      <trkpt lat="45.3523" lon="4.16531">
        <ele>537</ele>
        <time>2021-04-26T08:27:03Z</time>
      </trkpt>
      <trkpt lat="45.3523" lon="4.16535">
        <ele>538</ele>
        <time>2021-04-26T08:27:04Z</time>
      </trkpt>
      <trkpt lat="45.35229" lon="4.16539">
        <ele>539</ele>
        <time>2021-04-26T08:27:05Z</time>
      </trkpt>
      <trkpt lat="45.3523" lon="4.16542">
        <ele>539</ele>
        <time>2021-04-26T08:27:06Z</time>
      </trkpt>
      <trkpt lat="45.3523" lon="4.16545">
        <ele>539</ele>
        <time>2021-04-26T08:27:07Z</time>
      </trkpt>
      <trkpt lat="45.35232" lon="4.16554">
        <ele>540</ele>
        <time>2021-04-26T08:27:09Z</time>
      </trkpt>
      <trkpt lat="45.35234" lon="4.16558">
        <ele>540</ele>
        <time>2021-04-26T08:27:10Z</time>
      </trkpt>
      <trkpt lat="45.35234" lon="4.16563">
        <ele>541</ele>
        <time>2021-04-26T08:27:11Z</time>
      </trkpt>
      <trkpt lat="45.35234" lon="4.16567">
        <ele>541</ele>
        <time>2021-04-26T08:27:12Z</time>
      </trkpt>
      <trkpt lat="45.35236" lon="4.16578">
        <ele>542</ele>
        <time>2021-04-26T08:27:14Z</time>
      </trkpt>
      <trkpt lat="45.35236" lon="4.16582">
        <ele>542</ele>
        <time>2021-04-26T08:27:16Z</time>
      </trkpt>
      <trkpt lat="45.35236" lon="4.16587">
        <ele>542</ele>
        <time>2021-04-26T08:27:17Z</time>
      </trkpt>
      <trkpt lat="45.35237" lon="4.16592">
        <ele>543</ele>
        <time>2021-04-26T08:27:18Z</time>
      </trkpt>
      <trkpt lat="45.35237" lon="4.16601">
        <ele>543</ele>
        <time>2021-04-26T08:27:19Z</time>
      </trkpt>
      <trkpt lat="45.35237" lon="4.16606">
        <ele>544</ele>
        <time>2021-04-26T08:27:21Z</time>
      </trkpt>
      <trkpt lat="45.35237" lon="4.16611">
        <ele>544</ele>
        <time>2021-04-26T08:27:22Z</time>
      </trkpt>
      <trkpt lat="45.35236" lon="4.16616">
        <ele>544</ele>
        <time>2021-04-26T08:27:23Z</time>
      </trkpt>
      <trkpt lat="45.35236" lon="4.16621">
        <ele>545</ele>
        <time>2021-04-26T08:27:24Z</time>
      </trkpt>
      <trkpt lat="45.35235" lon="4.16626">
        <ele>546</ele>
        <time>2021-04-26T08:27:25Z</time>
      </trkpt>
      <trkpt lat="45.35235" lon="4.1663">
        <ele>546</ele>
        <time>2021-04-26T08:27:26Z</time>
      </trkpt>
      <trkpt lat="45.35236" lon="4.16635">
        <ele>547</ele>
        <time>2021-04-26T08:27:27Z</time>
      </trkpt>
      <trkpt lat="45.35238" lon="4.1664">
        <ele>547</ele>
        <time>2021-04-26T08:27:28Z</time>
      </trkpt>
      <trkpt lat="45.35239" lon="4.16644">
        <ele>547</ele>
        <time>2021-04-26T08:27:29Z</time>
      </trkpt>
      <trkpt lat="45.3524" lon="4.16648">
        <ele>548</ele>
        <time>2021-04-26T08:27:30Z</time>
      </trkpt>
      <trkpt lat="45.35241" lon="4.16652">
        <ele>548</ele>
        <time>2021-04-26T08:27:31Z</time>
      </trkpt>
      <trkpt lat="45.35242" lon="4.16656">
        <ele>548</ele>
        <time>2021-04-26T08:27:32Z</time>
      </trkpt>
      <trkpt lat="45.35246" lon="4.16663">
        <ele>549</ele>
        <time>2021-04-26T08:27:33Z</time>
      </trkpt>
      <trkpt lat="45.35247" lon="4.16665">
        <ele>549</ele>
        <time>2021-04-26T08:27:34Z</time>
      </trkpt>
      <trkpt lat="45.35248" lon="4.16668">
        <ele>549</ele>
        <time>2021-04-26T08:27:35Z</time>
      </trkpt>
      <trkpt lat="45.3525" lon="4.16671">
        <ele>550</ele>
        <time>2021-04-26T08:27:36Z</time>
      </trkpt>
      <trkpt lat="45.35251" lon="4.16675">
        <ele>551</ele>
        <time>2021-04-26T08:27:37Z</time>
      </trkpt>
      <trkpt lat="45.35253" lon="4.1668">
        <ele>551</ele>
        <time>2021-04-26T08:27:38Z</time>
      </trkpt>
      <trkpt lat="45.35253" lon="4.16689">
        <ele>553</ele>
        <time>2021-04-26T08:27:40Z</time>
      </trkpt>
      <trkpt lat="45.35255" lon="4.16693">
        <ele>553</ele>
        <time>2021-04-26T08:27:41Z</time>
      </trkpt>
      <trkpt lat="45.35256" lon="4.16697">
        <ele>554</ele>
        <time>2021-04-26T08:27:42Z</time>
      </trkpt>
      <trkpt lat="45.35258" lon="4.16702">
        <ele>554</ele>
        <time>2021-04-26T08:27:43Z</time>
      </trkpt>
      <trkpt lat="45.35259" lon="4.16706">
        <ele>555</ele>
        <time>2021-04-26T08:27:44Z</time>
      </trkpt>
      <trkpt lat="45.35261" lon="4.1671">
        <ele>555</ele>
        <time>2021-04-26T08:27:45Z</time>
      </trkpt>
      <trkpt lat="45.35262" lon="4.16714">
        <ele>555</ele>
        <time>2021-04-26T08:27:46Z</time>
      </trkpt>
      <trkpt lat="45.35263" lon="4.16717">
        <ele>556</ele>
        <time>2021-04-26T08:27:47Z</time>
      </trkpt>
      <trkpt lat="45.35265" lon="4.1672">
        <ele>556</ele>
        <time>2021-04-26T08:27:48Z</time>
      </trkpt>
      <trkpt lat="45.35266" lon="4.16723">
        <ele>557</ele>
        <time>2021-04-26T08:27:49Z</time>
      </trkpt>
      <trkpt lat="45.35268" lon="4.16726">
        <ele>557</ele>
        <time>2021-04-26T08:27:50Z</time>
      </trkpt>
      <trkpt lat="45.3527" lon="4.16733">
        <ele>558</ele>
        <time>2021-04-26T08:27:52Z</time>
      </trkpt>
      <trkpt lat="45.35273" lon="4.16736">
        <ele>560</ele>
        <time>2021-04-26T08:27:54Z</time>
      </trkpt>
      <trkpt lat="45.35275" lon="4.16739">
        <ele>560</ele>
        <time>2021-04-26T08:27:55Z</time>
      </trkpt>
      <trkpt lat="45.35278" lon="4.16743">
        <ele>561</ele>
        <time>2021-04-26T08:27:56Z</time>
      </trkpt>
      <trkpt lat="45.3528" lon="4.16747">
        <ele>561</ele>
        <time>2021-04-26T08:27:57Z</time>
      </trkpt>
      <trkpt lat="45.35282" lon="4.1675">
        <ele>561</ele>
        <time>2021-04-26T08:27:58Z</time>
      </trkpt>
      <trkpt lat="45.35286" lon="4.16756">
        <ele>562</ele>
        <time>2021-04-26T08:27:59Z</time>
      </trkpt>
      <trkpt lat="45.35289" lon="4.16759">
        <ele>562</ele>
        <time>2021-04-26T08:28:00Z</time>
      </trkpt>
      <trkpt lat="45.35291" lon="4.16763">
        <ele>563</ele>
        <time>2021-04-26T08:28:01Z</time>
      </trkpt>
      <trkpt lat="45.35294" lon="4.16766">
        <ele>563</ele>
        <time>2021-04-26T08:28:02Z</time>
      </trkpt>
      <trkpt lat="45.35296" lon="4.16769">
        <ele>564</ele>
        <time>2021-04-26T08:28:03Z</time>
      </trkpt>
      <trkpt lat="45.35298" lon="4.16773">
        <ele>565</ele>
        <time>2021-04-26T08:28:04Z</time>
      </trkpt>
      <trkpt lat="45.353" lon="4.16776">
        <ele>565</ele>
        <time>2021-04-26T08:28:05Z</time>
      </trkpt>
      <trkpt lat="45.35302" lon="4.16779">
        <ele>566</ele>
        <time>2021-04-26T08:28:06Z</time>
      </trkpt>
      <trkpt lat="45.35303" lon="4.16782">
        <ele>566</ele>
        <time>2021-04-26T08:28:07Z</time>
      </trkpt>
      <trkpt lat="45.35305" lon="4.16786">
        <ele>567</ele>
        <time>2021-04-26T08:28:08Z</time>
      </trkpt>
      <trkpt lat="45.35307" lon="4.16789">
        <ele>567</ele>
        <time>2021-04-26T08:28:09Z</time>
      </trkpt>
      <trkpt lat="45.35309" lon="4.16792">
        <ele>567</ele>
        <time>2021-04-26T08:28:11Z</time>
      </trkpt>
      <trkpt lat="45.35311" lon="4.16796">
        <ele>568</ele>
        <time>2021-04-26T08:28:12Z</time>
      </trkpt>
      <trkpt lat="45.35313" lon="4.16799">
        <ele>569</ele>
        <time>2021-04-26T08:28:13Z</time>
      </trkpt>
      <trkpt lat="45.35315" lon="4.16803">
        <ele>569</ele>
        <time>2021-04-26T08:28:14Z</time>
      </trkpt>
      <trkpt lat="45.35317" lon="4.16806">
        <ele>569</ele>
        <time>2021-04-26T08:28:15Z</time>
      </trkpt>
      <trkpt lat="45.35319" lon="4.1681">
        <ele>570</ele>
        <time>2021-04-26T08:28:16Z</time>
      </trkpt>
      <trkpt lat="45.35321" lon="4.16814">
        <ele>570</ele>
        <time>2021-04-26T08:28:17Z</time>
      </trkpt>
      <trkpt lat="45.35323" lon="4.16817">
        <ele>571</ele>
        <time>2021-04-26T08:28:18Z</time>
      </trkpt>
      <trkpt lat="45.35325" lon="4.16821">
        <ele>571</ele>
        <time>2021-04-26T08:28:19Z</time>
      </trkpt>
      <trkpt lat="45.35327" lon="4.16825">
        <ele>572</ele>
        <time>2021-04-26T08:28:20Z</time>
      </trkpt>
      <trkpt lat="45.35328" lon="4.16829">
        <ele>572</ele>
        <time>2021-04-26T08:28:21Z</time>
      </trkpt>
      <trkpt lat="45.3533" lon="4.16833">
        <ele>573</ele>
        <time>2021-04-26T08:28:22Z</time>
      </trkpt>
      <trkpt lat="45.35331" lon="4.16837">
        <ele>573</ele>
        <time>2021-04-26T08:28:23Z</time>
      </trkpt>
      <trkpt lat="45.35333" lon="4.16841">
        <ele>573</ele>
        <time>2021-04-26T08:28:24Z</time>
      </trkpt>
      <trkpt lat="45.35335" lon="4.16844">
        <ele>574</ele>
        <time>2021-04-26T08:28:25Z</time>
      </trkpt>
      <trkpt lat="45.35336" lon="4.16848">
        <ele>574</ele>
        <time>2021-04-26T08:28:26Z</time>
      </trkpt>
      <trkpt lat="45.35338" lon="4.16853">
        <ele>574</ele>
        <time>2021-04-26T08:28:27Z</time>
      </trkpt>
      <trkpt lat="45.3534" lon="4.16857">
        <ele>575</ele>
        <time>2021-04-26T08:28:28Z</time>
      </trkpt>
      <trkpt lat="45.35342" lon="4.16862">
        <ele>575</ele>
        <time>2021-04-26T08:28:29Z</time>
      </trkpt>
      <trkpt lat="45.35345" lon="4.16871">
        <ele>575</ele>
        <time>2021-04-26T08:28:30Z</time>
      </trkpt>
      <trkpt lat="45.35346" lon="4.16875">
        <ele>576</ele>
        <time>2021-04-26T08:28:31Z</time>
      </trkpt>
      <trkpt lat="45.35347" lon="4.16879">
        <ele>576</ele>
        <time>2021-04-26T08:28:32Z</time>
      </trkpt>
      <trkpt lat="45.35349" lon="4.16884">
        <ele>576</ele>
        <time>2021-04-26T08:28:33Z</time>
      </trkpt>
      <trkpt lat="45.35351" lon="4.16888">
        <ele>576</ele>
        <time>2021-04-26T08:28:34Z</time>
      </trkpt>
      <trkpt lat="45.35352" lon="4.16893">
        <ele>576</ele>
        <time>2021-04-26T08:28:35Z</time>
      </trkpt>
      <trkpt lat="45.35354" lon="4.16897">
        <ele>577</ele>
        <time>2021-04-26T08:28:36Z</time>
      </trkpt>
      <trkpt lat="45.35356" lon="4.16902">
        <ele>577</ele>
        <time>2021-04-26T08:28:37Z</time>
      </trkpt>
      <trkpt lat="45.35357" lon="4.16907">
        <ele>577</ele>
        <time>2021-04-26T08:28:38Z</time>
      </trkpt>
      <trkpt lat="45.35359" lon="4.16913">
        <ele>577</ele>
        <time>2021-04-26T08:28:39Z</time>
      </trkpt>
      <trkpt lat="45.3536" lon="4.16918">
        <ele>577</ele>
        <time>2021-04-26T08:28:40Z</time>
      </trkpt>
      <trkpt lat="45.35363" lon="4.1693">
        <ele>577</ele>
        <time>2021-04-26T08:28:42Z</time>
      </trkpt>
      <trkpt lat="45.35365" lon="4.16935">
        <ele>577</ele>
        <time>2021-04-26T08:28:43Z</time>
      </trkpt>
      <trkpt lat="45.35367" lon="4.1694">
        <ele>577</ele>
        <time>2021-04-26T08:28:44Z</time>
      </trkpt>
      <trkpt lat="45.35369" lon="4.16946">
        <ele>577</ele>
        <time>2021-04-26T08:28:45Z</time>
      </trkpt>
      <trkpt lat="45.35371" lon="4.16951">
        <ele>578</ele>
        <time>2021-04-26T08:28:46Z</time>
      </trkpt>
      <trkpt lat="45.35373" lon="4.16957">
        <ele>578</ele>
        <time>2021-04-26T08:28:47Z</time>
      </trkpt>
      <trkpt lat="45.35377" lon="4.16968">
        <ele>578</ele>
        <time>2021-04-26T08:28:49Z</time>
      </trkpt>
      <trkpt lat="45.35379" lon="4.16974">
        <ele>578</ele>
        <time>2021-04-26T08:28:51Z</time>
      </trkpt>
      <trkpt lat="45.35381" lon="4.16979">
        <ele>578</ele>
        <time>2021-04-26T08:28:52Z</time>
      </trkpt>
      <trkpt lat="45.35383" lon="4.16984">
        <ele>579</ele>
        <time>2021-04-26T08:28:53Z</time>
      </trkpt>
      <trkpt lat="45.35385" lon="4.16989">
        <ele>579</ele>
        <time>2021-04-26T08:28:54Z</time>
      </trkpt>
      <trkpt lat="45.35386" lon="4.16994">
        <ele>579</ele>
        <time>2021-04-26T08:28:55Z</time>
      </trkpt>
      <trkpt lat="45.35388" lon="4.16999">
        <ele>579</ele>
        <time>2021-04-26T08:28:56Z</time>
      </trkpt>
      <trkpt lat="45.3539" lon="4.17004">
        <ele>579</ele>
        <time>2021-04-26T08:28:57Z</time>
      </trkpt>
      <trkpt lat="45.35392" lon="4.17008">
        <ele>579</ele>
        <time>2021-04-26T08:28:58Z</time>
      </trkpt>
      <trkpt lat="45.35396" lon="4.17016">
        <ele>579</ele>
        <time>2021-04-26T08:28:59Z</time>
      </trkpt>
      <trkpt lat="45.35397" lon="4.1702">
        <ele>579</ele>
        <time>2021-04-26T08:29:00Z</time>
      </trkpt>
      <trkpt lat="45.35398" lon="4.17023">
        <ele>579</ele>
        <time>2021-04-26T08:29:01Z</time>
      </trkpt>
      <trkpt lat="45.35399" lon="4.17025">
        <ele>579</ele>
        <time>2021-04-26T08:29:02Z</time>
      </trkpt>
      <trkpt lat="45.35399" lon="4.17029">
        <ele>579</ele>
        <time>2021-04-26T08:29:03Z</time>
      </trkpt>
      <trkpt lat="45.354" lon="4.17033">
        <ele>580</ele>
        <time>2021-04-26T08:29:04Z</time>
      </trkpt>
      <trkpt lat="45.354" lon="4.17038">
        <ele>580</ele>
        <time>2021-04-26T08:29:05Z</time>
      </trkpt>
      <trkpt lat="45.35401" lon="4.17043">
        <ele>580</ele>
        <time>2021-04-26T08:29:06Z</time>
      </trkpt>
      <trkpt lat="45.35404" lon="4.17051">
        <ele>580</ele>
        <time>2021-04-26T08:29:08Z</time>
      </trkpt>
      <trkpt lat="45.35406" lon="4.17056">
        <ele>580</ele>
        <time>2021-04-26T08:29:09Z</time>
      </trkpt>
      <trkpt lat="45.35408" lon="4.1706">
        <ele>581</ele>
        <time>2021-04-26T08:29:10Z</time>
      </trkpt>
      <trkpt lat="45.3541" lon="4.17064">
        <ele>581</ele>
        <time>2021-04-26T08:29:11Z</time>
      </trkpt>
      <trkpt lat="45.35412" lon="4.17068">
        <ele>581</ele>
        <time>2021-04-26T08:29:12Z</time>
      </trkpt>
      <trkpt lat="45.35415" lon="4.17072">
        <ele>581</ele>
        <time>2021-04-26T08:29:13Z</time>
      </trkpt>
      <trkpt lat="45.35417" lon="4.17076">
        <ele>582</ele>
        <time>2021-04-26T08:29:14Z</time>
      </trkpt>
      <trkpt lat="45.35419" lon="4.17079">
        <ele>582</ele>
        <time>2021-04-26T08:29:15Z</time>
      </trkpt>
      <trkpt lat="45.35421" lon="4.17083">
        <ele>582</ele>
        <time>2021-04-26T08:29:16Z</time>
      </trkpt>
      <trkpt lat="45.35423" lon="4.17087">
        <ele>583</ele>
        <time>2021-04-26T08:29:17Z</time>
      </trkpt>
      <trkpt lat="45.35425" lon="4.17091">
        <ele>583</ele>
        <time>2021-04-26T08:29:18Z</time>
      </trkpt>
      <trkpt lat="45.35428" lon="4.17095">
        <ele>583</ele>
        <time>2021-04-26T08:29:19Z</time>
      </trkpt>
      <trkpt lat="45.3543" lon="4.17099">
        <ele>583</ele>
        <time>2021-04-26T08:29:20Z</time>
      </trkpt>
      <trkpt lat="45.35435" lon="4.17106">
        <ele>583</ele>
        <time>2021-04-26T08:29:22Z</time>
      </trkpt>
      <trkpt lat="45.35437" lon="4.1711">
        <ele>583</ele>
        <time>2021-04-26T08:29:23Z</time>
      </trkpt>
      <trkpt lat="45.35439" lon="4.17114">
        <ele>584</ele>
        <time>2021-04-26T08:29:24Z</time>
      </trkpt>
      <trkpt lat="45.35441" lon="4.17118">
        <ele>584</ele>
        <time>2021-04-26T08:29:25Z</time>
      </trkpt>
      <trkpt lat="45.35445" lon="4.17125">
        <ele>584</ele>
        <time>2021-04-26T08:29:27Z</time>
      </trkpt>
      <trkpt lat="45.35448" lon="4.17129">
        <ele>584</ele>
        <time>2021-04-26T08:29:28Z</time>
      </trkpt>
      <trkpt lat="45.3545" lon="4.17133">
        <ele>585</ele>
        <time>2021-04-26T08:29:29Z</time>
      </trkpt>
      <trkpt lat="45.35453" lon="4.17137">
        <ele>585</ele>
        <time>2021-04-26T08:29:30Z</time>
      </trkpt>
      <trkpt lat="45.35455" lon="4.17142">
        <ele>585</ele>
        <time>2021-04-26T08:29:31Z</time>
      </trkpt>
      <trkpt lat="45.35457" lon="4.17146">
        <ele>585</ele>
        <time>2021-04-26T08:29:32Z</time>
      </trkpt>
      <trkpt lat="45.35459" lon="4.17151">
        <ele>585</ele>
        <time>2021-04-26T08:29:33Z</time>
      </trkpt>
      <trkpt lat="45.3546" lon="4.17155">
        <ele>585</ele>
        <time>2021-04-26T08:29:34Z</time>
      </trkpt>
      <trkpt lat="45.35462" lon="4.17165">
        <ele>586</ele>
        <time>2021-04-26T08:29:36Z</time>
      </trkpt>
      <trkpt lat="45.35462" lon="4.17171">
        <ele>586</ele>
        <time>2021-04-26T08:29:37Z</time>
      </trkpt>
      <trkpt lat="45.35462" lon="4.17176">
        <ele>586</ele>
        <time>2021-04-26T08:29:38Z</time>
      </trkpt>
      <trkpt lat="45.3546" lon="4.17181">
        <ele>586</ele>
        <time>2021-04-26T08:29:39Z</time>
      </trkpt>
      <trkpt lat="45.35459" lon="4.17186">
        <ele>586</ele>
        <time>2021-04-26T08:29:40Z</time>
      </trkpt>
      <trkpt lat="45.35457" lon="4.17191">
        <ele>586</ele>
        <time>2021-04-26T08:29:41Z</time>
      </trkpt>
      <trkpt lat="45.35455" lon="4.17195">
        <ele>587</ele>
        <time>2021-04-26T08:29:42Z</time>
      </trkpt>
      <trkpt lat="45.35453" lon="4.172">
        <ele>587</ele>
        <time>2021-04-26T08:29:43Z</time>
      </trkpt>
      <trkpt lat="45.35451" lon="4.17204">
        <ele>587</ele>
        <time>2021-04-26T08:29:44Z</time>
      </trkpt>
      <trkpt lat="45.35447" lon="4.17214">
        <ele>588</ele>
        <time>2021-04-26T08:29:46Z</time>
      </trkpt>
      <trkpt lat="45.35446" lon="4.17218">
        <ele>588</ele>
        <time>2021-04-26T08:29:48Z</time>
      </trkpt>
      <trkpt lat="45.35444" lon="4.17223">
        <ele>588</ele>
        <time>2021-04-26T08:29:49Z</time>
      </trkpt>
      <trkpt lat="45.35443" lon="4.17228">
        <ele>589</ele>
        <time>2021-04-26T08:29:50Z</time>
      </trkpt>
      <trkpt lat="45.35442" lon="4.17233">
        <ele>589</ele>
        <time>2021-04-26T08:29:51Z</time>
      </trkpt>
      <trkpt lat="45.35441" lon="4.17239">
        <ele>589</ele>
        <time>2021-04-26T08:29:52Z</time>
      </trkpt>
      <trkpt lat="45.3544" lon="4.17244">
        <ele>589</ele>
        <time>2021-04-26T08:29:53Z</time>
      </trkpt>
      <trkpt lat="45.35439" lon="4.1725">
        <ele>590</ele>
        <time>2021-04-26T08:29:54Z</time>
      </trkpt>
      <trkpt lat="45.35439" lon="4.17256">
        <ele>590</ele>
        <time>2021-04-26T08:29:55Z</time>
      </trkpt>
      <trkpt lat="45.35438" lon="4.17261">
        <ele>590</ele>
        <time>2021-04-26T08:29:56Z</time>
      </trkpt>
      <trkpt lat="45.35438" lon="4.17267">
        <ele>590</ele>
        <time>2021-04-26T08:29:57Z</time>
      </trkpt>
      <trkpt lat="45.35438" lon="4.17272">
        <ele>591</ele>
        <time>2021-04-26T08:29:58Z</time>
      </trkpt>
      <trkpt lat="45.35438" lon="4.17283">
        <ele>591</ele>
        <time>2021-04-26T08:29:59Z</time>
      </trkpt>
      <trkpt lat="45.35439" lon="4.17289">
        <ele>591</ele>
        <time>2021-04-26T08:30:00Z</time>
      </trkpt>
      <trkpt lat="45.35439" lon="4.17295">
        <ele>591</ele>
        <time>2021-04-26T08:30:01Z</time>
      </trkpt>
      <trkpt lat="45.35439" lon="4.17306">
        <ele>591</ele>
        <time>2021-04-26T08:30:03Z</time>
      </trkpt>
      <trkpt lat="45.3544" lon="4.17316">
        <ele>592</ele>
        <time>2021-04-26T08:30:05Z</time>
      </trkpt>
      <trkpt lat="45.3544" lon="4.17321">
        <ele>592</ele>
        <time>2021-04-26T08:30:07Z</time>
      </trkpt>
      <trkpt lat="45.3544" lon="4.17326">
        <ele>592</ele>
        <time>2021-04-26T08:30:08Z</time>
      </trkpt>
      <trkpt lat="45.35441" lon="4.1733">
        <ele>592</ele>
        <time>2021-04-26T08:30:09Z</time>
      </trkpt>
      <trkpt lat="45.35441" lon="4.17335">
        <ele>592</ele>
        <time>2021-04-26T08:30:10Z</time>
      </trkpt>
      <trkpt lat="45.35441" lon="4.17339">
        <ele>593</ele>
        <time>2021-04-26T08:30:11Z</time>
      </trkpt>
      <trkpt lat="45.35442" lon="4.17342">
        <ele>593</ele>
        <time>2021-04-26T08:30:12Z</time>
      </trkpt>
      <trkpt lat="45.35444" lon="4.17345">
        <ele>593</ele>
        <time>2021-04-26T08:30:13Z</time>
      </trkpt>
      <trkpt lat="45.35447" lon="4.17347">
        <ele>594</ele>
        <time>2021-04-26T08:30:14Z</time>
      </trkpt>
      <trkpt lat="45.3545" lon="4.17347">
        <ele>594</ele>
        <time>2021-04-26T08:30:15Z</time>
      </trkpt>
      <trkpt lat="45.35453" lon="4.17346">
        <ele>594</ele>
        <time>2021-04-26T08:30:16Z</time>
      </trkpt>
      <trkpt lat="45.35457" lon="4.17344">
        <ele>594</ele>
        <time>2021-04-26T08:30:17Z</time>
      </trkpt>
      <trkpt lat="45.3546" lon="4.17341">
        <ele>594</ele>
        <time>2021-04-26T08:30:18Z</time>
      </trkpt>
      <trkpt lat="45.35463" lon="4.1734">
        <ele>595</ele>
        <time>2021-04-26T08:30:19Z</time>
      </trkpt>
      <trkpt lat="45.35467" lon="4.17338">
        <ele>595</ele>
        <time>2021-04-26T08:30:20Z</time>
      </trkpt>
      <trkpt lat="45.35471" lon="4.17337">
        <ele>595</ele>
        <time>2021-04-26T08:30:21Z</time>
      </trkpt>
      <trkpt lat="45.35474" lon="4.17336">
        <ele>595</ele>
        <time>2021-04-26T08:30:22Z</time>
      </trkpt>
      <trkpt lat="45.35478" lon="4.17334">
        <ele>595</ele>
        <time>2021-04-26T08:30:23Z</time>
      </trkpt>
      <trkpt lat="45.35486" lon="4.17332">
        <ele>596</ele>
        <time>2021-04-26T08:30:24Z</time>
      </trkpt>
      <trkpt lat="45.35489" lon="4.1733">
        <ele>596</ele>
        <time>2021-04-26T08:30:25Z</time>
      </trkpt>
      <trkpt lat="45.35493" lon="4.17329">
        <ele>596</ele>
        <time>2021-04-26T08:30:26Z</time>
      </trkpt>
      <trkpt lat="45.35496" lon="4.17328">
        <ele>597</ele>
        <time>2021-04-26T08:30:27Z</time>
      </trkpt>
      <trkpt lat="45.355" lon="4.17327">
        <ele>597</ele>
        <time>2021-04-26T08:30:28Z</time>
      </trkpt>
      <trkpt lat="45.35504" lon="4.17326">
        <ele>597</ele>
        <time>2021-04-26T08:30:29Z</time>
      </trkpt>
      <trkpt lat="45.35511" lon="4.17324">
        <ele>598</ele>
        <time>2021-04-26T08:30:31Z</time>
      </trkpt>
      <trkpt lat="45.35514" lon="4.17323">
        <ele>598</ele>
        <time>2021-04-26T08:30:32Z</time>
      </trkpt>
      <trkpt lat="45.35518" lon="4.17322">
        <ele>599</ele>
        <time>2021-04-26T08:30:33Z</time>
      </trkpt>
      <trkpt lat="45.35521" lon="4.17321">
        <ele>599</ele>
        <time>2021-04-26T08:30:34Z</time>
      </trkpt>
      <trkpt lat="45.35525" lon="4.1732">
        <ele>600</ele>
        <time>2021-04-26T08:30:35Z</time>
      </trkpt>
      <trkpt lat="45.35529" lon="4.17319">
        <ele>600</ele>
        <time>2021-04-26T08:30:36Z</time>
      </trkpt>
      <trkpt lat="45.35532" lon="4.17318">
        <ele>600</ele>
        <time>2021-04-26T08:30:37Z</time>
      </trkpt>
      <trkpt lat="45.35536" lon="4.17317">
        <ele>601</ele>
        <time>2021-04-26T08:30:38Z</time>
      </trkpt>
      <trkpt lat="45.35539" lon="4.17316">
        <ele>601</ele>
        <time>2021-04-26T08:30:39Z</time>
      </trkpt>
      <trkpt lat="45.35542" lon="4.17315">
        <ele>601</ele>
        <time>2021-04-26T08:30:40Z</time>
      </trkpt>
      <trkpt lat="45.35546" lon="4.17314">
        <ele>602</ele>
        <time>2021-04-26T08:30:41Z</time>
      </trkpt>
      <trkpt lat="45.35553" lon="4.17311">
        <ele>602</ele>
        <time>2021-04-26T08:30:43Z</time>
      </trkpt>
      <trkpt lat="45.35556" lon="4.1731">
        <ele>603</ele>
        <time>2021-04-26T08:30:45Z</time>
      </trkpt>
      <trkpt lat="45.3556" lon="4.17309">
        <ele>603</ele>
        <time>2021-04-26T08:30:46Z</time>
      </trkpt>
      <trkpt lat="45.35563" lon="4.17307">
        <ele>603</ele>
        <time>2021-04-26T08:30:47Z</time>
      </trkpt>
      <trkpt lat="45.35567" lon="4.17306">
        <ele>604</ele>
        <time>2021-04-26T08:30:48Z</time>
      </trkpt>
      <trkpt lat="45.3557" lon="4.17305">
        <ele>604</ele>
        <time>2021-04-26T08:30:49Z</time>
      </trkpt>
      <trkpt lat="45.35574" lon="4.17304">
        <ele>605</ele>
        <time>2021-04-26T08:30:50Z</time>
      </trkpt>
      <trkpt lat="45.35578" lon="4.17303">
        <ele>605</ele>
        <time>2021-04-26T08:30:51Z</time>
      </trkpt>
      <trkpt lat="45.35581" lon="4.17301">
        <ele>605</ele>
        <time>2021-04-26T08:30:52Z</time>
      </trkpt>
      <trkpt lat="45.35585" lon="4.17299">
        <ele>605</ele>
        <time>2021-04-26T08:30:53Z</time>
      </trkpt>
      <trkpt lat="45.35588" lon="4.17297">
        <ele>606</ele>
        <time>2021-04-26T08:30:54Z</time>
      </trkpt>
      <trkpt lat="45.35592" lon="4.17296">
        <ele>606</ele>
        <time>2021-04-26T08:30:55Z</time>
      </trkpt>
      <trkpt lat="45.35596" lon="4.17295">
        <ele>606</ele>
        <time>2021-04-26T08:30:56Z</time>
      </trkpt>
      <trkpt lat="45.35599" lon="4.17293">
        <ele>606</ele>
        <time>2021-04-26T08:30:57Z</time>
      </trkpt>
      <trkpt lat="45.35603" lon="4.17292">
        <ele>607</ele>
        <time>2021-04-26T08:30:58Z</time>
      </trkpt>
      <trkpt lat="45.35611" lon="4.17289">
        <ele>607</ele>
        <time>2021-04-26T08:30:59Z</time>
      </trkpt>
      <trkpt lat="45.35615" lon="4.17288">
        <ele>608</ele>
        <time>2021-04-26T08:31:00Z</time>
      </trkpt>
      <trkpt lat="45.35624" lon="4.17286">
        <ele>608</ele>
        <time>2021-04-26T08:31:02Z</time>
      </trkpt>
      <trkpt lat="45.35628" lon="4.17285">
        <ele>609</ele>
        <time>2021-04-26T08:31:04Z</time>
      </trkpt>
      <trkpt lat="45.35632" lon="4.17284">
        <ele>609</ele>
        <time>2021-04-26T08:31:05Z</time>
      </trkpt>
      <trkpt lat="45.35636" lon="4.17282">
        <ele>610</ele>
        <time>2021-04-26T08:31:06Z</time>
      </trkpt>
      <trkpt lat="45.35644" lon="4.1728">
        <ele>610</ele>
        <time>2021-04-26T08:31:07Z</time>
      </trkpt>
      <trkpt lat="45.35647" lon="4.17279">
        <ele>611</ele>
        <time>2021-04-26T08:31:09Z</time>
      </trkpt>
      <trkpt lat="45.35651" lon="4.17278">
        <ele>611</ele>
        <time>2021-04-26T08:31:10Z</time>
      </trkpt>
      <trkpt lat="45.35655" lon="4.17277">
        <ele>612</ele>
        <time>2021-04-26T08:31:11Z</time>
      </trkpt>
      <trkpt lat="45.35658" lon="4.17276">
        <ele>612</ele>
        <time>2021-04-26T08:31:12Z</time>
      </trkpt>
      <trkpt lat="45.35662" lon="4.17274">
        <ele>612</ele>
        <time>2021-04-26T08:31:13Z</time>
      </trkpt>
      <trkpt lat="45.35665" lon="4.17272">
        <ele>613</ele>
        <time>2021-04-26T08:31:14Z</time>
      </trkpt>
      <trkpt lat="45.35669" lon="4.1727">
        <ele>613</ele>
        <time>2021-04-26T08:31:15Z</time>
      </trkpt>
      <trkpt lat="45.35673" lon="4.17269">
        <ele>613</ele>
        <time>2021-04-26T08:31:16Z</time>
      </trkpt>
      <trkpt lat="45.35676" lon="4.17267">
        <ele>614</ele>
        <time>2021-04-26T08:31:17Z</time>
      </trkpt>
      <trkpt lat="45.3568" lon="4.17265">
        <ele>614</ele>
        <time>2021-04-26T08:31:18Z</time>
      </trkpt>
      <trkpt lat="45.35684" lon="4.17264">
        <ele>614</ele>
        <time>2021-04-26T08:31:19Z</time>
      </trkpt>
      <trkpt lat="45.35688" lon="4.17263">
        <ele>614</ele>
        <time>2021-04-26T08:31:20Z</time>
      </trkpt>
      <trkpt lat="45.35696" lon="4.1726">
        <ele>615</ele>
        <time>2021-04-26T08:31:21Z</time>
      </trkpt>
      <trkpt lat="45.357" lon="4.17259">
        <ele>615</ele>
        <time>2021-04-26T08:31:23Z</time>
      </trkpt>
      <trkpt lat="45.35705" lon="4.17258">
        <ele>615</ele>
        <time>2021-04-26T08:31:24Z</time>
      </trkpt>
      <trkpt lat="45.35709" lon="4.17258">
        <ele>616</ele>
        <time>2021-04-26T08:31:25Z</time>
      </trkpt>
      <trkpt lat="45.35713" lon="4.17257">
        <ele>616</ele>
        <time>2021-04-26T08:31:26Z</time>
      </trkpt>
      <trkpt lat="45.35717" lon="4.17257">
        <ele>616</ele>
        <time>2021-04-26T08:31:27Z</time>
      </trkpt>
      <trkpt lat="45.35721" lon="4.17256">
        <ele>616</ele>
        <time>2021-04-26T08:31:28Z</time>
      </trkpt>
      <trkpt lat="45.35726" lon="4.17255">
        <ele>616</ele>
        <time>2021-04-26T08:31:29Z</time>
      </trkpt>
      <trkpt lat="45.3573" lon="4.17254">
        <ele>617</ele>
        <time>2021-04-26T08:31:30Z</time>
      </trkpt>
      <trkpt lat="45.35733" lon="4.17253">
        <ele>617</ele>
        <time>2021-04-26T08:31:31Z</time>
      </trkpt>
      <trkpt lat="45.35737" lon="4.17253">
        <ele>617</ele>
        <time>2021-04-26T08:31:32Z</time>
      </trkpt>
      <trkpt lat="45.35741" lon="4.17253">
        <ele>617</ele>
        <time>2021-04-26T08:31:33Z</time>
      </trkpt>
      <trkpt lat="45.35745" lon="4.17252">
        <ele>617</ele>
        <time>2021-04-26T08:31:34Z</time>
      </trkpt>
      <trkpt lat="45.35749" lon="4.17252">
        <ele>617</ele>
        <time>2021-04-26T08:31:35Z</time>
      </trkpt>
      <trkpt lat="45.35753" lon="4.17251">
        <ele>617</ele>
        <time>2021-04-26T08:31:36Z</time>
      </trkpt>
      <trkpt lat="45.35757" lon="4.17251">
        <ele>618</ele>
        <time>2021-04-26T08:31:37Z</time>
      </trkpt>
      <trkpt lat="45.35761" lon="4.1725">
        <ele>618</ele>
        <time>2021-04-26T08:31:38Z</time>
      </trkpt>
      <trkpt lat="45.35765" lon="4.1725">
        <ele>618</ele>
        <time>2021-04-26T08:31:39Z</time>
      </trkpt>
      <trkpt lat="45.35773" lon="4.17248">
        <ele>618</ele>
        <time>2021-04-26T08:31:40Z</time>
      </trkpt>
      <trkpt lat="45.35778" lon="4.17247">
        <ele>619</ele>
        <time>2021-04-26T08:31:41Z</time>
      </trkpt>
      <trkpt lat="45.35782" lon="4.17246">
        <ele>619</ele>
        <time>2021-04-26T08:31:42Z</time>
      </trkpt>
      <trkpt lat="45.35786" lon="4.17245">
        <ele>619</ele>
        <time>2021-04-26T08:31:43Z</time>
      </trkpt>
      <trkpt lat="45.3579" lon="4.17244">
        <ele>619</ele>
        <time>2021-04-26T08:31:44Z</time>
      </trkpt>
      <trkpt lat="45.35794" lon="4.17243">
        <ele>620</ele>
        <time>2021-04-26T08:31:45Z</time>
      </trkpt>
      <trkpt lat="45.35802" lon="4.17242">
        <ele>620</ele>
        <time>2021-04-26T08:31:47Z</time>
      </trkpt>
      <trkpt lat="45.35806" lon="4.17241">
        <ele>621</ele>
        <time>2021-04-26T08:31:48Z</time>
      </trkpt>
      <trkpt lat="45.3581" lon="4.17241">
        <ele>621</ele>
        <time>2021-04-26T08:31:49Z</time>
      </trkpt>
      <trkpt lat="45.35814" lon="4.1724">
        <ele>621</ele>
        <time>2021-04-26T08:31:50Z</time>
      </trkpt>
      <trkpt lat="45.35818" lon="4.1724">
        <ele>622</ele>
        <time>2021-04-26T08:31:51Z</time>
      </trkpt>
      <trkpt lat="45.35823" lon="4.17239">
        <ele>622</ele>
        <time>2021-04-26T08:31:52Z</time>
      </trkpt>
      <trkpt lat="45.35827" lon="4.17239">
        <ele>623</ele>
        <time>2021-04-26T08:31:53Z</time>
      </trkpt>
      <trkpt lat="45.35831" lon="4.17238">
        <ele>623</ele>
        <time>2021-04-26T08:31:54Z</time>
      </trkpt>
      <trkpt lat="45.35835" lon="4.17238">
        <ele>623</ele>
        <time>2021-04-26T08:31:55Z</time>
      </trkpt>
      <trkpt lat="45.35839" lon="4.17237">
        <ele>624</ele>
        <time>2021-04-26T08:31:56Z</time>
      </trkpt>
      <trkpt lat="45.35843" lon="4.17236">
        <ele>624</ele>
        <time>2021-04-26T08:31:57Z</time>
      </trkpt>
      <trkpt lat="45.35851" lon="4.17235">
        <ele>624</ele>
        <time>2021-04-26T08:31:59Z</time>
      </trkpt>
      <trkpt lat="45.35856" lon="4.17234">
        <ele>625</ele>
        <time>2021-04-26T08:32:01Z</time>
      </trkpt>
      <trkpt lat="45.3586" lon="4.17232">
        <ele>625</ele>
        <time>2021-04-26T08:32:02Z</time>
      </trkpt>
      <trkpt lat="45.35864" lon="4.17231">
        <ele>625</ele>
        <time>2021-04-26T08:32:03Z</time>
      </trkpt>
      <trkpt lat="45.35868" lon="4.17229">
        <ele>626</ele>
        <time>2021-04-26T08:32:04Z</time>
      </trkpt>
      <trkpt lat="45.35872" lon="4.17227">
        <ele>626</ele>
        <time>2021-04-26T08:32:05Z</time>
      </trkpt>
      <trkpt lat="45.35877" lon="4.17225">
        <ele>626</ele>
        <time>2021-04-26T08:32:06Z</time>
      </trkpt>
      <trkpt lat="45.35881" lon="4.17224">
        <ele>626</ele>
        <time>2021-04-26T08:32:07Z</time>
      </trkpt>
      <trkpt lat="45.35885" lon="4.17222">
        <ele>627</ele>
        <time>2021-04-26T08:32:08Z</time>
      </trkpt>
      <trkpt lat="45.35889" lon="4.17221">
        <ele>627</ele>
        <time>2021-04-26T08:32:09Z</time>
      </trkpt>
      <trkpt lat="45.35894" lon="4.17219">
        <ele>627</ele>
        <time>2021-04-26T08:32:10Z</time>
      </trkpt>
      <trkpt lat="45.35903" lon="4.17217">
        <ele>627</ele>
        <time>2021-04-26T08:32:11Z</time>
      </trkpt>
      <trkpt lat="45.35907" lon="4.17216">
        <ele>627</ele>
        <time>2021-04-26T08:32:12Z</time>
      </trkpt>
      <trkpt lat="45.35912" lon="4.17215">
        <ele>628</ele>
        <time>2021-04-26T08:32:13Z</time>
      </trkpt>
      <trkpt lat="45.35916" lon="4.17214">
        <ele>628</ele>
        <time>2021-04-26T08:32:14Z</time>
      </trkpt>
      <trkpt lat="45.35921" lon="4.17213">
        <ele>628</ele>
        <time>2021-04-26T08:32:15Z</time>
      </trkpt>
      <trkpt lat="45.35925" lon="4.17212">
        <ele>628</ele>
        <time>2021-04-26T08:32:16Z</time>
      </trkpt>
      <trkpt lat="45.35935" lon="4.1721">
        <ele>628</ele>
        <time>2021-04-26T08:32:18Z</time>
      </trkpt>
      <trkpt lat="45.35939" lon="4.17209">
        <ele>629</ele>
        <time>2021-04-26T08:32:20Z</time>
      </trkpt>
      <trkpt lat="45.35944" lon="4.17208">
        <ele>629</ele>
        <time>2021-04-26T08:32:21Z</time>
      </trkpt>
      <trkpt lat="45.35948" lon="4.17206">
        <ele>629</ele>
        <time>2021-04-26T08:32:22Z</time>
      </trkpt>
      <trkpt lat="45.35953" lon="4.17205">
        <ele>630</ele>
        <time>2021-04-26T08:32:23Z</time>
      </trkpt>
      <trkpt lat="45.35957" lon="4.17204">
        <ele>630</ele>
        <time>2021-04-26T08:32:24Z</time>
      </trkpt>
      <trkpt lat="45.35961" lon="4.17202">
        <ele>630</ele>
        <time>2021-04-26T08:32:25Z</time>
      </trkpt>
      <trkpt lat="45.35966" lon="4.172">
        <ele>630</ele>
        <time>2021-04-26T08:32:26Z</time>
      </trkpt>
      <trkpt lat="45.3597" lon="4.17198">
        <ele>630</ele>
        <time>2021-04-26T08:32:27Z</time>
      </trkpt>
      <trkpt lat="45.35974" lon="4.17196">
        <ele>631</ele>
        <time>2021-04-26T08:32:28Z</time>
      </trkpt>
      <trkpt lat="45.35979" lon="4.17193">
        <ele>631</ele>
        <time>2021-04-26T08:32:29Z</time>
      </trkpt>
      <trkpt lat="45.35983" lon="4.17191">
        <ele>631</ele>
        <time>2021-04-26T08:32:30Z</time>
      </trkpt>
      <trkpt lat="45.35987" lon="4.17189">
        <ele>631</ele>
        <time>2021-04-26T08:32:31Z</time>
      </trkpt>
      <trkpt lat="45.35992" lon="4.17186">
        <ele>631</ele>
        <time>2021-04-26T08:32:32Z</time>
      </trkpt>
      <trkpt lat="45.35996" lon="4.17183">
        <ele>631</ele>
        <time>2021-04-26T08:32:33Z</time>
      </trkpt>
      <trkpt lat="45.36001" lon="4.1718">
        <ele>632</ele>
        <time>2021-04-26T08:32:34Z</time>
      </trkpt>
      <trkpt lat="45.36005" lon="4.17177">
        <ele>632</ele>
        <time>2021-04-26T08:32:35Z</time>
      </trkpt>
      <trkpt lat="45.36009" lon="4.17173">
        <ele>632</ele>
        <time>2021-04-26T08:32:36Z</time>
      </trkpt>
      <trkpt lat="45.36018" lon="4.17166">
        <ele>632</ele>
        <time>2021-04-26T08:32:37Z</time>
      </trkpt>
      <trkpt lat="45.36022" lon="4.17163">
        <ele>632</ele>
        <time>2021-04-26T08:32:38Z</time>
      </trkpt>
      <trkpt lat="45.36026" lon="4.17159">
        <ele>633</ele>
        <time>2021-04-26T08:32:39Z</time>
      </trkpt>
      <trkpt lat="45.3603" lon="4.17155">
        <ele>633</ele>
        <time>2021-04-26T08:32:40Z</time>
      </trkpt>
      <trkpt lat="45.36034" lon="4.17151">
        <ele>633</ele>
        <time>2021-04-26T08:32:41Z</time>
      </trkpt>
      <trkpt lat="45.36042" lon="4.17143">
        <ele>633</ele>
        <time>2021-04-26T08:32:43Z</time>
      </trkpt>
      <trkpt lat="45.36046" lon="4.17139">
        <ele>634</ele>
        <time>2021-04-26T08:32:44Z</time>
      </trkpt>
      <trkpt lat="45.3605" lon="4.17136">
        <ele>634</ele>
        <time>2021-04-26T08:32:45Z</time>
      </trkpt>
      <trkpt lat="45.36054" lon="4.17132">
        <ele>634</ele>
        <time>2021-04-26T08:32:46Z</time>
      </trkpt>
      <trkpt lat="45.36058" lon="4.17128">
        <ele>634</ele>
        <time>2021-04-26T08:32:47Z</time>
      </trkpt>
      <trkpt lat="45.36061" lon="4.17124">
        <ele>634</ele>
        <time>2021-04-26T08:32:48Z</time>
      </trkpt>
      <trkpt lat="45.36065" lon="4.1712">
        <ele>635</ele>
        <time>2021-04-26T08:32:49Z</time>
      </trkpt>
      <trkpt lat="45.36069" lon="4.17115">
        <ele>635</ele>
        <time>2021-04-26T08:32:50Z</time>
      </trkpt>
      <trkpt lat="45.36072" lon="4.17111">
        <ele>635</ele>
        <time>2021-04-26T08:32:51Z</time>
      </trkpt>
      <trkpt lat="45.36076" lon="4.17106">
        <ele>635</ele>
        <time>2021-04-26T08:32:52Z</time>
      </trkpt>
      <trkpt lat="45.36083" lon="4.17097">
        <ele>636</ele>
        <time>2021-04-26T08:32:54Z</time>
      </trkpt>
      <trkpt lat="45.3609" lon="4.17088">
        <ele>636</ele>
        <time>2021-04-26T08:32:56Z</time>
      </trkpt>
      <trkpt lat="45.36093" lon="4.17084">
        <ele>637</ele>
        <time>2021-04-26T08:32:58Z</time>
      </trkpt>
      <trkpt lat="45.36097" lon="4.1708">
        <ele>637</ele>
        <time>2021-04-26T08:32:59Z</time>
      </trkpt>
      <trkpt lat="45.361" lon="4.17076">
        <ele>637</ele>
        <time>2021-04-26T08:33:00Z</time>
      </trkpt>
      <trkpt lat="45.36104" lon="4.17073">
        <ele>637</ele>
        <time>2021-04-26T08:33:01Z</time>
      </trkpt>
      <trkpt lat="45.36108" lon="4.17069">
        <ele>637</ele>
        <time>2021-04-26T08:33:02Z</time>
      </trkpt>
      <trkpt lat="45.36112" lon="4.17066">
        <ele>637</ele>
        <time>2021-04-26T08:33:03Z</time>
      </trkpt>
      <trkpt lat="45.36116" lon="4.17063">
        <ele>637</ele>
        <time>2021-04-26T08:33:04Z</time>
      </trkpt>
      <trkpt lat="45.3612" lon="4.1706">
        <ele>638</ele>
        <time>2021-04-26T08:33:05Z</time>
      </trkpt>
      <trkpt lat="45.36124" lon="4.17058">
        <ele>639</ele>
        <time>2021-04-26T08:33:06Z</time>
      </trkpt>
      <trkpt lat="45.36128" lon="4.17056">
        <ele>639</ele>
        <time>2021-04-26T08:33:07Z</time>
      </trkpt>
      <trkpt lat="45.36133" lon="4.17054">
        <ele>639</ele>
        <time>2021-04-26T08:33:08Z</time>
      </trkpt>
      <trkpt lat="45.36137" lon="4.17053">
        <ele>640</ele>
        <time>2021-04-26T08:33:09Z</time>
      </trkpt>
      <trkpt lat="45.36142" lon="4.17052">
        <ele>640</ele>
        <time>2021-04-26T08:33:10Z</time>
      </trkpt>
      <trkpt lat="45.36147" lon="4.17051">
        <ele>641</ele>
        <time>2021-04-26T08:33:11Z</time>
      </trkpt>
      <trkpt lat="45.36151" lon="4.17051">
        <ele>641</ele>
        <time>2021-04-26T08:33:12Z</time>
      </trkpt>
      <trkpt lat="45.36156" lon="4.17051">
        <ele>641</ele>
        <time>2021-04-26T08:33:13Z</time>
      </trkpt>
      <trkpt lat="45.36161" lon="4.17051">
        <ele>641</ele>
        <time>2021-04-26T08:33:14Z</time>
      </trkpt>
      <trkpt lat="45.3617" lon="4.17053">
        <ele>642</ele>
        <time>2021-04-26T08:33:15Z</time>
      </trkpt>
      <trkpt lat="45.36175" lon="4.17054">
        <ele>642</ele>
        <time>2021-04-26T08:33:16Z</time>
      </trkpt>
      <trkpt lat="45.36179" lon="4.17056">
        <ele>643</ele>
        <time>2021-04-26T08:33:17Z</time>
      </trkpt>
      <trkpt lat="45.36184" lon="4.17058">
        <ele>643</ele>
        <time>2021-04-26T08:33:18Z</time>
      </trkpt>
      <trkpt lat="45.36189" lon="4.1706">
        <ele>644</ele>
        <time>2021-04-26T08:33:19Z</time>
      </trkpt>
      <trkpt lat="45.36193" lon="4.17063">
        <ele>644</ele>
        <time>2021-04-26T08:33:20Z</time>
      </trkpt>
      <trkpt lat="45.36197" lon="4.17066">
        <ele>644</ele>
        <time>2021-04-26T08:33:21Z</time>
      </trkpt>
      <trkpt lat="45.36201" lon="4.17069">
        <ele>645</ele>
        <time>2021-04-26T08:33:22Z</time>
      </trkpt>
      <trkpt lat="45.36205" lon="4.17072">
        <ele>645</ele>
        <time>2021-04-26T08:33:23Z</time>
      </trkpt>
      <trkpt lat="45.36209" lon="4.17076">
        <ele>645</ele>
        <time>2021-04-26T08:33:24Z</time>
      </trkpt>
      <trkpt lat="45.36217" lon="4.17083">
        <ele>646</ele>
        <time>2021-04-26T08:33:26Z</time>
      </trkpt>
      <trkpt lat="45.36221" lon="4.17086">
        <ele>646</ele>
        <time>2021-04-26T08:33:27Z</time>
      </trkpt>
      <trkpt lat="45.36224" lon="4.1709">
        <ele>647</ele>
        <time>2021-04-26T08:33:28Z</time>
      </trkpt>
      <trkpt lat="45.36228" lon="4.17094">
        <ele>647</ele>
        <time>2021-04-26T08:33:29Z</time>
      </trkpt>
      <trkpt lat="45.36232" lon="4.17097">
        <ele>648</ele>
        <time>2021-04-26T08:33:30Z</time>
      </trkpt>
      <trkpt lat="45.36235" lon="4.17101">
        <ele>648</ele>
        <time>2021-04-26T08:33:31Z</time>
      </trkpt>
      <trkpt lat="45.36239" lon="4.17105">
        <ele>649</ele>
        <time>2021-04-26T08:33:32Z</time>
      </trkpt>
      <trkpt lat="45.36242" lon="4.17108">
        <ele>649</ele>
        <time>2021-04-26T08:33:34Z</time>
      </trkpt>
      <trkpt lat="45.36246" lon="4.17112">
        <ele>650</ele>
        <time>2021-04-26T08:33:35Z</time>
      </trkpt>
      <trkpt lat="45.36249" lon="4.17116">
        <ele>650</ele>
        <time>2021-04-26T08:33:36Z</time>
      </trkpt>
      <trkpt lat="45.36257" lon="4.17123">
        <ele>651</ele>
        <time>2021-04-26T08:33:37Z</time>
      </trkpt>
      <trkpt lat="45.36261" lon="4.17126">
        <ele>651</ele>
        <time>2021-04-26T08:33:39Z</time>
      </trkpt>
      <trkpt lat="45.36265" lon="4.17128">
        <ele>651</ele>
        <time>2021-04-26T08:33:40Z</time>
      </trkpt>
      <trkpt lat="45.36269" lon="4.17129">
        <ele>651</ele>
        <time>2021-04-26T08:33:41Z</time>
      </trkpt>
      <trkpt lat="45.36272" lon="4.1713">
        <ele>651</ele>
        <time>2021-04-26T08:33:42Z</time>
      </trkpt>
      <trkpt lat="45.36276" lon="4.1713">
        <ele>652</ele>
        <time>2021-04-26T08:33:43Z</time>
      </trkpt>
      <trkpt lat="45.3628" lon="4.1713">
        <ele>652</ele>
        <time>2021-04-26T08:33:44Z</time>
      </trkpt>
      <trkpt lat="45.36283" lon="4.17131">
        <ele>652</ele>
        <time>2021-04-26T08:33:45Z</time>
      </trkpt>
      <trkpt lat="45.36286" lon="4.1713">
        <ele>652</ele>
        <time>2021-04-26T08:33:46Z</time>
      </trkpt>
      <trkpt lat="45.3629" lon="4.1713">
        <ele>652</ele>
        <time>2021-04-26T08:33:47Z</time>
      </trkpt>
      <trkpt lat="45.36293" lon="4.17129">
        <ele>652</ele>
        <time>2021-04-26T08:33:48Z</time>
      </trkpt>
      <trkpt lat="45.36296" lon="4.17128">
        <ele>652</ele>
        <time>2021-04-26T08:33:49Z</time>
      </trkpt>
      <trkpt lat="45.36299" lon="4.17128">
        <ele>653</ele>
        <time>2021-04-26T08:33:50Z</time>
      </trkpt>
      <trkpt lat="45.36302" lon="4.17128">
        <ele>653</ele>
        <time>2021-04-26T08:33:51Z</time>
      </trkpt>
      <trkpt lat="45.36304" lon="4.17128">
        <ele>653</ele>
        <time>2021-04-26T08:33:52Z</time>
      </trkpt>
      <trkpt lat="45.36306" lon="4.1713">
        <ele>653</ele>
        <time>2021-04-26T08:33:53Z</time>
      </trkpt>
      <trkpt lat="45.36305" lon="4.17133">
        <ele>653</ele>
        <time>2021-04-26T08:33:54Z</time>
      </trkpt>
      <trkpt lat="45.36303" lon="4.17136">
        <ele>653</ele>
        <time>2021-04-26T08:33:55Z</time>
      </trkpt>
      <trkpt lat="45.363" lon="4.1714">
        <ele>653</ele>
        <time>2021-04-26T08:33:56Z</time>
      </trkpt>
      <trkpt lat="45.36296" lon="4.17143">
        <ele>653</ele>
        <time>2021-04-26T08:33:57Z</time>
      </trkpt>
      <trkpt lat="45.36285" lon="4.17154">
        <ele>653</ele>
        <time>2021-04-26T08:33:59Z</time>
      </trkpt>
      <trkpt lat="45.36279" lon="4.1716">
        <ele>653</ele>
        <time>2021-04-26T08:34:00Z</time>
      </trkpt>
      <trkpt lat="45.36273" lon="4.17167">
        <ele>652</ele>
        <time>2021-04-26T08:34:01Z</time>
      </trkpt>
      <trkpt lat="45.36264" lon="4.17183">
        <ele>652</ele>
        <time>2021-04-26T08:34:03Z</time>
      </trkpt>
      <trkpt lat="45.36261" lon="4.17191">
        <ele>652</ele>
        <time>2021-04-26T08:34:04Z</time>
      </trkpt>
      <trkpt lat="45.36258" lon="4.172">
        <ele>652</ele>
        <time>2021-04-26T08:34:05Z</time>
      </trkpt>
      <trkpt lat="45.36255" lon="4.17208">
        <ele>652</ele>
        <time>2021-04-26T08:34:06Z</time>
      </trkpt>
      <trkpt lat="45.36252" lon="4.17216">
        <ele>652</ele>
        <time>2021-04-26T08:34:07Z</time>
      </trkpt>
      <trkpt lat="45.36248" lon="4.17223">
        <ele>652</ele>
        <time>2021-04-26T08:34:08Z</time>
      </trkpt>
      <trkpt lat="45.36237" lon="4.17239">
        <ele>651</ele>
        <time>2021-04-26T08:34:10Z</time>
      </trkpt>
      <trkpt lat="45.36225" lon="4.17254">
        <ele>651</ele>
        <time>2021-04-26T08:34:12Z</time>
      </trkpt>
      <trkpt lat="45.36219" lon="4.17261">
        <ele>651</ele>
        <time>2021-04-26T08:34:14Z</time>
      </trkpt>
      <trkpt lat="45.36212" lon="4.17268">
        <ele>650</ele>
        <time>2021-04-26T08:34:15Z</time>
      </trkpt>
      <trkpt lat="45.36204" lon="4.17274">
        <ele>650</ele>
        <time>2021-04-26T08:34:16Z</time>
      </trkpt>
      <trkpt lat="45.36197" lon="4.17282">
        <ele>649</ele>
        <time>2021-04-26T08:34:17Z</time>
      </trkpt>
      <trkpt lat="45.3619" lon="4.1729">
        <ele>649</ele>
        <time>2021-04-26T08:34:18Z</time>
      </trkpt>
      <trkpt lat="45.36183" lon="4.17299">
        <ele>649</ele>
        <time>2021-04-26T08:34:19Z</time>
      </trkpt>
      <trkpt lat="45.36175" lon="4.17309">
        <ele>648</ele>
        <time>2021-04-26T08:34:20Z</time>
      </trkpt>
      <trkpt lat="45.36168" lon="4.17318">
        <ele>648</ele>
        <time>2021-04-26T08:34:21Z</time>
      </trkpt>
      <trkpt lat="45.36162" lon="4.17329">
        <ele>648</ele>
        <time>2021-04-26T08:34:22Z</time>
      </trkpt>
      <trkpt lat="45.36155" lon="4.17339">
        <ele>647</ele>
        <time>2021-04-26T08:34:23Z</time>
      </trkpt>
      <trkpt lat="45.36149" lon="4.1735">
        <ele>647</ele>
        <time>2021-04-26T08:34:24Z</time>
      </trkpt>
      <trkpt lat="45.36142" lon="4.17359">
        <ele>646</ele>
        <time>2021-04-26T08:34:25Z</time>
      </trkpt>
      <trkpt lat="45.36134" lon="4.17369">
        <ele>646</ele>
        <time>2021-04-26T08:34:26Z</time>
      </trkpt>
      <trkpt lat="45.36125" lon="4.17377">
        <ele>643</ele>
        <time>2021-04-26T08:34:27Z</time>
      </trkpt>
      <trkpt lat="45.36117" lon="4.17384">
        <ele>641</ele>
        <time>2021-04-26T08:34:28Z</time>
      </trkpt>
      <trkpt lat="45.36109" lon="4.17391">
        <ele>639</ele>
        <time>2021-04-26T08:34:29Z</time>
      </trkpt>
      <trkpt lat="45.361" lon="4.17397">
        <ele>639</ele>
        <time>2021-04-26T08:34:30Z</time>
      </trkpt>
      <trkpt lat="45.36091" lon="4.17404">
        <ele>638</ele>
        <time>2021-04-26T08:34:31Z</time>
      </trkpt>
      <trkpt lat="45.36076" lon="4.17423">
        <ele>636</ele>
        <time>2021-04-26T08:34:32Z</time>
      </trkpt>
      <trkpt lat="45.3607" lon="4.17434">
        <ele>636</ele>
        <time>2021-04-26T08:34:33Z</time>
      </trkpt>
      <trkpt lat="45.36063" lon="4.17445">
        <ele>636</ele>
        <time>2021-04-26T08:34:34Z</time>
      </trkpt>
      <trkpt lat="45.36057" lon="4.17454">
        <ele>635</ele>
        <time>2021-04-26T08:34:35Z</time>
      </trkpt>
      <trkpt lat="45.36044" lon="4.17471">
        <ele>634</ele>
        <time>2021-04-26T08:34:37Z</time>
      </trkpt>
      <trkpt lat="45.36039" lon="4.17476">
        <ele>634</ele>
        <time>2021-04-26T08:34:38Z</time>
      </trkpt>
      <trkpt lat="45.36035" lon="4.1748">
        <ele>634</ele>
        <time>2021-04-26T08:34:39Z</time>
      </trkpt>
      <trkpt lat="45.36032" lon="4.17481">
        <ele>633</ele>
        <time>2021-04-26T08:34:40Z</time>
      </trkpt>
      <trkpt lat="45.3603" lon="4.17482">
        <ele>633</ele>
        <time>2021-04-26T08:34:41Z</time>
      </trkpt>
      <trkpt lat="45.36027" lon="4.17484">
        <ele>633</ele>
        <time>2021-04-26T08:34:42Z</time>
      </trkpt>
      <trkpt lat="45.36023" lon="4.17487">
        <ele>632</ele>
        <time>2021-04-26T08:34:43Z</time>
      </trkpt>
      <trkpt lat="45.36019" lon="4.17491">
        <ele>632</ele>
        <time>2021-04-26T08:34:44Z</time>
      </trkpt>
      <trkpt lat="45.36015" lon="4.17495">
        <ele>631</ele>
        <time>2021-04-26T08:34:45Z</time>
      </trkpt>
      <trkpt lat="45.36011" lon="4.175">
        <ele>630</ele>
        <time>2021-04-26T08:34:47Z</time>
      </trkpt>
      <trkpt lat="45.36007" lon="4.17505">
        <ele>630</ele>
        <time>2021-04-26T08:34:48Z</time>
      </trkpt>
      <trkpt lat="45.36003" lon="4.1751">
        <ele>630</ele>
        <time>2021-04-26T08:34:49Z</time>
      </trkpt>
      <trkpt lat="45.35995" lon="4.17521">
        <ele>629</ele>
        <time>2021-04-26T08:34:50Z</time>
      </trkpt>
      <trkpt lat="45.35992" lon="4.17527">
        <ele>628</ele>
        <time>2021-04-26T08:34:51Z</time>
      </trkpt>
      <trkpt lat="45.35988" lon="4.17533">
        <ele>628</ele>
        <time>2021-04-26T08:34:52Z</time>
      </trkpt>
      <trkpt lat="45.35983" lon="4.1754">
        <ele>628</ele>
        <time>2021-04-26T08:34:53Z</time>
      </trkpt>
      <trkpt lat="45.35979" lon="4.17548">
        <ele>627</ele>
        <time>2021-04-26T08:34:54Z</time>
      </trkpt>
      <trkpt lat="45.35972" lon="4.17564">
        <ele>626</ele>
        <time>2021-04-26T08:34:56Z</time>
      </trkpt>
      <trkpt lat="45.35968" lon="4.17572">
        <ele>626</ele>
        <time>2021-04-26T08:34:57Z</time>
      </trkpt>
      <trkpt lat="45.35962" lon="4.17588">
        <ele>626</ele>
        <time>2021-04-26T08:34:59Z</time>
      </trkpt>
      <trkpt lat="45.35958" lon="4.17597">
        <ele>626</ele>
        <time>2021-04-26T08:35:00Z</time>
      </trkpt>
      <trkpt lat="45.35954" lon="4.17605">
        <ele>625</ele>
        <time>2021-04-26T08:35:01Z</time>
      </trkpt>
      <trkpt lat="45.35948" lon="4.17622">
        <ele>625</ele>
        <time>2021-04-26T08:35:03Z</time>
      </trkpt>
      <trkpt lat="45.35945" lon="4.17631">
        <ele>625</ele>
        <time>2021-04-26T08:35:04Z</time>
      </trkpt>
      <trkpt lat="45.35943" lon="4.1764">
        <ele>624</ele>
        <time>2021-04-26T08:35:05Z</time>
      </trkpt>
      <trkpt lat="45.35941" lon="4.17649">
        <ele>624</ele>
        <time>2021-04-26T08:35:06Z</time>
      </trkpt>
      <trkpt lat="45.3594" lon="4.17658">
        <ele>624</ele>
        <time>2021-04-26T08:35:07Z</time>
      </trkpt>
      <trkpt lat="45.35938" lon="4.17667">
        <ele>624</ele>
        <time>2021-04-26T08:35:09Z</time>
      </trkpt>
      <trkpt lat="45.35937" lon="4.17675">
        <ele>624</ele>
        <time>2021-04-26T08:35:10Z</time>
      </trkpt>
      <trkpt lat="45.35936" lon="4.17683">
        <ele>624</ele>
        <time>2021-04-26T08:35:11Z</time>
      </trkpt>
      <trkpt lat="45.35934" lon="4.1769">
        <ele>625</ele>
        <time>2021-04-26T08:35:12Z</time>
      </trkpt>
      <trkpt lat="45.35933" lon="4.17698">
        <ele>625</ele>
        <time>2021-04-26T08:35:13Z</time>
      </trkpt>
      <trkpt lat="45.35932" lon="4.17706">
        <ele>624</ele>
        <time>2021-04-26T08:35:14Z</time>
      </trkpt>
      <trkpt lat="45.35931" lon="4.17714">
        <ele>624</ele>
        <time>2021-04-26T08:35:15Z</time>
      </trkpt>
      <trkpt lat="45.3593" lon="4.17722">
        <ele>624</ele>
        <time>2021-04-26T08:35:16Z</time>
      </trkpt>
      <trkpt lat="45.35929" lon="4.17729">
        <ele>624</ele>
        <time>2021-04-26T08:35:17Z</time>
      </trkpt>
      <trkpt lat="45.35929" lon="4.17738">
        <ele>624</ele>
        <time>2021-04-26T08:35:18Z</time>
      </trkpt>
      <trkpt lat="45.35929" lon="4.17748">
        <ele>624</ele>
        <time>2021-04-26T08:35:19Z</time>
      </trkpt>
      <trkpt lat="45.35928" lon="4.17757">
        <ele>623</ele>
        <time>2021-04-26T08:35:20Z</time>
      </trkpt>
      <trkpt lat="45.35927" lon="4.17767">
        <ele>623</ele>
        <time>2021-04-26T08:35:21Z</time>
      </trkpt>
      <trkpt lat="45.35926" lon="4.17776">
        <ele>623</ele>
        <time>2021-04-26T08:35:22Z</time>
      </trkpt>
      <trkpt lat="45.35924" lon="4.17786">
        <ele>622</ele>
        <time>2021-04-26T08:35:23Z</time>
      </trkpt>
      <trkpt lat="45.35921" lon="4.17797">
        <ele>622</ele>
        <time>2021-04-26T08:35:24Z</time>
      </trkpt>
      <trkpt lat="45.35916" lon="4.17806">
        <ele>622</ele>
        <time>2021-04-26T08:35:25Z</time>
      </trkpt>
      <trkpt lat="45.35911" lon="4.17817">
        <ele>621</ele>
        <time>2021-04-26T08:35:26Z</time>
      </trkpt>
      <trkpt lat="45.35903" lon="4.17826">
        <ele>621</ele>
        <time>2021-04-26T08:35:27Z</time>
      </trkpt>
      <trkpt lat="45.35896" lon="4.17837">
        <ele>619</ele>
        <time>2021-04-26T08:35:28Z</time>
      </trkpt>
      <trkpt lat="45.3589" lon="4.17849">
        <ele>619</ele>
        <time>2021-04-26T08:35:29Z</time>
      </trkpt>
      <trkpt lat="45.35886" lon="4.17862">
        <ele>619</ele>
        <time>2021-04-26T08:35:30Z</time>
      </trkpt>
      <trkpt lat="45.35883" lon="4.17876">
        <ele>616</ele>
        <time>2021-04-26T08:35:31Z</time>
      </trkpt>
      <trkpt lat="45.35879" lon="4.1789">
        <ele>615</ele>
        <time>2021-04-26T08:35:32Z</time>
      </trkpt>
      <trkpt lat="45.35876" lon="4.17904">
        <ele>614</ele>
        <time>2021-04-26T08:35:33Z</time>
      </trkpt>
      <trkpt lat="45.35873" lon="4.17917">
        <ele>613</ele>
        <time>2021-04-26T08:35:34Z</time>
      </trkpt>
      <trkpt lat="45.3587" lon="4.17931">
        <ele>613</ele>
        <time>2021-04-26T08:35:35Z</time>
      </trkpt>
      <trkpt lat="45.35864" lon="4.17956">
        <ele>612</ele>
        <time>2021-04-26T08:35:36Z</time>
      </trkpt>
      <trkpt lat="45.35861" lon="4.17968">
        <ele>610</ele>
        <time>2021-04-26T08:35:38Z</time>
      </trkpt>
      <trkpt lat="45.35858" lon="4.1798">
        <ele>609</ele>
        <time>2021-04-26T08:35:39Z</time>
      </trkpt>
      <trkpt lat="45.35857" lon="4.17992">
        <ele>608</ele>
        <time>2021-04-26T08:35:40Z</time>
      </trkpt>
      <trkpt lat="45.35856" lon="4.18005">
        <ele>608</ele>
        <time>2021-04-26T08:35:41Z</time>
      </trkpt>
      <trkpt lat="45.35858" lon="4.1803">
        <ele>607</ele>
        <time>2021-04-26T08:35:42Z</time>
      </trkpt>
      <trkpt lat="45.3586" lon="4.18043">
        <ele>606</ele>
        <time>2021-04-26T08:35:43Z</time>
      </trkpt>
      <trkpt lat="45.35862" lon="4.18057">
        <ele>605</ele>
        <time>2021-04-26T08:35:44Z</time>
      </trkpt>
      <trkpt lat="45.35865" lon="4.18071">
        <ele>603</ele>
        <time>2021-04-26T08:35:45Z</time>
      </trkpt>
      <trkpt lat="45.35868" lon="4.18086">
        <ele>600</ele>
        <time>2021-04-26T08:35:47Z</time>
      </trkpt>
      <trkpt lat="45.35872" lon="4.18101">
        <ele>598</ele>
        <time>2021-04-26T08:35:48Z</time>
      </trkpt>
      <trkpt lat="45.35876" lon="4.18116">
        <ele>596</ele>
        <time>2021-04-26T08:35:49Z</time>
      </trkpt>
      <trkpt lat="45.35884" lon="4.18146">
        <ele>595</ele>
        <time>2021-04-26T08:35:50Z</time>
      </trkpt>
      <trkpt lat="45.35887" lon="4.18161">
        <ele>591</ele>
        <time>2021-04-26T08:35:52Z</time>
      </trkpt>
      <trkpt lat="45.35889" lon="4.18178">
        <ele>590</ele>
        <time>2021-04-26T08:35:53Z</time>
      </trkpt>
      <trkpt lat="45.35892" lon="4.18195">
        <ele>587</ele>
        <time>2021-04-26T08:35:54Z</time>
      </trkpt>
      <trkpt lat="45.35895" lon="4.18212">
        <ele>587</ele>
        <time>2021-04-26T08:35:55Z</time>
      </trkpt>
      <trkpt lat="45.35896" lon="4.18228">
        <ele>583</ele>
        <time>2021-04-26T08:35:56Z</time>
      </trkpt>
      <trkpt lat="45.35897" lon="4.18242">
        <ele>582</ele>
        <time>2021-04-26T08:35:57Z</time>
      </trkpt>
      <trkpt lat="45.35897" lon="4.18257">
        <ele>580</ele>
        <time>2021-04-26T08:35:58Z</time>
      </trkpt>
      <trkpt lat="45.35898" lon="4.18273">
        <ele>580</ele>
        <time>2021-04-26T08:35:59Z</time>
      </trkpt>
      <trkpt lat="45.35899" lon="4.18306">
        <ele>575</ele>
        <time>2021-04-26T08:36:00Z</time>
      </trkpt>
      <trkpt lat="45.359" lon="4.18322">
        <ele>573</ele>
        <time>2021-04-26T08:36:01Z</time>
      </trkpt>
      <trkpt lat="45.359" lon="4.18337">
        <ele>570</ele>
        <time>2021-04-26T08:36:02Z</time>
      </trkpt>
      <trkpt lat="45.359" lon="4.18351">
        <ele>567</ele>
        <time>2021-04-26T08:36:03Z</time>
      </trkpt>
      <trkpt lat="45.359" lon="4.18367">
        <ele>565</ele>
        <time>2021-04-26T08:36:05Z</time>
      </trkpt>
      <trkpt lat="45.359" lon="4.18384">
        <ele>560</ele>
        <time>2021-04-26T08:36:06Z</time>
      </trkpt>
      <trkpt lat="45.35899" lon="4.18398">
        <ele>558</ele>
        <time>2021-04-26T08:36:07Z</time>
      </trkpt>
      <trkpt lat="45.35897" lon="4.1841">
        <ele>557</ele>
        <time>2021-04-26T08:36:08Z</time>
      </trkpt>
      <trkpt lat="45.35897" lon="4.18418">
        <ele>557</ele>
        <time>2021-04-26T08:36:09Z</time>
      </trkpt>
      <trkpt lat="45.35896" lon="4.18425">
        <ele>556</ele>
        <time>2021-04-26T08:36:10Z</time>
      </trkpt>
      <trkpt lat="45.35897" lon="4.18429">
        <ele>556</ele>
        <time>2021-04-26T08:36:11Z</time>
      </trkpt>
      <trkpt lat="45.35899" lon="4.18433">
        <ele>555</ele>
        <time>2021-04-26T08:36:12Z</time>
      </trkpt>
      <trkpt lat="45.35902" lon="4.18437">
        <ele>555</ele>
        <time>2021-04-26T08:36:13Z</time>
      </trkpt>
      <trkpt lat="45.35907" lon="4.18442">
        <ele>555</ele>
        <time>2021-04-26T08:36:14Z</time>
      </trkpt>
      <trkpt lat="45.35913" lon="4.18447">
        <ele>554</ele>
        <time>2021-04-26T08:36:15Z</time>
      </trkpt>
      <trkpt lat="45.35919" lon="4.18452">
        <ele>554</ele>
        <time>2021-04-26T08:36:16Z</time>
      </trkpt>
      <trkpt lat="45.35925" lon="4.18458">
        <ele>554</ele>
        <time>2021-04-26T08:36:17Z</time>
      </trkpt>
      <trkpt lat="45.35931" lon="4.18464">
        <ele>554</ele>
        <time>2021-04-26T08:36:18Z</time>
      </trkpt>
      <trkpt lat="45.35936" lon="4.1847">
        <ele>554</ele>
        <time>2021-04-26T08:36:19Z</time>
      </trkpt>
      <trkpt lat="45.35942" lon="4.18477">
        <ele>554</ele>
        <time>2021-04-26T08:36:20Z</time>
      </trkpt>
      <trkpt lat="45.35947" lon="4.18484">
        <ele>554</ele>
        <time>2021-04-26T08:36:21Z</time>
      </trkpt>
      <trkpt lat="45.35954" lon="4.18491">
        <ele>554</ele>
        <time>2021-04-26T08:36:22Z</time>
      </trkpt>
      <trkpt lat="45.35961" lon="4.18499">
        <ele>554</ele>
        <time>2021-04-26T08:36:23Z</time>
      </trkpt>
      <trkpt lat="45.35968" lon="4.18506">
        <ele>554</ele>
        <time>2021-04-26T08:36:24Z</time>
      </trkpt>
      <trkpt lat="45.35976" lon="4.18514">
        <ele>553</ele>
        <time>2021-04-26T08:36:25Z</time>
      </trkpt>
      <trkpt lat="45.35985" lon="4.18524">
        <ele>553</ele>
        <time>2021-04-26T08:36:26Z</time>
      </trkpt>
      <trkpt lat="45.35993" lon="4.18535">
        <ele>553</ele>
        <time>2021-04-26T08:36:27Z</time>
      </trkpt>
      <trkpt lat="45.36002" lon="4.18545">
        <ele>552</ele>
        <time>2021-04-26T08:36:28Z</time>
      </trkpt>
      <trkpt lat="45.3601" lon="4.18554">
        <ele>552</ele>
        <time>2021-04-26T08:36:29Z</time>
      </trkpt>
      <trkpt lat="45.36019" lon="4.18563">
        <ele>550</ele>
        <time>2021-04-26T08:36:30Z</time>
      </trkpt>
      <trkpt lat="45.36026" lon="4.18571">
        <ele>550</ele>
        <time>2021-04-26T08:36:31Z</time>
      </trkpt>
      <trkpt lat="45.36034" lon="4.1859">
        <ele>547</ele>
        <time>2021-04-26T08:36:33Z</time>
      </trkpt>
      <trkpt lat="45.36035" lon="4.18598">
        <ele>546</ele>
        <time>2021-04-26T08:36:34Z</time>
      </trkpt>
      <trkpt lat="45.36038" lon="4.18604">
        <ele>546</ele>
        <time>2021-04-26T08:36:35Z</time>
      </trkpt>
      <trkpt lat="45.36042" lon="4.18608">
        <ele>544</ele>
        <time>2021-04-26T08:36:37Z</time>
      </trkpt>
      <trkpt lat="45.36041" lon="4.18604">
        <ele>542</ele>
        <time>2021-04-26T08:36:39Z</time>
      </trkpt>
      <trkpt lat="45.36041" lon="4.18601">
        <ele>541</ele>
        <time>2021-04-26T08:36:40Z</time>
      </trkpt>
      <trkpt lat="45.36041" lon="4.18598">
        <ele>541</ele>
        <time>2021-04-26T08:36:41Z</time>
      </trkpt>
      <trkpt lat="45.36041" lon="4.18594">
        <ele>540</ele>
        <time>2021-04-26T08:36:42Z</time>
      </trkpt>
      <trkpt lat="45.36041" lon="4.18591">
        <ele>540</ele>
        <time>2021-04-26T08:36:43Z</time>
      </trkpt>
      <trkpt lat="45.36042" lon="4.18587">
        <ele>539</ele>
        <time>2021-04-26T08:36:44Z</time>
      </trkpt>
      <trkpt lat="45.36038" lon="4.18575">
        <ele>538</ele>
        <time>2021-04-26T08:36:46Z</time>
      </trkpt>
      <trkpt lat="45.36033" lon="4.18564">
        <ele>537</ele>
        <time>2021-04-26T08:36:49Z</time>
      </trkpt>
      <trkpt lat="45.36029" lon="4.18554">
        <ele>536</ele>
        <time>2021-04-26T08:36:52Z</time>
      </trkpt>
      <trkpt lat="45.36023" lon="4.18542">
        <ele>535</ele>
        <time>2021-04-26T08:36:55Z</time>
      </trkpt>
      <trkpt lat="45.36017" lon="4.18527">
        <ele>534</ele>
        <time>2021-04-26T08:36:59Z</time>
      </trkpt>
      <trkpt lat="45.3601" lon="4.18516">
        <ele>533</ele>
        <time>2021-04-26T08:37:00Z</time>
      </trkpt>
      <trkpt lat="45.36003" lon="4.18501">
        <ele>532</ele>
        <time>2021-04-26T08:37:03Z</time>
      </trkpt>
      <trkpt lat="45.36006" lon="4.18489">
        <ele>532</ele>
        <time>2021-04-26T08:37:07Z</time>
      </trkpt>
      <trkpt lat="45.36008" lon="4.18487">
        <ele>530</ele>
        <time>2021-04-26T08:37:08Z</time>
      </trkpt>
      <trkpt lat="45.36011" lon="4.18486">
        <ele>530</ele>
        <time>2021-04-26T08:37:09Z</time>
      </trkpt>
      <trkpt lat="45.36021" lon="4.18482">
        <ele>529</ele>
        <time>2021-04-26T08:37:12Z</time>
      </trkpt>
      <trkpt lat="45.3603" lon="4.18475">
        <ele>529</ele>
        <time>2021-04-26T08:37:14Z</time>
      </trkpt>
      <trkpt lat="45.36036" lon="4.18465">
        <ele>529</ele>
        <time>2021-04-26T08:37:16Z</time>
      </trkpt>
      <trkpt lat="45.3604" lon="4.1845">
        <ele>528</ele>
        <time>2021-04-26T08:37:18Z</time>
      </trkpt>
      <trkpt lat="45.3604" lon="4.18443">
        <ele>528</ele>
        <time>2021-04-26T08:37:19Z</time>
      </trkpt>
      <trkpt lat="45.36041" lon="4.18436">
        <ele>527</ele>
        <time>2021-04-26T08:37:20Z</time>
      </trkpt>
      <trkpt lat="45.36042" lon="4.18423">
        <ele>527</ele>
        <time>2021-04-26T08:37:22Z</time>
      </trkpt>
      <trkpt lat="45.36041" lon="4.18412">
        <ele>527</ele>
        <time>2021-04-26T08:37:23Z</time>
      </trkpt>
      <trkpt lat="45.3604" lon="4.18407">
        <ele>527</ele>
        <time>2021-04-26T08:37:24Z</time>
      </trkpt>
      <trkpt lat="45.36039" lon="4.18402">
        <ele>526</ele>
        <time>2021-04-26T08:37:25Z</time>
      </trkpt>
      <trkpt lat="45.36039" lon="4.18393">
        <ele>526</ele>
        <time>2021-04-26T08:37:27Z</time>
      </trkpt>
      <trkpt lat="45.36039" lon="4.18389">
        <ele>526</ele>
        <time>2021-04-26T08:37:28Z</time>
      </trkpt>
      <trkpt lat="45.36038" lon="4.18385">
        <ele>526</ele>
        <time>2021-04-26T08:37:29Z</time>
      </trkpt>
      <trkpt lat="45.36037" lon="4.18381">
        <ele>526</ele>
        <time>2021-04-26T08:37:30Z</time>
      </trkpt>
      <trkpt lat="45.36038" lon="4.18367">
        <ele>525</ele>
        <time>2021-04-26T08:37:33Z</time>
      </trkpt>
      <trkpt lat="45.36046" lon="4.18352">
        <ele>525</ele>
        <time>2021-04-26T08:37:36Z</time>
      </trkpt>
      <trkpt lat="45.36053" lon="4.18333">
        <ele>525</ele>
        <time>2021-04-26T08:37:38Z</time>
      </trkpt>
      <trkpt lat="45.36061" lon="4.18317">
        <ele>525</ele>
        <time>2021-04-26T08:37:41Z</time>
      </trkpt>
      <trkpt lat="45.36069" lon="4.18299">
        <ele>524</ele>
        <time>2021-04-26T08:37:43Z</time>
      </trkpt>
      <trkpt lat="45.36074" lon="4.1828">
        <ele>524</ele>
        <time>2021-04-26T08:37:45Z</time>
      </trkpt>
      <trkpt lat="45.36078" lon="4.18265">
        <ele>524</ele>
        <time>2021-04-26T08:37:47Z</time>
      </trkpt>
      <trkpt lat="45.36079" lon="4.18248">
        <ele>524</ele>
        <time>2021-04-26T08:37:49Z</time>
      </trkpt>
      <trkpt lat="45.36081" lon="4.18229">
        <ele>523</ele>
        <time>2021-04-26T08:37:51Z</time>
      </trkpt>
      <trkpt lat="45.36081" lon="4.18213">
        <ele>523</ele>
        <time>2021-04-26T08:37:53Z</time>
      </trkpt>
      <trkpt lat="45.36085" lon="4.18198">
        <ele>523</ele>
        <time>2021-04-26T08:37:55Z</time>
      </trkpt>
      <trkpt lat="45.36088" lon="4.18184">
        <ele>523</ele>
        <time>2021-04-26T08:37:57Z</time>
      </trkpt>
      <trkpt lat="45.36091" lon="4.1817">
        <ele>523</ele>
        <time>2021-04-26T08:37:59Z</time>
      </trkpt>
      <trkpt lat="45.36093" lon="4.18154">
        <ele>523</ele>
        <time>2021-04-26T08:38:01Z</time>
      </trkpt>
      <trkpt lat="45.36097" lon="4.18141">
        <ele>524</ele>
        <time>2021-04-26T08:38:03Z</time>
      </trkpt>
      <trkpt lat="45.36103" lon="4.18124">
        <ele>524</ele>
        <time>2021-04-26T08:38:05Z</time>
      </trkpt>
      <trkpt lat="45.36106" lon="4.18109">
        <ele>524</ele>
        <time>2021-04-26T08:38:07Z</time>
      </trkpt>
      <trkpt lat="45.36108" lon="4.18095">
        <ele>524</ele>
        <time>2021-04-26T08:38:09Z</time>
      </trkpt>
      <trkpt lat="45.36106" lon="4.18081">
        <ele>524</ele>
        <time>2021-04-26T08:38:11Z</time>
      </trkpt>
      <trkpt lat="45.36103" lon="4.18065">
        <ele>524</ele>
        <time>2021-04-26T08:38:13Z</time>
      </trkpt>
      <trkpt lat="45.36101" lon="4.18047">
        <ele>524</ele>
        <time>2021-04-26T08:38:16Z</time>
      </trkpt>
      <trkpt lat="45.36101" lon="4.18031">
        <ele>525</ele>
        <time>2021-04-26T08:38:19Z</time>
      </trkpt>
      <trkpt lat="45.3611" lon="4.18021">
        <ele>525</ele>
        <time>2021-04-26T08:38:22Z</time>
      </trkpt>
      <trkpt lat="45.36116" lon="4.18033">
        <ele>526</ele>
        <time>2021-04-26T08:38:27Z</time>
      </trkpt>
      <trkpt lat="45.36124" lon="4.18045">
        <ele>527</ele>
        <time>2021-04-26T08:38:30Z</time>
      </trkpt>
      <trkpt lat="45.36133" lon="4.18053">
        <ele>527</ele>
        <time>2021-04-26T08:38:32Z</time>
      </trkpt>
      <trkpt lat="45.36145" lon="4.1806">
        <ele>529</ele>
        <time>2021-04-26T08:38:35Z</time>
      </trkpt>
      <trkpt lat="45.36148" lon="4.18062">
        <ele>530</ele>
        <time>2021-04-26T08:38:36Z</time>
      </trkpt>
      <trkpt lat="45.36151" lon="4.18063">
        <ele>530</ele>
        <time>2021-04-26T08:38:37Z</time>
      </trkpt>
      <trkpt lat="45.36153" lon="4.18065">
        <ele>530</ele>
        <time>2021-04-26T08:38:38Z</time>
      </trkpt>
      <trkpt lat="45.36153" lon="4.18069">
        <ele>531</ele>
        <time>2021-04-26T08:38:40Z</time>
      </trkpt>
      <trkpt lat="45.3615" lon="4.18082">
        <ele>532</ele>
        <time>2021-04-26T08:38:45Z</time>
      </trkpt>
      <trkpt lat="45.36147" lon="4.18094">
        <ele>533</ele>
        <time>2021-04-26T08:38:48Z</time>
      </trkpt>
      <trkpt lat="45.36142" lon="4.18106">
        <ele>533</ele>
        <time>2021-04-26T08:38:50Z</time>
      </trkpt>
      <trkpt lat="45.3614" lon="4.18119">
        <ele>534</ele>
        <time>2021-04-26T08:38:52Z</time>
      </trkpt>
      <trkpt lat="45.36139" lon="4.18133">
        <ele>534</ele>
        <time>2021-04-26T08:38:54Z</time>
      </trkpt>
      <trkpt lat="45.36139" lon="4.18149">
        <ele>534</ele>
        <time>2021-04-26T08:38:56Z</time>
      </trkpt>
      <trkpt lat="45.36141" lon="4.18162">
        <ele>535</ele>
        <time>2021-04-26T08:38:57Z</time>
      </trkpt>
      <trkpt lat="45.36139" lon="4.18179">
        <ele>535</ele>
        <time>2021-04-26T08:38:59Z</time>
      </trkpt>
      <trkpt lat="45.3614" lon="4.18197">
        <ele>535</ele>
        <time>2021-04-26T08:39:02Z</time>
      </trkpt>
      <trkpt lat="45.3614" lon="4.18215">
        <ele>535</ele>
        <time>2021-04-26T08:39:04Z</time>
      </trkpt>
      <trkpt lat="45.36142" lon="4.18239">
        <ele>535</ele>
        <time>2021-04-26T08:39:06Z</time>
      </trkpt>
      <trkpt lat="45.36144" lon="4.18262">
        <ele>534</ele>
        <time>2021-04-26T08:39:08Z</time>
      </trkpt>
      <trkpt lat="45.36145" lon="4.18276">
        <ele>534</ele>
        <time>2021-04-26T08:39:09Z</time>
      </trkpt>
      <trkpt lat="45.36146" lon="4.18289">
        <ele>534</ele>
        <time>2021-04-26T08:39:10Z</time>
      </trkpt>
      <trkpt lat="45.36147" lon="4.18303">
        <ele>533</ele>
        <time>2021-04-26T08:39:11Z</time>
      </trkpt>
      <trkpt lat="45.3615" lon="4.18316">
        <ele>533</ele>
        <time>2021-04-26T08:39:12Z</time>
      </trkpt>
      <trkpt lat="45.36153" lon="4.18328">
        <ele>532</ele>
        <time>2021-04-26T08:39:13Z</time>
      </trkpt>
      <trkpt lat="45.36155" lon="4.1835">
        <ele>532</ele>
        <time>2021-04-26T08:39:15Z</time>
      </trkpt>
      <trkpt lat="45.36153" lon="4.18368">
        <ele>531</ele>
        <time>2021-04-26T08:39:16Z</time>
      </trkpt>
      <trkpt lat="45.36156" lon="4.18385">
        <ele>531</ele>
        <time>2021-04-26T08:39:18Z</time>
      </trkpt>
      <trkpt lat="45.36158" lon="4.18402">
        <ele>531</ele>
        <time>2021-04-26T08:39:20Z</time>
      </trkpt>
      <trkpt lat="45.3616" lon="4.18416">
        <ele>530</ele>
        <time>2021-04-26T08:39:22Z</time>
      </trkpt>
      <trkpt lat="45.36163" lon="4.1843">
        <ele>530</ele>
        <time>2021-04-26T08:39:24Z</time>
      </trkpt>
      <trkpt lat="45.36168" lon="4.18446">
        <ele>529</ele>
        <time>2021-04-26T08:39:27Z</time>
      </trkpt>
      <trkpt lat="45.36175" lon="4.18463">
        <ele>530</ele>
        <time>2021-04-26T08:39:30Z</time>
      </trkpt>
      <trkpt lat="45.36182" lon="4.18475">
        <ele>529</ele>
        <time>2021-04-26T08:39:32Z</time>
      </trkpt>
      <trkpt lat="45.36184" lon="4.18482">
        <ele>529</ele>
        <time>2021-04-26T08:39:33Z</time>
      </trkpt>
      <trkpt lat="45.3619" lon="4.18494">
        <ele>529</ele>
        <time>2021-04-26T08:39:35Z</time>
      </trkpt>
      <trkpt lat="45.36194" lon="4.18506">
        <ele>529</ele>
        <time>2021-04-26T08:39:38Z</time>
      </trkpt>
      <trkpt lat="45.36197" lon="4.18511">
        <ele>528</ele>
        <time>2021-04-26T08:39:39Z</time>
      </trkpt>
      <trkpt lat="45.362" lon="4.18514">
        <ele>528</ele>
        <time>2021-04-26T08:39:40Z</time>
      </trkpt>
      <trkpt lat="45.36203" lon="4.18517">
        <ele>528</ele>
        <time>2021-04-26T08:39:41Z</time>
      </trkpt>
      <trkpt lat="45.36206" lon="4.18521">
        <ele>528</ele>
        <time>2021-04-26T08:39:42Z</time>
      </trkpt>
      <trkpt lat="45.36208" lon="4.18525">
        <ele>528</ele>
        <time>2021-04-26T08:39:43Z</time>
      </trkpt>
      <trkpt lat="45.36212" lon="4.18529">
        <ele>528</ele>
        <time>2021-04-26T08:39:44Z</time>
      </trkpt>
      <trkpt lat="45.36215" lon="4.18533">
        <ele>527</ele>
        <time>2021-04-26T08:39:45Z</time>
      </trkpt>
      <trkpt lat="45.36219" lon="4.18537">
        <ele>527</ele>
        <time>2021-04-26T08:39:46Z</time>
      </trkpt>
      <trkpt lat="45.36223" lon="4.1854">
        <ele>527</ele>
        <time>2021-04-26T08:39:47Z</time>
      </trkpt>
      <trkpt lat="45.36227" lon="4.18541">
        <ele>527</ele>
        <time>2021-04-26T08:39:48Z</time>
      </trkpt>
      <trkpt lat="45.36231" lon="4.18541">
        <ele>527</ele>
        <time>2021-04-26T08:39:49Z</time>
      </trkpt>
      <trkpt lat="45.36235" lon="4.1854">
        <ele>527</ele>
        <time>2021-04-26T08:39:50Z</time>
      </trkpt>
      <trkpt lat="45.36239" lon="4.18539">
        <ele>527</ele>
        <time>2021-04-26T08:39:51Z</time>
      </trkpt>
      <trkpt lat="45.36243" lon="4.18538">
        <ele>526</ele>
        <time>2021-04-26T08:39:52Z</time>
      </trkpt>
      <trkpt lat="45.36247" lon="4.18537">
        <ele>526</ele>
        <time>2021-04-26T08:39:53Z</time>
      </trkpt>
      <trkpt lat="45.36256" lon="4.18535">
        <ele>526</ele>
        <time>2021-04-26T08:39:54Z</time>
      </trkpt>
      <trkpt lat="45.36261" lon="4.18534">
        <ele>526</ele>
        <time>2021-04-26T08:39:55Z</time>
      </trkpt>
      <trkpt lat="45.36266" lon="4.18532">
        <ele>526</ele>
        <time>2021-04-26T08:39:56Z</time>
      </trkpt>
      <trkpt lat="45.36271" lon="4.18531">
        <ele>526</ele>
        <time>2021-04-26T08:39:57Z</time>
      </trkpt>
      <trkpt lat="45.36282" lon="4.18529">
        <ele>526</ele>
        <time>2021-04-26T08:39:59Z</time>
      </trkpt>
      <trkpt lat="45.36288" lon="4.18529">
        <ele>526</ele>
        <time>2021-04-26T08:40:00Z</time>
      </trkpt>
      <trkpt lat="45.363" lon="4.18532">
        <ele>525</ele>
        <time>2021-04-26T08:40:02Z</time>
      </trkpt>
      <trkpt lat="45.36305" lon="4.18535">
        <ele>525</ele>
        <time>2021-04-26T08:40:03Z</time>
      </trkpt>
      <trkpt lat="45.36308" lon="4.18537">
        <ele>525</ele>
        <time>2021-04-26T08:40:04Z</time>
      </trkpt>
      <trkpt lat="45.36311" lon="4.1854">
        <ele>524</ele>
        <time>2021-04-26T08:40:05Z</time>
      </trkpt>
      <trkpt lat="45.36313" lon="4.18542">
        <ele>524</ele>
        <time>2021-04-26T08:40:06Z</time>
      </trkpt>
      <trkpt lat="45.36316" lon="4.18545">
        <ele>524</ele>
        <time>2021-04-26T08:40:08Z</time>
      </trkpt>
      <trkpt lat="45.36318" lon="4.18547">
        <ele>524</ele>
        <time>2021-04-26T08:40:09Z</time>
      </trkpt>
      <trkpt lat="45.3632" lon="4.1855">
        <ele>524</ele>
        <time>2021-04-26T08:40:10Z</time>
      </trkpt>
      <trkpt lat="45.36322" lon="4.18552">
        <ele>524</ele>
        <time>2021-04-26T08:40:11Z</time>
      </trkpt>
      <trkpt lat="45.36323" lon="4.18551">
        <ele>525</ele>
        <time>2021-04-26T08:40:17Z</time>
      </trkpt>
      <trkpt lat="45.36326" lon="4.18551">
        <ele>526</ele>
        <time>2021-04-26T08:40:27Z</time>
      </trkpt>
      <trkpt lat="45.36328" lon="4.18554">
        <ele>526</ele>
        <time>2021-04-26T08:40:28Z</time>
      </trkpt>
      <trkpt lat="45.3633" lon="4.18557">
        <ele>526</ele>
        <time>2021-04-26T08:40:31Z</time>
      </trkpt>
      <trkpt lat="45.36335" lon="4.18564">
        <ele>527</ele>
        <time>2021-04-26T08:41:07Z</time>
      </trkpt>
      <trkpt lat="45.36336" lon="4.18568">
        <ele>527</ele>
        <time>2021-04-26T08:41:08Z</time>
      </trkpt>
      <trkpt lat="45.3634" lon="4.1858">
        <ele>526</ele>
        <time>2021-04-26T08:41:09Z</time>
      </trkpt>
      <trkpt lat="45.36343" lon="4.18585">
        <ele>525</ele>
        <time>2021-04-26T08:41:11Z</time>
      </trkpt>
      <trkpt lat="45.36346" lon="4.18592">
        <ele>525</ele>
        <time>2021-04-26T08:41:12Z</time>
      </trkpt>
      <trkpt lat="45.36348" lon="4.18598">
        <ele>524</ele>
        <time>2021-04-26T08:41:13Z</time>
      </trkpt>
      <trkpt lat="45.3635" lon="4.18603">
        <ele>524</ele>
        <time>2021-04-26T08:41:14Z</time>
      </trkpt>
      <trkpt lat="45.36353" lon="4.18607">
        <ele>524</ele>
        <time>2021-04-26T08:41:15Z</time>
      </trkpt>
      <trkpt lat="45.36356" lon="4.18611">
        <ele>524</ele>
        <time>2021-04-26T08:41:16Z</time>
      </trkpt>
      <trkpt lat="45.36359" lon="4.18615">
        <ele>524</ele>
        <time>2021-04-26T08:41:17Z</time>
      </trkpt>
      <trkpt lat="45.36362" lon="4.18618">
        <ele>523</ele>
        <time>2021-04-26T08:41:18Z</time>
      </trkpt>
      <trkpt lat="45.36365" lon="4.18618">
        <ele>523</ele>
        <time>2021-04-26T08:41:19Z</time>
      </trkpt>
      <trkpt lat="45.36368" lon="4.18616">
        <ele>523</ele>
        <time>2021-04-26T08:41:20Z</time>
      </trkpt>
      <trkpt lat="45.3637" lon="4.18615">
        <ele>523</ele>
        <time>2021-04-26T08:41:21Z</time>
      </trkpt>
      <trkpt lat="45.36372" lon="4.18613">
        <ele>523</ele>
        <time>2021-04-26T08:41:22Z</time>
      </trkpt>
      <trkpt lat="45.36374" lon="4.18611">
        <ele>523</ele>
        <time>2021-04-26T08:41:23Z</time>
      </trkpt>
      <trkpt lat="45.36377" lon="4.18609">
        <ele>523</ele>
        <time>2021-04-26T08:41:24Z</time>
      </trkpt>
      <trkpt lat="45.36379" lon="4.18609">
        <ele>522</ele>
        <time>2021-04-26T08:41:25Z</time>
      </trkpt>
      <trkpt lat="45.36381" lon="4.18609">
        <ele>522</ele>
        <time>2021-04-26T08:41:26Z</time>
      </trkpt>
      <trkpt lat="45.36386" lon="4.18611">
        <ele>522</ele>
        <time>2021-04-26T08:41:27Z</time>
      </trkpt>
      <trkpt lat="45.36388" lon="4.18612">
        <ele>522</ele>
        <time>2021-04-26T08:41:28Z</time>
      </trkpt>
      <trkpt lat="45.3639" lon="4.18614">
        <ele>522</ele>
        <time>2021-04-26T08:41:29Z</time>
      </trkpt>
      <trkpt lat="45.36392" lon="4.18615">
        <ele>522</ele>
        <time>2021-04-26T08:41:30Z</time>
      </trkpt>
      <trkpt lat="45.36394" lon="4.18616">
        <ele>522</ele>
        <time>2021-04-26T08:41:31Z</time>
      </trkpt>
      <trkpt lat="45.36396" lon="4.18617">
        <ele>521</ele>
        <time>2021-04-26T08:41:32Z</time>
      </trkpt>
      <trkpt lat="45.36399" lon="4.18619">
        <ele>521</ele>
        <time>2021-04-26T08:41:33Z</time>
      </trkpt>
      <trkpt lat="45.36402" lon="4.1862">
        <ele>521</ele>
        <time>2021-04-26T08:41:34Z</time>
      </trkpt>
      <trkpt lat="45.36405" lon="4.18622">
        <ele>521</ele>
        <time>2021-04-26T08:41:35Z</time>
      </trkpt>
      <trkpt lat="45.36409" lon="4.18624">
        <ele>521</ele>
        <time>2021-04-26T08:41:36Z</time>
      </trkpt>
      <trkpt lat="45.36413" lon="4.18627">
        <ele>520</ele>
        <time>2021-04-26T08:41:37Z</time>
      </trkpt>
      <trkpt lat="45.36417" lon="4.18629">
        <ele>520</ele>
        <time>2021-04-26T08:41:39Z</time>
      </trkpt>
      <trkpt lat="45.36422" lon="4.18631">
        <ele>520</ele>
        <time>2021-04-26T08:41:40Z</time>
      </trkpt>
      <trkpt lat="45.36427" lon="4.18634">
        <ele>519</ele>
        <time>2021-04-26T08:41:41Z</time>
      </trkpt>
      <trkpt lat="45.36431" lon="4.18636">
        <ele>519</ele>
        <time>2021-04-26T08:41:42Z</time>
      </trkpt>
      <trkpt lat="45.36435" lon="4.18637">
        <ele>519</ele>
        <time>2021-04-26T08:41:43Z</time>
      </trkpt>
      <trkpt lat="45.36438" lon="4.18637">
        <ele>519</ele>
        <time>2021-04-26T08:41:44Z</time>
      </trkpt>
      <trkpt lat="45.36441" lon="4.18635">
        <ele>519</ele>
        <time>2021-04-26T08:41:45Z</time>
      </trkpt>
      <trkpt lat="45.36447" lon="4.18631">
        <ele>519</ele>
        <time>2021-04-26T08:41:46Z</time>
      </trkpt>
      <trkpt lat="45.3645" lon="4.1863">
        <ele>519</ele>
        <time>2021-04-26T08:41:47Z</time>
      </trkpt>
      <trkpt lat="45.36454" lon="4.18627">
        <ele>519</ele>
        <time>2021-04-26T08:41:48Z</time>
      </trkpt>
      <trkpt lat="45.36457" lon="4.18625">
        <ele>519</ele>
        <time>2021-04-26T08:41:49Z</time>
      </trkpt>
      <trkpt lat="45.36461" lon="4.18622">
        <ele>519</ele>
        <time>2021-04-26T08:41:50Z</time>
      </trkpt>
      <trkpt lat="45.36468" lon="4.18617">
        <ele>520</ele>
        <time>2021-04-26T08:41:52Z</time>
      </trkpt>
      <trkpt lat="45.36471" lon="4.18615">
        <ele>520</ele>
        <time>2021-04-26T08:41:53Z</time>
      </trkpt>
      <trkpt lat="45.36475" lon="4.18613">
        <ele>520</ele>
        <time>2021-04-26T08:41:54Z</time>
      </trkpt>
      <trkpt lat="45.36478" lon="4.18611">
        <ele>520</ele>
        <time>2021-04-26T08:41:55Z</time>
      </trkpt>
      <trkpt lat="45.36481" lon="4.18609">
        <ele>520</ele>
        <time>2021-04-26T08:41:56Z</time>
      </trkpt>
      <trkpt lat="45.36484" lon="4.18608">
        <ele>521</ele>
        <time>2021-04-26T08:41:57Z</time>
      </trkpt>
      <trkpt lat="45.36491" lon="4.18608">
        <ele>521</ele>
        <time>2021-04-26T08:41:59Z</time>
      </trkpt>
      <trkpt lat="45.36494" lon="4.18609">
        <ele>521</ele>
        <time>2021-04-26T08:42:00Z</time>
      </trkpt>
      <trkpt lat="45.36498" lon="4.18611">
        <ele>521</ele>
        <time>2021-04-26T08:42:01Z</time>
      </trkpt>
      <trkpt lat="45.36502" lon="4.18614">
        <ele>521</ele>
        <time>2021-04-26T08:42:02Z</time>
      </trkpt>
      <trkpt lat="45.36508" lon="4.18616">
        <ele>520</ele>
        <time>2021-04-26T08:42:03Z</time>
      </trkpt>
      <trkpt lat="45.36514" lon="4.18618">
        <ele>519</ele>
        <time>2021-04-26T08:42:05Z</time>
      </trkpt>
      <trkpt lat="45.36522" lon="4.18621">
        <ele>518</ele>
        <time>2021-04-26T08:42:06Z</time>
      </trkpt>
      <trkpt lat="45.36528" lon="4.18626">
        <ele>517</ele>
        <time>2021-04-26T08:42:07Z</time>
      </trkpt>
      <trkpt lat="45.36532" lon="4.18634">
        <ele>516</ele>
        <time>2021-04-26T08:42:08Z</time>
      </trkpt>
      <trkpt lat="45.36532" lon="4.18645">
        <ele>515</ele>
        <time>2021-04-26T08:42:09Z</time>
      </trkpt>
      <trkpt lat="45.36528" lon="4.18653">
        <ele>514</ele>
        <time>2021-04-26T08:42:10Z</time>
      </trkpt>
      <trkpt lat="45.3652" lon="4.18658">
        <ele>514</ele>
        <time>2021-04-26T08:42:11Z</time>
      </trkpt>
      <trkpt lat="45.36511" lon="4.18663">
        <ele>512</ele>
        <time>2021-04-26T08:42:12Z</time>
      </trkpt>
      <trkpt lat="45.36503" lon="4.18667">
        <ele>510</ele>
        <time>2021-04-26T08:42:13Z</time>
      </trkpt>
      <trkpt lat="45.36495" lon="4.18672">
        <ele>509</ele>
        <time>2021-04-26T08:42:14Z</time>
      </trkpt>
      <trkpt lat="45.3649" lon="4.18679">
        <ele>508</ele>
        <time>2021-04-26T08:42:15Z</time>
      </trkpt>
      <trkpt lat="45.36486" lon="4.18688">
        <ele>506</ele>
        <time>2021-04-26T08:42:16Z</time>
      </trkpt>
      <trkpt lat="45.36485" lon="4.18698">
        <ele>506</ele>
        <time>2021-04-26T08:42:17Z</time>
      </trkpt>
      <trkpt lat="45.36487" lon="4.18709">
        <ele>504</ele>
        <time>2021-04-26T08:42:18Z</time>
      </trkpt>
      <trkpt lat="45.36492" lon="4.18719">
        <ele>503</ele>
        <time>2021-04-26T08:42:19Z</time>
      </trkpt>
      <trkpt lat="45.36499" lon="4.18725">
        <ele>502</ele>
        <time>2021-04-26T08:42:20Z</time>
      </trkpt>
      <trkpt lat="45.36509" lon="4.18729">
        <ele>501</ele>
        <time>2021-04-26T08:42:21Z</time>
      </trkpt>
      <trkpt lat="45.36519" lon="4.18732">
        <ele>500</ele>
        <time>2021-04-26T08:42:22Z</time>
      </trkpt>
      <trkpt lat="45.36528" lon="4.18736">
        <ele>500</ele>
        <time>2021-04-26T08:42:23Z</time>
      </trkpt>
      <trkpt lat="45.36537" lon="4.1874">
        <ele>498</ele>
        <time>2021-04-26T08:42:24Z</time>
      </trkpt>
      <trkpt lat="45.36543" lon="4.18747">
        <ele>497</ele>
        <time>2021-04-26T08:42:25Z</time>
      </trkpt>
      <trkpt lat="45.36546" lon="4.18754">
        <ele>496</ele>
        <time>2021-04-26T08:42:26Z</time>
      </trkpt>
      <trkpt lat="45.36548" lon="4.18759">
        <ele>496</ele>
        <time>2021-04-26T08:42:27Z</time>
      </trkpt>
      <trkpt lat="45.36549" lon="4.18762">
        <ele>496</ele>
        <time>2021-04-26T08:42:28Z</time>
      </trkpt>
      <trkpt lat="45.36551" lon="4.18759">
        <ele>495</ele>
        <time>2021-04-26T08:42:30Z</time>
      </trkpt>
      <trkpt lat="45.36551" lon="4.18754">
        <ele>495</ele>
        <time>2021-04-26T08:42:32Z</time>
      </trkpt>
      <trkpt lat="45.3655" lon="4.1875">
        <ele>495</ele>
        <time>2021-04-26T08:42:34Z</time>
      </trkpt>
      <trkpt lat="45.36549" lon="4.18746">
        <ele>495</ele>
        <time>2021-04-26T08:42:36Z</time>
      </trkpt>
      <trkpt lat="45.36551" lon="4.18749">
        <ele>494</ele>
        <time>2021-04-26T08:43:21Z</time>
      </trkpt>
      <trkpt lat="45.36553" lon="4.18753">
        <ele>493</ele>
        <time>2021-04-26T08:43:22Z</time>
      </trkpt>
      <trkpt lat="45.36555" lon="4.18752">
        <ele>493</ele>
        <time>2021-04-26T08:43:24Z</time>
      </trkpt>
      <trkpt lat="45.36556" lon="4.1875">
        <ele>493</ele>
        <time>2021-04-26T08:43:26Z</time>
      </trkpt>
      <trkpt lat="45.36559" lon="4.18748">
        <ele>493</ele>
        <time>2021-04-26T08:43:28Z</time>
      </trkpt>
      <trkpt lat="45.36562" lon="4.18746">
        <ele>492</ele>
        <time>2021-04-26T08:43:30Z</time>
      </trkpt>
      <trkpt lat="45.36563" lon="4.18743">
        <ele>492</ele>
        <time>2021-04-26T08:43:31Z</time>
      </trkpt>
      <trkpt lat="45.36565" lon="4.18741">
        <ele>492</ele>
        <time>2021-04-26T08:43:32Z</time>
      </trkpt>
      <trkpt lat="45.36567" lon="4.18738">
        <ele>492</ele>
        <time>2021-04-26T08:43:33Z</time>
      </trkpt>
      <trkpt lat="45.36569" lon="4.18735">
        <ele>492</ele>
        <time>2021-04-26T08:43:34Z</time>
      </trkpt>
      <trkpt lat="45.36572" lon="4.18732">
        <ele>492</ele>
        <time>2021-04-26T08:43:35Z</time>
      </trkpt>
      <trkpt lat="45.36573" lon="4.18728">
        <ele>492</ele>
        <time>2021-04-26T08:43:36Z</time>
      </trkpt>
      <trkpt lat="45.36574" lon="4.18724">
        <ele>492</ele>
        <time>2021-04-26T08:43:37Z</time>
      </trkpt>
      <trkpt lat="45.36575" lon="4.18719">
        <ele>492</ele>
        <time>2021-04-26T08:43:38Z</time>
      </trkpt>
      <trkpt lat="45.36576" lon="4.18715">
        <ele>493</ele>
        <time>2021-04-26T08:43:39Z</time>
      </trkpt>
      <trkpt lat="45.36577" lon="4.1871">
        <ele>493</ele>
        <time>2021-04-26T08:43:41Z</time>
      </trkpt>
      <trkpt lat="45.36577" lon="4.18706">
        <ele>493</ele>
        <time>2021-04-26T08:43:42Z</time>
      </trkpt>
      <trkpt lat="45.36578" lon="4.18701">
        <ele>493</ele>
        <time>2021-04-26T08:43:43Z</time>
      </trkpt>
      <trkpt lat="45.36579" lon="4.18697">
        <ele>493</ele>
        <time>2021-04-26T08:43:44Z</time>
      </trkpt>
      <trkpt lat="45.3658" lon="4.18687">
        <ele>493</ele>
        <time>2021-04-26T08:43:45Z</time>
      </trkpt>
      <trkpt lat="45.3658" lon="4.18681">
        <ele>493</ele>
        <time>2021-04-26T08:43:46Z</time>
      </trkpt>
      <trkpt lat="45.3658" lon="4.18678">
        <ele>493</ele>
        <time>2021-04-26T08:43:47Z</time>
      </trkpt>
      <trkpt lat="45.36578" lon="4.18665">
        <ele>494</ele>
        <time>2021-04-26T08:48:59Z</time>
      </trkpt>
      <trkpt lat="45.36578" lon="4.18661">
        <ele>494</ele>
        <time>2021-04-26T08:49:00Z</time>
      </trkpt>
      <trkpt lat="45.36578" lon="4.1865">
        <ele>494</ele>
        <time>2021-04-26T08:49:01Z</time>
      </trkpt>
      <trkpt lat="45.36579" lon="4.18644">
        <ele>494</ele>
        <time>2021-04-26T08:49:02Z</time>
      </trkpt>
      <trkpt lat="45.3658" lon="4.18638">
        <ele>494</ele>
        <time>2021-04-26T08:49:03Z</time>
      </trkpt>
      <trkpt lat="45.36581" lon="4.1863">
        <ele>493</ele>
        <time>2021-04-26T08:49:04Z</time>
      </trkpt>
      <trkpt lat="45.36581" lon="4.18623">
        <ele>493</ele>
        <time>2021-04-26T08:49:05Z</time>
      </trkpt>
      <trkpt lat="45.36582" lon="4.18618">
        <ele>493</ele>
        <time>2021-04-26T08:49:06Z</time>
      </trkpt>
      <trkpt lat="45.36585" lon="4.18618">
        <ele>493</ele>
        <time>2021-04-26T08:49:07Z</time>
      </trkpt>
      <trkpt lat="45.36589" lon="4.18623">
        <ele>493</ele>
        <time>2021-04-26T08:49:09Z</time>
      </trkpt>
      <trkpt lat="45.36591" lon="4.18625">
        <ele>493</ele>
        <time>2021-04-26T08:49:10Z</time>
      </trkpt>
      <trkpt lat="45.36593" lon="4.18626">
        <ele>494</ele>
        <time>2021-04-26T08:49:11Z</time>
      </trkpt>
      <trkpt lat="45.36596" lon="4.18627">
        <ele>494</ele>
        <time>2021-04-26T08:49:12Z</time>
      </trkpt>
      <trkpt lat="45.36607" lon="4.18628">
        <ele>494</ele>
        <time>2021-04-26T08:49:15Z</time>
      </trkpt>
      <trkpt lat="45.36618" lon="4.18625">
        <ele>494</ele>
        <time>2021-04-26T08:49:17Z</time>
      </trkpt>
      <trkpt lat="45.36628" lon="4.18619">
        <ele>494</ele>
        <time>2021-04-26T08:49:20Z</time>
      </trkpt>
      <trkpt lat="45.36638" lon="4.18609">
        <ele>494</ele>
        <time>2021-04-26T08:49:22Z</time>
      </trkpt>
      <trkpt lat="45.36646" lon="4.18602">
        <ele>495</ele>
        <time>2021-04-26T08:49:24Z</time>
      </trkpt>
      <trkpt lat="45.36655" lon="4.18595">
        <ele>495</ele>
        <time>2021-04-26T08:49:26Z</time>
      </trkpt>
      <trkpt lat="45.36665" lon="4.18589">
        <ele>495</ele>
        <time>2021-04-26T08:49:28Z</time>
      </trkpt>
      <trkpt lat="45.36674" lon="4.18586">
        <ele>495</ele>
        <time>2021-04-26T08:49:30Z</time>
      </trkpt>
      <trkpt lat="45.36686" lon="4.18585">
        <ele>495</ele>
        <time>2021-04-26T08:49:32Z</time>
      </trkpt>
      <trkpt lat="45.36699" lon="4.18582">
        <ele>495</ele>
        <time>2021-04-26T08:49:35Z</time>
      </trkpt>
      <trkpt lat="45.36709" lon="4.18577">
        <ele>496</ele>
        <time>2021-04-26T08:49:38Z</time>
      </trkpt>
      <trkpt lat="45.36719" lon="4.18569">
        <ele>496</ele>
        <time>2021-04-26T08:49:40Z</time>
      </trkpt>
      <trkpt lat="45.36731" lon="4.18566">
        <ele>496</ele>
        <time>2021-04-26T08:49:42Z</time>
      </trkpt>
      <trkpt lat="45.36741" lon="4.18564">
        <ele>497</ele>
        <time>2021-04-26T08:49:44Z</time>
      </trkpt>
      <trkpt lat="45.3675" lon="4.18559">
        <ele>498</ele>
        <time>2021-04-26T08:49:46Z</time>
      </trkpt>
      <trkpt lat="45.36762" lon="4.18557">
        <ele>498</ele>
        <time>2021-04-26T08:49:48Z</time>
      </trkpt>
      <trkpt lat="45.36775" lon="4.18555">
        <ele>498</ele>
        <time>2021-04-26T08:49:50Z</time>
      </trkpt>
      <trkpt lat="45.36788" lon="4.18553">
        <ele>499</ele>
        <time>2021-04-26T08:49:52Z</time>
      </trkpt>
      <trkpt lat="45.36795" lon="4.18552">
        <ele>500</ele>
        <time>2021-04-26T08:49:53Z</time>
      </trkpt>
      <trkpt lat="45.36801" lon="4.1855">
        <ele>500</ele>
        <time>2021-04-26T08:49:54Z</time>
      </trkpt>
      <trkpt lat="45.36811" lon="4.18547">
        <ele>500</ele>
        <time>2021-04-26T08:49:56Z</time>
      </trkpt>
      <trkpt lat="45.36822" lon="4.1854">
        <ele>500</ele>
        <time>2021-04-26T08:49:57Z</time>
      </trkpt>
      <trkpt lat="45.36832" lon="4.18534">
        <ele>500</ele>
        <time>2021-04-26T08:49:59Z</time>
      </trkpt>
      <trkpt lat="45.36843" lon="4.18525">
        <ele>500</ele>
        <time>2021-04-26T08:50:01Z</time>
      </trkpt>
      <trkpt lat="45.36856" lon="4.18516">
        <ele>500</ele>
        <time>2021-04-26T08:50:03Z</time>
      </trkpt>
      <trkpt lat="45.36867" lon="4.18504">
        <ele>500</ele>
        <time>2021-04-26T08:50:05Z</time>
      </trkpt>
      <trkpt lat="45.36872" lon="4.18497">
        <ele>500</ele>
        <time>2021-04-26T08:50:07Z</time>
      </trkpt>
      <trkpt lat="45.36877" lon="4.18492">
        <ele>500</ele>
        <time>2021-04-26T08:50:08Z</time>
      </trkpt>
      <trkpt lat="45.36884" lon="4.1848">
        <ele>500</ele>
        <time>2021-04-26T08:50:10Z</time>
      </trkpt>
      <trkpt lat="45.36892" lon="4.18472">
        <ele>500</ele>
        <time>2021-04-26T08:50:12Z</time>
      </trkpt>
      <trkpt lat="45.36901" lon="4.18464">
        <ele>500</ele>
        <time>2021-04-26T08:50:16Z</time>
      </trkpt>
      <trkpt lat="45.36912" lon="4.18459">
        <ele>500</ele>
        <time>2021-04-26T08:50:20Z</time>
      </trkpt>
      <trkpt lat="45.36921" lon="4.1845">
        <ele>501</ele>
        <time>2021-04-26T08:50:23Z</time>
      </trkpt>
      <trkpt lat="45.3693" lon="4.18436">
        <ele>502</ele>
        <time>2021-04-26T08:50:26Z</time>
      </trkpt>
      <trkpt lat="45.36938" lon="4.18427">
        <ele>502</ele>
        <time>2021-04-26T08:50:28Z</time>
      </trkpt>
      <trkpt lat="45.36948" lon="4.18416">
        <ele>502</ele>
        <time>2021-04-26T08:50:30Z</time>
      </trkpt>
      <trkpt lat="45.36958" lon="4.18408">
        <ele>502</ele>
        <time>2021-04-26T08:50:31Z</time>
      </trkpt>
      <trkpt lat="45.36968" lon="4.18402">
        <ele>502</ele>
        <time>2021-04-26T08:50:33Z</time>
      </trkpt>
      <trkpt lat="45.36976" lon="4.18397">
        <ele>502</ele>
        <time>2021-04-26T08:50:35Z</time>
      </trkpt>
      <trkpt lat="45.36987" lon="4.18393">
        <ele>503</ele>
        <time>2021-04-26T08:50:38Z</time>
      </trkpt>
      <trkpt lat="45.36996" lon="4.18387">
        <ele>503</ele>
        <time>2021-04-26T08:50:40Z</time>
      </trkpt>
      <trkpt lat="45.37005" lon="4.18383">
        <ele>504</ele>
        <time>2021-04-26T08:50:43Z</time>
      </trkpt>
      <trkpt lat="45.37012" lon="4.18393">
        <ele>505</ele>
        <time>2021-04-26T08:50:49Z</time>
      </trkpt>
      <trkpt lat="45.37006" lon="4.18403">
        <ele>506</ele>
        <time>2021-04-26T08:50:52Z</time>
      </trkpt>
      <trkpt lat="45.36998" lon="4.18411">
        <ele>506</ele>
        <time>2021-04-26T08:50:54Z</time>
      </trkpt>
      <trkpt lat="45.3699" lon="4.18421">
        <ele>506</ele>
        <time>2021-04-26T08:50:55Z</time>
      </trkpt>
      <trkpt lat="45.36981" lon="4.1843">
        <ele>507</ele>
        <time>2021-04-26T08:50:57Z</time>
      </trkpt>
      <trkpt lat="45.36973" lon="4.18441">
        <ele>507</ele>
        <time>2021-04-26T08:50:59Z</time>
      </trkpt>
      <trkpt lat="45.3697" lon="4.18447">
        <ele>507</ele>
        <time>2021-04-26T08:51:00Z</time>
      </trkpt>
      <trkpt lat="45.36967" lon="4.18453">
        <ele>508</ele>
        <time>2021-04-26T08:51:01Z</time>
      </trkpt>
      <trkpt lat="45.36964" lon="4.18459">
        <ele>508</ele>
        <time>2021-04-26T08:51:02Z</time>
      </trkpt>
      <trkpt lat="45.36961" lon="4.18465">
        <ele>508</ele>
        <time>2021-04-26T08:51:03Z</time>
      </trkpt>
      <trkpt lat="45.36955" lon="4.18477">
        <ele>508</ele>
        <time>2021-04-26T08:51:05Z</time>
      </trkpt>
      <trkpt lat="45.36953" lon="4.18483">
        <ele>509</ele>
        <time>2021-04-26T08:51:06Z</time>
      </trkpt>
      <trkpt lat="45.36951" lon="4.18489">
        <ele>509</ele>
        <time>2021-04-26T08:51:07Z</time>
      </trkpt>
      <trkpt lat="45.36949" lon="4.18496">
        <ele>509</ele>
        <time>2021-04-26T08:51:08Z</time>
      </trkpt>
      <trkpt lat="45.36946" lon="4.18502">
        <ele>510</ele>
        <time>2021-04-26T08:51:09Z</time>
      </trkpt>
      <trkpt lat="45.36944" lon="4.18508">
        <ele>510</ele>
        <time>2021-04-26T08:51:10Z</time>
      </trkpt>
      <trkpt lat="45.36941" lon="4.18513">
        <ele>510</ele>
        <time>2021-04-26T08:51:11Z</time>
      </trkpt>
      <trkpt lat="45.36938" lon="4.18518">
        <ele>511</ele>
        <time>2021-04-26T08:51:13Z</time>
      </trkpt>
      <trkpt lat="45.36936" lon="4.18524">
        <ele>511</ele>
        <time>2021-04-26T08:51:14Z</time>
      </trkpt>
      <trkpt lat="45.36934" lon="4.1853">
        <ele>511</ele>
        <time>2021-04-26T08:51:15Z</time>
      </trkpt>
      <trkpt lat="45.36932" lon="4.18535">
        <ele>512</ele>
        <time>2021-04-26T08:51:16Z</time>
      </trkpt>
      <trkpt lat="45.3693" lon="4.1854">
        <ele>512</ele>
        <time>2021-04-26T08:51:17Z</time>
      </trkpt>
      <trkpt lat="45.36928" lon="4.18546">
        <ele>512</ele>
        <time>2021-04-26T08:51:18Z</time>
      </trkpt>
      <trkpt lat="45.36926" lon="4.18551">
        <ele>512</ele>
        <time>2021-04-26T08:51:19Z</time>
      </trkpt>
      <trkpt lat="45.36924" lon="4.18558">
        <ele>512</ele>
        <time>2021-04-26T08:51:20Z</time>
      </trkpt>
      <trkpt lat="45.36922" lon="4.18563">
        <ele>512</ele>
        <time>2021-04-26T08:51:21Z</time>
      </trkpt>
      <trkpt lat="45.3692" lon="4.18568">
        <ele>512</ele>
        <time>2021-04-26T08:51:22Z</time>
      </trkpt>
      <trkpt lat="45.36919" lon="4.18573">
        <ele>512</ele>
        <time>2021-04-26T08:51:23Z</time>
      </trkpt>
      <trkpt lat="45.36918" lon="4.18577">
        <ele>512</ele>
        <time>2021-04-26T08:51:24Z</time>
      </trkpt>
      <trkpt lat="45.36918" lon="4.18582">
        <ele>513</ele>
        <time>2021-04-26T08:51:26Z</time>
      </trkpt>
      <trkpt lat="45.36917" lon="4.18584">
        <ele>513</ele>
        <time>2021-04-26T08:51:28Z</time>
      </trkpt>
      <trkpt lat="45.36916" lon="4.18587">
        <ele>513</ele>
        <time>2021-04-26T08:51:31Z</time>
      </trkpt>
      <trkpt lat="45.36914" lon="4.18589">
        <ele>513</ele>
        <time>2021-04-26T08:51:33Z</time>
      </trkpt>
      <trkpt lat="45.36912" lon="4.18591">
        <ele>513</ele>
        <time>2021-04-26T08:51:35Z</time>
      </trkpt>
      <trkpt lat="45.3691" lon="4.18594">
        <ele>514</ele>
        <time>2021-04-26T08:51:37Z</time>
      </trkpt>
      <trkpt lat="45.36911" lon="4.18596">
        <ele>513</ele>
        <time>2021-04-26T08:51:45Z</time>
      </trkpt>
      <trkpt lat="45.36907" lon="4.186">
        <ele>513</ele>
        <time>2021-04-26T08:52:09Z</time>
      </trkpt>
      <trkpt lat="45.36901" lon="4.18603">
        <ele>513</ele>
        <time>2021-04-26T08:52:10Z</time>
      </trkpt>
      <trkpt lat="45.36897" lon="4.18605">
        <ele>512</ele>
        <time>2021-04-26T08:52:11Z</time>
      </trkpt>
      <trkpt lat="45.36893" lon="4.18607">
        <ele>512</ele>
        <time>2021-04-26T08:52:13Z</time>
      </trkpt>
      <trkpt lat="45.36888" lon="4.18609">
        <ele>512</ele>
        <time>2021-04-26T08:52:14Z</time>
      </trkpt>
      <trkpt lat="45.36884" lon="4.18611">
        <ele>512</ele>
        <time>2021-04-26T08:52:15Z</time>
      </trkpt>
      <trkpt lat="45.36879" lon="4.18612">
        <ele>512</ele>
        <time>2021-04-26T08:52:16Z</time>
      </trkpt>
      <trkpt lat="45.36874" lon="4.18615">
        <ele>512</ele>
        <time>2021-04-26T08:52:17Z</time>
      </trkpt>
      <trkpt lat="45.36869" lon="4.18616">
        <ele>512</ele>
        <time>2021-04-26T08:52:18Z</time>
      </trkpt>
      <trkpt lat="45.36865" lon="4.18618">
        <ele>512</ele>
        <time>2021-04-26T08:52:19Z</time>
      </trkpt>
      <trkpt lat="45.36856" lon="4.18623">
        <ele>512</ele>
        <time>2021-04-26T08:52:20Z</time>
      </trkpt>
      <trkpt lat="45.36851" lon="4.18626">
        <ele>512</ele>
        <time>2021-04-26T08:52:21Z</time>
      </trkpt>
      <trkpt lat="45.36846" lon="4.18629">
        <ele>512</ele>
        <time>2021-04-26T08:52:22Z</time>
      </trkpt>
      <trkpt lat="45.36841" lon="4.18632">
        <ele>512</ele>
        <time>2021-04-26T08:52:23Z</time>
      </trkpt>
      <trkpt lat="45.36837" lon="4.18634">
        <ele>512</ele>
        <time>2021-04-26T08:52:24Z</time>
      </trkpt>
      <trkpt lat="45.36832" lon="4.18636">
        <ele>511</ele>
        <time>2021-04-26T08:52:25Z</time>
      </trkpt>
      <trkpt lat="45.36827" lon="4.18638">
        <ele>511</ele>
        <time>2021-04-26T08:52:26Z</time>
      </trkpt>
      <trkpt lat="45.36822" lon="4.1864">
        <ele>511</ele>
        <time>2021-04-26T08:52:27Z</time>
      </trkpt>
      <trkpt lat="45.36817" lon="4.18642">
        <ele>511</ele>
        <time>2021-04-26T08:52:29Z</time>
      </trkpt>
      <trkpt lat="45.36813" lon="4.18644">
        <ele>511</ele>
        <time>2021-04-26T08:52:30Z</time>
      </trkpt>
      <trkpt lat="45.36808" lon="4.18645">
        <ele>511</ele>
        <time>2021-04-26T08:52:31Z</time>
      </trkpt>
      <trkpt lat="45.36803" lon="4.18646">
        <ele>511</ele>
        <time>2021-04-26T08:52:32Z</time>
      </trkpt>
      <trkpt lat="45.36798" lon="4.18647">
        <ele>511</ele>
        <time>2021-04-26T08:52:33Z</time>
      </trkpt>
      <trkpt lat="45.36793" lon="4.18648">
        <ele>511</ele>
        <time>2021-04-26T08:52:34Z</time>
      </trkpt>
      <trkpt lat="45.36788" lon="4.1865">
        <ele>511</ele>
        <time>2021-04-26T08:52:35Z</time>
      </trkpt>
      <trkpt lat="45.36783" lon="4.18652">
        <ele>511</ele>
        <time>2021-04-26T08:52:36Z</time>
      </trkpt>
      <trkpt lat="45.36778" lon="4.18654">
        <ele>511</ele>
        <time>2021-04-26T08:52:37Z</time>
      </trkpt>
      <trkpt lat="45.36773" lon="4.18656">
        <ele>511</ele>
        <time>2021-04-26T08:52:38Z</time>
      </trkpt>
      <trkpt lat="45.36768" lon="4.18659">
        <ele>511</ele>
        <time>2021-04-26T08:52:39Z</time>
      </trkpt>
      <trkpt lat="45.3676" lon="4.18664">
        <ele>511</ele>
        <time>2021-04-26T08:52:40Z</time>
      </trkpt>
      <trkpt lat="45.36755" lon="4.18667">
        <ele>511</ele>
        <time>2021-04-26T08:52:41Z</time>
      </trkpt>
      <trkpt lat="45.36751" lon="4.18669">
        <ele>511</ele>
        <time>2021-04-26T08:52:42Z</time>
      </trkpt>
      <trkpt lat="45.36746" lon="4.18672">
        <ele>511</ele>
        <time>2021-04-26T08:52:43Z</time>
      </trkpt>
      <trkpt lat="45.36741" lon="4.18675">
        <ele>511</ele>
        <time>2021-04-26T08:52:44Z</time>
      </trkpt>
      <trkpt lat="45.36737" lon="4.18678">
        <ele>511</ele>
        <time>2021-04-26T08:52:45Z</time>
      </trkpt>
      <trkpt lat="45.36733" lon="4.18682">
        <ele>511</ele>
        <time>2021-04-26T08:52:46Z</time>
      </trkpt>
      <trkpt lat="45.36729" lon="4.18686">
        <ele>511</ele>
        <time>2021-04-26T08:52:48Z</time>
      </trkpt>
      <trkpt lat="45.36726" lon="4.1869">
        <ele>511</ele>
        <time>2021-04-26T08:52:49Z</time>
      </trkpt>
      <trkpt lat="45.36722" lon="4.18694">
        <ele>510</ele>
        <time>2021-04-26T08:52:50Z</time>
      </trkpt>
      <trkpt lat="45.36719" lon="4.18697">
        <ele>510</ele>
        <time>2021-04-26T08:52:51Z</time>
      </trkpt>
      <trkpt lat="45.36716" lon="4.18701">
        <ele>510</ele>
        <time>2021-04-26T08:52:52Z</time>
      </trkpt>
      <trkpt lat="45.36714" lon="4.18704">
        <ele>510</ele>
        <time>2021-04-26T08:52:53Z</time>
      </trkpt>
      <trkpt lat="45.36713" lon="4.18708">
        <ele>509</ele>
        <time>2021-04-26T08:52:54Z</time>
      </trkpt>
      <trkpt lat="45.36712" lon="4.1871">
        <ele>509</ele>
        <time>2021-04-26T08:52:55Z</time>
      </trkpt>
      <trkpt lat="45.36712" lon="4.18722">
        <ele>508</ele>
        <time>2021-04-26T08:53:18Z</time>
      </trkpt>
      <trkpt lat="45.36711" lon="4.18726">
        <ele>508</ele>
        <time>2021-04-26T08:53:19Z</time>
      </trkpt>
      <trkpt lat="45.36711" lon="4.18729">
        <ele>507</ele>
        <time>2021-04-26T08:53:21Z</time>
      </trkpt>
      <trkpt lat="45.36705" lon="4.18736">
        <ele>505</ele>
        <time>2021-04-26T08:54:02Z</time>
      </trkpt>
      <trkpt lat="45.36705" lon="4.1874">
        <ele>504</ele>
        <time>2021-04-26T08:54:03Z</time>
      </trkpt>
      <trkpt lat="45.36704" lon="4.18746">
        <ele>504</ele>
        <time>2021-04-26T08:54:06Z</time>
      </trkpt>
      <trkpt lat="45.36703" lon="4.18751">
        <ele>504</ele>
        <time>2021-04-26T08:54:07Z</time>
      </trkpt>
      <trkpt lat="45.36702" lon="4.18758">
        <ele>503</ele>
        <time>2021-04-26T08:54:08Z</time>
      </trkpt>
      <trkpt lat="45.36703" lon="4.18765">
        <ele>503</ele>
        <time>2021-04-26T08:54:09Z</time>
      </trkpt>
      <trkpt lat="45.36704" lon="4.18771">
        <ele>503</ele>
        <time>2021-04-26T08:54:10Z</time>
      </trkpt>
      <trkpt lat="45.36706" lon="4.18777">
        <ele>502</ele>
        <time>2021-04-26T08:54:11Z</time>
      </trkpt>
      <trkpt lat="45.36709" lon="4.18783">
        <ele>502</ele>
        <time>2021-04-26T08:54:12Z</time>
      </trkpt>
      <trkpt lat="45.36711" lon="4.18789">
        <ele>501</ele>
        <time>2021-04-26T08:54:13Z</time>
      </trkpt>
      <trkpt lat="45.36714" lon="4.18794">
        <ele>501</ele>
        <time>2021-04-26T08:54:14Z</time>
      </trkpt>
      <trkpt lat="45.36717" lon="4.18798">
        <ele>501</ele>
        <time>2021-04-26T08:54:15Z</time>
      </trkpt>
      <trkpt lat="45.3672" lon="4.18803">
        <ele>500</ele>
        <time>2021-04-26T08:54:16Z</time>
      </trkpt>
      <trkpt lat="45.36724" lon="4.18808">
        <ele>500</ele>
        <time>2021-04-26T08:54:17Z</time>
      </trkpt>
      <trkpt lat="45.36727" lon="4.18813">
        <ele>499</ele>
        <time>2021-04-26T08:54:18Z</time>
      </trkpt>
      <trkpt lat="45.36731" lon="4.18819">
        <ele>499</ele>
        <time>2021-04-26T08:54:19Z</time>
      </trkpt>
      <trkpt lat="45.36734" lon="4.18824">
        <ele>498</ele>
        <time>2021-04-26T08:54:20Z</time>
      </trkpt>
      <trkpt lat="45.36737" lon="4.1883">
        <ele>498</ele>
        <time>2021-04-26T08:54:21Z</time>
      </trkpt>
      <trkpt lat="45.36738" lon="4.18836">
        <ele>497</ele>
        <time>2021-04-26T08:54:22Z</time>
      </trkpt>
      <trkpt lat="45.3674" lon="4.18842">
        <ele>496</ele>
        <time>2021-04-26T08:54:23Z</time>
      </trkpt>
      <trkpt lat="45.3674" lon="4.18847">
        <ele>496</ele>
        <time>2021-04-26T08:54:24Z</time>
      </trkpt>
      <trkpt lat="45.36741" lon="4.18852">
        <ele>495</ele>
        <time>2021-04-26T08:54:25Z</time>
      </trkpt>
      <trkpt lat="45.36741" lon="4.18857">
        <ele>495</ele>
        <time>2021-04-26T08:54:26Z</time>
      </trkpt>
      <trkpt lat="45.36741" lon="4.18863">
        <ele>495</ele>
        <time>2021-04-26T08:54:27Z</time>
      </trkpt>
      <trkpt lat="45.36741" lon="4.18869">
        <ele>494</ele>
        <time>2021-04-26T08:54:28Z</time>
      </trkpt>
      <trkpt lat="45.3674" lon="4.18875">
        <ele>494</ele>
        <time>2021-04-26T08:54:29Z</time>
      </trkpt>
      <trkpt lat="45.3674" lon="4.18883">
        <ele>493</ele>
        <time>2021-04-26T08:54:30Z</time>
      </trkpt>
      <trkpt lat="45.3674" lon="4.18891">
        <ele>493</ele>
        <time>2021-04-26T08:54:31Z</time>
      </trkpt>
      <trkpt lat="45.3674" lon="4.18899">
        <ele>493</ele>
        <time>2021-04-26T08:54:32Z</time>
      </trkpt>
      <trkpt lat="45.3674" lon="4.18907">
        <ele>492</ele>
        <time>2021-04-26T08:54:33Z</time>
      </trkpt>
      <trkpt lat="45.3674" lon="4.18913">
        <ele>491</ele>
        <time>2021-04-26T08:54:34Z</time>
      </trkpt>
      <trkpt lat="45.36739" lon="4.18924">
        <ele>491</ele>
        <time>2021-04-26T08:54:35Z</time>
      </trkpt>
      <trkpt lat="45.36738" lon="4.18929">
        <ele>491</ele>
        <time>2021-04-26T08:54:36Z</time>
      </trkpt>
      <trkpt lat="45.36737" lon="4.18934">
        <ele>491</ele>
        <time>2021-04-26T08:54:37Z</time>
      </trkpt>
      <trkpt lat="45.36736" lon="4.18938">
        <ele>491</ele>
        <time>2021-04-26T08:54:38Z</time>
      </trkpt>
      <trkpt lat="45.36735" lon="4.18942">
        <ele>490</ele>
        <time>2021-04-26T08:54:39Z</time>
      </trkpt>
      <trkpt lat="45.36733" lon="4.18951">
        <ele>490</ele>
        <time>2021-04-26T08:54:41Z</time>
      </trkpt>
      <trkpt lat="45.36732" lon="4.18956">
        <ele>490</ele>
        <time>2021-04-26T08:54:43Z</time>
      </trkpt>
      <trkpt lat="45.36731" lon="4.1896">
        <ele>490</ele>
        <time>2021-04-26T08:54:44Z</time>
      </trkpt>
      <trkpt lat="45.36729" lon="4.18964">
        <ele>490</ele>
        <time>2021-04-26T08:54:45Z</time>
      </trkpt>
      <trkpt lat="45.36729" lon="4.18966">
        <ele>489</ele>
        <time>2021-04-26T08:54:46Z</time>
      </trkpt>
      <trkpt lat="45.36728" lon="4.18971">
        <ele>489</ele>
        <time>2021-04-26T08:54:48Z</time>
      </trkpt>
      <trkpt lat="45.3673" lon="4.18974">
        <ele>489</ele>
        <time>2021-04-26T08:54:50Z</time>
      </trkpt>
      <trkpt lat="45.36732" lon="4.18975">
        <ele>489</ele>
        <time>2021-04-26T08:54:51Z</time>
      </trkpt>
      <trkpt lat="45.36734" lon="4.18977">
        <ele>489</ele>
        <time>2021-04-26T08:54:52Z</time>
      </trkpt>
      <trkpt lat="45.36736" lon="4.18979">
        <ele>489</ele>
        <time>2021-04-26T08:54:53Z</time>
      </trkpt>
      <trkpt lat="45.36737" lon="4.18981">
        <ele>488</ele>
        <time>2021-04-26T08:54:54Z</time>
      </trkpt>
      <trkpt lat="45.36738" lon="4.18983">
        <ele>488</ele>
        <time>2021-04-26T08:54:55Z</time>
      </trkpt>
      <trkpt lat="45.36739" lon="4.18986">
        <ele>488</ele>
        <time>2021-04-26T08:54:56Z</time>
      </trkpt>
      <trkpt lat="45.36739" lon="4.18989">
        <ele>488</ele>
        <time>2021-04-26T08:54:57Z</time>
      </trkpt>
      <trkpt lat="45.3674" lon="4.18993">
        <ele>487</ele>
        <time>2021-04-26T08:54:58Z</time>
      </trkpt>
      <trkpt lat="45.3674" lon="4.18996">
        <ele>487</ele>
        <time>2021-04-26T08:54:59Z</time>
      </trkpt>
      <trkpt lat="45.36742" lon="4.19004">
        <ele>487</ele>
        <time>2021-04-26T08:55:00Z</time>
      </trkpt>
      <trkpt lat="45.36743" lon="4.19008">
        <ele>487</ele>
        <time>2021-04-26T08:55:01Z</time>
      </trkpt>
      <trkpt lat="45.36745" lon="4.19012">
        <ele>486</ele>
        <time>2021-04-26T08:55:02Z</time>
      </trkpt>
      <trkpt lat="45.36746" lon="4.19016">
        <ele>486</ele>
        <time>2021-04-26T08:55:03Z</time>
      </trkpt>
      <trkpt lat="45.36746" lon="4.19018">
        <ele>486</ele>
        <time>2021-04-26T08:55:04Z</time>
      </trkpt>
      <trkpt lat="45.36746" lon="4.19022">
        <ele>485</ele>
        <time>2021-04-26T08:55:05Z</time>
      </trkpt>
      <trkpt lat="45.36747" lon="4.19025">
        <ele>485</ele>
        <time>2021-04-26T08:55:06Z</time>
      </trkpt>
      <trkpt lat="45.3675" lon="4.19033">
        <ele>485</ele>
        <time>2021-04-26T08:55:08Z</time>
      </trkpt>
      <trkpt lat="45.36752" lon="4.19038">
        <ele>485</ele>
        <time>2021-04-26T08:55:09Z</time>
      </trkpt>
      <trkpt lat="45.36755" lon="4.19042">
        <ele>484</ele>
        <time>2021-04-26T08:55:10Z</time>
      </trkpt>
      <trkpt lat="45.36758" lon="4.19047">
        <ele>484</ele>
        <time>2021-04-26T08:55:11Z</time>
      </trkpt>
      <trkpt lat="45.36761" lon="4.19051">
        <ele>483</ele>
        <time>2021-04-26T08:55:12Z</time>
      </trkpt>
      <trkpt lat="45.36764" lon="4.19055">
        <ele>483</ele>
        <time>2021-04-26T08:55:13Z</time>
      </trkpt>
      <trkpt lat="45.36767" lon="4.1906">
        <ele>483</ele>
        <time>2021-04-26T08:55:14Z</time>
      </trkpt>
      <trkpt lat="45.36769" lon="4.19064">
        <ele>483</ele>
        <time>2021-04-26T08:55:15Z</time>
      </trkpt>
      <trkpt lat="45.36772" lon="4.19069">
        <ele>482</ele>
        <time>2021-04-26T08:55:16Z</time>
      </trkpt>
      <trkpt lat="45.36775" lon="4.19073">
        <ele>482</ele>
        <time>2021-04-26T08:55:17Z</time>
      </trkpt>
      <trkpt lat="45.36784" lon="4.19081">
        <ele>482</ele>
        <time>2021-04-26T08:55:19Z</time>
      </trkpt>
      <trkpt lat="45.36789" lon="4.19086">
        <ele>481</ele>
        <time>2021-04-26T08:55:21Z</time>
      </trkpt>
      <trkpt lat="45.36794" lon="4.19089">
        <ele>480</ele>
        <time>2021-04-26T08:55:22Z</time>
      </trkpt>
      <trkpt lat="45.36799" lon="4.19093">
        <ele>480</ele>
        <time>2021-04-26T08:55:23Z</time>
      </trkpt>
      <trkpt lat="45.36805" lon="4.19096">
        <ele>480</ele>
        <time>2021-04-26T08:55:24Z</time>
      </trkpt>
      <trkpt lat="45.3681" lon="4.19102">
        <ele>479</ele>
        <time>2021-04-26T08:55:25Z</time>
      </trkpt>
      <trkpt lat="45.36815" lon="4.19107">
        <ele>479</ele>
        <time>2021-04-26T08:55:26Z</time>
      </trkpt>
      <trkpt lat="45.36821" lon="4.19111">
        <ele>478</ele>
        <time>2021-04-26T08:55:27Z</time>
      </trkpt>
      <trkpt lat="45.36826" lon="4.19116">
        <ele>478</ele>
        <time>2021-04-26T08:55:28Z</time>
      </trkpt>
      <trkpt lat="45.36831" lon="4.19121">
        <ele>478</ele>
        <time>2021-04-26T08:55:29Z</time>
      </trkpt>
      <trkpt lat="45.36836" lon="4.19126">
        <ele>477</ele>
        <time>2021-04-26T08:55:30Z</time>
      </trkpt>
      <trkpt lat="45.3684" lon="4.19131">
        <ele>477</ele>
        <time>2021-04-26T08:55:31Z</time>
      </trkpt>
      <trkpt lat="45.36844" lon="4.19135">
        <ele>476</ele>
        <time>2021-04-26T08:55:32Z</time>
      </trkpt>
      <trkpt lat="45.36849" lon="4.1914">
        <ele>475</ele>
        <time>2021-04-26T08:55:33Z</time>
      </trkpt>
      <trkpt lat="45.36855" lon="4.19146">
        <ele>475</ele>
        <time>2021-04-26T08:55:34Z</time>
      </trkpt>
      <trkpt lat="45.3686" lon="4.19152">
        <ele>474</ele>
        <time>2021-04-26T08:55:35Z</time>
      </trkpt>
      <trkpt lat="45.36865" lon="4.19158">
        <ele>474</ele>
        <time>2021-04-26T08:55:36Z</time>
      </trkpt>
      <trkpt lat="45.36871" lon="4.19165">
        <ele>473</ele>
        <time>2021-04-26T08:55:37Z</time>
      </trkpt>
      <trkpt lat="45.36877" lon="4.19173">
        <ele>470</ele>
        <time>2021-04-26T08:55:38Z</time>
      </trkpt>
      <trkpt lat="45.36881" lon="4.19185">
        <ele>468</ele>
        <time>2021-04-26T08:55:39Z</time>
      </trkpt>
      <trkpt lat="45.36882" lon="4.192">
        <ele>466</ele>
        <time>2021-04-26T08:55:40Z</time>
      </trkpt>
      <trkpt lat="45.36882" lon="4.19214">
        <ele>464</ele>
        <time>2021-04-26T08:55:41Z</time>
      </trkpt>
      <trkpt lat="45.36883" lon="4.19226">
        <ele>464</ele>
        <time>2021-04-26T08:55:42Z</time>
      </trkpt>
      <trkpt lat="45.36883" lon="4.19238">
        <ele>462</ele>
        <time>2021-04-26T08:55:43Z</time>
      </trkpt>
      <trkpt lat="45.36883" lon="4.19248">
        <ele>461</ele>
        <time>2021-04-26T08:55:44Z</time>
      </trkpt>
      <trkpt lat="45.36883" lon="4.19258">
        <ele>460</ele>
        <time>2021-04-26T08:55:45Z</time>
      </trkpt>
      <trkpt lat="45.36883" lon="4.19267">
        <ele>459</ele>
        <time>2021-04-26T08:55:46Z</time>
      </trkpt>
      <trkpt lat="45.36883" lon="4.19275">
        <ele>458</ele>
        <time>2021-04-26T08:55:47Z</time>
      </trkpt>
      <trkpt lat="45.36884" lon="4.19282">
        <ele>457</ele>
        <time>2021-04-26T08:55:48Z</time>
      </trkpt>
      <trkpt lat="45.36883" lon="4.19286">
        <ele>457</ele>
        <time>2021-04-26T08:55:49Z</time>
      </trkpt>
      <trkpt lat="45.36883" lon="4.1929">
        <ele>457</ele>
        <time>2021-04-26T08:55:50Z</time>
      </trkpt>
      <trkpt lat="45.36882" lon="4.19293">
        <ele>455</ele>
        <time>2021-04-26T08:55:52Z</time>
      </trkpt>
      <trkpt lat="45.36882" lon="4.19293">
        <ele>455</ele>
        <time>2021-04-26T08:55:57Z</time>
      </trkpt>
      <trkpt lat="45.36877" lon="4.19298">
        <ele>452</ele>
        <time>2021-04-26T08:56:24Z</time>
      </trkpt>
      <trkpt lat="45.36876" lon="4.19302">
        <ele>451</ele>
        <time>2021-04-26T08:56:25Z</time>
      </trkpt>
      <trkpt lat="45.36876" lon="4.19306">
        <ele>451</ele>
        <time>2021-04-26T08:56:26Z</time>
      </trkpt>
      <trkpt lat="45.36877" lon="4.19309">
        <ele>449</ele>
        <time>2021-04-26T08:56:28Z</time>
      </trkpt>
      <trkpt lat="45.36878" lon="4.19309">
        <ele>449</ele>
        <time>2021-04-26T08:56:34Z</time>
      </trkpt>
      <trkpt lat="45.36884" lon="4.19305">
        <ele>446</ele>
        <time>2021-04-26T09:02:36Z</time>
      </trkpt>
      <trkpt lat="45.36887" lon="4.19305">
        <ele>446</ele>
        <time>2021-04-26T09:02:37Z</time>
      </trkpt>
      <trkpt lat="45.36895" lon="4.19307">
        <ele>446</ele>
        <time>2021-04-26T09:02:38Z</time>
      </trkpt>
      <trkpt lat="45.369" lon="4.19308">
        <ele>446</ele>
        <time>2021-04-26T09:02:39Z</time>
      </trkpt>
      <trkpt lat="45.36904" lon="4.1931">
        <ele>445</ele>
        <time>2021-04-26T09:02:41Z</time>
      </trkpt>
      <trkpt lat="45.36908" lon="4.19312">
        <ele>445</ele>
        <time>2021-04-26T09:02:42Z</time>
      </trkpt>
      <trkpt lat="45.36913" lon="4.19315">
        <ele>445</ele>
        <time>2021-04-26T09:02:43Z</time>
      </trkpt>
      <trkpt lat="45.36917" lon="4.19317">
        <ele>445</ele>
        <time>2021-04-26T09:02:44Z</time>
      </trkpt>
      <trkpt lat="45.36922" lon="4.1932">
        <ele>445</ele>
        <time>2021-04-26T09:02:45Z</time>
      </trkpt>
      <trkpt lat="45.36926" lon="4.19323">
        <ele>445</ele>
        <time>2021-04-26T09:02:46Z</time>
      </trkpt>
      <trkpt lat="45.36931" lon="4.19326">
        <ele>445</ele>
        <time>2021-04-26T09:02:47Z</time>
      </trkpt>
      <trkpt lat="45.36936" lon="4.1933">
        <ele>445</ele>
        <time>2021-04-26T09:02:48Z</time>
      </trkpt>
      <trkpt lat="45.36941" lon="4.19333">
        <ele>444</ele>
        <time>2021-04-26T09:02:49Z</time>
      </trkpt>
      <trkpt lat="45.36946" lon="4.19337">
        <ele>444</ele>
        <time>2021-04-26T09:02:50Z</time>
      </trkpt>
      <trkpt lat="45.36951" lon="4.19341">
        <ele>444</ele>
        <time>2021-04-26T09:02:51Z</time>
      </trkpt>
      <trkpt lat="45.36956" lon="4.19345">
        <ele>444</ele>
        <time>2021-04-26T09:02:52Z</time>
      </trkpt>
      <trkpt lat="45.3696" lon="4.19349">
        <ele>443</ele>
        <time>2021-04-26T09:02:53Z</time>
      </trkpt>
      <trkpt lat="45.36965" lon="4.19354">
        <ele>443</ele>
        <time>2021-04-26T09:02:54Z</time>
      </trkpt>
      <trkpt lat="45.3697" lon="4.1936">
        <ele>443</ele>
        <time>2021-04-26T09:02:55Z</time>
      </trkpt>
      <trkpt lat="45.36974" lon="4.19365">
        <ele>442</ele>
        <time>2021-04-26T09:02:56Z</time>
      </trkpt>
      <trkpt lat="45.36977" lon="4.19372">
        <ele>442</ele>
        <time>2021-04-26T09:02:57Z</time>
      </trkpt>
      <trkpt lat="45.36979" lon="4.19378">
        <ele>442</ele>
        <time>2021-04-26T09:02:58Z</time>
      </trkpt>
      <trkpt lat="45.36979" lon="4.19384">
        <ele>442</ele>
        <time>2021-04-26T09:02:59Z</time>
      </trkpt>
      <trkpt lat="45.36979" lon="4.19389">
        <ele>441</ele>
        <time>2021-04-26T09:03:00Z</time>
      </trkpt>
      <trkpt lat="45.36979" lon="4.19393">
        <ele>441</ele>
        <time>2021-04-26T09:03:01Z</time>
      </trkpt>
      <trkpt lat="45.36979" lon="4.19397">
        <ele>441</ele>
        <time>2021-04-26T09:03:02Z</time>
      </trkpt>
      <trkpt lat="45.36981" lon="4.19401">
        <ele>441</ele>
        <time>2021-04-26T09:03:03Z</time>
      </trkpt>
      <trkpt lat="45.36982" lon="4.19404">
        <ele>441</ele>
        <time>2021-04-26T09:03:04Z</time>
      </trkpt>
      <trkpt lat="45.36983" lon="4.19406">
        <ele>441</ele>
        <time>2021-04-26T09:03:05Z</time>
      </trkpt>
      <trkpt lat="45.36982" lon="4.19408">
        <ele>440</ele>
        <time>2021-04-26T09:03:07Z</time>
      </trkpt>
      <trkpt lat="45.36978" lon="4.19408">
        <ele>440</ele>
        <time>2021-04-26T09:03:09Z</time>
      </trkpt>
      <trkpt lat="45.36976" lon="4.19405">
        <ele>440</ele>
        <time>2021-04-26T09:03:10Z</time>
      </trkpt>
      <trkpt lat="45.36973" lon="4.19401">
        <ele>439</ele>
        <time>2021-04-26T09:03:11Z</time>
      </trkpt>
      <trkpt lat="45.3697" lon="4.19398">
        <ele>439</ele>
        <time>2021-04-26T09:03:12Z</time>
      </trkpt>
      <trkpt lat="45.36966" lon="4.19395">
        <ele>439</ele>
        <time>2021-04-26T09:03:13Z</time>
      </trkpt>
      <trkpt lat="45.36963" lon="4.19393">
        <ele>439</ele>
        <time>2021-04-26T09:03:14Z</time>
      </trkpt>
      <trkpt lat="45.36958" lon="4.19392">
        <ele>438</ele>
        <time>2021-04-26T09:03:15Z</time>
      </trkpt>
      <trkpt lat="45.36954" lon="4.19391">
        <ele>438</ele>
        <time>2021-04-26T09:03:16Z</time>
      </trkpt>
      <trkpt lat="45.36949" lon="4.1939">
        <ele>438</ele>
        <time>2021-04-26T09:03:17Z</time>
      </trkpt>
      <trkpt lat="45.36944" lon="4.1939">
        <ele>438</ele>
        <time>2021-04-26T09:03:18Z</time>
      </trkpt>
      <trkpt lat="45.36938" lon="4.19391">
        <ele>438</ele>
        <time>2021-04-26T09:03:19Z</time>
      </trkpt>
      <trkpt lat="45.36933" lon="4.19392">
        <ele>438</ele>
        <time>2021-04-26T09:03:20Z</time>
      </trkpt>
      <trkpt lat="45.36928" lon="4.19394">
        <ele>438</ele>
        <time>2021-04-26T09:03:21Z</time>
      </trkpt>
      <trkpt lat="45.36924" lon="4.19396">
        <ele>437</ele>
        <time>2021-04-26T09:03:22Z</time>
      </trkpt>
      <trkpt lat="45.36921" lon="4.19399">
        <ele>437</ele>
        <time>2021-04-26T09:03:23Z</time>
      </trkpt>
      <trkpt lat="45.36918" lon="4.19402">
        <ele>437</ele>
        <time>2021-04-26T09:03:24Z</time>
      </trkpt>
      <trkpt lat="45.36916" lon="4.19406">
        <ele>437</ele>
        <time>2021-04-26T09:03:25Z</time>
      </trkpt>
      <trkpt lat="45.36915" lon="4.19411">
        <ele>437</ele>
        <time>2021-04-26T09:03:26Z</time>
      </trkpt>
      <trkpt lat="45.36915" lon="4.19416">
        <ele>436</ele>
        <time>2021-04-26T09:03:27Z</time>
      </trkpt>
      <trkpt lat="45.36916" lon="4.1942">
        <ele>436</ele>
        <time>2021-04-26T09:03:28Z</time>
      </trkpt>
      <trkpt lat="45.36916" lon="4.19424">
        <ele>436</ele>
        <time>2021-04-26T09:03:29Z</time>
      </trkpt>
      <trkpt lat="45.36916" lon="4.19428">
        <ele>436</ele>
        <time>2021-04-26T09:03:30Z</time>
      </trkpt>
      <trkpt lat="45.36916" lon="4.19431">
        <ele>436</ele>
        <time>2021-04-26T09:03:31Z</time>
      </trkpt>
      <trkpt lat="45.36916" lon="4.19434">
        <ele>436</ele>
        <time>2021-04-26T09:03:32Z</time>
      </trkpt>
      <trkpt lat="45.36916" lon="4.19437">
        <ele>436</ele>
        <time>2021-04-26T09:03:33Z</time>
      </trkpt>
      <trkpt lat="45.36916" lon="4.1944">
        <ele>436</ele>
        <time>2021-04-26T09:03:34Z</time>
      </trkpt>
      <trkpt lat="45.36917" lon="4.19444">
        <ele>436</ele>
        <time>2021-04-26T09:03:35Z</time>
      </trkpt>
      <trkpt lat="45.36917" lon="4.19448">
        <ele>436</ele>
        <time>2021-04-26T09:03:36Z</time>
      </trkpt>
      <trkpt lat="45.36918" lon="4.19453">
        <ele>436</ele>
        <time>2021-04-26T09:03:37Z</time>
      </trkpt>
      <trkpt lat="45.36918" lon="4.19458">
        <ele>435</ele>
        <time>2021-04-26T09:03:38Z</time>
      </trkpt>
      <trkpt lat="45.36919" lon="4.19464">
        <ele>435</ele>
        <time>2021-04-26T09:03:39Z</time>
      </trkpt>
      <trkpt lat="45.3692" lon="4.19469">
        <ele>435</ele>
        <time>2021-04-26T09:03:40Z</time>
      </trkpt>
      <trkpt lat="45.36921" lon="4.19474">
        <ele>435</ele>
        <time>2021-04-26T09:03:41Z</time>
      </trkpt>
      <trkpt lat="45.36922" lon="4.1948">
        <ele>434</ele>
        <time>2021-04-26T09:03:42Z</time>
      </trkpt>
      <trkpt lat="45.36922" lon="4.19485">
        <ele>434</ele>
        <time>2021-04-26T09:03:43Z</time>
      </trkpt>
      <trkpt lat="45.36923" lon="4.1949">
        <ele>434</ele>
        <time>2021-04-26T09:03:44Z</time>
      </trkpt>
      <trkpt lat="45.36924" lon="4.19495">
        <ele>433</ele>
        <time>2021-04-26T09:03:45Z</time>
      </trkpt>
      <trkpt lat="45.36925" lon="4.195">
        <ele>433</ele>
        <time>2021-04-26T09:03:46Z</time>
      </trkpt>
      <trkpt lat="45.36926" lon="4.19505">
        <ele>433</ele>
        <time>2021-04-26T09:03:47Z</time>
      </trkpt>
      <trkpt lat="45.36927" lon="4.19511">
        <ele>432</ele>
        <time>2021-04-26T09:03:48Z</time>
      </trkpt>
      <trkpt lat="45.36927" lon="4.19517">
        <ele>432</ele>
        <time>2021-04-26T09:03:49Z</time>
      </trkpt>
      <trkpt lat="45.36928" lon="4.19523">
        <ele>432</ele>
        <time>2021-04-26T09:03:50Z</time>
      </trkpt>
      <trkpt lat="45.36929" lon="4.19529">
        <ele>432</ele>
        <time>2021-04-26T09:03:51Z</time>
      </trkpt>
      <trkpt lat="45.3693" lon="4.19535">
        <ele>432</ele>
        <time>2021-04-26T09:03:52Z</time>
      </trkpt>
      <trkpt lat="45.36931" lon="4.19541">
        <ele>431</ele>
        <time>2021-04-26T09:03:53Z</time>
      </trkpt>
      <trkpt lat="45.36932" lon="4.19548">
        <ele>431</ele>
        <time>2021-04-26T09:03:54Z</time>
      </trkpt>
      <trkpt lat="45.36933" lon="4.19554">
        <ele>431</ele>
        <time>2021-04-26T09:03:55Z</time>
      </trkpt>
      <trkpt lat="45.36934" lon="4.1956">
        <ele>431</ele>
        <time>2021-04-26T09:03:56Z</time>
      </trkpt>
      <trkpt lat="45.36935" lon="4.19565">
        <ele>431</ele>
        <time>2021-04-26T09:03:57Z</time>
      </trkpt>
      <trkpt lat="45.36935" lon="4.19571">
        <ele>431</ele>
        <time>2021-04-26T09:03:58Z</time>
      </trkpt>
      <trkpt lat="45.36936" lon="4.19575">
        <ele>430</ele>
        <time>2021-04-26T09:03:59Z</time>
      </trkpt>
      <trkpt lat="45.36937" lon="4.1958">
        <ele>430</ele>
        <time>2021-04-26T09:04:00Z</time>
      </trkpt>
      <trkpt lat="45.36937" lon="4.19585">
        <ele>430</ele>
        <time>2021-04-26T09:04:01Z</time>
      </trkpt>
      <trkpt lat="45.36938" lon="4.1959">
        <ele>430</ele>
        <time>2021-04-26T09:04:02Z</time>
      </trkpt>
      <trkpt lat="45.3694" lon="4.19599">
        <ele>430</ele>
        <time>2021-04-26T09:04:03Z</time>
      </trkpt>
      <trkpt lat="45.36941" lon="4.19605">
        <ele>430</ele>
        <time>2021-04-26T09:04:05Z</time>
      </trkpt>
      <trkpt lat="45.36941" lon="4.1961">
        <ele>430</ele>
        <time>2021-04-26T09:04:06Z</time>
      </trkpt>
      <trkpt lat="45.36942" lon="4.19615">
        <ele>430</ele>
        <time>2021-04-26T09:04:07Z</time>
      </trkpt>
      <trkpt lat="45.36943" lon="4.19621">
        <ele>430</ele>
        <time>2021-04-26T09:04:08Z</time>
      </trkpt>
      <trkpt lat="45.36944" lon="4.19627">
        <ele>430</ele>
        <time>2021-04-26T09:04:09Z</time>
      </trkpt>
      <trkpt lat="45.36944" lon="4.19632">
        <ele>430</ele>
        <time>2021-04-26T09:04:10Z</time>
      </trkpt>
      <trkpt lat="45.36945" lon="4.19637">
        <ele>430</ele>
        <time>2021-04-26T09:04:11Z</time>
      </trkpt>
      <trkpt lat="45.36945" lon="4.19642">
        <ele>430</ele>
        <time>2021-04-26T09:04:12Z</time>
      </trkpt>
      <trkpt lat="45.36946" lon="4.19647">
        <ele>430</ele>
        <time>2021-04-26T09:04:13Z</time>
      </trkpt>
      <trkpt lat="45.36947" lon="4.19653">
        <ele>430</ele>
        <time>2021-04-26T09:04:14Z</time>
      </trkpt>
      <trkpt lat="45.36947" lon="4.19658">
        <ele>430</ele>
        <time>2021-04-26T09:04:15Z</time>
      </trkpt>
      <trkpt lat="45.36948" lon="4.19663">
        <ele>430</ele>
        <time>2021-04-26T09:04:16Z</time>
      </trkpt>
      <trkpt lat="45.36948" lon="4.19669">
        <ele>430</ele>
        <time>2021-04-26T09:04:17Z</time>
      </trkpt>
      <trkpt lat="45.36949" lon="4.19675">
        <ele>430</ele>
        <time>2021-04-26T09:04:18Z</time>
      </trkpt>
      <trkpt lat="45.36949" lon="4.1968">
        <ele>430</ele>
        <time>2021-04-26T09:04:19Z</time>
      </trkpt>
    </trkseg>
  </trk>
</gpx>